<?xml version="1.0" encoding="UTF-8" standalone="no" ?>
<gpx xmlns="http://www.topografix.com/GPX/1/1" xmlns:xsi="http://www.w3.org/2001/XMLSchema-instance" xsi:schemaLocation="http://www.topografix.com/GPX/1/1 http://www.topografix.com/GPX/1/1/gpx.xsd" version="1.1" creator="VisuGPX - https://www.visugpx.com">
  <metadata>
    <name>Marathon 2024 autour de Yerres</name>
    <desc><![CDATA[Parcours urbain idéal en cette saison au vu de la boue présente en foret]]></desc>
  </metadata>
  <trk>
    <name><![CDATA[SityTrail - Marathon 2024 autour de Yerres]]></name>
    <desc><![CDATA[Parcours urbain idéal en cette saison au vu de la boue présente en foret]]></desc>
    <trkseg>
      <trkpt lat="48.71476" lon="2.47914">
        <ele>38</ele>
        <time>2024-01-22T06:56:41.030+00:00</time>
      </trkpt>
      <trkpt lat="48.7147" lon="2.47904">
        <ele>38</ele>
        <time>2024-01-22T07:00:28.018+00:00</time>
      </trkpt>
      <trkpt lat="48.7147" lon="2.47904">
        <ele>38</ele>
        <time>2024-01-22T07:00:31.579+00:00</time>
      </trkpt>
      <trkpt lat="48.71469" lon="2.47904">
        <ele>38</ele>
        <time>2024-01-22T07:00:36.742+00:00</time>
      </trkpt>
      <trkpt lat="48.71469" lon="2.47904">
        <ele>38</ele>
        <time>2024-01-22T07:00:40.686+00:00</time>
      </trkpt>
      <trkpt lat="48.71469" lon="2.47904">
        <ele>38</ele>
        <time>2024-01-22T07:00:44.749+00:00</time>
      </trkpt>
      <trkpt lat="48.71468" lon="2.47903">
        <ele>38</ele>
        <time>2024-01-22T07:00:49.056+00:00</time>
      </trkpt>
      <trkpt lat="48.71469" lon="2.47902">
        <ele>38</ele>
        <time>2024-01-22T07:00:53.470+00:00</time>
      </trkpt>
      <trkpt lat="48.71468" lon="2.47893">
        <ele>38</ele>
        <time>2024-01-22T07:00:58.058+00:00</time>
      </trkpt>
      <trkpt lat="48.71469" lon="2.47887">
        <ele>38</ele>
        <time>2024-01-22T07:01:02.430+00:00</time>
      </trkpt>
      <trkpt lat="48.71474" lon="2.47886">
        <ele>38</ele>
        <time>2024-01-22T07:01:06.767+00:00</time>
      </trkpt>
      <trkpt lat="48.71477" lon="2.47883">
        <ele>38</ele>
        <time>2024-01-22T07:01:10.794+00:00</time>
      </trkpt>
      <trkpt lat="48.7148" lon="2.47881">
        <ele>38</ele>
        <time>2024-01-22T07:01:14.579+00:00</time>
      </trkpt>
      <trkpt lat="48.71483" lon="2.4788">
        <ele>38</ele>
        <time>2024-01-22T07:01:19.579+00:00</time>
      </trkpt>
      <trkpt lat="48.71488" lon="2.47879">
        <ele>38</ele>
        <time>2024-01-22T07:01:24.172+00:00</time>
      </trkpt>
      <trkpt lat="48.71495" lon="2.47878">
        <ele>38</ele>
        <time>2024-01-22T07:01:28.579+00:00</time>
      </trkpt>
      <trkpt lat="48.71502" lon="2.47877">
        <ele>38</ele>
        <time>2024-01-22T07:01:33.252+00:00</time>
      </trkpt>
      <trkpt lat="48.71508" lon="2.47874">
        <ele>38</ele>
        <time>2024-01-22T07:01:37.194+00:00</time>
      </trkpt>
      <trkpt lat="48.71514" lon="2.47871">
        <ele>37</ele>
        <time>2024-01-22T07:01:41.665+00:00</time>
      </trkpt>
      <trkpt lat="48.71522" lon="2.47869">
        <ele>37</ele>
        <time>2024-01-22T07:01:46.153+00:00</time>
      </trkpt>
      <trkpt lat="48.71529" lon="2.47866">
        <ele>37</ele>
        <time>2024-01-22T07:01:50.692+00:00</time>
      </trkpt>
      <trkpt lat="48.71536" lon="2.47865">
        <ele>37</ele>
        <time>2024-01-22T07:01:55.350+00:00</time>
      </trkpt>
      <trkpt lat="48.71543" lon="2.47864">
        <ele>37</ele>
        <time>2024-01-22T07:01:59.291+00:00</time>
      </trkpt>
      <trkpt lat="48.7155" lon="2.47863">
        <ele>37</ele>
        <time>2024-01-22T07:02:03.830+00:00</time>
      </trkpt>
      <trkpt lat="48.71555" lon="2.47861">
        <ele>37</ele>
        <time>2024-01-22T07:02:07.890+00:00</time>
      </trkpt>
      <trkpt lat="48.71562" lon="2.4786">
        <ele>37</ele>
        <time>2024-01-22T07:02:12.548+00:00</time>
      </trkpt>
      <trkpt lat="48.71568" lon="2.47858">
        <ele>37</ele>
        <time>2024-01-22T07:02:17.086+00:00</time>
      </trkpt>
      <trkpt lat="48.71574" lon="2.47857">
        <ele>38</ele>
        <time>2024-01-22T07:02:21.588+00:00</time>
      </trkpt>
      <trkpt lat="48.71579" lon="2.47858">
        <ele>38</ele>
        <time>2024-01-22T07:02:25.568+00:00</time>
      </trkpt>
      <trkpt lat="48.71586" lon="2.47855">
        <ele>38</ele>
        <time>2024-01-22T07:02:29.748+00:00</time>
      </trkpt>
      <trkpt lat="48.71592" lon="2.47853">
        <ele>38</ele>
        <time>2024-01-22T07:02:33.690+00:00</time>
      </trkpt>
      <trkpt lat="48.71597" lon="2.47851">
        <ele>40</ele>
        <time>2024-01-22T07:02:37.751+00:00</time>
      </trkpt>
      <trkpt lat="48.71603" lon="2.47849">
        <ele>40</ele>
        <time>2024-01-22T07:02:41.932+00:00</time>
      </trkpt>
      <trkpt lat="48.7161" lon="2.47849">
        <ele>40</ele>
        <time>2024-01-22T07:02:45.874+00:00</time>
      </trkpt>
      <trkpt lat="48.71617" lon="2.47848">
        <ele>40</ele>
        <time>2024-01-22T07:02:50.293+00:00</time>
      </trkpt>
      <trkpt lat="48.71623" lon="2.47846">
        <ele>40</ele>
        <time>2024-01-22T07:02:54.356+00:00</time>
      </trkpt>
      <trkpt lat="48.71629" lon="2.47842">
        <ele>47</ele>
        <time>2024-01-22T07:02:58.968+00:00</time>
      </trkpt>
      <trkpt lat="48.71635" lon="2.47841">
        <ele>47</ele>
        <time>2024-01-22T07:03:02.720+00:00</time>
      </trkpt>
      <trkpt lat="48.7164" lon="2.47839">
        <ele>47</ele>
        <time>2024-01-22T07:03:06.782+00:00</time>
      </trkpt>
      <trkpt lat="48.71647" lon="2.47836">
        <ele>47</ele>
        <time>2024-01-22T07:03:11.443+00:00</time>
      </trkpt>
      <trkpt lat="48.71654" lon="2.47835">
        <ele>50</ele>
        <time>2024-01-22T07:03:15.964+00:00</time>
      </trkpt>
      <trkpt lat="48.71656" lon="2.47836">
        <ele>50</ele>
        <time>2024-01-22T07:03:20.760+00:00</time>
      </trkpt>
      <trkpt lat="48.71655" lon="2.4784">
        <ele>50</ele>
        <time>2024-01-22T07:03:24.941+00:00</time>
      </trkpt>
      <trkpt lat="48.71656" lon="2.47847">
        <ele>50</ele>
        <time>2024-01-22T07:03:29.243+00:00</time>
      </trkpt>
      <trkpt lat="48.71658" lon="2.47857">
        <ele>49</ele>
        <time>2024-01-22T07:03:33.545+00:00</time>
      </trkpt>
      <trkpt lat="48.7166" lon="2.47866">
        <ele>49</ele>
        <time>2024-01-22T07:03:38.087+00:00</time>
      </trkpt>
      <trkpt lat="48.71661" lon="2.47873">
        <ele>49</ele>
        <time>2024-01-22T07:03:42.150+00:00</time>
      </trkpt>
      <trkpt lat="48.71663" lon="2.4788">
        <ele>48</ele>
        <time>2024-01-22T07:03:46.683+00:00</time>
      </trkpt>
      <trkpt lat="48.71665" lon="2.47886">
        <ele>48</ele>
        <time>2024-01-22T07:03:50.754+00:00</time>
      </trkpt>
      <trkpt lat="48.71664" lon="2.47894">
        <ele>48</ele>
        <time>2024-01-22T07:03:54.697+00:00</time>
      </trkpt>
      <trkpt lat="48.71663" lon="2.47905">
        <ele>47</ele>
        <time>2024-01-22T07:03:59.237+00:00</time>
      </trkpt>
      <trkpt lat="48.71662" lon="2.47914">
        <ele>47</ele>
        <time>2024-01-22T07:04:03.180+00:00</time>
      </trkpt>
      <trkpt lat="48.71661" lon="2.47923">
        <ele>47</ele>
        <time>2024-01-22T07:04:07.244+00:00</time>
      </trkpt>
      <trkpt lat="48.71661" lon="2.47933">
        <ele>47</ele>
        <time>2024-01-22T07:04:11.887+00:00</time>
      </trkpt>
      <trkpt lat="48.71662" lon="2.47942">
        <ele>47</ele>
        <time>2024-01-22T07:04:15.968+00:00</time>
      </trkpt>
      <trkpt lat="48.71664" lon="2.4795">
        <ele>47</ele>
        <time>2024-01-22T07:04:20.103+00:00</time>
      </trkpt>
      <trkpt lat="48.71664" lon="2.4796">
        <ele>47</ele>
        <time>2024-01-22T07:04:24.571+00:00</time>
      </trkpt>
      <trkpt lat="48.71664" lon="2.47967">
        <ele>47</ele>
        <time>2024-01-22T07:04:29.045+00:00</time>
      </trkpt>
      <trkpt lat="48.71662" lon="2.47975">
        <ele>47</ele>
        <time>2024-01-22T07:04:33.579+00:00</time>
      </trkpt>
      <trkpt lat="48.71663" lon="2.47982">
        <ele>47</ele>
        <time>2024-01-22T07:04:37.472+00:00</time>
      </trkpt>
      <trkpt lat="48.71664" lon="2.4799">
        <ele>47</ele>
        <time>2024-01-22T07:04:41.295+00:00</time>
      </trkpt>
      <trkpt lat="48.71665" lon="2.48001">
        <ele>47</ele>
        <time>2024-01-22T07:04:45.836+00:00</time>
      </trkpt>
      <trkpt lat="48.71666" lon="2.4801">
        <ele>47</ele>
        <time>2024-01-22T07:04:49.897+00:00</time>
      </trkpt>
      <trkpt lat="48.71667" lon="2.48018">
        <ele>46</ele>
        <time>2024-01-22T07:04:53.960+00:00</time>
      </trkpt>
      <trkpt lat="48.71668" lon="2.48029">
        <ele>46</ele>
        <time>2024-01-22T07:04:58.123+00:00</time>
      </trkpt>
      <trkpt lat="48.7167" lon="2.48037">
        <ele>46</ele>
        <time>2024-01-22T07:05:02.184+00:00</time>
      </trkpt>
      <trkpt lat="48.71672" lon="2.48045">
        <ele>45</ele>
        <time>2024-01-22T07:05:06.645+00:00</time>
      </trkpt>
      <trkpt lat="48.71674" lon="2.48053">
        <ele>45</ele>
        <time>2024-01-22T07:05:10.427+00:00</time>
      </trkpt>
      <trkpt lat="48.71675" lon="2.48063">
        <ele>45</ele>
        <time>2024-01-22T07:05:14.967+00:00</time>
      </trkpt>
      <trkpt lat="48.71675" lon="2.48074">
        <ele>45</ele>
        <time>2024-01-22T07:05:19.506+00:00</time>
      </trkpt>
      <trkpt lat="48.71675" lon="2.48084">
        <ele>45</ele>
        <time>2024-01-22T07:05:23.569+00:00</time>
      </trkpt>
      <trkpt lat="48.71676" lon="2.48095">
        <ele>45</ele>
        <time>2024-01-22T07:05:27.751+00:00</time>
      </trkpt>
      <trkpt lat="48.71679" lon="2.48106">
        <ele>45</ele>
        <time>2024-01-22T07:05:32.290+00:00</time>
      </trkpt>
      <trkpt lat="48.71681" lon="2.48117">
        <ele>45</ele>
        <time>2024-01-22T07:05:36.752+00:00</time>
      </trkpt>
      <trkpt lat="48.7168" lon="2.48127">
        <ele>45</ele>
        <time>2024-01-22T07:05:40.770+00:00</time>
      </trkpt>
      <trkpt lat="48.71677" lon="2.48136">
        <ele>45</ele>
        <time>2024-01-22T07:05:44.579+00:00</time>
      </trkpt>
      <trkpt lat="48.71676" lon="2.48147">
        <ele>45</ele>
        <time>2024-01-22T07:05:49.014+00:00</time>
      </trkpt>
      <trkpt lat="48.71675" lon="2.48158">
        <ele>45</ele>
        <time>2024-01-22T07:05:52.958+00:00</time>
      </trkpt>
      <trkpt lat="48.71675" lon="2.48167">
        <ele>45</ele>
        <time>2024-01-22T07:05:56.900+00:00</time>
      </trkpt>
      <trkpt lat="48.71676" lon="2.4818">
        <ele>45</ele>
        <time>2024-01-22T07:06:01.559+00:00</time>
      </trkpt>
      <trkpt lat="48.71677" lon="2.4819">
        <ele>46</ele>
        <time>2024-01-22T07:06:06.207+00:00</time>
      </trkpt>
      <trkpt lat="48.71679" lon="2.48199">
        <ele>46</ele>
        <time>2024-01-22T07:06:10.328+00:00</time>
      </trkpt>
      <trkpt lat="48.71682" lon="2.48206">
        <ele>50</ele>
        <time>2024-01-22T07:06:14.647+00:00</time>
      </trkpt>
      <trkpt lat="48.71684" lon="2.48212">
        <ele>50</ele>
        <time>2024-01-22T07:06:18.514+00:00</time>
      </trkpt>
      <trkpt lat="48.71686" lon="2.4822">
        <ele>50</ele>
        <time>2024-01-22T07:06:22.813+00:00</time>
      </trkpt>
      <trkpt lat="48.71687" lon="2.48229">
        <ele>50</ele>
        <time>2024-01-22T07:06:27.350+00:00</time>
      </trkpt>
      <trkpt lat="48.71689" lon="2.48237">
        <ele>50</ele>
        <time>2024-01-22T07:06:31.170+00:00</time>
      </trkpt>
      <trkpt lat="48.71689" lon="2.48248">
        <ele>50</ele>
        <time>2024-01-22T07:06:35.750+00:00</time>
      </trkpt>
      <trkpt lat="48.71689" lon="2.48258">
        <ele>50</ele>
        <time>2024-01-22T07:06:39.767+00:00</time>
      </trkpt>
      <trkpt lat="48.7169" lon="2.48269">
        <ele>50</ele>
        <time>2024-01-22T07:06:44.043+00:00</time>
      </trkpt>
      <trkpt lat="48.7169" lon="2.48278">
        <ele>50</ele>
        <time>2024-01-22T07:06:47.887+00:00</time>
      </trkpt>
      <trkpt lat="48.71689" lon="2.48289">
        <ele>50</ele>
        <time>2024-01-22T07:06:52.305+00:00</time>
      </trkpt>
      <trkpt lat="48.71689" lon="2.48297">
        <ele>50</ele>
        <time>2024-01-22T07:06:56.367+00:00</time>
      </trkpt>
      <trkpt lat="48.71689" lon="2.48307">
        <ele>50</ele>
        <time>2024-01-22T07:07:00.546+00:00</time>
      </trkpt>
      <trkpt lat="48.71689" lon="2.48316">
        <ele>50</ele>
        <time>2024-01-22T07:07:04.579+00:00</time>
      </trkpt>
      <trkpt lat="48.7169" lon="2.48326">
        <ele>49</ele>
        <time>2024-01-22T07:07:09.287+00:00</time>
      </trkpt>
      <trkpt lat="48.71692" lon="2.48336">
        <ele>49</ele>
        <time>2024-01-22T07:07:13.303+00:00</time>
      </trkpt>
      <trkpt lat="48.71691" lon="2.48346">
        <ele>49</ele>
        <time>2024-01-22T07:07:17.364+00:00</time>
      </trkpt>
      <trkpt lat="48.71691" lon="2.48355">
        <ele>48</ele>
        <time>2024-01-22T07:07:21.306+00:00</time>
      </trkpt>
      <trkpt lat="48.71692" lon="2.48364">
        <ele>48</ele>
        <time>2024-01-22T07:07:25.367+00:00</time>
      </trkpt>
      <trkpt lat="48.71693" lon="2.48373">
        <ele>48</ele>
        <time>2024-01-22T07:07:29.428+00:00</time>
      </trkpt>
      <trkpt lat="48.71694" lon="2.48383">
        <ele>47</ele>
        <time>2024-01-22T07:07:33.490+00:00</time>
      </trkpt>
      <trkpt lat="48.71693" lon="2.48393">
        <ele>47</ele>
        <time>2024-01-22T07:07:37.552+00:00</time>
      </trkpt>
      <trkpt lat="48.71694" lon="2.48403">
        <ele>47</ele>
        <time>2024-01-22T07:07:42.681+00:00</time>
      </trkpt>
      <trkpt lat="48.71694" lon="2.48409">
        <ele>47</ele>
        <time>2024-01-22T07:07:46.579+00:00</time>
      </trkpt>
      <trkpt lat="48.71695" lon="2.48417">
        <ele>47</ele>
        <time>2024-01-22T07:07:51.171+00:00</time>
      </trkpt>
      <trkpt lat="48.71696" lon="2.48428">
        <ele>47</ele>
        <time>2024-01-22T07:07:55.950+00:00</time>
      </trkpt>
      <trkpt lat="48.71694" lon="2.48439">
        <ele>47</ele>
        <time>2024-01-22T07:08:00.489+00:00</time>
      </trkpt>
      <trkpt lat="48.71691" lon="2.48448">
        <ele>47</ele>
        <time>2024-01-22T07:08:05.029+00:00</time>
      </trkpt>
      <trkpt lat="48.7169" lon="2.48457">
        <ele>47</ele>
        <time>2024-01-22T07:08:09.569+00:00</time>
      </trkpt>
      <trkpt lat="48.71688" lon="2.48465">
        <ele>48</ele>
        <time>2024-01-22T07:08:14.039+00:00</time>
      </trkpt>
      <trkpt lat="48.71687" lon="2.48474">
        <ele>48</ele>
        <time>2024-01-22T07:08:18.161+00:00</time>
      </trkpt>
      <trkpt lat="48.7169" lon="2.48485">
        <ele>48</ele>
        <time>2024-01-22T07:08:22.350+00:00</time>
      </trkpt>
      <trkpt lat="48.71691" lon="2.48494">
        <ele>48</ele>
        <time>2024-01-22T07:08:26.769+00:00</time>
      </trkpt>
      <trkpt lat="48.71691" lon="2.48504">
        <ele>48</ele>
        <time>2024-01-22T07:08:31.309+00:00</time>
      </trkpt>
      <trkpt lat="48.71692" lon="2.48513">
        <ele>48</ele>
        <time>2024-01-22T07:08:35.970+00:00</time>
      </trkpt>
      <trkpt lat="48.71692" lon="2.48524">
        <ele>50</ele>
        <time>2024-01-22T07:08:39.912+00:00</time>
      </trkpt>
      <trkpt lat="48.7169" lon="2.48537">
        <ele>50</ele>
        <time>2024-01-22T07:08:44.573+00:00</time>
      </trkpt>
      <trkpt lat="48.71687" lon="2.48549">
        <ele>51</ele>
        <time>2024-01-22T07:08:49.114+00:00</time>
      </trkpt>
      <trkpt lat="48.71686" lon="2.48562">
        <ele>51</ele>
        <time>2024-01-22T07:08:53.579+00:00</time>
      </trkpt>
      <trkpt lat="48.71683" lon="2.48572">
        <ele>52</ele>
        <time>2024-01-22T07:08:58.194+00:00</time>
      </trkpt>
      <trkpt lat="48.71682" lon="2.48582">
        <ele>52</ele>
        <time>2024-01-22T07:09:02.375+00:00</time>
      </trkpt>
      <trkpt lat="48.71681" lon="2.48592">
        <ele>52</ele>
        <time>2024-01-22T07:09:07.027+00:00</time>
      </trkpt>
      <trkpt lat="48.71681" lon="2.48605">
        <ele>52</ele>
        <time>2024-01-22T07:09:11.548+00:00</time>
      </trkpt>
      <trkpt lat="48.71679" lon="2.48615">
        <ele>49</ele>
        <time>2024-01-22T07:09:15.993+00:00</time>
      </trkpt>
      <trkpt lat="48.71677" lon="2.48624">
        <ele>49</ele>
        <time>2024-01-22T07:09:20.427+00:00</time>
      </trkpt>
      <trkpt lat="48.71675" lon="2.48633">
        <ele>48</ele>
        <time>2024-01-22T07:09:24.473+00:00</time>
      </trkpt>
      <trkpt lat="48.71673" lon="2.48643">
        <ele>48</ele>
        <time>2024-01-22T07:09:28.774+00:00</time>
      </trkpt>
      <trkpt lat="48.71673" lon="2.48651">
        <ele>48</ele>
        <time>2024-01-22T07:09:32.954+00:00</time>
      </trkpt>
      <trkpt lat="48.71672" lon="2.48661">
        <ele>47</ele>
        <time>2024-01-22T07:09:37.585+00:00</time>
      </trkpt>
      <trkpt lat="48.71672" lon="2.4867">
        <ele>47</ele>
        <time>2024-01-22T07:09:42.085+00:00</time>
      </trkpt>
      <trkpt lat="48.71672" lon="2.48682">
        <ele>48</ele>
        <time>2024-01-22T07:09:46.570+00:00</time>
      </trkpt>
      <trkpt lat="48.71671" lon="2.48691">
        <ele>48</ele>
        <time>2024-01-22T07:09:51.108+00:00</time>
      </trkpt>
      <trkpt lat="48.71673" lon="2.48701">
        <ele>48</ele>
        <time>2024-01-22T07:09:55.766+00:00</time>
      </trkpt>
      <trkpt lat="48.71672" lon="2.4871">
        <ele>48</ele>
        <time>2024-01-22T07:10:00.227+00:00</time>
      </trkpt>
      <trkpt lat="48.71672" lon="2.4872">
        <ele>48</ele>
        <time>2024-01-22T07:10:04.579+00:00</time>
      </trkpt>
      <trkpt lat="48.71672" lon="2.4873">
        <ele>48</ele>
        <time>2024-01-22T07:10:09.102+00:00</time>
      </trkpt>
      <trkpt lat="48.71679" lon="2.48738">
        <ele>48</ele>
        <time>2024-01-22T07:10:13.559+00:00</time>
      </trkpt>
      <trkpt lat="48.71686" lon="2.48747">
        <ele>51</ele>
        <time>2024-01-22T07:10:18.671+00:00</time>
      </trkpt>
      <trkpt lat="48.71691" lon="2.48754">
        <ele>51</ele>
        <time>2024-01-22T07:10:22.756+00:00</time>
      </trkpt>
      <trkpt lat="48.71697" lon="2.48758">
        <ele>51</ele>
        <time>2024-01-22T07:10:27.548+00:00</time>
      </trkpt>
      <trkpt lat="48.71703" lon="2.48758">
        <ele>51</ele>
        <time>2024-01-22T07:10:31.474+00:00</time>
      </trkpt>
      <trkpt lat="48.7171" lon="2.48759">
        <ele>56</ele>
        <time>2024-01-22T07:10:35.414+00:00</time>
      </trkpt>
      <trkpt lat="48.71715" lon="2.48762">
        <ele>56</ele>
        <time>2024-01-22T07:10:39.354+00:00</time>
      </trkpt>
      <trkpt lat="48.71721" lon="2.48767">
        <ele>55</ele>
        <time>2024-01-22T07:10:43.771+00:00</time>
      </trkpt>
      <trkpt lat="48.71726" lon="2.48772">
        <ele>55</ele>
        <time>2024-01-22T07:10:48.094+00:00</time>
      </trkpt>
      <trkpt lat="48.71727" lon="2.48773">
        <ele>55</ele>
        <time>2024-01-22T07:10:48.667+00:00</time>
      </trkpt>
      <trkpt lat="48.72354" lon="2.48809">
        <ele>93</ele>
        <time>2024-01-22T07:19:08.513+00:00</time>
      </trkpt>
      <trkpt lat="48.72361" lon="2.48805">
        <ele>93</ele>
        <time>2024-01-22T07:19:12.455+00:00</time>
      </trkpt>
      <trkpt lat="48.72365" lon="2.48802">
        <ele>93</ele>
        <time>2024-01-22T07:19:14.725+00:00</time>
      </trkpt>
      <trkpt lat="48.72961" lon="2.48429">
        <ele>97</ele>
        <time>2024-01-22T07:26:41.861+00:00</time>
      </trkpt>
      <trkpt lat="48.72966" lon="2.48427">
        <ele>97</ele>
        <time>2024-01-22T07:26:46.403+00:00</time>
      </trkpt>
      <trkpt lat="48.72973" lon="2.48421">
        <ele>97</ele>
        <time>2024-01-22T07:26:51.064+00:00</time>
      </trkpt>
      <trkpt lat="48.72979" lon="2.48417">
        <ele>97</ele>
        <time>2024-01-22T07:26:55.822+00:00</time>
      </trkpt>
      <trkpt lat="48.72985" lon="2.48414">
        <ele>97</ele>
        <time>2024-01-22T07:26:59.788+00:00</time>
      </trkpt>
      <trkpt lat="48.72991" lon="2.48416">
        <ele>95</ele>
        <time>2024-01-22T07:27:04.807+00:00</time>
      </trkpt>
      <trkpt lat="48.72994" lon="2.48419">
        <ele>95</ele>
        <time>2024-01-22T07:27:09.230+00:00</time>
      </trkpt>
      <trkpt lat="48.72999" lon="2.48422">
        <ele>95</ele>
        <time>2024-01-22T07:27:13.974+00:00</time>
      </trkpt>
      <trkpt lat="48.73004" lon="2.4842">
        <ele>95</ele>
        <time>2024-01-22T07:27:17.834+00:00</time>
      </trkpt>
      <trkpt lat="48.7301" lon="2.48417">
        <ele>95</ele>
        <time>2024-01-22T07:27:22.375+00:00</time>
      </trkpt>
      <trkpt lat="48.73014" lon="2.48413">
        <ele>95</ele>
        <time>2024-01-22T07:27:26.439+00:00</time>
      </trkpt>
      <trkpt lat="48.7302" lon="2.48409">
        <ele>95</ele>
        <time>2024-01-22T07:27:31.056+00:00</time>
      </trkpt>
      <trkpt lat="48.73028" lon="2.48405">
        <ele>95</ele>
        <time>2024-01-22T07:27:35.643+00:00</time>
      </trkpt>
      <trkpt lat="48.73033" lon="2.48403">
        <ele>96</ele>
        <time>2024-01-22T07:27:40.784+00:00</time>
      </trkpt>
      <trkpt lat="48.73038" lon="2.484">
        <ele>96</ele>
        <time>2024-01-22T07:27:44.967+00:00</time>
      </trkpt>
      <trkpt lat="48.73043" lon="2.48397">
        <ele>94</ele>
        <time>2024-01-22T07:27:49.351+00:00</time>
      </trkpt>
      <trkpt lat="48.73048" lon="2.48393">
        <ele>94</ele>
        <time>2024-01-22T07:27:53.454+00:00</time>
      </trkpt>
      <trkpt lat="48.73054" lon="2.48391">
        <ele>94</ele>
        <time>2024-01-22T07:27:57.393+00:00</time>
      </trkpt>
      <trkpt lat="48.73058" lon="2.48388">
        <ele>94</ele>
        <time>2024-01-22T07:28:01.814+00:00</time>
      </trkpt>
      <trkpt lat="48.73062" lon="2.48387">
        <ele>94</ele>
        <time>2024-01-22T07:28:06.473+00:00</time>
      </trkpt>
      <trkpt lat="48.73064" lon="2.48386">
        <ele>94</ele>
        <time>2024-01-22T07:28:07.021+00:00</time>
      </trkpt>
      <trkpt lat="48.7332" lon="2.48458">
        <ele>94</ele>
        <time>2024-01-22T07:32:45.994+00:00</time>
      </trkpt>
      <trkpt lat="48.73324" lon="2.4846">
        <ele>94</ele>
        <time>2024-01-22T07:32:54.771+00:00</time>
      </trkpt>
      <trkpt lat="48.73333" lon="2.48465">
        <ele>94</ele>
        <time>2024-01-22T07:32:59.564+00:00</time>
      </trkpt>
      <trkpt lat="48.73339" lon="2.48463">
        <ele>94</ele>
        <time>2024-01-22T07:33:21.584+00:00</time>
      </trkpt>
      <trkpt lat="48.7334" lon="2.48463">
        <ele>94</ele>
        <time>2024-01-22T07:33:26.967+00:00</time>
      </trkpt>
      <trkpt lat="48.73342" lon="2.48465">
        <ele>94</ele>
        <time>2024-01-22T07:33:31.154+00:00</time>
      </trkpt>
      <trkpt lat="48.73342" lon="2.48472">
        <ele>94</ele>
        <time>2024-01-22T07:33:35.580+00:00</time>
      </trkpt>
      <trkpt lat="48.73343" lon="2.48478">
        <ele>94</ele>
        <time>2024-01-22T07:33:40.178+00:00</time>
      </trkpt>
      <trkpt lat="48.73348" lon="2.48477">
        <ele>94</ele>
        <time>2024-01-22T07:33:44.194+00:00</time>
      </trkpt>
      <trkpt lat="48.73352" lon="2.48475">
        <ele>94</ele>
        <time>2024-01-22T07:33:48.381+00:00</time>
      </trkpt>
      <trkpt lat="48.73354" lon="2.48475">
        <ele>94</ele>
        <time>2024-01-22T07:33:53.047+00:00</time>
      </trkpt>
      <trkpt lat="48.73357" lon="2.48473">
        <ele>94</ele>
        <time>2024-01-22T07:33:57.777+00:00</time>
      </trkpt>
      <trkpt lat="48.73361" lon="2.48474">
        <ele>94</ele>
        <time>2024-01-22T07:34:01.782+00:00</time>
      </trkpt>
      <trkpt lat="48.73366" lon="2.48472">
        <ele>94</ele>
        <time>2024-01-22T07:34:06.569+00:00</time>
      </trkpt>
      <trkpt lat="48.73369" lon="2.48471">
        <ele>94</ele>
        <time>2024-01-22T07:34:11.302+00:00</time>
      </trkpt>
      <trkpt lat="48.73371" lon="2.48469">
        <ele>94</ele>
        <time>2024-01-22T07:34:15.421+00:00</time>
      </trkpt>
      <trkpt lat="48.73372" lon="2.48468">
        <ele>94</ele>
        <time>2024-01-22T07:34:19.609+00:00</time>
      </trkpt>
      <trkpt lat="48.73374" lon="2.48467">
        <ele>94</ele>
        <time>2024-01-22T07:34:23.797+00:00</time>
      </trkpt>
      <trkpt lat="48.73378" lon="2.48465">
        <ele>95</ele>
        <time>2024-01-22T07:34:28.582+00:00</time>
      </trkpt>
      <trkpt lat="48.73382" lon="2.48462">
        <ele>95</ele>
        <time>2024-01-22T07:34:32.650+00:00</time>
      </trkpt>
      <trkpt lat="48.73387" lon="2.48462">
        <ele>95</ele>
        <time>2024-01-22T07:34:36.838+00:00</time>
      </trkpt>
      <trkpt lat="48.73391" lon="2.48463">
        <ele>95</ele>
        <time>2024-01-22T07:34:40.788+00:00</time>
      </trkpt>
      <trkpt lat="48.73397" lon="2.48462">
        <ele>95</ele>
        <time>2024-01-22T07:34:45.453+00:00</time>
      </trkpt>
      <trkpt lat="48.73401" lon="2.4846">
        <ele>95</ele>
        <time>2024-01-22T07:34:49.879+00:00</time>
      </trkpt>
      <trkpt lat="48.73405" lon="2.48468">
        <ele>94</ele>
        <time>2024-01-22T07:34:58.972+00:00</time>
      </trkpt>
      <trkpt lat="48.73409" lon="2.48466">
        <ele>94</ele>
        <time>2024-01-22T07:35:03.764+00:00</time>
      </trkpt>
      <trkpt lat="48.73411" lon="2.48463">
        <ele>94</ele>
        <time>2024-01-22T07:35:07.762+00:00</time>
      </trkpt>
      <trkpt lat="48.73412" lon="2.48463">
        <ele>94</ele>
        <time>2024-01-22T07:35:08.961+00:00</time>
      </trkpt>
      <trkpt lat="48.73413" lon="2.48463">
        <ele>94</ele>
        <time>2024-01-22T07:35:18.015+00:00</time>
      </trkpt>
      <trkpt lat="48.73413" lon="2.48464">
        <ele>94</ele>
        <time>2024-01-22T07:36:40.048+00:00</time>
      </trkpt>
      <trkpt lat="48.73416" lon="2.48465">
        <ele>94</ele>
        <time>2024-01-22T07:36:44.051+00:00</time>
      </trkpt>
      <trkpt lat="48.73418" lon="2.48467">
        <ele>94</ele>
        <time>2024-01-22T07:36:48.659+00:00</time>
      </trkpt>
      <trkpt lat="48.73423" lon="2.48468">
        <ele>94</ele>
        <time>2024-01-22T07:36:52.606+00:00</time>
      </trkpt>
      <trkpt lat="48.73428" lon="2.48466">
        <ele>94</ele>
        <time>2024-01-22T07:36:57.389+00:00</time>
      </trkpt>
      <trkpt lat="48.73432" lon="2.48467">
        <ele>92</ele>
        <time>2024-01-22T07:37:01.574+00:00</time>
      </trkpt>
      <trkpt lat="48.73437" lon="2.4847">
        <ele>92</ele>
        <time>2024-01-22T07:37:05.638+00:00</time>
      </trkpt>
      <trkpt lat="48.73442" lon="2.48473">
        <ele>92</ele>
        <time>2024-01-22T07:37:09.822+00:00</time>
      </trkpt>
      <trkpt lat="48.73448" lon="2.48474">
        <ele>92</ele>
        <time>2024-01-22T07:37:14.007+00:00</time>
      </trkpt>
      <trkpt lat="48.73453" lon="2.48476">
        <ele>92</ele>
        <time>2024-01-22T07:37:18.191+00:00</time>
      </trkpt>
      <trkpt lat="48.7346" lon="2.48476">
        <ele>90</ele>
        <time>2024-01-22T07:37:22.734+00:00</time>
      </trkpt>
      <trkpt lat="48.73465" lon="2.48475">
        <ele>90</ele>
        <time>2024-01-22T07:37:26.798+00:00</time>
      </trkpt>
      <trkpt lat="48.73471" lon="2.48472">
        <ele>90</ele>
        <time>2024-01-22T07:37:30.981+00:00</time>
      </trkpt>
      <trkpt lat="48.73478" lon="2.48469">
        <ele>90</ele>
        <time>2024-01-22T07:37:35.640+00:00</time>
      </trkpt>
      <trkpt lat="48.73483" lon="2.48465">
        <ele>90</ele>
        <time>2024-01-22T07:37:40.181+00:00</time>
      </trkpt>
      <trkpt lat="48.73488" lon="2.48459">
        <ele>89</ele>
        <time>2024-01-22T07:37:44.306+00:00</time>
      </trkpt>
      <trkpt lat="48.73492" lon="2.48453">
        <ele>88</ele>
        <time>2024-01-22T07:37:48.426+00:00</time>
      </trkpt>
      <trkpt lat="48.73497" lon="2.48446">
        <ele>88</ele>
        <time>2024-01-22T07:37:53.036+00:00</time>
      </trkpt>
      <trkpt lat="48.73502" lon="2.4844">
        <ele>88</ele>
        <time>2024-01-22T07:37:57.028+00:00</time>
      </trkpt>
      <trkpt lat="48.73507" lon="2.48434">
        <ele>88</ele>
        <time>2024-01-22T07:38:01.211+00:00</time>
      </trkpt>
      <trkpt lat="48.73513" lon="2.48428">
        <ele>87</ele>
        <time>2024-01-22T07:38:05.395+00:00</time>
      </trkpt>
      <trkpt lat="48.73518" lon="2.4842">
        <ele>88</ele>
        <time>2024-01-22T07:38:10.058+00:00</time>
      </trkpt>
      <trkpt lat="48.73524" lon="2.48412">
        <ele>88</ele>
        <time>2024-01-22T07:38:14.600+00:00</time>
      </trkpt>
      <trkpt lat="48.7353" lon="2.48407">
        <ele>88</ele>
        <time>2024-01-22T07:38:19.047+00:00</time>
      </trkpt>
      <trkpt lat="48.73537" lon="2.48402">
        <ele>88</ele>
        <time>2024-01-22T07:38:23.725+00:00</time>
      </trkpt>
      <trkpt lat="48.73543" lon="2.48396">
        <ele>89</ele>
        <time>2024-01-22T07:38:27.745+00:00</time>
      </trkpt>
      <trkpt lat="48.73549" lon="2.4839">
        <ele>89</ele>
        <time>2024-01-22T07:38:32.286+00:00</time>
      </trkpt>
      <trkpt lat="48.73555" lon="2.48382">
        <ele>89</ele>
        <time>2024-01-22T07:38:36.829+00:00</time>
      </trkpt>
      <trkpt lat="48.7356" lon="2.48376">
        <ele>89</ele>
        <time>2024-01-22T07:38:40.774+00:00</time>
      </trkpt>
      <trkpt lat="48.73567" lon="2.48368">
        <ele>88</ele>
        <time>2024-01-22T07:38:45.989+00:00</time>
      </trkpt>
      <trkpt lat="48.73572" lon="2.48362">
        <ele>89</ele>
        <time>2024-01-22T07:38:49.981+00:00</time>
      </trkpt>
      <trkpt lat="48.73578" lon="2.48355">
        <ele>89</ele>
        <time>2024-01-22T07:38:54.565+00:00</time>
      </trkpt>
      <trkpt lat="48.73582" lon="2.48349">
        <ele>89</ele>
        <time>2024-01-22T07:38:58.586+00:00</time>
      </trkpt>
      <trkpt lat="48.73587" lon="2.48342">
        <ele>87</ele>
        <time>2024-01-22T07:39:03.249+00:00</time>
      </trkpt>
      <trkpt lat="48.73593" lon="2.48336">
        <ele>87</ele>
        <time>2024-01-22T07:39:07.259+00:00</time>
      </trkpt>
      <trkpt lat="48.736" lon="2.48331">
        <ele>87</ele>
        <time>2024-01-22T07:39:11.736+00:00</time>
      </trkpt>
      <trkpt lat="48.73606" lon="2.48327">
        <ele>87</ele>
        <time>2024-01-22T07:39:15.800+00:00</time>
      </trkpt>
      <trkpt lat="48.73613" lon="2.48324">
        <ele>87</ele>
        <time>2024-01-22T07:39:20.259+00:00</time>
      </trkpt>
      <trkpt lat="48.7362" lon="2.48321">
        <ele>87</ele>
        <time>2024-01-22T07:39:24.407+00:00</time>
      </trkpt>
      <trkpt lat="48.73626" lon="2.48318">
        <ele>86</ele>
        <time>2024-01-22T07:39:28.471+00:00</time>
      </trkpt>
      <trkpt lat="48.73633" lon="2.48316">
        <ele>86</ele>
        <time>2024-01-22T07:39:32.895+00:00</time>
      </trkpt>
      <trkpt lat="48.7364" lon="2.48315">
        <ele>86</ele>
        <time>2024-01-22T07:39:36.958+00:00</time>
      </trkpt>
      <trkpt lat="48.73648" lon="2.48314">
        <ele>86</ele>
        <time>2024-01-22T07:39:41.498+00:00</time>
      </trkpt>
      <trkpt lat="48.73655" lon="2.48315">
        <ele>85</ele>
        <time>2024-01-22T07:39:46.038+00:00</time>
      </trkpt>
      <trkpt lat="48.73663" lon="2.48316">
        <ele>85</ele>
        <time>2024-01-22T07:39:50.579+00:00</time>
      </trkpt>
      <trkpt lat="48.73671" lon="2.48317">
        <ele>85</ele>
        <time>2024-01-22T07:39:55.259+00:00</time>
      </trkpt>
      <trkpt lat="48.73677" lon="2.48319">
        <ele>85</ele>
        <time>2024-01-22T07:39:59.785+00:00</time>
      </trkpt>
      <trkpt lat="48.73683" lon="2.48323">
        <ele>83</ele>
        <time>2024-01-22T07:40:03.849+00:00</time>
      </trkpt>
      <trkpt lat="48.73689" lon="2.48326">
        <ele>83</ele>
        <time>2024-01-22T07:40:08.259+00:00</time>
      </trkpt>
      <trkpt lat="48.73696" lon="2.48332">
        <ele>83</ele>
        <time>2024-01-22T07:40:12.816+00:00</time>
      </trkpt>
      <trkpt lat="48.73703" lon="2.48337">
        <ele>83</ele>
        <time>2024-01-22T07:40:17.358+00:00</time>
      </trkpt>
      <trkpt lat="48.73708" lon="2.48343">
        <ele>83</ele>
        <time>2024-01-22T07:40:21.781+00:00</time>
      </trkpt>
      <trkpt lat="48.73713" lon="2.4835">
        <ele>83</ele>
        <time>2024-01-22T07:40:26.444+00:00</time>
      </trkpt>
      <trkpt lat="48.73718" lon="2.48359">
        <ele>83</ele>
        <time>2024-01-22T07:40:30.987+00:00</time>
      </trkpt>
      <trkpt lat="48.73722" lon="2.48367">
        <ele>83</ele>
        <time>2024-01-22T07:40:34.933+00:00</time>
      </trkpt>
      <trkpt lat="48.73725" lon="2.48378">
        <ele>84</ele>
        <time>2024-01-22T07:40:39.594+00:00</time>
      </trkpt>
      <trkpt lat="48.73728" lon="2.48387">
        <ele>84</ele>
        <time>2024-01-22T07:40:44.378+00:00</time>
      </trkpt>
      <trkpt lat="48.73732" lon="2.48397">
        <ele>84</ele>
        <time>2024-01-22T07:40:48.922+00:00</time>
      </trkpt>
      <trkpt lat="48.73736" lon="2.48406">
        <ele>88</ele>
        <time>2024-01-22T07:40:53.586+00:00</time>
      </trkpt>
      <trkpt lat="48.73741" lon="2.48413">
        <ele>88</ele>
        <time>2024-01-22T07:40:57.652+00:00</time>
      </trkpt>
      <trkpt lat="48.73746" lon="2.48422">
        <ele>88</ele>
        <time>2024-01-22T07:41:02.195+00:00</time>
      </trkpt>
      <trkpt lat="48.73752" lon="2.48427">
        <ele>88</ele>
        <time>2024-01-22T07:41:06.977+00:00</time>
      </trkpt>
      <trkpt lat="48.73758" lon="2.48433">
        <ele>88</ele>
        <time>2024-01-22T07:41:11.521+00:00</time>
      </trkpt>
      <trkpt lat="48.73763" lon="2.4844">
        <ele>88</ele>
        <time>2024-01-22T07:41:16.037+00:00</time>
      </trkpt>
      <trkpt lat="48.73768" lon="2.48447">
        <ele>88</ele>
        <time>2024-01-22T07:41:20.610+00:00</time>
      </trkpt>
      <trkpt lat="48.73772" lon="2.48454">
        <ele>88</ele>
        <time>2024-01-22T07:41:25.164+00:00</time>
      </trkpt>
      <trkpt lat="48.73775" lon="2.48463">
        <ele>87</ele>
        <time>2024-01-22T07:41:29.218+00:00</time>
      </trkpt>
      <trkpt lat="48.73779" lon="2.4847">
        <ele>87</ele>
        <time>2024-01-22T07:41:33.702+00:00</time>
      </trkpt>
      <trkpt lat="48.73783" lon="2.48477">
        <ele>87</ele>
        <time>2024-01-22T07:41:37.766+00:00</time>
      </trkpt>
      <trkpt lat="48.73788" lon="2.48483">
        <ele>87</ele>
        <time>2024-01-22T07:41:41.770+00:00</time>
      </trkpt>
      <trkpt lat="48.73794" lon="2.48487">
        <ele>86</ele>
        <time>2024-01-22T07:41:45.955+00:00</time>
      </trkpt>
      <trkpt lat="48.73801" lon="2.48487">
        <ele>86</ele>
        <time>2024-01-22T07:41:50.378+00:00</time>
      </trkpt>
      <trkpt lat="48.73807" lon="2.48485">
        <ele>86</ele>
        <time>2024-01-22T07:41:54.442+00:00</time>
      </trkpt>
      <trkpt lat="48.73812" lon="2.48484">
        <ele>86</ele>
        <time>2024-01-22T07:41:58.625+00:00</time>
      </trkpt>
      <trkpt lat="48.73818" lon="2.48481">
        <ele>86</ele>
        <time>2024-01-22T07:42:02.570+00:00</time>
      </trkpt>
      <trkpt lat="48.73824" lon="2.48477">
        <ele>85</ele>
        <time>2024-01-22T07:42:06.754+00:00</time>
      </trkpt>
      <trkpt lat="48.7383" lon="2.48471">
        <ele>85</ele>
        <time>2024-01-22T07:42:11.179+00:00</time>
      </trkpt>
      <trkpt lat="48.73835" lon="2.48464">
        <ele>85</ele>
        <time>2024-01-22T07:42:15.243+00:00</time>
      </trkpt>
      <trkpt lat="48.7384" lon="2.48457">
        <ele>85</ele>
        <time>2024-01-22T07:42:19.521+00:00</time>
      </trkpt>
      <trkpt lat="48.73845" lon="2.48452">
        <ele>85</ele>
        <time>2024-01-22T07:42:23.373+00:00</time>
      </trkpt>
      <trkpt lat="48.73851" lon="2.48451">
        <ele>85</ele>
        <time>2024-01-22T07:42:27.557+00:00</time>
      </trkpt>
      <trkpt lat="48.73856" lon="2.4845">
        <ele>85</ele>
        <time>2024-01-22T07:42:31.383+00:00</time>
      </trkpt>
      <trkpt lat="48.73861" lon="2.48449">
        <ele>85</ele>
        <time>2024-01-22T07:42:36.018+00:00</time>
      </trkpt>
      <trkpt lat="48.73867" lon="2.48448">
        <ele>85</ele>
        <time>2024-01-22T07:42:40.421+00:00</time>
      </trkpt>
      <trkpt lat="48.73873" lon="2.48449">
        <ele>85</ele>
        <time>2024-01-22T07:42:44.925+00:00</time>
      </trkpt>
      <trkpt lat="48.73881" lon="2.4845">
        <ele>86</ele>
        <time>2024-01-22T07:42:49.431+00:00</time>
      </trkpt>
      <trkpt lat="48.73887" lon="2.48451">
        <ele>86</ele>
        <time>2024-01-22T07:42:54.059+00:00</time>
      </trkpt>
      <trkpt lat="48.73893" lon="2.48451">
        <ele>86</ele>
        <time>2024-01-22T07:42:58.165+00:00</time>
      </trkpt>
      <trkpt lat="48.73899" lon="2.48451">
        <ele>86</ele>
        <time>2024-01-22T07:43:02.219+00:00</time>
      </trkpt>
      <trkpt lat="48.73905" lon="2.48456">
        <ele>86</ele>
        <time>2024-01-22T07:43:06.762+00:00</time>
      </trkpt>
      <trkpt lat="48.73911" lon="2.48459">
        <ele>85</ele>
        <time>2024-01-22T07:43:10.828+00:00</time>
      </trkpt>
      <trkpt lat="48.73918" lon="2.48458">
        <ele>86</ele>
        <time>2024-01-22T07:43:15.369+00:00</time>
      </trkpt>
      <trkpt lat="48.73924" lon="2.48456">
        <ele>86</ele>
        <time>2024-01-22T07:43:19.433+00:00</time>
      </trkpt>
      <trkpt lat="48.73931" lon="2.48452">
        <ele>86</ele>
        <time>2024-01-22T07:43:23.974+00:00</time>
      </trkpt>
      <trkpt lat="48.73938" lon="2.48448">
        <ele>86</ele>
        <time>2024-01-22T07:43:28.037+00:00</time>
      </trkpt>
      <trkpt lat="48.73945" lon="2.48444">
        <ele>86</ele>
        <time>2024-01-22T07:43:32.558+00:00</time>
      </trkpt>
      <trkpt lat="48.73952" lon="2.48439">
        <ele>86</ele>
        <time>2024-01-22T07:43:36.757+00:00</time>
      </trkpt>
      <trkpt lat="48.73959" lon="2.48435">
        <ele>87</ele>
        <time>2024-01-22T07:43:41.378+00:00</time>
      </trkpt>
      <trkpt lat="48.73965" lon="2.48432">
        <ele>87</ele>
        <time>2024-01-22T07:43:45.360+00:00</time>
      </trkpt>
      <trkpt lat="48.73972" lon="2.48429">
        <ele>88</ele>
        <time>2024-01-22T07:43:49.982+00:00</time>
      </trkpt>
      <trkpt lat="48.73978" lon="2.48426">
        <ele>88</ele>
        <time>2024-01-22T07:43:53.964+00:00</time>
      </trkpt>
      <trkpt lat="48.73985" lon="2.48422">
        <ele>88</ele>
        <time>2024-01-22T07:43:58.505+00:00</time>
      </trkpt>
      <trkpt lat="48.73991" lon="2.4842">
        <ele>88</ele>
        <time>2024-01-22T07:44:02.448+00:00</time>
      </trkpt>
      <trkpt lat="48.73996" lon="2.48417">
        <ele>88</ele>
        <time>2024-01-22T07:44:06.510+00:00</time>
      </trkpt>
      <trkpt lat="48.74003" lon="2.48415">
        <ele>88</ele>
        <time>2024-01-22T07:44:11.171+00:00</time>
      </trkpt>
      <trkpt lat="48.74009" lon="2.48414">
        <ele>88</ele>
        <time>2024-01-22T07:44:15.833+00:00</time>
      </trkpt>
      <trkpt lat="48.74014" lon="2.48415">
        <ele>88</ele>
        <time>2024-01-22T07:44:19.896+00:00</time>
      </trkpt>
      <trkpt lat="48.74019" lon="2.48412">
        <ele>86</ele>
        <time>2024-01-22T07:44:24.546+00:00</time>
      </trkpt>
      <trkpt lat="48.74026" lon="2.48409">
        <ele>86</ele>
        <time>2024-01-22T07:44:28.618+00:00</time>
      </trkpt>
      <trkpt lat="48.74032" lon="2.48404">
        <ele>86</ele>
        <time>2024-01-22T07:44:33.219+00:00</time>
      </trkpt>
      <trkpt lat="48.74037" lon="2.484">
        <ele>86</ele>
        <time>2024-01-22T07:44:37.221+00:00</time>
      </trkpt>
      <trkpt lat="48.74041" lon="2.48393">
        <ele>86</ele>
        <time>2024-01-22T07:44:41.405+00:00</time>
      </trkpt>
      <trkpt lat="48.74042" lon="2.48385">
        <ele>86</ele>
        <time>2024-01-22T07:44:45.818+00:00</time>
      </trkpt>
      <trkpt lat="48.74043" lon="2.48375">
        <ele>86</ele>
        <time>2024-01-22T07:44:50.009+00:00</time>
      </trkpt>
      <trkpt lat="48.74044" lon="2.48365">
        <ele>86</ele>
        <time>2024-01-22T07:44:54.193+00:00</time>
      </trkpt>
      <trkpt lat="48.74045" lon="2.48357">
        <ele>86</ele>
        <time>2024-01-22T07:44:58.258+00:00</time>
      </trkpt>
      <trkpt lat="48.74045" lon="2.48347">
        <ele>86</ele>
        <time>2024-01-22T07:45:02.802+00:00</time>
      </trkpt>
      <trkpt lat="48.74046" lon="2.48338">
        <ele>86</ele>
        <time>2024-01-22T07:45:06.987+00:00</time>
      </trkpt>
      <trkpt lat="48.74048" lon="2.48327">
        <ele>86</ele>
        <time>2024-01-22T07:45:11.650+00:00</time>
      </trkpt>
      <trkpt lat="48.74049" lon="2.48316">
        <ele>86</ele>
        <time>2024-01-22T07:45:16.192+00:00</time>
      </trkpt>
      <trkpt lat="48.74051" lon="2.48305">
        <ele>86</ele>
        <time>2024-01-22T07:45:20.844+00:00</time>
      </trkpt>
      <trkpt lat="48.74054" lon="2.48295">
        <ele>86</ele>
        <time>2024-01-22T07:45:24.797+00:00</time>
      </trkpt>
      <trkpt lat="48.74055" lon="2.48284">
        <ele>86</ele>
        <time>2024-01-22T07:45:29.259+00:00</time>
      </trkpt>
      <trkpt lat="48.74057" lon="2.48274">
        <ele>86</ele>
        <time>2024-01-22T07:45:33.762+00:00</time>
      </trkpt>
      <trkpt lat="48.7406" lon="2.48264">
        <ele>86</ele>
        <time>2024-01-22T07:45:38.333+00:00</time>
      </trkpt>
      <trkpt lat="48.74061" lon="2.48255">
        <ele>86</ele>
        <time>2024-01-22T07:45:42.366+00:00</time>
      </trkpt>
      <trkpt lat="48.74062" lon="2.48245">
        <ele>86</ele>
        <time>2024-01-22T07:45:46.427+00:00</time>
      </trkpt>
      <trkpt lat="48.74063" lon="2.48236">
        <ele>85</ele>
        <time>2024-01-22T07:45:50.882+00:00</time>
      </trkpt>
      <trkpt lat="48.74063" lon="2.48226">
        <ele>85</ele>
        <time>2024-01-22T07:45:55.029+00:00</time>
      </trkpt>
      <trkpt lat="48.74064" lon="2.48214">
        <ele>85</ele>
        <time>2024-01-22T07:45:59.122+00:00</time>
      </trkpt>
      <trkpt lat="48.74063" lon="2.48204">
        <ele>85</ele>
        <time>2024-01-22T07:46:03.632+00:00</time>
      </trkpt>
      <trkpt lat="48.74062" lon="2.48195">
        <ele>85</ele>
        <time>2024-01-22T07:46:08.170+00:00</time>
      </trkpt>
      <trkpt lat="48.74061" lon="2.48187">
        <ele>85</ele>
        <time>2024-01-22T07:46:12.744+00:00</time>
      </trkpt>
      <trkpt lat="48.74063" lon="2.48181">
        <ele>85</ele>
        <time>2024-01-22T07:46:17.250+00:00</time>
      </trkpt>
      <trkpt lat="48.74065" lon="2.48174">
        <ele>85</ele>
        <time>2024-01-22T07:46:21.342+00:00</time>
      </trkpt>
      <trkpt lat="48.74067" lon="2.48165">
        <ele>85</ele>
        <time>2024-01-22T07:46:25.256+00:00</time>
      </trkpt>
      <trkpt lat="48.7407" lon="2.48156">
        <ele>85</ele>
        <time>2024-01-22T07:46:29.797+00:00</time>
      </trkpt>
      <trkpt lat="48.74071" lon="2.48147">
        <ele>85</ele>
        <time>2024-01-22T07:46:33.902+00:00</time>
      </trkpt>
      <trkpt lat="48.74071" lon="2.48138">
        <ele>85</ele>
        <time>2024-01-22T07:46:38.042+00:00</time>
      </trkpt>
      <trkpt lat="48.74071" lon="2.48129">
        <ele>85</ele>
        <time>2024-01-22T07:46:41.628+00:00</time>
      </trkpt>
      <trkpt lat="48.7407" lon="2.48119">
        <ele>86</ele>
        <time>2024-01-22T07:46:46.168+00:00</time>
      </trkpt>
      <trkpt lat="48.74071" lon="2.4811">
        <ele>86</ele>
        <time>2024-01-22T07:46:50.231+00:00</time>
      </trkpt>
      <trkpt lat="48.74073" lon="2.48101">
        <ele>86</ele>
        <time>2024-01-22T07:46:54.747+00:00</time>
      </trkpt>
      <trkpt lat="48.74074" lon="2.48091">
        <ele>87</ele>
        <time>2024-01-22T07:46:58.718+00:00</time>
      </trkpt>
      <trkpt lat="48.74075" lon="2.48081">
        <ele>87</ele>
        <time>2024-01-22T07:47:02.783+00:00</time>
      </trkpt>
      <trkpt lat="48.74076" lon="2.48071">
        <ele>87</ele>
        <time>2024-01-22T07:47:07.203+00:00</time>
      </trkpt>
      <trkpt lat="48.74079" lon="2.48061">
        <ele>87</ele>
        <time>2024-01-22T07:47:11.393+00:00</time>
      </trkpt>
      <trkpt lat="48.74082" lon="2.4805">
        <ele>87</ele>
        <time>2024-01-22T07:47:15.991+00:00</time>
      </trkpt>
      <trkpt lat="48.7408" lon="2.4804">
        <ele>87</ele>
        <time>2024-01-22T07:47:19.998+00:00</time>
      </trkpt>
      <trkpt lat="48.74083" lon="2.48031">
        <ele>87</ele>
        <time>2024-01-22T07:47:24.539+00:00</time>
      </trkpt>
      <trkpt lat="48.74086" lon="2.48029">
        <ele>87</ele>
        <time>2024-01-22T07:47:29.182+00:00</time>
      </trkpt>
      <trkpt lat="48.74088" lon="2.48029">
        <ele>87</ele>
        <time>2024-01-22T07:47:33.383+00:00</time>
      </trkpt>
      <trkpt lat="48.74092" lon="2.48029">
        <ele>87</ele>
        <time>2024-01-22T07:47:37.565+00:00</time>
      </trkpt>
      <trkpt lat="48.74098" lon="2.48028">
        <ele>86</ele>
        <time>2024-01-22T07:47:42.226+00:00</time>
      </trkpt>
      <trkpt lat="48.74104" lon="2.48028">
        <ele>86</ele>
        <time>2024-01-22T07:47:46.259+00:00</time>
      </trkpt>
      <trkpt lat="48.74111" lon="2.48025">
        <ele>86</ele>
        <time>2024-01-22T07:47:50.805+00:00</time>
      </trkpt>
      <trkpt lat="48.74118" lon="2.48021">
        <ele>86</ele>
        <time>2024-01-22T07:47:55.370+00:00</time>
      </trkpt>
      <trkpt lat="48.74224" lon="2.48036">
        <ele>86</ele>
        <time>2024-01-22T07:49:31.805+00:00</time>
      </trkpt>
      <trkpt lat="48.74231" lon="2.48031">
        <ele>86</ele>
        <time>2024-01-22T07:49:36.590+00:00</time>
      </trkpt>
      <trkpt lat="48.74237" lon="2.48026">
        <ele>84</ele>
        <time>2024-01-22T07:49:40.658+00:00</time>
      </trkpt>
      <trkpt lat="48.74247" lon="2.48019">
        <ele>84</ele>
        <time>2024-01-22T07:49:46.040+00:00</time>
      </trkpt>
      <trkpt lat="48.74253" lon="2.48015">
        <ele>84</ele>
        <time>2024-01-22T07:49:50.226+00:00</time>
      </trkpt>
      <trkpt lat="48.74259" lon="2.48012">
        <ele>84</ele>
        <time>2024-01-22T07:49:54.173+00:00</time>
      </trkpt>
      <trkpt lat="48.74264" lon="2.48009">
        <ele>81</ele>
        <time>2024-01-22T07:49:58.597+00:00</time>
      </trkpt>
      <trkpt lat="48.7427" lon="2.48008">
        <ele>81</ele>
        <time>2024-01-22T07:50:03.141+00:00</time>
      </trkpt>
      <trkpt lat="48.74274" lon="2.48005">
        <ele>81</ele>
        <time>2024-01-22T07:50:07.797+00:00</time>
      </trkpt>
      <trkpt lat="48.74279" lon="2.48001">
        <ele>81</ele>
        <time>2024-01-22T07:50:11.841+00:00</time>
      </trkpt>
      <trkpt lat="48.74283" lon="2.47993">
        <ele>81</ele>
        <time>2024-01-22T07:50:16.410+00:00</time>
      </trkpt>
      <trkpt lat="48.74287" lon="2.47985">
        <ele>80</ele>
        <time>2024-01-22T07:50:20.515+00:00</time>
      </trkpt>
      <trkpt lat="48.74292" lon="2.47981">
        <ele>77</ele>
        <time>2024-01-22T07:50:24.657+00:00</time>
      </trkpt>
      <trkpt lat="48.74299" lon="2.4798">
        <ele>77</ele>
        <time>2024-01-22T07:50:29.198+00:00</time>
      </trkpt>
      <trkpt lat="48.74305" lon="2.47979">
        <ele>77</ele>
        <time>2024-01-22T07:50:33.381+00:00</time>
      </trkpt>
      <trkpt lat="48.74311" lon="2.47975">
        <ele>77</ele>
        <time>2024-01-22T07:50:38.023+00:00</time>
      </trkpt>
      <trkpt lat="48.74316" lon="2.4797">
        <ele>77</ele>
        <time>2024-01-22T07:50:42.225+00:00</time>
      </trkpt>
      <trkpt lat="48.74319" lon="2.4796">
        <ele>77</ele>
        <time>2024-01-22T07:50:46.767+00:00</time>
      </trkpt>
      <trkpt lat="48.74323" lon="2.47952">
        <ele>75</ele>
        <time>2024-01-22T07:50:50.831+00:00</time>
      </trkpt>
      <trkpt lat="48.74327" lon="2.47945">
        <ele>75</ele>
        <time>2024-01-22T07:50:55.018+00:00</time>
      </trkpt>
      <trkpt lat="48.7433" lon="2.47938">
        <ele>75</ele>
        <time>2024-01-22T07:50:59.557+00:00</time>
      </trkpt>
      <trkpt lat="48.74335" lon="2.47932">
        <ele>75</ele>
        <time>2024-01-22T07:51:04.101+00:00</time>
      </trkpt>
      <trkpt lat="48.74339" lon="2.47925">
        <ele>77</ele>
        <time>2024-01-22T07:51:08.648+00:00</time>
      </trkpt>
      <trkpt lat="48.7434" lon="2.47913">
        <ele>77</ele>
        <time>2024-01-22T07:51:13.193+00:00</time>
      </trkpt>
      <trkpt lat="48.74343" lon="2.47902">
        <ele>79</ele>
        <time>2024-01-22T07:51:17.259+00:00</time>
      </trkpt>
      <trkpt lat="48.74347" lon="2.47892">
        <ele>79</ele>
        <time>2024-01-22T07:51:21.686+00:00</time>
      </trkpt>
      <trkpt lat="48.74348" lon="2.47882">
        <ele>75</ele>
        <time>2024-01-22T07:51:26.233+00:00</time>
      </trkpt>
      <trkpt lat="48.74347" lon="2.47873">
        <ele>80</ele>
        <time>2024-01-22T07:51:30.419+00:00</time>
      </trkpt>
      <trkpt lat="48.74346" lon="2.47865">
        <ele>80</ele>
        <time>2024-01-22T07:51:34.485+00:00</time>
      </trkpt>
      <trkpt lat="48.74348" lon="2.47856">
        <ele>77</ele>
        <time>2024-01-22T07:51:39.031+00:00</time>
      </trkpt>
      <trkpt lat="48.74349" lon="2.47848">
        <ele>77</ele>
        <time>2024-01-22T07:51:43.034+00:00</time>
      </trkpt>
      <trkpt lat="48.74351" lon="2.47842">
        <ele>78</ele>
        <time>2024-01-22T07:51:47.168+00:00</time>
      </trkpt>
      <trkpt lat="48.74357" lon="2.47842">
        <ele>78</ele>
        <time>2024-01-22T07:51:51.341+00:00</time>
      </trkpt>
      <trkpt lat="48.74364" lon="2.47838">
        <ele>78</ele>
        <time>2024-01-22T07:51:56.014+00:00</time>
      </trkpt>
      <trkpt lat="48.7437" lon="2.47837">
        <ele>78</ele>
        <time>2024-01-22T07:52:00.111+00:00</time>
      </trkpt>
      <trkpt lat="48.74375" lon="2.4784">
        <ele>73</ele>
        <time>2024-01-22T07:52:05.050+00:00</time>
      </trkpt>
      <trkpt lat="48.74382" lon="2.4784">
        <ele>73</ele>
        <time>2024-01-22T07:52:09.580+00:00</time>
      </trkpt>
      <trkpt lat="48.74389" lon="2.47842">
        <ele>73</ele>
        <time>2024-01-22T07:52:13.563+00:00</time>
      </trkpt>
      <trkpt lat="48.74396" lon="2.47846">
        <ele>73</ele>
        <time>2024-01-22T07:52:17.637+00:00</time>
      </trkpt>
      <trkpt lat="48.74404" lon="2.4785">
        <ele>69</ele>
        <time>2024-01-22T07:52:22.419+00:00</time>
      </trkpt>
      <trkpt lat="48.74411" lon="2.47852">
        <ele>69</ele>
        <time>2024-01-22T07:52:26.616+00:00</time>
      </trkpt>
      <trkpt lat="48.74418" lon="2.47848">
        <ele>69</ele>
        <time>2024-01-22T07:52:30.733+00:00</time>
      </trkpt>
      <trkpt lat="48.74426" lon="2.4783">
        <ele>69</ele>
        <time>2024-01-22T07:52:39.812+00:00</time>
      </trkpt>
      <trkpt lat="48.7443" lon="2.47821">
        <ele>69</ele>
        <time>2024-01-22T07:52:44.515+00:00</time>
      </trkpt>
      <trkpt lat="48.74437" lon="2.47812">
        <ele>67</ele>
        <time>2024-01-22T07:52:48.913+00:00</time>
      </trkpt>
      <trkpt lat="48.74439" lon="2.47802">
        <ele>67</ele>
        <time>2024-01-22T07:52:53.494+00:00</time>
      </trkpt>
      <trkpt lat="48.74441" lon="2.47793">
        <ele>67</ele>
        <time>2024-01-22T07:52:57.889+00:00</time>
      </trkpt>
      <trkpt lat="48.74443" lon="2.47781">
        <ele>67</ele>
        <time>2024-01-22T07:53:01.956+00:00</time>
      </trkpt>
      <trkpt lat="48.74448" lon="2.47772">
        <ele>67</ele>
        <time>2024-01-22T07:53:06.593+00:00</time>
      </trkpt>
      <trkpt lat="48.74451" lon="2.47764">
        <ele>68</ele>
        <time>2024-01-22T07:53:10.570+00:00</time>
      </trkpt>
      <trkpt lat="48.74456" lon="2.47758">
        <ele>68</ele>
        <time>2024-01-22T07:53:15.045+00:00</time>
      </trkpt>
      <trkpt lat="48.74462" lon="2.47756">
        <ele>64</ele>
        <time>2024-01-22T07:53:19.184+00:00</time>
      </trkpt>
      <trkpt lat="48.74469" lon="2.47755">
        <ele>64</ele>
        <time>2024-01-22T07:53:23.369+00:00</time>
      </trkpt>
      <trkpt lat="48.74475" lon="2.4776">
        <ele>64</ele>
        <time>2024-01-22T07:53:28.031+00:00</time>
      </trkpt>
      <trkpt lat="48.74482" lon="2.47764">
        <ele>63</ele>
        <time>2024-01-22T07:53:32.574+00:00</time>
      </trkpt>
      <trkpt lat="48.74488" lon="2.47768">
        <ele>61</ele>
        <time>2024-01-22T07:53:37.116+00:00</time>
      </trkpt>
      <trkpt lat="48.74496" lon="2.47769">
        <ele>61</ele>
        <time>2024-01-22T07:53:41.659+00:00</time>
      </trkpt>
      <trkpt lat="48.74501" lon="2.47761">
        <ele>61</ele>
        <time>2024-01-22T07:53:46.201+00:00</time>
      </trkpt>
      <trkpt lat="48.74504" lon="2.47749">
        <ele>61</ele>
        <time>2024-01-22T07:53:50.864+00:00</time>
      </trkpt>
      <trkpt lat="48.74506" lon="2.47741">
        <ele>61</ele>
        <time>2024-01-22T07:53:55+00:00</time>
      </trkpt>
      <trkpt lat="48.74508" lon="2.47734">
        <ele>61</ele>
        <time>2024-01-22T07:53:59.470+00:00</time>
      </trkpt>
      <trkpt lat="48.7451" lon="2.47729">
        <ele>61</ele>
        <time>2024-01-22T07:54:03.533+00:00</time>
      </trkpt>
      <trkpt lat="48.74513" lon="2.47719">
        <ele>61</ele>
        <time>2024-01-22T07:54:08+00:00</time>
      </trkpt>
      <trkpt lat="48.74517" lon="2.47707">
        <ele>61</ele>
        <time>2024-01-22T07:54:12.499+00:00</time>
      </trkpt>
      <trkpt lat="48.74519" lon="2.47697">
        <ele>61</ele>
        <time>2024-01-22T07:54:17.041+00:00</time>
      </trkpt>
      <trkpt lat="48.74522" lon="2.47688">
        <ele>61</ele>
        <time>2024-01-22T07:54:21.155+00:00</time>
      </trkpt>
      <trkpt lat="48.74526" lon="2.47682">
        <ele>61</ele>
        <time>2024-01-22T07:54:25.166+00:00</time>
      </trkpt>
      <trkpt lat="48.74529" lon="2.47674">
        <ele>61</ele>
        <time>2024-01-22T07:54:29.825+00:00</time>
      </trkpt>
      <trkpt lat="48.74533" lon="2.47669">
        <ele>61</ele>
        <time>2024-01-22T07:54:33.888+00:00</time>
      </trkpt>
      <trkpt lat="48.74537" lon="2.47665">
        <ele>61</ele>
        <time>2024-01-22T07:54:38.360+00:00</time>
      </trkpt>
      <trkpt lat="48.7454" lon="2.47663">
        <ele>61</ele>
        <time>2024-01-22T07:54:42.372+00:00</time>
      </trkpt>
      <trkpt lat="48.74545" lon="2.47658">
        <ele>60</ele>
        <time>2024-01-22T07:54:46.935+00:00</time>
      </trkpt>
      <trkpt lat="48.7455" lon="2.47653">
        <ele>60</ele>
        <time>2024-01-22T07:54:50.975+00:00</time>
      </trkpt>
      <trkpt lat="48.74555" lon="2.47647">
        <ele>61</ele>
        <time>2024-01-22T07:54:55.039+00:00</time>
      </trkpt>
      <trkpt lat="48.74561" lon="2.4764">
        <ele>61</ele>
        <time>2024-01-22T07:54:59.223+00:00</time>
      </trkpt>
      <trkpt lat="48.74565" lon="2.47633">
        <ele>61</ele>
        <time>2024-01-22T07:55:03.404+00:00</time>
      </trkpt>
      <trkpt lat="48.7457" lon="2.47625">
        <ele>61</ele>
        <time>2024-01-22T07:55:08.185+00:00</time>
      </trkpt>
      <trkpt lat="48.74575" lon="2.47617">
        <ele>61</ele>
        <time>2024-01-22T07:55:12.964+00:00</time>
      </trkpt>
      <trkpt lat="48.74579" lon="2.47606">
        <ele>61</ele>
        <time>2024-01-22T07:55:17.624+00:00</time>
      </trkpt>
      <trkpt lat="48.74584" lon="2.47596">
        <ele>62</ele>
        <time>2024-01-22T07:55:22.405+00:00</time>
      </trkpt>
      <trkpt lat="48.7459" lon="2.4759">
        <ele>62</ele>
        <time>2024-01-22T07:55:27.184+00:00</time>
      </trkpt>
      <trkpt lat="48.74597" lon="2.47587">
        <ele>62</ele>
        <time>2024-01-22T07:55:31.844+00:00</time>
      </trkpt>
      <trkpt lat="48.74604" lon="2.47581">
        <ele>61</ele>
        <time>2024-01-22T07:55:36.386+00:00</time>
      </trkpt>
      <trkpt lat="48.74609" lon="2.47573">
        <ele>61</ele>
        <time>2024-01-22T07:55:40.933+00:00</time>
      </trkpt>
      <trkpt lat="48.74612" lon="2.47565">
        <ele>60</ele>
        <time>2024-01-22T07:55:44.877+00:00</time>
      </trkpt>
      <trkpt lat="48.74615" lon="2.47556">
        <ele>60</ele>
        <time>2024-01-22T07:55:49.420+00:00</time>
      </trkpt>
      <trkpt lat="48.74621" lon="2.47548">
        <ele>60</ele>
        <time>2024-01-22T07:55:53.605+00:00</time>
      </trkpt>
      <trkpt lat="48.74627" lon="2.47542">
        <ele>59</ele>
        <time>2024-01-22T07:55:58.183+00:00</time>
      </trkpt>
      <trkpt lat="48.74628" lon="2.47534">
        <ele>59</ele>
        <time>2024-01-22T07:56:02.216+00:00</time>
      </trkpt>
      <trkpt lat="48.74634" lon="2.47531">
        <ele>59</ele>
        <time>2024-01-22T07:56:06.694+00:00</time>
      </trkpt>
      <trkpt lat="48.7464" lon="2.4753">
        <ele>59</ele>
        <time>2024-01-22T07:56:10.586+00:00</time>
      </trkpt>
      <trkpt lat="48.74647" lon="2.47529">
        <ele>59</ele>
        <time>2024-01-22T07:56:15.060+00:00</time>
      </trkpt>
      <trkpt lat="48.74653" lon="2.47528">
        <ele>56</ele>
        <time>2024-01-22T07:56:19.555+00:00</time>
      </trkpt>
      <trkpt lat="48.7466" lon="2.47527">
        <ele>56</ele>
        <time>2024-01-22T07:56:23.621+00:00</time>
      </trkpt>
      <trkpt lat="48.74667" lon="2.47524">
        <ele>56</ele>
        <time>2024-01-22T07:56:27.807+00:00</time>
      </trkpt>
      <trkpt lat="48.74674" lon="2.47516">
        <ele>56</ele>
        <time>2024-01-22T07:56:32.259+00:00</time>
      </trkpt>
      <trkpt lat="48.74679" lon="2.47506">
        <ele>56</ele>
        <time>2024-01-22T07:56:36.937+00:00</time>
      </trkpt>
      <trkpt lat="48.74683" lon="2.47498">
        <ele>53</ele>
        <time>2024-01-22T07:56:40.840+00:00</time>
      </trkpt>
      <trkpt lat="48.74687" lon="2.47487">
        <ele>53</ele>
        <time>2024-01-22T07:56:45.383+00:00</time>
      </trkpt>
      <trkpt lat="48.7469" lon="2.47476">
        <ele>54</ele>
        <time>2024-01-22T07:56:49.447+00:00</time>
      </trkpt>
      <trkpt lat="48.74691" lon="2.47464">
        <ele>54</ele>
        <time>2024-01-22T07:56:53.989+00:00</time>
      </trkpt>
      <trkpt lat="48.74691" lon="2.47455">
        <ele>55</ele>
        <time>2024-01-22T07:56:58.054+00:00</time>
      </trkpt>
      <trkpt lat="48.7469" lon="2.47443">
        <ele>55</ele>
        <time>2024-01-22T07:57:02.065+00:00</time>
      </trkpt>
      <trkpt lat="48.74689" lon="2.4743">
        <ele>55</ele>
        <time>2024-01-22T07:57:06.662+00:00</time>
      </trkpt>
      <trkpt lat="48.7469" lon="2.4742">
        <ele>55</ele>
        <time>2024-01-22T07:57:11.207+00:00</time>
      </trkpt>
      <trkpt lat="48.74692" lon="2.4741">
        <ele>55</ele>
        <time>2024-01-22T07:57:15.392+00:00</time>
      </trkpt>
      <trkpt lat="48.74696" lon="2.474">
        <ele>54</ele>
        <time>2024-01-22T07:57:19.579+00:00</time>
      </trkpt>
      <trkpt lat="48.74702" lon="2.47392">
        <ele>54</ele>
        <time>2024-01-22T07:57:24.895+00:00</time>
      </trkpt>
      <trkpt lat="48.74706" lon="2.47385">
        <ele>54</ele>
        <time>2024-01-22T07:57:28.789+00:00</time>
      </trkpt>
      <trkpt lat="48.74708" lon="2.47376">
        <ele>54</ele>
        <time>2024-01-22T07:57:33.573+00:00</time>
      </trkpt>
      <trkpt lat="48.74709" lon="2.47367">
        <ele>52</ele>
        <time>2024-01-22T07:57:38.051+00:00</time>
      </trkpt>
      <trkpt lat="48.74711" lon="2.47359">
        <ele>52</ele>
        <time>2024-01-22T07:57:42.182+00:00</time>
      </trkpt>
      <trkpt lat="48.74715" lon="2.47352">
        <ele>52</ele>
        <time>2024-01-22T07:57:46.129+00:00</time>
      </trkpt>
      <trkpt lat="48.74721" lon="2.47351">
        <ele>52</ele>
        <time>2024-01-22T07:57:50.555+00:00</time>
      </trkpt>
      <trkpt lat="48.74725" lon="2.47353">
        <ele>52</ele>
        <time>2024-01-22T07:57:54.500+00:00</time>
      </trkpt>
      <trkpt lat="48.7473" lon="2.47355">
        <ele>52</ele>
        <time>2024-01-22T07:57:59.044+00:00</time>
      </trkpt>
      <trkpt lat="48.74735" lon="2.47357">
        <ele>52</ele>
        <time>2024-01-22T07:58:03.492+00:00</time>
      </trkpt>
      <trkpt lat="48.7474" lon="2.4736">
        <ele>51</ele>
        <time>2024-01-22T07:58:07.418+00:00</time>
      </trkpt>
      <trkpt lat="48.74747" lon="2.47362">
        <ele>51</ele>
        <time>2024-01-22T07:58:11.964+00:00</time>
      </trkpt>
      <trkpt lat="48.74753" lon="2.47355">
        <ele>51</ele>
        <time>2024-01-22T07:58:16.625+00:00</time>
      </trkpt>
      <trkpt lat="48.74758" lon="2.47346">
        <ele>51</ele>
        <time>2024-01-22T07:58:21.168+00:00</time>
      </trkpt>
      <trkpt lat="48.74763" lon="2.4734">
        <ele>51</ele>
        <time>2024-01-22T07:58:25.591+00:00</time>
      </trkpt>
      <trkpt lat="48.74768" lon="2.47335">
        <ele>49</ele>
        <time>2024-01-22T07:58:29.778+00:00</time>
      </trkpt>
      <trkpt lat="48.74773" lon="2.47334">
        <ele>49</ele>
        <time>2024-01-22T07:58:33.843+00:00</time>
      </trkpt>
      <trkpt lat="48.74777" lon="2.47335">
        <ele>49</ele>
        <time>2024-01-22T07:58:38.021+00:00</time>
      </trkpt>
      <trkpt lat="48.74781" lon="2.47335">
        <ele>49</ele>
        <time>2024-01-22T07:58:42.213+00:00</time>
      </trkpt>
      <trkpt lat="48.74787" lon="2.47332">
        <ele>49</ele>
        <time>2024-01-22T07:58:46.399+00:00</time>
      </trkpt>
      <trkpt lat="48.74793" lon="2.47327">
        <ele>46</ele>
        <time>2024-01-22T07:58:51.062+00:00</time>
      </trkpt>
      <trkpt lat="48.748" lon="2.47323">
        <ele>46</ele>
        <time>2024-01-22T07:58:55.247+00:00</time>
      </trkpt>
      <trkpt lat="48.74806" lon="2.4732">
        <ele>46</ele>
        <time>2024-01-22T07:58:59.793+00:00</time>
      </trkpt>
      <trkpt lat="48.74812" lon="2.47316">
        <ele>47</ele>
        <time>2024-01-22T07:59:03.902+00:00</time>
      </trkpt>
      <trkpt lat="48.74816" lon="2.47314">
        <ele>47</ele>
        <time>2024-01-22T07:59:07.448+00:00</time>
      </trkpt>
      <trkpt lat="48.7482" lon="2.47312">
        <ele>44</ele>
        <time>2024-01-22T07:59:11.516+00:00</time>
      </trkpt>
      <trkpt lat="48.74825" lon="2.47308">
        <ele>44</ele>
        <time>2024-01-22T07:59:15.583+00:00</time>
      </trkpt>
      <trkpt lat="48.74831" lon="2.47303">
        <ele>44</ele>
        <time>2024-01-22T07:59:19.648+00:00</time>
      </trkpt>
      <trkpt lat="48.74837" lon="2.47297">
        <ele>44</ele>
        <time>2024-01-22T07:59:24.113+00:00</time>
      </trkpt>
      <trkpt lat="48.74844" lon="2.4729">
        <ele>44</ele>
        <time>2024-01-22T07:59:28.177+00:00</time>
      </trkpt>
      <trkpt lat="48.7485" lon="2.47285">
        <ele>42</ele>
        <time>2024-01-22T07:59:32.679+00:00</time>
      </trkpt>
      <trkpt lat="48.74857" lon="2.47281">
        <ele>42</ele>
        <time>2024-01-22T07:59:37.458+00:00</time>
      </trkpt>
      <trkpt lat="48.74863" lon="2.47278">
        <ele>42</ele>
        <time>2024-01-22T07:59:41.405+00:00</time>
      </trkpt>
      <trkpt lat="48.74869" lon="2.47274">
        <ele>42</ele>
        <time>2024-01-22T07:59:46.048+00:00</time>
      </trkpt>
      <trkpt lat="48.74874" lon="2.47269">
        <ele>42</ele>
        <time>2024-01-22T07:59:50.013+00:00</time>
      </trkpt>
      <trkpt lat="48.74879" lon="2.47266">
        <ele>41</ele>
        <time>2024-01-22T07:59:54.259+00:00</time>
      </trkpt>
      <trkpt lat="48.74884" lon="2.47264">
        <ele>42</ele>
        <time>2024-01-22T07:59:58.259+00:00</time>
      </trkpt>
      <trkpt lat="48.7489" lon="2.47263">
        <ele>42</ele>
        <time>2024-01-22T08:00:02.455+00:00</time>
      </trkpt>
      <trkpt lat="48.74897" lon="2.47266">
        <ele>41</ele>
        <time>2024-01-22T08:00:07.006+00:00</time>
      </trkpt>
      <trkpt lat="48.74904" lon="2.47264">
        <ele>41</ele>
        <time>2024-01-22T08:00:11.201+00:00</time>
      </trkpt>
      <trkpt lat="48.7491" lon="2.47269">
        <ele>41</ele>
        <time>2024-01-22T08:00:15.156+00:00</time>
      </trkpt>
      <trkpt lat="48.74912" lon="2.47277">
        <ele>41</ele>
        <time>2024-01-22T08:00:19.707+00:00</time>
      </trkpt>
      <trkpt lat="48.74915" lon="2.47287">
        <ele>41</ele>
        <time>2024-01-22T08:00:24.378+00:00</time>
      </trkpt>
      <trkpt lat="48.74919" lon="2.47296">
        <ele>41</ele>
        <time>2024-01-22T08:00:28.808+00:00</time>
      </trkpt>
      <trkpt lat="48.74922" lon="2.47305">
        <ele>41</ele>
        <time>2024-01-22T08:00:32.880+00:00</time>
      </trkpt>
      <trkpt lat="48.74927" lon="2.47315">
        <ele>41</ele>
        <time>2024-01-22T08:00:37.312+00:00</time>
      </trkpt>
      <trkpt lat="48.74933" lon="2.47318">
        <ele>39</ele>
        <time>2024-01-22T08:00:41.863+00:00</time>
      </trkpt>
      <trkpt lat="48.7494" lon="2.47315">
        <ele>39</ele>
        <time>2024-01-22T08:00:46.413+00:00</time>
      </trkpt>
      <trkpt lat="48.74947" lon="2.47313">
        <ele>39</ele>
        <time>2024-01-22T08:00:50.961+00:00</time>
      </trkpt>
      <trkpt lat="48.74954" lon="2.47315">
        <ele>39</ele>
        <time>2024-01-22T08:00:55.390+00:00</time>
      </trkpt>
      <trkpt lat="48.74962" lon="2.47315">
        <ele>38</ele>
        <time>2024-01-22T08:01:00.058+00:00</time>
      </trkpt>
      <trkpt lat="48.74969" lon="2.47314">
        <ele>38</ele>
        <time>2024-01-22T08:01:04.041+00:00</time>
      </trkpt>
      <trkpt lat="48.74976" lon="2.47312">
        <ele>38</ele>
        <time>2024-01-22T08:01:08.180+00:00</time>
      </trkpt>
      <trkpt lat="48.74981" lon="2.47312">
        <ele>38</ele>
        <time>2024-01-22T08:01:12.291+00:00</time>
      </trkpt>
      <trkpt lat="48.74987" lon="2.47313">
        <ele>38</ele>
        <time>2024-01-22T08:01:16.215+00:00</time>
      </trkpt>
      <trkpt lat="48.74994" lon="2.4731">
        <ele>38</ele>
        <time>2024-01-22T08:01:20.762+00:00</time>
      </trkpt>
      <trkpt lat="48.75" lon="2.47307">
        <ele>38</ele>
        <time>2024-01-22T08:01:24.830+00:00</time>
      </trkpt>
      <trkpt lat="48.75006" lon="2.47305">
        <ele>38</ele>
        <time>2024-01-22T08:01:28.961+00:00</time>
      </trkpt>
      <trkpt lat="48.75013" lon="2.47302">
        <ele>38</ele>
        <time>2024-01-22T08:01:33.446+00:00</time>
      </trkpt>
      <trkpt lat="48.75019" lon="2.473">
        <ele>38</ele>
        <time>2024-01-22T08:01:37.995+00:00</time>
      </trkpt>
      <trkpt lat="48.75026" lon="2.47298">
        <ele>38</ele>
        <time>2024-01-22T08:01:42.157+00:00</time>
      </trkpt>
      <trkpt lat="48.75032" lon="2.47294">
        <ele>38</ele>
        <time>2024-01-22T08:01:46.615+00:00</time>
      </trkpt>
      <trkpt lat="48.75039" lon="2.4729">
        <ele>40</ele>
        <time>2024-01-22T08:01:51.165+00:00</time>
      </trkpt>
      <trkpt lat="48.75046" lon="2.47287">
        <ele>39</ele>
        <time>2024-01-22T08:01:55.815+00:00</time>
      </trkpt>
      <trkpt lat="48.75053" lon="2.47284">
        <ele>39</ele>
        <time>2024-01-22T08:02:00.381+00:00</time>
      </trkpt>
      <trkpt lat="48.75059" lon="2.47282">
        <ele>39</ele>
        <time>2024-01-22T08:02:04.330+00:00</time>
      </trkpt>
      <trkpt lat="48.75066" lon="2.4728">
        <ele>39</ele>
        <time>2024-01-22T08:02:08.876+00:00</time>
      </trkpt>
      <trkpt lat="48.75072" lon="2.47279">
        <ele>40</ele>
        <time>2024-01-22T08:02:12.826+00:00</time>
      </trkpt>
      <trkpt lat="48.7508" lon="2.47279">
        <ele>40</ele>
        <time>2024-01-22T08:02:17.536+00:00</time>
      </trkpt>
      <trkpt lat="48.75087" lon="2.47279">
        <ele>40</ele>
        <time>2024-01-22T08:02:22.041+00:00</time>
      </trkpt>
      <trkpt lat="48.75094" lon="2.47279">
        <ele>40</ele>
        <time>2024-01-22T08:02:26.589+00:00</time>
      </trkpt>
      <trkpt lat="48.75101" lon="2.47276">
        <ele>40</ele>
        <time>2024-01-22T08:02:31.046+00:00</time>
      </trkpt>
      <trkpt lat="48.75107" lon="2.47275">
        <ele>40</ele>
        <time>2024-01-22T08:02:35.180+00:00</time>
      </trkpt>
      <trkpt lat="48.75112" lon="2.47274">
        <ele>40</ele>
        <time>2024-01-22T08:02:39.158+00:00</time>
      </trkpt>
      <trkpt lat="48.75117" lon="2.47273">
        <ele>40</ele>
        <time>2024-01-22T08:02:43.802+00:00</time>
      </trkpt>
      <trkpt lat="48.75124" lon="2.47271">
        <ele>40</ele>
        <time>2024-01-22T08:02:48.256+00:00</time>
      </trkpt>
      <trkpt lat="48.7513" lon="2.47269">
        <ele>40</ele>
        <time>2024-01-22T08:02:52.259+00:00</time>
      </trkpt>
      <trkpt lat="48.75138" lon="2.47267">
        <ele>40</ele>
        <time>2024-01-22T08:02:56.874+00:00</time>
      </trkpt>
      <trkpt lat="48.75145" lon="2.47263">
        <ele>41</ele>
        <time>2024-01-22T08:03:01.420+00:00</time>
      </trkpt>
      <trkpt lat="48.75151" lon="2.4726">
        <ele>41</ele>
        <time>2024-01-22T08:03:06.199+00:00</time>
      </trkpt>
      <trkpt lat="48.75158" lon="2.47255">
        <ele>41</ele>
        <time>2024-01-22T08:03:10.394+00:00</time>
      </trkpt>
      <trkpt lat="48.75164" lon="2.47251">
        <ele>41</ele>
        <time>2024-01-22T08:03:14.341+00:00</time>
      </trkpt>
      <trkpt lat="48.75169" lon="2.47248">
        <ele>41</ele>
        <time>2024-01-22T08:03:18.766+00:00</time>
      </trkpt>
      <trkpt lat="48.75175" lon="2.47245">
        <ele>41</ele>
        <time>2024-01-22T08:03:23.431+00:00</time>
      </trkpt>
      <trkpt lat="48.75181" lon="2.47243">
        <ele>40</ele>
        <time>2024-01-22T08:03:27.976+00:00</time>
      </trkpt>
      <trkpt lat="48.75186" lon="2.47243">
        <ele>40</ele>
        <time>2024-01-22T08:03:32.042+00:00</time>
      </trkpt>
      <trkpt lat="48.75191" lon="2.47248">
        <ele>40</ele>
        <time>2024-01-22T08:03:36.227+00:00</time>
      </trkpt>
      <trkpt lat="48.75196" lon="2.47254">
        <ele>40</ele>
        <time>2024-01-22T08:03:40.651+00:00</time>
      </trkpt>
      <trkpt lat="48.75198" lon="2.47263">
        <ele>40</ele>
        <time>2024-01-22T08:03:45.195+00:00</time>
      </trkpt>
      <trkpt lat="48.75202" lon="2.47268">
        <ele>40</ele>
        <time>2024-01-22T08:03:49.858+00:00</time>
      </trkpt>
      <trkpt lat="48.75207" lon="2.47271">
        <ele>40</ele>
        <time>2024-01-22T08:03:54.642+00:00</time>
      </trkpt>
      <trkpt lat="48.75215" lon="2.47265">
        <ele>39</ele>
        <time>2024-01-22T08:03:59.356+00:00</time>
      </trkpt>
      <trkpt lat="48.75222" lon="2.47261">
        <ele>39</ele>
        <time>2024-01-22T08:04:03.369+00:00</time>
      </trkpt>
      <trkpt lat="48.75229" lon="2.47256">
        <ele>39</ele>
        <time>2024-01-22T08:04:07.554+00:00</time>
      </trkpt>
      <trkpt lat="48.75232" lon="2.47243">
        <ele>39</ele>
        <time>2024-01-22T08:04:12.223+00:00</time>
      </trkpt>
      <trkpt lat="48.75233" lon="2.47231">
        <ele>39</ele>
        <time>2024-01-22T08:04:17.011+00:00</time>
      </trkpt>
      <trkpt lat="48.75238" lon="2.47223">
        <ele>39</ele>
        <time>2024-01-22T08:04:20.963+00:00</time>
      </trkpt>
      <trkpt lat="48.7524" lon="2.47214">
        <ele>39</ele>
        <time>2024-01-22T08:04:25.155+00:00</time>
      </trkpt>
      <trkpt lat="48.75242" lon="2.47204">
        <ele>39</ele>
        <time>2024-01-22T08:04:29.823+00:00</time>
      </trkpt>
      <trkpt lat="48.75246" lon="2.47195">
        <ele>39</ele>
        <time>2024-01-22T08:04:34.013+00:00</time>
      </trkpt>
      <trkpt lat="48.75247" lon="2.47186">
        <ele>39</ele>
        <time>2024-01-22T08:04:37.603+00:00</time>
      </trkpt>
      <trkpt lat="48.752" lon="2.46986">
        <ele>41</ele>
        <time>2024-01-22T08:06:20.203+00:00</time>
      </trkpt>
      <trkpt lat="48.75186" lon="2.46973">
        <ele>41</ele>
        <time>2024-01-22T08:06:25.186+00:00</time>
      </trkpt>
      <trkpt lat="48.75186" lon="2.4697">
        <ele>41</ele>
        <time>2024-01-22T08:06:29.213+00:00</time>
      </trkpt>
      <trkpt lat="48.75189" lon="2.46959">
        <ele>41</ele>
        <time>2024-01-22T08:06:33.827+00:00</time>
      </trkpt>
      <trkpt lat="48.75185" lon="2.46951">
        <ele>40</ele>
        <time>2024-01-22T08:06:37.848+00:00</time>
      </trkpt>
      <trkpt lat="48.75182" lon="2.46942">
        <ele>40</ele>
        <time>2024-01-22T08:06:42.358+00:00</time>
      </trkpt>
      <trkpt lat="48.75181" lon="2.46933">
        <ele>40</ele>
        <time>2024-01-22T08:06:46.367+00:00</time>
      </trkpt>
      <trkpt lat="48.75177" lon="2.46923">
        <ele>38</ele>
        <time>2024-01-22T08:06:50.878+00:00</time>
      </trkpt>
      <trkpt lat="48.75174" lon="2.46914">
        <ele>38</ele>
        <time>2024-01-22T08:06:54.887+00:00</time>
      </trkpt>
      <trkpt lat="48.75172" lon="2.46906">
        <ele>38</ele>
        <time>2024-01-22T08:06:58.896+00:00</time>
      </trkpt>
      <trkpt lat="48.75169" lon="2.46896">
        <ele>38</ele>
        <time>2024-01-22T08:07:03.407+00:00</time>
      </trkpt>
      <trkpt lat="48.75167" lon="2.46885">
        <ele>38</ele>
        <time>2024-01-22T08:07:07.512+00:00</time>
      </trkpt>
      <trkpt lat="48.75166" lon="2.46876">
        <ele>38</ele>
        <time>2024-01-22T08:07:12.023+00:00</time>
      </trkpt>
      <trkpt lat="48.75163" lon="2.4687">
        <ele>39</ele>
        <time>2024-01-22T08:07:16.130+00:00</time>
      </trkpt>
      <trkpt lat="48.7516" lon="2.46859">
        <ele>39</ele>
        <time>2024-01-22T08:07:20.192+00:00</time>
      </trkpt>
      <trkpt lat="48.75157" lon="2.46848">
        <ele>39</ele>
        <time>2024-01-22T08:07:24.575+00:00</time>
      </trkpt>
      <trkpt lat="48.75155" lon="2.46839">
        <ele>39</ele>
        <time>2024-01-22T08:07:28.526+00:00</time>
      </trkpt>
      <trkpt lat="48.75154" lon="2.4683">
        <ele>39</ele>
        <time>2024-01-22T08:07:32.966+00:00</time>
      </trkpt>
      <trkpt lat="48.75151" lon="2.4682">
        <ele>37</ele>
        <time>2024-01-22T08:07:36.967+00:00</time>
      </trkpt>
      <trkpt lat="48.75149" lon="2.46812">
        <ele>38</ele>
        <time>2024-01-22T08:07:41.460+00:00</time>
      </trkpt>
      <trkpt lat="48.75147" lon="2.46803">
        <ele>38</ele>
        <time>2024-01-22T08:07:45.828+00:00</time>
      </trkpt>
      <trkpt lat="48.75149" lon="2.46791">
        <ele>37</ele>
        <time>2024-01-22T08:07:50.376+00:00</time>
      </trkpt>
      <trkpt lat="48.7515" lon="2.4678">
        <ele>37</ele>
        <time>2024-01-22T08:07:54.804+00:00</time>
      </trkpt>
      <trkpt lat="48.75149" lon="2.46771">
        <ele>37</ele>
        <time>2024-01-22T08:07:59.351+00:00</time>
      </trkpt>
      <trkpt lat="48.75149" lon="2.46759">
        <ele>37</ele>
        <time>2024-01-22T08:08:16.180+00:00</time>
      </trkpt>
      <trkpt lat="48.7515" lon="2.46759">
        <ele>37</ele>
        <time>2024-01-22T08:08:20.790+00:00</time>
      </trkpt>
      <trkpt lat="48.7515" lon="2.46758">
        <ele>37</ele>
        <time>2024-01-22T08:08:24.793+00:00</time>
      </trkpt>
      <trkpt lat="48.75153" lon="2.46753">
        <ele>37</ele>
        <time>2024-01-22T08:08:29.438+00:00</time>
      </trkpt>
      <trkpt lat="48.75157" lon="2.46748">
        <ele>37</ele>
        <time>2024-01-22T08:08:33.526+00:00</time>
      </trkpt>
      <trkpt lat="48.7516" lon="2.46742">
        <ele>37</ele>
        <time>2024-01-22T08:08:38.063+00:00</time>
      </trkpt>
      <trkpt lat="48.75165" lon="2.46737">
        <ele>37</ele>
        <time>2024-01-22T08:08:41.996+00:00</time>
      </trkpt>
      <trkpt lat="48.7517" lon="2.46734">
        <ele>37</ele>
        <time>2024-01-22T08:08:45.943+00:00</time>
      </trkpt>
      <trkpt lat="48.75174" lon="2.46728">
        <ele>37</ele>
        <time>2024-01-22T08:08:50.529+00:00</time>
      </trkpt>
      <trkpt lat="48.75173" lon="2.46715">
        <ele>37</ele>
        <time>2024-01-22T08:08:54.434+00:00</time>
      </trkpt>
      <trkpt lat="48.75173" lon="2.467">
        <ele>38</ele>
        <time>2024-01-22T08:08:59.098+00:00</time>
      </trkpt>
      <trkpt lat="48.75172" lon="2.46686">
        <ele>38</ele>
        <time>2024-01-22T08:09:03.608+00:00</time>
      </trkpt>
      <trkpt lat="48.75171" lon="2.46679">
        <ele>39</ele>
        <time>2024-01-22T08:09:07.526+00:00</time>
      </trkpt>
      <trkpt lat="48.75172" lon="2.46667">
        <ele>39</ele>
        <time>2024-01-22T08:09:12.068+00:00</time>
      </trkpt>
      <trkpt lat="48.75172" lon="2.46658">
        <ele>39</ele>
        <time>2024-01-22T08:09:16.081+00:00</time>
      </trkpt>
      <trkpt lat="48.7517" lon="2.46649">
        <ele>39</ele>
        <time>2024-01-22T08:09:20.146+00:00</time>
      </trkpt>
      <trkpt lat="48.75168" lon="2.46641">
        <ele>39</ele>
        <time>2024-01-22T08:09:24.209+00:00</time>
      </trkpt>
      <trkpt lat="48.75165" lon="2.46632">
        <ele>39</ele>
        <time>2024-01-22T08:09:28.752+00:00</time>
      </trkpt>
      <trkpt lat="48.75165" lon="2.46622">
        <ele>39</ele>
        <time>2024-01-22T08:09:32.818+00:00</time>
      </trkpt>
      <trkpt lat="48.75166" lon="2.46614">
        <ele>39</ele>
        <time>2024-01-22T08:09:37.363+00:00</time>
      </trkpt>
      <trkpt lat="48.75167" lon="2.46605">
        <ele>39</ele>
        <time>2024-01-22T08:09:41.910+00:00</time>
      </trkpt>
      <trkpt lat="48.75167" lon="2.46603">
        <ele>39</ele>
        <time>2024-01-22T08:09:45.988+00:00</time>
      </trkpt>
      <trkpt lat="48.7517" lon="2.46602">
        <ele>39</ele>
        <time>2024-01-22T08:09:49.922+00:00</time>
      </trkpt>
      <trkpt lat="48.75173" lon="2.46599">
        <ele>39</ele>
        <time>2024-01-22T08:09:54.329+00:00</time>
      </trkpt>
      <trkpt lat="48.75171" lon="2.4659">
        <ele>37</ele>
        <time>2024-01-22T08:09:58.526+00:00</time>
      </trkpt>
      <trkpt lat="48.75171" lon="2.4658">
        <ele>37</ele>
        <time>2024-01-22T08:10:03.075+00:00</time>
      </trkpt>
      <trkpt lat="48.75173" lon="2.4657">
        <ele>37</ele>
        <time>2024-01-22T08:10:07.526+00:00</time>
      </trkpt>
      <trkpt lat="48.75174" lon="2.4656">
        <ele>36</ele>
        <time>2024-01-22T08:10:12.045+00:00</time>
      </trkpt>
      <trkpt lat="48.75174" lon="2.4655">
        <ele>36</ele>
        <time>2024-01-22T08:10:16.110+00:00</time>
      </trkpt>
      <trkpt lat="48.75176" lon="2.46539">
        <ele>34</ele>
        <time>2024-01-22T08:10:20.655+00:00</time>
      </trkpt>
      <trkpt lat="48.75176" lon="2.46528">
        <ele>34</ele>
        <time>2024-01-22T08:10:24.720+00:00</time>
      </trkpt>
      <trkpt lat="48.75177" lon="2.46515">
        <ele>34</ele>
        <time>2024-01-22T08:10:29.244+00:00</time>
      </trkpt>
      <trkpt lat="48.75175" lon="2.46503">
        <ele>34</ele>
        <time>2024-01-22T08:10:33.690+00:00</time>
      </trkpt>
      <trkpt lat="48.75175" lon="2.46493">
        <ele>34</ele>
        <time>2024-01-22T08:10:38.147+00:00</time>
      </trkpt>
      <trkpt lat="48.75175" lon="2.46483">
        <ele>33</ele>
        <time>2024-01-22T08:10:42.042+00:00</time>
      </trkpt>
      <trkpt lat="48.75175" lon="2.46471">
        <ele>33</ele>
        <time>2024-01-22T08:10:46.608+00:00</time>
      </trkpt>
      <trkpt lat="48.75176" lon="2.46461">
        <ele>33</ele>
        <time>2024-01-22T08:10:50.651+00:00</time>
      </trkpt>
      <trkpt lat="48.75177" lon="2.46451">
        <ele>33</ele>
        <time>2024-01-22T08:10:55.251+00:00</time>
      </trkpt>
      <trkpt lat="48.75176" lon="2.46441">
        <ele>33</ele>
        <time>2024-01-22T08:10:59.258+00:00</time>
      </trkpt>
      <trkpt lat="48.75176" lon="2.46427">
        <ele>32</ele>
        <time>2024-01-22T08:11:03.802+00:00</time>
      </trkpt>
      <trkpt lat="48.75175" lon="2.46417">
        <ele>32</ele>
        <time>2024-01-22T08:11:08.368+00:00</time>
      </trkpt>
      <trkpt lat="48.75176" lon="2.46407">
        <ele>32</ele>
        <time>2024-01-22T08:11:12.291+00:00</time>
      </trkpt>
      <trkpt lat="48.75177" lon="2.46397">
        <ele>33</ele>
        <time>2024-01-22T08:11:16.787+00:00</time>
      </trkpt>
      <trkpt lat="48.75175" lon="2.46385">
        <ele>33</ele>
        <time>2024-01-22T08:11:20.778+00:00</time>
      </trkpt>
      <trkpt lat="48.75174" lon="2.46374">
        <ele>33</ele>
        <time>2024-01-22T08:11:25.438+00:00</time>
      </trkpt>
      <trkpt lat="48.75174" lon="2.46363">
        <ele>33</ele>
        <time>2024-01-22T08:11:30.099+00:00</time>
      </trkpt>
      <trkpt lat="48.75174" lon="2.46351">
        <ele>33</ele>
        <time>2024-01-22T08:11:34.639+00:00</time>
      </trkpt>
      <trkpt lat="48.75174" lon="2.46341">
        <ele>33</ele>
        <time>2024-01-22T08:11:38.820+00:00</time>
      </trkpt>
      <trkpt lat="48.75173" lon="2.46331">
        <ele>33</ele>
        <time>2024-01-22T08:11:43.362+00:00</time>
      </trkpt>
      <trkpt lat="48.75172" lon="2.46321">
        <ele>33</ele>
        <time>2024-01-22T08:11:47.425+00:00</time>
      </trkpt>
      <trkpt lat="48.75173" lon="2.46311">
        <ele>33</ele>
        <time>2024-01-22T08:11:51.899+00:00</time>
      </trkpt>
      <trkpt lat="48.75173" lon="2.46301">
        <ele>33</ele>
        <time>2024-01-22T08:11:55.912+00:00</time>
      </trkpt>
      <trkpt lat="48.75173" lon="2.46289">
        <ele>33</ele>
        <time>2024-01-22T08:12:01.048+00:00</time>
      </trkpt>
      <trkpt lat="48.75174" lon="2.4628">
        <ele>33</ele>
        <time>2024-01-22T08:12:05.144+00:00</time>
      </trkpt>
      <trkpt lat="48.75173" lon="2.4627">
        <ele>33</ele>
        <time>2024-01-22T08:12:09.067+00:00</time>
      </trkpt>
      <trkpt lat="48.75174" lon="2.4626">
        <ele>32</ele>
        <time>2024-01-22T08:12:13.012+00:00</time>
      </trkpt>
      <trkpt lat="48.75174" lon="2.46249">
        <ele>32</ele>
        <time>2024-01-22T08:12:17.526+00:00</time>
      </trkpt>
      <trkpt lat="48.75175" lon="2.46239">
        <ele>32</ele>
        <time>2024-01-22T08:12:21.526+00:00</time>
      </trkpt>
      <trkpt lat="48.75174" lon="2.4623">
        <ele>32</ele>
        <time>2024-01-22T08:12:26.046+00:00</time>
      </trkpt>
      <trkpt lat="48.75174" lon="2.46221">
        <ele>32</ele>
        <time>2024-01-22T08:12:30.112+00:00</time>
      </trkpt>
      <trkpt lat="48.75173" lon="2.46213">
        <ele>32</ele>
        <time>2024-01-22T08:12:34.059+00:00</time>
      </trkpt>
      <trkpt lat="48.75174" lon="2.46203">
        <ele>33</ele>
        <time>2024-01-22T08:12:38.723+00:00</time>
      </trkpt>
      <trkpt lat="48.75175" lon="2.46194">
        <ele>33</ele>
        <time>2024-01-22T08:12:43.235+00:00</time>
      </trkpt>
      <trkpt lat="48.75176" lon="2.46187">
        <ele>33</ele>
        <time>2024-01-22T08:12:47.212+00:00</time>
      </trkpt>
      <trkpt lat="48.75176" lon="2.46179">
        <ele>34</ele>
        <time>2024-01-22T08:12:51.158+00:00</time>
      </trkpt>
      <trkpt lat="48.75173" lon="2.46172">
        <ele>34</ele>
        <time>2024-01-22T08:12:56.249+00:00</time>
      </trkpt>
      <trkpt lat="48.75172" lon="2.46169">
        <ele>34</ele>
        <time>2024-01-22T08:13:00.844+00:00</time>
      </trkpt>
      <trkpt lat="48.75171" lon="2.4616">
        <ele>34</ele>
        <time>2024-01-22T08:13:06.010+00:00</time>
      </trkpt>
      <trkpt lat="48.75171" lon="2.46153">
        <ele>34</ele>
        <time>2024-01-22T08:13:10.050+00:00</time>
      </trkpt>
      <trkpt lat="48.75171" lon="2.46145">
        <ele>34</ele>
        <time>2024-01-22T08:13:14.167+00:00</time>
      </trkpt>
      <trkpt lat="48.75169" lon="2.46134">
        <ele>34</ele>
        <time>2024-01-22T08:13:19.188+00:00</time>
      </trkpt>
      <trkpt lat="48.75167" lon="2.46126">
        <ele>34</ele>
        <time>2024-01-22T08:13:23.678+00:00</time>
      </trkpt>
      <trkpt lat="48.75164" lon="2.46118">
        <ele>34</ele>
        <time>2024-01-22T08:13:27.743+00:00</time>
      </trkpt>
      <trkpt lat="48.75166" lon="2.46114">
        <ele>34</ele>
        <time>2024-01-22T08:13:32.200+00:00</time>
      </trkpt>
      <trkpt lat="48.75169" lon="2.46107">
        <ele>34</ele>
        <time>2024-01-22T08:13:35.755+00:00</time>
      </trkpt>
      <trkpt lat="48.75166" lon="2.46096">
        <ele>34</ele>
        <time>2024-01-22T08:13:40.418+00:00</time>
      </trkpt>
      <trkpt lat="48.75163" lon="2.46086">
        <ele>34</ele>
        <time>2024-01-22T08:13:44.960+00:00</time>
      </trkpt>
      <trkpt lat="48.75161" lon="2.46077">
        <ele>34</ele>
        <time>2024-01-22T08:13:48.905+00:00</time>
      </trkpt>
      <trkpt lat="48.75157" lon="2.46071">
        <ele>34</ele>
        <time>2024-01-22T08:13:53.429+00:00</time>
      </trkpt>
      <trkpt lat="48.75158" lon="2.4606">
        <ele>35</ele>
        <time>2024-01-22T08:13:57.853+00:00</time>
      </trkpt>
      <trkpt lat="48.75158" lon="2.46051">
        <ele>35</ele>
        <time>2024-01-22T08:14:02.396+00:00</time>
      </trkpt>
      <trkpt lat="48.75158" lon="2.4604">
        <ele>34</ele>
        <time>2024-01-22T08:14:06.820+00:00</time>
      </trkpt>
      <trkpt lat="48.75157" lon="2.46034">
        <ele>34</ele>
        <time>2024-01-22T08:14:10.767+00:00</time>
      </trkpt>
      <trkpt lat="48.75156" lon="2.4603">
        <ele>34</ele>
        <time>2024-01-22T08:14:15.424+00:00</time>
      </trkpt>
      <trkpt lat="48.75157" lon="2.46023">
        <ele>34</ele>
        <time>2024-01-22T08:14:19.526+00:00</time>
      </trkpt>
      <trkpt lat="48.75159" lon="2.46015">
        <ele>34</ele>
        <time>2024-01-22T08:14:24.042+00:00</time>
      </trkpt>
      <trkpt lat="48.7516" lon="2.46002">
        <ele>33</ele>
        <time>2024-01-22T08:14:28.688+00:00</time>
      </trkpt>
      <trkpt lat="48.75161" lon="2.45992">
        <ele>33</ele>
        <time>2024-01-22T08:14:32.634+00:00</time>
      </trkpt>
      <trkpt lat="48.75162" lon="2.45981">
        <ele>33</ele>
        <time>2024-01-22T08:14:37.246+00:00</time>
      </trkpt>
      <trkpt lat="48.75161" lon="2.4597">
        <ele>33</ele>
        <time>2024-01-22T08:14:41.720+00:00</time>
      </trkpt>
      <trkpt lat="48.7516" lon="2.45961">
        <ele>33</ele>
        <time>2024-01-22T08:14:46.622+00:00</time>
      </trkpt>
      <trkpt lat="48.7516" lon="2.45952">
        <ele>34</ele>
        <time>2024-01-22T08:14:50.568+00:00</time>
      </trkpt>
      <trkpt lat="48.75159" lon="2.45944">
        <ele>34</ele>
        <time>2024-01-22T08:14:55.222+00:00</time>
      </trkpt>
      <trkpt lat="48.7516" lon="2.45935">
        <ele>34</ele>
        <time>2024-01-22T08:14:59.246+00:00</time>
      </trkpt>
      <trkpt lat="48.75159" lon="2.45926">
        <ele>35</ele>
        <time>2024-01-22T08:15:03.122+00:00</time>
      </trkpt>
      <trkpt lat="48.75159" lon="2.45916">
        <ele>35</ele>
        <time>2024-01-22T08:15:07.068+00:00</time>
      </trkpt>
      <trkpt lat="48.75159" lon="2.45905">
        <ele>35</ele>
        <time>2024-01-22T08:15:11.731+00:00</time>
      </trkpt>
      <trkpt lat="48.7516" lon="2.45897">
        <ele>36</ele>
        <time>2024-01-22T08:15:16.230+00:00</time>
      </trkpt>
      <trkpt lat="48.75161" lon="2.45887">
        <ele>36</ele>
        <time>2024-01-22T08:15:20.681+00:00</time>
      </trkpt>
      <trkpt lat="48.75163" lon="2.45881">
        <ele>36</ele>
        <time>2024-01-22T08:15:25.205+00:00</time>
      </trkpt>
      <trkpt lat="48.75165" lon="2.45873">
        <ele>35</ele>
        <time>2024-01-22T08:15:29.258+00:00</time>
      </trkpt>
      <trkpt lat="48.75167" lon="2.45863">
        <ele>35</ele>
        <time>2024-01-22T08:15:33.233+00:00</time>
      </trkpt>
      <trkpt lat="48.7517" lon="2.45852">
        <ele>35</ele>
        <time>2024-01-22T08:15:37.419+00:00</time>
      </trkpt>
      <trkpt lat="48.75172" lon="2.45841">
        <ele>35</ele>
        <time>2024-01-22T08:15:41.962+00:00</time>
      </trkpt>
      <trkpt lat="48.75175" lon="2.45829">
        <ele>35</ele>
        <time>2024-01-22T08:15:46.366+00:00</time>
      </trkpt>
      <trkpt lat="48.75177" lon="2.45819">
        <ele>34</ele>
        <time>2024-01-22T08:15:50.429+00:00</time>
      </trkpt>
      <trkpt lat="48.75179" lon="2.4581">
        <ele>34</ele>
        <time>2024-01-22T08:15:54.970+00:00</time>
      </trkpt>
      <trkpt lat="48.7518" lon="2.458">
        <ele>34</ele>
        <time>2024-01-22T08:15:59.395+00:00</time>
      </trkpt>
      <trkpt lat="48.75182" lon="2.45791">
        <ele>35</ele>
        <time>2024-01-22T08:16:03.842+00:00</time>
      </trkpt>
      <trkpt lat="48.75184" lon="2.45781">
        <ele>35</ele>
        <time>2024-01-22T08:16:07.762+00:00</time>
      </trkpt>
      <trkpt lat="48.75187" lon="2.4577">
        <ele>35</ele>
        <time>2024-01-22T08:16:12.259+00:00</time>
      </trkpt>
      <trkpt lat="48.75189" lon="2.45761">
        <ele>34</ele>
        <time>2024-01-22T08:16:16.248+00:00</time>
      </trkpt>
      <trkpt lat="48.7519" lon="2.4575">
        <ele>34</ele>
        <time>2024-01-22T08:16:20.800+00:00</time>
      </trkpt>
      <trkpt lat="48.75193" lon="2.45741">
        <ele>34</ele>
        <time>2024-01-22T08:16:24.806+00:00</time>
      </trkpt>
      <trkpt lat="48.75196" lon="2.4573">
        <ele>34</ele>
        <time>2024-01-22T08:16:29.276+00:00</time>
      </trkpt>
      <trkpt lat="48.75199" lon="2.4572">
        <ele>34</ele>
        <time>2024-01-22T08:16:33.937+00:00</time>
      </trkpt>
      <trkpt lat="48.75201" lon="2.45709">
        <ele>34</ele>
        <time>2024-01-22T08:16:38.526+00:00</time>
      </trkpt>
      <trkpt lat="48.75202" lon="2.45699">
        <ele>34</ele>
        <time>2024-01-22T08:16:43.022+00:00</time>
      </trkpt>
      <trkpt lat="48.75205" lon="2.4569">
        <ele>34</ele>
        <time>2024-01-22T08:16:46.845+00:00</time>
      </trkpt>
      <trkpt lat="48.75207" lon="2.45681">
        <ele>34</ele>
        <time>2024-01-22T08:16:51.386+00:00</time>
      </trkpt>
      <trkpt lat="48.75211" lon="2.45672">
        <ele>34</ele>
        <time>2024-01-22T08:16:55.801+00:00</time>
      </trkpt>
      <trkpt lat="48.75214" lon="2.45664">
        <ele>34</ele>
        <time>2024-01-22T08:16:59.730+00:00</time>
      </trkpt>
      <trkpt lat="48.75214" lon="2.45655">
        <ele>34</ele>
        <time>2024-01-22T08:17:03.672+00:00</time>
      </trkpt>
      <trkpt lat="48.75217" lon="2.45646">
        <ele>34</ele>
        <time>2024-01-22T08:17:08.092+00:00</time>
      </trkpt>
      <trkpt lat="48.7522" lon="2.45639">
        <ele>34</ele>
        <time>2024-01-22T08:17:12.034+00:00</time>
      </trkpt>
      <trkpt lat="48.75222" lon="2.45631">
        <ele>34</ele>
        <time>2024-01-22T08:17:15.976+00:00</time>
      </trkpt>
      <trkpt lat="48.75223" lon="2.4562">
        <ele>35</ele>
        <time>2024-01-22T08:17:20.320+00:00</time>
      </trkpt>
      <trkpt lat="48.75226" lon="2.4561">
        <ele>35</ele>
        <time>2024-01-22T08:17:24.461+00:00</time>
      </trkpt>
      <trkpt lat="48.7523" lon="2.456">
        <ele>35</ele>
        <time>2024-01-22T08:17:28.884+00:00</time>
      </trkpt>
      <trkpt lat="48.75232" lon="2.45591">
        <ele>35</ele>
        <time>2024-01-22T08:17:33.448+00:00</time>
      </trkpt>
      <trkpt lat="48.75235" lon="2.45581">
        <ele>35</ele>
        <time>2024-01-22T08:17:37.367+00:00</time>
      </trkpt>
      <trkpt lat="48.75237" lon="2.45572">
        <ele>35</ele>
        <time>2024-01-22T08:17:41.786+00:00</time>
      </trkpt>
      <trkpt lat="48.7524" lon="2.45564">
        <ele>35</ele>
        <time>2024-01-22T08:17:46.261+00:00</time>
      </trkpt>
      <trkpt lat="48.75243" lon="2.45554">
        <ele>35</ele>
        <time>2024-01-22T08:17:50.748+00:00</time>
      </trkpt>
      <trkpt lat="48.75245" lon="2.45544">
        <ele>35</ele>
        <time>2024-01-22T08:17:55.169+00:00</time>
      </trkpt>
      <trkpt lat="48.75248" lon="2.45536">
        <ele>36</ele>
        <time>2024-01-22T08:17:59.231+00:00</time>
      </trkpt>
      <trkpt lat="48.75253" lon="2.4553">
        <ele>36</ele>
        <time>2024-01-22T08:18:03.253+00:00</time>
      </trkpt>
      <trkpt lat="48.75257" lon="2.45523">
        <ele>36</ele>
        <time>2024-01-22T08:18:07.355+00:00</time>
      </trkpt>
      <trkpt lat="48.75261" lon="2.45514">
        <ele>36</ele>
        <time>2024-01-22T08:18:11.419+00:00</time>
      </trkpt>
      <trkpt lat="48.75266" lon="2.45507">
        <ele>35</ele>
        <time>2024-01-22T08:18:15.839+00:00</time>
      </trkpt>
      <trkpt lat="48.75271" lon="2.45501">
        <ele>35</ele>
        <time>2024-01-22T08:18:19.781+00:00</time>
      </trkpt>
      <trkpt lat="48.75275" lon="2.45494">
        <ele>35</ele>
        <time>2024-01-22T08:18:24.233+00:00</time>
      </trkpt>
      <trkpt lat="48.7528" lon="2.45487">
        <ele>35</ele>
        <time>2024-01-22T08:18:28.253+00:00</time>
      </trkpt>
      <trkpt lat="48.75285" lon="2.4548">
        <ele>34</ele>
        <time>2024-01-22T08:18:32.444+00:00</time>
      </trkpt>
      <trkpt lat="48.7529" lon="2.45472">
        <ele>34</ele>
        <time>2024-01-22T08:18:36.635+00:00</time>
      </trkpt>
      <trkpt lat="48.75296" lon="2.45465">
        <ele>35</ele>
        <time>2024-01-22T08:18:40.820+00:00</time>
      </trkpt>
      <trkpt lat="48.753" lon="2.4546">
        <ele>35</ele>
        <time>2024-01-22T08:18:44.765+00:00</time>
      </trkpt>
      <trkpt lat="48.75304" lon="2.45455">
        <ele>35</ele>
        <time>2024-01-22T08:18:49.428+00:00</time>
      </trkpt>
      <trkpt lat="48.75309" lon="2.45451">
        <ele>35</ele>
        <time>2024-01-22T08:18:53.970+00:00</time>
      </trkpt>
      <trkpt lat="48.75315" lon="2.45448">
        <ele>35</ele>
        <time>2024-01-22T08:18:58.034+00:00</time>
      </trkpt>
      <trkpt lat="48.7532" lon="2.45441">
        <ele>35</ele>
        <time>2024-01-22T08:19:02.696+00:00</time>
      </trkpt>
      <trkpt lat="48.75326" lon="2.45435">
        <ele>35</ele>
        <time>2024-01-22T08:19:06.759+00:00</time>
      </trkpt>
      <trkpt lat="48.75332" lon="2.4543">
        <ele>35</ele>
        <time>2024-01-22T08:19:11.422+00:00</time>
      </trkpt>
      <trkpt lat="48.75338" lon="2.45425">
        <ele>35</ele>
        <time>2024-01-22T08:19:15.960+00:00</time>
      </trkpt>
      <trkpt lat="48.75343" lon="2.45421">
        <ele>35</ele>
        <time>2024-01-22T08:19:20.024+00:00</time>
      </trkpt>
      <trkpt lat="48.7535" lon="2.45418">
        <ele>34</ele>
        <time>2024-01-22T08:19:24.950+00:00</time>
      </trkpt>
      <trkpt lat="48.75357" lon="2.45417">
        <ele>34</ele>
        <time>2024-01-22T08:19:29.467+00:00</time>
      </trkpt>
      <trkpt lat="48.75363" lon="2.45417">
        <ele>34</ele>
        <time>2024-01-22T08:19:34.007+00:00</time>
      </trkpt>
      <trkpt lat="48.75369" lon="2.45415">
        <ele>34</ele>
        <time>2024-01-22T08:19:38.526+00:00</time>
      </trkpt>
      <trkpt lat="48.75376" lon="2.45414">
        <ele>32</ele>
        <time>2024-01-22T08:19:43.087+00:00</time>
      </trkpt>
      <trkpt lat="48.75382" lon="2.45411">
        <ele>32</ele>
        <time>2024-01-22T08:19:47.641+00:00</time>
      </trkpt>
      <trkpt lat="48.75387" lon="2.45408">
        <ele>32</ele>
        <time>2024-01-22T08:19:51.669+00:00</time>
      </trkpt>
      <trkpt lat="48.75394" lon="2.45406">
        <ele>32</ele>
        <time>2024-01-22T08:19:56.327+00:00</time>
      </trkpt>
      <trkpt lat="48.75401" lon="2.45404">
        <ele>32</ele>
        <time>2024-01-22T08:20:00.865+00:00</time>
      </trkpt>
      <trkpt lat="48.75408" lon="2.45401">
        <ele>32</ele>
        <time>2024-01-22T08:20:05.467+00:00</time>
      </trkpt>
      <trkpt lat="48.75414" lon="2.45399">
        <ele>32</ele>
        <time>2024-01-22T08:20:09.942+00:00</time>
      </trkpt>
      <trkpt lat="48.7542" lon="2.45396">
        <ele>32</ele>
        <time>2024-01-22T08:20:14.482+00:00</time>
      </trkpt>
      <trkpt lat="48.75426" lon="2.45394">
        <ele>32</ele>
        <time>2024-01-22T08:20:19.003+00:00</time>
      </trkpt>
      <trkpt lat="48.75431" lon="2.45392">
        <ele>32</ele>
        <time>2024-01-22T08:20:23.065+00:00</time>
      </trkpt>
      <trkpt lat="48.75437" lon="2.45391">
        <ele>32</ele>
        <time>2024-01-22T08:20:27.180+00:00</time>
      </trkpt>
      <trkpt lat="48.75443" lon="2.4539">
        <ele>32</ele>
        <time>2024-01-22T08:20:31.429+00:00</time>
      </trkpt>
      <trkpt lat="48.7545" lon="2.45387">
        <ele>32</ele>
        <time>2024-01-22T08:20:35.960+00:00</time>
      </trkpt>
      <trkpt lat="48.75459" lon="2.45385">
        <ele>32</ele>
        <time>2024-01-22T08:20:40.380+00:00</time>
      </trkpt>
      <trkpt lat="48.75465" lon="2.45384">
        <ele>32</ele>
        <time>2024-01-22T08:20:44.803+00:00</time>
      </trkpt>
      <trkpt lat="48.75471" lon="2.45384">
        <ele>32</ele>
        <time>2024-01-22T08:20:49.253+00:00</time>
      </trkpt>
      <trkpt lat="48.75475" lon="2.45383">
        <ele>32</ele>
        <time>2024-01-22T08:20:53.260+00:00</time>
      </trkpt>
      <trkpt lat="48.75482" lon="2.4538">
        <ele>32</ele>
        <time>2024-01-22T08:20:57.821+00:00</time>
      </trkpt>
      <trkpt lat="48.75487" lon="2.45376">
        <ele>32</ele>
        <time>2024-01-22T08:21:02.273+00:00</time>
      </trkpt>
      <trkpt lat="48.75493" lon="2.45374">
        <ele>31</ele>
        <time>2024-01-22T08:21:06.780+00:00</time>
      </trkpt>
      <trkpt lat="48.75499" lon="2.45374">
        <ele>31</ele>
        <time>2024-01-22T08:21:10.843+00:00</time>
      </trkpt>
      <trkpt lat="48.75505" lon="2.45373">
        <ele>31</ele>
        <time>2024-01-22T08:21:15.264+00:00</time>
      </trkpt>
      <trkpt lat="48.75512" lon="2.4537">
        <ele>31</ele>
        <time>2024-01-22T08:21:19.686+00:00</time>
      </trkpt>
      <trkpt lat="48.75519" lon="2.45368">
        <ele>31</ele>
        <time>2024-01-22T08:21:24.226+00:00</time>
      </trkpt>
      <trkpt lat="48.75525" lon="2.45369">
        <ele>31</ele>
        <time>2024-01-22T08:21:28.580+00:00</time>
      </trkpt>
      <trkpt lat="48.75533" lon="2.4537">
        <ele>31</ele>
        <time>2024-01-22T08:21:33.067+00:00</time>
      </trkpt>
      <trkpt lat="48.75541" lon="2.45368">
        <ele>31</ele>
        <time>2024-01-22T08:21:38.085+00:00</time>
      </trkpt>
      <trkpt lat="48.75546" lon="2.45366">
        <ele>31</ele>
        <time>2024-01-22T08:21:42.029+00:00</time>
      </trkpt>
      <trkpt lat="48.75552" lon="2.45364">
        <ele>31</ele>
        <time>2024-01-22T08:21:46.093+00:00</time>
      </trkpt>
      <trkpt lat="48.75557" lon="2.4536">
        <ele>31</ele>
        <time>2024-01-22T08:21:50.037+00:00</time>
      </trkpt>
      <trkpt lat="48.75563" lon="2.45358">
        <ele>31</ele>
        <time>2024-01-22T08:21:54.101+00:00</time>
      </trkpt>
      <trkpt lat="48.7557" lon="2.45356">
        <ele>31</ele>
        <time>2024-01-22T08:21:58.644+00:00</time>
      </trkpt>
      <trkpt lat="48.75577" lon="2.45351">
        <ele>31</ele>
        <time>2024-01-22T08:22:03.069+00:00</time>
      </trkpt>
      <trkpt lat="48.75583" lon="2.45345">
        <ele>31</ele>
        <time>2024-01-22T08:22:08.092+00:00</time>
      </trkpt>
      <trkpt lat="48.75589" lon="2.45341">
        <ele>31</ele>
        <time>2024-01-22T08:22:12.038+00:00</time>
      </trkpt>
      <trkpt lat="48.75596" lon="2.45337">
        <ele>31</ele>
        <time>2024-01-22T08:22:17.087+00:00</time>
      </trkpt>
      <trkpt lat="48.75601" lon="2.45336">
        <ele>31</ele>
        <time>2024-01-22T08:22:21.133+00:00</time>
      </trkpt>
      <trkpt lat="48.75606" lon="2.45333">
        <ele>31</ele>
        <time>2024-01-22T08:22:25.245+00:00</time>
      </trkpt>
      <trkpt lat="48.75612" lon="2.45328">
        <ele>31</ele>
        <time>2024-01-22T08:22:29.750+00:00</time>
      </trkpt>
      <trkpt lat="48.75615" lon="2.45324">
        <ele>31</ele>
        <time>2024-01-22T08:22:33.697+00:00</time>
      </trkpt>
      <trkpt lat="48.75619" lon="2.4532">
        <ele>31</ele>
        <time>2024-01-22T08:22:37.643+00:00</time>
      </trkpt>
      <trkpt lat="48.75625" lon="2.45315">
        <ele>32</ele>
        <time>2024-01-22T08:22:41.709+00:00</time>
      </trkpt>
      <trkpt lat="48.75632" lon="2.4531">
        <ele>32</ele>
        <time>2024-01-22T08:22:46.237+00:00</time>
      </trkpt>
      <trkpt lat="48.75638" lon="2.45306">
        <ele>32</ele>
        <time>2024-01-22T08:22:50.321+00:00</time>
      </trkpt>
      <trkpt lat="48.75646" lon="2.45302">
        <ele>32</ele>
        <time>2024-01-22T08:22:54.745+00:00</time>
      </trkpt>
      <trkpt lat="48.75654" lon="2.45296">
        <ele>32</ele>
        <time>2024-01-22T08:22:59.215+00:00</time>
      </trkpt>
      <trkpt lat="48.7566" lon="2.45292">
        <ele>32</ele>
        <time>2024-01-22T08:23:03.237+00:00</time>
      </trkpt>
      <trkpt lat="48.75667" lon="2.45287">
        <ele>33</ele>
        <time>2024-01-22T08:23:07.423+00:00</time>
      </trkpt>
      <trkpt lat="48.75673" lon="2.45283">
        <ele>33</ele>
        <time>2024-01-22T08:23:11.371+00:00</time>
      </trkpt>
      <trkpt lat="48.75679" lon="2.45279">
        <ele>33</ele>
        <time>2024-01-22T08:23:15.967+00:00</time>
      </trkpt>
      <trkpt lat="48.75685" lon="2.45275">
        <ele>32</ele>
        <time>2024-01-22T08:23:19.982+00:00</time>
      </trkpt>
      <trkpt lat="48.7569" lon="2.45271">
        <ele>32</ele>
        <time>2024-01-22T08:23:23.809+00:00</time>
      </trkpt>
      <trkpt lat="48.75697" lon="2.45266">
        <ele>32</ele>
        <time>2024-01-22T08:23:28.234+00:00</time>
      </trkpt>
      <trkpt lat="48.75703" lon="2.45262">
        <ele>32</ele>
        <time>2024-01-22T08:23:32.780+00:00</time>
      </trkpt>
      <trkpt lat="48.75709" lon="2.45259">
        <ele>32</ele>
        <time>2024-01-22T08:23:37.235+00:00</time>
      </trkpt>
      <trkpt lat="48.75715" lon="2.45254">
        <ele>32</ele>
        <time>2024-01-22T08:23:41.768+00:00</time>
      </trkpt>
      <trkpt lat="48.75721" lon="2.4525">
        <ele>32</ele>
        <time>2024-01-22T08:23:46.303+00:00</time>
      </trkpt>
      <trkpt lat="48.75727" lon="2.45247">
        <ele>32</ele>
        <time>2024-01-22T08:23:50.371+00:00</time>
      </trkpt>
      <trkpt lat="48.75733" lon="2.45243">
        <ele>32</ele>
        <time>2024-01-22T08:23:54.767+00:00</time>
      </trkpt>
      <trkpt lat="48.75739" lon="2.45242">
        <ele>34</ele>
        <time>2024-01-22T08:23:59.245+00:00</time>
      </trkpt>
      <trkpt lat="48.75743" lon="2.45238">
        <ele>34</ele>
        <time>2024-01-22T08:24:03.148+00:00</time>
      </trkpt>
      <trkpt lat="48.7575" lon="2.45234">
        <ele>34</ele>
        <time>2024-01-22T08:24:07.692+00:00</time>
      </trkpt>
      <trkpt lat="48.75755" lon="2.45231">
        <ele>34</ele>
        <time>2024-01-22T08:24:12.227+00:00</time>
      </trkpt>
      <trkpt lat="48.7576" lon="2.45228">
        <ele>34</ele>
        <time>2024-01-22T08:24:16.243+00:00</time>
      </trkpt>
      <trkpt lat="48.75766" lon="2.45223">
        <ele>35</ele>
        <time>2024-01-22T08:24:20.724+00:00</time>
      </trkpt>
      <trkpt lat="48.75773" lon="2.45217">
        <ele>35</ele>
        <time>2024-01-22T08:24:25.239+00:00</time>
      </trkpt>
      <trkpt lat="48.75781" lon="2.45212">
        <ele>35</ele>
        <time>2024-01-22T08:24:29.696+00:00</time>
      </trkpt>
      <trkpt lat="48.75786" lon="2.45207">
        <ele>35</ele>
        <time>2024-01-22T08:24:34.241+00:00</time>
      </trkpt>
      <trkpt lat="48.75792" lon="2.45203">
        <ele>35</ele>
        <time>2024-01-22T08:24:38.666+00:00</time>
      </trkpt>
      <trkpt lat="48.75799" lon="2.45199">
        <ele>35</ele>
        <time>2024-01-22T08:24:43.450+00:00</time>
      </trkpt>
      <trkpt lat="48.75806" lon="2.45194">
        <ele>35</ele>
        <time>2024-01-22T08:24:47.628+00:00</time>
      </trkpt>
      <trkpt lat="48.75813" lon="2.4519">
        <ele>35</ele>
        <time>2024-01-22T08:24:51.463+00:00</time>
      </trkpt>
      <trkpt lat="48.75819" lon="2.45187">
        <ele>35</ele>
        <time>2024-01-22T08:24:56.003+00:00</time>
      </trkpt>
      <trkpt lat="48.75826" lon="2.45182">
        <ele>36</ele>
        <time>2024-01-22T08:24:59.957+00:00</time>
      </trkpt>
      <trkpt lat="48.75832" lon="2.45177">
        <ele>35</ele>
        <time>2024-01-22T08:25:04.384+00:00</time>
      </trkpt>
      <trkpt lat="48.75839" lon="2.45172">
        <ele>35</ele>
        <time>2024-01-22T08:25:08.452+00:00</time>
      </trkpt>
      <trkpt lat="48.75845" lon="2.45168">
        <ele>35</ele>
        <time>2024-01-22T08:25:13.118+00:00</time>
      </trkpt>
      <trkpt lat="48.75852" lon="2.45164">
        <ele>38</ele>
        <time>2024-01-22T08:25:17.048+00:00</time>
      </trkpt>
      <trkpt lat="48.75859" lon="2.4516">
        <ele>38</ele>
        <time>2024-01-22T08:25:21.714+00:00</time>
      </trkpt>
      <trkpt lat="48.75865" lon="2.45155">
        <ele>38</ele>
        <time>2024-01-22T08:25:26.242+00:00</time>
      </trkpt>
      <trkpt lat="48.75872" lon="2.45152">
        <ele>36</ele>
        <time>2024-01-22T08:25:30.326+00:00</time>
      </trkpt>
      <trkpt lat="48.75877" lon="2.45147">
        <ele>39</ele>
        <time>2024-01-22T08:25:34.751+00:00</time>
      </trkpt>
      <trkpt lat="48.75884" lon="2.45143">
        <ele>39</ele>
        <time>2024-01-22T08:25:39.410+00:00</time>
      </trkpt>
      <trkpt lat="48.75891" lon="2.4514">
        <ele>39</ele>
        <time>2024-01-22T08:25:43.483+00:00</time>
      </trkpt>
      <trkpt lat="48.75897" lon="2.45136">
        <ele>39</ele>
        <time>2024-01-22T08:25:48.028+00:00</time>
      </trkpt>
      <trkpt lat="48.75902" lon="2.45134">
        <ele>39</ele>
        <time>2024-01-22T08:25:52.096+00:00</time>
      </trkpt>
      <trkpt lat="48.75907" lon="2.4513">
        <ele>40</ele>
        <time>2024-01-22T08:25:56.051+00:00</time>
      </trkpt>
      <trkpt lat="48.75913" lon="2.45123">
        <ele>38</ele>
        <time>2024-01-22T08:26:00.123+00:00</time>
      </trkpt>
      <trkpt lat="48.7592" lon="2.45118">
        <ele>38</ele>
        <time>2024-01-22T08:26:04.248+00:00</time>
      </trkpt>
      <trkpt lat="48.75926" lon="2.45114">
        <ele>38</ele>
        <time>2024-01-22T08:26:08.261+00:00</time>
      </trkpt>
      <trkpt lat="48.75934" lon="2.45108">
        <ele>38</ele>
        <time>2024-01-22T08:26:13.238+00:00</time>
      </trkpt>
      <trkpt lat="48.75942" lon="2.45104">
        <ele>38</ele>
        <time>2024-01-22T08:26:18.240+00:00</time>
      </trkpt>
      <trkpt lat="48.75949" lon="2.45099">
        <ele>38</ele>
        <time>2024-01-22T08:26:22.750+00:00</time>
      </trkpt>
      <trkpt lat="48.75954" lon="2.45094">
        <ele>36</ele>
        <time>2024-01-22T08:26:27.363+00:00</time>
      </trkpt>
      <trkpt lat="48.7596" lon="2.4509">
        <ele>37</ele>
        <time>2024-01-22T08:26:32.033+00:00</time>
      </trkpt>
      <trkpt lat="48.75966" lon="2.45084">
        <ele>37</ele>
        <time>2024-01-22T08:26:36.101+00:00</time>
      </trkpt>
      <trkpt lat="48.7597" lon="2.45079">
        <ele>37</ele>
        <time>2024-01-22T08:26:40.050+00:00</time>
      </trkpt>
      <trkpt lat="48.75976" lon="2.45073">
        <ele>37</ele>
        <time>2024-01-22T08:26:44.526+00:00</time>
      </trkpt>
      <trkpt lat="48.75982" lon="2.45067">
        <ele>35</ele>
        <time>2024-01-22T08:26:49.022+00:00</time>
      </trkpt>
      <trkpt lat="48.75987" lon="2.45061">
        <ele>37</ele>
        <time>2024-01-22T08:26:52.970+00:00</time>
      </trkpt>
      <trkpt lat="48.75992" lon="2.45056">
        <ele>37</ele>
        <time>2024-01-22T08:26:58.145+00:00</time>
      </trkpt>
      <trkpt lat="48.75997" lon="2.45052">
        <ele>37</ele>
        <time>2024-01-22T08:27:02.058+00:00</time>
      </trkpt>
      <trkpt lat="48.76002" lon="2.45046">
        <ele>37</ele>
        <time>2024-01-22T08:27:07.061+00:00</time>
      </trkpt>
      <trkpt lat="48.76007" lon="2.4504">
        <ele>36</ele>
        <time>2024-01-22T08:27:11.480+00:00</time>
      </trkpt>
      <trkpt lat="48.76011" lon="2.45034">
        <ele>36</ele>
        <time>2024-01-22T08:27:16.004+00:00</time>
      </trkpt>
      <trkpt lat="48.76017" lon="2.45028">
        <ele>37</ele>
        <time>2024-01-22T08:27:20.409+00:00</time>
      </trkpt>
      <trkpt lat="48.76023" lon="2.45021">
        <ele>37</ele>
        <time>2024-01-22T08:27:24.951+00:00</time>
      </trkpt>
      <trkpt lat="48.7603" lon="2.45014">
        <ele>37</ele>
        <time>2024-01-22T08:27:29.494+00:00</time>
      </trkpt>
      <trkpt lat="48.76036" lon="2.45007">
        <ele>36</ele>
        <time>2024-01-22T08:27:34.036+00:00</time>
      </trkpt>
      <trkpt lat="48.76041" lon="2.45001">
        <ele>36</ele>
        <time>2024-01-22T08:27:38.101+00:00</time>
      </trkpt>
      <trkpt lat="48.76047" lon="2.44995">
        <ele>40</ele>
        <time>2024-01-22T08:27:43.144+00:00</time>
      </trkpt>
      <trkpt lat="48.76053" lon="2.44989">
        <ele>40</ele>
        <time>2024-01-22T08:27:47.665+00:00</time>
      </trkpt>
      <trkpt lat="48.76058" lon="2.44984">
        <ele>40</ele>
        <time>2024-01-22T08:27:52.440+00:00</time>
      </trkpt>
      <trkpt lat="48.76064" lon="2.44979">
        <ele>40</ele>
        <time>2024-01-22T08:27:56.511+00:00</time>
      </trkpt>
      <trkpt lat="48.76069" lon="2.44974">
        <ele>40</ele>
        <time>2024-01-22T08:28:01.055+00:00</time>
      </trkpt>
      <trkpt lat="48.76075" lon="2.4497">
        <ele>41</ele>
        <time>2024-01-22T08:28:05.721+00:00</time>
      </trkpt>
      <trkpt lat="48.76082" lon="2.44965">
        <ele>41</ele>
        <time>2024-01-22T08:28:10.141+00:00</time>
      </trkpt>
      <trkpt lat="48.76086" lon="2.44958">
        <ele>41</ele>
        <time>2024-01-22T08:28:14.086+00:00</time>
      </trkpt>
      <trkpt lat="48.76091" lon="2.44953">
        <ele>40</ele>
        <time>2024-01-22T08:28:18.031+00:00</time>
      </trkpt>
      <trkpt lat="48.76097" lon="2.44947">
        <ele>39</ele>
        <time>2024-01-22T08:28:22.689+00:00</time>
      </trkpt>
      <trkpt lat="48.76103" lon="2.44943">
        <ele>39</ele>
        <time>2024-01-22T08:28:27.184+00:00</time>
      </trkpt>
      <trkpt lat="48.7611" lon="2.44939">
        <ele>39</ele>
        <time>2024-01-22T08:28:31.665+00:00</time>
      </trkpt>
      <trkpt lat="48.76115" lon="2.44936">
        <ele>39</ele>
        <time>2024-01-22T08:28:36.210+00:00</time>
      </trkpt>
      <trkpt lat="48.7612" lon="2.44935">
        <ele>39</ele>
        <time>2024-01-22T08:28:40.239+00:00</time>
      </trkpt>
      <trkpt lat="48.76125" lon="2.44937">
        <ele>37</ele>
        <time>2024-01-22T08:28:44.702+00:00</time>
      </trkpt>
      <trkpt lat="48.7613" lon="2.44939">
        <ele>37</ele>
        <time>2024-01-22T08:28:49.246+00:00</time>
      </trkpt>
      <trkpt lat="48.76136" lon="2.4494">
        <ele>37</ele>
        <time>2024-01-22T08:28:53.789+00:00</time>
      </trkpt>
      <trkpt lat="48.76142" lon="2.44941">
        <ele>37</ele>
        <time>2024-01-22T08:28:58.433+00:00</time>
      </trkpt>
      <trkpt lat="48.76148" lon="2.44939">
        <ele>37</ele>
        <time>2024-01-22T08:29:02.976+00:00</time>
      </trkpt>
      <trkpt lat="48.76153" lon="2.44935">
        <ele>35</ele>
        <time>2024-01-22T08:29:07.041+00:00</time>
      </trkpt>
      <trkpt lat="48.76162" lon="2.44935">
        <ele>35</ele>
        <time>2024-01-22T08:29:11.825+00:00</time>
      </trkpt>
      <trkpt lat="48.76167" lon="2.44934">
        <ele>35</ele>
        <time>2024-01-22T08:29:15.854+00:00</time>
      </trkpt>
      <trkpt lat="48.76175" lon="2.44928">
        <ele>34</ele>
        <time>2024-01-22T08:29:20.391+00:00</time>
      </trkpt>
      <trkpt lat="48.76181" lon="2.44923">
        <ele>32</ele>
        <time>2024-01-22T08:29:24.336+00:00</time>
      </trkpt>
      <trkpt lat="48.76188" lon="2.44917">
        <ele>32</ele>
        <time>2024-01-22T08:29:28.762+00:00</time>
      </trkpt>
      <trkpt lat="48.76192" lon="2.44912">
        <ele>32</ele>
        <time>2024-01-22T08:29:32.827+00:00</time>
      </trkpt>
      <trkpt lat="48.76198" lon="2.44906">
        <ele>32</ele>
        <time>2024-01-22T08:29:37.304+00:00</time>
      </trkpt>
      <trkpt lat="48.76204" lon="2.44898">
        <ele>32</ele>
        <time>2024-01-22T08:29:41.764+00:00</time>
      </trkpt>
      <trkpt lat="48.7621" lon="2.44893">
        <ele>33</ele>
        <time>2024-01-22T08:29:45.858+00:00</time>
      </trkpt>
      <trkpt lat="48.76217" lon="2.44889">
        <ele>33</ele>
        <time>2024-01-22T08:29:50.401+00:00</time>
      </trkpt>
      <trkpt lat="48.76222" lon="2.44886">
        <ele>33</ele>
        <time>2024-01-22T08:29:54.925+00:00</time>
      </trkpt>
      <trkpt lat="48.76227" lon="2.44884">
        <ele>33</ele>
        <time>2024-01-22T08:29:59.468+00:00</time>
      </trkpt>
      <trkpt lat="48.76233" lon="2.44884">
        <ele>33</ele>
        <time>2024-01-22T08:30:04.014+00:00</time>
      </trkpt>
      <trkpt lat="48.7624" lon="2.44884">
        <ele>36</ele>
        <time>2024-01-22T08:30:08.526+00:00</time>
      </trkpt>
      <trkpt lat="48.76246" lon="2.44885">
        <ele>36</ele>
        <time>2024-01-22T08:30:13.102+00:00</time>
      </trkpt>
      <trkpt lat="48.76253" lon="2.44885">
        <ele>36</ele>
        <time>2024-01-22T08:30:17.526+00:00</time>
      </trkpt>
      <trkpt lat="48.7626" lon="2.44885">
        <ele>36</ele>
        <time>2024-01-22T08:30:22.070+00:00</time>
      </trkpt>
      <trkpt lat="48.76266" lon="2.44883">
        <ele>36</ele>
        <time>2024-01-22T08:30:26.038+00:00</time>
      </trkpt>
      <trkpt lat="48.76273" lon="2.4488">
        <ele>36</ele>
        <time>2024-01-22T08:30:30.526+00:00</time>
      </trkpt>
      <trkpt lat="48.76281" lon="2.44876">
        <ele>36</ele>
        <time>2024-01-22T08:30:35.127+00:00</time>
      </trkpt>
      <trkpt lat="48.76287" lon="2.44872">
        <ele>36</ele>
        <time>2024-01-22T08:30:39.071+00:00</time>
      </trkpt>
      <trkpt lat="48.76293" lon="2.44867">
        <ele>36</ele>
        <time>2024-01-22T08:30:43.526+00:00</time>
      </trkpt>
      <trkpt lat="48.76299" lon="2.44863">
        <ele>36</ele>
        <time>2024-01-22T08:30:47.783+00:00</time>
      </trkpt>
      <trkpt lat="48.76305" lon="2.44859">
        <ele>36</ele>
        <time>2024-01-22T08:30:52.264+00:00</time>
      </trkpt>
      <trkpt lat="48.7631" lon="2.44853">
        <ele>36</ele>
        <time>2024-01-22T08:30:56.624+00:00</time>
      </trkpt>
      <trkpt lat="48.76316" lon="2.4485">
        <ele>36</ele>
        <time>2024-01-22T08:31:00.687+00:00</time>
      </trkpt>
      <trkpt lat="48.76321" lon="2.44847">
        <ele>34</ele>
        <time>2024-01-22T08:31:04.633+00:00</time>
      </trkpt>
      <trkpt lat="48.76326" lon="2.44843">
        <ele>34</ele>
        <time>2024-01-22T08:31:08.526+00:00</time>
      </trkpt>
      <trkpt lat="48.76333" lon="2.44841">
        <ele>34</ele>
        <time>2024-01-22T08:31:13.002+00:00</time>
      </trkpt>
      <trkpt lat="48.7634" lon="2.4484">
        <ele>34</ele>
        <time>2024-01-22T08:31:17.526+00:00</time>
      </trkpt>
      <trkpt lat="48.76345" lon="2.44841">
        <ele>34</ele>
        <time>2024-01-22T08:31:21.371+00:00</time>
      </trkpt>
      <trkpt lat="48.76352" lon="2.4484">
        <ele>33</ele>
        <time>2024-01-22T08:31:26.015+00:00</time>
      </trkpt>
      <trkpt lat="48.76359" lon="2.44838">
        <ele>33</ele>
        <time>2024-01-22T08:31:30.438+00:00</time>
      </trkpt>
      <trkpt lat="48.76366" lon="2.44835">
        <ele>33</ele>
        <time>2024-01-22T08:31:35.101+00:00</time>
      </trkpt>
      <trkpt lat="48.76371" lon="2.44831">
        <ele>33</ele>
        <time>2024-01-22T08:31:39.645+00:00</time>
      </trkpt>
      <trkpt lat="48.76378" lon="2.44828">
        <ele>34</ele>
        <time>2024-01-22T08:31:44.399+00:00</time>
      </trkpt>
      <trkpt lat="48.76385" lon="2.44826">
        <ele>34</ele>
        <time>2024-01-22T08:31:48.851+00:00</time>
      </trkpt>
      <trkpt lat="48.76392" lon="2.44825">
        <ele>34</ele>
        <time>2024-01-22T08:31:53.394+00:00</time>
      </trkpt>
      <trkpt lat="48.76398" lon="2.44824">
        <ele>34</ele>
        <time>2024-01-22T08:31:57.940+00:00</time>
      </trkpt>
      <trkpt lat="48.76406" lon="2.4482">
        <ele>35</ele>
        <time>2024-01-22T08:32:02.487+00:00</time>
      </trkpt>
      <trkpt lat="48.76412" lon="2.4482">
        <ele>35</ele>
        <time>2024-01-22T08:32:07.031+00:00</time>
      </trkpt>
      <trkpt lat="48.76418" lon="2.44822">
        <ele>35</ele>
        <time>2024-01-22T08:32:11.098+00:00</time>
      </trkpt>
      <trkpt lat="48.76424" lon="2.44822">
        <ele>35</ele>
        <time>2024-01-22T08:32:15.641+00:00</time>
      </trkpt>
      <trkpt lat="48.7643" lon="2.44821">
        <ele>35</ele>
        <time>2024-01-22T08:32:20.064+00:00</time>
      </trkpt>
      <trkpt lat="48.76434" lon="2.44819">
        <ele>36</ele>
        <time>2024-01-22T08:32:24.008+00:00</time>
      </trkpt>
      <trkpt lat="48.76441" lon="2.44816">
        <ele>36</ele>
        <time>2024-01-22T08:32:28.649+00:00</time>
      </trkpt>
      <trkpt lat="48.76449" lon="2.44813">
        <ele>36</ele>
        <time>2024-01-22T08:32:32.713+00:00</time>
      </trkpt>
      <trkpt lat="48.76455" lon="2.44809">
        <ele>36</ele>
        <time>2024-01-22T08:32:36.526+00:00</time>
      </trkpt>
      <trkpt lat="48.76462" lon="2.44807">
        <ele>35</ele>
        <time>2024-01-22T08:32:41.077+00:00</time>
      </trkpt>
      <trkpt lat="48.76467" lon="2.44804">
        <ele>35</ele>
        <time>2024-01-22T08:32:45.526+00:00</time>
      </trkpt>
      <trkpt lat="48.76474" lon="2.44801">
        <ele>35</ele>
        <time>2024-01-22T08:32:50.039+00:00</time>
      </trkpt>
      <trkpt lat="48.7648" lon="2.448">
        <ele>35</ele>
        <time>2024-01-22T08:32:54.623+00:00</time>
      </trkpt>
      <trkpt lat="48.76487" lon="2.44801">
        <ele>35</ele>
        <time>2024-01-22T08:32:59.121+00:00</time>
      </trkpt>
      <trkpt lat="48.76493" lon="2.44799">
        <ele>35</ele>
        <time>2024-01-22T08:33:03.065+00:00</time>
      </trkpt>
      <trkpt lat="48.76499" lon="2.44797">
        <ele>35</ele>
        <time>2024-01-22T08:33:07.009+00:00</time>
      </trkpt>
      <trkpt lat="48.76506" lon="2.44794">
        <ele>35</ele>
        <time>2024-01-22T08:33:11.526+00:00</time>
      </trkpt>
      <trkpt lat="48.76512" lon="2.44791">
        <ele>34</ele>
        <time>2024-01-22T08:33:16.092+00:00</time>
      </trkpt>
      <trkpt lat="48.76519" lon="2.4479">
        <ele>34</ele>
        <time>2024-01-22T08:33:21.163+00:00</time>
      </trkpt>
      <trkpt lat="48.76527" lon="2.44789">
        <ele>34</ele>
        <time>2024-01-22T08:33:25.652+00:00</time>
      </trkpt>
      <trkpt lat="48.76533" lon="2.44788">
        <ele>34</ele>
        <time>2024-01-22T08:33:30.386+00:00</time>
      </trkpt>
      <trkpt lat="48.7654" lon="2.44786">
        <ele>34</ele>
        <time>2024-01-22T08:33:34.837+00:00</time>
      </trkpt>
      <trkpt lat="48.76547" lon="2.44784">
        <ele>34</ele>
        <time>2024-01-22T08:33:39.499+00:00</time>
      </trkpt>
      <trkpt lat="48.76552" lon="2.44782">
        <ele>34</ele>
        <time>2024-01-22T08:33:44.041+00:00</time>
      </trkpt>
      <trkpt lat="48.76558" lon="2.4478">
        <ele>34</ele>
        <time>2024-01-22T08:33:49.048+00:00</time>
      </trkpt>
      <trkpt lat="48.76563" lon="2.44778">
        <ele>34</ele>
        <time>2024-01-22T08:33:53.127+00:00</time>
      </trkpt>
      <trkpt lat="48.76569" lon="2.44777">
        <ele>34</ele>
        <time>2024-01-22T08:33:57.072+00:00</time>
      </trkpt>
      <trkpt lat="48.76576" lon="2.44776">
        <ele>35</ele>
        <time>2024-01-22T08:34:01.732+00:00</time>
      </trkpt>
      <trkpt lat="48.76583" lon="2.44775">
        <ele>35</ele>
        <time>2024-01-22T08:34:06.206+00:00</time>
      </trkpt>
      <trkpt lat="48.7659" lon="2.44772">
        <ele>35</ele>
        <time>2024-01-22T08:34:10.697+00:00</time>
      </trkpt>
      <trkpt lat="48.76596" lon="2.4477">
        <ele>35</ele>
        <time>2024-01-22T08:34:15.239+00:00</time>
      </trkpt>
      <trkpt lat="48.76603" lon="2.44768">
        <ele>35</ele>
        <time>2024-01-22T08:34:19.426+00:00</time>
      </trkpt>
      <trkpt lat="48.7661" lon="2.44767">
        <ele>35</ele>
        <time>2024-01-22T08:34:23.970+00:00</time>
      </trkpt>
      <trkpt lat="48.76617" lon="2.44765">
        <ele>35</ele>
        <time>2024-01-22T08:34:28.425+00:00</time>
      </trkpt>
      <trkpt lat="48.76622" lon="2.44763">
        <ele>34</ele>
        <time>2024-01-22T08:34:32.456+00:00</time>
      </trkpt>
      <trkpt lat="48.76629" lon="2.44761">
        <ele>36</ele>
        <time>2024-01-22T08:34:36.998+00:00</time>
      </trkpt>
      <trkpt lat="48.76637" lon="2.4476">
        <ele>36</ele>
        <time>2024-01-22T08:34:41.526+00:00</time>
      </trkpt>
      <trkpt lat="48.76643" lon="2.4476">
        <ele>36</ele>
        <time>2024-01-22T08:34:46.081+00:00</time>
      </trkpt>
      <trkpt lat="48.76649" lon="2.44759">
        <ele>36</ele>
        <time>2024-01-22T08:34:50.526+00:00</time>
      </trkpt>
      <trkpt lat="48.76656" lon="2.44757">
        <ele>38</ele>
        <time>2024-01-22T08:34:55.045+00:00</time>
      </trkpt>
      <trkpt lat="48.76662" lon="2.44756">
        <ele>38</ele>
        <time>2024-01-22T08:34:59.688+00:00</time>
      </trkpt>
      <trkpt lat="48.76668" lon="2.44755">
        <ele>38</ele>
        <time>2024-01-22T08:35:03.633+00:00</time>
      </trkpt>
      <trkpt lat="48.76674" lon="2.44755">
        <ele>38</ele>
        <time>2024-01-22T08:35:07.697+00:00</time>
      </trkpt>
      <trkpt lat="48.76679" lon="2.44753">
        <ele>38</ele>
        <time>2024-01-22T08:35:12.102+00:00</time>
      </trkpt>
      <trkpt lat="48.76685" lon="2.44753">
        <ele>39</ele>
        <time>2024-01-22T08:35:16.047+00:00</time>
      </trkpt>
      <trkpt lat="48.76691" lon="2.44752">
        <ele>39</ele>
        <time>2024-01-22T08:35:20.501+00:00</time>
      </trkpt>
      <trkpt lat="48.76696" lon="2.44752">
        <ele>39</ele>
        <time>2024-01-22T08:35:24.415+00:00</time>
      </trkpt>
      <trkpt lat="48.76702" lon="2.44751">
        <ele>39</ele>
        <time>2024-01-22T08:35:28.839+00:00</time>
      </trkpt>
      <trkpt lat="48.76707" lon="2.44748">
        <ele>39</ele>
        <time>2024-01-22T08:35:33.380+00:00</time>
      </trkpt>
      <trkpt lat="48.76715" lon="2.44743">
        <ele>37</ele>
        <time>2024-01-22T08:35:37.802+00:00</time>
      </trkpt>
      <trkpt lat="48.76721" lon="2.4474">
        <ele>37</ele>
        <time>2024-01-22T08:35:42.263+00:00</time>
      </trkpt>
      <trkpt lat="48.76729" lon="2.44737">
        <ele>37</ele>
        <time>2024-01-22T08:35:46.767+00:00</time>
      </trkpt>
      <trkpt lat="48.76735" lon="2.44735">
        <ele>36</ele>
        <time>2024-01-22T08:35:50.830+00:00</time>
      </trkpt>
      <trkpt lat="48.76742" lon="2.44732">
        <ele>37</ele>
        <time>2024-01-22T08:35:55.372+00:00</time>
      </trkpt>
      <trkpt lat="48.76755" lon="2.44727">
        <ele>37</ele>
        <time>2024-01-22T08:36:03.739+00:00</time>
      </trkpt>
      <trkpt lat="48.7676" lon="2.44724">
        <ele>37</ele>
        <time>2024-01-22T08:36:08.525+00:00</time>
      </trkpt>
      <trkpt lat="48.76766" lon="2.44724">
        <ele>39</ele>
        <time>2024-01-22T08:36:12.526+00:00</time>
      </trkpt>
      <trkpt lat="48.76772" lon="2.44725">
        <ele>39</ele>
        <time>2024-01-22T08:36:16.412+00:00</time>
      </trkpt>
      <trkpt lat="48.76779" lon="2.44727">
        <ele>39</ele>
        <time>2024-01-22T08:36:20.835+00:00</time>
      </trkpt>
      <trkpt lat="48.76785" lon="2.44727">
        <ele>39</ele>
        <time>2024-01-22T08:36:25.377+00:00</time>
      </trkpt>
      <trkpt lat="48.7679" lon="2.44727">
        <ele>39</ele>
        <time>2024-01-22T08:36:29.321+00:00</time>
      </trkpt>
      <trkpt lat="48.76796" lon="2.44726">
        <ele>41</ele>
        <time>2024-01-22T08:36:33.746+00:00</time>
      </trkpt>
      <trkpt lat="48.76802" lon="2.44725">
        <ele>41</ele>
        <time>2024-01-22T08:36:37.811+00:00</time>
      </trkpt>
      <trkpt lat="48.76808" lon="2.44724">
        <ele>41</ele>
        <time>2024-01-22T08:36:42.267+00:00</time>
      </trkpt>
      <trkpt lat="48.76816" lon="2.44722">
        <ele>41</ele>
        <time>2024-01-22T08:36:47.227+00:00</time>
      </trkpt>
      <trkpt lat="48.76822" lon="2.44721">
        <ele>42</ele>
        <time>2024-01-22T08:36:50.963+00:00</time>
      </trkpt>
      <trkpt lat="48.76829" lon="2.44718">
        <ele>42</ele>
        <time>2024-01-22T08:36:55.507+00:00</time>
      </trkpt>
      <trkpt lat="48.76836" lon="2.44714">
        <ele>42</ele>
        <time>2024-01-22T08:36:59.883+00:00</time>
      </trkpt>
      <trkpt lat="48.76841" lon="2.4471">
        <ele>42</ele>
        <time>2024-01-22T08:37:03.641+00:00</time>
      </trkpt>
      <trkpt lat="48.76848" lon="2.44708">
        <ele>42</ele>
        <time>2024-01-22T08:37:08.308+00:00</time>
      </trkpt>
      <trkpt lat="48.76854" lon="2.44707">
        <ele>41</ele>
        <time>2024-01-22T08:37:12.764+00:00</time>
      </trkpt>
      <trkpt lat="48.7686" lon="2.44707">
        <ele>41</ele>
        <time>2024-01-22T08:37:16.661+00:00</time>
      </trkpt>
      <trkpt lat="48.76866" lon="2.44707">
        <ele>41</ele>
        <time>2024-01-22T08:37:20.965+00:00</time>
      </trkpt>
      <trkpt lat="48.76871" lon="2.44708">
        <ele>41</ele>
        <time>2024-01-22T08:37:24.792+00:00</time>
      </trkpt>
      <trkpt lat="48.76877" lon="2.44709">
        <ele>40</ele>
        <time>2024-01-22T08:37:29.254+00:00</time>
      </trkpt>
      <trkpt lat="48.76883" lon="2.44707">
        <ele>40</ele>
        <time>2024-01-22T08:37:33.743+00:00</time>
      </trkpt>
      <trkpt lat="48.76889" lon="2.44707">
        <ele>40</ele>
        <time>2024-01-22T08:37:37.809+00:00</time>
      </trkpt>
      <trkpt lat="48.76894" lon="2.44703">
        <ele>40</ele>
        <time>2024-01-22T08:37:41.756+00:00</time>
      </trkpt>
      <trkpt lat="48.769" lon="2.44703">
        <ele>40</ele>
        <time>2024-01-22T08:37:46.420+00:00</time>
      </trkpt>
      <trkpt lat="48.76906" lon="2.44703">
        <ele>37</ele>
        <time>2024-01-22T08:37:50.770+00:00</time>
      </trkpt>
      <trkpt lat="48.76911" lon="2.44701">
        <ele>37</ele>
        <time>2024-01-22T08:37:54.793+00:00</time>
      </trkpt>
      <trkpt lat="48.76916" lon="2.44699">
        <ele>37</ele>
        <time>2024-01-22T08:37:58.858+00:00</time>
      </trkpt>
      <trkpt lat="48.76923" lon="2.44699">
        <ele>37</ele>
        <time>2024-01-22T08:38:03.162+00:00</time>
      </trkpt>
      <trkpt lat="48.76929" lon="2.44699">
        <ele>37</ele>
        <time>2024-01-22T08:38:07.227+00:00</time>
      </trkpt>
      <trkpt lat="48.76935" lon="2.44697">
        <ele>36</ele>
        <time>2024-01-22T08:38:11.651+00:00</time>
      </trkpt>
      <trkpt lat="48.76941" lon="2.44694">
        <ele>36</ele>
        <time>2024-01-22T08:38:16.312+00:00</time>
      </trkpt>
      <trkpt lat="48.76947" lon="2.44694">
        <ele>36</ele>
        <time>2024-01-22T08:38:20.857+00:00</time>
      </trkpt>
      <trkpt lat="48.76953" lon="2.44694">
        <ele>36</ele>
        <time>2024-01-22T08:38:25.045+00:00</time>
      </trkpt>
      <trkpt lat="48.7696" lon="2.44692">
        <ele>37</ele>
        <time>2024-01-22T08:38:30.071+00:00</time>
      </trkpt>
      <trkpt lat="48.76964" lon="2.44689">
        <ele>37</ele>
        <time>2024-01-22T08:38:32.926+00:00</time>
      </trkpt>
      <trkpt lat="48.76976" lon="2.44685">
        <ele>37</ele>
        <time>2024-01-22T08:38:42.148+00:00</time>
      </trkpt>
      <trkpt lat="48.76982" lon="2.4468">
        <ele>37</ele>
        <time>2024-01-22T08:38:46.913+00:00</time>
      </trkpt>
      <trkpt lat="48.76988" lon="2.44679">
        <ele>38</ele>
        <time>2024-01-22T08:38:50.985+00:00</time>
      </trkpt>
      <trkpt lat="48.76993" lon="2.44676">
        <ele>38</ele>
        <time>2024-01-22T08:38:54.940+00:00</time>
      </trkpt>
      <trkpt lat="48.76999" lon="2.44676">
        <ele>38</ele>
        <time>2024-01-22T08:38:59.134+00:00</time>
      </trkpt>
      <trkpt lat="48.77004" lon="2.44677">
        <ele>38</ele>
        <time>2024-01-22T08:39:03.067+00:00</time>
      </trkpt>
      <trkpt lat="48.7701" lon="2.44674">
        <ele>38</ele>
        <time>2024-01-22T08:39:07.138+00:00</time>
      </trkpt>
      <trkpt lat="48.77017" lon="2.44673">
        <ele>39</ele>
        <time>2024-01-22T08:39:11.927+00:00</time>
      </trkpt>
      <trkpt lat="48.77023" lon="2.44671">
        <ele>39</ele>
        <time>2024-01-22T08:39:16.597+00:00</time>
      </trkpt>
      <trkpt lat="48.77029" lon="2.4467">
        <ele>39</ele>
        <time>2024-01-22T08:39:20.669+00:00</time>
      </trkpt>
      <trkpt lat="48.77034" lon="2.44673">
        <ele>39</ele>
        <time>2024-01-22T08:39:24.739+00:00</time>
      </trkpt>
      <trkpt lat="48.7704" lon="2.44679">
        <ele>39</ele>
        <time>2024-01-22T08:39:30.008+00:00</time>
      </trkpt>
      <trkpt lat="48.77044" lon="2.44685">
        <ele>38</ele>
        <time>2024-01-22T08:39:34.403+00:00</time>
      </trkpt>
      <trkpt lat="48.77048" lon="2.44692">
        <ele>38</ele>
        <time>2024-01-22T08:39:38.948+00:00</time>
      </trkpt>
      <trkpt lat="48.77051" lon="2.44699">
        <ele>38</ele>
        <time>2024-01-22T08:39:42.773+00:00</time>
      </trkpt>
      <trkpt lat="48.77054" lon="2.44707">
        <ele>38</ele>
        <time>2024-01-22T08:39:47.326+00:00</time>
      </trkpt>
      <trkpt lat="48.77057" lon="2.44713">
        <ele>38</ele>
        <time>2024-01-22T08:39:51.518+00:00</time>
      </trkpt>
      <trkpt lat="48.77062" lon="2.44718">
        <ele>38</ele>
        <time>2024-01-22T08:39:56.231+00:00</time>
      </trkpt>
      <trkpt lat="48.77064" lon="2.44726">
        <ele>38</ele>
        <time>2024-01-22T08:40:00.743+00:00</time>
      </trkpt>
      <trkpt lat="48.77066" lon="2.44734">
        <ele>38</ele>
        <time>2024-01-22T08:40:04.693+00:00</time>
      </trkpt>
      <trkpt lat="48.77069" lon="2.44743">
        <ele>37</ele>
        <time>2024-01-22T08:40:08.524+00:00</time>
      </trkpt>
      <trkpt lat="48.77073" lon="2.44752">
        <ele>37</ele>
        <time>2024-01-22T08:40:12.714+00:00</time>
      </trkpt>
      <trkpt lat="48.77077" lon="2.4476">
        <ele>37</ele>
        <time>2024-01-22T08:40:17.162+00:00</time>
      </trkpt>
      <trkpt lat="48.77081" lon="2.44767">
        <ele>36</ele>
        <time>2024-01-22T08:40:21.206+00:00</time>
      </trkpt>
      <trkpt lat="48.77085" lon="2.44775">
        <ele>36</ele>
        <time>2024-01-22T08:40:25.751+00:00</time>
      </trkpt>
      <trkpt lat="48.77088" lon="2.44783">
        <ele>36</ele>
        <time>2024-01-22T08:40:30.244+00:00</time>
      </trkpt>
      <trkpt lat="48.77091" lon="2.44791">
        <ele>36</ele>
        <time>2024-01-22T08:40:34.835+00:00</time>
      </trkpt>
      <trkpt lat="48.77095" lon="2.44798">
        <ele>36</ele>
        <time>2024-01-22T08:40:39.018+00:00</time>
      </trkpt>
      <trkpt lat="48.77098" lon="2.44805">
        <ele>36</ele>
        <time>2024-01-22T08:40:43.080+00:00</time>
      </trkpt>
      <trkpt lat="48.77101" lon="2.44813">
        <ele>36</ele>
        <time>2024-01-22T08:40:47.142+00:00</time>
      </trkpt>
      <trkpt lat="48.77105" lon="2.44821">
        <ele>37</ele>
        <time>2024-01-22T08:40:51.682+00:00</time>
      </trkpt>
      <trkpt lat="48.77109" lon="2.44827">
        <ele>37</ele>
        <time>2024-01-22T08:40:55.526+00:00</time>
      </trkpt>
      <trkpt lat="48.77114" lon="2.4483">
        <ele>37</ele>
        <time>2024-01-22T08:41:00.026+00:00</time>
      </trkpt>
      <trkpt lat="48.7712" lon="2.44826">
        <ele>37</ele>
        <time>2024-01-22T08:41:03.990+00:00</time>
      </trkpt>
      <trkpt lat="48.77127" lon="2.44821">
        <ele>37</ele>
        <time>2024-01-22T08:41:07.817+00:00</time>
      </trkpt>
      <trkpt lat="48.77133" lon="2.44818">
        <ele>37</ele>
        <time>2024-01-22T08:41:12.266+00:00</time>
      </trkpt>
      <trkpt lat="48.77139" lon="2.44815">
        <ele>37</ele>
        <time>2024-01-22T08:41:16.425+00:00</time>
      </trkpt>
      <trkpt lat="48.77144" lon="2.44813">
        <ele>37</ele>
        <time>2024-01-22T08:41:20.369+00:00</time>
      </trkpt>
      <trkpt lat="48.77149" lon="2.44809">
        <ele>37</ele>
        <time>2024-01-22T08:41:23.838+00:00</time>
      </trkpt>
      <trkpt lat="48.77162" lon="2.44802">
        <ele>37</ele>
        <time>2024-01-22T08:41:33.052+00:00</time>
      </trkpt>
      <trkpt lat="48.77168" lon="2.44798">
        <ele>37</ele>
        <time>2024-01-22T08:41:37.717+00:00</time>
      </trkpt>
      <trkpt lat="48.77175" lon="2.44797">
        <ele>37</ele>
        <time>2024-01-22T08:41:42.144+00:00</time>
      </trkpt>
      <trkpt lat="48.77181" lon="2.44797">
        <ele>38</ele>
        <time>2024-01-22T08:41:46.331+00:00</time>
      </trkpt>
      <trkpt lat="48.77186" lon="2.44797">
        <ele>38</ele>
        <time>2024-01-22T08:41:50.399+00:00</time>
      </trkpt>
      <trkpt lat="48.77191" lon="2.44796">
        <ele>38</ele>
        <time>2024-01-22T08:41:54.727+00:00</time>
      </trkpt>
      <trkpt lat="48.77196" lon="2.44794">
        <ele>38</ele>
        <time>2024-01-22T08:41:58.770+00:00</time>
      </trkpt>
      <trkpt lat="48.77202" lon="2.44792">
        <ele>38</ele>
        <time>2024-01-22T08:42:02.716+00:00</time>
      </trkpt>
      <trkpt lat="48.77207" lon="2.4479">
        <ele>40</ele>
        <time>2024-01-22T08:42:06.663+00:00</time>
      </trkpt>
      <trkpt lat="48.77213" lon="2.4479">
        <ele>38</ele>
        <time>2024-01-22T08:42:10.708+00:00</time>
      </trkpt>
      <trkpt lat="48.7722" lon="2.44793">
        <ele>37</ele>
        <time>2024-01-22T08:42:15.132+00:00</time>
      </trkpt>
      <trkpt lat="48.77226" lon="2.44796">
        <ele>37</ele>
        <time>2024-01-22T08:42:19.657+00:00</time>
      </trkpt>
      <trkpt lat="48.77232" lon="2.44798">
        <ele>37</ele>
        <time>2024-01-22T08:42:23.526+00:00</time>
      </trkpt>
      <trkpt lat="48.77238" lon="2.44802">
        <ele>37</ele>
        <time>2024-01-22T08:42:28.026+00:00</time>
      </trkpt>
      <trkpt lat="48.77242" lon="2.44806">
        <ele>37</ele>
        <time>2024-01-22T08:42:32.526+00:00</time>
      </trkpt>
      <trkpt lat="48.77249" lon="2.44811">
        <ele>37</ele>
        <time>2024-01-22T08:42:36.996+00:00</time>
      </trkpt>
      <trkpt lat="48.77253" lon="2.44815">
        <ele>37</ele>
        <time>2024-01-22T08:42:40.944+00:00</time>
      </trkpt>
      <trkpt lat="48.7726" lon="2.4482">
        <ele>37</ele>
        <time>2024-01-22T08:42:45.489+00:00</time>
      </trkpt>
      <trkpt lat="48.77266" lon="2.44824">
        <ele>38</ele>
        <time>2024-01-22T08:42:50.035+00:00</time>
      </trkpt>
      <trkpt lat="48.77272" lon="2.44827">
        <ele>38</ele>
        <time>2024-01-22T08:42:54.101+00:00</time>
      </trkpt>
      <trkpt lat="48.77277" lon="2.44829">
        <ele>38</ele>
        <time>2024-01-22T08:42:58.048+00:00</time>
      </trkpt>
      <trkpt lat="48.77283" lon="2.44832">
        <ele>38</ele>
        <time>2024-01-22T08:43:02.714+00:00</time>
      </trkpt>
      <trkpt lat="48.77289" lon="2.44831">
        <ele>38</ele>
        <time>2024-01-22T08:43:07.138+00:00</time>
      </trkpt>
      <trkpt lat="48.77295" lon="2.44829">
        <ele>38</ele>
        <time>2024-01-22T08:43:11.526+00:00</time>
      </trkpt>
      <trkpt lat="48.773" lon="2.44827">
        <ele>38</ele>
        <time>2024-01-22T08:43:15.630+00:00</time>
      </trkpt>
      <trkpt lat="48.77304" lon="2.44825">
        <ele>38</ele>
        <time>2024-01-22T08:43:20.221+00:00</time>
      </trkpt>
      <trkpt lat="48.77309" lon="2.44822">
        <ele>38</ele>
        <time>2024-01-22T08:43:24.722+00:00</time>
      </trkpt>
      <trkpt lat="48.77315" lon="2.44822">
        <ele>38</ele>
        <time>2024-01-22T08:43:29.235+00:00</time>
      </trkpt>
      <trkpt lat="48.7732" lon="2.44822">
        <ele>38</ele>
        <time>2024-01-22T08:43:33.332+00:00</time>
      </trkpt>
      <trkpt lat="48.77326" lon="2.44822">
        <ele>38</ele>
        <time>2024-01-22T08:43:37.819+00:00</time>
      </trkpt>
      <trkpt lat="48.7733" lon="2.44825">
        <ele>38</ele>
        <time>2024-01-22T08:43:42.125+00:00</time>
      </trkpt>
      <trkpt lat="48.77334" lon="2.44826">
        <ele>38</ele>
        <time>2024-01-22T08:43:46.249+00:00</time>
      </trkpt>
      <trkpt lat="48.77339" lon="2.44827">
        <ele>38</ele>
        <time>2024-01-22T08:43:50.792+00:00</time>
      </trkpt>
      <trkpt lat="48.77343" lon="2.4483">
        <ele>38</ele>
        <time>2024-01-22T08:43:55.095+00:00</time>
      </trkpt>
      <trkpt lat="48.77348" lon="2.44836">
        <ele>33</ele>
        <time>2024-01-22T08:43:59.039+00:00</time>
      </trkpt>
      <trkpt lat="48.77351" lon="2.44836">
        <ele>33</ele>
        <time>2024-01-22T08:44:00.833+00:00</time>
      </trkpt>
      <trkpt lat="48.77365" lon="2.44832">
        <ele>33</ele>
        <time>2024-01-22T08:44:09.931+00:00</time>
      </trkpt>
      <trkpt lat="48.77372" lon="2.44827">
        <ele>33</ele>
        <time>2024-01-22T08:44:14.123+00:00</time>
      </trkpt>
      <trkpt lat="48.77373" lon="2.44823">
        <ele>33</ele>
        <time>2024-01-22T08:44:18.650+00:00</time>
      </trkpt>
      <trkpt lat="48.77377" lon="2.44824">
        <ele>33</ele>
        <time>2024-01-22T08:44:22.721+00:00</time>
      </trkpt>
      <trkpt lat="48.77381" lon="2.44812">
        <ele>37</ele>
        <time>2024-01-22T08:48:53.218+00:00</time>
      </trkpt>
      <trkpt lat="48.77381" lon="2.44812">
        <ele>37</ele>
        <time>2024-01-22T08:48:57.247+00:00</time>
      </trkpt>
      <trkpt lat="48.77383" lon="2.44812">
        <ele>37</ele>
        <time>2024-01-22T08:49:01.252+00:00</time>
      </trkpt>
      <trkpt lat="48.77386" lon="2.44808">
        <ele>37</ele>
        <time>2024-01-22T08:49:06.237+00:00</time>
      </trkpt>
      <trkpt lat="48.7739" lon="2.44802">
        <ele>37</ele>
        <time>2024-01-22T08:49:10.593+00:00</time>
      </trkpt>
      <trkpt lat="48.77394" lon="2.44793">
        <ele>37</ele>
        <time>2024-01-22T08:49:14.656+00:00</time>
      </trkpt>
      <trkpt lat="48.77397" lon="2.44784">
        <ele>39</ele>
        <time>2024-01-22T08:49:18.526+00:00</time>
      </trkpt>
      <trkpt lat="48.77399" lon="2.44777">
        <ele>39</ele>
        <time>2024-01-22T08:49:23.022+00:00</time>
      </trkpt>
      <trkpt lat="48.77401" lon="2.44773">
        <ele>39</ele>
        <time>2024-01-22T08:49:27.252+00:00</time>
      </trkpt>
      <trkpt lat="48.77404" lon="2.44769">
        <ele>38</ele>
        <time>2024-01-22T08:49:31.260+00:00</time>
      </trkpt>
      <trkpt lat="48.77409" lon="2.44764">
        <ele>38</ele>
        <time>2024-01-22T08:49:35.690+00:00</time>
      </trkpt>
      <trkpt lat="48.77415" lon="2.44761">
        <ele>38</ele>
        <time>2024-01-22T08:49:40.203+00:00</time>
      </trkpt>
      <trkpt lat="48.77419" lon="2.44763">
        <ele>38</ele>
        <time>2024-01-22T08:49:44.052+00:00</time>
      </trkpt>
      <trkpt lat="48.77425" lon="2.44765">
        <ele>38</ele>
        <time>2024-01-22T08:49:48.247+00:00</time>
      </trkpt>
      <trkpt lat="48.7743" lon="2.44766">
        <ele>38</ele>
        <time>2024-01-22T08:49:52.250+00:00</time>
      </trkpt>
      <trkpt lat="48.77436" lon="2.44767">
        <ele>36</ele>
        <time>2024-01-22T08:49:56.243+00:00</time>
      </trkpt>
      <trkpt lat="48.77442" lon="2.44769">
        <ele>36</ele>
        <time>2024-01-22T08:50:00.253+00:00</time>
      </trkpt>
      <trkpt lat="48.77449" lon="2.44771">
        <ele>36</ele>
        <time>2024-01-22T08:50:04.846+00:00</time>
      </trkpt>
      <trkpt lat="48.77458" lon="2.4477">
        <ele>36</ele>
        <time>2024-01-22T08:50:09.386+00:00</time>
      </trkpt>
      <trkpt lat="48.77465" lon="2.44769">
        <ele>34</ele>
        <time>2024-01-22T08:50:13.808+00:00</time>
      </trkpt>
      <trkpt lat="48.7747" lon="2.4477">
        <ele>34</ele>
        <time>2024-01-22T08:50:18.300+00:00</time>
      </trkpt>
      <trkpt lat="48.77477" lon="2.44773">
        <ele>34</ele>
        <time>2024-01-22T08:50:22.770+00:00</time>
      </trkpt>
      <trkpt lat="48.77483" lon="2.44775">
        <ele>34</ele>
        <time>2024-01-22T08:50:26.814+00:00</time>
      </trkpt>
      <trkpt lat="48.77489" lon="2.44778">
        <ele>32</ele>
        <time>2024-01-22T08:50:31.474+00:00</time>
      </trkpt>
      <trkpt lat="48.77494" lon="2.44781">
        <ele>32</ele>
        <time>2024-01-22T08:50:35.399+00:00</time>
      </trkpt>
      <trkpt lat="48.77499" lon="2.44786">
        <ele>32</ele>
        <time>2024-01-22T08:50:39.766+00:00</time>
      </trkpt>
      <trkpt lat="48.77503" lon="2.44788">
        <ele>32</ele>
        <time>2024-01-22T08:50:43.647+00:00</time>
      </trkpt>
      <trkpt lat="48.77508" lon="2.44791">
        <ele>32</ele>
        <time>2024-01-22T08:50:47.828+00:00</time>
      </trkpt>
      <trkpt lat="48.77513" lon="2.44794">
        <ele>34</ele>
        <time>2024-01-22T08:50:51.652+00:00</time>
      </trkpt>
      <trkpt lat="48.77518" lon="2.44798">
        <ele>34</ele>
        <time>2024-01-22T08:50:55.698+00:00</time>
      </trkpt>
      <trkpt lat="48.77523" lon="2.44804">
        <ele>34</ele>
        <time>2024-01-22T08:51:00.251+00:00</time>
      </trkpt>
      <trkpt lat="48.77526" lon="2.44809">
        <ele>34</ele>
        <time>2024-01-22T08:51:04.261+00:00</time>
      </trkpt>
      <trkpt lat="48.77531" lon="2.44813">
        <ele>34</ele>
        <time>2024-01-22T08:51:09.244+00:00</time>
      </trkpt>
      <trkpt lat="48.77537" lon="2.44816">
        <ele>34</ele>
        <time>2024-01-22T08:51:13.254+00:00</time>
      </trkpt>
      <trkpt lat="48.77543" lon="2.44816">
        <ele>34</ele>
        <time>2024-01-22T08:51:17.250+00:00</time>
      </trkpt>
      <trkpt lat="48.7755" lon="2.44816">
        <ele>34</ele>
        <time>2024-01-22T08:51:21.740+00:00</time>
      </trkpt>
      <trkpt lat="48.77555" lon="2.44818">
        <ele>34</ele>
        <time>2024-01-22T08:51:25.685+00:00</time>
      </trkpt>
      <trkpt lat="48.77561" lon="2.44819">
        <ele>34</ele>
        <time>2024-01-22T08:51:30.227+00:00</time>
      </trkpt>
      <trkpt lat="48.77567" lon="2.4482">
        <ele>35</ele>
        <time>2024-01-22T08:51:34.768+00:00</time>
      </trkpt>
      <trkpt lat="48.77573" lon="2.44821">
        <ele>34</ele>
        <time>2024-01-22T08:51:38.712+00:00</time>
      </trkpt>
      <trkpt lat="48.7758" lon="2.44822">
        <ele>34</ele>
        <time>2024-01-22T08:51:42.656+00:00</time>
      </trkpt>
      <trkpt lat="48.77585" lon="2.44823">
        <ele>34</ele>
        <time>2024-01-22T08:51:46.959+00:00</time>
      </trkpt>
      <trkpt lat="48.77591" lon="2.44824">
        <ele>34</ele>
        <time>2024-01-22T08:51:52.023+00:00</time>
      </trkpt>
      <trkpt lat="48.77596" lon="2.44824">
        <ele>34</ele>
        <time>2024-01-22T08:51:56.045+00:00</time>
      </trkpt>
      <trkpt lat="48.77601" lon="2.44828">
        <ele>34</ele>
        <time>2024-01-22T08:52:00.142+00:00</time>
      </trkpt>
      <trkpt lat="48.77608" lon="2.44833">
        <ele>34</ele>
        <time>2024-01-22T08:52:04.651+00:00</time>
      </trkpt>
      <trkpt lat="48.77614" lon="2.44835">
        <ele>34</ele>
        <time>2024-01-22T08:52:08.714+00:00</time>
      </trkpt>
      <trkpt lat="48.77622" lon="2.44834">
        <ele>34</ele>
        <time>2024-01-22T08:52:14.263+00:00</time>
      </trkpt>
      <trkpt lat="48.77628" lon="2.44833">
        <ele>34</ele>
        <time>2024-01-22T08:52:18.261+00:00</time>
      </trkpt>
      <trkpt lat="48.77634" lon="2.44834">
        <ele>34</ele>
        <time>2024-01-22T08:52:22.810+00:00</time>
      </trkpt>
      <trkpt lat="48.77642" lon="2.44835">
        <ele>34</ele>
        <time>2024-01-22T08:52:27.358+00:00</time>
      </trkpt>
      <trkpt lat="48.77648" lon="2.44834">
        <ele>34</ele>
        <time>2024-01-22T08:52:31.420+00:00</time>
      </trkpt>
      <trkpt lat="48.77655" lon="2.44836">
        <ele>34</ele>
        <time>2024-01-22T08:52:35.884+00:00</time>
      </trkpt>
      <trkpt lat="48.77662" lon="2.44836">
        <ele>34</ele>
        <time>2024-01-22T08:52:40.384+00:00</time>
      </trkpt>
      <trkpt lat="48.77668" lon="2.44832">
        <ele>34</ele>
        <time>2024-01-22T08:52:45.028+00:00</time>
      </trkpt>
      <trkpt lat="48.77673" lon="2.4483">
        <ele>34</ele>
        <time>2024-01-22T08:52:49.092+00:00</time>
      </trkpt>
      <trkpt lat="48.77678" lon="2.44826">
        <ele>34</ele>
        <time>2024-01-22T08:52:53.037+00:00</time>
      </trkpt>
      <trkpt lat="48.77681" lon="2.44817">
        <ele>32</ele>
        <time>2024-01-22T08:52:57.701+00:00</time>
      </trkpt>
      <trkpt lat="48.77684" lon="2.44808">
        <ele>32</ele>
        <time>2024-01-22T08:53:02.228+00:00</time>
      </trkpt>
      <trkpt lat="48.77691" lon="2.44805">
        <ele>32</ele>
        <time>2024-01-22T08:53:06.231+00:00</time>
      </trkpt>
      <trkpt lat="48.77697" lon="2.44802">
        <ele>32</ele>
        <time>2024-01-22T08:53:10.731+00:00</time>
      </trkpt>
      <trkpt lat="48.77704" lon="2.44799">
        <ele>32</ele>
        <time>2024-01-22T08:53:15.243+00:00</time>
      </trkpt>
      <trkpt lat="48.77709" lon="2.44793">
        <ele>31</ele>
        <time>2024-01-22T08:53:19.600+00:00</time>
      </trkpt>
      <trkpt lat="48.77714" lon="2.44791">
        <ele>33</ele>
        <time>2024-01-22T08:53:23.642+00:00</time>
      </trkpt>
      <trkpt lat="48.77719" lon="2.44794">
        <ele>31</ele>
        <time>2024-01-22T08:53:27.708+00:00</time>
      </trkpt>
      <trkpt lat="48.77724" lon="2.44795">
        <ele>31</ele>
        <time>2024-01-22T08:53:31.652+00:00</time>
      </trkpt>
      <trkpt lat="48.7773" lon="2.44796">
        <ele>31</ele>
        <time>2024-01-22T08:53:35.718+00:00</time>
      </trkpt>
      <trkpt lat="48.77736" lon="2.44798">
        <ele>32</ele>
        <time>2024-01-22T08:53:40.021+00:00</time>
      </trkpt>
      <trkpt lat="48.77743" lon="2.44799">
        <ele>32</ele>
        <time>2024-01-22T08:53:44.826+00:00</time>
      </trkpt>
      <trkpt lat="48.77748" lon="2.448">
        <ele>32</ele>
        <time>2024-01-22T08:53:48.749+00:00</time>
      </trkpt>
      <trkpt lat="48.77753" lon="2.448">
        <ele>32</ele>
        <time>2024-01-22T08:53:52.933+00:00</time>
      </trkpt>
      <trkpt lat="48.77758" lon="2.44796">
        <ele>32</ele>
        <time>2024-01-22T08:53:57.302+00:00</time>
      </trkpt>
      <trkpt lat="48.77764" lon="2.44796">
        <ele>32</ele>
        <time>2024-01-22T08:54:01.708+00:00</time>
      </trkpt>
      <trkpt lat="48.77769" lon="2.44798">
        <ele>33</ele>
        <time>2024-01-22T08:54:06.189+00:00</time>
      </trkpt>
      <trkpt lat="48.77774" lon="2.448">
        <ele>33</ele>
        <time>2024-01-22T08:54:10.734+00:00</time>
      </trkpt>
      <trkpt lat="48.77779" lon="2.44802">
        <ele>33</ele>
        <time>2024-01-22T08:54:15.241+00:00</time>
      </trkpt>
      <trkpt lat="48.77784" lon="2.44802">
        <ele>33</ele>
        <time>2024-01-22T08:54:19.224+00:00</time>
      </trkpt>
      <trkpt lat="48.77791" lon="2.44801">
        <ele>33</ele>
        <time>2024-01-22T08:54:23.769+00:00</time>
      </trkpt>
      <trkpt lat="48.77798" lon="2.44799">
        <ele>34</ele>
        <time>2024-01-22T08:54:27.839+00:00</time>
      </trkpt>
      <trkpt lat="48.77801" lon="2.44799">
        <ele>34</ele>
        <time>2024-01-22T08:54:30.212+00:00</time>
      </trkpt>
      <trkpt lat="48.77813" lon="2.44802">
        <ele>34</ele>
        <time>2024-01-22T08:54:39.140+00:00</time>
      </trkpt>
      <trkpt lat="48.7782" lon="2.44798">
        <ele>35</ele>
        <time>2024-01-22T08:54:44.100+00:00</time>
      </trkpt>
      <trkpt lat="48.77826" lon="2.448">
        <ele>35</ele>
        <time>2024-01-22T08:54:49.135+00:00</time>
      </trkpt>
      <trkpt lat="48.77832" lon="2.44801">
        <ele>35</ele>
        <time>2024-01-22T08:54:53.808+00:00</time>
      </trkpt>
      <trkpt lat="48.77836" lon="2.44806">
        <ele>35</ele>
        <time>2024-01-22T08:54:57.761+00:00</time>
      </trkpt>
      <trkpt lat="48.77841" lon="2.4481">
        <ele>35</ele>
        <time>2024-01-22T08:55:02.217+00:00</time>
      </trkpt>
      <trkpt lat="48.77845" lon="2.44806">
        <ele>35</ele>
        <time>2024-01-22T08:55:06.224+00:00</time>
      </trkpt>
      <trkpt lat="48.77851" lon="2.44799">
        <ele>35</ele>
        <time>2024-01-22T08:55:10.718+00:00</time>
      </trkpt>
      <trkpt lat="48.77856" lon="2.44793">
        <ele>35</ele>
        <time>2024-01-22T08:55:14.910+00:00</time>
      </trkpt>
      <trkpt lat="48.7786" lon="2.44785">
        <ele>35</ele>
        <time>2024-01-22T08:55:19.526+00:00</time>
      </trkpt>
      <trkpt lat="48.77864" lon="2.44776">
        <ele>35</ele>
        <time>2024-01-22T08:55:24.042+00:00</time>
      </trkpt>
      <trkpt lat="48.77865" lon="2.44768">
        <ele>35</ele>
        <time>2024-01-22T08:55:27.923+00:00</time>
      </trkpt>
      <trkpt lat="48.77868" lon="2.44763">
        <ele>36</ele>
        <time>2024-01-22T08:55:32.474+00:00</time>
      </trkpt>
      <trkpt lat="48.77872" lon="2.44763">
        <ele>36</ele>
        <time>2024-01-22T08:55:36.304+00:00</time>
      </trkpt>
      <trkpt lat="48.77877" lon="2.44765">
        <ele>35</ele>
        <time>2024-01-22T08:55:40.855+00:00</time>
      </trkpt>
      <trkpt lat="48.77883" lon="2.44767">
        <ele>35</ele>
        <time>2024-01-22T08:55:44.807+00:00</time>
      </trkpt>
      <trkpt lat="48.7789" lon="2.44769">
        <ele>35</ele>
        <time>2024-01-22T08:55:48.741+00:00</time>
      </trkpt>
      <trkpt lat="48.77897" lon="2.44769">
        <ele>35</ele>
        <time>2024-01-22T08:55:53.220+00:00</time>
      </trkpt>
      <trkpt lat="48.77902" lon="2.44763">
        <ele>35</ele>
        <time>2024-01-22T08:55:57.687+00:00</time>
      </trkpt>
      <trkpt lat="48.77904" lon="2.44753">
        <ele>35</ele>
        <time>2024-01-22T08:56:01.910+00:00</time>
      </trkpt>
      <trkpt lat="48.77903" lon="2.44742">
        <ele>35</ele>
        <time>2024-01-22T08:56:06.438+00:00</time>
      </trkpt>
      <trkpt lat="48.77905" lon="2.44732">
        <ele>35</ele>
        <time>2024-01-22T08:56:10.506+00:00</time>
      </trkpt>
      <trkpt lat="48.77909" lon="2.44724">
        <ele>35</ele>
        <time>2024-01-22T08:56:15.053+00:00</time>
      </trkpt>
      <trkpt lat="48.77915" lon="2.4472">
        <ele>35</ele>
        <time>2024-01-22T08:56:19.122+00:00</time>
      </trkpt>
      <trkpt lat="48.77923" lon="2.4472">
        <ele>35</ele>
        <time>2024-01-22T08:56:23.681+00:00</time>
      </trkpt>
      <trkpt lat="48.77929" lon="2.44721">
        <ele>35</ele>
        <time>2024-01-22T08:56:27.526+00:00</time>
      </trkpt>
      <trkpt lat="48.77935" lon="2.44727">
        <ele>36</ele>
        <time>2024-01-22T08:56:32.047+00:00</time>
      </trkpt>
      <trkpt lat="48.77937" lon="2.44737">
        <ele>35</ele>
        <time>2024-01-22T08:56:37.085+00:00</time>
      </trkpt>
      <trkpt lat="48.77934" lon="2.44744">
        <ele>35</ele>
        <time>2024-01-22T08:56:41.248+00:00</time>
      </trkpt>
      <trkpt lat="48.77936" lon="2.44752">
        <ele>35</ele>
        <time>2024-01-22T08:56:44.831+00:00</time>
      </trkpt>
      <trkpt lat="48.77944" lon="2.44761">
        <ele>35</ele>
        <time>2024-01-22T08:56:54.124+00:00</time>
      </trkpt>
      <trkpt lat="48.77948" lon="2.4476">
        <ele>35</ele>
        <time>2024-01-22T08:56:58.058+00:00</time>
      </trkpt>
      <trkpt lat="48.77954" lon="2.44757">
        <ele>35</ele>
        <time>2024-01-22T08:57:02.503+00:00</time>
      </trkpt>
      <trkpt lat="48.77959" lon="2.44757">
        <ele>35</ele>
        <time>2024-01-22T08:57:06.526+00:00</time>
      </trkpt>
      <trkpt lat="48.77964" lon="2.4476">
        <ele>35</ele>
        <time>2024-01-22T08:57:10.518+00:00</time>
      </trkpt>
      <trkpt lat="48.77969" lon="2.44765">
        <ele>33</ele>
        <time>2024-01-22T08:57:14.709+00:00</time>
      </trkpt>
      <trkpt lat="48.77974" lon="2.44766">
        <ele>33</ele>
        <time>2024-01-22T08:57:19.208+00:00</time>
      </trkpt>
      <trkpt lat="48.7798" lon="2.4477">
        <ele>33</ele>
        <time>2024-01-22T08:57:23.526+00:00</time>
      </trkpt>
      <trkpt lat="48.77984" lon="2.44776">
        <ele>33</ele>
        <time>2024-01-22T08:57:27.998+00:00</time>
      </trkpt>
      <trkpt lat="48.77988" lon="2.44782">
        <ele>33</ele>
        <time>2024-01-22T08:57:32.425+00:00</time>
      </trkpt>
      <trkpt lat="48.77992" lon="2.44788">
        <ele>33</ele>
        <time>2024-01-22T08:57:36.972+00:00</time>
      </trkpt>
      <trkpt lat="48.77996" lon="2.44793">
        <ele>31</ele>
        <time>2024-01-22T08:57:40.801+00:00</time>
      </trkpt>
      <trkpt lat="48.78002" lon="2.44799">
        <ele>31</ele>
        <time>2024-01-22T08:57:45.910+00:00</time>
      </trkpt>
      <trkpt lat="48.78008" lon="2.44802">
        <ele>31</ele>
        <time>2024-01-22T08:57:49.777+00:00</time>
      </trkpt>
      <trkpt lat="48.78013" lon="2.44808">
        <ele>31</ele>
        <time>2024-01-22T08:57:53.846+00:00</time>
      </trkpt>
      <trkpt lat="48.78016" lon="2.44816">
        <ele>32</ele>
        <time>2024-01-22T08:57:58.466+00:00</time>
      </trkpt>
      <trkpt lat="48.78022" lon="2.44819">
        <ele>32</ele>
        <time>2024-01-22T08:58:02.346+00:00</time>
      </trkpt>
      <trkpt lat="48.78029" lon="2.4482">
        <ele>32</ele>
        <time>2024-01-22T08:58:06.755+00:00</time>
      </trkpt>
      <trkpt lat="48.78035" lon="2.44824">
        <ele>32</ele>
        <time>2024-01-22T08:58:11.782+00:00</time>
      </trkpt>
      <trkpt lat="48.7804" lon="2.44827">
        <ele>32</ele>
        <time>2024-01-22T08:58:15.711+00:00</time>
      </trkpt>
      <trkpt lat="48.78046" lon="2.44828">
        <ele>32</ele>
        <time>2024-01-22T08:58:20.215+00:00</time>
      </trkpt>
      <trkpt lat="48.78052" lon="2.44827">
        <ele>32</ele>
        <time>2024-01-22T08:58:24.222+00:00</time>
      </trkpt>
      <trkpt lat="48.78059" lon="2.44824">
        <ele>32</ele>
        <time>2024-01-22T08:58:28.642+00:00</time>
      </trkpt>
      <trkpt lat="48.78066" lon="2.44818">
        <ele>33</ele>
        <time>2024-01-22T08:58:33.047+00:00</time>
      </trkpt>
      <trkpt lat="48.7807" lon="2.44811">
        <ele>31</ele>
        <time>2024-01-22T08:58:37.526+00:00</time>
      </trkpt>
      <trkpt lat="48.78075" lon="2.44806">
        <ele>31</ele>
        <time>2024-01-22T08:58:41.428+00:00</time>
      </trkpt>
      <trkpt lat="48.7808" lon="2.44802">
        <ele>31</ele>
        <time>2024-01-22T08:58:45.927+00:00</time>
      </trkpt>
      <trkpt lat="48.78085" lon="2.44797">
        <ele>31</ele>
        <time>2024-01-22T08:58:49.926+00:00</time>
      </trkpt>
      <trkpt lat="48.78091" lon="2.44794">
        <ele>31</ele>
        <time>2024-01-22T08:58:53.757+00:00</time>
      </trkpt>
      <trkpt lat="48.78097" lon="2.44791">
        <ele>31</ele>
        <time>2024-01-22T08:58:58.305+00:00</time>
      </trkpt>
      <trkpt lat="48.78103" lon="2.44787">
        <ele>31</ele>
        <time>2024-01-22T08:59:02.724+00:00</time>
      </trkpt>
      <trkpt lat="48.7811" lon="2.4479">
        <ele>31</ele>
        <time>2024-01-22T08:59:06.439+00:00</time>
      </trkpt>
      <trkpt lat="48.78119" lon="2.44793">
        <ele>30</ele>
        <time>2024-01-22T08:59:11.187+00:00</time>
      </trkpt>
      <trkpt lat="48.78121" lon="2.44791">
        <ele>31</ele>
        <time>2024-01-22T08:59:13.981+00:00</time>
      </trkpt>
      <trkpt lat="48.78134" lon="2.44797">
        <ele>30</ele>
        <time>2024-01-22T08:59:22.476+00:00</time>
      </trkpt>
      <trkpt lat="48.78142" lon="2.44796">
        <ele>30</ele>
        <time>2024-01-22T08:59:26.910+00:00</time>
      </trkpt>
      <trkpt lat="48.78148" lon="2.44795">
        <ele>30</ele>
        <time>2024-01-22T08:59:30.824+00:00</time>
      </trkpt>
      <trkpt lat="48.78154" lon="2.44797">
        <ele>30</ele>
        <time>2024-01-22T08:59:34.720+00:00</time>
      </trkpt>
      <trkpt lat="48.78159" lon="2.44798">
        <ele>30</ele>
        <time>2024-01-22T08:59:39.338+00:00</time>
      </trkpt>
      <trkpt lat="48.78167" lon="2.44795">
        <ele>30</ele>
        <time>2024-01-22T08:59:43.740+00:00</time>
      </trkpt>
      <trkpt lat="48.78172" lon="2.44793">
        <ele>30</ele>
        <time>2024-01-22T08:59:47.717+00:00</time>
      </trkpt>
      <trkpt lat="48.78178" lon="2.44789">
        <ele>31</ele>
        <time>2024-01-22T08:59:51.715+00:00</time>
      </trkpt>
      <trkpt lat="48.78182" lon="2.44782">
        <ele>32</ele>
        <time>2024-01-22T08:59:56.035+00:00</time>
      </trkpt>
      <trkpt lat="48.78188" lon="2.44764">
        <ele>32</ele>
        <time>2024-01-22T09:00:04.457+00:00</time>
      </trkpt>
      <trkpt lat="48.7819" lon="2.44754">
        <ele>33</ele>
        <time>2024-01-22T09:00:09.116+00:00</time>
      </trkpt>
      <trkpt lat="48.78194" lon="2.44747">
        <ele>33</ele>
        <time>2024-01-22T09:00:13.014+00:00</time>
      </trkpt>
      <trkpt lat="48.78199" lon="2.4474">
        <ele>33</ele>
        <time>2024-01-22T09:00:17.391+00:00</time>
      </trkpt>
      <trkpt lat="48.78204" lon="2.44732">
        <ele>35</ele>
        <time>2024-01-22T09:00:21.847+00:00</time>
      </trkpt>
      <trkpt lat="48.78209" lon="2.44728">
        <ele>35</ele>
        <time>2024-01-22T09:00:25.923+00:00</time>
      </trkpt>
      <trkpt lat="48.78216" lon="2.44726">
        <ele>35</ele>
        <time>2024-01-22T09:00:30.020+00:00</time>
      </trkpt>
      <trkpt lat="48.78223" lon="2.44726">
        <ele>35</ele>
        <time>2024-01-22T09:00:35.036+00:00</time>
      </trkpt>
      <trkpt lat="48.7823" lon="2.44729">
        <ele>35</ele>
        <time>2024-01-22T09:00:38.992+00:00</time>
      </trkpt>
      <trkpt lat="48.78235" lon="2.44734">
        <ele>35</ele>
        <time>2024-01-22T09:00:43.133+00:00</time>
      </trkpt>
      <trkpt lat="48.7824" lon="2.4474">
        <ele>38</ele>
        <time>2024-01-22T09:00:48.138+00:00</time>
      </trkpt>
      <trkpt lat="48.78244" lon="2.44747">
        <ele>38</ele>
        <time>2024-01-22T09:00:52.144+00:00</time>
      </trkpt>
      <trkpt lat="48.78247" lon="2.44748">
        <ele>38</ele>
        <time>2024-01-22T09:00:57.211+00:00</time>
      </trkpt>
      <trkpt lat="48.78252" lon="2.44746">
        <ele>38</ele>
        <time>2024-01-22T09:01:01.269+00:00</time>
      </trkpt>
      <trkpt lat="48.78258" lon="2.44754">
        <ele>38</ele>
        <time>2024-01-22T09:01:05.362+00:00</time>
      </trkpt>
      <trkpt lat="48.78264" lon="2.44763">
        <ele>38</ele>
        <time>2024-01-22T09:01:09.868+00:00</time>
      </trkpt>
      <trkpt lat="48.78267" lon="2.44767">
        <ele>39</ele>
        <time>2024-01-22T09:01:13.878+00:00</time>
      </trkpt>
      <trkpt lat="48.78272" lon="2.44771">
        <ele>39</ele>
        <time>2024-01-22T09:01:18.387+00:00</time>
      </trkpt>
      <trkpt lat="48.78279" lon="2.44769">
        <ele>39</ele>
        <time>2024-01-22T09:01:22.490+00:00</time>
      </trkpt>
      <trkpt lat="48.78285" lon="2.44774">
        <ele>39</ele>
        <time>2024-01-22T09:01:26.994+00:00</time>
      </trkpt>
      <trkpt lat="48.78291" lon="2.4478">
        <ele>39</ele>
        <time>2024-01-22T09:01:31.526+00:00</time>
      </trkpt>
      <trkpt lat="48.78298" lon="2.44782">
        <ele>36</ele>
        <time>2024-01-22T09:01:36.116+00:00</time>
      </trkpt>
      <trkpt lat="48.78303" lon="2.4478">
        <ele>36</ele>
        <time>2024-01-22T09:01:40.116+00:00</time>
      </trkpt>
      <trkpt lat="48.7831" lon="2.44781">
        <ele>36</ele>
        <time>2024-01-22T09:01:44.526+00:00</time>
      </trkpt>
      <trkpt lat="48.78311" lon="2.44783">
        <ele>36</ele>
        <time>2024-01-22T09:02:24.744+00:00</time>
      </trkpt>
      <trkpt lat="48.78315" lon="2.44795">
        <ele>37</ele>
        <time>2024-01-22T09:02:29.298+00:00</time>
      </trkpt>
      <trkpt lat="48.78323" lon="2.44796">
        <ele>37</ele>
        <time>2024-01-22T09:02:34.012+00:00</time>
      </trkpt>
      <trkpt lat="48.78328" lon="2.44787">
        <ele>35</ele>
        <time>2024-01-22T09:02:39.045+00:00</time>
      </trkpt>
      <trkpt lat="48.78331" lon="2.44779">
        <ele>35</ele>
        <time>2024-01-22T09:02:43.103+00:00</time>
      </trkpt>
      <trkpt lat="48.78334" lon="2.44769">
        <ele>35</ele>
        <time>2024-01-22T09:02:47.526+00:00</time>
      </trkpt>
      <trkpt lat="48.78337" lon="2.44761">
        <ele>33</ele>
        <time>2024-01-22T09:02:51.708+00:00</time>
      </trkpt>
      <trkpt lat="48.7834" lon="2.44753">
        <ele>33</ele>
        <time>2024-01-22T09:02:55.664+00:00</time>
      </trkpt>
      <trkpt lat="48.78345" lon="2.44747">
        <ele>33</ele>
        <time>2024-01-22T09:03:00.098+00:00</time>
      </trkpt>
      <trkpt lat="48.78348" lon="2.44739">
        <ele>34</ele>
        <time>2024-01-22T09:03:04.616+00:00</time>
      </trkpt>
      <trkpt lat="48.78351" lon="2.44731">
        <ele>35</ele>
        <time>2024-01-22T09:03:08.432+00:00</time>
      </trkpt>
      <trkpt lat="48.78353" lon="2.44724">
        <ele>35</ele>
        <time>2024-01-22T09:03:12.921+00:00</time>
      </trkpt>
      <trkpt lat="48.78357" lon="2.44714">
        <ele>35</ele>
        <time>2024-01-22T09:03:17.505+00:00</time>
      </trkpt>
      <trkpt lat="48.78361" lon="2.44707">
        <ele>37</ele>
        <time>2024-01-22T09:03:22+00:00</time>
      </trkpt>
      <trkpt lat="48.78364" lon="2.44697">
        <ele>37</ele>
        <time>2024-01-22T09:03:26.416+00:00</time>
      </trkpt>
      <trkpt lat="48.78366" lon="2.44687">
        <ele>37</ele>
        <time>2024-01-22T09:03:30.931+00:00</time>
      </trkpt>
      <trkpt lat="48.78369" lon="2.44678">
        <ele>40</ele>
        <time>2024-01-22T09:03:35.607+00:00</time>
      </trkpt>
      <trkpt lat="48.7837" lon="2.4467">
        <ele>40</ele>
        <time>2024-01-22T09:03:39.666+00:00</time>
      </trkpt>
      <trkpt lat="48.78373" lon="2.44664">
        <ele>40</ele>
        <time>2024-01-22T09:03:43.663+00:00</time>
      </trkpt>
      <trkpt lat="48.78378" lon="2.44659">
        <ele>38</ele>
        <time>2024-01-22T09:03:47.616+00:00</time>
      </trkpt>
      <trkpt lat="48.78384" lon="2.44655">
        <ele>38</ele>
        <time>2024-01-22T09:03:52.191+00:00</time>
      </trkpt>
      <trkpt lat="48.78389" lon="2.4465">
        <ele>39</ele>
        <time>2024-01-22T09:03:56.248+00:00</time>
      </trkpt>
      <trkpt lat="48.78392" lon="2.44639">
        <ele>39</ele>
        <time>2024-01-22T09:03:59.841+00:00</time>
      </trkpt>
      <trkpt lat="48.78396" lon="2.44628">
        <ele>39</ele>
        <time>2024-01-22T09:04:08.951+00:00</time>
      </trkpt>
      <trkpt lat="48.784" lon="2.44623">
        <ele>40</ele>
        <time>2024-01-22T09:04:13.454+00:00</time>
      </trkpt>
      <trkpt lat="48.78407" lon="2.44622">
        <ele>40</ele>
        <time>2024-01-22T09:04:17.636+00:00</time>
      </trkpt>
      <trkpt lat="48.78414" lon="2.44623">
        <ele>40</ele>
        <time>2024-01-22T09:04:22.220+00:00</time>
      </trkpt>
      <trkpt lat="48.78424" lon="2.44621">
        <ele>40</ele>
        <time>2024-01-22T09:04:26.776+00:00</time>
      </trkpt>
      <trkpt lat="48.7843" lon="2.44616">
        <ele>40</ele>
        <time>2024-01-22T09:04:31.334+00:00</time>
      </trkpt>
      <trkpt lat="48.78436" lon="2.44608">
        <ele>38</ele>
        <time>2024-01-22T09:04:35.892+00:00</time>
      </trkpt>
      <trkpt lat="48.7844" lon="2.446">
        <ele>38</ele>
        <time>2024-01-22T09:04:40.449+00:00</time>
      </trkpt>
      <trkpt lat="48.78445" lon="2.44594">
        <ele>46</ele>
        <time>2024-01-22T09:04:44.945+00:00</time>
      </trkpt>
      <trkpt lat="48.78452" lon="2.4458">
        <ele>46</ele>
        <time>2024-01-22T09:04:53.959+00:00</time>
      </trkpt>
      <trkpt lat="48.78453" lon="2.44573">
        <ele>46</ele>
        <time>2024-01-22T09:04:58.526+00:00</time>
      </trkpt>
      <trkpt lat="48.78451" lon="2.44564">
        <ele>51</ele>
        <time>2024-01-22T09:05:02.524+00:00</time>
      </trkpt>
      <trkpt lat="48.78452" lon="2.44555">
        <ele>51</ele>
        <time>2024-01-22T09:05:07.065+00:00</time>
      </trkpt>
      <trkpt lat="48.78455" lon="2.44545">
        <ele>51</ele>
        <time>2024-01-22T09:05:11.812+00:00</time>
      </trkpt>
      <trkpt lat="48.7846" lon="2.4454">
        <ele>43</ele>
        <time>2024-01-22T09:05:15.483+00:00</time>
      </trkpt>
      <trkpt lat="48.78468" lon="2.44536">
        <ele>43</ele>
        <time>2024-01-22T09:05:19.917+00:00</time>
      </trkpt>
      <trkpt lat="48.78473" lon="2.44534">
        <ele>43</ele>
        <time>2024-01-22T09:05:23.969+00:00</time>
      </trkpt>
      <trkpt lat="48.78478" lon="2.44532">
        <ele>43</ele>
        <time>2024-01-22T09:05:27.816+00:00</time>
      </trkpt>
      <trkpt lat="48.78484" lon="2.44531">
        <ele>43</ele>
        <time>2024-01-22T09:05:31.675+00:00</time>
      </trkpt>
      <trkpt lat="48.7849" lon="2.44527">
        <ele>40</ele>
        <time>2024-01-22T09:05:36.116+00:00</time>
      </trkpt>
      <trkpt lat="48.78493" lon="2.44517">
        <ele>40</ele>
        <time>2024-01-22T09:05:41.159+00:00</time>
      </trkpt>
      <trkpt lat="48.78497" lon="2.4451">
        <ele>41</ele>
        <time>2024-01-22T09:05:45.163+00:00</time>
      </trkpt>
      <trkpt lat="48.78505" lon="2.44499">
        <ele>41</ele>
        <time>2024-01-22T09:05:49.167+00:00</time>
      </trkpt>
      <trkpt lat="48.7851" lon="2.44491">
        <ele>41</ele>
        <time>2024-01-22T09:05:54.175+00:00</time>
      </trkpt>
      <trkpt lat="48.78514" lon="2.44489">
        <ele>39</ele>
        <time>2024-01-22T09:05:59.187+00:00</time>
      </trkpt>
      <trkpt lat="48.78518" lon="2.44482">
        <ele>38</ele>
        <time>2024-01-22T09:06:04.196+00:00</time>
      </trkpt>
      <trkpt lat="48.78524" lon="2.44482">
        <ele>38</ele>
        <time>2024-01-22T09:06:08.706+00:00</time>
      </trkpt>
      <trkpt lat="48.78532" lon="2.44479">
        <ele>38</ele>
        <time>2024-01-22T09:06:13.045+00:00</time>
      </trkpt>
      <trkpt lat="48.78538" lon="2.44474">
        <ele>38</ele>
        <time>2024-01-22T09:06:18.046+00:00</time>
      </trkpt>
      <trkpt lat="48.78542" lon="2.44465">
        <ele>38</ele>
        <time>2024-01-22T09:06:22.116+00:00</time>
      </trkpt>
      <trkpt lat="48.78545" lon="2.44457">
        <ele>35</ele>
        <time>2024-01-22T09:06:25.911+00:00</time>
      </trkpt>
      <trkpt lat="48.78549" lon="2.44451">
        <ele>35</ele>
        <time>2024-01-22T09:06:29.944+00:00</time>
      </trkpt>
      <trkpt lat="48.78553" lon="2.44446">
        <ele>35</ele>
        <time>2024-01-22T09:06:34.356+00:00</time>
      </trkpt>
      <trkpt lat="48.78559" lon="2.44439">
        <ele>35</ele>
        <time>2024-01-22T09:06:39.005+00:00</time>
      </trkpt>
      <trkpt lat="48.78563" lon="2.44434">
        <ele>35</ele>
        <time>2024-01-22T09:06:42.939+00:00</time>
      </trkpt>
      <trkpt lat="48.78572" lon="2.44425">
        <ele>37</ele>
        <time>2024-01-22T09:06:52.052+00:00</time>
      </trkpt>
      <trkpt lat="48.78576" lon="2.4442">
        <ele>37</ele>
        <time>2024-01-22T09:06:56.154+00:00</time>
      </trkpt>
      <trkpt lat="48.78583" lon="2.44418">
        <ele>37</ele>
        <time>2024-01-22T09:07:00.514+00:00</time>
      </trkpt>
      <trkpt lat="48.78588" lon="2.44413">
        <ele>37</ele>
        <time>2024-01-22T09:07:04.755+00:00</time>
      </trkpt>
      <trkpt lat="48.78593" lon="2.44408">
        <ele>37</ele>
        <time>2024-01-22T09:07:09.215+00:00</time>
      </trkpt>
      <trkpt lat="48.78598" lon="2.44406">
        <ele>38</ele>
        <time>2024-01-22T09:07:13.074+00:00</time>
      </trkpt>
      <trkpt lat="48.78606" lon="2.44404">
        <ele>38</ele>
        <time>2024-01-22T09:07:17.691+00:00</time>
      </trkpt>
      <trkpt lat="48.78614" lon="2.44399">
        <ele>38</ele>
        <time>2024-01-22T09:07:22.249+00:00</time>
      </trkpt>
      <trkpt lat="48.7862" lon="2.44397">
        <ele>38</ele>
        <time>2024-01-22T09:07:26.748+00:00</time>
      </trkpt>
      <trkpt lat="48.78621" lon="2.44398">
        <ele>38</ele>
        <time>2024-01-22T09:07:27.888+00:00</time>
      </trkpt>
      <trkpt lat="48.78629" lon="2.44397">
        <ele>38</ele>
        <time>2024-01-22T09:07:36.917+00:00</time>
      </trkpt>
      <trkpt lat="48.78629" lon="2.44389">
        <ele>38</ele>
        <time>2024-01-22T09:07:41.216+00:00</time>
      </trkpt>
      <trkpt lat="48.78634" lon="2.44384">
        <ele>38</ele>
        <time>2024-01-22T09:07:45.359+00:00</time>
      </trkpt>
      <trkpt lat="48.7864" lon="2.44381">
        <ele>38</ele>
        <time>2024-01-22T09:07:49.602+00:00</time>
      </trkpt>
      <trkpt lat="48.78648" lon="2.44381">
        <ele>38</ele>
        <time>2024-01-22T09:07:53.526+00:00</time>
      </trkpt>
      <trkpt lat="48.78657" lon="2.44382">
        <ele>38</ele>
        <time>2024-01-22T09:07:57.718+00:00</time>
      </trkpt>
      <trkpt lat="48.78664" lon="2.44385">
        <ele>38</ele>
        <time>2024-01-22T09:08:02.216+00:00</time>
      </trkpt>
      <trkpt lat="48.7867" lon="2.44387">
        <ele>38</ele>
        <time>2024-01-22T09:08:06.672+00:00</time>
      </trkpt>
      <trkpt lat="48.78676" lon="2.44394">
        <ele>38</ele>
        <time>2024-01-22T09:08:11.203+00:00</time>
      </trkpt>
      <trkpt lat="48.78681" lon="2.44401">
        <ele>37</ele>
        <time>2024-01-22T09:08:15.389+00:00</time>
      </trkpt>
      <trkpt lat="48.78685" lon="2.44407">
        <ele>38</ele>
        <time>2024-01-22T09:08:20.024+00:00</time>
      </trkpt>
      <trkpt lat="48.78691" lon="2.4441">
        <ele>38</ele>
        <time>2024-01-22T09:08:24.127+00:00</time>
      </trkpt>
      <trkpt lat="48.78698" lon="2.44415">
        <ele>38</ele>
        <time>2024-01-22T09:08:28.349+00:00</time>
      </trkpt>
      <trkpt lat="48.78705" lon="2.4442">
        <ele>38</ele>
        <time>2024-01-22T09:08:32.927+00:00</time>
      </trkpt>
      <trkpt lat="48.7871" lon="2.44429">
        <ele>37</ele>
        <time>2024-01-22T09:08:37.272+00:00</time>
      </trkpt>
      <trkpt lat="48.78715" lon="2.44436">
        <ele>38</ele>
        <time>2024-01-22T09:08:41.345+00:00</time>
      </trkpt>
      <trkpt lat="48.78719" lon="2.44442">
        <ele>38</ele>
        <time>2024-01-22T09:08:45.885+00:00</time>
      </trkpt>
      <trkpt lat="48.78723" lon="2.44449">
        <ele>38</ele>
        <time>2024-01-22T09:08:50.383+00:00</time>
      </trkpt>
      <trkpt lat="48.78727" lon="2.44457">
        <ele>38</ele>
        <time>2024-01-22T09:08:54.880+00:00</time>
      </trkpt>
      <trkpt lat="48.78729" lon="2.44467">
        <ele>39</ele>
        <time>2024-01-22T09:08:59.418+00:00</time>
      </trkpt>
      <trkpt lat="48.78732" lon="2.44474">
        <ele>39</ele>
        <time>2024-01-22T09:09:03.374+00:00</time>
      </trkpt>
      <trkpt lat="48.78736" lon="2.44483">
        <ele>39</ele>
        <time>2024-01-22T09:09:07.912+00:00</time>
      </trkpt>
      <trkpt lat="48.78739" lon="2.44492">
        <ele>37</ele>
        <time>2024-01-22T09:09:11.930+00:00</time>
      </trkpt>
      <trkpt lat="48.78739" lon="2.445">
        <ele>37</ele>
        <time>2024-01-22T09:09:16.288+00:00</time>
      </trkpt>
      <trkpt lat="48.78741" lon="2.44509">
        <ele>37</ele>
        <time>2024-01-22T09:09:20.323+00:00</time>
      </trkpt>
      <trkpt lat="48.78745" lon="2.4452">
        <ele>36</ele>
        <time>2024-01-22T09:09:24.881+00:00</time>
      </trkpt>
      <trkpt lat="48.78748" lon="2.44527">
        <ele>36</ele>
        <time>2024-01-22T09:09:28.779+00:00</time>
      </trkpt>
      <trkpt lat="48.78753" lon="2.44534">
        <ele>36</ele>
        <time>2024-01-22T09:09:32.800+00:00</time>
      </trkpt>
      <trkpt lat="48.78755" lon="2.44543">
        <ele>36</ele>
        <time>2024-01-22T09:09:37.472+00:00</time>
      </trkpt>
      <trkpt lat="48.78759" lon="2.44548">
        <ele>36</ele>
        <time>2024-01-22T09:09:41.902+00:00</time>
      </trkpt>
      <trkpt lat="48.78763" lon="2.44547">
        <ele>36</ele>
        <time>2024-01-22T09:09:45.974+00:00</time>
      </trkpt>
      <trkpt lat="48.78764" lon="2.44546">
        <ele>36</ele>
        <time>2024-01-22T09:09:51.001+00:00</time>
      </trkpt>
      <trkpt lat="48.78768" lon="2.44544">
        <ele>36</ele>
        <time>2024-01-22T09:09:55.649+00:00</time>
      </trkpt>
      <trkpt lat="48.78771" lon="2.44544">
        <ele>36</ele>
        <time>2024-01-22T09:09:59.836+00:00</time>
      </trkpt>
      <trkpt lat="48.78772" lon="2.44552">
        <ele>36</ele>
        <time>2024-01-22T09:10:04.383+00:00</time>
      </trkpt>
      <trkpt lat="48.78775" lon="2.44562">
        <ele>36</ele>
        <time>2024-01-22T09:10:08.810+00:00</time>
      </trkpt>
      <trkpt lat="48.78778" lon="2.44573">
        <ele>36</ele>
        <time>2024-01-22T09:10:13.788+00:00</time>
      </trkpt>
      <trkpt lat="48.78781" lon="2.4458">
        <ele>36</ele>
        <time>2024-01-22T09:10:18.185+00:00</time>
      </trkpt>
      <trkpt lat="48.78783" lon="2.44587">
        <ele>36</ele>
        <time>2024-01-22T09:10:22.070+00:00</time>
      </trkpt>
      <trkpt lat="48.78786" lon="2.44595">
        <ele>36</ele>
        <time>2024-01-22T09:10:26.138+00:00</time>
      </trkpt>
      <trkpt lat="48.78789" lon="2.44603">
        <ele>37</ele>
        <time>2024-01-22T09:10:30.665+00:00</time>
      </trkpt>
      <trkpt lat="48.78792" lon="2.44612">
        <ele>37</ele>
        <time>2024-01-22T09:10:35.092+00:00</time>
      </trkpt>
      <trkpt lat="48.78795" lon="2.44618">
        <ele>37</ele>
        <time>2024-01-22T09:10:39.043+00:00</time>
      </trkpt>
      <trkpt lat="48.78798" lon="2.44625">
        <ele>37</ele>
        <time>2024-01-22T09:10:42.995+00:00</time>
      </trkpt>
      <trkpt lat="48.78801" lon="2.44634">
        <ele>37</ele>
        <time>2024-01-22T09:10:47.662+00:00</time>
      </trkpt>
      <trkpt lat="48.78804" lon="2.44641">
        <ele>37</ele>
        <time>2024-01-22T09:10:52.088+00:00</time>
      </trkpt>
      <trkpt lat="48.78806" lon="2.44647">
        <ele>37</ele>
        <time>2024-01-22T09:10:56.034+00:00</time>
      </trkpt>
      <trkpt lat="48.78809" lon="2.44655">
        <ele>39</ele>
        <time>2024-01-22T09:11:00.542+00:00</time>
      </trkpt>
      <trkpt lat="48.78812" lon="2.44663">
        <ele>39</ele>
        <time>2024-01-22T09:11:04.769+00:00</time>
      </trkpt>
      <trkpt lat="48.78814" lon="2.4467">
        <ele>39</ele>
        <time>2024-01-22T09:11:08.831+00:00</time>
      </trkpt>
      <trkpt lat="48.78817" lon="2.44676">
        <ele>39</ele>
        <time>2024-01-22T09:11:12.658+00:00</time>
      </trkpt>
      <trkpt lat="48.78823" lon="2.44679">
        <ele>35</ele>
        <time>2024-01-22T09:11:17.203+00:00</time>
      </trkpt>
      <trkpt lat="48.78827" lon="2.44684">
        <ele>37</ele>
        <time>2024-01-22T09:11:21.268+00:00</time>
      </trkpt>
      <trkpt lat="48.7883" lon="2.44691">
        <ele>37</ele>
        <time>2024-01-22T09:11:25.810+00:00</time>
      </trkpt>
      <trkpt lat="48.78832" lon="2.44699">
        <ele>37</ele>
        <time>2024-01-22T09:11:30.355+00:00</time>
      </trkpt>
      <trkpt lat="48.78833" lon="2.44707">
        <ele>37</ele>
        <time>2024-01-22T09:11:34.420+00:00</time>
      </trkpt>
      <trkpt lat="48.78831" lon="2.44714">
        <ele>41</ele>
        <time>2024-01-22T09:11:38.366+00:00</time>
      </trkpt>
      <trkpt lat="48.78832" lon="2.44721">
        <ele>41</ele>
        <time>2024-01-22T09:11:42.788+00:00</time>
      </trkpt>
      <trkpt lat="48.78834" lon="2.44728">
        <ele>41</ele>
        <time>2024-01-22T09:11:46.851+00:00</time>
      </trkpt>
      <trkpt lat="48.78836" lon="2.44735">
        <ele>41</ele>
        <time>2024-01-22T09:11:50.795+00:00</time>
      </trkpt>
      <trkpt lat="48.78839" lon="2.44742">
        <ele>47</ele>
        <time>2024-01-22T09:11:55.256+00:00</time>
      </trkpt>
      <trkpt lat="48.78841" lon="2.4475">
        <ele>47</ele>
        <time>2024-01-22T09:11:59.761+00:00</time>
      </trkpt>
      <trkpt lat="48.78844" lon="2.44758">
        <ele>47</ele>
        <time>2024-01-22T09:12:03.826+00:00</time>
      </trkpt>
      <trkpt lat="48.78848" lon="2.44767">
        <ele>47</ele>
        <time>2024-01-22T09:12:08.281+00:00</time>
      </trkpt>
      <trkpt lat="48.78851" lon="2.44777">
        <ele>47</ele>
        <time>2024-01-22T09:12:12.793+00:00</time>
      </trkpt>
      <trkpt lat="48.78855" lon="2.44785">
        <ele>47</ele>
        <time>2024-01-22T09:12:16.860+00:00</time>
      </trkpt>
      <trkpt lat="48.78858" lon="2.44794">
        <ele>48</ele>
        <time>2024-01-22T09:12:21.046+00:00</time>
      </trkpt>
      <trkpt lat="48.7886" lon="2.44803">
        <ele>48</ele>
        <time>2024-01-22T09:12:25.165+00:00</time>
      </trkpt>
      <trkpt lat="48.78862" lon="2.44813">
        <ele>48</ele>
        <time>2024-01-22T09:12:29.057+00:00</time>
      </trkpt>
      <trkpt lat="48.78862" lon="2.44824">
        <ele>48</ele>
        <time>2024-01-22T09:12:33.526+00:00</time>
      </trkpt>
      <trkpt lat="48.78862" lon="2.44837">
        <ele>48</ele>
        <time>2024-01-22T09:12:38.028+00:00</time>
      </trkpt>
      <trkpt lat="48.78864" lon="2.44848">
        <ele>48</ele>
        <time>2024-01-22T09:12:42.094+00:00</time>
      </trkpt>
      <trkpt lat="48.78869" lon="2.44854">
        <ele>48</ele>
        <time>2024-01-22T09:12:46.040+00:00</time>
      </trkpt>
      <trkpt lat="48.78874" lon="2.44859">
        <ele>48</ele>
        <time>2024-01-22T09:12:49.986+00:00</time>
      </trkpt>
      <trkpt lat="48.78878" lon="2.44866">
        <ele>47</ele>
        <time>2024-01-22T09:12:54.411+00:00</time>
      </trkpt>
      <trkpt lat="48.78882" lon="2.44875">
        <ele>47</ele>
        <time>2024-01-22T09:12:58.835+00:00</time>
      </trkpt>
      <trkpt lat="48.78883" lon="2.44884">
        <ele>46</ele>
        <time>2024-01-22T09:13:03.909+00:00</time>
      </trkpt>
      <trkpt lat="48.78885" lon="2.44894">
        <ele>46</ele>
        <time>2024-01-22T09:13:08.901+00:00</time>
      </trkpt>
      <trkpt lat="48.78888" lon="2.44903">
        <ele>45</ele>
        <time>2024-01-22T09:13:13.062+00:00</time>
      </trkpt>
      <trkpt lat="48.78889" lon="2.44913">
        <ele>45</ele>
        <time>2024-01-22T09:13:17.228+00:00</time>
      </trkpt>
      <trkpt lat="48.78891" lon="2.44922">
        <ele>45</ele>
        <time>2024-01-22T09:13:21.653+00:00</time>
      </trkpt>
      <trkpt lat="48.78895" lon="2.44931">
        <ele>45</ele>
        <time>2024-01-22T09:13:26.077+00:00</time>
      </trkpt>
      <trkpt lat="48.789" lon="2.44938">
        <ele>41</ele>
        <time>2024-01-22T09:13:30.526+00:00</time>
      </trkpt>
      <trkpt lat="48.78905" lon="2.44946">
        <ele>44</ele>
        <time>2024-01-22T09:13:35.510+00:00</time>
      </trkpt>
      <trkpt lat="48.7891" lon="2.44953">
        <ele>44</ele>
        <time>2024-01-22T09:13:39.935+00:00</time>
      </trkpt>
      <trkpt lat="48.78914" lon="2.44959">
        <ele>40</ele>
        <time>2024-01-22T09:13:43.882+00:00</time>
      </trkpt>
      <trkpt lat="48.78918" lon="2.44966">
        <ele>40</ele>
        <time>2024-01-22T09:13:48.380+00:00</time>
      </trkpt>
      <trkpt lat="48.78922" lon="2.44973">
        <ele>40</ele>
        <time>2024-01-22T09:13:52.376+00:00</time>
      </trkpt>
      <trkpt lat="48.78928" lon="2.44979">
        <ele>40</ele>
        <time>2024-01-22T09:13:56.803+00:00</time>
      </trkpt>
      <trkpt lat="48.78932" lon="2.44989">
        <ele>38</ele>
        <time>2024-01-22T09:14:01.350+00:00</time>
      </trkpt>
      <trkpt lat="48.78935" lon="2.44996">
        <ele>38</ele>
        <time>2024-01-22T09:14:05.401+00:00</time>
      </trkpt>
      <trkpt lat="48.7894" lon="2.45007">
        <ele>38</ele>
        <time>2024-01-22T09:14:09.963+00:00</time>
      </trkpt>
      <trkpt lat="48.78941" lon="2.45015">
        <ele>35</ele>
        <time>2024-01-22T09:14:13.913+00:00</time>
      </trkpt>
      <trkpt lat="48.78943" lon="2.45025">
        <ele>35</ele>
        <time>2024-01-22T09:14:19.058+00:00</time>
      </trkpt>
      <trkpt lat="48.78945" lon="2.45025">
        <ele>35</ele>
        <time>2024-01-22T09:14:26.838+00:00</time>
      </trkpt>
      <trkpt lat="48.78948" lon="2.45029">
        <ele>35</ele>
        <time>2024-01-22T09:14:31.625+00:00</time>
      </trkpt>
      <trkpt lat="48.7895" lon="2.45032">
        <ele>35</ele>
        <time>2024-01-22T09:14:35.647+00:00</time>
      </trkpt>
      <trkpt lat="48.7895" lon="2.45033">
        <ele>35</ele>
        <time>2024-01-22T09:14:39.643+00:00</time>
      </trkpt>
      <trkpt lat="48.78951" lon="2.45035">
        <ele>35</ele>
        <time>2024-01-22T09:14:43.673+00:00</time>
      </trkpt>
      <trkpt lat="48.78952" lon="2.45041">
        <ele>35</ele>
        <time>2024-01-22T09:14:48.201+00:00</time>
      </trkpt>
      <trkpt lat="48.78952" lon="2.45047">
        <ele>34</ele>
        <time>2024-01-22T09:14:52.269+00:00</time>
      </trkpt>
      <trkpt lat="48.78953" lon="2.45054">
        <ele>34</ele>
        <time>2024-01-22T09:14:56.708+00:00</time>
      </trkpt>
      <trkpt lat="48.78954" lon="2.45061">
        <ele>34</ele>
        <time>2024-01-22T09:15:00.645+00:00</time>
      </trkpt>
      <trkpt lat="48.79017" lon="2.45116">
        <ele>35</ele>
        <time>2024-01-22T09:15:39.630+00:00</time>
      </trkpt>
      <trkpt lat="48.79016" lon="2.45129">
        <ele>36</ele>
        <time>2024-01-22T09:15:44.238+00:00</time>
      </trkpt>
      <trkpt lat="48.79016" lon="2.45142">
        <ele>36</ele>
        <time>2024-01-22T09:15:49.235+00:00</time>
      </trkpt>
      <trkpt lat="48.79014" lon="2.45152">
        <ele>36</ele>
        <time>2024-01-22T09:15:53.228+00:00</time>
      </trkpt>
      <trkpt lat="48.79012" lon="2.45161">
        <ele>37</ele>
        <time>2024-01-22T09:15:57.243+00:00</time>
      </trkpt>
      <trkpt lat="48.79009" lon="2.45169">
        <ele>37</ele>
        <time>2024-01-22T09:16:01.229+00:00</time>
      </trkpt>
      <trkpt lat="48.79008" lon="2.45181">
        <ele>37</ele>
        <time>2024-01-22T09:16:05.831+00:00</time>
      </trkpt>
      <trkpt lat="48.79007" lon="2.4519">
        <ele>37</ele>
        <time>2024-01-22T09:16:10+00:00</time>
      </trkpt>
      <trkpt lat="48.79008" lon="2.45197">
        <ele>37</ele>
        <time>2024-01-22T09:16:13.965+00:00</time>
      </trkpt>
      <trkpt lat="48.7901" lon="2.45206">
        <ele>37</ele>
        <time>2024-01-22T09:16:18.510+00:00</time>
      </trkpt>
      <trkpt lat="48.7901" lon="2.45214">
        <ele>37</ele>
        <time>2024-01-22T09:16:22.458+00:00</time>
      </trkpt>
      <trkpt lat="48.79009" lon="2.45222">
        <ele>37</ele>
        <time>2024-01-22T09:16:26.526+00:00</time>
      </trkpt>
      <trkpt lat="48.79008" lon="2.45231">
        <ele>37</ele>
        <time>2024-01-22T09:16:30.526+00:00</time>
      </trkpt>
      <trkpt lat="48.79008" lon="2.4524">
        <ele>37</ele>
        <time>2024-01-22T09:16:35.143+00:00</time>
      </trkpt>
      <trkpt lat="48.7901" lon="2.45248">
        <ele>37</ele>
        <time>2024-01-22T09:16:38.972+00:00</time>
      </trkpt>
      <trkpt lat="48.79015" lon="2.45256">
        <ele>37</ele>
        <time>2024-01-22T09:16:43.637+00:00</time>
      </trkpt>
      <trkpt lat="48.79017" lon="2.45263">
        <ele>37</ele>
        <time>2024-01-22T09:16:48.063+00:00</time>
      </trkpt>
      <trkpt lat="48.79016" lon="2.4527">
        <ele>37</ele>
        <time>2024-01-22T09:16:52.013+00:00</time>
      </trkpt>
      <trkpt lat="48.79019" lon="2.45278">
        <ele>37</ele>
        <time>2024-01-22T09:16:56.420+00:00</time>
      </trkpt>
      <trkpt lat="48.79024" lon="2.45284">
        <ele>37</ele>
        <time>2024-01-22T09:17:00.965+00:00</time>
      </trkpt>
      <trkpt lat="48.79024" lon="2.45291">
        <ele>37</ele>
        <time>2024-01-22T09:17:05.031+00:00</time>
      </trkpt>
      <trkpt lat="48.79021" lon="2.45299">
        <ele>37</ele>
        <time>2024-01-22T09:17:09.526+00:00</time>
      </trkpt>
      <trkpt lat="48.79019" lon="2.45305">
        <ele>37</ele>
        <time>2024-01-22T09:17:13.609+00:00</time>
      </trkpt>
      <trkpt lat="48.79015" lon="2.45312">
        <ele>37</ele>
        <time>2024-01-22T09:17:18.025+00:00</time>
      </trkpt>
      <trkpt lat="48.79012" lon="2.4532">
        <ele>36</ele>
        <time>2024-01-22T09:17:22.379+00:00</time>
      </trkpt>
      <trkpt lat="48.7901" lon="2.45329">
        <ele>36</ele>
        <time>2024-01-22T09:17:26.806+00:00</time>
      </trkpt>
      <trkpt lat="48.79009" lon="2.45337">
        <ele>36</ele>
        <time>2024-01-22T09:17:30.753+00:00</time>
      </trkpt>
      <trkpt lat="48.79008" lon="2.45346">
        <ele>36</ele>
        <time>2024-01-22T09:17:35.419+00:00</time>
      </trkpt>
      <trkpt lat="48.79005" lon="2.4535">
        <ele>36</ele>
        <time>2024-01-22T09:17:39.366+00:00</time>
      </trkpt>
      <trkpt lat="48.79" lon="2.45351">
        <ele>36</ele>
        <time>2024-01-22T09:17:43.942+00:00</time>
      </trkpt>
      <trkpt lat="48.78996" lon="2.45352">
        <ele>36</ele>
        <time>2024-01-22T09:17:47.976+00:00</time>
      </trkpt>
      <trkpt lat="48.78991" lon="2.45356">
        <ele>36</ele>
        <time>2024-01-22T09:17:51.805+00:00</time>
      </trkpt>
      <trkpt lat="48.78987" lon="2.45361">
        <ele>36</ele>
        <time>2024-01-22T09:17:56.253+00:00</time>
      </trkpt>
      <trkpt lat="48.78981" lon="2.45365">
        <ele>35</ele>
        <time>2024-01-22T09:18:00.778+00:00</time>
      </trkpt>
      <trkpt lat="48.78977" lon="2.45371">
        <ele>35</ele>
        <time>2024-01-22T09:18:05.324+00:00</time>
      </trkpt>
      <trkpt lat="48.78972" lon="2.45377">
        <ele>36</ele>
        <time>2024-01-22T09:18:09.751+00:00</time>
      </trkpt>
      <trkpt lat="48.78967" lon="2.4538">
        <ele>36</ele>
        <time>2024-01-22T09:18:13.701+00:00</time>
      </trkpt>
      <trkpt lat="48.78962" lon="2.45383">
        <ele>36</ele>
        <time>2024-01-22T09:18:18.129+00:00</time>
      </trkpt>
      <trkpt lat="48.78959" lon="2.45388">
        <ele>36</ele>
        <time>2024-01-22T09:18:22.677+00:00</time>
      </trkpt>
      <trkpt lat="48.78956" lon="2.45391">
        <ele>38</ele>
        <time>2024-01-22T09:18:26.625+00:00</time>
      </trkpt>
      <trkpt lat="48.78952" lon="2.45395">
        <ele>38</ele>
        <time>2024-01-22T09:18:30.694+00:00</time>
      </trkpt>
      <trkpt lat="48.78947" lon="2.45399">
        <ele>38</ele>
        <time>2024-01-22T09:18:34.644+00:00</time>
      </trkpt>
      <trkpt lat="48.78942" lon="2.45402">
        <ele>38</ele>
        <time>2024-01-22T09:18:38.833+00:00</time>
      </trkpt>
      <trkpt lat="48.7894" lon="2.4541">
        <ele>38</ele>
        <time>2024-01-22T09:18:42.781+00:00</time>
      </trkpt>
      <trkpt lat="48.7894" lon="2.45419">
        <ele>38</ele>
        <time>2024-01-22T09:18:47.447+00:00</time>
      </trkpt>
      <trkpt lat="48.78935" lon="2.45424">
        <ele>38</ele>
        <time>2024-01-22T09:18:51.949+00:00</time>
      </trkpt>
      <trkpt lat="48.78928" lon="2.45427">
        <ele>37</ele>
        <time>2024-01-22T09:18:56.268+00:00</time>
      </trkpt>
      <trkpt lat="48.78921" lon="2.45432">
        <ele>35</ele>
        <time>2024-01-22T09:19:00.851+00:00</time>
      </trkpt>
      <trkpt lat="48.78916" lon="2.4544">
        <ele>35</ele>
        <time>2024-01-22T09:19:04.799+00:00</time>
      </trkpt>
      <trkpt lat="48.78912" lon="2.45446">
        <ele>35</ele>
        <time>2024-01-22T09:19:09.248+00:00</time>
      </trkpt>
      <trkpt lat="48.78913" lon="2.45457">
        <ele>35</ele>
        <time>2024-01-22T09:19:13.775+00:00</time>
      </trkpt>
      <trkpt lat="48.78915" lon="2.45466">
        <ele>34</ele>
        <time>2024-01-22T09:19:17.843+00:00</time>
      </trkpt>
      <trkpt lat="48.78918" lon="2.45475">
        <ele>34</ele>
        <time>2024-01-22T09:19:22.031+00:00</time>
      </trkpt>
      <trkpt lat="48.7892" lon="2.45486">
        <ele>34</ele>
        <time>2024-01-22T09:19:26.526+00:00</time>
      </trkpt>
      <trkpt lat="48.78921" lon="2.45495">
        <ele>34</ele>
        <time>2024-01-22T09:19:30.648+00:00</time>
      </trkpt>
      <trkpt lat="48.78923" lon="2.45505">
        <ele>34</ele>
        <time>2024-01-22T09:19:34.836+00:00</time>
      </trkpt>
      <trkpt lat="48.78925" lon="2.45515">
        <ele>34</ele>
        <time>2024-01-22T09:19:39.985+00:00</time>
      </trkpt>
      <trkpt lat="48.78927" lon="2.4552">
        <ele>34</ele>
        <time>2024-01-22T09:19:44.050+00:00</time>
      </trkpt>
      <trkpt lat="48.7893" lon="2.45523">
        <ele>34</ele>
        <time>2024-01-22T09:19:48.119+00:00</time>
      </trkpt>
      <trkpt lat="48.78933" lon="2.4553">
        <ele>34</ele>
        <time>2024-01-22T09:19:53.169+00:00</time>
      </trkpt>
      <trkpt lat="48.78936" lon="2.45537">
        <ele>34</ele>
        <time>2024-01-22T09:19:56.717+00:00</time>
      </trkpt>
      <trkpt lat="48.78938" lon="2.45545">
        <ele>34</ele>
        <time>2024-01-22T09:20:01.238+00:00</time>
      </trkpt>
      <trkpt lat="48.7894" lon="2.45552">
        <ele>34</ele>
        <time>2024-01-22T09:20:05.194+00:00</time>
      </trkpt>
      <trkpt lat="48.78941" lon="2.45561">
        <ele>34</ele>
        <time>2024-01-22T09:20:09.703+00:00</time>
      </trkpt>
      <trkpt lat="48.78941" lon="2.45566">
        <ele>34</ele>
        <time>2024-01-22T09:20:14.248+00:00</time>
      </trkpt>
      <trkpt lat="48.7894" lon="2.45578">
        <ele>34</ele>
        <time>2024-01-22T09:20:49.248+00:00</time>
      </trkpt>
      <trkpt lat="48.7894" lon="2.45579">
        <ele>34</ele>
        <time>2024-01-22T09:20:54.248+00:00</time>
      </trkpt>
      <trkpt lat="48.78941" lon="2.45579">
        <ele>34</ele>
        <time>2024-01-22T09:20:58.249+00:00</time>
      </trkpt>
      <trkpt lat="48.78941" lon="2.4558">
        <ele>34</ele>
        <time>2024-01-22T09:21:02.434+00:00</time>
      </trkpt>
      <trkpt lat="48.78941" lon="2.45581">
        <ele>34</ele>
        <time>2024-01-22T09:21:07.100+00:00</time>
      </trkpt>
      <trkpt lat="48.78942" lon="2.45585">
        <ele>34</ele>
        <time>2024-01-22T09:30:13.242+00:00</time>
      </trkpt>
      <trkpt lat="48.78945" lon="2.45584">
        <ele>34</ele>
        <time>2024-01-22T09:30:17.782+00:00</time>
      </trkpt>
      <trkpt lat="48.78946" lon="2.45587">
        <ele>34</ele>
        <time>2024-01-22T09:30:22.333+00:00</time>
      </trkpt>
      <trkpt lat="48.78947" lon="2.456">
        <ele>34</ele>
        <time>2024-01-22T09:30:27.008+00:00</time>
      </trkpt>
      <trkpt lat="48.78949" lon="2.45611">
        <ele>34</ele>
        <time>2024-01-22T09:30:30.962+00:00</time>
      </trkpt>
      <trkpt lat="48.78952" lon="2.45618">
        <ele>34</ele>
        <time>2024-01-22T09:30:34.916+00:00</time>
      </trkpt>
      <trkpt lat="48.78954" lon="2.45628">
        <ele>33</ele>
        <time>2024-01-22T09:30:39.499+00:00</time>
      </trkpt>
      <trkpt lat="48.78954" lon="2.45638">
        <ele>33</ele>
        <time>2024-01-22T09:30:43.382+00:00</time>
      </trkpt>
      <trkpt lat="48.78955" lon="2.45646">
        <ele>33</ele>
        <time>2024-01-22T09:30:47.936+00:00</time>
      </trkpt>
      <trkpt lat="48.78956" lon="2.45654">
        <ele>33</ele>
        <time>2024-01-22T09:30:53.040+00:00</time>
      </trkpt>
      <trkpt lat="48.78957" lon="2.45659">
        <ele>33</ele>
        <time>2024-01-22T09:30:56.922+00:00</time>
      </trkpt>
      <trkpt lat="48.78959" lon="2.45665">
        <ele>34</ele>
        <time>2024-01-22T09:31:00.757+00:00</time>
      </trkpt>
      <trkpt lat="48.78961" lon="2.45674">
        <ele>34</ele>
        <time>2024-01-22T09:31:05.739+00:00</time>
      </trkpt>
      <trkpt lat="48.78963" lon="2.45681">
        <ele>34</ele>
        <time>2024-01-22T09:31:09.526+00:00</time>
      </trkpt>
      <trkpt lat="48.78966" lon="2.4569">
        <ele>34</ele>
        <time>2024-01-22T09:31:14.054+00:00</time>
      </trkpt>
      <trkpt lat="48.78969" lon="2.45698">
        <ele>34</ele>
        <time>2024-01-22T09:31:18.526+00:00</time>
      </trkpt>
      <trkpt lat="48.78971" lon="2.45705">
        <ele>34</ele>
        <time>2024-01-22T09:31:23.035+00:00</time>
      </trkpt>
      <trkpt lat="48.78973" lon="2.45713">
        <ele>34</ele>
        <time>2024-01-22T09:31:27.465+00:00</time>
      </trkpt>
      <trkpt lat="48.78971" lon="2.45726">
        <ele>34</ele>
        <time>2024-01-22T09:31:32.135+00:00</time>
      </trkpt>
      <trkpt lat="48.78971" lon="2.45739">
        <ele>35</ele>
        <time>2024-01-22T09:31:36.086+00:00</time>
      </trkpt>
      <trkpt lat="48.78973" lon="2.45749">
        <ele>35</ele>
        <time>2024-01-22T09:31:40.428+00:00</time>
      </trkpt>
      <trkpt lat="48.78976" lon="2.45757">
        <ele>35</ele>
        <time>2024-01-22T09:31:44.347+00:00</time>
      </trkpt>
      <trkpt lat="48.78979" lon="2.45762">
        <ele>35</ele>
        <time>2024-01-22T09:31:48.398+00:00</time>
      </trkpt>
      <trkpt lat="48.78982" lon="2.45768">
        <ele>34</ele>
        <time>2024-01-22T09:31:52.927+00:00</time>
      </trkpt>
      <trkpt lat="48.78985" lon="2.45774">
        <ele>34</ele>
        <time>2024-01-22T09:31:56.895+00:00</time>
      </trkpt>
      <trkpt lat="48.78987" lon="2.45783">
        <ele>35</ele>
        <time>2024-01-22T09:32:01.231+00:00</time>
      </trkpt>
      <trkpt lat="48.78989" lon="2.45794">
        <ele>35</ele>
        <time>2024-01-22T09:32:05.249+00:00</time>
      </trkpt>
      <trkpt lat="48.78992" lon="2.45806">
        <ele>35</ele>
        <time>2024-01-22T09:32:09.338+00:00</time>
      </trkpt>
      <trkpt lat="48.78991" lon="2.45819">
        <ele>35</ele>
        <time>2024-01-22T09:32:13.765+00:00</time>
      </trkpt>
      <trkpt lat="48.78992" lon="2.45831">
        <ele>35</ele>
        <time>2024-01-22T09:32:18.192+00:00</time>
      </trkpt>
      <trkpt lat="48.78995" lon="2.4584">
        <ele>35</ele>
        <time>2024-01-22T09:32:22.239+00:00</time>
      </trkpt>
      <trkpt lat="48.78997" lon="2.45847">
        <ele>35</ele>
        <time>2024-01-22T09:32:26.664+00:00</time>
      </trkpt>
      <trkpt lat="48.78999" lon="2.45854">
        <ele>36</ele>
        <time>2024-01-22T09:32:30.730+00:00</time>
      </trkpt>
      <trkpt lat="48.79" lon="2.45863">
        <ele>36</ele>
        <time>2024-01-22T09:32:35.154+00:00</time>
      </trkpt>
      <trkpt lat="48.79002" lon="2.45872">
        <ele>36</ele>
        <time>2024-01-22T09:32:39.100+00:00</time>
      </trkpt>
      <trkpt lat="48.79005" lon="2.45882">
        <ele>36</ele>
        <time>2024-01-22T09:32:43.644+00:00</time>
      </trkpt>
      <trkpt lat="48.79009" lon="2.4589">
        <ele>36</ele>
        <time>2024-01-22T09:32:48.262+00:00</time>
      </trkpt>
      <trkpt lat="48.79012" lon="2.45899">
        <ele>36</ele>
        <time>2024-01-22T09:32:52.854+00:00</time>
      </trkpt>
      <trkpt lat="48.79014" lon="2.45907">
        <ele>37</ele>
        <time>2024-01-22T09:32:56.919+00:00</time>
      </trkpt>
      <trkpt lat="48.79016" lon="2.45915">
        <ele>37</ele>
        <time>2024-01-22T09:33:00.746+00:00</time>
      </trkpt>
      <trkpt lat="48.79019" lon="2.45922">
        <ele>37</ele>
        <time>2024-01-22T09:33:05.241+00:00</time>
      </trkpt>
      <trkpt lat="48.79022" lon="2.45934">
        <ele>37</ele>
        <time>2024-01-22T09:33:09.526+00:00</time>
      </trkpt>
      <trkpt lat="48.79021" lon="2.45945">
        <ele>37</ele>
        <time>2024-01-22T09:33:13.422+00:00</time>
      </trkpt>
      <trkpt lat="48.79023" lon="2.45954">
        <ele>37</ele>
        <time>2024-01-22T09:33:17.907+00:00</time>
      </trkpt>
      <trkpt lat="48.79025" lon="2.45961">
        <ele>38</ele>
        <time>2024-01-22T09:33:22.044+00:00</time>
      </trkpt>
      <trkpt lat="48.79028" lon="2.45969">
        <ele>38</ele>
        <time>2024-01-22T09:33:26.098+00:00</time>
      </trkpt>
      <trkpt lat="48.79031" lon="2.45979">
        <ele>38</ele>
        <time>2024-01-22T09:33:30.164+00:00</time>
      </trkpt>
      <trkpt lat="48.79033" lon="2.45987">
        <ele>39</ele>
        <time>2024-01-22T09:33:34.092+00:00</time>
      </trkpt>
      <trkpt lat="48.79035" lon="2.45998">
        <ele>39</ele>
        <time>2024-01-22T09:33:38.636+00:00</time>
      </trkpt>
      <trkpt lat="48.79037" lon="2.46007">
        <ele>39</ele>
        <time>2024-01-22T09:33:42.822+00:00</time>
      </trkpt>
      <trkpt lat="48.7904" lon="2.46017">
        <ele>40</ele>
        <time>2024-01-22T09:33:47.899+00:00</time>
      </trkpt>
      <trkpt lat="48.79042" lon="2.46025">
        <ele>39</ele>
        <time>2024-01-22T09:33:51.796+00:00</time>
      </trkpt>
      <trkpt lat="48.79042" lon="2.46033">
        <ele>39</ele>
        <time>2024-01-22T09:33:56.246+00:00</time>
      </trkpt>
      <trkpt lat="48.79042" lon="2.46042">
        <ele>41</ele>
        <time>2024-01-22T09:34:00.766+00:00</time>
      </trkpt>
      <trkpt lat="48.79042" lon="2.4605">
        <ele>41</ele>
        <time>2024-01-22T09:34:04.833+00:00</time>
      </trkpt>
      <trkpt lat="48.79044" lon="2.46061">
        <ele>41</ele>
        <time>2024-01-22T09:34:09.498+00:00</time>
      </trkpt>
      <trkpt lat="48.79046" lon="2.46065">
        <ele>41</ele>
        <time>2024-01-22T09:34:14.044+00:00</time>
      </trkpt>
      <trkpt lat="48.79045" lon="2.46069">
        <ele>41</ele>
        <time>2024-01-22T09:34:18.146+00:00</time>
      </trkpt>
      <trkpt lat="48.79041" lon="2.46071">
        <ele>41</ele>
        <time>2024-01-22T09:34:22.062+00:00</time>
      </trkpt>
      <trkpt lat="48.79036" lon="2.46073">
        <ele>41</ele>
        <time>2024-01-22T09:34:27.047+00:00</time>
      </trkpt>
      <trkpt lat="48.79031" lon="2.46076">
        <ele>41</ele>
        <time>2024-01-22T09:34:31.031+00:00</time>
      </trkpt>
      <trkpt lat="48.79024" lon="2.46079">
        <ele>41</ele>
        <time>2024-01-22T09:34:35.096+00:00</time>
      </trkpt>
      <trkpt lat="48.79017" lon="2.46082">
        <ele>41</ele>
        <time>2024-01-22T09:34:39.043+00:00</time>
      </trkpt>
      <trkpt lat="48.79014" lon="2.46081">
        <ele>41</ele>
        <time>2024-01-22T09:34:43.109+00:00</time>
      </trkpt>
      <trkpt lat="48.79009" lon="2.46086">
        <ele>42</ele>
        <time>2024-01-22T09:34:47.656+00:00</time>
      </trkpt>
      <trkpt lat="48.79004" lon="2.46089">
        <ele>42</ele>
        <time>2024-01-22T09:34:51.722+00:00</time>
      </trkpt>
      <trkpt lat="48.78999" lon="2.46097">
        <ele>42</ele>
        <time>2024-01-22T09:34:56.200+00:00</time>
      </trkpt>
      <trkpt lat="48.78996" lon="2.46102">
        <ele>42</ele>
        <time>2024-01-22T09:35:00.094+00:00</time>
      </trkpt>
      <trkpt lat="48.78994" lon="2.46108">
        <ele>42</ele>
        <time>2024-01-22T09:35:04.589+00:00</time>
      </trkpt>
      <trkpt lat="48.78993" lon="2.46118">
        <ele>42</ele>
        <time>2024-01-22T09:35:08.865+00:00</time>
      </trkpt>
      <trkpt lat="48.79009" lon="2.46137">
        <ele>42</ele>
        <time>2024-01-22T09:35:13.250+00:00</time>
      </trkpt>
      <trkpt lat="48.79011" lon="2.46147">
        <ele>42</ele>
        <time>2024-01-22T09:35:17.675+00:00</time>
      </trkpt>
      <trkpt lat="48.79014" lon="2.46154">
        <ele>44</ele>
        <time>2024-01-22T09:35:21.862+00:00</time>
      </trkpt>
      <trkpt lat="48.79016" lon="2.46161">
        <ele>44</ele>
        <time>2024-01-22T09:35:26.647+00:00</time>
      </trkpt>
      <trkpt lat="48.79019" lon="2.46171">
        <ele>44</ele>
        <time>2024-01-22T09:35:30.832+00:00</time>
      </trkpt>
      <trkpt lat="48.79023" lon="2.46183">
        <ele>45</ele>
        <time>2024-01-22T09:35:35.476+00:00</time>
      </trkpt>
      <trkpt lat="48.79027" lon="2.46191">
        <ele>45</ele>
        <time>2024-01-22T09:35:40.020+00:00</time>
      </trkpt>
      <trkpt lat="48.79031" lon="2.462">
        <ele>45</ele>
        <time>2024-01-22T09:35:44.526+00:00</time>
      </trkpt>
      <trkpt lat="48.79033" lon="2.46206">
        <ele>45</ele>
        <time>2024-01-22T09:35:48.992+00:00</time>
      </trkpt>
      <trkpt lat="48.79036" lon="2.46213">
        <ele>47</ele>
        <time>2024-01-22T09:35:52.820+00:00</time>
      </trkpt>
      <trkpt lat="48.79038" lon="2.46225">
        <ele>47</ele>
        <time>2024-01-22T09:35:57.345+00:00</time>
      </trkpt>
      <trkpt lat="48.79041" lon="2.46233">
        <ele>47</ele>
        <time>2024-01-22T09:36:02.008+00:00</time>
      </trkpt>
      <trkpt lat="48.79044" lon="2.46241">
        <ele>49</ele>
        <time>2024-01-22T09:36:06.526+00:00</time>
      </trkpt>
      <trkpt lat="48.79047" lon="2.46249">
        <ele>49</ele>
        <time>2024-01-22T09:36:10.381+00:00</time>
      </trkpt>
      <trkpt lat="48.79049" lon="2.46259">
        <ele>49</ele>
        <time>2024-01-22T09:36:15.047+00:00</time>
      </trkpt>
      <trkpt lat="48.79055" lon="2.46272">
        <ele>49</ele>
        <time>2024-01-22T09:36:19.440+00:00</time>
      </trkpt>
      <trkpt lat="48.79057" lon="2.46277">
        <ele>49</ele>
        <time>2024-01-22T09:36:23.992+00:00</time>
      </trkpt>
      <trkpt lat="48.79059" lon="2.46283">
        <ele>49</ele>
        <time>2024-01-22T09:36:27.968+00:00</time>
      </trkpt>
      <trkpt lat="48.7906" lon="2.46289">
        <ele>49</ele>
        <time>2024-01-22T09:36:32.885+00:00</time>
      </trkpt>
      <trkpt lat="48.79061" lon="2.46293">
        <ele>49</ele>
        <time>2024-01-22T09:36:38.098+00:00</time>
      </trkpt>
      <trkpt lat="48.7906" lon="2.46299">
        <ele>49</ele>
        <time>2024-01-22T09:36:42.052+00:00</time>
      </trkpt>
      <trkpt lat="48.79057" lon="2.46305">
        <ele>49</ele>
        <time>2024-01-22T09:36:46.526+00:00</time>
      </trkpt>
      <trkpt lat="48.79057" lon="2.46315">
        <ele>49</ele>
        <time>2024-01-22T09:36:50.969+00:00</time>
      </trkpt>
      <trkpt lat="48.79058" lon="2.46326">
        <ele>48</ele>
        <time>2024-01-22T09:36:55.951+00:00</time>
      </trkpt>
      <trkpt lat="48.7906" lon="2.46332">
        <ele>48</ele>
        <time>2024-01-22T09:37:00.526+00:00</time>
      </trkpt>
      <trkpt lat="48.79071" lon="2.46328">
        <ele>47</ele>
        <time>2024-01-22T09:37:04.932+00:00</time>
      </trkpt>
      <trkpt lat="48.79078" lon="2.46334">
        <ele>47</ele>
        <time>2024-01-22T09:37:08.955+00:00</time>
      </trkpt>
      <trkpt lat="48.79081" lon="2.46344">
        <ele>47</ele>
        <time>2024-01-22T09:37:13.389+00:00</time>
      </trkpt>
      <trkpt lat="48.79083" lon="2.46353">
        <ele>48</ele>
        <time>2024-01-22T09:37:17.684+00:00</time>
      </trkpt>
      <trkpt lat="48.79085" lon="2.46362">
        <ele>48</ele>
        <time>2024-01-22T09:37:22.228+00:00</time>
      </trkpt>
      <trkpt lat="48.79084" lon="2.4637">
        <ele>48</ele>
        <time>2024-01-22T09:37:26.169+00:00</time>
      </trkpt>
      <trkpt lat="48.79087" lon="2.46378">
        <ele>48</ele>
        <time>2024-01-22T09:37:31.150+00:00</time>
      </trkpt>
      <trkpt lat="48.79092" lon="2.46385">
        <ele>48</ele>
        <time>2024-01-22T09:37:34.989+00:00</time>
      </trkpt>
      <trkpt lat="48.79093" lon="2.46392">
        <ele>48</ele>
        <time>2024-01-22T09:37:39.526+00:00</time>
      </trkpt>
      <trkpt lat="48.79096" lon="2.46401">
        <ele>48</ele>
        <time>2024-01-22T09:37:43.956+00:00</time>
      </trkpt>
      <trkpt lat="48.79098" lon="2.46407">
        <ele>49</ele>
        <time>2024-01-22T09:37:47.793+00:00</time>
      </trkpt>
      <trkpt lat="48.79102" lon="2.46415">
        <ele>49</ele>
        <time>2024-01-22T09:37:52.320+00:00</time>
      </trkpt>
      <trkpt lat="48.79105" lon="2.46424">
        <ele>49</ele>
        <time>2024-01-22T09:37:56.627+00:00</time>
      </trkpt>
      <trkpt lat="48.79108" lon="2.46432">
        <ele>49</ele>
        <time>2024-01-22T09:38:01.054+00:00</time>
      </trkpt>
      <trkpt lat="48.7911" lon="2.46437">
        <ele>49</ele>
        <time>2024-01-22T09:38:05.002+00:00</time>
      </trkpt>
      <trkpt lat="48.79113" lon="2.46443">
        <ele>49</ele>
        <time>2024-01-22T09:38:09.530+00:00</time>
      </trkpt>
      <trkpt lat="48.79116" lon="2.46448">
        <ele>49</ele>
        <time>2024-01-22T09:38:13.614+00:00</time>
      </trkpt>
      <trkpt lat="48.79118" lon="2.46453">
        <ele>49</ele>
        <time>2024-01-22T09:38:17.663+00:00</time>
      </trkpt>
      <trkpt lat="48.79122" lon="2.46459">
        <ele>49</ele>
        <time>2024-01-22T09:38:21.849+00:00</time>
      </trkpt>
      <trkpt lat="48.79128" lon="2.46471">
        <ele>50</ele>
        <time>2024-01-22T09:38:25.797+00:00</time>
      </trkpt>
      <trkpt lat="48.79132" lon="2.4648">
        <ele>50</ele>
        <time>2024-01-22T09:38:29.746+00:00</time>
      </trkpt>
      <trkpt lat="48.79136" lon="2.46487">
        <ele>50</ele>
        <time>2024-01-22T09:38:34.172+00:00</time>
      </trkpt>
      <trkpt lat="48.7914" lon="2.46495">
        <ele>50</ele>
        <time>2024-01-22T09:38:38.235+00:00</time>
      </trkpt>
      <trkpt lat="48.79143" lon="2.46502">
        <ele>50</ele>
        <time>2024-01-22T09:38:42.246+00:00</time>
      </trkpt>
      <trkpt lat="48.79144" lon="2.4651">
        <ele>50</ele>
        <time>2024-01-22T09:38:46.614+00:00</time>
      </trkpt>
      <trkpt lat="48.79146" lon="2.46514">
        <ele>50</ele>
        <time>2024-01-22T09:38:51.040+00:00</time>
      </trkpt>
      <trkpt lat="48.79147" lon="2.46519">
        <ele>50</ele>
        <time>2024-01-22T09:38:54.985+00:00</time>
      </trkpt>
      <trkpt lat="48.79151" lon="2.46527">
        <ele>50</ele>
        <time>2024-01-22T09:38:59.408+00:00</time>
      </trkpt>
      <trkpt lat="48.79155" lon="2.46531">
        <ele>51</ele>
        <time>2024-01-22T09:39:03.353+00:00</time>
      </trkpt>
      <trkpt lat="48.79157" lon="2.46537">
        <ele>51</ele>
        <time>2024-01-22T09:39:07.778+00:00</time>
      </trkpt>
      <trkpt lat="48.79164" lon="2.46544">
        <ele>51</ele>
        <time>2024-01-22T09:39:11.725+00:00</time>
      </trkpt>
      <trkpt lat="48.79168" lon="2.46553">
        <ele>51</ele>
        <time>2024-01-22T09:39:15.673+00:00</time>
      </trkpt>
      <trkpt lat="48.7917" lon="2.4656">
        <ele>51</ele>
        <time>2024-01-22T09:39:19.500+00:00</time>
      </trkpt>
      <trkpt lat="48.79172" lon="2.46566">
        <ele>51</ele>
        <time>2024-01-22T09:39:24.044+00:00</time>
      </trkpt>
      <trkpt lat="48.79176" lon="2.46574">
        <ele>51</ele>
        <time>2024-01-22T09:39:28.526+00:00</time>
      </trkpt>
      <trkpt lat="48.7918" lon="2.46582">
        <ele>51</ele>
        <time>2024-01-22T09:39:33.134+00:00</time>
      </trkpt>
      <trkpt lat="48.79184" lon="2.46591">
        <ele>50</ele>
        <time>2024-01-22T09:39:36.961+00:00</time>
      </trkpt>
      <trkpt lat="48.79187" lon="2.46599">
        <ele>50</ele>
        <time>2024-01-22T09:39:41.626+00:00</time>
      </trkpt>
      <trkpt lat="48.7919" lon="2.46608">
        <ele>50</ele>
        <time>2024-01-22T09:39:45.692+00:00</time>
      </trkpt>
      <trkpt lat="48.79192" lon="2.46615">
        <ele>50</ele>
        <time>2024-01-22T09:39:50.215+00:00</time>
      </trkpt>
      <trkpt lat="48.79194" lon="2.46623">
        <ele>50</ele>
        <time>2024-01-22T09:39:54.607+00:00</time>
      </trkpt>
      <trkpt lat="48.79196" lon="2.46632">
        <ele>49</ele>
        <time>2024-01-22T09:39:58.495+00:00</time>
      </trkpt>
      <trkpt lat="48.792" lon="2.46642">
        <ele>49</ele>
        <time>2024-01-22T09:40:03.043+00:00</time>
      </trkpt>
      <trkpt lat="48.79204" lon="2.4665">
        <ele>49</ele>
        <time>2024-01-22T09:40:07.350+00:00</time>
      </trkpt>
      <trkpt lat="48.79206" lon="2.46656">
        <ele>49</ele>
        <time>2024-01-22T09:40:11.659+00:00</time>
      </trkpt>
      <trkpt lat="48.79209" lon="2.4666">
        <ele>49</ele>
        <time>2024-01-22T09:40:15.729+00:00</time>
      </trkpt>
      <trkpt lat="48.79211" lon="2.46667">
        <ele>49</ele>
        <time>2024-01-22T09:40:19.918+00:00</time>
      </trkpt>
      <trkpt lat="48.79213" lon="2.46675">
        <ele>49</ele>
        <time>2024-01-22T09:40:23.986+00:00</time>
      </trkpt>
      <trkpt lat="48.79216" lon="2.46683">
        <ele>50</ele>
        <time>2024-01-22T09:40:28.413+00:00</time>
      </trkpt>
      <trkpt lat="48.79219" lon="2.4669">
        <ele>50</ele>
        <time>2024-01-22T09:40:32.962+00:00</time>
      </trkpt>
      <trkpt lat="48.79222" lon="2.46698">
        <ele>50</ele>
        <time>2024-01-22T09:40:37.390+00:00</time>
      </trkpt>
      <trkpt lat="48.79225" lon="2.46708">
        <ele>50</ele>
        <time>2024-01-22T09:40:41.819+00:00</time>
      </trkpt>
      <trkpt lat="48.79228" lon="2.46715">
        <ele>51</ele>
        <time>2024-01-22T09:40:45.768+00:00</time>
      </trkpt>
      <trkpt lat="48.79231" lon="2.46723">
        <ele>51</ele>
        <time>2024-01-22T09:40:49.837+00:00</time>
      </trkpt>
      <trkpt lat="48.79235" lon="2.46733">
        <ele>51</ele>
        <time>2024-01-22T09:40:54.504+00:00</time>
      </trkpt>
      <trkpt lat="48.79237" lon="2.46744">
        <ele>51</ele>
        <time>2024-01-22T09:40:58.930+00:00</time>
      </trkpt>
      <trkpt lat="48.7924" lon="2.46754">
        <ele>51</ele>
        <time>2024-01-22T09:41:03.726+00:00</time>
      </trkpt>
      <trkpt lat="48.79244" lon="2.46762">
        <ele>51</ele>
        <time>2024-01-22T09:41:08.221+00:00</time>
      </trkpt>
      <trkpt lat="48.79247" lon="2.46771">
        <ele>52</ele>
        <time>2024-01-22T09:41:12.688+00:00</time>
      </trkpt>
      <trkpt lat="48.7925" lon="2.46781">
        <ele>52</ele>
        <time>2024-01-22T09:41:17.066+00:00</time>
      </trkpt>
      <trkpt lat="48.79254" lon="2.4679">
        <ele>52</ele>
        <time>2024-01-22T09:41:21.660+00:00</time>
      </trkpt>
      <trkpt lat="48.79256" lon="2.46798">
        <ele>52</ele>
        <time>2024-01-22T09:41:25.727+00:00</time>
      </trkpt>
      <trkpt lat="48.79259" lon="2.46805">
        <ele>52</ele>
        <time>2024-01-22T09:41:29.674+00:00</time>
      </trkpt>
      <trkpt lat="48.79262" lon="2.46813">
        <ele>52</ele>
        <time>2024-01-22T09:41:33.621+00:00</time>
      </trkpt>
      <trkpt lat="48.79265" lon="2.46822">
        <ele>51</ele>
        <time>2024-01-22T09:41:38.219+00:00</time>
      </trkpt>
      <trkpt lat="48.79267" lon="2.46832">
        <ele>51</ele>
        <time>2024-01-22T09:41:42.829+00:00</time>
      </trkpt>
      <trkpt lat="48.79269" lon="2.46839">
        <ele>51</ele>
        <time>2024-01-22T09:41:46.775+00:00</time>
      </trkpt>
      <trkpt lat="48.79273" lon="2.46842">
        <ele>51</ele>
        <time>2024-01-22T09:41:51.080+00:00</time>
      </trkpt>
      <trkpt lat="48.79279" lon="2.46842">
        <ele>51</ele>
        <time>2024-01-22T09:41:55.028+00:00</time>
      </trkpt>
      <trkpt lat="48.79284" lon="2.46849">
        <ele>49</ele>
        <time>2024-01-22T09:41:59.526+00:00</time>
      </trkpt>
      <trkpt lat="48.79286" lon="2.46857">
        <ele>49</ele>
        <time>2024-01-22T09:42:04.716+00:00</time>
      </trkpt>
      <trkpt lat="48.79288" lon="2.46861">
        <ele>49</ele>
        <time>2024-01-22T09:42:13.815+00:00</time>
      </trkpt>
      <trkpt lat="48.79288" lon="2.46862">
        <ele>49</ele>
        <time>2024-01-22T09:42:17.823+00:00</time>
      </trkpt>
      <trkpt lat="48.79289" lon="2.46864">
        <ele>49</ele>
        <time>2024-01-22T09:42:21.833+00:00</time>
      </trkpt>
      <trkpt lat="48.79289" lon="2.46872">
        <ele>49</ele>
        <time>2024-01-22T09:42:26.341+00:00</time>
      </trkpt>
      <trkpt lat="48.7929" lon="2.46879">
        <ele>44</ele>
        <time>2024-01-22T09:42:30.346+00:00</time>
      </trkpt>
      <trkpt lat="48.79291" lon="2.46884">
        <ele>44</ele>
        <time>2024-01-22T09:42:34.852+00:00</time>
      </trkpt>
      <trkpt lat="48.79291" lon="2.46889">
        <ele>44</ele>
        <time>2024-01-22T09:42:38.858+00:00</time>
      </trkpt>
      <trkpt lat="48.79293" lon="2.46894">
        <ele>44</ele>
        <time>2024-01-22T09:42:43.964+00:00</time>
      </trkpt>
      <trkpt lat="48.79293" lon="2.46899">
        <ele>44</ele>
        <time>2024-01-22T09:42:47.970+00:00</time>
      </trkpt>
      <trkpt lat="48.79293" lon="2.46902">
        <ele>44</ele>
        <time>2024-01-22T09:42:51.976+00:00</time>
      </trkpt>
      <trkpt lat="48.79292" lon="2.46906">
        <ele>40</ele>
        <time>2024-01-22T09:42:55.981+00:00</time>
      </trkpt>
      <trkpt lat="48.79292" lon="2.46913">
        <ele>40</ele>
        <time>2024-01-22T09:43:00.990+00:00</time>
      </trkpt>
      <trkpt lat="48.79292" lon="2.46917">
        <ele>40</ele>
        <time>2024-01-22T09:43:04.996+00:00</time>
      </trkpt>
      <trkpt lat="48.79293" lon="2.46921">
        <ele>40</ele>
        <time>2024-01-22T09:43:09.503+00:00</time>
      </trkpt>
      <trkpt lat="48.79294" lon="2.46926">
        <ele>40</ele>
        <time>2024-01-22T09:43:14.013+00:00</time>
      </trkpt>
      <trkpt lat="48.79292" lon="2.46928">
        <ele>40</ele>
        <time>2024-01-22T09:43:18.026+00:00</time>
      </trkpt>
      <trkpt lat="48.79291" lon="2.46932">
        <ele>37</ele>
        <time>2024-01-22T09:43:22.537+00:00</time>
      </trkpt>
      <trkpt lat="48.79289" lon="2.46936">
        <ele>37</ele>
        <time>2024-01-22T09:43:27.150+00:00</time>
      </trkpt>
      <trkpt lat="48.79285" lon="2.46938">
        <ele>37</ele>
        <time>2024-01-22T09:43:32.162+00:00</time>
      </trkpt>
      <trkpt lat="48.7928" lon="2.46935">
        <ele>37</ele>
        <time>2024-01-22T09:43:36.172+00:00</time>
      </trkpt>
      <trkpt lat="48.79274" lon="2.46932">
        <ele>37</ele>
        <time>2024-01-22T09:43:41.187+00:00</time>
      </trkpt>
      <trkpt lat="48.7927" lon="2.46927">
        <ele>40</ele>
        <time>2024-01-22T09:43:45.203+00:00</time>
      </trkpt>
      <trkpt lat="48.79266" lon="2.46924">
        <ele>40</ele>
        <time>2024-01-22T09:43:48.812+00:00</time>
      </trkpt>
      <trkpt lat="48.79261" lon="2.46923">
        <ele>38</ele>
        <time>2024-01-22T09:43:53.822+00:00</time>
      </trkpt>
      <trkpt lat="48.79254" lon="2.46926">
        <ele>38</ele>
        <time>2024-01-22T09:43:57.829+00:00</time>
      </trkpt>
      <trkpt lat="48.79249" lon="2.4693">
        <ele>38</ele>
        <time>2024-01-22T09:44:02.337+00:00</time>
      </trkpt>
      <trkpt lat="48.79244" lon="2.46932">
        <ele>36</ele>
        <time>2024-01-22T09:44:06.846+00:00</time>
      </trkpt>
      <trkpt lat="48.79241" lon="2.46933">
        <ele>36</ele>
        <time>2024-01-22T09:44:11.354+00:00</time>
      </trkpt>
      <trkpt lat="48.79236" lon="2.46934">
        <ele>34</ele>
        <time>2024-01-22T09:44:15.962+00:00</time>
      </trkpt>
      <trkpt lat="48.7923" lon="2.46932">
        <ele>34</ele>
        <time>2024-01-22T09:44:20.098+00:00</time>
      </trkpt>
      <trkpt lat="48.79224" lon="2.46932">
        <ele>34</ele>
        <time>2024-01-22T09:44:24.660+00:00</time>
      </trkpt>
      <trkpt lat="48.7922" lon="2.46933">
        <ele>34</ele>
        <time>2024-01-22T09:44:29.166+00:00</time>
      </trkpt>
      <trkpt lat="48.79213" lon="2.46934">
        <ele>34</ele>
        <time>2024-01-22T09:44:33.671+00:00</time>
      </trkpt>
      <trkpt lat="48.79208" lon="2.46937">
        <ele>34</ele>
        <time>2024-01-22T09:44:38.174+00:00</time>
      </trkpt>
      <trkpt lat="48.79203" lon="2.46939">
        <ele>34</ele>
        <time>2024-01-22T09:44:42.216+00:00</time>
      </trkpt>
      <trkpt lat="48.79196" lon="2.46941">
        <ele>34</ele>
        <time>2024-01-22T09:44:46.477+00:00</time>
      </trkpt>
      <trkpt lat="48.79193" lon="2.46941">
        <ele>34</ele>
        <time>2024-01-22T09:44:50.277+00:00</time>
      </trkpt>
      <trkpt lat="48.7919" lon="2.46941">
        <ele>34</ele>
        <time>2024-01-22T09:45:03.091+00:00</time>
      </trkpt>
      <trkpt lat="48.79176" lon="2.46949">
        <ele>36</ele>
        <time>2024-01-22T09:45:12.127+00:00</time>
      </trkpt>
      <trkpt lat="48.7917" lon="2.46947">
        <ele>36</ele>
        <time>2024-01-22T09:45:16.243+00:00</time>
      </trkpt>
      <trkpt lat="48.79168" lon="2.46945">
        <ele>36</ele>
        <time>2024-01-22T09:45:20.912+00:00</time>
      </trkpt>
      <trkpt lat="48.79165" lon="2.46944">
        <ele>36</ele>
        <time>2024-01-22T09:45:24.950+00:00</time>
      </trkpt>
      <trkpt lat="48.79163" lon="2.46942">
        <ele>36</ele>
        <time>2024-01-22T09:45:28.967+00:00</time>
      </trkpt>
      <trkpt lat="48.79164" lon="2.46936">
        <ele>36</ele>
        <time>2024-01-22T09:45:34.143+00:00</time>
      </trkpt>
      <trkpt lat="48.79165" lon="2.46932">
        <ele>36</ele>
        <time>2024-01-22T09:45:35.804+00:00</time>
      </trkpt>
      <trkpt lat="48.79186" lon="2.46917">
        <ele>38</ele>
        <time>2024-01-22T09:45:44.826+00:00</time>
      </trkpt>
      <trkpt lat="48.7919" lon="2.46916">
        <ele>38</ele>
        <time>2024-01-22T09:45:48.834+00:00</time>
      </trkpt>
      <trkpt lat="48.79191" lon="2.46915">
        <ele>38</ele>
        <time>2024-01-22T09:45:53.945+00:00</time>
      </trkpt>
      <trkpt lat="48.79191" lon="2.46929">
        <ele>38</ele>
        <time>2024-01-22T09:45:57.954+00:00</time>
      </trkpt>
      <trkpt lat="48.79189" lon="2.46937">
        <ele>34</ele>
        <time>2024-01-22T09:46:01.962+00:00</time>
      </trkpt>
      <trkpt lat="48.79185" lon="2.46942">
        <ele>34</ele>
        <time>2024-01-22T09:46:06.978+00:00</time>
      </trkpt>
      <trkpt lat="48.79185" lon="2.46954">
        <ele>34</ele>
        <time>2024-01-22T09:46:11.998+00:00</time>
      </trkpt>
      <trkpt lat="48.79186" lon="2.46966">
        <ele>33</ele>
        <time>2024-01-22T09:46:16.004+00:00</time>
      </trkpt>
      <trkpt lat="48.79185" lon="2.46977">
        <ele>33</ele>
        <time>2024-01-22T09:46:20.106+00:00</time>
      </trkpt>
      <trkpt lat="48.79182" lon="2.46991">
        <ele>34</ele>
        <time>2024-01-22T09:46:24.706+00:00</time>
      </trkpt>
      <trkpt lat="48.79183" lon="2.47006">
        <ele>34</ele>
        <time>2024-01-22T09:46:29.220+00:00</time>
      </trkpt>
      <trkpt lat="48.79186" lon="2.47016">
        <ele>34</ele>
        <time>2024-01-22T09:46:33.819+00:00</time>
      </trkpt>
      <trkpt lat="48.79188" lon="2.47021">
        <ele>34</ele>
        <time>2024-01-22T09:46:37.774+00:00</time>
      </trkpt>
      <trkpt lat="48.79189" lon="2.47023">
        <ele>34</ele>
        <time>2024-01-22T09:46:41.848+00:00</time>
      </trkpt>
      <trkpt lat="48.79192" lon="2.47036">
        <ele>34</ele>
        <time>2024-01-22T09:46:45.802+00:00</time>
      </trkpt>
      <trkpt lat="48.79193" lon="2.4705">
        <ele>35</ele>
        <time>2024-01-22T09:46:49.754+00:00</time>
      </trkpt>
      <trkpt lat="48.79194" lon="2.47067">
        <ele>35</ele>
        <time>2024-01-22T09:46:53.829+00:00</time>
      </trkpt>
      <trkpt lat="48.79196" lon="2.47077">
        <ele>34</ele>
        <time>2024-01-22T09:46:58.306+00:00</time>
      </trkpt>
      <trkpt lat="48.79197" lon="2.47082">
        <ele>34</ele>
        <time>2024-01-22T09:47:02.807+00:00</time>
      </trkpt>
      <trkpt lat="48.79196" lon="2.47085">
        <ele>34</ele>
        <time>2024-01-22T09:47:06.757+00:00</time>
      </trkpt>
      <trkpt lat="48.79191" lon="2.47085">
        <ele>34</ele>
        <time>2024-01-22T09:47:10.946+00:00</time>
      </trkpt>
      <trkpt lat="48.79184" lon="2.47085">
        <ele>34</ele>
        <time>2024-01-22T09:47:15.017+00:00</time>
      </trkpt>
      <trkpt lat="48.79174" lon="2.47091">
        <ele>34</ele>
        <time>2024-01-22T09:47:19.029+00:00</time>
      </trkpt>
      <trkpt lat="48.79168" lon="2.47092">
        <ele>34</ele>
        <time>2024-01-22T09:47:23.100+00:00</time>
      </trkpt>
      <trkpt lat="48.79162" lon="2.47092">
        <ele>34</ele>
        <time>2024-01-22T09:47:27.053+00:00</time>
      </trkpt>
      <trkpt lat="48.79154" lon="2.47092">
        <ele>34</ele>
        <time>2024-01-22T09:47:31.526+00:00</time>
      </trkpt>
      <trkpt lat="48.79146" lon="2.47093">
        <ele>34</ele>
        <time>2024-01-22T09:47:35.526+00:00</time>
      </trkpt>
      <trkpt lat="48.79139" lon="2.47097">
        <ele>34</ele>
        <time>2024-01-22T09:47:40.099+00:00</time>
      </trkpt>
      <trkpt lat="48.79135" lon="2.47101">
        <ele>32</ele>
        <time>2024-01-22T09:47:44.046+00:00</time>
      </trkpt>
      <trkpt lat="48.7913" lon="2.47105">
        <ele>32</ele>
        <time>2024-01-22T09:47:49.219+00:00</time>
      </trkpt>
      <trkpt lat="48.79125" lon="2.47108">
        <ele>31</ele>
        <time>2024-01-22T09:47:53.822+00:00</time>
      </trkpt>
      <trkpt lat="48.79119" lon="2.47108">
        <ele>31</ele>
        <time>2024-01-22T09:47:57.732+00:00</time>
      </trkpt>
      <trkpt lat="48.79113" lon="2.47109">
        <ele>31</ele>
        <time>2024-01-22T09:48:02.517+00:00</time>
      </trkpt>
      <trkpt lat="48.79108" lon="2.4711">
        <ele>31</ele>
        <time>2024-01-22T09:48:06.526+00:00</time>
      </trkpt>
      <trkpt lat="48.79104" lon="2.4711">
        <ele>31</ele>
        <time>2024-01-22T09:48:11.131+00:00</time>
      </trkpt>
      <trkpt lat="48.79096" lon="2.47109">
        <ele>33</ele>
        <time>2024-01-22T09:48:15.319+00:00</time>
      </trkpt>
      <trkpt lat="48.79089" lon="2.47112">
        <ele>33</ele>
        <time>2024-01-22T09:48:19.947+00:00</time>
      </trkpt>
      <trkpt lat="48.79084" lon="2.47114">
        <ele>33</ele>
        <time>2024-01-22T09:48:23.814+00:00</time>
      </trkpt>
      <trkpt lat="48.79078" lon="2.47115">
        <ele>33</ele>
        <time>2024-01-22T09:48:28.362+00:00</time>
      </trkpt>
      <trkpt lat="48.79071" lon="2.47118">
        <ele>33</ele>
        <time>2024-01-22T09:48:32.789+00:00</time>
      </trkpt>
      <trkpt lat="48.79065" lon="2.4712">
        <ele>32</ele>
        <time>2024-01-22T09:48:37.098+00:00</time>
      </trkpt>
      <trkpt lat="48.79059" lon="2.4712">
        <ele>32</ele>
        <time>2024-01-22T09:48:41.405+00:00</time>
      </trkpt>
      <trkpt lat="48.79052" lon="2.47121">
        <ele>32</ele>
        <time>2024-01-22T09:48:45.831+00:00</time>
      </trkpt>
      <trkpt lat="48.79046" lon="2.47123">
        <ele>32</ele>
        <time>2024-01-22T09:48:49.778+00:00</time>
      </trkpt>
      <trkpt lat="48.7904" lon="2.47126">
        <ele>31</ele>
        <time>2024-01-22T09:48:54.634+00:00</time>
      </trkpt>
      <trkpt lat="48.79034" lon="2.47128">
        <ele>31</ele>
        <time>2024-01-22T09:48:58.509+00:00</time>
      </trkpt>
      <trkpt lat="48.79027" lon="2.47129">
        <ele>31</ele>
        <time>2024-01-22T09:49:03.054+00:00</time>
      </trkpt>
      <trkpt lat="48.79022" lon="2.4713">
        <ele>31</ele>
        <time>2024-01-22T09:49:07.001+00:00</time>
      </trkpt>
      <trkpt lat="48.79015" lon="2.47133">
        <ele>31</ele>
        <time>2024-01-22T09:49:11.526+00:00</time>
      </trkpt>
      <trkpt lat="48.79009" lon="2.47134">
        <ele>32</ele>
        <time>2024-01-22T09:49:16.092+00:00</time>
      </trkpt>
      <trkpt lat="48.79003" lon="2.47136">
        <ele>32</ele>
        <time>2024-01-22T09:49:20.036+00:00</time>
      </trkpt>
      <trkpt lat="48.78997" lon="2.47139">
        <ele>32</ele>
        <time>2024-01-22T09:49:24.101+00:00</time>
      </trkpt>
      <trkpt lat="48.78991" lon="2.47141">
        <ele>32</ele>
        <time>2024-01-22T09:49:28.047+00:00</time>
      </trkpt>
      <trkpt lat="48.78985" lon="2.47143">
        <ele>33</ele>
        <time>2024-01-22T09:49:32.532+00:00</time>
      </trkpt>
      <trkpt lat="48.78979" lon="2.47144">
        <ele>33</ele>
        <time>2024-01-22T09:49:36.526+00:00</time>
      </trkpt>
      <trkpt lat="48.78971" lon="2.47145">
        <ele>33</ele>
        <time>2024-01-22T09:49:41.321+00:00</time>
      </trkpt>
      <trkpt lat="48.78964" lon="2.47146">
        <ele>33</ele>
        <time>2024-01-22T09:49:45.984+00:00</time>
      </trkpt>
      <trkpt lat="48.78959" lon="2.47147">
        <ele>33</ele>
        <time>2024-01-22T09:49:49.811+00:00</time>
      </trkpt>
      <trkpt lat="48.78953" lon="2.4715">
        <ele>34</ele>
        <time>2024-01-22T09:49:54.219+00:00</time>
      </trkpt>
      <trkpt lat="48.78946" lon="2.47153">
        <ele>34</ele>
        <time>2024-01-22T09:49:59.018+00:00</time>
      </trkpt>
      <trkpt lat="48.7894" lon="2.47152">
        <ele>34</ele>
        <time>2024-01-22T09:50:02.844+00:00</time>
      </trkpt>
      <trkpt lat="48.78934" lon="2.47154">
        <ele>34</ele>
        <time>2024-01-22T09:50:07.689+00:00</time>
      </trkpt>
      <trkpt lat="48.78927" lon="2.47156">
        <ele>35</ele>
        <time>2024-01-22T09:50:12.053+00:00</time>
      </trkpt>
      <trkpt lat="48.78922" lon="2.47158">
        <ele>35</ele>
        <time>2024-01-22T09:50:16.119+00:00</time>
      </trkpt>
      <trkpt lat="48.78916" lon="2.4716">
        <ele>35</ele>
        <time>2024-01-22T09:50:20.783+00:00</time>
      </trkpt>
      <trkpt lat="48.78909" lon="2.47161">
        <ele>35</ele>
        <time>2024-01-22T09:50:25.309+00:00</time>
      </trkpt>
      <trkpt lat="48.78902" lon="2.47162">
        <ele>35</ele>
        <time>2024-01-22T09:50:29.512+00:00</time>
      </trkpt>
      <trkpt lat="48.78897" lon="2.47166">
        <ele>35</ele>
        <time>2024-01-22T09:50:34.056+00:00</time>
      </trkpt>
      <trkpt lat="48.78891" lon="2.47168">
        <ele>35</ele>
        <time>2024-01-22T09:50:38.240+00:00</time>
      </trkpt>
      <trkpt lat="48.78884" lon="2.47168">
        <ele>35</ele>
        <time>2024-01-22T09:50:42.423+00:00</time>
      </trkpt>
      <trkpt lat="48.78876" lon="2.47169">
        <ele>35</ele>
        <time>2024-01-22T09:50:46.847+00:00</time>
      </trkpt>
      <trkpt lat="48.78871" lon="2.47173">
        <ele>35</ele>
        <time>2024-01-22T09:50:51.390+00:00</time>
      </trkpt>
      <trkpt lat="48.78866" lon="2.47177">
        <ele>35</ele>
        <time>2024-01-22T09:50:55.917+00:00</time>
      </trkpt>
      <trkpt lat="48.7886" lon="2.47178">
        <ele>35</ele>
        <time>2024-01-22T09:50:59.997+00:00</time>
      </trkpt>
      <trkpt lat="48.78854" lon="2.47181">
        <ele>35</ele>
        <time>2024-01-22T09:51:04.061+00:00</time>
      </trkpt>
      <trkpt lat="48.78851" lon="2.47187">
        <ele>35</ele>
        <time>2024-01-22T09:51:08.526+00:00</time>
      </trkpt>
      <trkpt lat="48.78849" lon="2.47192">
        <ele>35</ele>
        <time>2024-01-22T09:51:12.976+00:00</time>
      </trkpt>
      <trkpt lat="48.78856" lon="2.47201">
        <ele>35</ele>
        <time>2024-01-22T09:51:16.849+00:00</time>
      </trkpt>
      <trkpt lat="48.78864" lon="2.47211">
        <ele>34</ele>
        <time>2024-01-22T09:51:21.749+00:00</time>
      </trkpt>
      <trkpt lat="48.78867" lon="2.47218">
        <ele>34</ele>
        <time>2024-01-22T09:51:26.252+00:00</time>
      </trkpt>
      <trkpt lat="48.7887" lon="2.47226">
        <ele>34</ele>
        <time>2024-01-22T09:51:30.715+00:00</time>
      </trkpt>
      <trkpt lat="48.78873" lon="2.47233">
        <ele>34</ele>
        <time>2024-01-22T09:51:35.158+00:00</time>
      </trkpt>
      <trkpt lat="48.78876" lon="2.47238">
        <ele>34</ele>
        <time>2024-01-22T09:51:39.077+00:00</time>
      </trkpt>
      <trkpt lat="48.7888" lon="2.47246">
        <ele>34</ele>
        <time>2024-01-22T09:51:44.075+00:00</time>
      </trkpt>
      <trkpt lat="48.78883" lon="2.47253">
        <ele>34</ele>
        <time>2024-01-22T09:51:48.257+00:00</time>
      </trkpt>
      <trkpt lat="48.78886" lon="2.47261">
        <ele>34</ele>
        <time>2024-01-22T09:51:52.923+00:00</time>
      </trkpt>
      <trkpt lat="48.78889" lon="2.47266">
        <ele>34</ele>
        <time>2024-01-22T09:51:55.079+00:00</time>
      </trkpt>
      <trkpt lat="48.789" lon="2.47273">
        <ele>34</ele>
        <time>2024-01-22T09:52:04.076+00:00</time>
      </trkpt>
      <trkpt lat="48.78904" lon="2.47281">
        <ele>32</ele>
        <time>2024-01-22T09:52:08.634+00:00</time>
      </trkpt>
      <trkpt lat="48.78903" lon="2.47286">
        <ele>32</ele>
        <time>2024-01-22T09:52:12.994+00:00</time>
      </trkpt>
      <trkpt lat="48.78903" lon="2.47286">
        <ele>32</ele>
        <time>2024-01-22T09:52:18.002+00:00</time>
      </trkpt>
      <trkpt lat="48.78906" lon="2.47297">
        <ele>32</ele>
        <time>2024-01-22T09:52:23.031+00:00</time>
      </trkpt>
      <trkpt lat="48.78911" lon="2.47305">
        <ele>32</ele>
        <time>2024-01-22T09:52:27.139+00:00</time>
      </trkpt>
      <trkpt lat="48.78914" lon="2.47313">
        <ele>32</ele>
        <time>2024-01-22T09:52:31.645+00:00</time>
      </trkpt>
      <trkpt lat="48.78917" lon="2.47322">
        <ele>33</ele>
        <time>2024-01-22T09:52:35.649+00:00</time>
      </trkpt>
      <trkpt lat="48.78917" lon="2.47326">
        <ele>33</ele>
        <time>2024-01-22T09:52:40.155+00:00</time>
      </trkpt>
      <trkpt lat="48.78922" lon="2.47335">
        <ele>33</ele>
        <time>2024-01-22T09:52:44.662+00:00</time>
      </trkpt>
      <trkpt lat="48.78927" lon="2.47343">
        <ele>33</ele>
        <time>2024-01-22T09:52:49.212+00:00</time>
      </trkpt>
      <trkpt lat="48.78931" lon="2.47352">
        <ele>33</ele>
        <time>2024-01-22T09:52:53.428+00:00</time>
      </trkpt>
      <trkpt lat="48.78935" lon="2.4736">
        <ele>33</ele>
        <time>2024-01-22T09:52:58.003+00:00</time>
      </trkpt>
      <trkpt lat="48.78937" lon="2.47368">
        <ele>33</ele>
        <time>2024-01-22T09:53:02.791+00:00</time>
      </trkpt>
      <trkpt lat="48.7894" lon="2.47372">
        <ele>33</ele>
        <time>2024-01-22T09:53:07.298+00:00</time>
      </trkpt>
      <trkpt lat="48.78945" lon="2.47377">
        <ele>34</ele>
        <time>2024-01-22T09:53:11.657+00:00</time>
      </trkpt>
      <trkpt lat="48.78946" lon="2.47385">
        <ele>34</ele>
        <time>2024-01-22T09:53:16.074+00:00</time>
      </trkpt>
      <trkpt lat="48.78946" lon="2.47392">
        <ele>34</ele>
        <time>2024-01-22T09:53:20.043+00:00</time>
      </trkpt>
      <trkpt lat="48.78942" lon="2.47395">
        <ele>34</ele>
        <time>2024-01-22T09:53:24.233+00:00</time>
      </trkpt>
      <trkpt lat="48.78939" lon="2.47399">
        <ele>34</ele>
        <time>2024-01-22T09:53:28.404+00:00</time>
      </trkpt>
      <trkpt lat="48.78936" lon="2.474">
        <ele>34</ele>
        <time>2024-01-22T09:53:32.938+00:00</time>
      </trkpt>
      <trkpt lat="48.78933" lon="2.47402">
        <ele>34</ele>
        <time>2024-01-22T09:53:36.938+00:00</time>
      </trkpt>
      <trkpt lat="48.78929" lon="2.47405">
        <ele>33</ele>
        <time>2024-01-22T09:53:40.995+00:00</time>
      </trkpt>
      <trkpt lat="48.78925" lon="2.47409">
        <ele>33</ele>
        <time>2024-01-22T09:53:44.945+00:00</time>
      </trkpt>
      <trkpt lat="48.78923" lon="2.47415">
        <ele>33</ele>
        <time>2024-01-22T09:53:49.138+00:00</time>
      </trkpt>
      <trkpt lat="48.78918" lon="2.47421">
        <ele>33</ele>
        <time>2024-01-22T09:53:53.083+00:00</time>
      </trkpt>
      <trkpt lat="48.78913" lon="2.47426">
        <ele>33</ele>
        <time>2024-01-22T09:53:57.601+00:00</time>
      </trkpt>
      <trkpt lat="48.78907" lon="2.4743">
        <ele>33</ele>
        <time>2024-01-22T09:54:01.455+00:00</time>
      </trkpt>
      <trkpt lat="48.78902" lon="2.47434">
        <ele>33</ele>
        <time>2024-01-22T09:54:05.760+00:00</time>
      </trkpt>
      <trkpt lat="48.78898" lon="2.47439">
        <ele>33</ele>
        <time>2024-01-22T09:54:10.184+00:00</time>
      </trkpt>
      <trkpt lat="48.78893" lon="2.47444">
        <ele>33</ele>
        <time>2024-01-22T09:54:14.130+00:00</time>
      </trkpt>
      <trkpt lat="48.78886" lon="2.47449">
        <ele>33</ele>
        <time>2024-01-22T09:54:19.035+00:00</time>
      </trkpt>
      <trkpt lat="48.78881" lon="2.47454">
        <ele>33</ele>
        <time>2024-01-22T09:54:22.982+00:00</time>
      </trkpt>
      <trkpt lat="48.78878" lon="2.4746">
        <ele>34</ele>
        <time>2024-01-22T09:54:27.526+00:00</time>
      </trkpt>
      <trkpt lat="48.78872" lon="2.47465">
        <ele>35</ele>
        <time>2024-01-22T09:54:31.954+00:00</time>
      </trkpt>
      <trkpt lat="48.78867" lon="2.47469">
        <ele>35</ele>
        <time>2024-01-22T09:54:35.785+00:00</time>
      </trkpt>
      <trkpt lat="48.78861" lon="2.47476">
        <ele>35</ele>
        <time>2024-01-22T09:54:40.811+00:00</time>
      </trkpt>
      <trkpt lat="48.78855" lon="2.47483">
        <ele>35</ele>
        <time>2024-01-22T09:54:45.361+00:00</time>
      </trkpt>
      <trkpt lat="48.78849" lon="2.47488">
        <ele>36</ele>
        <time>2024-01-22T09:54:49.747+00:00</time>
      </trkpt>
      <trkpt lat="48.78844" lon="2.47494">
        <ele>36</ele>
        <time>2024-01-22T09:54:54.135+00:00</time>
      </trkpt>
      <trkpt lat="48.78839" lon="2.47501">
        <ele>36</ele>
        <time>2024-01-22T09:54:58.684+00:00</time>
      </trkpt>
      <trkpt lat="48.78834" lon="2.47506">
        <ele>36</ele>
        <time>2024-01-22T09:55:03.197+00:00</time>
      </trkpt>
      <trkpt lat="48.78828" lon="2.47512">
        <ele>36</ele>
        <time>2024-01-22T09:55:07.496+00:00</time>
      </trkpt>
      <trkpt lat="48.78822" lon="2.47518">
        <ele>35</ele>
        <time>2024-01-22T09:55:11.654+00:00</time>
      </trkpt>
      <trkpt lat="48.78819" lon="2.47521">
        <ele>34</ele>
        <time>2024-01-22T09:55:15.841+00:00</time>
      </trkpt>
      <trkpt lat="48.78814" lon="2.47527">
        <ele>34</ele>
        <time>2024-01-22T09:55:20.219+00:00</time>
      </trkpt>
      <trkpt lat="48.7881" lon="2.47533">
        <ele>34</ele>
        <time>2024-01-22T09:55:23.975+00:00</time>
      </trkpt>
      <trkpt lat="48.78806" lon="2.4754">
        <ele>34</ele>
        <time>2024-01-22T09:55:28.400+00:00</time>
      </trkpt>
      <trkpt lat="48.788" lon="2.47545">
        <ele>34</ele>
        <time>2024-01-22T09:55:32.824+00:00</time>
      </trkpt>
      <trkpt lat="48.78795" lon="2.4755">
        <ele>34</ele>
        <time>2024-01-22T09:55:36.770+00:00</time>
      </trkpt>
      <trkpt lat="48.7879" lon="2.47556">
        <ele>33</ele>
        <time>2024-01-22T09:55:41.313+00:00</time>
      </trkpt>
      <trkpt lat="48.78786" lon="2.47561">
        <ele>33</ele>
        <time>2024-01-22T09:55:45.619+00:00</time>
      </trkpt>
      <trkpt lat="48.78782" lon="2.47568">
        <ele>33</ele>
        <time>2024-01-22T09:55:50.036+00:00</time>
      </trkpt>
      <trkpt lat="48.78777" lon="2.47573">
        <ele>33</ele>
        <time>2024-01-22T09:55:54.106+00:00</time>
      </trkpt>
      <trkpt lat="48.78772" lon="2.47578">
        <ele>33</ele>
        <time>2024-01-22T09:55:58.052+00:00</time>
      </trkpt>
      <trkpt lat="48.78766" lon="2.47585">
        <ele>33</ele>
        <time>2024-01-22T09:56:02.526+00:00</time>
      </trkpt>
      <trkpt lat="48.78762" lon="2.47592">
        <ele>33</ele>
        <time>2024-01-22T09:56:07.141+00:00</time>
      </trkpt>
      <trkpt lat="48.78759" lon="2.476">
        <ele>32</ele>
        <time>2024-01-22T09:56:11.083+00:00</time>
      </trkpt>
      <trkpt lat="48.78755" lon="2.47606">
        <ele>32</ele>
        <time>2024-01-22T09:56:15.149+00:00</time>
      </trkpt>
      <trkpt lat="48.7875" lon="2.47615">
        <ele>32</ele>
        <time>2024-01-22T09:56:19.962+00:00</time>
      </trkpt>
      <trkpt lat="48.78747" lon="2.47623">
        <ele>32</ele>
        <time>2024-01-22T09:56:24.258+00:00</time>
      </trkpt>
      <trkpt lat="48.78744" lon="2.47631">
        <ele>32</ele>
        <time>2024-01-22T09:56:28.060+00:00</time>
      </trkpt>
      <trkpt lat="48.78742" lon="2.47642">
        <ele>32</ele>
        <time>2024-01-22T09:56:32.875+00:00</time>
      </trkpt>
      <trkpt lat="48.78739" lon="2.47649">
        <ele>32</ele>
        <time>2024-01-22T09:56:36.789+00:00</time>
      </trkpt>
      <trkpt lat="48.78737" lon="2.47657">
        <ele>33</ele>
        <time>2024-01-22T09:56:41.251+00:00</time>
      </trkpt>
      <trkpt lat="48.78734" lon="2.47664">
        <ele>37</ele>
        <time>2024-01-22T09:56:45.280+00:00</time>
      </trkpt>
      <trkpt lat="48.78731" lon="2.47671">
        <ele>37</ele>
        <time>2024-01-22T09:56:49.319+00:00</time>
      </trkpt>
      <trkpt lat="48.78727" lon="2.4768">
        <ele>37</ele>
        <time>2024-01-22T09:56:53.773+00:00</time>
      </trkpt>
      <trkpt lat="48.78723" lon="2.47687">
        <ele>36</ele>
        <time>2024-01-22T09:56:58.439+00:00</time>
      </trkpt>
      <trkpt lat="48.78719" lon="2.47695">
        <ele>36</ele>
        <time>2024-01-22T09:57:02.984+00:00</time>
      </trkpt>
      <trkpt lat="48.78715" lon="2.47703">
        <ele>36</ele>
        <time>2024-01-22T09:57:06.932+00:00</time>
      </trkpt>
      <trkpt lat="48.78712" lon="2.47712">
        <ele>34</ele>
        <time>2024-01-22T09:57:11.526+00:00</time>
      </trkpt>
      <trkpt lat="48.78709" lon="2.47722">
        <ele>34</ele>
        <time>2024-01-22T09:57:16.019+00:00</time>
      </trkpt>
      <trkpt lat="48.78706" lon="2.47731">
        <ele>36</ele>
        <time>2024-01-22T09:57:20.443+00:00</time>
      </trkpt>
      <trkpt lat="48.78703" lon="2.47739">
        <ele>35</ele>
        <time>2024-01-22T09:57:24.967+00:00</time>
      </trkpt>
      <trkpt lat="48.78699" lon="2.47747">
        <ele>35</ele>
        <time>2024-01-22T09:57:29.511+00:00</time>
      </trkpt>
      <trkpt lat="48.78697" lon="2.47755">
        <ele>35</ele>
        <time>2024-01-22T09:57:34.055+00:00</time>
      </trkpt>
      <trkpt lat="48.78694" lon="2.47763">
        <ele>35</ele>
        <time>2024-01-22T09:57:38.723+00:00</time>
      </trkpt>
      <trkpt lat="48.78691" lon="2.47771">
        <ele>34</ele>
        <time>2024-01-22T09:57:43.263+00:00</time>
      </trkpt>
      <trkpt lat="48.78688" lon="2.47779">
        <ele>34</ele>
        <time>2024-01-22T09:57:47.429+00:00</time>
      </trkpt>
      <trkpt lat="48.78685" lon="2.47787">
        <ele>34</ele>
        <time>2024-01-22T09:57:52.054+00:00</time>
      </trkpt>
      <trkpt lat="48.78682" lon="2.47795">
        <ele>33</ele>
        <time>2024-01-22T09:57:56.039+00:00</time>
      </trkpt>
      <trkpt lat="48.78679" lon="2.47803">
        <ele>35</ele>
        <time>2024-01-22T09:58:00.526+00:00</time>
      </trkpt>
      <trkpt lat="48.78675" lon="2.47812">
        <ele>35</ele>
        <time>2024-01-22T09:58:04.643+00:00</time>
      </trkpt>
      <trkpt lat="48.78671" lon="2.47819">
        <ele>35</ele>
        <time>2024-01-22T09:58:08.526+00:00</time>
      </trkpt>
      <trkpt lat="48.78666" lon="2.4783">
        <ele>34</ele>
        <time>2024-01-22T09:58:13.367+00:00</time>
      </trkpt>
      <trkpt lat="48.78665" lon="2.4784">
        <ele>34</ele>
        <time>2024-01-22T09:58:17.431+00:00</time>
      </trkpt>
      <trkpt lat="48.78662" lon="2.47848">
        <ele>33</ele>
        <time>2024-01-22T09:58:21.495+00:00</time>
      </trkpt>
      <trkpt lat="48.78659" lon="2.47856">
        <ele>33</ele>
        <time>2024-01-22T09:58:26.036+00:00</time>
      </trkpt>
      <trkpt lat="48.78657" lon="2.47864">
        <ele>33</ele>
        <time>2024-01-22T09:58:30.100+00:00</time>
      </trkpt>
      <trkpt lat="48.78655" lon="2.47871">
        <ele>33</ele>
        <time>2024-01-22T09:58:34.044+00:00</time>
      </trkpt>
      <trkpt lat="48.78651" lon="2.47881">
        <ele>33</ele>
        <time>2024-01-22T09:58:38.656+00:00</time>
      </trkpt>
      <trkpt lat="48.78647" lon="2.47889">
        <ele>33</ele>
        <time>2024-01-22T09:58:42.647+00:00</time>
      </trkpt>
      <trkpt lat="48.78643" lon="2.479">
        <ele>33</ele>
        <time>2024-01-22T09:58:47.068+00:00</time>
      </trkpt>
      <trkpt lat="48.7864" lon="2.47909">
        <ele>33</ele>
        <time>2024-01-22T09:58:51.526+00:00</time>
      </trkpt>
      <trkpt lat="48.78637" lon="2.47914">
        <ele>33</ele>
        <time>2024-01-22T09:58:55.431+00:00</time>
      </trkpt>
      <trkpt lat="48.78635" lon="2.47921">
        <ele>33</ele>
        <time>2024-01-22T09:58:59.972+00:00</time>
      </trkpt>
      <trkpt lat="48.78633" lon="2.47928">
        <ele>33</ele>
        <time>2024-01-22T09:59:03.796+00:00</time>
      </trkpt>
      <trkpt lat="48.78631" lon="2.47938">
        <ele>34</ele>
        <time>2024-01-22T09:59:08.270+00:00</time>
      </trkpt>
      <trkpt lat="48.78627" lon="2.47946">
        <ele>34</ele>
        <time>2024-01-22T09:59:12.760+00:00</time>
      </trkpt>
      <trkpt lat="48.78622" lon="2.47954">
        <ele>32</ele>
        <time>2024-01-22T09:59:17.181+00:00</time>
      </trkpt>
      <trkpt lat="48.78619" lon="2.47962">
        <ele>34</ele>
        <time>2024-01-22T09:59:21.125+00:00</time>
      </trkpt>
      <trkpt lat="48.78616" lon="2.47971">
        <ele>34</ele>
        <time>2024-01-22T09:59:25.667+00:00</time>
      </trkpt>
      <trkpt lat="48.78613" lon="2.47982">
        <ele>34</ele>
        <time>2024-01-22T09:59:29.712+00:00</time>
      </trkpt>
      <trkpt lat="48.7861" lon="2.47992">
        <ele>35</ele>
        <time>2024-01-22T09:59:33.657+00:00</time>
      </trkpt>
      <trkpt lat="48.78608" lon="2.48002">
        <ele>35</ele>
        <time>2024-01-22T09:59:37.719+00:00</time>
      </trkpt>
      <trkpt lat="48.78606" lon="2.48011">
        <ele>35</ele>
        <time>2024-01-22T09:59:42.033+00:00</time>
      </trkpt>
      <trkpt lat="48.78604" lon="2.4802">
        <ele>36</ele>
        <time>2024-01-22T09:59:45.963+00:00</time>
      </trkpt>
      <trkpt lat="48.78601" lon="2.48029">
        <ele>36</ele>
        <time>2024-01-22T09:59:50.918+00:00</time>
      </trkpt>
      <trkpt lat="48.78599" lon="2.48038">
        <ele>36</ele>
        <time>2024-01-22T09:59:54.807+00:00</time>
      </trkpt>
      <trkpt lat="48.78597" lon="2.48046">
        <ele>34</ele>
        <time>2024-01-22T09:59:58.871+00:00</time>
      </trkpt>
      <trkpt lat="48.78594" lon="2.48057">
        <ele>34</ele>
        <time>2024-01-22T10:00:02.814+00:00</time>
      </trkpt>
      <trkpt lat="48.78592" lon="2.48066">
        <ele>34</ele>
        <time>2024-01-22T10:00:07.357+00:00</time>
      </trkpt>
      <trkpt lat="48.78588" lon="2.48076">
        <ele>33</ele>
        <time>2024-01-22T10:00:12.016+00:00</time>
      </trkpt>
      <trkpt lat="48.78587" lon="2.48087">
        <ele>33</ele>
        <time>2024-01-22T10:00:16.426+00:00</time>
      </trkpt>
      <trkpt lat="48.78586" lon="2.48097">
        <ele>33</ele>
        <time>2024-01-22T10:00:20.958+00:00</time>
      </trkpt>
      <trkpt lat="48.78585" lon="2.48106">
        <ele>34</ele>
        <time>2024-01-22T10:00:24.991+00:00</time>
      </trkpt>
      <trkpt lat="48.78582" lon="2.48117">
        <ele>34</ele>
        <time>2024-01-22T10:00:29.454+00:00</time>
      </trkpt>
      <trkpt lat="48.7858" lon="2.48127">
        <ele>34</ele>
        <time>2024-01-22T10:00:34.053+00:00</time>
      </trkpt>
      <trkpt lat="48.78577" lon="2.48138">
        <ele>34</ele>
        <time>2024-01-22T10:00:38.726+00:00</time>
      </trkpt>
      <trkpt lat="48.78576" lon="2.48147">
        <ele>34</ele>
        <time>2024-01-22T10:00:43.341+00:00</time>
      </trkpt>
      <trkpt lat="48.78574" lon="2.48157">
        <ele>34</ele>
        <time>2024-01-22T10:00:47.896+00:00</time>
      </trkpt>
      <trkpt lat="48.78573" lon="2.48164">
        <ele>34</ele>
        <time>2024-01-22T10:00:51.966+00:00</time>
      </trkpt>
      <trkpt lat="48.78572" lon="2.48173">
        <ele>34</ele>
        <time>2024-01-22T10:00:57.016+00:00</time>
      </trkpt>
      <trkpt lat="48.7857" lon="2.48179">
        <ele>34</ele>
        <time>2024-01-22T10:01:00.942+00:00</time>
      </trkpt>
      <trkpt lat="48.78568" lon="2.48186">
        <ele>34</ele>
        <time>2024-01-22T10:01:05.217+00:00</time>
      </trkpt>
      <trkpt lat="48.78566" lon="2.48194">
        <ele>34</ele>
        <time>2024-01-22T10:01:09.601+00:00</time>
      </trkpt>
      <trkpt lat="48.78564" lon="2.48201">
        <ele>34</ele>
        <time>2024-01-22T10:01:13.630+00:00</time>
      </trkpt>
      <trkpt lat="48.78563" lon="2.4821">
        <ele>33</ele>
        <time>2024-01-22T10:01:17.698+00:00</time>
      </trkpt>
      <trkpt lat="48.78562" lon="2.48217">
        <ele>33</ele>
        <time>2024-01-22T10:01:21.644+00:00</time>
      </trkpt>
      <trkpt lat="48.78561" lon="2.48225">
        <ele>33</ele>
        <time>2024-01-22T10:01:25.590+00:00</time>
      </trkpt>
      <trkpt lat="48.7856" lon="2.48233">
        <ele>33</ele>
        <time>2024-01-22T10:01:29.655+00:00</time>
      </trkpt>
      <trkpt lat="48.78559" lon="2.4824">
        <ele>33</ele>
        <time>2024-01-22T10:01:33.720+00:00</time>
      </trkpt>
      <trkpt lat="48.78558" lon="2.48248">
        <ele>33</ele>
        <time>2024-01-22T10:01:38.197+00:00</time>
      </trkpt>
      <trkpt lat="48.78552" lon="2.48262">
        <ele>33</ele>
        <time>2024-01-22T10:01:42.690+00:00</time>
      </trkpt>
      <trkpt lat="48.78551" lon="2.48274">
        <ele>34</ele>
        <time>2024-01-22T10:01:47.113+00:00</time>
      </trkpt>
      <trkpt lat="48.78549" lon="2.48284">
        <ele>34</ele>
        <time>2024-01-22T10:01:50.938+00:00</time>
      </trkpt>
      <trkpt lat="48.78545" lon="2.48295">
        <ele>35</ele>
        <time>2024-01-22T10:01:55.526+00:00</time>
      </trkpt>
      <trkpt lat="48.78544" lon="2.48305">
        <ele>35</ele>
        <time>2024-01-22T10:02:00.022+00:00</time>
      </trkpt>
      <trkpt lat="48.78541" lon="2.48314">
        <ele>35</ele>
        <time>2024-01-22T10:02:04.526+00:00</time>
      </trkpt>
      <trkpt lat="48.78539" lon="2.48324">
        <ele>36</ele>
        <time>2024-01-22T10:02:08.512+00:00</time>
      </trkpt>
      <trkpt lat="48.78538" lon="2.48333">
        <ele>36</ele>
        <time>2024-01-22T10:02:12.458+00:00</time>
      </trkpt>
      <trkpt lat="48.78536" lon="2.48341">
        <ele>36</ele>
        <time>2024-01-22T10:02:17.120+00:00</time>
      </trkpt>
      <trkpt lat="48.78535" lon="2.48351">
        <ele>36</ele>
        <time>2024-01-22T10:02:22.076+00:00</time>
      </trkpt>
      <trkpt lat="48.78533" lon="2.48359">
        <ele>36</ele>
        <time>2024-01-22T10:02:25.967+00:00</time>
      </trkpt>
      <trkpt lat="48.7853" lon="2.48368">
        <ele>36</ele>
        <time>2024-01-22T10:02:30.032+00:00</time>
      </trkpt>
      <trkpt lat="48.78527" lon="2.48378">
        <ele>36</ele>
        <time>2024-01-22T10:02:33.978+00:00</time>
      </trkpt>
      <trkpt lat="48.78524" lon="2.48387">
        <ele>36</ele>
        <time>2024-01-22T10:02:38.041+00:00</time>
      </trkpt>
      <trkpt lat="48.78521" lon="2.48397">
        <ele>36</ele>
        <time>2024-01-22T10:02:42.583+00:00</time>
      </trkpt>
      <trkpt lat="48.78519" lon="2.48404">
        <ele>35</ele>
        <time>2024-01-22T10:02:46.648+00:00</time>
      </trkpt>
      <trkpt lat="48.78518" lon="2.48411">
        <ele>35</ele>
        <time>2024-01-22T10:02:51.081+00:00</time>
      </trkpt>
      <trkpt lat="48.78516" lon="2.48418">
        <ele>35</ele>
        <time>2024-01-22T10:02:55.134+00:00</time>
      </trkpt>
      <trkpt lat="48.78515" lon="2.48428">
        <ele>35</ele>
        <time>2024-01-22T10:02:59.078+00:00</time>
      </trkpt>
      <trkpt lat="48.78511" lon="2.48438">
        <ele>34</ele>
        <time>2024-01-22T10:03:03.526+00:00</time>
      </trkpt>
      <trkpt lat="48.78509" lon="2.48446">
        <ele>34</ele>
        <time>2024-01-22T10:03:08.040+00:00</time>
      </trkpt>
      <trkpt lat="48.78507" lon="2.48454">
        <ele>34</ele>
        <time>2024-01-22T10:03:12.579+00:00</time>
      </trkpt>
      <trkpt lat="48.78504" lon="2.48461">
        <ele>35</ele>
        <time>2024-01-22T10:03:16.999+00:00</time>
      </trkpt>
      <trkpt lat="48.78502" lon="2.48469">
        <ele>35</ele>
        <time>2024-01-22T10:03:21.062+00:00</time>
      </trkpt>
      <trkpt lat="48.785" lon="2.48477">
        <ele>35</ele>
        <time>2024-01-22T10:03:25.006+00:00</time>
      </trkpt>
      <trkpt lat="48.78498" lon="2.48485">
        <ele>35</ele>
        <time>2024-01-22T10:03:29.379+00:00</time>
      </trkpt>
      <trkpt lat="48.78496" lon="2.48492">
        <ele>35</ele>
        <time>2024-01-22T10:03:33.371+00:00</time>
      </trkpt>
      <trkpt lat="48.78492" lon="2.48502">
        <ele>35</ele>
        <time>2024-01-22T10:03:38.030+00:00</time>
      </trkpt>
      <trkpt lat="48.78489" lon="2.48511">
        <ele>35</ele>
        <time>2024-01-22T10:03:41.973+00:00</time>
      </trkpt>
      <trkpt lat="48.78487" lon="2.48521">
        <ele>34</ele>
        <time>2024-01-22T10:03:46.396+00:00</time>
      </trkpt>
      <trkpt lat="48.78484" lon="2.48529">
        <ele>35</ele>
        <time>2024-01-22T10:03:50.457+00:00</time>
      </trkpt>
      <trkpt lat="48.78482" lon="2.48537">
        <ele>35</ele>
        <time>2024-01-22T10:03:54.524+00:00</time>
      </trkpt>
      <trkpt lat="48.78479" lon="2.48545">
        <ele>34</ele>
        <time>2024-01-22T10:03:58.992+00:00</time>
      </trkpt>
      <trkpt lat="48.78477" lon="2.4855">
        <ele>34</ele>
        <time>2024-01-22T10:04:03.356+00:00</time>
      </trkpt>
      <trkpt lat="48.78475" lon="2.4856">
        <ele>34</ele>
        <time>2024-01-22T10:04:08.003+00:00</time>
      </trkpt>
      <trkpt lat="48.78475" lon="2.4857">
        <ele>34</ele>
        <time>2024-01-22T10:04:11.844+00:00</time>
      </trkpt>
      <trkpt lat="48.78474" lon="2.48578">
        <ele>34</ele>
        <time>2024-01-22T10:04:16.386+00:00</time>
      </trkpt>
      <trkpt lat="48.78472" lon="2.48586">
        <ele>34</ele>
        <time>2024-01-22T10:04:20.451+00:00</time>
      </trkpt>
      <trkpt lat="48.7847" lon="2.48595">
        <ele>34</ele>
        <time>2024-01-22T10:04:25.136+00:00</time>
      </trkpt>
      <trkpt lat="48.78469" lon="2.48606">
        <ele>35</ele>
        <time>2024-01-22T10:04:29.658+00:00</time>
      </trkpt>
      <trkpt lat="48.78467" lon="2.48614">
        <ele>35</ele>
        <time>2024-01-22T10:04:33.718+00:00</time>
      </trkpt>
      <trkpt lat="48.78467" lon="2.48626">
        <ele>35</ele>
        <time>2024-01-22T10:04:38.249+00:00</time>
      </trkpt>
      <trkpt lat="48.78465" lon="2.48637">
        <ele>35</ele>
        <time>2024-01-22T10:04:42.082+00:00</time>
      </trkpt>
      <trkpt lat="48.78464" lon="2.48649">
        <ele>35</ele>
        <time>2024-01-22T10:04:46.382+00:00</time>
      </trkpt>
      <trkpt lat="48.78463" lon="2.48657">
        <ele>35</ele>
        <time>2024-01-22T10:04:50.348+00:00</time>
      </trkpt>
      <trkpt lat="48.78463" lon="2.48665">
        <ele>35</ele>
        <time>2024-01-22T10:04:54.747+00:00</time>
      </trkpt>
      <trkpt lat="48.78465" lon="2.48672">
        <ele>35</ele>
        <time>2024-01-22T10:04:59.232+00:00</time>
      </trkpt>
      <trkpt lat="48.78466" lon="2.4868">
        <ele>35</ele>
        <time>2024-01-22T10:05:03.234+00:00</time>
      </trkpt>
      <trkpt lat="48.78465" lon="2.48688">
        <ele>35</ele>
        <time>2024-01-22T10:05:07.299+00:00</time>
      </trkpt>
      <trkpt lat="48.78465" lon="2.48695">
        <ele>35</ele>
        <time>2024-01-22T10:05:11.843+00:00</time>
      </trkpt>
      <trkpt lat="48.78464" lon="2.48705">
        <ele>35</ele>
        <time>2024-01-22T10:05:16.026+00:00</time>
      </trkpt>
      <trkpt lat="48.78462" lon="2.48717">
        <ele>34</ele>
        <time>2024-01-22T10:05:20.526+00:00</time>
      </trkpt>
      <trkpt lat="48.7846" lon="2.48727">
        <ele>34</ele>
        <time>2024-01-22T10:05:25.136+00:00</time>
      </trkpt>
      <trkpt lat="48.78456" lon="2.4874">
        <ele>33</ele>
        <time>2024-01-22T10:05:29.057+00:00</time>
      </trkpt>
      <trkpt lat="48.78456" lon="2.48748">
        <ele>33</ele>
        <time>2024-01-22T10:05:33.241+00:00</time>
      </trkpt>
      <trkpt lat="48.78455" lon="2.48758">
        <ele>33</ele>
        <time>2024-01-22T10:05:37.786+00:00</time>
      </trkpt>
      <trkpt lat="48.78455" lon="2.48768">
        <ele>32</ele>
        <time>2024-01-22T10:05:42.333+00:00</time>
      </trkpt>
      <trkpt lat="48.78455" lon="2.4878">
        <ele>32</ele>
        <time>2024-01-22T10:05:46.397+00:00</time>
      </trkpt>
      <trkpt lat="48.78456" lon="2.48792">
        <ele>32</ele>
        <time>2024-01-22T10:05:50.821+00:00</time>
      </trkpt>
      <trkpt lat="48.78456" lon="2.48802">
        <ele>32</ele>
        <time>2024-01-22T10:05:55.364+00:00</time>
      </trkpt>
      <trkpt lat="48.78455" lon="2.48812">
        <ele>32</ele>
        <time>2024-01-22T10:06:00.007+00:00</time>
      </trkpt>
      <trkpt lat="48.78455" lon="2.48822">
        <ele>31</ele>
        <time>2024-01-22T10:06:04.432+00:00</time>
      </trkpt>
      <trkpt lat="48.78455" lon="2.48834">
        <ele>31</ele>
        <time>2024-01-22T10:06:08.975+00:00</time>
      </trkpt>
      <trkpt lat="48.78453" lon="2.48845">
        <ele>31</ele>
        <time>2024-01-22T10:06:13.518+00:00</time>
      </trkpt>
      <trkpt lat="48.78452" lon="2.4885">
        <ele>32</ele>
        <time>2024-01-22T10:06:17.526+00:00</time>
      </trkpt>
      <trkpt lat="48.78455" lon="2.48857">
        <ele>32</ele>
        <time>2024-01-22T10:07:09.247+00:00</time>
      </trkpt>
      <trkpt lat="48.78458" lon="2.48861">
        <ele>32</ele>
        <time>2024-01-22T10:07:13.885+00:00</time>
      </trkpt>
      <trkpt lat="48.78457" lon="2.48871">
        <ele>32</ele>
        <time>2024-01-22T10:07:17.761+00:00</time>
      </trkpt>
      <trkpt lat="48.78456" lon="2.48874">
        <ele>32</ele>
        <time>2024-01-22T10:07:22.287+00:00</time>
      </trkpt>
      <trkpt lat="48.78456" lon="2.48879">
        <ele>33</ele>
        <time>2024-01-22T10:07:25.856+00:00</time>
      </trkpt>
      <trkpt lat="48.78457" lon="2.48885">
        <ele>33</ele>
        <time>2024-01-22T10:07:30.641+00:00</time>
      </trkpt>
      <trkpt lat="48.78456" lon="2.48892">
        <ele>33</ele>
        <time>2024-01-22T10:07:35.260+00:00</time>
      </trkpt>
      <trkpt lat="48.78455" lon="2.489">
        <ele>33</ele>
        <time>2024-01-22T10:07:39.708+00:00</time>
      </trkpt>
      <trkpt lat="48.78455" lon="2.48907">
        <ele>34</ele>
        <time>2024-01-22T10:07:44.204+00:00</time>
      </trkpt>
      <trkpt lat="48.78452" lon="2.48915">
        <ele>34</ele>
        <time>2024-01-22T10:07:48.076+00:00</time>
      </trkpt>
      <trkpt lat="48.78451" lon="2.48925">
        <ele>34</ele>
        <time>2024-01-22T10:07:53.010+00:00</time>
      </trkpt>
      <trkpt lat="48.78452" lon="2.48933">
        <ele>34</ele>
        <time>2024-01-22T10:07:56.801+00:00</time>
      </trkpt>
      <trkpt lat="48.78452" lon="2.48942">
        <ele>34</ele>
        <time>2024-01-22T10:08:01.465+00:00</time>
      </trkpt>
      <trkpt lat="48.78451" lon="2.48951">
        <ele>34</ele>
        <time>2024-01-22T10:08:06.002+00:00</time>
      </trkpt>
      <trkpt lat="48.78451" lon="2.4896">
        <ele>35</ele>
        <time>2024-01-22T10:08:09.814+00:00</time>
      </trkpt>
      <trkpt lat="48.78451" lon="2.48969">
        <ele>35</ele>
        <time>2024-01-22T10:08:13.759+00:00</time>
      </trkpt>
      <trkpt lat="48.78451" lon="2.48979">
        <ele>35</ele>
        <time>2024-01-22T10:08:18.402+00:00</time>
      </trkpt>
      <trkpt lat="48.7845" lon="2.48989">
        <ele>35</ele>
        <time>2024-01-22T10:08:22.825+00:00</time>
      </trkpt>
      <trkpt lat="48.7845" lon="2.48998">
        <ele>35</ele>
        <time>2024-01-22T10:08:27.130+00:00</time>
      </trkpt>
      <trkpt lat="48.78451" lon="2.49009">
        <ele>35</ele>
        <time>2024-01-22T10:08:31.656+00:00</time>
      </trkpt>
      <trkpt lat="48.78451" lon="2.49018">
        <ele>34</ele>
        <time>2024-01-22T10:08:36.080+00:00</time>
      </trkpt>
      <trkpt lat="48.78451" lon="2.49029">
        <ele>34</ele>
        <time>2024-01-22T10:08:40.743+00:00</time>
      </trkpt>
      <trkpt lat="48.78451" lon="2.49039">
        <ele>34</ele>
        <time>2024-01-22T10:08:45.090+00:00</time>
      </trkpt>
      <trkpt lat="48.7845" lon="2.49045">
        <ele>33</ele>
        <time>2024-01-22T10:08:48.991+00:00</time>
      </trkpt>
      <trkpt lat="48.78448" lon="2.49055">
        <ele>33</ele>
        <time>2024-01-22T10:08:52.937+00:00</time>
      </trkpt>
      <trkpt lat="48.78448" lon="2.49064">
        <ele>33</ele>
        <time>2024-01-22T10:08:57.762+00:00</time>
      </trkpt>
      <trkpt lat="48.78448" lon="2.49071">
        <ele>33</ele>
        <time>2024-01-22T10:09:01.664+00:00</time>
      </trkpt>
      <trkpt lat="48.78447" lon="2.49079">
        <ele>33</ele>
        <time>2024-01-22T10:09:05.967+00:00</time>
      </trkpt>
      <trkpt lat="48.78447" lon="2.49088">
        <ele>33</ele>
        <time>2024-01-22T10:09:09.792+00:00</time>
      </trkpt>
      <trkpt lat="48.78449" lon="2.49099">
        <ele>33</ele>
        <time>2024-01-22T10:09:14.244+00:00</time>
      </trkpt>
      <trkpt lat="48.7845" lon="2.4911">
        <ele>33</ele>
        <time>2024-01-22T10:09:18.755+00:00</time>
      </trkpt>
      <trkpt lat="48.7845" lon="2.49119">
        <ele>33</ele>
        <time>2024-01-22T10:09:23.202+00:00</time>
      </trkpt>
      <trkpt lat="48.7845" lon="2.4913">
        <ele>34</ele>
        <time>2024-01-22T10:09:28.079+00:00</time>
      </trkpt>
      <trkpt lat="48.78448" lon="2.49139">
        <ele>34</ele>
        <time>2024-01-22T10:09:32.141+00:00</time>
      </trkpt>
      <trkpt lat="48.78448" lon="2.4915">
        <ele>34</ele>
        <time>2024-01-22T10:09:36.086+00:00</time>
      </trkpt>
      <trkpt lat="48.78449" lon="2.49161">
        <ele>33</ele>
        <time>2024-01-22T10:09:40.629+00:00</time>
      </trkpt>
      <trkpt lat="48.7845" lon="2.49169">
        <ele>33</ele>
        <time>2024-01-22T10:09:44.526+00:00</time>
      </trkpt>
      <trkpt lat="48.78452" lon="2.49179">
        <ele>33</ele>
        <time>2024-01-22T10:09:49.027+00:00</time>
      </trkpt>
      <trkpt lat="48.78452" lon="2.49188">
        <ele>33</ele>
        <time>2024-01-22T10:09:53.056+00:00</time>
      </trkpt>
      <trkpt lat="48.78452" lon="2.49198">
        <ele>33</ele>
        <time>2024-01-22T10:09:57.202+00:00</time>
      </trkpt>
      <trkpt lat="48.78452" lon="2.49207">
        <ele>33</ele>
        <time>2024-01-22T10:10:01.062+00:00</time>
      </trkpt>
      <trkpt lat="48.78453" lon="2.49213">
        <ele>33</ele>
        <time>2024-01-22T10:10:05.246+00:00</time>
      </trkpt>
      <trkpt lat="48.78454" lon="2.49222">
        <ele>33</ele>
        <time>2024-01-22T10:10:09.788+00:00</time>
      </trkpt>
      <trkpt lat="48.78454" lon="2.49233">
        <ele>33</ele>
        <time>2024-01-22T10:10:14.210+00:00</time>
      </trkpt>
      <trkpt lat="48.78454" lon="2.49243">
        <ele>34</ele>
        <time>2024-01-22T10:10:18.036+00:00</time>
      </trkpt>
      <trkpt lat="48.78455" lon="2.49254">
        <ele>34</ele>
        <time>2024-01-22T10:10:22.481+00:00</time>
      </trkpt>
      <trkpt lat="48.78456" lon="2.49264">
        <ele>34</ele>
        <time>2024-01-22T10:10:26.403+00:00</time>
      </trkpt>
      <trkpt lat="48.78457" lon="2.49275">
        <ele>34</ele>
        <time>2024-01-22T10:10:31.063+00:00</time>
      </trkpt>
      <trkpt lat="48.78457" lon="2.49285">
        <ele>34</ele>
        <time>2024-01-22T10:10:35.526+00:00</time>
      </trkpt>
      <trkpt lat="48.78458" lon="2.49296">
        <ele>34</ele>
        <time>2024-01-22T10:10:40.028+00:00</time>
      </trkpt>
      <trkpt lat="48.7846" lon="2.49307">
        <ele>34</ele>
        <time>2024-01-22T10:10:44.088+00:00</time>
      </trkpt>
      <trkpt lat="48.78458" lon="2.49313">
        <ele>34</ele>
        <time>2024-01-22T10:10:48.032+00:00</time>
      </trkpt>
      <trkpt lat="48.78458" lon="2.49322">
        <ele>35</ele>
        <time>2024-01-22T10:10:52.095+00:00</time>
      </trkpt>
      <trkpt lat="48.78459" lon="2.49334">
        <ele>35</ele>
        <time>2024-01-22T10:10:56.637+00:00</time>
      </trkpt>
      <trkpt lat="48.7846" lon="2.49342">
        <ele>35</ele>
        <time>2024-01-22T10:11:00.526+00:00</time>
      </trkpt>
      <trkpt lat="48.78462" lon="2.49352">
        <ele>36</ele>
        <time>2024-01-22T10:11:05.099+00:00</time>
      </trkpt>
      <trkpt lat="48.78463" lon="2.49361">
        <ele>36</ele>
        <time>2024-01-22T10:11:08.957+00:00</time>
      </trkpt>
      <trkpt lat="48.78462" lon="2.49367">
        <ele>36</ele>
        <time>2024-01-22T10:11:12.907+00:00</time>
      </trkpt>
      <trkpt lat="48.78463" lon="2.49374">
        <ele>36</ele>
        <time>2024-01-22T10:11:17.453+00:00</time>
      </trkpt>
      <trkpt lat="48.78465" lon="2.49382">
        <ele>36</ele>
        <time>2024-01-22T10:11:21.379+00:00</time>
      </trkpt>
      <trkpt lat="48.78468" lon="2.4939">
        <ele>36</ele>
        <time>2024-01-22T10:11:25.922+00:00</time>
      </trkpt>
      <trkpt lat="48.78469" lon="2.49396">
        <ele>36</ele>
        <time>2024-01-22T10:11:30.266+00:00</time>
      </trkpt>
      <trkpt lat="48.78469" lon="2.49406">
        <ele>37</ele>
        <time>2024-01-22T10:11:34.767+00:00</time>
      </trkpt>
      <trkpt lat="48.7847" lon="2.4942">
        <ele>37</ele>
        <time>2024-01-22T10:11:39.191+00:00</time>
      </trkpt>
      <trkpt lat="48.78471" lon="2.49431">
        <ele>37</ele>
        <time>2024-01-22T10:11:43.739+00:00</time>
      </trkpt>
      <trkpt lat="48.78472" lon="2.49437">
        <ele>38</ele>
        <time>2024-01-22T10:11:48.166+00:00</time>
      </trkpt>
      <trkpt lat="48.78471" lon="2.49443">
        <ele>38</ele>
        <time>2024-01-22T10:11:52.832+00:00</time>
      </trkpt>
      <trkpt lat="48.78469" lon="2.49453">
        <ele>38</ele>
        <time>2024-01-22T10:11:57.360+00:00</time>
      </trkpt>
      <trkpt lat="48.78468" lon="2.4946">
        <ele>37</ele>
        <time>2024-01-22T10:12:01.728+00:00</time>
      </trkpt>
      <trkpt lat="48.78468" lon="2.4947">
        <ele>37</ele>
        <time>2024-01-22T10:12:05.853+00:00</time>
      </trkpt>
      <trkpt lat="48.78468" lon="2.49481">
        <ele>37</ele>
        <time>2024-01-22T10:12:10.397+00:00</time>
      </trkpt>
      <trkpt lat="48.78467" lon="2.49491">
        <ele>34</ele>
        <time>2024-01-22T10:12:14.942+00:00</time>
      </trkpt>
      <trkpt lat="48.78467" lon="2.49501">
        <ele>34</ele>
        <time>2024-01-22T10:12:19.009+00:00</time>
      </trkpt>
      <trkpt lat="48.78468" lon="2.49511">
        <ele>34</ele>
        <time>2024-01-22T10:12:23.526+00:00</time>
      </trkpt>
      <trkpt lat="48.7847" lon="2.49518">
        <ele>32</ele>
        <time>2024-01-22T10:12:27.644+00:00</time>
      </trkpt>
      <trkpt lat="48.78471" lon="2.49526">
        <ele>32</ele>
        <time>2024-01-22T10:12:31.667+00:00</time>
      </trkpt>
      <trkpt lat="48.78471" lon="2.49537">
        <ele>32</ele>
        <time>2024-01-22T10:12:36.330+00:00</time>
      </trkpt>
      <trkpt lat="48.78472" lon="2.49551">
        <ele>32</ele>
        <time>2024-01-22T10:12:40.875+00:00</time>
      </trkpt>
      <trkpt lat="48.78474" lon="2.49561">
        <ele>32</ele>
        <time>2024-01-22T10:12:45.403+00:00</time>
      </trkpt>
      <trkpt lat="48.78475" lon="2.49569">
        <ele>32</ele>
        <time>2024-01-22T10:12:49.367+00:00</time>
      </trkpt>
      <trkpt lat="48.78476" lon="2.49579">
        <ele>32</ele>
        <time>2024-01-22T10:12:54.030+00:00</time>
      </trkpt>
      <trkpt lat="48.78477" lon="2.49588">
        <ele>32</ele>
        <time>2024-01-22T10:12:58.106+00:00</time>
      </trkpt>
      <trkpt lat="48.78478" lon="2.49597">
        <ele>32</ele>
        <time>2024-01-22T10:13:02.040+00:00</time>
      </trkpt>
      <trkpt lat="48.78479" lon="2.49608">
        <ele>33</ele>
        <time>2024-01-22T10:13:06.703+00:00</time>
      </trkpt>
      <trkpt lat="48.7848" lon="2.49618">
        <ele>33</ele>
        <time>2024-01-22T10:13:10.648+00:00</time>
      </trkpt>
      <trkpt lat="48.7848" lon="2.49626">
        <ele>33</ele>
        <time>2024-01-22T10:13:15.072+00:00</time>
      </trkpt>
      <trkpt lat="48.78481" lon="2.49631">
        <ele>33</ele>
        <time>2024-01-22T10:13:19.019+00:00</time>
      </trkpt>
      <trkpt lat="48.78481" lon="2.4964">
        <ele>33</ele>
        <time>2024-01-22T10:13:23.526+00:00</time>
      </trkpt>
      <trkpt lat="48.78481" lon="2.49648">
        <ele>33</ele>
        <time>2024-01-22T10:13:27.509+00:00</time>
      </trkpt>
      <trkpt lat="48.78482" lon="2.49654">
        <ele>35</ele>
        <time>2024-01-22T10:13:31.967+00:00</time>
      </trkpt>
      <trkpt lat="48.78483" lon="2.49662">
        <ele>35</ele>
        <time>2024-01-22T10:13:36.002+00:00</time>
      </trkpt>
      <trkpt lat="48.78484" lon="2.49671">
        <ele>35</ele>
        <time>2024-01-22T10:13:40.649+00:00</time>
      </trkpt>
      <trkpt lat="48.78486" lon="2.49681">
        <ele>36</ele>
        <time>2024-01-22T10:13:45.072+00:00</time>
      </trkpt>
      <trkpt lat="48.78487" lon="2.49691">
        <ele>36</ele>
        <time>2024-01-22T10:13:49.735+00:00</time>
      </trkpt>
      <trkpt lat="48.78488" lon="2.497">
        <ele>36</ele>
        <time>2024-01-22T10:13:53.864+00:00</time>
      </trkpt>
      <trkpt lat="48.78488" lon="2.49709">
        <ele>37</ele>
        <time>2024-01-22T10:13:57.749+00:00</time>
      </trkpt>
      <trkpt lat="48.78488" lon="2.4972">
        <ele>37</ele>
        <time>2024-01-22T10:14:02.174+00:00</time>
      </trkpt>
      <trkpt lat="48.78486" lon="2.49727">
        <ele>37</ele>
        <time>2024-01-22T10:14:06.101+00:00</time>
      </trkpt>
      <trkpt lat="48.78487" lon="2.49737">
        <ele>36</ele>
        <time>2024-01-22T10:14:10.645+00:00</time>
      </trkpt>
      <trkpt lat="48.78488" lon="2.49746">
        <ele>36</ele>
        <time>2024-01-22T10:14:15.044+00:00</time>
      </trkpt>
      <trkpt lat="48.78489" lon="2.49755">
        <ele>36</ele>
        <time>2024-01-22T10:14:19.117+00:00</time>
      </trkpt>
      <trkpt lat="48.7849" lon="2.49764">
        <ele>35</ele>
        <time>2024-01-22T10:14:23.526+00:00</time>
      </trkpt>
      <trkpt lat="48.7849" lon="2.49771">
        <ele>35</ele>
        <time>2024-01-22T10:14:27.608+00:00</time>
      </trkpt>
      <trkpt lat="48.7849" lon="2.4978">
        <ele>35</ele>
        <time>2024-01-22T10:14:32.034+00:00</time>
      </trkpt>
      <trkpt lat="48.78491" lon="2.49788">
        <ele>35</ele>
        <time>2024-01-22T10:14:36.100+00:00</time>
      </trkpt>
      <trkpt lat="48.78492" lon="2.49798">
        <ele>34</ele>
        <time>2024-01-22T10:14:40.643+00:00</time>
      </trkpt>
      <trkpt lat="48.78493" lon="2.49807">
        <ele>34</ele>
        <time>2024-01-22T10:14:44.827+00:00</time>
      </trkpt>
      <trkpt lat="48.78494" lon="2.49816">
        <ele>34</ele>
        <time>2024-01-22T10:14:49.901+00:00</time>
      </trkpt>
      <trkpt lat="48.78495" lon="2.49824">
        <ele>33</ele>
        <time>2024-01-22T10:14:54.392+00:00</time>
      </trkpt>
      <trkpt lat="48.78496" lon="2.49833">
        <ele>33</ele>
        <time>2024-01-22T10:14:59.415+00:00</time>
      </trkpt>
      <trkpt lat="48.78497" lon="2.49842">
        <ele>33</ele>
        <time>2024-01-22T10:15:03.958+00:00</time>
      </trkpt>
      <trkpt lat="48.78497" lon="2.49852">
        <ele>34</ele>
        <time>2024-01-22T10:15:08.381+00:00</time>
      </trkpt>
      <trkpt lat="48.78498" lon="2.49862">
        <ele>34</ele>
        <time>2024-01-22T10:15:12.805+00:00</time>
      </trkpt>
      <trkpt lat="48.78498" lon="2.49874">
        <ele>34</ele>
        <time>2024-01-22T10:15:17.348+00:00</time>
      </trkpt>
      <trkpt lat="48.78499" lon="2.49883">
        <ele>35</ele>
        <time>2024-01-22T10:15:21.526+00:00</time>
      </trkpt>
      <trkpt lat="48.785" lon="2.49894">
        <ele>35</ele>
        <time>2024-01-22T10:15:25.526+00:00</time>
      </trkpt>
      <trkpt lat="48.785" lon="2.49903">
        <ele>35</ele>
        <time>2024-01-22T10:15:30.088+00:00</time>
      </trkpt>
      <trkpt lat="48.78499" lon="2.4991">
        <ele>35</ele>
        <time>2024-01-22T10:15:34.091+00:00</time>
      </trkpt>
      <trkpt lat="48.78498" lon="2.49919">
        <ele>35</ele>
        <time>2024-01-22T10:15:38.515+00:00</time>
      </trkpt>
      <trkpt lat="48.78496" lon="2.49929">
        <ele>35</ele>
        <time>2024-01-22T10:15:42.979+00:00</time>
      </trkpt>
      <trkpt lat="48.78496" lon="2.49937">
        <ele>36</ele>
        <time>2024-01-22T10:15:46.524+00:00</time>
      </trkpt>
      <trkpt lat="48.78498" lon="2.49947">
        <ele>36</ele>
        <time>2024-01-22T10:15:51.261+00:00</time>
      </trkpt>
      <trkpt lat="48.785" lon="2.49955">
        <ele>36</ele>
        <time>2024-01-22T10:15:55.849+00:00</time>
      </trkpt>
      <trkpt lat="48.78499" lon="2.49964">
        <ele>37</ele>
        <time>2024-01-22T10:15:59.793+00:00</time>
      </trkpt>
      <trkpt lat="48.78499" lon="2.49973">
        <ele>37</ele>
        <time>2024-01-22T10:16:03.736+00:00</time>
      </trkpt>
      <trkpt lat="48.78497" lon="2.49983">
        <ele>37</ele>
        <time>2024-01-22T10:16:08.754+00:00</time>
      </trkpt>
      <trkpt lat="48.78496" lon="2.49991">
        <ele>37</ele>
        <time>2024-01-22T10:16:12.817+00:00</time>
      </trkpt>
      <trkpt lat="48.78496" lon="2.50001">
        <ele>37</ele>
        <time>2024-01-22T10:16:17.837+00:00</time>
      </trkpt>
      <trkpt lat="48.78495" lon="2.50012">
        <ele>37</ele>
        <time>2024-01-22T10:16:23.243+00:00</time>
      </trkpt>
      <trkpt lat="48.78495" lon="2.50019">
        <ele>36</ele>
        <time>2024-01-22T10:16:27.252+00:00</time>
      </trkpt>
      <trkpt lat="48.78495" lon="2.50027">
        <ele>36</ele>
        <time>2024-01-22T10:16:31.369+00:00</time>
      </trkpt>
      <trkpt lat="48.78494" lon="2.50038">
        <ele>36</ele>
        <time>2024-01-22T10:16:35.752+00:00</time>
      </trkpt>
      <trkpt lat="48.78494" lon="2.5005">
        <ele>35</ele>
        <time>2024-01-22T10:16:40.414+00:00</time>
      </trkpt>
      <trkpt lat="48.78495" lon="2.50058">
        <ele>35</ele>
        <time>2024-01-22T10:16:44.838+00:00</time>
      </trkpt>
      <trkpt lat="48.78494" lon="2.5007">
        <ele>34</ele>
        <time>2024-01-22T10:16:49.381+00:00</time>
      </trkpt>
      <trkpt lat="48.78493" lon="2.5008">
        <ele>34</ele>
        <time>2024-01-22T10:16:53.448+00:00</time>
      </trkpt>
      <trkpt lat="48.78492" lon="2.50089">
        <ele>34</ele>
        <time>2024-01-22T10:16:57.515+00:00</time>
      </trkpt>
      <trkpt lat="48.78492" lon="2.50099">
        <ele>34</ele>
        <time>2024-01-22T10:17:02.042+00:00</time>
      </trkpt>
      <trkpt lat="48.78493" lon="2.50107">
        <ele>34</ele>
        <time>2024-01-22T10:17:06.005+00:00</time>
      </trkpt>
      <trkpt lat="48.78493" lon="2.50117">
        <ele>34</ele>
        <time>2024-01-22T10:17:10.526+00:00</time>
      </trkpt>
      <trkpt lat="48.78494" lon="2.50126">
        <ele>34</ele>
        <time>2024-01-22T10:17:15.047+00:00</time>
      </trkpt>
      <trkpt lat="48.78493" lon="2.50137">
        <ele>34</ele>
        <time>2024-01-22T10:17:19.638+00:00</time>
      </trkpt>
      <trkpt lat="48.78494" lon="2.50146">
        <ele>34</ele>
        <time>2024-01-22T10:17:23.526+00:00</time>
      </trkpt>
      <trkpt lat="48.78493" lon="2.50154">
        <ele>34</ele>
        <time>2024-01-22T10:17:27.410+00:00</time>
      </trkpt>
      <trkpt lat="48.78492" lon="2.50163">
        <ele>34</ele>
        <time>2024-01-22T10:17:31.955+00:00</time>
      </trkpt>
      <trkpt lat="48.78492" lon="2.50173">
        <ele>34</ele>
        <time>2024-01-22T10:17:35.901+00:00</time>
      </trkpt>
      <trkpt lat="48.78491" lon="2.50182">
        <ele>35</ele>
        <time>2024-01-22T10:17:39.848+00:00</time>
      </trkpt>
      <trkpt lat="48.78485" lon="2.50188">
        <ele>35</ele>
        <time>2024-01-22T10:17:43.915+00:00</time>
      </trkpt>
      <trkpt lat="48.78483" lon="2.50199">
        <ele>35</ele>
        <time>2024-01-22T10:17:48.341+00:00</time>
      </trkpt>
      <trkpt lat="48.78482" lon="2.5021">
        <ele>37</ele>
        <time>2024-01-22T10:17:52.887+00:00</time>
      </trkpt>
      <trkpt lat="48.78482" lon="2.50219">
        <ele>37</ele>
        <time>2024-01-22T10:17:56.954+00:00</time>
      </trkpt>
      <trkpt lat="48.7848" lon="2.50226">
        <ele>37</ele>
        <time>2024-01-22T10:18:00.900+00:00</time>
      </trkpt>
      <trkpt lat="48.78478" lon="2.50237">
        <ele>37</ele>
        <time>2024-01-22T10:18:06.027+00:00</time>
      </trkpt>
      <trkpt lat="48.78478" lon="2.50245">
        <ele>37</ele>
        <time>2024-01-22T10:18:10.226+00:00</time>
      </trkpt>
      <trkpt lat="48.78479" lon="2.50253">
        <ele>37</ele>
        <time>2024-01-22T10:18:14.260+00:00</time>
      </trkpt>
      <trkpt lat="48.78479" lon="2.50261">
        <ele>37</ele>
        <time>2024-01-22T10:18:18.117+00:00</time>
      </trkpt>
      <trkpt lat="48.78479" lon="2.50269">
        <ele>37</ele>
        <time>2024-01-22T10:18:22.419+00:00</time>
      </trkpt>
      <trkpt lat="48.78477" lon="2.50277">
        <ele>37</ele>
        <time>2024-01-22T10:18:26.844+00:00</time>
      </trkpt>
      <trkpt lat="48.78476" lon="2.50286">
        <ele>37</ele>
        <time>2024-01-22T10:18:30.791+00:00</time>
      </trkpt>
      <trkpt lat="48.78475" lon="2.50296">
        <ele>36</ele>
        <time>2024-01-22T10:18:34.856+00:00</time>
      </trkpt>
      <trkpt lat="48.78477" lon="2.50304">
        <ele>36</ele>
        <time>2024-01-22T10:18:39.041+00:00</time>
      </trkpt>
      <trkpt lat="48.78477" lon="2.50315">
        <ele>36</ele>
        <time>2024-01-22T10:18:43.585+00:00</time>
      </trkpt>
      <trkpt lat="48.78478" lon="2.50325">
        <ele>35</ele>
        <time>2024-01-22T10:18:48.181+00:00</time>
      </trkpt>
      <trkpt lat="48.78478" lon="2.50335">
        <ele>35</ele>
        <time>2024-01-22T10:18:52.075+00:00</time>
      </trkpt>
      <trkpt lat="48.78476" lon="2.50344">
        <ele>35</ele>
        <time>2024-01-22T10:18:56.737+00:00</time>
      </trkpt>
      <trkpt lat="48.78475" lon="2.50354">
        <ele>35</ele>
        <time>2024-01-22T10:19:00.923+00:00</time>
      </trkpt>
      <trkpt lat="48.78477" lon="2.50365">
        <ele>35</ele>
        <time>2024-01-22T10:19:05.849+00:00</time>
      </trkpt>
      <trkpt lat="48.78477" lon="2.50371">
        <ele>35</ele>
        <time>2024-01-22T10:19:09.770+00:00</time>
      </trkpt>
      <trkpt lat="48.78473" lon="2.5038">
        <ele>35</ele>
        <time>2024-01-22T10:19:13.716+00:00</time>
      </trkpt>
      <trkpt lat="48.78469" lon="2.50389">
        <ele>35</ele>
        <time>2024-01-22T10:19:18.261+00:00</time>
      </trkpt>
      <trkpt lat="48.78467" lon="2.504">
        <ele>35</ele>
        <time>2024-01-22T10:19:22.526+00:00</time>
      </trkpt>
      <trkpt lat="48.78466" lon="2.50409">
        <ele>35</ele>
        <time>2024-01-22T10:19:26.629+00:00</time>
      </trkpt>
      <trkpt lat="48.78466" lon="2.50418">
        <ele>35</ele>
        <time>2024-01-22T10:19:31.179+00:00</time>
      </trkpt>
      <trkpt lat="48.7847" lon="2.50426">
        <ele>35</ele>
        <time>2024-01-22T10:19:35.249+00:00</time>
      </trkpt>
      <trkpt lat="48.78472" lon="2.50434">
        <ele>35</ele>
        <time>2024-01-22T10:19:39.440+00:00</time>
      </trkpt>
      <trkpt lat="48.78472" lon="2.50441">
        <ele>35</ele>
        <time>2024-01-22T10:19:43.631+00:00</time>
      </trkpt>
      <trkpt lat="48.78472" lon="2.5045">
        <ele>35</ele>
        <time>2024-01-22T10:19:47.767+00:00</time>
      </trkpt>
      <trkpt lat="48.7847" lon="2.50461">
        <ele>35</ele>
        <time>2024-01-22T10:19:52.235+00:00</time>
      </trkpt>
      <trkpt lat="48.78465" lon="2.5047">
        <ele>35</ele>
        <time>2024-01-22T10:19:56.751+00:00</time>
      </trkpt>
      <trkpt lat="48.78461" lon="2.50479">
        <ele>35</ele>
        <time>2024-01-22T10:20:01.182+00:00</time>
      </trkpt>
      <trkpt lat="48.7846" lon="2.50487">
        <ele>36</ele>
        <time>2024-01-22T10:20:05.131+00:00</time>
      </trkpt>
      <trkpt lat="48.78458" lon="2.50498">
        <ele>35</ele>
        <time>2024-01-22T10:20:09.677+00:00</time>
      </trkpt>
      <trkpt lat="48.78455" lon="2.50507">
        <ele>35</ele>
        <time>2024-01-22T10:20:14.165+00:00</time>
      </trkpt>
      <trkpt lat="48.78453" lon="2.50514">
        <ele>35</ele>
        <time>2024-01-22T10:20:18.016+00:00</time>
      </trkpt>
      <trkpt lat="48.78453" lon="2.50523">
        <ele>36</ele>
        <time>2024-01-22T10:20:23.047+00:00</time>
      </trkpt>
      <trkpt lat="48.78459" lon="2.50521">
        <ele>36</ele>
        <time>2024-01-22T10:20:33.099+00:00</time>
      </trkpt>
      <trkpt lat="48.7846" lon="2.50521">
        <ele>36</ele>
        <time>2024-01-22T10:20:38.231+00:00</time>
      </trkpt>
      <trkpt lat="48.7846" lon="2.50524">
        <ele>36</ele>
        <time>2024-01-22T10:20:42.429+00:00</time>
      </trkpt>
      <trkpt lat="48.78461" lon="2.50533">
        <ele>36</ele>
        <time>2024-01-22T10:20:46.908+00:00</time>
      </trkpt>
      <trkpt lat="48.78455" lon="2.50545">
        <ele>36</ele>
        <time>2024-01-22T10:20:51.962+00:00</time>
      </trkpt>
      <trkpt lat="48.78453" lon="2.50552">
        <ele>36</ele>
        <time>2024-01-22T10:20:55.829+00:00</time>
      </trkpt>
      <trkpt lat="48.7845" lon="2.5056">
        <ele>36</ele>
        <time>2024-01-22T10:21:00.136+00:00</time>
      </trkpt>
      <trkpt lat="48.78451" lon="2.50569">
        <ele>36</ele>
        <time>2024-01-22T10:21:04.526+00:00</time>
      </trkpt>
      <trkpt lat="48.78452" lon="2.50578">
        <ele>36</ele>
        <time>2024-01-22T10:21:09.103+00:00</time>
      </trkpt>
      <trkpt lat="48.78453" lon="2.50589">
        <ele>36</ele>
        <time>2024-01-22T10:21:13.525+00:00</time>
      </trkpt>
      <trkpt lat="48.78452" lon="2.50599">
        <ele>35</ele>
        <time>2024-01-22T10:21:18.067+00:00</time>
      </trkpt>
      <trkpt lat="48.7845" lon="2.50606">
        <ele>35</ele>
        <time>2024-01-22T10:21:22.011+00:00</time>
      </trkpt>
      <trkpt lat="48.7845" lon="2.50614">
        <ele>35</ele>
        <time>2024-01-22T10:21:26.433+00:00</time>
      </trkpt>
      <trkpt lat="48.7845" lon="2.50622">
        <ele>35</ele>
        <time>2024-01-22T10:21:30.377+00:00</time>
      </trkpt>
      <trkpt lat="48.7845" lon="2.5063">
        <ele>33</ele>
        <time>2024-01-22T10:21:34.981+00:00</time>
      </trkpt>
      <trkpt lat="48.78452" lon="2.50637">
        <ele>33</ele>
        <time>2024-01-22T10:21:38.980+00:00</time>
      </trkpt>
      <trkpt lat="48.78456" lon="2.50646">
        <ele>33</ele>
        <time>2024-01-22T10:21:43.526+00:00</time>
      </trkpt>
      <trkpt lat="48.78457" lon="2.50653">
        <ele>33</ele>
        <time>2024-01-22T10:21:47.526+00:00</time>
      </trkpt>
      <trkpt lat="48.78457" lon="2.50661">
        <ele>32</ele>
        <time>2024-01-22T10:21:52.114+00:00</time>
      </trkpt>
      <trkpt lat="48.78457" lon="2.50668">
        <ele>32</ele>
        <time>2024-01-22T10:21:56.041+00:00</time>
      </trkpt>
      <trkpt lat="48.78456" lon="2.50675">
        <ele>32</ele>
        <time>2024-01-22T10:22:00.223+00:00</time>
      </trkpt>
      <trkpt lat="48.78456" lon="2.50682">
        <ele>32</ele>
        <time>2024-01-22T10:22:04.248+00:00</time>
      </trkpt>
      <trkpt lat="48.78455" lon="2.50691">
        <ele>32</ele>
        <time>2024-01-22T10:22:08.685+00:00</time>
      </trkpt>
      <trkpt lat="48.78454" lon="2.50699">
        <ele>32</ele>
        <time>2024-01-22T10:22:12.652+00:00</time>
      </trkpt>
      <trkpt lat="48.78455" lon="2.50707">
        <ele>32</ele>
        <time>2024-01-22T10:22:17.268+00:00</time>
      </trkpt>
      <trkpt lat="48.78454" lon="2.50716">
        <ele>32</ele>
        <time>2024-01-22T10:22:21.732+00:00</time>
      </trkpt>
      <trkpt lat="48.78453" lon="2.50722">
        <ele>32</ele>
        <time>2024-01-22T10:22:25.676+00:00</time>
      </trkpt>
      <trkpt lat="48.78451" lon="2.5073">
        <ele>32</ele>
        <time>2024-01-22T10:22:29.978+00:00</time>
      </trkpt>
      <trkpt lat="48.78448" lon="2.50734">
        <ele>32</ele>
        <time>2024-01-22T10:22:33.802+00:00</time>
      </trkpt>
      <trkpt lat="48.78446" lon="2.50742">
        <ele>32</ele>
        <time>2024-01-22T10:22:38.267+00:00</time>
      </trkpt>
      <trkpt lat="48.78445" lon="2.50752">
        <ele>32</ele>
        <time>2024-01-22T10:22:42.717+00:00</time>
      </trkpt>
      <trkpt lat="48.78446" lon="2.50762">
        <ele>32</ele>
        <time>2024-01-22T10:22:46.689+00:00</time>
      </trkpt>
      <trkpt lat="48.78448" lon="2.50772">
        <ele>32</ele>
        <time>2024-01-22T10:22:50.631+00:00</time>
      </trkpt>
      <trkpt lat="48.78448" lon="2.50784">
        <ele>32</ele>
        <time>2024-01-22T10:22:54.526+00:00</time>
      </trkpt>
      <trkpt lat="48.78449" lon="2.50796">
        <ele>33</ele>
        <time>2024-01-22T10:22:59.234+00:00</time>
      </trkpt>
      <trkpt lat="48.78448" lon="2.50805">
        <ele>33</ele>
        <time>2024-01-22T10:23:03.417+00:00</time>
      </trkpt>
      <trkpt lat="48.78447" lon="2.50814">
        <ele>33</ele>
        <time>2024-01-22T10:23:07.961+00:00</time>
      </trkpt>
      <trkpt lat="48.78449" lon="2.50823">
        <ele>34</ele>
        <time>2024-01-22T10:23:12.030+00:00</time>
      </trkpt>
      <trkpt lat="48.78451" lon="2.50827">
        <ele>34</ele>
        <time>2024-01-22T10:23:13.825+00:00</time>
      </trkpt>
      <trkpt lat="48.78451" lon="2.50843">
        <ele>34</ele>
        <time>2024-01-22T10:23:22.756+00:00</time>
      </trkpt>
      <trkpt lat="48.78453" lon="2.50851">
        <ele>35</ele>
        <time>2024-01-22T10:23:26.668+00:00</time>
      </trkpt>
      <trkpt lat="48.78456" lon="2.50855">
        <ele>35</ele>
        <time>2024-01-22T10:23:31.099+00:00</time>
      </trkpt>
      <trkpt lat="48.78452" lon="2.50862">
        <ele>35</ele>
        <time>2024-01-22T10:23:35.050+00:00</time>
      </trkpt>
      <trkpt lat="48.78451" lon="2.50874">
        <ele>35</ele>
        <time>2024-01-22T10:23:39.526+00:00</time>
      </trkpt>
      <trkpt lat="48.78451" lon="2.50884">
        <ele>36</ele>
        <time>2024-01-22T10:23:44.145+00:00</time>
      </trkpt>
      <trkpt lat="48.78448" lon="2.50892">
        <ele>36</ele>
        <time>2024-01-22T10:23:48.692+00:00</time>
      </trkpt>
      <trkpt lat="48.78448" lon="2.50899">
        <ele>36</ele>
        <time>2024-01-22T10:23:52.639+00:00</time>
      </trkpt>
      <trkpt lat="48.78448" lon="2.50907">
        <ele>37</ele>
        <time>2024-01-22T10:23:57.232+00:00</time>
      </trkpt>
      <trkpt lat="48.78448" lon="2.50916">
        <ele>37</ele>
        <time>2024-01-22T10:24:01.013+00:00</time>
      </trkpt>
      <trkpt lat="48.7845" lon="2.50927">
        <ele>37</ele>
        <time>2024-01-22T10:24:05.437+00:00</time>
      </trkpt>
      <trkpt lat="48.78451" lon="2.50935">
        <ele>37</ele>
        <time>2024-01-22T10:24:09.526+00:00</time>
      </trkpt>
      <trkpt lat="48.78453" lon="2.50943">
        <ele>37</ele>
        <time>2024-01-22T10:24:14.024+00:00</time>
      </trkpt>
      <trkpt lat="48.78453" lon="2.50949">
        <ele>37</ele>
        <time>2024-01-22T10:24:17.968+00:00</time>
      </trkpt>
      <trkpt lat="48.78453" lon="2.50958">
        <ele>36</ele>
        <time>2024-01-22T10:24:22.454+00:00</time>
      </trkpt>
      <trkpt lat="48.78454" lon="2.50967">
        <ele>36</ele>
        <time>2024-01-22T10:24:26.339+00:00</time>
      </trkpt>
      <trkpt lat="48.78457" lon="2.50975">
        <ele>36</ele>
        <time>2024-01-22T10:24:30.516+00:00</time>
      </trkpt>
      <trkpt lat="48.78454" lon="2.50986">
        <ele>36</ele>
        <time>2024-01-22T10:24:34.710+00:00</time>
      </trkpt>
      <trkpt lat="48.78453" lon="2.50998">
        <ele>36</ele>
        <time>2024-01-22T10:24:39.732+00:00</time>
      </trkpt>
      <trkpt lat="48.78453" lon="2.51006">
        <ele>36</ele>
        <time>2024-01-22T10:24:43.918+00:00</time>
      </trkpt>
      <trkpt lat="48.78453" lon="2.51013">
        <ele>36</ele>
        <time>2024-01-22T10:24:47.865+00:00</time>
      </trkpt>
      <trkpt lat="48.78453" lon="2.51023">
        <ele>37</ele>
        <time>2024-01-22T10:24:52.526+00:00</time>
      </trkpt>
      <trkpt lat="48.78454" lon="2.51032">
        <ele>37</ele>
        <time>2024-01-22T10:24:56.526+00:00</time>
      </trkpt>
      <trkpt lat="48.78457" lon="2.51041">
        <ele>37</ele>
        <time>2024-01-22T10:25:01.257+00:00</time>
      </trkpt>
      <trkpt lat="48.7846" lon="2.5105">
        <ele>37</ele>
        <time>2024-01-22T10:25:05.322+00:00</time>
      </trkpt>
      <trkpt lat="48.78461" lon="2.51057">
        <ele>37</ele>
        <time>2024-01-22T10:25:09.880+00:00</time>
      </trkpt>
      <trkpt lat="48.78463" lon="2.51065">
        <ele>37</ele>
        <time>2024-01-22T10:25:13.974+00:00</time>
      </trkpt>
      <trkpt lat="48.78466" lon="2.51073">
        <ele>37</ele>
        <time>2024-01-22T10:25:17.978+00:00</time>
      </trkpt>
      <trkpt lat="48.78471" lon="2.51081">
        <ele>37</ele>
        <time>2024-01-22T10:25:22.044+00:00</time>
      </trkpt>
      <trkpt lat="48.78474" lon="2.5109">
        <ele>37</ele>
        <time>2024-01-22T10:25:25.989+00:00</time>
      </trkpt>
      <trkpt lat="48.78477" lon="2.51098">
        <ele>36</ele>
        <time>2024-01-22T10:25:30.293+00:00</time>
      </trkpt>
      <trkpt lat="48.78481" lon="2.51108">
        <ele>36</ele>
        <time>2024-01-22T10:25:34.819+00:00</time>
      </trkpt>
      <trkpt lat="48.78484" lon="2.51115">
        <ele>36</ele>
        <time>2024-01-22T10:25:39.243+00:00</time>
      </trkpt>
      <trkpt lat="48.78489" lon="2.51122">
        <ele>36</ele>
        <time>2024-01-22T10:25:43.998+00:00</time>
      </trkpt>
      <trkpt lat="48.78493" lon="2.51127">
        <ele>35</ele>
        <time>2024-01-22T10:25:47.853+00:00</time>
      </trkpt>
      <trkpt lat="48.78497" lon="2.5113">
        <ele>35</ele>
        <time>2024-01-22T10:25:51.799+00:00</time>
      </trkpt>
      <trkpt lat="48.78501" lon="2.51136">
        <ele>35</ele>
        <time>2024-01-22T10:25:56.701+00:00</time>
      </trkpt>
      <trkpt lat="48.78503" lon="2.51141">
        <ele>35</ele>
        <time>2024-01-22T10:26:01.158+00:00</time>
      </trkpt>
      <trkpt lat="48.78506" lon="2.51147">
        <ele>35</ele>
        <time>2024-01-22T10:26:05.072+00:00</time>
      </trkpt>
      <trkpt lat="48.78509" lon="2.51157">
        <ele>34</ele>
        <time>2024-01-22T10:26:09.855+00:00</time>
      </trkpt>
      <trkpt lat="48.78511" lon="2.51166">
        <ele>34</ele>
        <time>2024-01-22T10:26:14.397+00:00</time>
      </trkpt>
      <trkpt lat="48.78514" lon="2.51174">
        <ele>34</ele>
        <time>2024-01-22T10:26:19.041+00:00</time>
      </trkpt>
      <trkpt lat="48.78518" lon="2.51181">
        <ele>34</ele>
        <time>2024-01-22T10:26:23.226+00:00</time>
      </trkpt>
      <trkpt lat="48.78523" lon="2.51189">
        <ele>34</ele>
        <time>2024-01-22T10:26:27.770+00:00</time>
      </trkpt>
      <trkpt lat="48.78528" lon="2.51194">
        <ele>34</ele>
        <time>2024-01-22T10:26:31.716+00:00</time>
      </trkpt>
      <trkpt lat="48.78533" lon="2.51206">
        <ele>34</ele>
        <time>2024-01-22T10:26:36.236+00:00</time>
      </trkpt>
      <trkpt lat="48.78536" lon="2.51215">
        <ele>35</ele>
        <time>2024-01-22T10:26:40.086+00:00</time>
      </trkpt>
      <trkpt lat="48.78538" lon="2.51224">
        <ele>35</ele>
        <time>2024-01-22T10:26:44.733+00:00</time>
      </trkpt>
      <trkpt lat="48.78542" lon="2.5123">
        <ele>34</ele>
        <time>2024-01-22T10:26:48.681+00:00</time>
      </trkpt>
      <trkpt lat="48.78547" lon="2.51236">
        <ele>34</ele>
        <time>2024-01-22T10:26:53.251+00:00</time>
      </trkpt>
      <trkpt lat="48.78551" lon="2.51242">
        <ele>35</ele>
        <time>2024-01-22T10:26:57.774+00:00</time>
      </trkpt>
      <trkpt lat="48.78555" lon="2.51247">
        <ele>35</ele>
        <time>2024-01-22T10:27:02.200+00:00</time>
      </trkpt>
      <trkpt lat="48.78558" lon="2.51253">
        <ele>35</ele>
        <time>2024-01-22T10:27:06.265+00:00</time>
      </trkpt>
      <trkpt lat="48.78562" lon="2.51259">
        <ele>35</ele>
        <time>2024-01-22T10:27:10.449+00:00</time>
      </trkpt>
      <trkpt lat="48.78567" lon="2.51264">
        <ele>35</ele>
        <time>2024-01-22T10:27:15.112+00:00</time>
      </trkpt>
      <trkpt lat="48.78571" lon="2.51273">
        <ele>35</ele>
        <time>2024-01-22T10:27:19.654+00:00</time>
      </trkpt>
      <trkpt lat="48.78574" lon="2.51281">
        <ele>35</ele>
        <time>2024-01-22T10:27:23.742+00:00</time>
      </trkpt>
      <trkpt lat="48.78579" lon="2.51288">
        <ele>35</ele>
        <time>2024-01-22T10:27:28.258+00:00</time>
      </trkpt>
      <trkpt lat="48.78582" lon="2.51297">
        <ele>36</ele>
        <time>2024-01-22T10:27:32.209+00:00</time>
      </trkpt>
      <trkpt lat="48.78585" lon="2.51304">
        <ele>36</ele>
        <time>2024-01-22T10:27:36.154+00:00</time>
      </trkpt>
      <trkpt lat="48.78588" lon="2.51312">
        <ele>36</ele>
        <time>2024-01-22T10:27:40.526+00:00</time>
      </trkpt>
      <trkpt lat="48.78595" lon="2.51318">
        <ele>36</ele>
        <time>2024-01-22T10:27:44.390+00:00</time>
      </trkpt>
      <trkpt lat="48.78599" lon="2.51324">
        <ele>36</ele>
        <time>2024-01-22T10:27:48.457+00:00</time>
      </trkpt>
      <trkpt lat="48.78604" lon="2.51329">
        <ele>36</ele>
        <time>2024-01-22T10:27:52.642+00:00</time>
      </trkpt>
      <trkpt lat="48.78607" lon="2.51336">
        <ele>36</ele>
        <time>2024-01-22T10:27:56.709+00:00</time>
      </trkpt>
      <trkpt lat="48.7861" lon="2.51342">
        <ele>36</ele>
        <time>2024-01-22T10:28:00.526+00:00</time>
      </trkpt>
      <trkpt lat="48.78615" lon="2.51348">
        <ele>37</ele>
        <time>2024-01-22T10:28:05.079+00:00</time>
      </trkpt>
      <trkpt lat="48.78619" lon="2.51355">
        <ele>37</ele>
        <time>2024-01-22T10:28:09.503+00:00</time>
      </trkpt>
      <trkpt lat="48.7862" lon="2.51365">
        <ele>37</ele>
        <time>2024-01-22T10:28:14.047+00:00</time>
      </trkpt>
      <trkpt lat="48.78621" lon="2.51375">
        <ele>37</ele>
        <time>2024-01-22T10:28:18.710+00:00</time>
      </trkpt>
      <trkpt lat="48.78622" lon="2.51383">
        <ele>38</ele>
        <time>2024-01-22T10:28:22.656+00:00</time>
      </trkpt>
      <trkpt lat="48.78624" lon="2.51388">
        <ele>38</ele>
        <time>2024-01-22T10:28:26.484+00:00</time>
      </trkpt>
      <trkpt lat="48.78626" lon="2.51394">
        <ele>38</ele>
        <time>2024-01-22T10:28:30.669+00:00</time>
      </trkpt>
      <trkpt lat="48.78629" lon="2.51401">
        <ele>38</ele>
        <time>2024-01-22T10:28:35.259+00:00</time>
      </trkpt>
      <trkpt lat="48.7863" lon="2.5141">
        <ele>38</ele>
        <time>2024-01-22T10:28:39.161+00:00</time>
      </trkpt>
      <trkpt lat="48.78631" lon="2.51424">
        <ele>38</ele>
        <time>2024-01-22T10:28:44.223+00:00</time>
      </trkpt>
      <trkpt lat="48.78635" lon="2.51435">
        <ele>37</ele>
        <time>2024-01-22T10:28:48.317+00:00</time>
      </trkpt>
      <trkpt lat="48.78638" lon="2.51444">
        <ele>37</ele>
        <time>2024-01-22T10:28:53.004+00:00</time>
      </trkpt>
      <trkpt lat="48.78639" lon="2.51447">
        <ele>37</ele>
        <time>2024-01-22T10:28:54.081+00:00</time>
      </trkpt>
      <trkpt lat="48.78643" lon="2.51468">
        <ele>35</ele>
        <time>2024-01-22T10:29:02.834+00:00</time>
      </trkpt>
      <trkpt lat="48.78645" lon="2.51474">
        <ele>35</ele>
        <time>2024-01-22T10:29:06.840+00:00</time>
      </trkpt>
      <trkpt lat="48.78646" lon="2.51482">
        <ele>35</ele>
        <time>2024-01-22T10:29:10.845+00:00</time>
      </trkpt>
      <trkpt lat="48.78647" lon="2.51492">
        <ele>34</ele>
        <time>2024-01-22T10:29:14.852+00:00</time>
      </trkpt>
      <trkpt lat="48.78649" lon="2.51502">
        <ele>34</ele>
        <time>2024-01-22T10:29:18.858+00:00</time>
      </trkpt>
      <trkpt lat="48.7865" lon="2.51512">
        <ele>34</ele>
        <time>2024-01-22T10:29:23.869+00:00</time>
      </trkpt>
      <trkpt lat="48.78653" lon="2.51518">
        <ele>34</ele>
        <time>2024-01-22T10:29:27.953+00:00</time>
      </trkpt>
      <trkpt lat="48.78655" lon="2.51527">
        <ele>34</ele>
        <time>2024-01-22T10:29:32.354+00:00</time>
      </trkpt>
      <trkpt lat="48.78655" lon="2.51541">
        <ele>34</ele>
        <time>2024-01-22T10:29:36.806+00:00</time>
      </trkpt>
      <trkpt lat="48.78657" lon="2.5155">
        <ele>34</ele>
        <time>2024-01-22T10:29:40.941+00:00</time>
      </trkpt>
      <trkpt lat="48.7866" lon="2.51562">
        <ele>34</ele>
        <time>2024-01-22T10:29:45.614+00:00</time>
      </trkpt>
      <trkpt lat="48.78663" lon="2.51571">
        <ele>35</ele>
        <time>2024-01-22T10:29:50.167+00:00</time>
      </trkpt>
      <trkpt lat="48.78664" lon="2.51583">
        <ele>35</ele>
        <time>2024-01-22T10:29:54.121+00:00</time>
      </trkpt>
      <trkpt lat="48.78666" lon="2.51595">
        <ele>35</ele>
        <time>2024-01-22T10:29:58.526+00:00</time>
      </trkpt>
      <trkpt lat="48.78668" lon="2.516">
        <ele>36</ele>
        <time>2024-01-22T10:30:03.048+00:00</time>
      </trkpt>
      <trkpt lat="48.78669" lon="2.51606">
        <ele>36</ele>
        <time>2024-01-22T10:30:07.718+00:00</time>
      </trkpt>
      <trkpt lat="48.78671" lon="2.51615">
        <ele>36</ele>
        <time>2024-01-22T10:30:12.235+00:00</time>
      </trkpt>
      <trkpt lat="48.78673" lon="2.51624">
        <ele>36</ele>
        <time>2024-01-22T10:30:16.696+00:00</time>
      </trkpt>
      <trkpt lat="48.78675" lon="2.51631">
        <ele>37</ele>
        <time>2024-01-22T10:30:21.174+00:00</time>
      </trkpt>
      <trkpt lat="48.78679" lon="2.51638">
        <ele>37</ele>
        <time>2024-01-22T10:30:25.671+00:00</time>
      </trkpt>
      <trkpt lat="48.78683" lon="2.51642">
        <ele>36</ele>
        <time>2024-01-22T10:30:30.219+00:00</time>
      </trkpt>
      <trkpt lat="48.78687" lon="2.51648">
        <ele>36</ele>
        <time>2024-01-22T10:30:34.767+00:00</time>
      </trkpt>
      <trkpt lat="48.7869" lon="2.51654">
        <ele>36</ele>
        <time>2024-01-22T10:30:39.435+00:00</time>
      </trkpt>
      <trkpt lat="48.78692" lon="2.51662">
        <ele>36</ele>
        <time>2024-01-22T10:30:43.743+00:00</time>
      </trkpt>
      <trkpt lat="48.78695" lon="2.51673">
        <ele>36</ele>
        <time>2024-01-22T10:30:48.171+00:00</time>
      </trkpt>
      <trkpt lat="48.78697" lon="2.51684">
        <ele>36</ele>
        <time>2024-01-22T10:30:52.836+00:00</time>
      </trkpt>
      <trkpt lat="48.787" lon="2.51695">
        <ele>36</ele>
        <time>2024-01-22T10:30:57.262+00:00</time>
      </trkpt>
      <trkpt lat="48.78703" lon="2.51702">
        <ele>36</ele>
        <time>2024-01-22T10:31:01.274+00:00</time>
      </trkpt>
      <trkpt lat="48.78708" lon="2.5171">
        <ele>36</ele>
        <time>2024-01-22T10:31:05.872+00:00</time>
      </trkpt>
      <trkpt lat="48.78711" lon="2.51714">
        <ele>35</ele>
        <time>2024-01-22T10:31:08.784+00:00</time>
      </trkpt>
      <trkpt lat="48.7872" lon="2.51731">
        <ele>35</ele>
        <time>2024-01-22T10:31:18.032+00:00</time>
      </trkpt>
      <trkpt lat="48.78725" lon="2.51738">
        <ele>35</ele>
        <time>2024-01-22T10:31:23.164+00:00</time>
      </trkpt>
      <trkpt lat="48.78729" lon="2.51746">
        <ele>35</ele>
        <time>2024-01-22T10:31:27.254+00:00</time>
      </trkpt>
      <trkpt lat="48.78732" lon="2.51753">
        <ele>35</ele>
        <time>2024-01-22T10:31:31.760+00:00</time>
      </trkpt>
      <trkpt lat="48.78735" lon="2.5176">
        <ele>35</ele>
        <time>2024-01-22T10:31:35.768+00:00</time>
      </trkpt>
      <trkpt lat="48.7874" lon="2.51769">
        <ele>35</ele>
        <time>2024-01-22T10:31:40.277+00:00</time>
      </trkpt>
      <trkpt lat="48.78744" lon="2.51779">
        <ele>35</ele>
        <time>2024-01-22T10:31:44.285+00:00</time>
      </trkpt>
      <trkpt lat="48.78749" lon="2.51788">
        <ele>35</ele>
        <time>2024-01-22T10:31:48.795+00:00</time>
      </trkpt>
      <trkpt lat="48.78752" lon="2.51791">
        <ele>35</ele>
        <time>2024-01-22T10:31:52.804+00:00</time>
      </trkpt>
      <trkpt lat="48.78756" lon="2.51796">
        <ele>34</ele>
        <time>2024-01-22T10:31:56.815+00:00</time>
      </trkpt>
      <trkpt lat="48.78762" lon="2.51802">
        <ele>34</ele>
        <time>2024-01-22T10:32:01.325+00:00</time>
      </trkpt>
      <trkpt lat="48.78767" lon="2.51802">
        <ele>35</ele>
        <time>2024-01-22T10:32:05.334+00:00</time>
      </trkpt>
      <trkpt lat="48.78772" lon="2.51803">
        <ele>35</ele>
        <time>2024-01-22T10:32:09.442+00:00</time>
      </trkpt>
      <trkpt lat="48.78776" lon="2.51813">
        <ele>35</ele>
        <time>2024-01-22T10:32:13.956+00:00</time>
      </trkpt>
      <trkpt lat="48.78778" lon="2.51822">
        <ele>36</ele>
        <time>2024-01-22T10:32:18.020+00:00</time>
      </trkpt>
      <trkpt lat="48.78781" lon="2.51828">
        <ele>36</ele>
        <time>2024-01-22T10:32:21.798+00:00</time>
      </trkpt>
      <trkpt lat="48.78789" lon="2.51834">
        <ele>36</ele>
        <time>2024-01-22T10:32:26.353+00:00</time>
      </trkpt>
      <trkpt lat="48.78795" lon="2.51839">
        <ele>37</ele>
        <time>2024-01-22T10:32:30.787+00:00</time>
      </trkpt>
      <trkpt lat="48.788" lon="2.51845">
        <ele>37</ele>
        <time>2024-01-22T10:32:35.442+00:00</time>
      </trkpt>
      <trkpt lat="48.78806" lon="2.51852">
        <ele>38</ele>
        <time>2024-01-22T10:32:40.113+00:00</time>
      </trkpt>
      <trkpt lat="48.78812" lon="2.51859">
        <ele>38</ele>
        <time>2024-01-22T10:32:44.642+00:00</time>
      </trkpt>
      <trkpt lat="48.78815" lon="2.51867">
        <ele>38</ele>
        <time>2024-01-22T10:32:49.076+00:00</time>
      </trkpt>
      <trkpt lat="48.78818" lon="2.51872">
        <ele>38</ele>
        <time>2024-01-22T10:32:51.954+00:00</time>
      </trkpt>
      <trkpt lat="48.78827" lon="2.51877">
        <ele>37</ele>
        <time>2024-01-22T10:33:01.030+00:00</time>
      </trkpt>
      <trkpt lat="48.78831" lon="2.51882">
        <ele>37</ele>
        <time>2024-01-22T10:33:05.253+00:00</time>
      </trkpt>
      <trkpt lat="48.78837" lon="2.51889">
        <ele>37</ele>
        <time>2024-01-22T10:33:09.750+00:00</time>
      </trkpt>
      <trkpt lat="48.78842" lon="2.51896">
        <ele>37</ele>
        <time>2024-01-22T10:33:13.824+00:00</time>
      </trkpt>
      <trkpt lat="48.78848" lon="2.51904">
        <ele>37</ele>
        <time>2024-01-22T10:33:17.779+00:00</time>
      </trkpt>
      <trkpt lat="48.78853" lon="2.51912">
        <ele>37</ele>
        <time>2024-01-22T10:33:23.051+00:00</time>
      </trkpt>
      <trkpt lat="48.78861" lon="2.51921">
        <ele>37</ele>
        <time>2024-01-22T10:33:31.607+00:00</time>
      </trkpt>
      <trkpt lat="48.78866" lon="2.51924">
        <ele>37</ele>
        <time>2024-01-22T10:33:35.615+00:00</time>
      </trkpt>
      <trkpt lat="48.78871" lon="2.51931">
        <ele>37</ele>
        <time>2024-01-22T10:33:40.776+00:00</time>
      </trkpt>
      <trkpt lat="48.78877" lon="2.51938">
        <ele>36</ele>
        <time>2024-01-22T10:33:44.938+00:00</time>
      </trkpt>
      <trkpt lat="48.78882" lon="2.51944">
        <ele>36</ele>
        <time>2024-01-22T10:33:48.817+00:00</time>
      </trkpt>
      <trkpt lat="48.78887" lon="2.51951">
        <ele>36</ele>
        <time>2024-01-22T10:33:53.736+00:00</time>
      </trkpt>
      <trkpt lat="48.78892" lon="2.51955">
        <ele>36</ele>
        <time>2024-01-22T10:33:57.750+00:00</time>
      </trkpt>
      <trkpt lat="48.78898" lon="2.51958">
        <ele>36</ele>
        <time>2024-01-22T10:34:01.822+00:00</time>
      </trkpt>
      <trkpt lat="48.78904" lon="2.51963">
        <ele>36</ele>
        <time>2024-01-22T10:34:05.774+00:00</time>
      </trkpt>
      <trkpt lat="48.7891" lon="2.51969">
        <ele>36</ele>
        <time>2024-01-22T10:34:10.444+00:00</time>
      </trkpt>
      <trkpt lat="48.78915" lon="2.51975">
        <ele>36</ele>
        <time>2024-01-22T10:34:14.994+00:00</time>
      </trkpt>
      <trkpt lat="48.7892" lon="2.51981">
        <ele>36</ele>
        <time>2024-01-22T10:34:19.525+00:00</time>
      </trkpt>
      <trkpt lat="48.78926" lon="2.51986">
        <ele>36</ele>
        <time>2024-01-22T10:34:23.526+00:00</time>
      </trkpt>
      <trkpt lat="48.78931" lon="2.51992">
        <ele>36</ele>
        <time>2024-01-22T10:34:28.144+00:00</time>
      </trkpt>
      <trkpt lat="48.78938" lon="2.51998">
        <ele>36</ele>
        <time>2024-01-22T10:34:33.198+00:00</time>
      </trkpt>
      <trkpt lat="48.78943" lon="2.52007">
        <ele>36</ele>
        <time>2024-01-22T10:34:37.723+00:00</time>
      </trkpt>
      <trkpt lat="48.78947" lon="2.52015">
        <ele>37</ele>
        <time>2024-01-22T10:34:42.255+00:00</time>
      </trkpt>
      <trkpt lat="48.78953" lon="2.52018">
        <ele>37</ele>
        <time>2024-01-22T10:34:46.342+00:00</time>
      </trkpt>
      <trkpt lat="48.78959" lon="2.52021">
        <ele>35</ele>
        <time>2024-01-22T10:34:50.972+00:00</time>
      </trkpt>
      <trkpt lat="48.78965" lon="2.52024">
        <ele>35</ele>
        <time>2024-01-22T10:34:55.438+00:00</time>
      </trkpt>
      <trkpt lat="48.7897" lon="2.52028">
        <ele>35</ele>
        <time>2024-01-22T10:34:59.987+00:00</time>
      </trkpt>
      <trkpt lat="48.78974" lon="2.52034">
        <ele>35</ele>
        <time>2024-01-22T10:35:05.074+00:00</time>
      </trkpt>
      <trkpt lat="48.7898" lon="2.52039">
        <ele>35</ele>
        <time>2024-01-22T10:35:10.055+00:00</time>
      </trkpt>
      <trkpt lat="48.78987" lon="2.52041">
        <ele>36</ele>
        <time>2024-01-22T10:35:14.032+00:00</time>
      </trkpt>
      <trkpt lat="48.78995" lon="2.52046">
        <ele>35</ele>
        <time>2024-01-22T10:35:18.698+00:00</time>
      </trkpt>
      <trkpt lat="48.79001" lon="2.52051">
        <ele>35</ele>
        <time>2024-01-22T10:35:23.228+00:00</time>
      </trkpt>
      <trkpt lat="48.79005" lon="2.52057">
        <ele>35</ele>
        <time>2024-01-22T10:35:27.198+00:00</time>
      </trkpt>
      <trkpt lat="48.7901" lon="2.52062">
        <ele>35</ele>
        <time>2024-01-22T10:35:31.689+00:00</time>
      </trkpt>
      <trkpt lat="48.79017" lon="2.52067">
        <ele>35</ele>
        <time>2024-01-22T10:35:36.118+00:00</time>
      </trkpt>
      <trkpt lat="48.79024" lon="2.5207">
        <ele>34</ele>
        <time>2024-01-22T10:35:40.068+00:00</time>
      </trkpt>
      <trkpt lat="48.79029" lon="2.52074">
        <ele>34</ele>
        <time>2024-01-22T10:35:44.639+00:00</time>
      </trkpt>
      <trkpt lat="48.79033" lon="2.52078">
        <ele>34</ele>
        <time>2024-01-22T10:35:48.683+00:00</time>
      </trkpt>
      <trkpt lat="48.79037" lon="2.52082">
        <ele>34</ele>
        <time>2024-01-22T10:35:53.231+00:00</time>
      </trkpt>
      <trkpt lat="48.79043" lon="2.52084">
        <ele>34</ele>
        <time>2024-01-22T10:35:57.722+00:00</time>
      </trkpt>
      <trkpt lat="48.79049" lon="2.52083">
        <ele>34</ele>
        <time>2024-01-22T10:36:01.847+00:00</time>
      </trkpt>
      <trkpt lat="48.79055" lon="2.52081">
        <ele>34</ele>
        <time>2024-01-22T10:36:06.634+00:00</time>
      </trkpt>
      <trkpt lat="48.7906" lon="2.52079">
        <ele>34</ele>
        <time>2024-01-22T10:36:10.822+00:00</time>
      </trkpt>
      <trkpt lat="48.79065" lon="2.5208">
        <ele>34</ele>
        <time>2024-01-22T10:36:14.772+00:00</time>
      </trkpt>
      <trkpt lat="48.79071" lon="2.52079">
        <ele>35</ele>
        <time>2024-01-22T10:36:19.250+00:00</time>
      </trkpt>
      <trkpt lat="48.79076" lon="2.52079">
        <ele>35</ele>
        <time>2024-01-22T10:36:23.147+00:00</time>
      </trkpt>
      <trkpt lat="48.79081" lon="2.52081">
        <ele>35</ele>
        <time>2024-01-22T10:36:27.693+00:00</time>
      </trkpt>
      <trkpt lat="48.79081" lon="2.52087">
        <ele>35</ele>
        <time>2024-01-22T10:36:31.639+00:00</time>
      </trkpt>
      <trkpt lat="48.79078" lon="2.52096">
        <ele>35</ele>
        <time>2024-01-22T10:36:36.065+00:00</time>
      </trkpt>
      <trkpt lat="48.79077" lon="2.52104">
        <ele>35</ele>
        <time>2024-01-22T10:36:40.850+00:00</time>
      </trkpt>
      <trkpt lat="48.79074" lon="2.52109">
        <ele>35</ele>
        <time>2024-01-22T10:36:45.517+00:00</time>
      </trkpt>
      <trkpt lat="48.7907" lon="2.52117">
        <ele>35</ele>
        <time>2024-01-22T10:36:50.066+00:00</time>
      </trkpt>
      <trkpt lat="48.79066" lon="2.52126">
        <ele>34</ele>
        <time>2024-01-22T10:36:54.132+00:00</time>
      </trkpt>
      <trkpt lat="48.79062" lon="2.52136">
        <ele>34</ele>
        <time>2024-01-22T10:36:58.678+00:00</time>
      </trkpt>
      <trkpt lat="48.79059" lon="2.52145">
        <ele>34</ele>
        <time>2024-01-22T10:37:03.269+00:00</time>
      </trkpt>
      <trkpt lat="48.79055" lon="2.52156">
        <ele>36</ele>
        <time>2024-01-22T10:37:07.771+00:00</time>
      </trkpt>
      <trkpt lat="48.79052" lon="2.52164">
        <ele>36</ele>
        <time>2024-01-22T10:37:12.389+00:00</time>
      </trkpt>
      <trkpt lat="48.7905" lon="2.52172">
        <ele>36</ele>
        <time>2024-01-22T10:37:16.860+00:00</time>
      </trkpt>
      <trkpt lat="48.79047" lon="2.52179">
        <ele>36</ele>
        <time>2024-01-22T10:37:21.047+00:00</time>
      </trkpt>
      <trkpt lat="48.79044" lon="2.52188">
        <ele>36</ele>
        <time>2024-01-22T10:37:25.526+00:00</time>
      </trkpt>
      <trkpt lat="48.7904" lon="2.52197">
        <ele>36</ele>
        <time>2024-01-22T10:37:30.024+00:00</time>
      </trkpt>
      <trkpt lat="48.79036" lon="2.52205">
        <ele>36</ele>
        <time>2024-01-22T10:37:33.972+00:00</time>
      </trkpt>
      <trkpt lat="48.79032" lon="2.52213">
        <ele>37</ele>
        <time>2024-01-22T10:37:38.574+00:00</time>
      </trkpt>
      <trkpt lat="48.79027" lon="2.5222">
        <ele>37</ele>
        <time>2024-01-22T10:37:42.526+00:00</time>
      </trkpt>
      <trkpt lat="48.79022" lon="2.52226">
        <ele>37</ele>
        <time>2024-01-22T10:37:46.651+00:00</time>
      </trkpt>
      <trkpt lat="48.79018" lon="2.52233">
        <ele>37</ele>
        <time>2024-01-22T10:37:51.077+00:00</time>
      </trkpt>
      <trkpt lat="48.79011" lon="2.52252">
        <ele>36</ele>
        <time>2024-01-22T10:38:13.794+00:00</time>
      </trkpt>
      <trkpt lat="48.79017" lon="2.52259">
        <ele>37</ele>
        <time>2024-01-22T10:38:18.354+00:00</time>
      </trkpt>
      <trkpt lat="48.7902" lon="2.52268">
        <ele>38</ele>
        <time>2024-01-22T10:38:23.001+00:00</time>
      </trkpt>
      <trkpt lat="48.79022" lon="2.52275">
        <ele>38</ele>
        <time>2024-01-22T10:38:27.840+00:00</time>
      </trkpt>
      <trkpt lat="48.79024" lon="2.52279">
        <ele>38</ele>
        <time>2024-01-22T10:38:31.846+00:00</time>
      </trkpt>
      <trkpt lat="48.79022" lon="2.52282">
        <ele>38</ele>
        <time>2024-01-22T10:38:36.349+00:00</time>
      </trkpt>
      <trkpt lat="48.79015" lon="2.52292">
        <ele>39</ele>
        <time>2024-01-22T10:38:40.853+00:00</time>
      </trkpt>
      <trkpt lat="48.79011" lon="2.52299">
        <ele>38</ele>
        <time>2024-01-22T10:38:45.712+00:00</time>
      </trkpt>
      <trkpt lat="48.79009" lon="2.52305">
        <ele>38</ele>
        <time>2024-01-22T10:38:49.526+00:00</time>
      </trkpt>
      <trkpt lat="48.79011" lon="2.52315">
        <ele>38</ele>
        <time>2024-01-22T10:38:54.141+00:00</time>
      </trkpt>
      <trkpt lat="48.79011" lon="2.52327">
        <ele>42</ele>
        <time>2024-01-22T10:38:58.634+00:00</time>
      </trkpt>
      <trkpt lat="48.79013" lon="2.52337">
        <ele>42</ele>
        <time>2024-01-22T10:39:03.065+00:00</time>
      </trkpt>
      <trkpt lat="48.79013" lon="2.52345">
        <ele>42</ele>
        <time>2024-01-22T10:39:07.017+00:00</time>
      </trkpt>
      <trkpt lat="48.79008" lon="2.5235">
        <ele>46</ele>
        <time>2024-01-22T10:39:11.359+00:00</time>
      </trkpt>
      <trkpt lat="48.79008" lon="2.52357">
        <ele>46</ele>
        <time>2024-01-22T10:39:15.400+00:00</time>
      </trkpt>
      <trkpt lat="48.7901" lon="2.52365">
        <ele>46</ele>
        <time>2024-01-22T10:39:19.351+00:00</time>
      </trkpt>
      <trkpt lat="48.79012" lon="2.52372">
        <ele>46</ele>
        <time>2024-01-22T10:39:23.781+00:00</time>
      </trkpt>
      <trkpt lat="48.79014" lon="2.5238">
        <ele>47</ele>
        <time>2024-01-22T10:39:28.246+00:00</time>
      </trkpt>
      <trkpt lat="48.79018" lon="2.5239">
        <ele>47</ele>
        <time>2024-01-22T10:39:33.203+00:00</time>
      </trkpt>
      <trkpt lat="48.7902" lon="2.52394">
        <ele>47</ele>
        <time>2024-01-22T10:39:37.526+00:00</time>
      </trkpt>
      <trkpt lat="48.79023" lon="2.52399">
        <ele>47</ele>
        <time>2024-01-22T10:39:41.857+00:00</time>
      </trkpt>
      <trkpt lat="48.79025" lon="2.52403">
        <ele>51</ele>
        <time>2024-01-22T10:39:45.808+00:00</time>
      </trkpt>
      <trkpt lat="48.79029" lon="2.52409">
        <ele>51</ele>
        <time>2024-01-22T10:39:50.478+00:00</time>
      </trkpt>
      <trkpt lat="48.7903" lon="2.52421">
        <ele>51</ele>
        <time>2024-01-22T10:39:54.906+00:00</time>
      </trkpt>
      <trkpt lat="48.79032" lon="2.52432">
        <ele>56</ele>
        <time>2024-01-22T10:39:59.335+00:00</time>
      </trkpt>
      <trkpt lat="48.79038" lon="2.52439">
        <ele>56</ele>
        <time>2024-01-22T10:40:04.002+00:00</time>
      </trkpt>
      <trkpt lat="48.79041" lon="2.52443">
        <ele>56</ele>
        <time>2024-01-22T10:40:07.950+00:00</time>
      </trkpt>
      <trkpt lat="48.79043" lon="2.52448">
        <ele>54</ele>
        <time>2024-01-22T10:40:12.526+00:00</time>
      </trkpt>
      <trkpt lat="48.79048" lon="2.5245">
        <ele>54</ele>
        <time>2024-01-22T10:40:17.051+00:00</time>
      </trkpt>
      <trkpt lat="48.79051" lon="2.5245">
        <ele>54</ele>
        <time>2024-01-22T10:40:21.241+00:00</time>
      </trkpt>
      <trkpt lat="48.79055" lon="2.52452">
        <ele>54</ele>
        <time>2024-01-22T10:40:24.833+00:00</time>
      </trkpt>
      <trkpt lat="48.79056" lon="2.52453">
        <ele>54</ele>
        <time>2024-01-22T10:40:25.430+00:00</time>
      </trkpt>
      <trkpt lat="48.79065" lon="2.52462">
        <ele>57</ele>
        <time>2024-01-22T10:40:34.853+00:00</time>
      </trkpt>
      <trkpt lat="48.79075" lon="2.5246">
        <ele>56</ele>
        <time>2024-01-22T10:40:39.153+00:00</time>
      </trkpt>
      <trkpt lat="48.79079" lon="2.52464">
        <ele>56</ele>
        <time>2024-01-22T10:40:43.671+00:00</time>
      </trkpt>
      <trkpt lat="48.79085" lon="2.52465">
        <ele>56</ele>
        <time>2024-01-22T10:40:48.030+00:00</time>
      </trkpt>
      <trkpt lat="48.79089" lon="2.52469">
        <ele>56</ele>
        <time>2024-01-22T10:40:52.212+00:00</time>
      </trkpt>
      <trkpt lat="48.79091" lon="2.52479">
        <ele>56</ele>
        <time>2024-01-22T10:40:56.091+00:00</time>
      </trkpt>
      <trkpt lat="48.79092" lon="2.5249">
        <ele>59</ele>
        <time>2024-01-22T10:41:00.648+00:00</time>
      </trkpt>
      <trkpt lat="48.79096" lon="2.52494">
        <ele>59</ele>
        <time>2024-01-22T10:41:05.086+00:00</time>
      </trkpt>
      <trkpt lat="48.79099" lon="2.52498">
        <ele>57</ele>
        <time>2024-01-22T10:41:09.042+00:00</time>
      </trkpt>
      <trkpt lat="48.79101" lon="2.52503">
        <ele>57</ele>
        <time>2024-01-22T10:41:13.252+00:00</time>
      </trkpt>
      <trkpt lat="48.79103" lon="2.52506">
        <ele>57</ele>
        <time>2024-01-22T10:41:17.573+00:00</time>
      </trkpt>
      <trkpt lat="48.79105" lon="2.52511">
        <ele>57</ele>
        <time>2024-01-22T10:41:22.088+00:00</time>
      </trkpt>
      <trkpt lat="48.79108" lon="2.52515">
        <ele>61</ele>
        <time>2024-01-22T10:41:26.600+00:00</time>
      </trkpt>
      <trkpt lat="48.79111" lon="2.52522">
        <ele>61</ele>
        <time>2024-01-22T10:41:30.662+00:00</time>
      </trkpt>
      <trkpt lat="48.79113" lon="2.5253">
        <ele>61</ele>
        <time>2024-01-22T10:41:35.238+00:00</time>
      </trkpt>
      <trkpt lat="48.79114" lon="2.52538">
        <ele>61</ele>
        <time>2024-01-22T10:41:39.794+00:00</time>
      </trkpt>
      <trkpt lat="48.79115" lon="2.52545">
        <ele>67</ele>
        <time>2024-01-22T10:41:44.429+00:00</time>
      </trkpt>
      <trkpt lat="48.79117" lon="2.5255">
        <ele>67</ele>
        <time>2024-01-22T10:41:48.366+00:00</time>
      </trkpt>
      <trkpt lat="48.7912" lon="2.52557">
        <ele>67</ele>
        <time>2024-01-22T10:41:52.324+00:00</time>
      </trkpt>
      <trkpt lat="48.79121" lon="2.52564">
        <ele>67</ele>
        <time>2024-01-22T10:41:56.783+00:00</time>
      </trkpt>
      <trkpt lat="48.79122" lon="2.52571">
        <ele>72</ele>
        <time>2024-01-22T10:42:00.741+00:00</time>
      </trkpt>
      <trkpt lat="48.79124" lon="2.52579">
        <ele>72</ele>
        <time>2024-01-22T10:42:04.798+00:00</time>
      </trkpt>
      <trkpt lat="48.79125" lon="2.52588">
        <ele>72</ele>
        <time>2024-01-22T10:42:09.447+00:00</time>
      </trkpt>
      <trkpt lat="48.79121" lon="2.52594">
        <ele>72</ele>
        <time>2024-01-22T10:42:13.525+00:00</time>
      </trkpt>
      <trkpt lat="48.79119" lon="2.52601">
        <ele>75</ele>
        <time>2024-01-22T10:42:17.411+00:00</time>
      </trkpt>
      <trkpt lat="48.7912" lon="2.52612">
        <ele>75</ele>
        <time>2024-01-22T10:42:21.967+00:00</time>
      </trkpt>
      <trkpt lat="48.79117" lon="2.52621">
        <ele>75</ele>
        <time>2024-01-22T10:42:25.905+00:00</time>
      </trkpt>
      <trkpt lat="48.7911" lon="2.52625">
        <ele>75</ele>
        <time>2024-01-22T10:42:30.526+00:00</time>
      </trkpt>
      <trkpt lat="48.79104" lon="2.5263">
        <ele>77</ele>
        <time>2024-01-22T10:42:35.023+00:00</time>
      </trkpt>
      <trkpt lat="48.79098" lon="2.52632">
        <ele>77</ele>
        <time>2024-01-22T10:42:38.800+00:00</time>
      </trkpt>
      <trkpt lat="48.79093" lon="2.52635">
        <ele>79</ele>
        <time>2024-01-22T10:42:43.040+00:00</time>
      </trkpt>
      <trkpt lat="48.7909" lon="2.52637">
        <ele>79</ele>
        <time>2024-01-22T10:42:46.860+00:00</time>
      </trkpt>
      <trkpt lat="48.79089" lon="2.52637">
        <ele>79</ele>
        <time>2024-01-22T10:42:51.995+00:00</time>
      </trkpt>
      <trkpt lat="48.79087" lon="2.52635">
        <ele>79</ele>
        <time>2024-01-22T10:43:33.238+00:00</time>
      </trkpt>
      <trkpt lat="48.79087" lon="2.52634">
        <ele>79</ele>
        <time>2024-01-22T10:43:38.226+00:00</time>
      </trkpt>
      <trkpt lat="48.79087" lon="2.52634">
        <ele>79</ele>
        <time>2024-01-22T10:43:40.088+00:00</time>
      </trkpt>
      <trkpt lat="48.79084" lon="2.52633">
        <ele>79</ele>
        <time>2024-01-22T10:43:49.230+00:00</time>
      </trkpt>
      <trkpt lat="48.79082" lon="2.52624">
        <ele>76</ele>
        <time>2024-01-22T10:43:53.542+00:00</time>
      </trkpt>
      <trkpt lat="48.79078" lon="2.52616">
        <ele>76</ele>
        <time>2024-01-22T10:43:57.568+00:00</time>
      </trkpt>
      <trkpt lat="48.79074" lon="2.52604">
        <ele>76</ele>
        <time>2024-01-22T10:44:02.080+00:00</time>
      </trkpt>
      <trkpt lat="48.79073" lon="2.52596">
        <ele>71</ele>
        <time>2024-01-22T10:44:06.089+00:00</time>
      </trkpt>
      <trkpt lat="48.79072" lon="2.5259">
        <ele>71</ele>
        <time>2024-01-22T10:44:10.098+00:00</time>
      </trkpt>
      <trkpt lat="48.7907" lon="2.52585">
        <ele>71</ele>
        <time>2024-01-22T10:44:15.108+00:00</time>
      </trkpt>
      <trkpt lat="48.79069" lon="2.5258">
        <ele>72</ele>
        <time>2024-01-22T10:44:19.117+00:00</time>
      </trkpt>
      <trkpt lat="48.79068" lon="2.52576">
        <ele>72</ele>
        <time>2024-01-22T10:44:23.120+00:00</time>
      </trkpt>
      <trkpt lat="48.79066" lon="2.52569">
        <ele>68</ele>
        <time>2024-01-22T10:44:27.381+00:00</time>
      </trkpt>
      <trkpt lat="48.79063" lon="2.52562">
        <ele>68</ele>
        <time>2024-01-22T10:44:31.742+00:00</time>
      </trkpt>
      <trkpt lat="48.79059" lon="2.52558">
        <ele>68</ele>
        <time>2024-01-22T10:44:36.247+00:00</time>
      </trkpt>
      <trkpt lat="48.79055" lon="2.5255">
        <ele>68</ele>
        <time>2024-01-22T10:44:40.345+00:00</time>
      </trkpt>
      <trkpt lat="48.79049" lon="2.52544">
        <ele>68</ele>
        <time>2024-01-22T10:44:44.900+00:00</time>
      </trkpt>
      <trkpt lat="48.79044" lon="2.5254">
        <ele>64</ele>
        <time>2024-01-22T10:44:49.251+00:00</time>
      </trkpt>
      <trkpt lat="48.7904" lon="2.52535">
        <ele>69</ele>
        <time>2024-01-22T10:44:53.225+00:00</time>
      </trkpt>
      <trkpt lat="48.79035" lon="2.52529">
        <ele>69</ele>
        <time>2024-01-22T10:44:57.603+00:00</time>
      </trkpt>
      <trkpt lat="48.79031" lon="2.52523">
        <ele>69</ele>
        <time>2024-01-22T10:45:01.937+00:00</time>
      </trkpt>
      <trkpt lat="48.79028" lon="2.52519">
        <ele>69</ele>
        <time>2024-01-22T10:45:05.749+00:00</time>
      </trkpt>
      <trkpt lat="48.79025" lon="2.52515">
        <ele>69</ele>
        <time>2024-01-22T10:45:10.402+00:00</time>
      </trkpt>
      <trkpt lat="48.79022" lon="2.5251">
        <ele>66</ele>
        <time>2024-01-22T10:45:14.373+00:00</time>
      </trkpt>
      <trkpt lat="48.79018" lon="2.52504">
        <ele>66</ele>
        <time>2024-01-22T10:45:18.961+00:00</time>
      </trkpt>
      <trkpt lat="48.79013" lon="2.525">
        <ele>69</ele>
        <time>2024-01-22T10:45:22.724+00:00</time>
      </trkpt>
      <trkpt lat="48.79008" lon="2.52493">
        <ele>69</ele>
        <time>2024-01-22T10:45:27.237+00:00</time>
      </trkpt>
      <trkpt lat="48.79005" lon="2.52488">
        <ele>69</ele>
        <time>2024-01-22T10:45:31.827+00:00</time>
      </trkpt>
      <trkpt lat="48.79002" lon="2.52483">
        <ele>63</ele>
        <time>2024-01-22T10:45:35.738+00:00</time>
      </trkpt>
      <trkpt lat="48.78999" lon="2.52478">
        <ele>63</ele>
        <time>2024-01-22T10:45:40.265+00:00</time>
      </trkpt>
      <trkpt lat="48.78994" lon="2.52472">
        <ele>63</ele>
        <time>2024-01-22T10:45:44.526+00:00</time>
      </trkpt>
      <trkpt lat="48.7899" lon="2.52466">
        <ele>63</ele>
        <time>2024-01-22T10:45:48.526+00:00</time>
      </trkpt>
      <trkpt lat="48.78985" lon="2.52462">
        <ele>66</ele>
        <time>2024-01-22T10:45:53.086+00:00</time>
      </trkpt>
      <trkpt lat="48.7898" lon="2.52459">
        <ele>66</ele>
        <time>2024-01-22T10:45:57.045+00:00</time>
      </trkpt>
      <trkpt lat="48.78975" lon="2.52455">
        <ele>59</ele>
        <time>2024-01-22T10:46:00.994+00:00</time>
      </trkpt>
      <trkpt lat="48.78968" lon="2.52452">
        <ele>59</ele>
        <time>2024-01-22T10:46:05.526+00:00</time>
      </trkpt>
      <trkpt lat="48.7896" lon="2.5245">
        <ele>59</ele>
        <time>2024-01-22T10:46:10.041+00:00</time>
      </trkpt>
      <trkpt lat="48.78954" lon="2.52448">
        <ele>63</ele>
        <time>2024-01-22T10:46:13.797+00:00</time>
      </trkpt>
      <trkpt lat="48.78949" lon="2.52446">
        <ele>63</ele>
        <time>2024-01-22T10:46:18.287+00:00</time>
      </trkpt>
      <trkpt lat="48.78942" lon="2.52445">
        <ele>63</ele>
        <time>2024-01-22T10:46:22.956+00:00</time>
      </trkpt>
      <trkpt lat="48.78935" lon="2.52443">
        <ele>63</ele>
        <time>2024-01-22T10:46:27.833+00:00</time>
      </trkpt>
      <trkpt lat="48.78935" lon="2.52446">
        <ele>63</ele>
        <time>2024-01-22T10:46:32.955+00:00</time>
      </trkpt>
      <trkpt lat="48.78929" lon="2.52448">
        <ele>68</ele>
        <time>2024-01-22T10:46:36.963+00:00</time>
      </trkpt>
      <trkpt lat="48.78924" lon="2.52442">
        <ele>68</ele>
        <time>2024-01-22T10:46:41.082+00:00</time>
      </trkpt>
      <trkpt lat="48.78916" lon="2.52435">
        <ele>68</ele>
        <time>2024-01-22T10:46:45.089+00:00</time>
      </trkpt>
      <trkpt lat="48.78906" lon="2.52425">
        <ele>63</ele>
        <time>2024-01-22T10:46:49.696+00:00</time>
      </trkpt>
      <trkpt lat="48.789" lon="2.52418">
        <ele>68</ele>
        <time>2024-01-22T10:46:53.801+00:00</time>
      </trkpt>
      <trkpt lat="48.78895" lon="2.52413">
        <ele>68</ele>
        <time>2024-01-22T10:46:58.308+00:00</time>
      </trkpt>
      <trkpt lat="48.7889" lon="2.52407">
        <ele>68</ele>
        <time>2024-01-22T10:47:02.312+00:00</time>
      </trkpt>
      <trkpt lat="48.78885" lon="2.52398">
        <ele>63</ele>
        <time>2024-01-22T10:47:06.954+00:00</time>
      </trkpt>
      <trkpt lat="48.78881" lon="2.52393">
        <ele>63</ele>
        <time>2024-01-22T10:47:10.956+00:00</time>
      </trkpt>
      <trkpt lat="48.78876" lon="2.52389">
        <ele>63</ele>
        <time>2024-01-22T10:47:16.062+00:00</time>
      </trkpt>
      <trkpt lat="48.78871" lon="2.52386">
        <ele>67</ele>
        <time>2024-01-22T10:47:20.065+00:00</time>
      </trkpt>
      <trkpt lat="48.78865" lon="2.52379">
        <ele>67</ele>
        <time>2024-01-22T10:47:24.669+00:00</time>
      </trkpt>
      <trkpt lat="48.7886" lon="2.52374">
        <ele>63</ele>
        <time>2024-01-22T10:47:28.771+00:00</time>
      </trkpt>
      <trkpt lat="48.78854" lon="2.52369">
        <ele>63</ele>
        <time>2024-01-22T10:47:33.373+00:00</time>
      </trkpt>
      <trkpt lat="48.78847" lon="2.52368">
        <ele>68</ele>
        <time>2024-01-22T10:47:37.753+00:00</time>
      </trkpt>
      <trkpt lat="48.78841" lon="2.52367">
        <ele>68</ele>
        <time>2024-01-22T10:47:41.756+00:00</time>
      </trkpt>
      <trkpt lat="48.78836" lon="2.52364">
        <ele>68</ele>
        <time>2024-01-22T10:47:46.057+00:00</time>
      </trkpt>
      <trkpt lat="48.7883" lon="2.52359">
        <ele>68</ele>
        <time>2024-01-22T10:47:50.879+00:00</time>
      </trkpt>
      <trkpt lat="48.78823" lon="2.52356">
        <ele>68</ele>
        <time>2024-01-22T10:47:55.139+00:00</time>
      </trkpt>
      <trkpt lat="48.78816" lon="2.52352">
        <ele>71</ele>
        <time>2024-01-22T10:47:59.741+00:00</time>
      </trkpt>
      <trkpt lat="48.78811" lon="2.52349">
        <ele>71</ele>
        <time>2024-01-22T10:48:04.101+00:00</time>
      </trkpt>
      <trkpt lat="48.78805" lon="2.52346">
        <ele>67</ele>
        <time>2024-01-22T10:48:08.101+00:00</time>
      </trkpt>
      <trkpt lat="48.78799" lon="2.52337">
        <ele>67</ele>
        <time>2024-01-22T10:48:13.041+00:00</time>
      </trkpt>
      <trkpt lat="48.78795" lon="2.5233">
        <ele>67</ele>
        <time>2024-01-22T10:48:16.958+00:00</time>
      </trkpt>
      <trkpt lat="48.78792" lon="2.52322">
        <ele>70</ele>
        <time>2024-01-22T10:48:21.740+00:00</time>
      </trkpt>
      <trkpt lat="48.78787" lon="2.52317">
        <ele>68</ele>
        <time>2024-01-22T10:48:25.847+00:00</time>
      </trkpt>
      <trkpt lat="48.78783" lon="2.52303">
        <ele>68</ele>
        <time>2024-01-22T10:48:30.355+00:00</time>
      </trkpt>
      <trkpt lat="48.78779" lon="2.52295">
        <ele>68</ele>
        <time>2024-01-22T10:48:34.858+00:00</time>
      </trkpt>
      <trkpt lat="48.78776" lon="2.52288">
        <ele>64</ele>
        <time>2024-01-22T10:48:38.867+00:00</time>
      </trkpt>
      <trkpt lat="48.78774" lon="2.52282">
        <ele>64</ele>
        <time>2024-01-22T10:48:42.878+00:00</time>
      </trkpt>
      <trkpt lat="48.78769" lon="2.52277">
        <ele>64</ele>
        <time>2024-01-22T10:48:47.744+00:00</time>
      </trkpt>
      <trkpt lat="48.78768" lon="2.52267">
        <ele>64</ele>
        <time>2024-01-22T10:48:51.843+00:00</time>
      </trkpt>
      <trkpt lat="48.78765" lon="2.52259">
        <ele>59</ele>
        <time>2024-01-22T10:48:55.848+00:00</time>
      </trkpt>
      <trkpt lat="48.78764" lon="2.52251">
        <ele>65</ele>
        <time>2024-01-22T10:48:59.955+00:00</time>
      </trkpt>
      <trkpt lat="48.78757" lon="2.52244">
        <ele>65</ele>
        <time>2024-01-22T10:49:05.045+00:00</time>
      </trkpt>
      <trkpt lat="48.78753" lon="2.52239">
        <ele>65</ele>
        <time>2024-01-22T10:49:09.066+00:00</time>
      </trkpt>
      <trkpt lat="48.78747" lon="2.52235">
        <ele>59</ele>
        <time>2024-01-22T10:49:13.648+00:00</time>
      </trkpt>
      <trkpt lat="48.78741" lon="2.5223">
        <ele>59</ele>
        <time>2024-01-22T10:49:17.709+00:00</time>
      </trkpt>
      <trkpt lat="48.78737" lon="2.52223">
        <ele>59</ele>
        <time>2024-01-22T10:49:22.231+00:00</time>
      </trkpt>
      <trkpt lat="48.78733" lon="2.52216">
        <ele>65</ele>
        <time>2024-01-22T10:49:26.353+00:00</time>
      </trkpt>
      <trkpt lat="48.78729" lon="2.5221">
        <ele>65</ele>
        <time>2024-01-22T10:49:30.633+00:00</time>
      </trkpt>
      <trkpt lat="48.78725" lon="2.52204">
        <ele>59</ele>
        <time>2024-01-22T10:49:34.735+00:00</time>
      </trkpt>
      <trkpt lat="48.7872" lon="2.52199">
        <ele>59</ele>
        <time>2024-01-22T10:49:39.173+00:00</time>
      </trkpt>
      <trkpt lat="48.78715" lon="2.52194">
        <ele>59</ele>
        <time>2024-01-22T10:49:43.719+00:00</time>
      </trkpt>
      <trkpt lat="48.78711" lon="2.52188">
        <ele>59</ele>
        <time>2024-01-22T10:49:47.676+00:00</time>
      </trkpt>
      <trkpt lat="48.78708" lon="2.52182">
        <ele>64</ele>
        <time>2024-01-22T10:49:52.228+00:00</time>
      </trkpt>
      <trkpt lat="48.78705" lon="2.52176">
        <ele>59</ele>
        <time>2024-01-22T10:49:56.778+00:00</time>
      </trkpt>
      <trkpt lat="48.78705" lon="2.52173">
        <ele>59</ele>
        <time>2024-01-22T10:50:01.396+00:00</time>
      </trkpt>
      <trkpt lat="48.78703" lon="2.52167">
        <ele>59</ele>
        <time>2024-01-22T10:50:05.398+00:00</time>
      </trkpt>
      <trkpt lat="48.787" lon="2.52161">
        <ele>59</ele>
        <time>2024-01-22T10:50:09.760+00:00</time>
      </trkpt>
      <trkpt lat="48.78697" lon="2.52156">
        <ele>59</ele>
        <time>2024-01-22T10:50:14.062+00:00</time>
      </trkpt>
      <trkpt lat="48.78693" lon="2.52153">
        <ele>59</ele>
        <time>2024-01-22T10:50:17.854+00:00</time>
      </trkpt>
      <trkpt lat="48.78688" lon="2.52149">
        <ele>55</ele>
        <time>2024-01-22T10:50:22.164+00:00</time>
      </trkpt>
      <trkpt lat="48.78683" lon="2.52143">
        <ele>55</ele>
        <time>2024-01-22T10:50:26.982+00:00</time>
      </trkpt>
      <trkpt lat="48.78679" lon="2.52137">
        <ele>62</ele>
        <time>2024-01-22T10:50:30.785+00:00</time>
      </trkpt>
      <trkpt lat="48.78678" lon="2.52129">
        <ele>62</ele>
        <time>2024-01-22T10:50:35.334+00:00</time>
      </trkpt>
      <trkpt lat="48.78677" lon="2.52121">
        <ele>57</ele>
        <time>2024-01-22T10:50:39.703+00:00</time>
      </trkpt>
      <trkpt lat="48.78675" lon="2.52113">
        <ele>57</ele>
        <time>2024-01-22T10:50:43.831+00:00</time>
      </trkpt>
      <trkpt lat="48.78673" lon="2.52107">
        <ele>57</ele>
        <time>2024-01-22T10:50:47.780+00:00</time>
      </trkpt>
      <trkpt lat="48.7867" lon="2.52099">
        <ele>57</ele>
        <time>2024-01-22T10:50:52.267+00:00</time>
      </trkpt>
      <trkpt lat="48.78666" lon="2.52092">
        <ele>52</ele>
        <time>2024-01-22T10:50:56.749+00:00</time>
      </trkpt>
      <trkpt lat="48.78661" lon="2.52083">
        <ele>52</ele>
        <time>2024-01-22T10:51:02.011+00:00</time>
      </trkpt>
      <trkpt lat="48.78655" lon="2.52079">
        <ele>52</ele>
        <time>2024-01-22T10:51:06.526+00:00</time>
      </trkpt>
      <trkpt lat="48.78649" lon="2.52076">
        <ele>56</ele>
        <time>2024-01-22T10:51:10.982+00:00</time>
      </trkpt>
      <trkpt lat="48.78645" lon="2.5207">
        <ele>56</ele>
        <time>2024-01-22T10:51:15.525+00:00</time>
      </trkpt>
      <trkpt lat="48.78643" lon="2.52058">
        <ele>51</ele>
        <time>2024-01-22T10:51:20.047+00:00</time>
      </trkpt>
      <trkpt lat="48.78641" lon="2.52048">
        <ele>51</ele>
        <time>2024-01-22T10:51:24.811+00:00</time>
      </trkpt>
      <trkpt lat="48.78638" lon="2.52043">
        <ele>51</ele>
        <time>2024-01-22T10:51:28.875+00:00</time>
      </trkpt>
      <trkpt lat="48.78634" lon="2.52037">
        <ele>47</ele>
        <time>2024-01-22T10:51:33.420+00:00</time>
      </trkpt>
      <trkpt lat="48.78631" lon="2.52031">
        <ele>47</ele>
        <time>2024-01-22T10:51:37.963+00:00</time>
      </trkpt>
      <trkpt lat="48.78627" lon="2.52025">
        <ele>47</ele>
        <time>2024-01-22T10:51:42.027+00:00</time>
      </trkpt>
      <trkpt lat="48.78624" lon="2.52018">
        <ele>49</ele>
        <time>2024-01-22T10:51:46.704+00:00</time>
      </trkpt>
      <trkpt lat="48.78621" lon="2.52012">
        <ele>44</ele>
        <time>2024-01-22T10:51:50.875+00:00</time>
      </trkpt>
      <trkpt lat="48.78618" lon="2.52007">
        <ele>44</ele>
        <time>2024-01-22T10:51:55.223+00:00</time>
      </trkpt>
      <trkpt lat="48.78614" lon="2.52002">
        <ele>44</ele>
        <time>2024-01-22T10:51:59.246+00:00</time>
      </trkpt>
      <trkpt lat="48.7861" lon="2.51996">
        <ele>44</ele>
        <time>2024-01-22T10:52:03.723+00:00</time>
      </trkpt>
      <trkpt lat="48.78606" lon="2.51991">
        <ele>44</ele>
        <time>2024-01-22T10:52:07.526+00:00</time>
      </trkpt>
      <trkpt lat="48.78602" lon="2.51986">
        <ele>41</ele>
        <time>2024-01-22T10:52:12.039+00:00</time>
      </trkpt>
      <trkpt lat="48.78599" lon="2.51981">
        <ele>41</ele>
        <time>2024-01-22T10:52:16.223+00:00</time>
      </trkpt>
      <trkpt lat="48.78595" lon="2.51976">
        <ele>45</ele>
        <time>2024-01-22T10:52:20.766+00:00</time>
      </trkpt>
      <trkpt lat="48.78591" lon="2.5197">
        <ele>45</ele>
        <time>2024-01-22T10:52:25.064+00:00</time>
      </trkpt>
      <trkpt lat="48.78588" lon="2.51964">
        <ele>45</ele>
        <time>2024-01-22T10:52:29.017+00:00</time>
      </trkpt>
      <trkpt lat="48.78584" lon="2.51957">
        <ele>43</ele>
        <time>2024-01-22T10:52:32.963+00:00</time>
      </trkpt>
      <trkpt lat="48.78579" lon="2.51951">
        <ele>43</ele>
        <time>2024-01-22T10:52:37.386+00:00</time>
      </trkpt>
      <trkpt lat="48.78574" lon="2.51945">
        <ele>43</ele>
        <time>2024-01-22T10:52:41.928+00:00</time>
      </trkpt>
      <trkpt lat="48.7857" lon="2.51939">
        <ele>43</ele>
        <time>2024-01-22T10:52:45.752+00:00</time>
      </trkpt>
      <trkpt lat="48.78565" lon="2.51933">
        <ele>48</ele>
        <time>2024-01-22T10:52:50.534+00:00</time>
      </trkpt>
      <trkpt lat="48.78561" lon="2.51927">
        <ele>46</ele>
        <time>2024-01-22T10:52:54.526+00:00</time>
      </trkpt>
      <trkpt lat="48.78556" lon="2.51921">
        <ele>46</ele>
        <time>2024-01-22T10:52:59.022+00:00</time>
      </trkpt>
      <trkpt lat="48.78551" lon="2.51916">
        <ele>46</ele>
        <time>2024-01-22T10:53:02.848+00:00</time>
      </trkpt>
      <trkpt lat="48.78546" lon="2.51911">
        <ele>46</ele>
        <time>2024-01-22T10:53:07.991+00:00</time>
      </trkpt>
      <trkpt lat="48.78542" lon="2.51906">
        <ele>46</ele>
        <time>2024-01-22T10:53:11.937+00:00</time>
      </trkpt>
      <trkpt lat="48.78538" lon="2.51899">
        <ele>45</ele>
        <time>2024-01-22T10:53:16.526+00:00</time>
      </trkpt>
      <trkpt lat="48.78535" lon="2.51895">
        <ele>45</ele>
        <time>2024-01-22T10:53:20.665+00:00</time>
      </trkpt>
      <trkpt lat="48.7853" lon="2.5189">
        <ele>45</ele>
        <time>2024-01-22T10:53:25.203+00:00</time>
      </trkpt>
      <trkpt lat="48.78526" lon="2.51885">
        <ele>45</ele>
        <time>2024-01-22T10:53:29.255+00:00</time>
      </trkpt>
      <trkpt lat="48.78522" lon="2.51879">
        <ele>45</ele>
        <time>2024-01-22T10:53:33.290+00:00</time>
      </trkpt>
      <trkpt lat="48.78518" lon="2.51874">
        <ele>42</ele>
        <time>2024-01-22T10:53:37.162+00:00</time>
      </trkpt>
      <trkpt lat="48.78514" lon="2.51869">
        <ele>45</ele>
        <time>2024-01-22T10:53:41.705+00:00</time>
      </trkpt>
      <trkpt lat="48.78509" lon="2.51864">
        <ele>45</ele>
        <time>2024-01-22T10:53:45.649+00:00</time>
      </trkpt>
      <trkpt lat="48.78505" lon="2.51859">
        <ele>45</ele>
        <time>2024-01-22T10:53:50.191+00:00</time>
      </trkpt>
      <trkpt lat="48.78501" lon="2.51851">
        <ele>45</ele>
        <time>2024-01-22T10:53:54.526+00:00</time>
      </trkpt>
      <trkpt lat="48.78498" lon="2.51843">
        <ele>42</ele>
        <time>2024-01-22T10:53:59.035+00:00</time>
      </trkpt>
      <trkpt lat="48.78494" lon="2.51838">
        <ele>42</ele>
        <time>2024-01-22T10:54:02.861+00:00</time>
      </trkpt>
      <trkpt lat="48.78488" lon="2.51833">
        <ele>42</ele>
        <time>2024-01-22T10:54:07.521+00:00</time>
      </trkpt>
      <trkpt lat="48.78484" lon="2.51826">
        <ele>46</ele>
        <time>2024-01-22T10:54:12.063+00:00</time>
      </trkpt>
      <trkpt lat="48.78479" lon="2.5182">
        <ele>46</ele>
        <time>2024-01-22T10:54:16.486+00:00</time>
      </trkpt>
      <trkpt lat="48.78474" lon="2.51816">
        <ele>43</ele>
        <time>2024-01-22T10:54:20.670+00:00</time>
      </trkpt>
      <trkpt lat="48.78471" lon="2.51811">
        <ele>43</ele>
        <time>2024-01-22T10:54:24.853+00:00</time>
      </trkpt>
      <trkpt lat="48.78468" lon="2.51807">
        <ele>43</ele>
        <time>2024-01-22T10:54:29.035+00:00</time>
      </trkpt>
      <trkpt lat="48.78465" lon="2.51804">
        <ele>43</ele>
        <time>2024-01-22T10:54:33.098+00:00</time>
      </trkpt>
      <trkpt lat="48.78461" lon="2.51799">
        <ele>43</ele>
        <time>2024-01-22T10:54:41.699+00:00</time>
      </trkpt>
      <trkpt lat="48.78458" lon="2.51798">
        <ele>43</ele>
        <time>2024-01-22T10:54:46.237+00:00</time>
      </trkpt>
      <trkpt lat="48.78457" lon="2.51795">
        <ele>49</ele>
        <time>2024-01-22T10:54:50.281+00:00</time>
      </trkpt>
      <trkpt lat="48.78456" lon="2.51795">
        <ele>49</ele>
        <time>2024-01-22T10:54:54.364+00:00</time>
      </trkpt>
      <trkpt lat="48.78453" lon="2.51796">
        <ele>49</ele>
        <time>2024-01-22T10:54:58.428+00:00</time>
      </trkpt>
      <trkpt lat="48.78451" lon="2.51799">
        <ele>49</ele>
        <time>2024-01-22T10:55:02.851+00:00</time>
      </trkpt>
      <trkpt lat="48.7845" lon="2.51803">
        <ele>49</ele>
        <time>2024-01-22T10:55:07.990+00:00</time>
      </trkpt>
      <trkpt lat="48.78448" lon="2.51806">
        <ele>49</ele>
        <time>2024-01-22T10:55:11.815+00:00</time>
      </trkpt>
      <trkpt lat="48.78447" lon="2.51809">
        <ele>49</ele>
        <time>2024-01-22T10:55:17.045+00:00</time>
      </trkpt>
      <trkpt lat="48.78445" lon="2.51813">
        <ele>49</ele>
        <time>2024-01-22T10:55:21.017+00:00</time>
      </trkpt>
      <trkpt lat="48.78444" lon="2.51816">
        <ele>49</ele>
        <time>2024-01-22T10:55:24.841+00:00</time>
      </trkpt>
      <trkpt lat="48.78442" lon="2.5182">
        <ele>53</ele>
        <time>2024-01-22T10:55:29.862+00:00</time>
      </trkpt>
      <trkpt lat="48.7844" lon="2.51825">
        <ele>53</ele>
        <time>2024-01-22T10:55:33.925+00:00</time>
      </trkpt>
      <trkpt lat="48.78437" lon="2.51827">
        <ele>53</ele>
        <time>2024-01-22T10:55:39.068+00:00</time>
      </trkpt>
      <trkpt lat="48.78436" lon="2.51831">
        <ele>53</ele>
        <time>2024-01-22T10:55:43.014+00:00</time>
      </trkpt>
      <trkpt lat="48.78434" lon="2.51834">
        <ele>53</ele>
        <time>2024-01-22T10:55:46.839+00:00</time>
      </trkpt>
      <trkpt lat="48.7843" lon="2.51838">
        <ele>61</ele>
        <time>2024-01-22T10:55:51.022+00:00</time>
      </trkpt>
      <trkpt lat="48.78429" lon="2.51843">
        <ele>61</ele>
        <time>2024-01-22T10:55:56.041+00:00</time>
      </trkpt>
      <trkpt lat="48.78427" lon="2.51847">
        <ele>61</ele>
        <time>2024-01-22T10:56:00.667+00:00</time>
      </trkpt>
      <trkpt lat="48.78424" lon="2.51852">
        <ele>63</ele>
        <time>2024-01-22T10:56:04.647+00:00</time>
      </trkpt>
      <trkpt lat="48.7842" lon="2.51859">
        <ele>63</ele>
        <time>2024-01-22T10:56:10.026+00:00</time>
      </trkpt>
      <trkpt lat="48.78418" lon="2.51862">
        <ele>63</ele>
        <time>2024-01-22T10:56:13.970+00:00</time>
      </trkpt>
      <trkpt lat="48.78417" lon="2.51865">
        <ele>63</ele>
        <time>2024-01-22T10:56:18.632+00:00</time>
      </trkpt>
      <trkpt lat="48.78414" lon="2.5187">
        <ele>63</ele>
        <time>2024-01-22T10:56:23.263+00:00</time>
      </trkpt>
      <trkpt lat="48.78413" lon="2.51875">
        <ele>63</ele>
        <time>2024-01-22T10:56:27.808+00:00</time>
      </trkpt>
      <trkpt lat="48.78411" lon="2.51876">
        <ele>66</ele>
        <time>2024-01-22T10:56:31.761+00:00</time>
      </trkpt>
      <trkpt lat="48.7841" lon="2.51879">
        <ele>66</ele>
        <time>2024-01-22T10:56:36.422+00:00</time>
      </trkpt>
      <trkpt lat="48.78412" lon="2.51884">
        <ele>66</ele>
        <time>2024-01-22T10:56:40.842+00:00</time>
      </trkpt>
      <trkpt lat="48.78416" lon="2.5189">
        <ele>66</ele>
        <time>2024-01-22T10:56:45.367+00:00</time>
      </trkpt>
      <trkpt lat="48.78418" lon="2.51895">
        <ele>66</ele>
        <time>2024-01-22T10:56:49.447+00:00</time>
      </trkpt>
      <trkpt lat="48.78417" lon="2.519">
        <ele>66</ele>
        <time>2024-01-22T10:56:53.631+00:00</time>
      </trkpt>
      <trkpt lat="48.78415" lon="2.51907">
        <ele>67</ele>
        <time>2024-01-22T10:56:58.053+00:00</time>
      </trkpt>
      <trkpt lat="48.78411" lon="2.51915">
        <ele>67</ele>
        <time>2024-01-22T10:57:02.835+00:00</time>
      </trkpt>
      <trkpt lat="48.78407" lon="2.5192">
        <ele>67</ele>
        <time>2024-01-22T10:57:07.019+00:00</time>
      </trkpt>
      <trkpt lat="48.78403" lon="2.51924">
        <ele>67</ele>
        <time>2024-01-22T10:57:11.623+00:00</time>
      </trkpt>
      <trkpt lat="48.78402" lon="2.51929">
        <ele>71</ele>
        <time>2024-01-22T10:57:16.144+00:00</time>
      </trkpt>
      <trkpt lat="48.78402" lon="2.51933">
        <ele>73</ele>
        <time>2024-01-22T10:57:19.981+00:00</time>
      </trkpt>
      <trkpt lat="48.78397" lon="2.51939">
        <ele>73</ele>
        <time>2024-01-22T10:57:24.461+00:00</time>
      </trkpt>
      <trkpt lat="48.78393" lon="2.51945">
        <ele>73</ele>
        <time>2024-01-22T10:57:28.520+00:00</time>
      </trkpt>
      <trkpt lat="48.7839" lon="2.51952">
        <ele>73</ele>
        <time>2024-01-22T10:57:33.139+00:00</time>
      </trkpt>
      <trkpt lat="48.78388" lon="2.51959">
        <ele>76</ele>
        <time>2024-01-22T10:57:37.039+00:00</time>
      </trkpt>
      <trkpt lat="48.78385" lon="2.51966">
        <ele>76</ele>
        <time>2024-01-22T10:57:41.503+00:00</time>
      </trkpt>
      <trkpt lat="48.78384" lon="2.5197">
        <ele>76</ele>
        <time>2024-01-22T10:57:45.983+00:00</time>
      </trkpt>
      <trkpt lat="48.78383" lon="2.51976">
        <ele>76</ele>
        <time>2024-01-22T10:57:50.365+00:00</time>
      </trkpt>
      <trkpt lat="48.78382" lon="2.51983">
        <ele>76</ele>
        <time>2024-01-22T10:57:55.012+00:00</time>
      </trkpt>
      <trkpt lat="48.78381" lon="2.51988">
        <ele>81</ele>
        <time>2024-01-22T10:57:59.526+00:00</time>
      </trkpt>
      <trkpt lat="48.78379" lon="2.51994">
        <ele>81</ele>
        <time>2024-01-22T10:58:04.223+00:00</time>
      </trkpt>
      <trkpt lat="48.78378" lon="2.51998">
        <ele>81</ele>
        <time>2024-01-22T10:58:08.766+00:00</time>
      </trkpt>
      <trkpt lat="48.78377" lon="2.52002">
        <ele>81</ele>
        <time>2024-01-22T10:58:12.831+00:00</time>
      </trkpt>
      <trkpt lat="48.78376" lon="2.52005">
        <ele>81</ele>
        <time>2024-01-22T10:58:17.017+00:00</time>
      </trkpt>
      <trkpt lat="48.78375" lon="2.52009">
        <ele>81</ele>
        <time>2024-01-22T10:58:21.526+00:00</time>
      </trkpt>
      <trkpt lat="48.78368" lon="2.5202">
        <ele>84</ele>
        <time>2024-01-22T11:00:11.237+00:00</time>
      </trkpt>
      <trkpt lat="48.78366" lon="2.5202">
        <ele>84</ele>
        <time>2024-01-22T11:00:15.238+00:00</time>
      </trkpt>
      <trkpt lat="48.78365" lon="2.5202">
        <ele>84</ele>
        <time>2024-01-22T11:00:19.233+00:00</time>
      </trkpt>
      <trkpt lat="48.78366" lon="2.52021">
        <ele>84</ele>
        <time>2024-01-22T11:00:23.241+00:00</time>
      </trkpt>
      <trkpt lat="48.78367" lon="2.52024">
        <ele>84</ele>
        <time>2024-01-22T11:00:28.255+00:00</time>
      </trkpt>
      <trkpt lat="48.78366" lon="2.52024">
        <ele>84</ele>
        <time>2024-01-22T11:00:48.250+00:00</time>
      </trkpt>
      <trkpt lat="48.78366" lon="2.52024">
        <ele>84</ele>
        <time>2024-01-22T11:00:53.247+00:00</time>
      </trkpt>
      <trkpt lat="48.78364" lon="2.52028">
        <ele>84</ele>
        <time>2024-01-22T11:00:57.244+00:00</time>
      </trkpt>
      <trkpt lat="48.78364" lon="2.52032">
        <ele>84</ele>
        <time>2024-01-22T11:01:01.016+00:00</time>
      </trkpt>
      <trkpt lat="48.78357" lon="2.5204">
        <ele>84</ele>
        <time>2024-01-22T11:01:06.038+00:00</time>
      </trkpt>
      <trkpt lat="48.78354" lon="2.52045">
        <ele>86</ele>
        <time>2024-01-22T11:01:10.222+00:00</time>
      </trkpt>
      <trkpt lat="48.78351" lon="2.52049">
        <ele>86</ele>
        <time>2024-01-22T11:01:14.764+00:00</time>
      </trkpt>
      <trkpt lat="48.78347" lon="2.52056">
        <ele>84</ele>
        <time>2024-01-22T11:01:19.904+00:00</time>
      </trkpt>
      <trkpt lat="48.78343" lon="2.5206">
        <ele>84</ele>
        <time>2024-01-22T11:01:24.445+00:00</time>
      </trkpt>
      <trkpt lat="48.78339" lon="2.52065">
        <ele>84</ele>
        <time>2024-01-22T11:01:29.224+00:00</time>
      </trkpt>
      <trkpt lat="48.78335" lon="2.52071">
        <ele>85</ele>
        <time>2024-01-22T11:01:33.408+00:00</time>
      </trkpt>
      <trkpt lat="48.78333" lon="2.52079">
        <ele>85</ele>
        <time>2024-01-22T11:01:37.469+00:00</time>
      </trkpt>
      <trkpt lat="48.7833" lon="2.52088">
        <ele>85</ele>
        <time>2024-01-22T11:01:42.010+00:00</time>
      </trkpt>
      <trkpt lat="48.78328" lon="2.52096">
        <ele>85</ele>
        <time>2024-01-22T11:01:46.552+00:00</time>
      </trkpt>
      <trkpt lat="48.78325" lon="2.52101">
        <ele>87</ele>
        <time>2024-01-22T11:01:51.095+00:00</time>
      </trkpt>
      <trkpt lat="48.78322" lon="2.52106">
        <ele>87</ele>
        <time>2024-01-22T11:01:55.162+00:00</time>
      </trkpt>
      <trkpt lat="48.78318" lon="2.52113">
        <ele>87</ele>
        <time>2024-01-22T11:02:00.187+00:00</time>
      </trkpt>
      <trkpt lat="48.78315" lon="2.5212">
        <ele>87</ele>
        <time>2024-01-22T11:02:04.865+00:00</time>
      </trkpt>
      <trkpt lat="48.78312" lon="2.52125">
        <ele>90</ele>
        <time>2024-01-22T11:02:08.801+00:00</time>
      </trkpt>
      <trkpt lat="48.78308" lon="2.5213">
        <ele>90</ele>
        <time>2024-01-22T11:02:13.345+00:00</time>
      </trkpt>
      <trkpt lat="48.78304" lon="2.52136">
        <ele>90</ele>
        <time>2024-01-22T11:02:17.772+00:00</time>
      </trkpt>
      <trkpt lat="48.78301" lon="2.52143">
        <ele>90</ele>
        <time>2024-01-22T11:02:21.720+00:00</time>
      </trkpt>
      <trkpt lat="48.78298" lon="2.52149">
        <ele>90</ele>
        <time>2024-01-22T11:02:26.244+00:00</time>
      </trkpt>
      <trkpt lat="48.78294" lon="2.52156">
        <ele>92</ele>
        <time>2024-01-22T11:02:30.274+00:00</time>
      </trkpt>
      <trkpt lat="48.7829" lon="2.52163">
        <ele>92</ele>
        <time>2024-01-22T11:02:35.265+00:00</time>
      </trkpt>
      <trkpt lat="48.78288" lon="2.52172">
        <ele>92</ele>
        <time>2024-01-22T11:02:39.807+00:00</time>
      </trkpt>
      <trkpt lat="48.78283" lon="2.52177">
        <ele>92</ele>
        <time>2024-01-22T11:02:44.252+00:00</time>
      </trkpt>
      <trkpt lat="48.78278" lon="2.52182">
        <ele>94</ele>
        <time>2024-01-22T11:02:48.702+00:00</time>
      </trkpt>
      <trkpt lat="48.78273" lon="2.52184">
        <ele>94</ele>
        <time>2024-01-22T11:02:52.647+00:00</time>
      </trkpt>
      <trkpt lat="48.7827" lon="2.52184">
        <ele>94</ele>
        <time>2024-01-22T11:02:57.245+00:00</time>
      </trkpt>
      <trkpt lat="48.78267" lon="2.5218">
        <ele>92</ele>
        <time>2024-01-22T11:03:01.824+00:00</time>
      </trkpt>
      <trkpt lat="48.78265" lon="2.52171">
        <ele>92</ele>
        <time>2024-01-22T11:03:05.794+00:00</time>
      </trkpt>
      <trkpt lat="48.78262" lon="2.52165">
        <ele>91</ele>
        <time>2024-01-22T11:03:10.455+00:00</time>
      </trkpt>
      <trkpt lat="48.78257" lon="2.5216">
        <ele>91</ele>
        <time>2024-01-22T11:03:14.946+00:00</time>
      </trkpt>
      <trkpt lat="48.78252" lon="2.52156">
        <ele>91</ele>
        <time>2024-01-22T11:03:19.057+00:00</time>
      </trkpt>
      <trkpt lat="48.78245" lon="2.52157">
        <ele>91</ele>
        <time>2024-01-22T11:03:23.001+00:00</time>
      </trkpt>
      <trkpt lat="48.7824" lon="2.5215">
        <ele>90</ele>
        <time>2024-01-22T11:03:27.661+00:00</time>
      </trkpt>
      <trkpt lat="48.78235" lon="2.52143">
        <ele>88</ele>
        <time>2024-01-22T11:03:32.084+00:00</time>
      </trkpt>
      <trkpt lat="48.78231" lon="2.52137">
        <ele>88</ele>
        <time>2024-01-22T11:03:36.450+00:00</time>
      </trkpt>
      <trkpt lat="48.78226" lon="2.52132">
        <ele>88</ele>
        <time>2024-01-22T11:03:40.864+00:00</time>
      </trkpt>
      <trkpt lat="48.78222" lon="2.52127">
        <ele>88</ele>
        <time>2024-01-22T11:03:44.756+00:00</time>
      </trkpt>
      <trkpt lat="48.78218" lon="2.52122">
        <ele>86</ele>
        <time>2024-01-22T11:03:49.298+00:00</time>
      </trkpt>
      <trkpt lat="48.78216" lon="2.52118">
        <ele>86</ele>
        <time>2024-01-22T11:03:53.820+00:00</time>
      </trkpt>
      <trkpt lat="48.78215" lon="2.52115">
        <ele>86</ele>
        <time>2024-01-22T11:03:57.883+00:00</time>
      </trkpt>
      <trkpt lat="48.78213" lon="2.52111">
        <ele>86</ele>
        <time>2024-01-22T11:04:01.945+00:00</time>
      </trkpt>
      <trkpt lat="48.78208" lon="2.52103">
        <ele>88</ele>
        <time>2024-01-22T11:04:06.008+00:00</time>
      </trkpt>
      <trkpt lat="48.782" lon="2.52097">
        <ele>88</ele>
        <time>2024-01-22T11:04:10.787+00:00</time>
      </trkpt>
      <trkpt lat="48.78194" lon="2.52092">
        <ele>86</ele>
        <time>2024-01-22T11:04:14.849+00:00</time>
      </trkpt>
      <trkpt lat="48.7819" lon="2.52088">
        <ele>86</ele>
        <time>2024-01-22T11:04:18.792+00:00</time>
      </trkpt>
      <trkpt lat="48.78185" lon="2.52082">
        <ele>86</ele>
        <time>2024-01-22T11:04:23.092+00:00</time>
      </trkpt>
      <trkpt lat="48.7818" lon="2.52074">
        <ele>87</ele>
        <time>2024-01-22T11:04:27.634+00:00</time>
      </trkpt>
      <trkpt lat="48.78174" lon="2.52069">
        <ele>84</ele>
        <time>2024-01-22T11:04:32.048+00:00</time>
      </trkpt>
      <trkpt lat="48.78168" lon="2.52064">
        <ele>84</ele>
        <time>2024-01-22T11:04:36.236+00:00</time>
      </trkpt>
      <trkpt lat="48.78163" lon="2.52059">
        <ele>84</ele>
        <time>2024-01-22T11:04:40.262+00:00</time>
      </trkpt>
      <trkpt lat="48.78159" lon="2.52053">
        <ele>84</ele>
        <time>2024-01-22T11:04:44.723+00:00</time>
      </trkpt>
      <trkpt lat="48.78155" lon="2.5205">
        <ele>84</ele>
        <time>2024-01-22T11:04:48.666+00:00</time>
      </trkpt>
      <trkpt lat="48.78151" lon="2.52045">
        <ele>84</ele>
        <time>2024-01-22T11:04:53.282+00:00</time>
      </trkpt>
      <trkpt lat="48.78146" lon="2.52039">
        <ele>82</ele>
        <time>2024-01-22T11:04:57.849+00:00</time>
      </trkpt>
      <trkpt lat="48.78142" lon="2.52035">
        <ele>82</ele>
        <time>2024-01-22T11:05:01.772+00:00</time>
      </trkpt>
      <trkpt lat="48.78138" lon="2.52032">
        <ele>82</ele>
        <time>2024-01-22T11:05:06.434+00:00</time>
      </trkpt>
      <trkpt lat="48.78134" lon="2.52027">
        <ele>82</ele>
        <time>2024-01-22T11:05:11.095+00:00</time>
      </trkpt>
      <trkpt lat="48.78132" lon="2.52021">
        <ele>82</ele>
        <time>2024-01-22T11:05:15.040+00:00</time>
      </trkpt>
      <trkpt lat="48.78129" lon="2.52015">
        <ele>82</ele>
        <time>2024-01-22T11:05:20.024+00:00</time>
      </trkpt>
      <trkpt lat="48.78127" lon="2.52009">
        <ele>80</ele>
        <time>2024-01-22T11:05:23.886+00:00</time>
      </trkpt>
      <trkpt lat="48.78121" lon="2.52003">
        <ele>80</ele>
        <time>2024-01-22T11:05:28.768+00:00</time>
      </trkpt>
      <trkpt lat="48.78117" lon="2.52">
        <ele>80</ele>
        <time>2024-01-22T11:05:32.851+00:00</time>
      </trkpt>
      <trkpt lat="48.78111" lon="2.51996">
        <ele>80</ele>
        <time>2024-01-22T11:05:36.797+00:00</time>
      </trkpt>
      <trkpt lat="48.78105" lon="2.51989">
        <ele>80</ele>
        <time>2024-01-22T11:05:41.764+00:00</time>
      </trkpt>
      <trkpt lat="48.78103" lon="2.51982">
        <ele>78</ele>
        <time>2024-01-22T11:05:45.746+00:00</time>
      </trkpt>
      <trkpt lat="48.78101" lon="2.51978">
        <ele>78</ele>
        <time>2024-01-22T11:05:50.526+00:00</time>
      </trkpt>
      <trkpt lat="48.781" lon="2.51976">
        <ele>78</ele>
        <time>2024-01-22T11:05:52.927+00:00</time>
      </trkpt>
      <trkpt lat="48.78096" lon="2.51976">
        <ele>76</ele>
        <time>2024-01-22T11:06:01.556+00:00</time>
      </trkpt>
      <trkpt lat="48.78086" lon="2.51988">
        <ele>78</ele>
        <time>2024-01-22T11:06:05.759+00:00</time>
      </trkpt>
      <trkpt lat="48.78079" lon="2.51993">
        <ele>78</ele>
        <time>2024-01-22T11:06:09.980+00:00</time>
      </trkpt>
      <trkpt lat="48.78072" lon="2.52">
        <ele>78</ele>
        <time>2024-01-22T11:06:15.006+00:00</time>
      </trkpt>
      <trkpt lat="48.78069" lon="2.52009">
        <ele>74</ele>
        <time>2024-01-22T11:06:20.256+00:00</time>
      </trkpt>
      <trkpt lat="48.78065" lon="2.52018">
        <ele>76</ele>
        <time>2024-01-22T11:06:24.701+00:00</time>
      </trkpt>
      <trkpt lat="48.78061" lon="2.52025">
        <ele>76</ele>
        <time>2024-01-22T11:06:28.683+00:00</time>
      </trkpt>
      <trkpt lat="48.78057" lon="2.52033">
        <ele>76</ele>
        <time>2024-01-22T11:06:33.114+00:00</time>
      </trkpt>
      <trkpt lat="48.78052" lon="2.52036">
        <ele>76</ele>
        <time>2024-01-22T11:06:37.663+00:00</time>
      </trkpt>
      <trkpt lat="48.78048" lon="2.52042">
        <ele>77</ele>
        <time>2024-01-22T11:06:42.082+00:00</time>
      </trkpt>
      <trkpt lat="48.78045" lon="2.52049">
        <ele>77</ele>
        <time>2024-01-22T11:06:46.039+00:00</time>
      </trkpt>
      <trkpt lat="48.78042" lon="2.52056">
        <ele>75</ele>
        <time>2024-01-22T11:06:50.526+00:00</time>
      </trkpt>
      <trkpt lat="48.78038" lon="2.52061">
        <ele>75</ele>
        <time>2024-01-22T11:06:55.132+00:00</time>
      </trkpt>
      <trkpt lat="48.78035" lon="2.5207">
        <ele>77</ele>
        <time>2024-01-22T11:06:59.559+00:00</time>
      </trkpt>
      <trkpt lat="48.78031" lon="2.52077">
        <ele>77</ele>
        <time>2024-01-22T11:07:04.243+00:00</time>
      </trkpt>
      <trkpt lat="48.78028" lon="2.52085">
        <ele>77</ele>
        <time>2024-01-22T11:07:08.244+00:00</time>
      </trkpt>
      <trkpt lat="48.78025" lon="2.52092">
        <ele>77</ele>
        <time>2024-01-22T11:07:12.817+00:00</time>
      </trkpt>
      <trkpt lat="48.78022" lon="2.52101">
        <ele>78</ele>
        <time>2024-01-22T11:07:17.723+00:00</time>
      </trkpt>
      <trkpt lat="48.78019" lon="2.5211">
        <ele>78</ele>
        <time>2024-01-22T11:07:22.221+00:00</time>
      </trkpt>
      <trkpt lat="48.78016" lon="2.52118">
        <ele>78</ele>
        <time>2024-01-22T11:07:26.201+00:00</time>
      </trkpt>
      <trkpt lat="48.78014" lon="2.52126">
        <ele>79</ele>
        <time>2024-01-22T11:07:30.544+00:00</time>
      </trkpt>
      <trkpt lat="48.78012" lon="2.52132">
        <ele>79</ele>
        <time>2024-01-22T11:07:34.526+00:00</time>
      </trkpt>
      <trkpt lat="48.78009" lon="2.52137">
        <ele>79</ele>
        <time>2024-01-22T11:07:38.648+00:00</time>
      </trkpt>
      <trkpt lat="48.78006" lon="2.52144">
        <ele>79</ele>
        <time>2024-01-22T11:07:43.035+00:00</time>
      </trkpt>
      <trkpt lat="48.78002" lon="2.52152">
        <ele>79</ele>
        <time>2024-01-22T11:07:48.179+00:00</time>
      </trkpt>
      <trkpt lat="48.78001" lon="2.52158">
        <ele>80</ele>
        <time>2024-01-22T11:07:52.127+00:00</time>
      </trkpt>
      <trkpt lat="48.77999" lon="2.52166">
        <ele>80</ele>
        <time>2024-01-22T11:07:57.006+00:00</time>
      </trkpt>
      <trkpt lat="48.77996" lon="2.52174">
        <ele>80</ele>
        <time>2024-01-22T11:08:00.982+00:00</time>
      </trkpt>
      <trkpt lat="48.77991" lon="2.52181">
        <ele>80</ele>
        <time>2024-01-22T11:08:05.920+00:00</time>
      </trkpt>
      <trkpt lat="48.77987" lon="2.52186">
        <ele>80</ele>
        <time>2024-01-22T11:08:10.194+00:00</time>
      </trkpt>
      <trkpt lat="48.77983" lon="2.52194">
        <ele>79</ele>
        <time>2024-01-22T11:08:14.741+00:00</time>
      </trkpt>
      <trkpt lat="48.7798" lon="2.52202">
        <ele>79</ele>
        <time>2024-01-22T11:08:18.809+00:00</time>
      </trkpt>
      <trkpt lat="48.77977" lon="2.52211">
        <ele>80</ele>
        <time>2024-01-22T11:08:24.064+00:00</time>
      </trkpt>
      <trkpt lat="48.77974" lon="2.52219">
        <ele>80</ele>
        <time>2024-01-22T11:08:28.497+00:00</time>
      </trkpt>
      <trkpt lat="48.77972" lon="2.52228">
        <ele>80</ele>
        <time>2024-01-22T11:08:33.042+00:00</time>
      </trkpt>
      <trkpt lat="48.7797" lon="2.52236">
        <ele>80</ele>
        <time>2024-01-22T11:08:37.467+00:00</time>
      </trkpt>
      <trkpt lat="48.77967" lon="2.52242">
        <ele>82</ele>
        <time>2024-01-22T11:08:42.011+00:00</time>
      </trkpt>
      <trkpt lat="48.77962" lon="2.52246">
        <ele>82</ele>
        <time>2024-01-22T11:08:46.526+00:00</time>
      </trkpt>
      <trkpt lat="48.77958" lon="2.52245">
        <ele>80</ele>
        <time>2024-01-22T11:08:51.100+00:00</time>
      </trkpt>
      <trkpt lat="48.77954" lon="2.52241">
        <ele>80</ele>
        <time>2024-01-22T11:08:55.526+00:00</time>
      </trkpt>
      <trkpt lat="48.7795" lon="2.52238">
        <ele>80</ele>
        <time>2024-01-22T11:08:59.526+00:00</time>
      </trkpt>
      <trkpt lat="48.77945" lon="2.52233">
        <ele>78</ele>
        <time>2024-01-22T11:09:04.137+00:00</time>
      </trkpt>
      <trkpt lat="48.7794" lon="2.52232">
        <ele>78</ele>
        <time>2024-01-22T11:09:08.065+00:00</time>
      </trkpt>
      <trkpt lat="48.77937" lon="2.5223">
        <ele>78</ele>
        <time>2024-01-22T11:09:12.610+00:00</time>
      </trkpt>
      <trkpt lat="48.77935" lon="2.52222">
        <ele>78</ele>
        <time>2024-01-22T11:09:16.438+00:00</time>
      </trkpt>
      <trkpt lat="48.77929" lon="2.52222">
        <ele>76</ele>
        <time>2024-01-22T11:09:20.864+00:00</time>
      </trkpt>
      <trkpt lat="48.77922" lon="2.52224">
        <ele>76</ele>
        <time>2024-01-22T11:09:26.010+00:00</time>
      </trkpt>
      <trkpt lat="48.77918" lon="2.52223">
        <ele>76</ele>
        <time>2024-01-22T11:09:30.526+00:00</time>
      </trkpt>
      <trkpt lat="48.77913" lon="2.52217">
        <ele>76</ele>
        <time>2024-01-22T11:09:35.199+00:00</time>
      </trkpt>
      <trkpt lat="48.77908" lon="2.52214">
        <ele>76</ele>
        <time>2024-01-22T11:09:38.938+00:00</time>
      </trkpt>
      <trkpt lat="48.77901" lon="2.52212">
        <ele>75</ele>
        <time>2024-01-22T11:09:43.133+00:00</time>
      </trkpt>
      <trkpt lat="48.77897" lon="2.52209">
        <ele>75</ele>
        <time>2024-01-22T11:09:47.682+00:00</time>
      </trkpt>
      <trkpt lat="48.77891" lon="2.52206">
        <ele>74</ele>
        <time>2024-01-22T11:09:52.233+00:00</time>
      </trkpt>
      <trkpt lat="48.77886" lon="2.52201">
        <ele>74</ele>
        <time>2024-01-22T11:09:56.225+00:00</time>
      </trkpt>
      <trkpt lat="48.77881" lon="2.52195">
        <ele>74</ele>
        <time>2024-01-22T11:10:00.109+00:00</time>
      </trkpt>
      <trkpt lat="48.77877" lon="2.52191">
        <ele>74</ele>
        <time>2024-01-22T11:10:04.516+00:00</time>
      </trkpt>
      <trkpt lat="48.77872" lon="2.52186">
        <ele>72</ele>
        <time>2024-01-22T11:10:08.963+00:00</time>
      </trkpt>
      <trkpt lat="48.77869" lon="2.52183">
        <ele>72</ele>
        <time>2024-01-22T11:10:12.749+00:00</time>
      </trkpt>
      <trkpt lat="48.77866" lon="2.52176">
        <ele>70</ele>
        <time>2024-01-22T11:10:18.146+00:00</time>
      </trkpt>
      <trkpt lat="48.77865" lon="2.52171">
        <ele>70</ele>
        <time>2024-01-22T11:10:22.168+00:00</time>
      </trkpt>
      <trkpt lat="48.77864" lon="2.52171">
        <ele>70</ele>
        <time>2024-01-22T11:10:26.172+00:00</time>
      </trkpt>
      <trkpt lat="48.77857" lon="2.52173">
        <ele>70</ele>
        <time>2024-01-22T11:10:30.276+00:00</time>
      </trkpt>
      <trkpt lat="48.77848" lon="2.52172">
        <ele>70</ele>
        <time>2024-01-22T11:10:34.799+00:00</time>
      </trkpt>
      <trkpt lat="48.77842" lon="2.52171">
        <ele>68</ele>
        <time>2024-01-22T11:10:39.842+00:00</time>
      </trkpt>
      <trkpt lat="48.77837" lon="2.52167">
        <ele>68</ele>
        <time>2024-01-22T11:10:44.043+00:00</time>
      </trkpt>
      <trkpt lat="48.77833" lon="2.52159">
        <ele>68</ele>
        <time>2024-01-22T11:10:47.882+00:00</time>
      </trkpt>
      <trkpt lat="48.77828" lon="2.52154">
        <ele>68</ele>
        <time>2024-01-22T11:10:52.226+00:00</time>
      </trkpt>
      <trkpt lat="48.77824" lon="2.52145">
        <ele>64</ele>
        <time>2024-01-22T11:10:56.662+00:00</time>
      </trkpt>
      <trkpt lat="48.77821" lon="2.52143">
        <ele>64</ele>
        <time>2024-01-22T11:11:00.415+00:00</time>
      </trkpt>
      <trkpt lat="48.77816" lon="2.52139">
        <ele>61</ele>
        <time>2024-01-22T11:11:04.852+00:00</time>
      </trkpt>
      <trkpt lat="48.7781" lon="2.52133">
        <ele>61</ele>
        <time>2024-01-22T11:11:08.969+00:00</time>
      </trkpt>
      <trkpt lat="48.77807" lon="2.52129">
        <ele>61</ele>
        <time>2024-01-22T11:11:13.404+00:00</time>
      </trkpt>
      <trkpt lat="48.77802" lon="2.52127">
        <ele>61</ele>
        <time>2024-01-22T11:11:17.989+00:00</time>
      </trkpt>
      <trkpt lat="48.77796" lon="2.52122">
        <ele>58</ele>
        <time>2024-01-22T11:11:21.957+00:00</time>
      </trkpt>
      <trkpt lat="48.77791" lon="2.52118">
        <ele>59</ele>
        <time>2024-01-22T11:11:25.996+00:00</time>
      </trkpt>
      <trkpt lat="48.77785" lon="2.52114">
        <ele>59</ele>
        <time>2024-01-22T11:11:30.679+00:00</time>
      </trkpt>
      <trkpt lat="48.77781" lon="2.5211">
        <ele>59</ele>
        <time>2024-01-22T11:11:35.047+00:00</time>
      </trkpt>
      <trkpt lat="48.77777" lon="2.52111">
        <ele>59</ele>
        <time>2024-01-22T11:11:39.723+00:00</time>
      </trkpt>
      <trkpt lat="48.77775" lon="2.52117">
        <ele>59</ele>
        <time>2024-01-22T11:11:44.101+00:00</time>
      </trkpt>
      <trkpt lat="48.77775" lon="2.52122">
        <ele>59</ele>
        <time>2024-01-22T11:11:48.480+00:00</time>
      </trkpt>
      <trkpt lat="48.77776" lon="2.52126">
        <ele>61</ele>
        <time>2024-01-22T11:11:52.526+00:00</time>
      </trkpt>
      <trkpt lat="48.77778" lon="2.5213">
        <ele>61</ele>
        <time>2024-01-22T11:11:56.495+00:00</time>
      </trkpt>
      <trkpt lat="48.77779" lon="2.52137">
        <ele>61</ele>
        <time>2024-01-22T11:12:01.133+00:00</time>
      </trkpt>
      <trkpt lat="48.77773" lon="2.5214">
        <ele>61</ele>
        <time>2024-01-22T11:12:05.762+00:00</time>
      </trkpt>
      <trkpt lat="48.77769" lon="2.52146">
        <ele>61</ele>
        <time>2024-01-22T11:12:10.245+00:00</time>
      </trkpt>
      <trkpt lat="48.77763" lon="2.52154">
        <ele>59</ele>
        <time>2024-01-22T11:12:15.235+00:00</time>
      </trkpt>
      <trkpt lat="48.77759" lon="2.5216">
        <ele>59</ele>
        <time>2024-01-22T11:12:19.766+00:00</time>
      </trkpt>
      <trkpt lat="48.77755" lon="2.52167">
        <ele>59</ele>
        <time>2024-01-22T11:12:23.836+00:00</time>
      </trkpt>
      <trkpt lat="48.77751" lon="2.52175">
        <ele>59</ele>
        <time>2024-01-22T11:12:28.029+00:00</time>
      </trkpt>
      <trkpt lat="48.77747" lon="2.52184">
        <ele>58</ele>
        <time>2024-01-22T11:12:32.100+00:00</time>
      </trkpt>
      <trkpt lat="48.77744" lon="2.52194">
        <ele>58</ele>
        <time>2024-01-22T11:12:36.526+00:00</time>
      </trkpt>
      <trkpt lat="48.77741" lon="2.52202">
        <ele>58</ele>
        <time>2024-01-22T11:12:41.121+00:00</time>
      </trkpt>
      <trkpt lat="48.7774" lon="2.5221">
        <ele>58</ele>
        <time>2024-01-22T11:12:45.029+00:00</time>
      </trkpt>
      <trkpt lat="48.77738" lon="2.5222">
        <ele>58</ele>
        <time>2024-01-22T11:12:49.695+00:00</time>
      </trkpt>
      <trkpt lat="48.77735" lon="2.5223">
        <ele>52</ele>
        <time>2024-01-22T11:12:54.244+00:00</time>
      </trkpt>
      <trkpt lat="48.77732" lon="2.52237">
        <ele>51</ele>
        <time>2024-01-22T11:12:58.794+00:00</time>
      </trkpt>
      <trkpt lat="48.77729" lon="2.52244">
        <ele>51</ele>
        <time>2024-01-22T11:13:02.724+00:00</time>
      </trkpt>
      <trkpt lat="48.77727" lon="2.52252">
        <ele>51</ele>
        <time>2024-01-22T11:13:07.225+00:00</time>
      </trkpt>
      <trkpt lat="48.77725" lon="2.5226">
        <ele>51</ele>
        <time>2024-01-22T11:13:11.216+00:00</time>
      </trkpt>
      <trkpt lat="48.77724" lon="2.52267">
        <ele>52</ele>
        <time>2024-01-22T11:13:15.256+00:00</time>
      </trkpt>
      <trkpt lat="48.77722" lon="2.52275">
        <ele>52</ele>
        <time>2024-01-22T11:13:19.724+00:00</time>
      </trkpt>
      <trkpt lat="48.77718" lon="2.52282">
        <ele>52</ele>
        <time>2024-01-22T11:13:24.125+00:00</time>
      </trkpt>
      <trkpt lat="48.77715" lon="2.5229">
        <ele>52</ele>
        <time>2024-01-22T11:13:29.059+00:00</time>
      </trkpt>
      <trkpt lat="48.77713" lon="2.52298">
        <ele>53</ele>
        <time>2024-01-22T11:13:33.129+00:00</time>
      </trkpt>
      <trkpt lat="48.77711" lon="2.52306">
        <ele>53</ele>
        <time>2024-01-22T11:13:38.034+00:00</time>
      </trkpt>
      <trkpt lat="48.7771" lon="2.52312">
        <ele>53</ele>
        <time>2024-01-22T11:13:42.101+00:00</time>
      </trkpt>
      <trkpt lat="48.7771" lon="2.52317">
        <ele>53</ele>
        <time>2024-01-22T11:13:46.647+00:00</time>
      </trkpt>
      <trkpt lat="48.77711" lon="2.5232">
        <ele>53</ele>
        <time>2024-01-22T11:13:50.834+00:00</time>
      </trkpt>
      <trkpt lat="48.7771" lon="2.52325">
        <ele>53</ele>
        <time>2024-01-22T11:13:55.381+00:00</time>
      </trkpt>
      <trkpt lat="48.77709" lon="2.5233">
        <ele>53</ele>
        <time>2024-01-22T11:13:59.378+00:00</time>
      </trkpt>
      <trkpt lat="48.77708" lon="2.52337">
        <ele>50</ele>
        <time>2024-01-22T11:14:03.751+00:00</time>
      </trkpt>
      <trkpt lat="48.77708" lon="2.52345">
        <ele>50</ele>
        <time>2024-01-22T11:14:07.815+00:00</time>
      </trkpt>
      <trkpt lat="48.77708" lon="2.52352">
        <ele>51</ele>
        <time>2024-01-22T11:14:11.878+00:00</time>
      </trkpt>
      <trkpt lat="48.77707" lon="2.52359">
        <ele>51</ele>
        <time>2024-01-22T11:14:15.821+00:00</time>
      </trkpt>
      <trkpt lat="48.77706" lon="2.52367">
        <ele>51</ele>
        <time>2024-01-22T11:14:20.364+00:00</time>
      </trkpt>
      <trkpt lat="48.77705" lon="2.52375">
        <ele>51</ele>
        <time>2024-01-22T11:14:24.785+00:00</time>
      </trkpt>
      <trkpt lat="48.77706" lon="2.52386">
        <ele>51</ele>
        <time>2024-01-22T11:14:29.207+00:00</time>
      </trkpt>
      <trkpt lat="48.77706" lon="2.52394">
        <ele>51</ele>
        <time>2024-01-22T11:14:33.750+00:00</time>
      </trkpt>
      <trkpt lat="48.77706" lon="2.52401">
        <ele>51</ele>
        <time>2024-01-22T11:14:38.223+00:00</time>
      </trkpt>
      <trkpt lat="48.77708" lon="2.52409">
        <ele>51</ele>
        <time>2024-01-22T11:14:42.118+00:00</time>
      </trkpt>
      <trkpt lat="48.77712" lon="2.52419">
        <ele>55</ele>
        <time>2024-01-22T11:14:46.660+00:00</time>
      </trkpt>
      <trkpt lat="48.77714" lon="2.52428">
        <ele>55</ele>
        <time>2024-01-22T11:14:50.842+00:00</time>
      </trkpt>
      <trkpt lat="48.77715" lon="2.52438">
        <ele>55</ele>
        <time>2024-01-22T11:14:55.166+00:00</time>
      </trkpt>
      <trkpt lat="48.77716" lon="2.52447">
        <ele>55</ele>
        <time>2024-01-22T11:14:59.086+00:00</time>
      </trkpt>
      <trkpt lat="48.77718" lon="2.52456">
        <ele>55</ele>
        <time>2024-01-22T11:15:03.625+00:00</time>
      </trkpt>
      <trkpt lat="48.77719" lon="2.52464">
        <ele>56</ele>
        <time>2024-01-22T11:15:07.688+00:00</time>
      </trkpt>
      <trkpt lat="48.7772" lon="2.52473">
        <ele>56</ele>
        <time>2024-01-22T11:15:11.631+00:00</time>
      </trkpt>
      <trkpt lat="48.77721" lon="2.52482">
        <ele>56</ele>
        <time>2024-01-22T11:15:16.051+00:00</time>
      </trkpt>
      <trkpt lat="48.77721" lon="2.5249">
        <ele>54</ele>
        <time>2024-01-22T11:15:20.710+00:00</time>
      </trkpt>
      <trkpt lat="48.77722" lon="2.52498">
        <ele>54</ele>
        <time>2024-01-22T11:15:24.654+00:00</time>
      </trkpt>
      <trkpt lat="48.77722" lon="2.52506">
        <ele>54</ele>
        <time>2024-01-22T11:15:29.255+00:00</time>
      </trkpt>
      <trkpt lat="48.77721" lon="2.52513">
        <ele>54</ele>
        <time>2024-01-22T11:15:33.258+00:00</time>
      </trkpt>
      <trkpt lat="48.7772" lon="2.5252">
        <ele>53</ele>
        <time>2024-01-22T11:15:37.440+00:00</time>
      </trkpt>
      <trkpt lat="48.7772" lon="2.52529">
        <ele>53</ele>
        <time>2024-01-22T11:15:42.099+00:00</time>
      </trkpt>
      <trkpt lat="48.7772" lon="2.52538">
        <ele>53</ele>
        <time>2024-01-22T11:15:46.041+00:00</time>
      </trkpt>
      <trkpt lat="48.7772" lon="2.52547">
        <ele>52</ele>
        <time>2024-01-22T11:15:50.526+00:00</time>
      </trkpt>
      <trkpt lat="48.77721" lon="2.52555">
        <ele>52</ele>
        <time>2024-01-22T11:15:54.524+00:00</time>
      </trkpt>
      <trkpt lat="48.77723" lon="2.52563">
        <ele>52</ele>
        <time>2024-01-22T11:15:58.826+00:00</time>
      </trkpt>
      <trkpt lat="48.77725" lon="2.52572">
        <ele>51</ele>
        <time>2024-01-22T11:16:03.366+00:00</time>
      </trkpt>
      <trkpt lat="48.77727" lon="2.52579">
        <ele>51</ele>
        <time>2024-01-22T11:16:07.963+00:00</time>
      </trkpt>
      <trkpt lat="48.77729" lon="2.52586">
        <ele>51</ele>
        <time>2024-01-22T11:16:11.717+00:00</time>
      </trkpt>
      <trkpt lat="48.77731" lon="2.52594">
        <ele>51</ele>
        <time>2024-01-22T11:16:16.184+00:00</time>
      </trkpt>
      <trkpt lat="48.77734" lon="2.52599">
        <ele>49</ele>
        <time>2024-01-22T11:16:20.086+00:00</time>
      </trkpt>
      <trkpt lat="48.77737" lon="2.52606">
        <ele>51</ele>
        <time>2024-01-22T11:16:24.628+00:00</time>
      </trkpt>
      <trkpt lat="48.7774" lon="2.52612">
        <ele>51</ele>
        <time>2024-01-22T11:16:29.004+00:00</time>
      </trkpt>
      <trkpt lat="48.77742" lon="2.52618">
        <ele>51</ele>
        <time>2024-01-22T11:16:32.876+00:00</time>
      </trkpt>
      <trkpt lat="48.77743" lon="2.52624">
        <ele>51</ele>
        <time>2024-01-22T11:16:37.061+00:00</time>
      </trkpt>
      <trkpt lat="48.77746" lon="2.5263">
        <ele>49</ele>
        <time>2024-01-22T11:16:42.004+00:00</time>
      </trkpt>
      <trkpt lat="48.77749" lon="2.52635">
        <ele>49</ele>
        <time>2024-01-22T11:16:46.025+00:00</time>
      </trkpt>
      <trkpt lat="48.77753" lon="2.52642">
        <ele>49</ele>
        <time>2024-01-22T11:16:50.327+00:00</time>
      </trkpt>
      <trkpt lat="48.77757" lon="2.52649">
        <ele>49</ele>
        <time>2024-01-22T11:16:54.941+00:00</time>
      </trkpt>
      <trkpt lat="48.7776" lon="2.52656">
        <ele>49</ele>
        <time>2024-01-22T11:16:59.053+00:00</time>
      </trkpt>
      <trkpt lat="48.77763" lon="2.52663">
        <ele>49</ele>
        <time>2024-01-22T11:17:02.998+00:00</time>
      </trkpt>
      <trkpt lat="48.77765" lon="2.52672">
        <ele>53</ele>
        <time>2024-01-22T11:17:07.420+00:00</time>
      </trkpt>
      <trkpt lat="48.77767" lon="2.52681">
        <ele>52</ele>
        <time>2024-01-22T11:17:11.843+00:00</time>
      </trkpt>
      <trkpt lat="48.7777" lon="2.52689">
        <ele>52</ele>
        <time>2024-01-22T11:17:16.367+00:00</time>
      </trkpt>
      <trkpt lat="48.77773" lon="2.52697">
        <ele>52</ele>
        <time>2024-01-22T11:17:20.762+00:00</time>
      </trkpt>
      <trkpt lat="48.77776" lon="2.52705">
        <ele>52</ele>
        <time>2024-01-22T11:17:24.715+00:00</time>
      </trkpt>
      <trkpt lat="48.77779" lon="2.52711">
        <ele>51</ele>
        <time>2024-01-22T11:17:28.660+00:00</time>
      </trkpt>
      <trkpt lat="48.77787" lon="2.52721">
        <ele>51</ele>
        <time>2024-01-22T11:17:33.231+00:00</time>
      </trkpt>
      <trkpt lat="48.77791" lon="2.52727">
        <ele>51</ele>
        <time>2024-01-22T11:17:37.224+00:00</time>
      </trkpt>
      <trkpt lat="48.77796" lon="2.52731">
        <ele>53</ele>
        <time>2024-01-22T11:17:41.248+00:00</time>
      </trkpt>
      <trkpt lat="48.778" lon="2.52733">
        <ele>53</ele>
        <time>2024-01-22T11:17:45.769+00:00</time>
      </trkpt>
      <trkpt lat="48.77802" lon="2.52734">
        <ele>53</ele>
        <time>2024-01-22T11:17:46.966+00:00</time>
      </trkpt>
      <trkpt lat="48.77813" lon="2.52738">
        <ele>50</ele>
        <time>2024-01-22T11:17:55.149+00:00</time>
      </trkpt>
      <trkpt lat="48.77819" lon="2.52736">
        <ele>50</ele>
        <time>2024-01-22T11:17:59.270+00:00</time>
      </trkpt>
      <trkpt lat="48.77825" lon="2.52734">
        <ele>54</ele>
        <time>2024-01-22T11:18:04.032+00:00</time>
      </trkpt>
      <trkpt lat="48.77832" lon="2.52735">
        <ele>54</ele>
        <time>2024-01-22T11:18:09.037+00:00</time>
      </trkpt>
      <trkpt lat="48.77838" lon="2.52737">
        <ele>52</ele>
        <time>2024-01-22T11:18:13.228+00:00</time>
      </trkpt>
      <trkpt lat="48.77845" lon="2.52741">
        <ele>52</ele>
        <time>2024-01-22T11:18:17.773+00:00</time>
      </trkpt>
      <trkpt lat="48.77849" lon="2.52744">
        <ele>55</ele>
        <time>2024-01-22T11:18:21.722+00:00</time>
      </trkpt>
      <trkpt lat="48.77852" lon="2.52747">
        <ele>55</ele>
        <time>2024-01-22T11:18:26.248+00:00</time>
      </trkpt>
      <trkpt lat="48.77856" lon="2.5275">
        <ele>55</ele>
        <time>2024-01-22T11:18:30.099+00:00</time>
      </trkpt>
      <trkpt lat="48.7786" lon="2.52753">
        <ele>55</ele>
        <time>2024-01-22T11:18:34.526+00:00</time>
      </trkpt>
      <trkpt lat="48.77864" lon="2.52757">
        <ele>55</ele>
        <time>2024-01-22T11:18:39.052+00:00</time>
      </trkpt>
      <trkpt lat="48.77869" lon="2.52762">
        <ele>55</ele>
        <time>2024-01-22T11:18:43.219+00:00</time>
      </trkpt>
      <trkpt lat="48.77873" lon="2.52769">
        <ele>53</ele>
        <time>2024-01-22T11:18:47.747+00:00</time>
      </trkpt>
      <trkpt lat="48.77876" lon="2.52776">
        <ele>56</ele>
        <time>2024-01-22T11:18:51.673+00:00</time>
      </trkpt>
      <trkpt lat="48.7788" lon="2.52783">
        <ele>56</ele>
        <time>2024-01-22T11:18:56.217+00:00</time>
      </trkpt>
      <trkpt lat="48.77883" lon="2.52789">
        <ele>56</ele>
        <time>2024-01-22T11:19:00.042+00:00</time>
      </trkpt>
      <trkpt lat="48.77885" lon="2.52798">
        <ele>54</ele>
        <time>2024-01-22T11:19:04.704+00:00</time>
      </trkpt>
      <trkpt lat="48.77886" lon="2.52805">
        <ele>54</ele>
        <time>2024-01-22T11:19:09.128+00:00</time>
      </trkpt>
      <trkpt lat="48.77888" lon="2.52813">
        <ele>54</ele>
        <time>2024-01-22T11:19:14.222+00:00</time>
      </trkpt>
      <trkpt lat="48.77889" lon="2.52819">
        <ele>54</ele>
        <time>2024-01-22T11:19:18.337+00:00</time>
      </trkpt>
      <trkpt lat="48.77891" lon="2.52825">
        <ele>52</ele>
        <time>2024-01-22T11:19:22.761+00:00</time>
      </trkpt>
      <trkpt lat="48.77894" lon="2.52831">
        <ele>52</ele>
        <time>2024-01-22T11:19:26.824+00:00</time>
      </trkpt>
      <trkpt lat="48.77897" lon="2.52837">
        <ele>52</ele>
        <time>2024-01-22T11:19:30.651+00:00</time>
      </trkpt>
      <trkpt lat="48.77899" lon="2.52844">
        <ele>52</ele>
        <time>2024-01-22T11:19:35.077+00:00</time>
      </trkpt>
      <trkpt lat="48.779" lon="2.5285">
        <ele>53</ele>
        <time>2024-01-22T11:19:38.903+00:00</time>
      </trkpt>
      <trkpt lat="48.77898" lon="2.52859">
        <ele>53</ele>
        <time>2024-01-22T11:19:43.526+00:00</time>
      </trkpt>
      <trkpt lat="48.77896" lon="2.52868">
        <ele>53</ele>
        <time>2024-01-22T11:19:48.109+00:00</time>
      </trkpt>
      <trkpt lat="48.77893" lon="2.52878">
        <ele>55</ele>
        <time>2024-01-22T11:19:52.569+00:00</time>
      </trkpt>
      <trkpt lat="48.77891" lon="2.52886">
        <ele>55</ele>
        <time>2024-01-22T11:19:56.526+00:00</time>
      </trkpt>
      <trkpt lat="48.77888" lon="2.52894">
        <ele>55</ele>
        <time>2024-01-22T11:20:00.662+00:00</time>
      </trkpt>
      <trkpt lat="48.77886" lon="2.52902">
        <ele>55</ele>
        <time>2024-01-22T11:20:05.028+00:00</time>
      </trkpt>
      <trkpt lat="48.77884" lon="2.52911">
        <ele>56</ele>
        <time>2024-01-22T11:20:08.773+00:00</time>
      </trkpt>
      <trkpt lat="48.77882" lon="2.52921">
        <ele>56</ele>
        <time>2024-01-22T11:20:13.417+00:00</time>
      </trkpt>
      <trkpt lat="48.7788" lon="2.52926">
        <ele>56</ele>
        <time>2024-01-22T11:20:15.075+00:00</time>
      </trkpt>
      <trkpt lat="48.77881" lon="2.52945">
        <ele>57</ele>
        <time>2024-01-22T11:20:24.410+00:00</time>
      </trkpt>
      <trkpt lat="48.77884" lon="2.52954">
        <ele>57</ele>
        <time>2024-01-22T11:20:28.433+00:00</time>
      </trkpt>
      <trkpt lat="48.77882" lon="2.52962">
        <ele>58</ele>
        <time>2024-01-22T11:20:32.931+00:00</time>
      </trkpt>
      <trkpt lat="48.77877" lon="2.52971">
        <ele>58</ele>
        <time>2024-01-22T11:20:37.368+00:00</time>
      </trkpt>
      <trkpt lat="48.77873" lon="2.52979">
        <ele>52</ele>
        <time>2024-01-22T11:20:41.990+00:00</time>
      </trkpt>
      <trkpt lat="48.77869" lon="2.52985">
        <ele>52</ele>
        <time>2024-01-22T11:20:45.762+00:00</time>
      </trkpt>
      <trkpt lat="48.77866" lon="2.52992">
        <ele>55</ele>
        <time>2024-01-22T11:20:50.675+00:00</time>
      </trkpt>
      <trkpt lat="48.77863" lon="2.52996">
        <ele>55</ele>
        <time>2024-01-22T11:20:54.631+00:00</time>
      </trkpt>
      <trkpt lat="48.77857" lon="2.53002">
        <ele>55</ele>
        <time>2024-01-22T11:20:59.218+00:00</time>
      </trkpt>
      <trkpt lat="48.77852" lon="2.53008">
        <ele>55</ele>
        <time>2024-01-22T11:21:03.020+00:00</time>
      </trkpt>
      <trkpt lat="48.77845" lon="2.53013">
        <ele>49</ele>
        <time>2024-01-22T11:21:07.526+00:00</time>
      </trkpt>
      <trkpt lat="48.77839" lon="2.53017">
        <ele>54</ele>
        <time>2024-01-22T11:21:11.847+00:00</time>
      </trkpt>
      <trkpt lat="48.77833" lon="2.53019">
        <ele>54</ele>
        <time>2024-01-22T11:21:16.049+00:00</time>
      </trkpt>
      <trkpt lat="48.77829" lon="2.53023">
        <ele>54</ele>
        <time>2024-01-22T11:21:19.843+00:00</time>
      </trkpt>
      <trkpt lat="48.77825" lon="2.53027">
        <ele>54</ele>
        <time>2024-01-22T11:21:24.038+00:00</time>
      </trkpt>
      <trkpt lat="48.77819" lon="2.5303">
        <ele>52</ele>
        <time>2024-01-22T11:21:28.714+00:00</time>
      </trkpt>
      <trkpt lat="48.77814" lon="2.53033">
        <ele>52</ele>
        <time>2024-01-22T11:21:32.428+00:00</time>
      </trkpt>
      <trkpt lat="48.77809" lon="2.53037">
        <ele>52</ele>
        <time>2024-01-22T11:21:37.105+00:00</time>
      </trkpt>
      <trkpt lat="48.77803" lon="2.5304">
        <ele>52</ele>
        <time>2024-01-22T11:21:41.647+00:00</time>
      </trkpt>
      <trkpt lat="48.77798" lon="2.53044">
        <ele>57</ele>
        <time>2024-01-22T11:21:45.620+00:00</time>
      </trkpt>
      <trkpt lat="48.77792" lon="2.53047">
        <ele>57</ele>
        <time>2024-01-22T11:21:49.558+00:00</time>
      </trkpt>
      <trkpt lat="48.77786" lon="2.53049">
        <ele>55</ele>
        <time>2024-01-22T11:21:53.635+00:00</time>
      </trkpt>
      <trkpt lat="48.7778" lon="2.53048">
        <ele>55</ele>
        <time>2024-01-22T11:21:58.130+00:00</time>
      </trkpt>
      <trkpt lat="48.77774" lon="2.53049">
        <ele>55</ele>
        <time>2024-01-22T11:22:02.145+00:00</time>
      </trkpt>
      <trkpt lat="48.77768" lon="2.53049">
        <ele>55</ele>
        <time>2024-01-22T11:22:06.100+00:00</time>
      </trkpt>
      <trkpt lat="48.77761" lon="2.53049">
        <ele>52</ele>
        <time>2024-01-22T11:22:10.654+00:00</time>
      </trkpt>
      <trkpt lat="48.77756" lon="2.53048">
        <ele>52</ele>
        <time>2024-01-22T11:22:14.831+00:00</time>
      </trkpt>
      <trkpt lat="48.77751" lon="2.53044">
        <ele>52</ele>
        <time>2024-01-22T11:22:19.250+00:00</time>
      </trkpt>
      <trkpt lat="48.77746" lon="2.53042">
        <ele>52</ele>
        <time>2024-01-22T11:22:23.238+00:00</time>
      </trkpt>
      <trkpt lat="48.7774" lon="2.53042">
        <ele>52</ele>
        <time>2024-01-22T11:22:27.827+00:00</time>
      </trkpt>
      <trkpt lat="48.77734" lon="2.53043">
        <ele>51</ele>
        <time>2024-01-22T11:22:31.775+00:00</time>
      </trkpt>
      <trkpt lat="48.77728" lon="2.53044">
        <ele>51</ele>
        <time>2024-01-22T11:22:35.843+00:00</time>
      </trkpt>
      <trkpt lat="48.77719" lon="2.53041">
        <ele>49</ele>
        <time>2024-01-22T11:22:40.270+00:00</time>
      </trkpt>
      <trkpt lat="48.77713" lon="2.53044">
        <ele>51</ele>
        <time>2024-01-22T11:22:44.608+00:00</time>
      </trkpt>
      <trkpt lat="48.77707" lon="2.53048">
        <ele>49</ele>
        <time>2024-01-22T11:22:48.642+00:00</time>
      </trkpt>
      <trkpt lat="48.77703" lon="2.53051">
        <ele>49</ele>
        <time>2024-01-22T11:22:52.526+00:00</time>
      </trkpt>
      <trkpt lat="48.77698" lon="2.53056">
        <ele>49</ele>
        <time>2024-01-22T11:22:57.014+00:00</time>
      </trkpt>
      <trkpt lat="48.77693" lon="2.53062">
        <ele>49</ele>
        <time>2024-01-22T11:23:00.962+00:00</time>
      </trkpt>
      <trkpt lat="48.7769" lon="2.53074">
        <ele>49</ele>
        <time>2024-01-22T11:23:05.507+00:00</time>
      </trkpt>
      <trkpt lat="48.77687" lon="2.53083">
        <ele>49</ele>
        <time>2024-01-22T11:23:09.526+00:00</time>
      </trkpt>
      <trkpt lat="48.77685" lon="2.53095">
        <ele>49</ele>
        <time>2024-01-22T11:23:14.117+00:00</time>
      </trkpt>
      <trkpt lat="48.77685" lon="2.53105">
        <ele>49</ele>
        <time>2024-01-22T11:23:18.662+00:00</time>
      </trkpt>
      <trkpt lat="48.77686" lon="2.53114">
        <ele>49</ele>
        <time>2024-01-22T11:23:22.611+00:00</time>
      </trkpt>
      <trkpt lat="48.77687" lon="2.53126">
        <ele>49</ele>
        <time>2024-01-22T11:23:27.158+00:00</time>
      </trkpt>
      <trkpt lat="48.77689" lon="2.53136">
        <ele>49</ele>
        <time>2024-01-22T11:23:31.388+00:00</time>
      </trkpt>
      <trkpt lat="48.77691" lon="2.53145">
        <ele>49</ele>
        <time>2024-01-22T11:23:35.473+00:00</time>
      </trkpt>
      <trkpt lat="48.77694" lon="2.53154">
        <ele>50</ele>
        <time>2024-01-22T11:23:39.362+00:00</time>
      </trkpt>
      <trkpt lat="48.77697" lon="2.53162">
        <ele>50</ele>
        <time>2024-01-22T11:23:43.430+00:00</time>
      </trkpt>
      <trkpt lat="48.777" lon="2.53169">
        <ele>50</ele>
        <time>2024-01-22T11:23:47.378+00:00</time>
      </trkpt>
      <trkpt lat="48.77704" lon="2.53175">
        <ele>50</ele>
        <time>2024-01-22T11:23:52.034+00:00</time>
      </trkpt>
      <trkpt lat="48.77708" lon="2.53179">
        <ele>54</ele>
        <time>2024-01-22T11:23:55.631+00:00</time>
      </trkpt>
      <trkpt lat="48.77713" lon="2.53184">
        <ele>54</ele>
        <time>2024-01-22T11:24:00.157+00:00</time>
      </trkpt>
      <trkpt lat="48.77717" lon="2.53191">
        <ele>54</ele>
        <time>2024-01-22T11:24:04.526+00:00</time>
      </trkpt>
      <trkpt lat="48.7772" lon="2.532">
        <ele>54</ele>
        <time>2024-01-22T11:24:09.244+00:00</time>
      </trkpt>
      <trkpt lat="48.77724" lon="2.53206">
        <ele>54</ele>
        <time>2024-01-22T11:24:13.393+00:00</time>
      </trkpt>
      <trkpt lat="48.77729" lon="2.53212">
        <ele>54</ele>
        <time>2024-01-22T11:24:17.676+00:00</time>
      </trkpt>
      <trkpt lat="48.77733" lon="2.53218">
        <ele>54</ele>
        <time>2024-01-22T11:24:22.037+00:00</time>
      </trkpt>
      <trkpt lat="48.77738" lon="2.53225">
        <ele>55</ele>
        <time>2024-01-22T11:24:26.526+00:00</time>
      </trkpt>
      <trkpt lat="48.77741" lon="2.53232">
        <ele>55</ele>
        <time>2024-01-22T11:24:30.885+00:00</time>
      </trkpt>
      <trkpt lat="48.77745" lon="2.53238">
        <ele>52</ele>
        <time>2024-01-22T11:24:34.692+00:00</time>
      </trkpt>
      <trkpt lat="48.77749" lon="2.53245">
        <ele>52</ele>
        <time>2024-01-22T11:24:39.115+00:00</time>
      </trkpt>
      <trkpt lat="48.77753" lon="2.53252">
        <ele>52</ele>
        <time>2024-01-22T11:24:43.063+00:00</time>
      </trkpt>
      <trkpt lat="48.77757" lon="2.53261">
        <ele>52</ele>
        <time>2024-01-22T11:24:47.128+00:00</time>
      </trkpt>
      <trkpt lat="48.77762" lon="2.53266">
        <ele>50</ele>
        <time>2024-01-22T11:24:51.670+00:00</time>
      </trkpt>
      <trkpt lat="48.77767" lon="2.53267">
        <ele>52</ele>
        <time>2024-01-22T11:24:56.276+00:00</time>
      </trkpt>
      <trkpt lat="48.77772" lon="2.53272">
        <ele>52</ele>
        <time>2024-01-22T11:25:00.270+00:00</time>
      </trkpt>
      <trkpt lat="48.77778" lon="2.53278">
        <ele>52</ele>
        <time>2024-01-22T11:25:04.989+00:00</time>
      </trkpt>
      <trkpt lat="48.77785" lon="2.53279">
        <ele>52</ele>
        <time>2024-01-22T11:25:08.990+00:00</time>
      </trkpt>
      <trkpt lat="48.7779" lon="2.53281">
        <ele>52</ele>
        <time>2024-01-22T11:25:13.415+00:00</time>
      </trkpt>
      <trkpt lat="48.77795" lon="2.53284">
        <ele>55</ele>
        <time>2024-01-22T11:25:17.480+00:00</time>
      </trkpt>
      <trkpt lat="48.77799" lon="2.5329">
        <ele>55</ele>
        <time>2024-01-22T11:25:22.264+00:00</time>
      </trkpt>
      <trkpt lat="48.77804" lon="2.53296">
        <ele>53</ele>
        <time>2024-01-22T11:25:26.451+00:00</time>
      </trkpt>
      <trkpt lat="48.77808" lon="2.53302">
        <ele>53</ele>
        <time>2024-01-22T11:25:30.637+00:00</time>
      </trkpt>
      <trkpt lat="48.77812" lon="2.53308">
        <ele>53</ele>
        <time>2024-01-22T11:25:34.824+00:00</time>
      </trkpt>
      <trkpt lat="48.77815" lon="2.53315">
        <ele>53</ele>
        <time>2024-01-22T11:25:39.368+00:00</time>
      </trkpt>
      <trkpt lat="48.77818" lon="2.53319">
        <ele>53</ele>
        <time>2024-01-22T11:25:43.435+00:00</time>
      </trkpt>
      <trkpt lat="48.77821" lon="2.53324">
        <ele>57</ele>
        <time>2024-01-22T11:25:47.526+00:00</time>
      </trkpt>
      <trkpt lat="48.77825" lon="2.53328">
        <ele>57</ele>
        <time>2024-01-22T11:25:52.047+00:00</time>
      </trkpt>
      <trkpt lat="48.77828" lon="2.53332">
        <ele>57</ele>
        <time>2024-01-22T11:25:56.233+00:00</time>
      </trkpt>
      <trkpt lat="48.77829" lon="2.53336">
        <ele>57</ele>
        <time>2024-01-22T11:26:00.258+00:00</time>
      </trkpt>
      <trkpt lat="48.77832" lon="2.53338">
        <ele>57</ele>
        <time>2024-01-22T11:26:04.843+00:00</time>
      </trkpt>
      <trkpt lat="48.77835" lon="2.53341">
        <ele>57</ele>
        <time>2024-01-22T11:26:09.626+00:00</time>
      </trkpt>
      <trkpt lat="48.77839" lon="2.53347">
        <ele>57</ele>
        <time>2024-01-22T11:26:13.451+00:00</time>
      </trkpt>
      <trkpt lat="48.77842" lon="2.53354">
        <ele>56</ele>
        <time>2024-01-22T11:26:17.516+00:00</time>
      </trkpt>
      <trkpt lat="48.77846" lon="2.53361">
        <ele>56</ele>
        <time>2024-01-22T11:26:22.059+00:00</time>
      </trkpt>
      <trkpt lat="48.77849" lon="2.53367">
        <ele>62</ele>
        <time>2024-01-22T11:26:26.225+00:00</time>
      </trkpt>
      <trkpt lat="48.77854" lon="2.53373">
        <ele>62</ele>
        <time>2024-01-22T11:26:30.871+00:00</time>
      </trkpt>
      <trkpt lat="48.77858" lon="2.53377">
        <ele>61</ele>
        <time>2024-01-22T11:26:34.953+00:00</time>
      </trkpt>
      <trkpt lat="48.77862" lon="2.5338">
        <ele>61</ele>
        <time>2024-01-22T11:26:39.379+00:00</time>
      </trkpt>
      <trkpt lat="48.77867" lon="2.53383">
        <ele>61</ele>
        <time>2024-01-22T11:26:43.446+00:00</time>
      </trkpt>
      <trkpt lat="48.77872" lon="2.53388">
        <ele>61</ele>
        <time>2024-01-22T11:26:48.230+00:00</time>
      </trkpt>
      <trkpt lat="48.77876" lon="2.53394">
        <ele>64</ele>
        <time>2024-01-22T11:26:52.774+00:00</time>
      </trkpt>
      <trkpt lat="48.77878" lon="2.53401">
        <ele>64</ele>
        <time>2024-01-22T11:26:57.913+00:00</time>
      </trkpt>
      <trkpt lat="48.77881" lon="2.53406">
        <ele>63</ele>
        <time>2024-01-22T11:27:01.978+00:00</time>
      </trkpt>
      <trkpt lat="48.77886" lon="2.53411">
        <ele>63</ele>
        <time>2024-01-22T11:27:06.640+00:00</time>
      </trkpt>
      <trkpt lat="48.77889" lon="2.53417">
        <ele>63</ele>
        <time>2024-01-22T11:27:11.275+00:00</time>
      </trkpt>
      <trkpt lat="48.77888" lon="2.53423">
        <ele>63</ele>
        <time>2024-01-22T11:27:15.248+00:00</time>
      </trkpt>
      <trkpt lat="48.77887" lon="2.5343">
        <ele>63</ele>
        <time>2024-01-22T11:27:19.432+00:00</time>
      </trkpt>
      <trkpt lat="48.77885" lon="2.53439">
        <ele>61</ele>
        <time>2024-01-22T11:27:23.948+00:00</time>
      </trkpt>
      <trkpt lat="48.77884" lon="2.53449">
        <ele>61</ele>
        <time>2024-01-22T11:27:28.932+00:00</time>
      </trkpt>
      <trkpt lat="48.77881" lon="2.53457">
        <ele>61</ele>
        <time>2024-01-22T11:27:33.209+00:00</time>
      </trkpt>
      <trkpt lat="48.77878" lon="2.53463">
        <ele>60</ele>
        <time>2024-01-22T11:27:37.012+00:00</time>
      </trkpt>
      <trkpt lat="48.77876" lon="2.53472">
        <ele>60</ele>
        <time>2024-01-22T11:27:41.675+00:00</time>
      </trkpt>
      <trkpt lat="48.77872" lon="2.53478">
        <ele>56</ele>
        <time>2024-01-22T11:27:45.861+00:00</time>
      </trkpt>
      <trkpt lat="48.77868" lon="2.53484">
        <ele>56</ele>
        <time>2024-01-22T11:27:49.807+00:00</time>
      </trkpt>
      <trkpt lat="48.77866" lon="2.53493">
        <ele>54</ele>
        <time>2024-01-22T11:27:54.732+00:00</time>
      </trkpt>
      <trkpt lat="48.77862" lon="2.53493">
        <ele>54</ele>
        <time>2024-01-22T11:27:58.526+00:00</time>
      </trkpt>
      <trkpt lat="48.77861" lon="2.53488">
        <ele>54</ele>
        <time>2024-01-22T11:28:03.078+00:00</time>
      </trkpt>
      <trkpt lat="48.77859" lon="2.53482">
        <ele>56</ele>
        <time>2024-01-22T11:28:06.904+00:00</time>
      </trkpt>
      <trkpt lat="48.77857" lon="2.53473">
        <ele>56</ele>
        <time>2024-01-22T11:28:11.448+00:00</time>
      </trkpt>
      <trkpt lat="48.77855" lon="2.53465">
        <ele>56</ele>
        <time>2024-01-22T11:28:15.751+00:00</time>
      </trkpt>
      <trkpt lat="48.77855" lon="2.53457">
        <ele>57</ele>
        <time>2024-01-22T11:28:19.697+00:00</time>
      </trkpt>
      <trkpt lat="48.77853" lon="2.53447">
        <ele>57</ele>
        <time>2024-01-22T11:28:24.237+00:00</time>
      </trkpt>
      <trkpt lat="48.77849" lon="2.5344">
        <ele>57</ele>
        <time>2024-01-22T11:28:28.243+00:00</time>
      </trkpt>
      <trkpt lat="48.77844" lon="2.53436">
        <ele>54</ele>
        <time>2024-01-22T11:28:32.258+00:00</time>
      </trkpt>
      <trkpt lat="48.77838" lon="2.53433">
        <ele>54</ele>
        <time>2024-01-22T11:28:36.803+00:00</time>
      </trkpt>
      <trkpt lat="48.77833" lon="2.53431">
        <ele>54</ele>
        <time>2024-01-22T11:28:40.868+00:00</time>
      </trkpt>
      <trkpt lat="48.77827" lon="2.53431">
        <ele>54</ele>
        <time>2024-01-22T11:28:44.814+00:00</time>
      </trkpt>
      <trkpt lat="48.77822" lon="2.5343">
        <ele>55</ele>
        <time>2024-01-22T11:28:48.739+00:00</time>
      </trkpt>
      <trkpt lat="48.77816" lon="2.53428">
        <ele>54</ele>
        <time>2024-01-22T11:28:53.281+00:00</time>
      </trkpt>
      <trkpt lat="48.77809" lon="2.53426">
        <ele>54</ele>
        <time>2024-01-22T11:28:57.825+00:00</time>
      </trkpt>
      <trkpt lat="48.77803" lon="2.53426">
        <ele>54</ele>
        <time>2024-01-22T11:29:02.010+00:00</time>
      </trkpt>
      <trkpt lat="48.77798" lon="2.53426">
        <ele>54</ele>
        <time>2024-01-22T11:29:05.955+00:00</time>
      </trkpt>
      <trkpt lat="48.77789" lon="2.53428">
        <ele>54</ele>
        <time>2024-01-22T11:29:11.030+00:00</time>
      </trkpt>
      <trkpt lat="48.77783" lon="2.53429">
        <ele>54</ele>
        <time>2024-01-22T11:29:15.041+00:00</time>
      </trkpt>
      <trkpt lat="48.77777" lon="2.53431">
        <ele>54</ele>
        <time>2024-01-22T11:29:18.984+00:00</time>
      </trkpt>
      <trkpt lat="48.77771" lon="2.53433">
        <ele>54</ele>
        <time>2024-01-22T11:29:23.524+00:00</time>
      </trkpt>
      <trkpt lat="48.77766" lon="2.53435">
        <ele>54</ele>
        <time>2024-01-22T11:29:27.349+00:00</time>
      </trkpt>
      <trkpt lat="48.7776" lon="2.53437">
        <ele>55</ele>
        <time>2024-01-22T11:29:31.893+00:00</time>
      </trkpt>
      <trkpt lat="48.77754" lon="2.53439">
        <ele>55</ele>
        <time>2024-01-22T11:29:36.057+00:00</time>
      </trkpt>
      <trkpt lat="48.77748" lon="2.5344">
        <ele>55</ele>
        <time>2024-01-22T11:29:40.412+00:00</time>
      </trkpt>
      <trkpt lat="48.77743" lon="2.5344">
        <ele>55</ele>
        <time>2024-01-22T11:29:44.786+00:00</time>
      </trkpt>
      <trkpt lat="48.77736" lon="2.53441">
        <ele>55</ele>
        <time>2024-01-22T11:29:49.234+00:00</time>
      </trkpt>
      <trkpt lat="48.77731" lon="2.53443">
        <ele>55</ele>
        <time>2024-01-22T11:29:53.245+00:00</time>
      </trkpt>
      <trkpt lat="48.77726" lon="2.53445">
        <ele>55</ele>
        <time>2024-01-22T11:29:57.224+00:00</time>
      </trkpt>
      <trkpt lat="48.77722" lon="2.53446">
        <ele>55</ele>
        <time>2024-01-22T11:30:01.254+00:00</time>
      </trkpt>
      <trkpt lat="48.77717" lon="2.53446">
        <ele>55</ele>
        <time>2024-01-22T11:30:05.833+00:00</time>
      </trkpt>
      <trkpt lat="48.7771" lon="2.53447">
        <ele>55</ele>
        <time>2024-01-22T11:30:10.350+00:00</time>
      </trkpt>
      <trkpt lat="48.77705" lon="2.5345">
        <ele>56</ele>
        <time>2024-01-22T11:30:14.325+00:00</time>
      </trkpt>
      <trkpt lat="48.77698" lon="2.53451">
        <ele>56</ele>
        <time>2024-01-22T11:30:18.990+00:00</time>
      </trkpt>
      <trkpt lat="48.77692" lon="2.53456">
        <ele>56</ele>
        <time>2024-01-22T11:30:23.526+00:00</time>
      </trkpt>
      <trkpt lat="48.77687" lon="2.53458">
        <ele>56</ele>
        <time>2024-01-22T11:30:27.526+00:00</time>
      </trkpt>
      <trkpt lat="48.77681" lon="2.53459">
        <ele>56</ele>
        <time>2024-01-22T11:30:32.029+00:00</time>
      </trkpt>
      <trkpt lat="48.77676" lon="2.53461">
        <ele>58</ele>
        <time>2024-01-22T11:30:36.097+00:00</time>
      </trkpt>
      <trkpt lat="48.77674" lon="2.53468">
        <ele>58</ele>
        <time>2024-01-22T11:30:40.642+00:00</time>
      </trkpt>
      <trkpt lat="48.77674" lon="2.53477">
        <ele>58</ele>
        <time>2024-01-22T11:30:44.708+00:00</time>
      </trkpt>
      <trkpt lat="48.77675" lon="2.53485">
        <ele>58</ele>
        <time>2024-01-22T11:30:49.244+00:00</time>
      </trkpt>
      <trkpt lat="48.77676" lon="2.53494">
        <ele>59</ele>
        <time>2024-01-22T11:30:53.058+00:00</time>
      </trkpt>
      <trkpt lat="48.77676" lon="2.53502">
        <ele>59</ele>
        <time>2024-01-22T11:30:57.526+00:00</time>
      </trkpt>
      <trkpt lat="48.77675" lon="2.53509">
        <ele>59</ele>
        <time>2024-01-22T11:31:02.026+00:00</time>
      </trkpt>
      <trkpt lat="48.77672" lon="2.53513">
        <ele>59</ele>
        <time>2024-01-22T11:31:06.526+00:00</time>
      </trkpt>
      <trkpt lat="48.7767" lon="2.5352">
        <ele>60</ele>
        <time>2024-01-22T11:31:11.111+00:00</time>
      </trkpt>
      <trkpt lat="48.77668" lon="2.53527">
        <ele>60</ele>
        <time>2024-01-22T11:31:15.058+00:00</time>
      </trkpt>
      <trkpt lat="48.77666" lon="2.53536">
        <ele>60</ele>
        <time>2024-01-22T11:31:19.526+00:00</time>
      </trkpt>
      <trkpt lat="48.77664" lon="2.53542">
        <ele>60</ele>
        <time>2024-01-22T11:31:23.526+00:00</time>
      </trkpt>
      <trkpt lat="48.7766" lon="2.5355">
        <ele>60</ele>
        <time>2024-01-22T11:31:28.091+00:00</time>
      </trkpt>
      <trkpt lat="48.77655" lon="2.53552">
        <ele>60</ele>
        <time>2024-01-22T11:31:32.634+00:00</time>
      </trkpt>
      <trkpt lat="48.7765" lon="2.53552">
        <ele>63</ele>
        <time>2024-01-22T11:31:36.939+00:00</time>
      </trkpt>
      <trkpt lat="48.77644" lon="2.53551">
        <ele>63</ele>
        <time>2024-01-22T11:31:41.483+00:00</time>
      </trkpt>
      <trkpt lat="48.77639" lon="2.53553">
        <ele>63</ele>
        <time>2024-01-22T11:31:45.667+00:00</time>
      </trkpt>
      <trkpt lat="48.77634" lon="2.53555">
        <ele>63</ele>
        <time>2024-01-22T11:31:50.090+00:00</time>
      </trkpt>
      <trkpt lat="48.77632" lon="2.53556">
        <ele>63</ele>
        <time>2024-01-22T11:31:54.255+00:00</time>
      </trkpt>
      <trkpt lat="48.77625" lon="2.53556">
        <ele>63</ele>
        <time>2024-01-22T11:31:58.772+00:00</time>
      </trkpt>
      <trkpt lat="48.77619" lon="2.53555">
        <ele>64</ele>
        <time>2024-01-22T11:32:02.622+00:00</time>
      </trkpt>
      <trkpt lat="48.77615" lon="2.53556">
        <ele>64</ele>
        <time>2024-01-22T11:32:07.044+00:00</time>
      </trkpt>
      <trkpt lat="48.7761" lon="2.53558">
        <ele>64</ele>
        <time>2024-01-22T11:32:11.229+00:00</time>
      </trkpt>
      <trkpt lat="48.77603" lon="2.53561">
        <ele>64</ele>
        <time>2024-01-22T11:32:15.653+00:00</time>
      </trkpt>
      <trkpt lat="48.77597" lon="2.53565">
        <ele>64</ele>
        <time>2024-01-22T11:32:20.078+00:00</time>
      </trkpt>
      <trkpt lat="48.77592" lon="2.53568">
        <ele>64</ele>
        <time>2024-01-22T11:32:24.024+00:00</time>
      </trkpt>
      <trkpt lat="48.77587" lon="2.53568">
        <ele>64</ele>
        <time>2024-01-22T11:32:28.526+00:00</time>
      </trkpt>
      <trkpt lat="48.77581" lon="2.53568">
        <ele>64</ele>
        <time>2024-01-22T11:32:33.113+00:00</time>
      </trkpt>
      <trkpt lat="48.77575" lon="2.53569">
        <ele>64</ele>
        <time>2024-01-22T11:32:37.657+00:00</time>
      </trkpt>
      <trkpt lat="48.7757" lon="2.5357">
        <ele>64</ele>
        <time>2024-01-22T11:32:42.271+00:00</time>
      </trkpt>
      <trkpt lat="48.77565" lon="2.5357">
        <ele>64</ele>
        <time>2024-01-22T11:32:46.146+00:00</time>
      </trkpt>
      <trkpt lat="48.77559" lon="2.5357">
        <ele>64</ele>
        <time>2024-01-22T11:32:50.690+00:00</time>
      </trkpt>
      <trkpt lat="48.77553" lon="2.53573">
        <ele>64</ele>
        <time>2024-01-22T11:32:55.114+00:00</time>
      </trkpt>
      <trkpt lat="48.77548" lon="2.53574">
        <ele>64</ele>
        <time>2024-01-22T11:33:00.254+00:00</time>
      </trkpt>
      <trkpt lat="48.77543" lon="2.53574">
        <ele>64</ele>
        <time>2024-01-22T11:33:04.439+00:00</time>
      </trkpt>
      <trkpt lat="48.77538" lon="2.53575">
        <ele>64</ele>
        <time>2024-01-22T11:33:08.526+00:00</time>
      </trkpt>
      <trkpt lat="48.77533" lon="2.53576">
        <ele>64</ele>
        <time>2024-01-22T11:33:13.028+00:00</time>
      </trkpt>
      <trkpt lat="48.77528" lon="2.5358">
        <ele>64</ele>
        <time>2024-01-22T11:33:17.692+00:00</time>
      </trkpt>
      <trkpt lat="48.77523" lon="2.53585">
        <ele>64</ele>
        <time>2024-01-22T11:33:22.116+00:00</time>
      </trkpt>
      <trkpt lat="48.77517" lon="2.53589">
        <ele>64</ele>
        <time>2024-01-22T11:33:26.632+00:00</time>
      </trkpt>
      <trkpt lat="48.77513" lon="2.53592">
        <ele>65</ele>
        <time>2024-01-22T11:33:30.526+00:00</time>
      </trkpt>
      <trkpt lat="48.77507" lon="2.53596">
        <ele>65</ele>
        <time>2024-01-22T11:33:35.029+00:00</time>
      </trkpt>
      <trkpt lat="48.77502" lon="2.53599">
        <ele>65</ele>
        <time>2024-01-22T11:33:39.094+00:00</time>
      </trkpt>
      <trkpt lat="48.77496" lon="2.53602">
        <ele>65</ele>
        <time>2024-01-22T11:33:43.757+00:00</time>
      </trkpt>
      <trkpt lat="48.7749" lon="2.53604">
        <ele>65</ele>
        <time>2024-01-22T11:33:48.420+00:00</time>
      </trkpt>
      <trkpt lat="48.77484" lon="2.53607">
        <ele>65</ele>
        <time>2024-01-22T11:33:52.844+00:00</time>
      </trkpt>
      <trkpt lat="48.77478" lon="2.5361">
        <ele>65</ele>
        <time>2024-01-22T11:33:57.386+00:00</time>
      </trkpt>
      <trkpt lat="48.77471" lon="2.53611">
        <ele>65</ele>
        <time>2024-01-22T11:34:01.853+00:00</time>
      </trkpt>
      <trkpt lat="48.77465" lon="2.53613">
        <ele>65</ele>
        <time>2024-01-22T11:34:06.233+00:00</time>
      </trkpt>
      <trkpt lat="48.77461" lon="2.53615">
        <ele>65</ele>
        <time>2024-01-22T11:34:10.276+00:00</time>
      </trkpt>
      <trkpt lat="48.77456" lon="2.53616">
        <ele>67</ele>
        <time>2024-01-22T11:34:14.723+00:00</time>
      </trkpt>
      <trkpt lat="48.77453" lon="2.53616">
        <ele>67</ele>
        <time>2024-01-22T11:34:19.190+00:00</time>
      </trkpt>
      <trkpt lat="48.77451" lon="2.53612">
        <ele>67</ele>
        <time>2024-01-22T11:34:22.973+00:00</time>
      </trkpt>
      <trkpt lat="48.77449" lon="2.53608">
        <ele>67</ele>
        <time>2024-01-22T11:34:28.094+00:00</time>
      </trkpt>
      <trkpt lat="48.77446" lon="2.53612">
        <ele>67</ele>
        <time>2024-01-22T11:34:32.636+00:00</time>
      </trkpt>
      <trkpt lat="48.77443" lon="2.53619">
        <ele>67</ele>
        <time>2024-01-22T11:34:37.059+00:00</time>
      </trkpt>
      <trkpt lat="48.77438" lon="2.53623">
        <ele>67</ele>
        <time>2024-01-22T11:34:41.526+00:00</time>
      </trkpt>
      <trkpt lat="48.77433" lon="2.53624">
        <ele>67</ele>
        <time>2024-01-22T11:34:46.029+00:00</time>
      </trkpt>
      <trkpt lat="48.77426" lon="2.53628">
        <ele>69</ele>
        <time>2024-01-22T11:34:50.573+00:00</time>
      </trkpt>
      <trkpt lat="48.77421" lon="2.53629">
        <ele>69</ele>
        <time>2024-01-22T11:34:54.638+00:00</time>
      </trkpt>
      <trkpt lat="48.77417" lon="2.53632">
        <ele>69</ele>
        <time>2024-01-22T11:34:58.823+00:00</time>
      </trkpt>
      <trkpt lat="48.77411" lon="2.53635">
        <ele>69</ele>
        <time>2024-01-22T11:35:03.367+00:00</time>
      </trkpt>
      <trkpt lat="48.77405" lon="2.53636">
        <ele>69</ele>
        <time>2024-01-22T11:35:07.911+00:00</time>
      </trkpt>
      <trkpt lat="48.774" lon="2.53637">
        <ele>69</ele>
        <time>2024-01-22T11:35:11.977+00:00</time>
      </trkpt>
      <trkpt lat="48.77395" lon="2.53639">
        <ele>69</ele>
        <time>2024-01-22T11:35:16.044+00:00</time>
      </trkpt>
      <trkpt lat="48.7739" lon="2.5364">
        <ele>69</ele>
        <time>2024-01-22T11:35:21.252+00:00</time>
      </trkpt>
      <trkpt lat="48.77388" lon="2.53642">
        <ele>69</ele>
        <time>2024-01-22T11:35:25.714+00:00</time>
      </trkpt>
      <trkpt lat="48.77383" lon="2.53643">
        <ele>69</ele>
        <time>2024-01-22T11:35:30.139+00:00</time>
      </trkpt>
      <trkpt lat="48.77377" lon="2.53642">
        <ele>69</ele>
        <time>2024-01-22T11:35:35.135+00:00</time>
      </trkpt>
      <trkpt lat="48.77372" lon="2.53641">
        <ele>70</ele>
        <time>2024-01-22T11:35:39.227+00:00</time>
      </trkpt>
      <trkpt lat="48.77368" lon="2.53638">
        <ele>70</ele>
        <time>2024-01-22T11:35:43.269+00:00</time>
      </trkpt>
      <trkpt lat="48.77363" lon="2.5364">
        <ele>70</ele>
        <time>2024-01-22T11:35:47.836+00:00</time>
      </trkpt>
      <trkpt lat="48.77357" lon="2.53643">
        <ele>70</ele>
        <time>2024-01-22T11:35:52.498+00:00</time>
      </trkpt>
      <trkpt lat="48.77353" lon="2.53646">
        <ele>70</ele>
        <time>2024-01-22T11:35:56.526+00:00</time>
      </trkpt>
      <trkpt lat="48.77347" lon="2.53648">
        <ele>70</ele>
        <time>2024-01-22T11:36:00.869+00:00</time>
      </trkpt>
      <trkpt lat="48.77341" lon="2.53649">
        <ele>71</ele>
        <time>2024-01-22T11:36:05.414+00:00</time>
      </trkpt>
      <trkpt lat="48.77336" lon="2.53649">
        <ele>71</ele>
        <time>2024-01-22T11:36:10.079+00:00</time>
      </trkpt>
      <trkpt lat="48.77332" lon="2.53653">
        <ele>70</ele>
        <time>2024-01-22T11:36:14.526+00:00</time>
      </trkpt>
      <trkpt lat="48.77328" lon="2.53658">
        <ele>70</ele>
        <time>2024-01-22T11:36:19.047+00:00</time>
      </trkpt>
      <trkpt lat="48.77325" lon="2.53664">
        <ele>70</ele>
        <time>2024-01-22T11:36:23.831+00:00</time>
      </trkpt>
      <trkpt lat="48.77323" lon="2.53666">
        <ele>70</ele>
        <time>2024-01-22T11:36:27.896+00:00</time>
      </trkpt>
      <trkpt lat="48.77321" lon="2.53666">
        <ele>70</ele>
        <time>2024-01-22T11:36:31.961+00:00</time>
      </trkpt>
      <trkpt lat="48.77318" lon="2.53666">
        <ele>72</ele>
        <time>2024-01-22T11:36:36.027+00:00</time>
      </trkpt>
      <trkpt lat="48.77314" lon="2.53665">
        <ele>72</ele>
        <time>2024-01-22T11:36:40.094+00:00</time>
      </trkpt>
      <trkpt lat="48.77309" lon="2.53666">
        <ele>72</ele>
        <time>2024-01-22T11:36:44.638+00:00</time>
      </trkpt>
      <trkpt lat="48.77304" lon="2.53669">
        <ele>72</ele>
        <time>2024-01-22T11:36:48.823+00:00</time>
      </trkpt>
      <trkpt lat="48.77299" lon="2.53672">
        <ele>72</ele>
        <time>2024-01-22T11:36:53.487+00:00</time>
      </trkpt>
      <trkpt lat="48.77294" lon="2.53675">
        <ele>72</ele>
        <time>2024-01-22T11:36:58.031+00:00</time>
      </trkpt>
      <trkpt lat="48.77291" lon="2.5368">
        <ele>72</ele>
        <time>2024-01-22T11:37:02.097+00:00</time>
      </trkpt>
      <trkpt lat="48.77286" lon="2.53685">
        <ele>72</ele>
        <time>2024-01-22T11:37:07.121+00:00</time>
      </trkpt>
      <trkpt lat="48.77284" lon="2.53689">
        <ele>72</ele>
        <time>2024-01-22T11:37:11.065+00:00</time>
      </trkpt>
      <trkpt lat="48.77281" lon="2.53694">
        <ele>72</ele>
        <time>2024-01-22T11:37:15.254+00:00</time>
      </trkpt>
      <trkpt lat="48.7728" lon="2.53699">
        <ele>72</ele>
        <time>2024-01-22T11:37:19.259+00:00</time>
      </trkpt>
      <trkpt lat="48.77277" lon="2.53705">
        <ele>72</ele>
        <time>2024-01-22T11:37:23.263+00:00</time>
      </trkpt>
      <trkpt lat="48.77275" lon="2.53713">
        <ele>72</ele>
        <time>2024-01-22T11:37:27.448+00:00</time>
      </trkpt>
      <trkpt lat="48.77272" lon="2.53719">
        <ele>72</ele>
        <time>2024-01-22T11:37:31.395+00:00</time>
      </trkpt>
      <trkpt lat="48.7727" lon="2.53728">
        <ele>72</ele>
        <time>2024-01-22T11:37:35.461+00:00</time>
      </trkpt>
      <trkpt lat="48.77266" lon="2.53736">
        <ele>72</ele>
        <time>2024-01-22T11:37:40.242+00:00</time>
      </trkpt>
      <trkpt lat="48.77263" lon="2.53741">
        <ele>71</ele>
        <time>2024-01-22T11:37:44.390+00:00</time>
      </trkpt>
      <trkpt lat="48.77259" lon="2.53745">
        <ele>71</ele>
        <time>2024-01-22T11:37:48.848+00:00</time>
      </trkpt>
      <trkpt lat="48.77256" lon="2.5375">
        <ele>71</ele>
        <time>2024-01-22T11:37:52.912+00:00</time>
      </trkpt>
      <trkpt lat="48.77252" lon="2.53756">
        <ele>71</ele>
        <time>2024-01-22T11:37:57.674+00:00</time>
      </trkpt>
      <trkpt lat="48.77247" lon="2.5376">
        <ele>71</ele>
        <time>2024-01-22T11:38:02.098+00:00</time>
      </trkpt>
      <trkpt lat="48.77243" lon="2.53767">
        <ele>70</ele>
        <time>2024-01-22T11:38:06.642+00:00</time>
      </trkpt>
      <trkpt lat="48.7724" lon="2.53774">
        <ele>70</ele>
        <time>2024-01-22T11:38:11.253+00:00</time>
      </trkpt>
      <trkpt lat="48.77239" lon="2.53782">
        <ele>70</ele>
        <time>2024-01-22T11:38:15.231+00:00</time>
      </trkpt>
      <trkpt lat="48.77237" lon="2.53789">
        <ele>70</ele>
        <time>2024-01-22T11:38:19.274+00:00</time>
      </trkpt>
      <trkpt lat="48.77234" lon="2.53796">
        <ele>70</ele>
        <time>2024-01-22T11:38:23.841+00:00</time>
      </trkpt>
      <trkpt lat="48.77231" lon="2.53802">
        <ele>70</ele>
        <time>2024-01-22T11:38:28.383+00:00</time>
      </trkpt>
      <trkpt lat="48.77228" lon="2.53808">
        <ele>70</ele>
        <time>2024-01-22T11:38:33.026+00:00</time>
      </trkpt>
      <trkpt lat="48.77225" lon="2.53816">
        <ele>70</ele>
        <time>2024-01-22T11:38:37.569+00:00</time>
      </trkpt>
      <trkpt lat="48.77223" lon="2.53822">
        <ele>70</ele>
        <time>2024-01-22T11:38:42.113+00:00</time>
      </trkpt>
      <trkpt lat="48.7722" lon="2.53828">
        <ele>70</ele>
        <time>2024-01-22T11:38:46.655+00:00</time>
      </trkpt>
      <trkpt lat="48.77217" lon="2.53834">
        <ele>70</ele>
        <time>2024-01-22T11:38:50.840+00:00</time>
      </trkpt>
      <trkpt lat="48.77214" lon="2.53839">
        <ele>70</ele>
        <time>2024-01-22T11:38:55.023+00:00</time>
      </trkpt>
      <trkpt lat="48.77211" lon="2.53846">
        <ele>70</ele>
        <time>2024-01-22T11:38:59.526+00:00</time>
      </trkpt>
      <trkpt lat="48.77208" lon="2.53853">
        <ele>72</ele>
        <time>2024-01-22T11:39:04.108+00:00</time>
      </trkpt>
      <trkpt lat="48.77204" lon="2.53857">
        <ele>72</ele>
        <time>2024-01-22T11:39:08.600+00:00</time>
      </trkpt>
      <trkpt lat="48.772" lon="2.53862">
        <ele>72</ele>
        <time>2024-01-22T11:39:13.075+00:00</time>
      </trkpt>
      <trkpt lat="48.77196" lon="2.53867">
        <ele>72</ele>
        <time>2024-01-22T11:39:17.839+00:00</time>
      </trkpt>
      <trkpt lat="48.77192" lon="2.53871">
        <ele>72</ele>
        <time>2024-01-22T11:39:21.785+00:00</time>
      </trkpt>
      <trkpt lat="48.77188" lon="2.53874">
        <ele>72</ele>
        <time>2024-01-22T11:39:25.851+00:00</time>
      </trkpt>
      <trkpt lat="48.77183" lon="2.5388">
        <ele>72</ele>
        <time>2024-01-22T11:39:31.111+00:00</time>
      </trkpt>
      <trkpt lat="48.77179" lon="2.53884">
        <ele>73</ele>
        <time>2024-01-22T11:39:35.056+00:00</time>
      </trkpt>
      <trkpt lat="48.77175" lon="2.53889">
        <ele>73</ele>
        <time>2024-01-22T11:39:39.526+00:00</time>
      </trkpt>
      <trkpt lat="48.77172" lon="2.53892">
        <ele>73</ele>
        <time>2024-01-22T11:39:44.262+00:00</time>
      </trkpt>
      <trkpt lat="48.77168" lon="2.53894">
        <ele>73</ele>
        <time>2024-01-22T11:39:48.447+00:00</time>
      </trkpt>
      <trkpt lat="48.77164" lon="2.53898">
        <ele>73</ele>
        <time>2024-01-22T11:39:52.871+00:00</time>
      </trkpt>
      <trkpt lat="48.77159" lon="2.53904">
        <ele>74</ele>
        <time>2024-01-22T11:39:57.415+00:00</time>
      </trkpt>
      <trkpt lat="48.77153" lon="2.53911">
        <ele>74</ele>
        <time>2024-01-22T11:40:02.080+00:00</time>
      </trkpt>
      <trkpt lat="48.77148" lon="2.53916">
        <ele>75</ele>
        <time>2024-01-22T11:40:06.863+00:00</time>
      </trkpt>
      <trkpt lat="48.77143" lon="2.53921">
        <ele>75</ele>
        <time>2024-01-22T11:40:11.644+00:00</time>
      </trkpt>
      <trkpt lat="48.77138" lon="2.53926">
        <ele>75</ele>
        <time>2024-01-22T11:40:16.292+00:00</time>
      </trkpt>
      <trkpt lat="48.77134" lon="2.5393">
        <ele>75</ele>
        <time>2024-01-22T11:40:20.729+00:00</time>
      </trkpt>
      <trkpt lat="48.7713" lon="2.53934">
        <ele>75</ele>
        <time>2024-01-22T11:40:25.242+00:00</time>
      </trkpt>
      <trkpt lat="48.77125" lon="2.53941">
        <ele>77</ele>
        <time>2024-01-22T11:40:29.698+00:00</time>
      </trkpt>
      <trkpt lat="48.7712" lon="2.53946">
        <ele>77</ele>
        <time>2024-01-22T11:40:34.103+00:00</time>
      </trkpt>
      <trkpt lat="48.77116" lon="2.5395">
        <ele>77</ele>
        <time>2024-01-22T11:40:38.647+00:00</time>
      </trkpt>
      <trkpt lat="48.77112" lon="2.53954">
        <ele>77</ele>
        <time>2024-01-22T11:40:43.190+00:00</time>
      </trkpt>
      <trkpt lat="48.77108" lon="2.53959">
        <ele>76</ele>
        <time>2024-01-22T11:40:47.255+00:00</time>
      </trkpt>
      <trkpt lat="48.77103" lon="2.53964">
        <ele>76</ele>
        <time>2024-01-22T11:40:52.218+00:00</time>
      </trkpt>
      <trkpt lat="48.77098" lon="2.53966">
        <ele>76</ele>
        <time>2024-01-22T11:40:56.099+00:00</time>
      </trkpt>
      <trkpt lat="48.77092" lon="2.53969">
        <ele>77</ele>
        <time>2024-01-22T11:41:00.880+00:00</time>
      </trkpt>
      <trkpt lat="48.77087" lon="2.53973">
        <ele>77</ele>
        <time>2024-01-22T11:41:05.064+00:00</time>
      </trkpt>
      <trkpt lat="48.77082" lon="2.53976">
        <ele>77</ele>
        <time>2024-01-22T11:41:10.204+00:00</time>
      </trkpt>
      <trkpt lat="48.77079" lon="2.5398">
        <ele>77</ele>
        <time>2024-01-22T11:41:14.268+00:00</time>
      </trkpt>
      <trkpt lat="48.77074" lon="2.53984">
        <ele>77</ele>
        <time>2024-01-22T11:41:19.142+00:00</time>
      </trkpt>
      <trkpt lat="48.7707" lon="2.53987">
        <ele>78</ele>
        <time>2024-01-22T11:41:23.234+00:00</time>
      </trkpt>
      <trkpt lat="48.77064" lon="2.53988">
        <ele>81</ele>
        <time>2024-01-22T11:41:27.778+00:00</time>
      </trkpt>
      <trkpt lat="48.77059" lon="2.5399">
        <ele>81</ele>
        <time>2024-01-22T11:41:32.442+00:00</time>
      </trkpt>
      <trkpt lat="48.77054" lon="2.53992">
        <ele>81</ele>
        <time>2024-01-22T11:41:37.223+00:00</time>
      </trkpt>
      <trkpt lat="48.77048" lon="2.53995">
        <ele>81</ele>
        <time>2024-01-22T11:41:41.766+00:00</time>
      </trkpt>
      <trkpt lat="48.77044" lon="2.53999">
        <ele>81</ele>
        <time>2024-01-22T11:41:46.429+00:00</time>
      </trkpt>
      <trkpt lat="48.77039" lon="2.54003">
        <ele>84</ele>
        <time>2024-01-22T11:41:51.103+00:00</time>
      </trkpt>
      <trkpt lat="48.77035" lon="2.54009">
        <ele>84</ele>
        <time>2024-01-22T11:41:55.652+00:00</time>
      </trkpt>
      <trkpt lat="48.77028" lon="2.54014">
        <ele>84</ele>
        <time>2024-01-22T11:42:00.318+00:00</time>
      </trkpt>
      <trkpt lat="48.77022" lon="2.54015">
        <ele>84</ele>
        <time>2024-01-22T11:42:04.863+00:00</time>
      </trkpt>
      <trkpt lat="48.77016" lon="2.54016">
        <ele>84</ele>
        <time>2024-01-22T11:42:09.244+00:00</time>
      </trkpt>
      <trkpt lat="48.77012" lon="2.54017">
        <ele>84</ele>
        <time>2024-01-22T11:42:13.237+00:00</time>
      </trkpt>
      <trkpt lat="48.77007" lon="2.54019">
        <ele>84</ele>
        <time>2024-01-22T11:42:16.828+00:00</time>
      </trkpt>
      <trkpt lat="48.77" lon="2.54017">
        <ele>84</ele>
        <time>2024-01-22T11:42:21.375+00:00</time>
      </trkpt>
      <trkpt lat="48.76994" lon="2.54017">
        <ele>84</ele>
        <time>2024-01-22T11:42:25.801+00:00</time>
      </trkpt>
      <trkpt lat="48.76988" lon="2.54014">
        <ele>84</ele>
        <time>2024-01-22T11:42:30.262+00:00</time>
      </trkpt>
      <trkpt lat="48.76983" lon="2.54012">
        <ele>84</ele>
        <time>2024-01-22T11:42:34.274+00:00</time>
      </trkpt>
      <trkpt lat="48.76978" lon="2.54011">
        <ele>84</ele>
        <time>2024-01-22T11:42:38.459+00:00</time>
      </trkpt>
      <trkpt lat="48.76973" lon="2.54011">
        <ele>84</ele>
        <time>2024-01-22T11:42:43.123+00:00</time>
      </trkpt>
      <trkpt lat="48.7697" lon="2.54014">
        <ele>84</ele>
        <time>2024-01-22T11:42:47.070+00:00</time>
      </trkpt>
      <trkpt lat="48.76966" lon="2.54014">
        <ele>84</ele>
        <time>2024-01-22T11:42:51.857+00:00</time>
      </trkpt>
      <trkpt lat="48.76961" lon="2.54013">
        <ele>84</ele>
        <time>2024-01-22T11:42:56.046+00:00</time>
      </trkpt>
      <trkpt lat="48.76956" lon="2.54011">
        <ele>83</ele>
        <time>2024-01-22T11:43:00.526+00:00</time>
      </trkpt>
      <trkpt lat="48.76951" lon="2.54009">
        <ele>83</ele>
        <time>2024-01-22T11:43:04.998+00:00</time>
      </trkpt>
      <trkpt lat="48.76946" lon="2.54006">
        <ele>83</ele>
        <time>2024-01-22T11:43:09.064+00:00</time>
      </trkpt>
      <trkpt lat="48.76942" lon="2.54003">
        <ele>83</ele>
        <time>2024-01-22T11:43:13.250+00:00</time>
      </trkpt>
      <trkpt lat="48.76938" lon="2.53999">
        <ele>83</ele>
        <time>2024-01-22T11:43:17.795+00:00</time>
      </trkpt>
      <trkpt lat="48.76934" lon="2.53997">
        <ele>83</ele>
        <time>2024-01-22T11:43:22.253+00:00</time>
      </trkpt>
      <trkpt lat="48.76929" lon="2.53995">
        <ele>85</ele>
        <time>2024-01-22T11:43:26.645+00:00</time>
      </trkpt>
      <trkpt lat="48.76925" lon="2.53992">
        <ele>85</ele>
        <time>2024-01-22T11:43:31.069+00:00</time>
      </trkpt>
      <trkpt lat="48.76921" lon="2.53988">
        <ele>85</ele>
        <time>2024-01-22T11:43:35.526+00:00</time>
      </trkpt>
      <trkpt lat="48.76918" lon="2.53987">
        <ele>85</ele>
        <time>2024-01-22T11:43:40.200+00:00</time>
      </trkpt>
      <trkpt lat="48.76914" lon="2.53982">
        <ele>85</ele>
        <time>2024-01-22T11:43:43.981+00:00</time>
      </trkpt>
      <trkpt lat="48.76907" lon="2.53983">
        <ele>85</ele>
        <time>2024-01-22T11:43:48.405+00:00</time>
      </trkpt>
      <trkpt lat="48.76903" lon="2.53983">
        <ele>85</ele>
        <time>2024-01-22T11:43:52.951+00:00</time>
      </trkpt>
      <trkpt lat="48.769" lon="2.53984">
        <ele>89</ele>
        <time>2024-01-22T11:43:57.496+00:00</time>
      </trkpt>
      <trkpt lat="48.76896" lon="2.53984">
        <ele>89</ele>
        <time>2024-01-22T11:44:02.033+00:00</time>
      </trkpt>
      <trkpt lat="48.76892" lon="2.53982">
        <ele>89</ele>
        <time>2024-01-22T11:44:05.987+00:00</time>
      </trkpt>
      <trkpt lat="48.76885" lon="2.53981">
        <ele>89</ele>
        <time>2024-01-22T11:44:10.653+00:00</time>
      </trkpt>
      <trkpt lat="48.76876" lon="2.53983">
        <ele>89</ele>
        <time>2024-01-22T11:44:14.962+00:00</time>
      </trkpt>
      <trkpt lat="48.76868" lon="2.53981">
        <ele>92</ele>
        <time>2024-01-22T11:44:19.487+00:00</time>
      </trkpt>
      <trkpt lat="48.76863" lon="2.53978">
        <ele>92</ele>
        <time>2024-01-22T11:44:23.526+00:00</time>
      </trkpt>
      <trkpt lat="48.76857" lon="2.53975">
        <ele>92</ele>
        <time>2024-01-22T11:44:28.100+00:00</time>
      </trkpt>
      <trkpt lat="48.76853" lon="2.53973">
        <ele>92</ele>
        <time>2024-01-22T11:44:32.644+00:00</time>
      </trkpt>
      <trkpt lat="48.76848" lon="2.5397">
        <ele>92</ele>
        <time>2024-01-22T11:44:36.949+00:00</time>
      </trkpt>
      <trkpt lat="48.76844" lon="2.53966">
        <ele>91</ele>
        <time>2024-01-22T11:44:41.373+00:00</time>
      </trkpt>
      <trkpt lat="48.7684" lon="2.53964">
        <ele>91</ele>
        <time>2024-01-22T11:44:46.018+00:00</time>
      </trkpt>
      <trkpt lat="48.76835" lon="2.5396">
        <ele>91</ele>
        <time>2024-01-22T11:44:50.563+00:00</time>
      </trkpt>
      <trkpt lat="48.7683" lon="2.53959">
        <ele>91</ele>
        <time>2024-01-22T11:44:54.986+00:00</time>
      </trkpt>
      <trkpt lat="48.76827" lon="2.53958">
        <ele>90</ele>
        <time>2024-01-22T11:44:59.410+00:00</time>
      </trkpt>
      <trkpt lat="48.76825" lon="2.53957">
        <ele>90</ele>
        <time>2024-01-22T11:45:03.712+00:00</time>
      </trkpt>
      <trkpt lat="48.76823" lon="2.53954">
        <ele>90</ele>
        <time>2024-01-22T11:45:07.657+00:00</time>
      </trkpt>
      <trkpt lat="48.7682" lon="2.53952">
        <ele>90</ele>
        <time>2024-01-22T11:45:11.841+00:00</time>
      </trkpt>
      <trkpt lat="48.76814" lon="2.5395">
        <ele>89</ele>
        <time>2024-01-22T11:45:16.296+00:00</time>
      </trkpt>
      <trkpt lat="48.76808" lon="2.53945">
        <ele>89</ele>
        <time>2024-01-22T11:45:20.447+00:00</time>
      </trkpt>
      <trkpt lat="48.76802" lon="2.53942">
        <ele>89</ele>
        <time>2024-01-22T11:45:24.630+00:00</time>
      </trkpt>
      <trkpt lat="48.76795" lon="2.53942">
        <ele>89</ele>
        <time>2024-01-22T11:45:29.171+00:00</time>
      </trkpt>
      <trkpt lat="48.76791" lon="2.53941">
        <ele>89</ele>
        <time>2024-01-22T11:45:33.233+00:00</time>
      </trkpt>
      <trkpt lat="48.76785" lon="2.53941">
        <ele>89</ele>
        <time>2024-01-22T11:45:37.657+00:00</time>
      </trkpt>
      <trkpt lat="48.7678" lon="2.53942">
        <ele>89</ele>
        <time>2024-01-22T11:45:41.600+00:00</time>
      </trkpt>
      <trkpt lat="48.76775" lon="2.53942">
        <ele>89</ele>
        <time>2024-01-22T11:45:45.667+00:00</time>
      </trkpt>
      <trkpt lat="48.7677" lon="2.53944">
        <ele>89</ele>
        <time>2024-01-22T11:45:49.851+00:00</time>
      </trkpt>
      <trkpt lat="48.76765" lon="2.53942">
        <ele>89</ele>
        <time>2024-01-22T11:45:54.512+00:00</time>
      </trkpt>
      <trkpt lat="48.7676" lon="2.53941">
        <ele>89</ele>
        <time>2024-01-22T11:45:58.934+00:00</time>
      </trkpt>
      <trkpt lat="48.76755" lon="2.53937">
        <ele>89</ele>
        <time>2024-01-22T11:46:02.762+00:00</time>
      </trkpt>
      <trkpt lat="48.76748" lon="2.53932">
        <ele>89</ele>
        <time>2024-01-22T11:46:07.275+00:00</time>
      </trkpt>
      <trkpt lat="48.7674" lon="2.53933">
        <ele>89</ele>
        <time>2024-01-22T11:46:11.773+00:00</time>
      </trkpt>
      <trkpt lat="48.76736" lon="2.53932">
        <ele>88</ele>
        <time>2024-01-22T11:46:16.199+00:00</time>
      </trkpt>
      <trkpt lat="48.76732" lon="2.5393">
        <ele>88</ele>
        <time>2024-01-22T11:46:20.224+00:00</time>
      </trkpt>
      <trkpt lat="48.76727" lon="2.53929">
        <ele>88</ele>
        <time>2024-01-22T11:46:24.243+00:00</time>
      </trkpt>
      <trkpt lat="48.76722" lon="2.53928">
        <ele>88</ele>
        <time>2024-01-22T11:46:28.238+00:00</time>
      </trkpt>
      <trkpt lat="48.76719" lon="2.5393">
        <ele>88</ele>
        <time>2024-01-22T11:46:32.785+00:00</time>
      </trkpt>
      <trkpt lat="48.76714" lon="2.53931">
        <ele>88</ele>
        <time>2024-01-22T11:46:36.853+00:00</time>
      </trkpt>
      <trkpt lat="48.76707" lon="2.53928">
        <ele>89</ele>
        <time>2024-01-22T11:46:41.399+00:00</time>
      </trkpt>
      <trkpt lat="48.76702" lon="2.53928">
        <ele>89</ele>
        <time>2024-01-22T11:46:45.825+00:00</time>
      </trkpt>
      <trkpt lat="48.76697" lon="2.53927">
        <ele>89</ele>
        <time>2024-01-22T11:46:50.342+00:00</time>
      </trkpt>
      <trkpt lat="48.76691" lon="2.53926">
        <ele>89</ele>
        <time>2024-01-22T11:46:54.793+00:00</time>
      </trkpt>
      <trkpt lat="48.76686" lon="2.53924">
        <ele>89</ele>
        <time>2024-01-22T11:46:59.218+00:00</time>
      </trkpt>
      <trkpt lat="48.76682" lon="2.53927">
        <ele>89</ele>
        <time>2024-01-22T11:47:03.165+00:00</time>
      </trkpt>
      <trkpt lat="48.76678" lon="2.5393">
        <ele>91</ele>
        <time>2024-01-22T11:47:07.231+00:00</time>
      </trkpt>
      <trkpt lat="48.76673" lon="2.53932">
        <ele>92</ele>
        <time>2024-01-22T11:47:11.896+00:00</time>
      </trkpt>
      <trkpt lat="48.76669" lon="2.53931">
        <ele>92</ele>
        <time>2024-01-22T11:47:16.439+00:00</time>
      </trkpt>
      <trkpt lat="48.76664" lon="2.53933">
        <ele>92</ele>
        <time>2024-01-22T11:47:20.862+00:00</time>
      </trkpt>
      <trkpt lat="48.76659" lon="2.53935">
        <ele>92</ele>
        <time>2024-01-22T11:47:25.407+00:00</time>
      </trkpt>
      <trkpt lat="48.76654" lon="2.53937">
        <ele>92</ele>
        <time>2024-01-22T11:47:29.831+00:00</time>
      </trkpt>
      <trkpt lat="48.7665" lon="2.53936">
        <ele>94</ele>
        <time>2024-01-22T11:47:34.017+00:00</time>
      </trkpt>
      <trkpt lat="48.76645" lon="2.53933">
        <ele>94</ele>
        <time>2024-01-22T11:47:38.526+00:00</time>
      </trkpt>
      <trkpt lat="48.7664" lon="2.53929">
        <ele>93</ele>
        <time>2024-01-22T11:47:42.984+00:00</time>
      </trkpt>
      <trkpt lat="48.76637" lon="2.53923">
        <ele>93</ele>
        <time>2024-01-22T11:47:47.408+00:00</time>
      </trkpt>
      <trkpt lat="48.76634" lon="2.53917">
        <ele>93</ele>
        <time>2024-01-22T11:47:51.952+00:00</time>
      </trkpt>
      <trkpt lat="48.7663" lon="2.53912">
        <ele>93</ele>
        <time>2024-01-22T11:47:56.526+00:00</time>
      </trkpt>
      <trkpt lat="48.76628" lon="2.53904">
        <ele>93</ele>
        <time>2024-01-22T11:48:00.921+00:00</time>
      </trkpt>
      <trkpt lat="48.76626" lon="2.53896">
        <ele>93</ele>
        <time>2024-01-22T11:48:04.986+00:00</time>
      </trkpt>
      <trkpt lat="48.76624" lon="2.53886">
        <ele>97</ele>
        <time>2024-01-22T11:48:09.650+00:00</time>
      </trkpt>
      <trkpt lat="48.76622" lon="2.53878">
        <ele>97</ele>
        <time>2024-01-22T11:48:14.433+00:00</time>
      </trkpt>
      <trkpt lat="48.76619" lon="2.53871">
        <ele>96</ele>
        <time>2024-01-22T11:48:19.096+00:00</time>
      </trkpt>
      <trkpt lat="48.76614" lon="2.53866">
        <ele>96</ele>
        <time>2024-01-22T11:48:23.400+00:00</time>
      </trkpt>
      <trkpt lat="48.76612" lon="2.53861">
        <ele>96</ele>
        <time>2024-01-22T11:48:27.824+00:00</time>
      </trkpt>
      <trkpt lat="48.76608" lon="2.53856">
        <ele>96</ele>
        <time>2024-01-22T11:48:31.771+00:00</time>
      </trkpt>
      <trkpt lat="48.76603" lon="2.53849">
        <ele>96</ele>
        <time>2024-01-22T11:48:36.957+00:00</time>
      </trkpt>
      <trkpt lat="48.766" lon="2.5384">
        <ele>95</ele>
        <time>2024-01-22T11:48:41.263+00:00</time>
      </trkpt>
      <trkpt lat="48.76599" lon="2.53832">
        <ele>95</ele>
        <time>2024-01-22T11:48:45.043+00:00</time>
      </trkpt>
      <trkpt lat="48.76598" lon="2.53822">
        <ele>95</ele>
        <time>2024-01-22T11:48:49.526+00:00</time>
      </trkpt>
      <trkpt lat="48.76596" lon="2.53814">
        <ele>97</ele>
        <time>2024-01-22T11:48:54.232+00:00</time>
      </trkpt>
      <trkpt lat="48.76595" lon="2.53808">
        <ele>97</ele>
        <time>2024-01-22T11:48:58.657+00:00</time>
      </trkpt>
      <trkpt lat="48.76594" lon="2.53804">
        <ele>97</ele>
        <time>2024-01-22T11:49:02.841+00:00</time>
      </trkpt>
      <trkpt lat="48.76592" lon="2.53795">
        <ele>97</ele>
        <time>2024-01-22T11:49:07.505+00:00</time>
      </trkpt>
      <trkpt lat="48.7659" lon="2.53783">
        <ele>97</ele>
        <time>2024-01-22T11:49:12.061+00:00</time>
      </trkpt>
      <trkpt lat="48.76589" lon="2.53776">
        <ele>97</ele>
        <time>2024-01-22T11:49:16.231+00:00</time>
      </trkpt>
      <trkpt lat="48.76588" lon="2.5377">
        <ele>97</ele>
        <time>2024-01-22T11:49:20.276+00:00</time>
      </trkpt>
      <trkpt lat="48.76586" lon="2.53763">
        <ele>97</ele>
        <time>2024-01-22T11:49:25.252+00:00</time>
      </trkpt>
      <trkpt lat="48.76584" lon="2.53757">
        <ele>97</ele>
        <time>2024-01-22T11:49:29.146+00:00</time>
      </trkpt>
      <trkpt lat="48.76582" lon="2.53746">
        <ele>97</ele>
        <time>2024-01-22T11:49:34.181+00:00</time>
      </trkpt>
      <trkpt lat="48.7658" lon="2.53739">
        <ele>97</ele>
        <time>2024-01-22T11:49:38.097+00:00</time>
      </trkpt>
      <trkpt lat="48.76578" lon="2.53731">
        <ele>96</ele>
        <time>2024-01-22T11:49:42.640+00:00</time>
      </trkpt>
      <trkpt lat="48.76576" lon="2.53723">
        <ele>96</ele>
        <time>2024-01-22T11:49:47.422+00:00</time>
      </trkpt>
      <trkpt lat="48.76574" lon="2.53715">
        <ele>96</ele>
        <time>2024-01-22T11:49:51.946+00:00</time>
      </trkpt>
      <trkpt lat="48.7657" lon="2.53708">
        <ele>95</ele>
        <time>2024-01-22T11:49:56.352+00:00</time>
      </trkpt>
      <trkpt lat="48.76565" lon="2.53703">
        <ele>96</ele>
        <time>2024-01-22T11:50:00.897+00:00</time>
      </trkpt>
      <trkpt lat="48.76559" lon="2.53699">
        <ele>96</ele>
        <time>2024-01-22T11:50:05.443+00:00</time>
      </trkpt>
      <trkpt lat="48.76554" lon="2.53694">
        <ele>96</ele>
        <time>2024-01-22T11:50:09.988+00:00</time>
      </trkpt>
      <trkpt lat="48.76548" lon="2.5369">
        <ele>96</ele>
        <time>2024-01-22T11:50:14.526+00:00</time>
      </trkpt>
      <trkpt lat="48.76544" lon="2.53685">
        <ele>96</ele>
        <time>2024-01-22T11:50:18.964+00:00</time>
      </trkpt>
      <trkpt lat="48.76539" lon="2.5368">
        <ele>96</ele>
        <time>2024-01-22T11:50:23.509+00:00</time>
      </trkpt>
      <trkpt lat="48.76534" lon="2.53675">
        <ele>96</ele>
        <time>2024-01-22T11:50:28.054+00:00</time>
      </trkpt>
      <trkpt lat="48.76531" lon="2.5367">
        <ele>96</ele>
        <time>2024-01-22T11:50:32.479+00:00</time>
      </trkpt>
      <trkpt lat="48.76525" lon="2.53666">
        <ele>96</ele>
        <time>2024-01-22T11:50:36.782+00:00</time>
      </trkpt>
      <trkpt lat="48.76518" lon="2.53662">
        <ele>96</ele>
        <time>2024-01-22T11:50:41.204+00:00</time>
      </trkpt>
      <trkpt lat="48.76512" lon="2.53659">
        <ele>97</ele>
        <time>2024-01-22T11:50:45.627+00:00</time>
      </trkpt>
      <trkpt lat="48.76508" lon="2.53657">
        <ele>97</ele>
        <time>2024-01-22T11:50:50.051+00:00</time>
      </trkpt>
      <trkpt lat="48.76503" lon="2.53654">
        <ele>97</ele>
        <time>2024-01-22T11:50:54.480+00:00</time>
      </trkpt>
      <trkpt lat="48.76499" lon="2.53652">
        <ele>96</ele>
        <time>2024-01-22T11:50:58.433+00:00</time>
      </trkpt>
      <trkpt lat="48.76494" lon="2.53649">
        <ele>96</ele>
        <time>2024-01-22T11:51:02.983+00:00</time>
      </trkpt>
      <trkpt lat="48.76489" lon="2.53646">
        <ele>96</ele>
        <time>2024-01-22T11:51:07.954+00:00</time>
      </trkpt>
      <trkpt lat="48.76484" lon="2.53643">
        <ele>97</ele>
        <time>2024-01-22T11:51:11.946+00:00</time>
      </trkpt>
      <trkpt lat="48.76476" lon="2.53641">
        <ele>97</ele>
        <time>2024-01-22T11:51:16.137+00:00</time>
      </trkpt>
      <trkpt lat="48.76469" lon="2.53638">
        <ele>97</ele>
        <time>2024-01-22T11:51:20.567+00:00</time>
      </trkpt>
      <trkpt lat="48.76465" lon="2.53636">
        <ele>97</ele>
        <time>2024-01-22T11:51:24.995+00:00</time>
      </trkpt>
      <trkpt lat="48.7646" lon="2.53634">
        <ele>97</ele>
        <time>2024-01-22T11:51:30.002+00:00</time>
      </trkpt>
      <trkpt lat="48.76455" lon="2.53631">
        <ele>98</ele>
        <time>2024-01-22T11:51:33.848+00:00</time>
      </trkpt>
      <trkpt lat="48.7645" lon="2.53625">
        <ele>98</ele>
        <time>2024-01-22T11:51:38.698+00:00</time>
      </trkpt>
      <trkpt lat="48.76444" lon="2.53623">
        <ele>97</ele>
        <time>2024-01-22T11:51:43.107+00:00</time>
      </trkpt>
      <trkpt lat="48.76438" lon="2.53623">
        <ele>97</ele>
        <time>2024-01-22T11:51:47.653+00:00</time>
      </trkpt>
      <trkpt lat="48.76433" lon="2.53623">
        <ele>97</ele>
        <time>2024-01-22T11:51:52.438+00:00</time>
      </trkpt>
      <trkpt lat="48.76427" lon="2.53622">
        <ele>98</ele>
        <time>2024-01-22T11:51:56.863+00:00</time>
      </trkpt>
      <trkpt lat="48.76421" lon="2.53621">
        <ele>98</ele>
        <time>2024-01-22T11:52:01.407+00:00</time>
      </trkpt>
      <trkpt lat="48.76417" lon="2.53618">
        <ele>98</ele>
        <time>2024-01-22T11:52:05.833+00:00</time>
      </trkpt>
      <trkpt lat="48.76411" lon="2.53615">
        <ele>98</ele>
        <time>2024-01-22T11:52:09.900+00:00</time>
      </trkpt>
      <trkpt lat="48.76405" lon="2.53613">
        <ele>98</ele>
        <time>2024-01-22T11:52:14.939+00:00</time>
      </trkpt>
      <trkpt lat="48.76399" lon="2.5361">
        <ele>97</ele>
        <time>2024-01-22T11:52:19.271+00:00</time>
      </trkpt>
      <trkpt lat="48.76394" lon="2.53607">
        <ele>97</ele>
        <time>2024-01-22T11:52:23.777+00:00</time>
      </trkpt>
      <trkpt lat="48.76389" lon="2.53605">
        <ele>97</ele>
        <time>2024-01-22T11:52:27.846+00:00</time>
      </trkpt>
      <trkpt lat="48.76384" lon="2.53605">
        <ele>97</ele>
        <time>2024-01-22T11:52:32.511+00:00</time>
      </trkpt>
      <trkpt lat="48.7638" lon="2.53605">
        <ele>97</ele>
        <time>2024-01-22T11:52:36.526+00:00</time>
      </trkpt>
      <trkpt lat="48.7637" lon="2.5361">
        <ele>96</ele>
        <time>2024-01-22T11:53:57.277+00:00</time>
      </trkpt>
      <trkpt lat="48.76369" lon="2.53605">
        <ele>96</ele>
        <time>2024-01-22T11:54:01.824+00:00</time>
      </trkpt>
      <trkpt lat="48.76362" lon="2.53595">
        <ele>96</ele>
        <time>2024-01-22T11:54:06.850+00:00</time>
      </trkpt>
      <trkpt lat="48.76352" lon="2.53599">
        <ele>96</ele>
        <time>2024-01-22T11:54:11.516+00:00</time>
      </trkpt>
      <trkpt lat="48.76347" lon="2.53602">
        <ele>96</ele>
        <time>2024-01-22T11:54:16.065+00:00</time>
      </trkpt>
      <trkpt lat="48.76342" lon="2.53605">
        <ele>97</ele>
        <time>2024-01-22T11:54:19.895+00:00</time>
      </trkpt>
      <trkpt lat="48.76337" lon="2.53607">
        <ele>97</ele>
        <time>2024-01-22T11:54:24.442+00:00</time>
      </trkpt>
      <trkpt lat="48.76331" lon="2.53603">
        <ele>97</ele>
        <time>2024-01-22T11:54:28.631+00:00</time>
      </trkpt>
      <trkpt lat="48.76326" lon="2.53595">
        <ele>96</ele>
        <time>2024-01-22T11:54:33.279+00:00</time>
      </trkpt>
      <trkpt lat="48.76322" lon="2.53588">
        <ele>96</ele>
        <time>2024-01-22T11:54:37.709+00:00</time>
      </trkpt>
      <trkpt lat="48.76318" lon="2.53584">
        <ele>97</ele>
        <time>2024-01-22T11:54:42.081+00:00</time>
      </trkpt>
      <trkpt lat="48.76315" lon="2.53579">
        <ele>97</ele>
        <time>2024-01-22T11:54:46.038+00:00</time>
      </trkpt>
      <trkpt lat="48.76312" lon="2.53574">
        <ele>97</ele>
        <time>2024-01-22T11:54:50.224+00:00</time>
      </trkpt>
      <trkpt lat="48.76307" lon="2.53569">
        <ele>97</ele>
        <time>2024-01-22T11:54:53.825+00:00</time>
      </trkpt>
      <trkpt lat="48.76303" lon="2.53561">
        <ele>97</ele>
        <time>2024-01-22T11:54:58.979+00:00</time>
      </trkpt>
      <trkpt lat="48.76299" lon="2.53555">
        <ele>97</ele>
        <time>2024-01-22T11:55:03.052+00:00</time>
      </trkpt>
      <trkpt lat="48.76295" lon="2.5355">
        <ele>97</ele>
        <time>2024-01-22T11:55:07.065+00:00</time>
      </trkpt>
      <trkpt lat="48.76291" lon="2.53545">
        <ele>98</ele>
        <time>2024-01-22T11:55:11.017+00:00</time>
      </trkpt>
      <trkpt lat="48.76288" lon="2.53538">
        <ele>98</ele>
        <time>2024-01-22T11:55:15.526+00:00</time>
      </trkpt>
      <trkpt lat="48.76283" lon="2.53531">
        <ele>98</ele>
        <time>2024-01-22T11:55:20.040+00:00</time>
      </trkpt>
      <trkpt lat="48.76279" lon="2.53526">
        <ele>98</ele>
        <time>2024-01-22T11:55:24.066+00:00</time>
      </trkpt>
      <trkpt lat="48.76275" lon="2.53521">
        <ele>98</ele>
        <time>2024-01-22T11:55:28.376+00:00</time>
      </trkpt>
      <trkpt lat="48.7627" lon="2.53518">
        <ele>98</ele>
        <time>2024-01-22T11:55:32.819+00:00</time>
      </trkpt>
      <trkpt lat="48.76265" lon="2.53512">
        <ele>97</ele>
        <time>2024-01-22T11:55:37.160+00:00</time>
      </trkpt>
      <trkpt lat="48.76262" lon="2.53502">
        <ele>98</ele>
        <time>2024-01-22T11:55:41.049+00:00</time>
      </trkpt>
      <trkpt lat="48.76257" lon="2.53494">
        <ele>98</ele>
        <time>2024-01-22T11:55:46.041+00:00</time>
      </trkpt>
      <trkpt lat="48.76254" lon="2.53488">
        <ele>98</ele>
        <time>2024-01-22T11:55:49.792+00:00</time>
      </trkpt>
      <trkpt lat="48.7625" lon="2.53486">
        <ele>97</ele>
        <time>2024-01-22T11:55:54.823+00:00</time>
      </trkpt>
      <trkpt lat="48.76246" lon="2.5348">
        <ele>97</ele>
        <time>2024-01-22T11:55:58.771+00:00</time>
      </trkpt>
      <trkpt lat="48.76243" lon="2.53474">
        <ele>97</ele>
        <time>2024-01-22T11:56:03.420+00:00</time>
      </trkpt>
      <trkpt lat="48.76239" lon="2.53468">
        <ele>97</ele>
        <time>2024-01-22T11:56:07.849+00:00</time>
      </trkpt>
      <trkpt lat="48.76235" lon="2.53463">
        <ele>98</ele>
        <time>2024-01-22T11:56:11.679+00:00</time>
      </trkpt>
      <trkpt lat="48.76231" lon="2.53456">
        <ele>97</ele>
        <time>2024-01-22T11:56:16.276+00:00</time>
      </trkpt>
      <trkpt lat="48.76226" lon="2.5345">
        <ele>97</ele>
        <time>2024-01-22T11:56:20.772+00:00</time>
      </trkpt>
      <trkpt lat="48.7622" lon="2.53445">
        <ele>97</ele>
        <time>2024-01-22T11:56:25.268+00:00</time>
      </trkpt>
      <trkpt lat="48.76216" lon="2.5344">
        <ele>97</ele>
        <time>2024-01-22T11:56:29.264+00:00</time>
      </trkpt>
      <trkpt lat="48.76213" lon="2.53432">
        <ele>97</ele>
        <time>2024-01-22T11:56:33.264+00:00</time>
      </trkpt>
      <trkpt lat="48.76208" lon="2.53423">
        <ele>97</ele>
        <time>2024-01-22T11:56:37.876+00:00</time>
      </trkpt>
      <trkpt lat="48.76203" lon="2.53417">
        <ele>97</ele>
        <time>2024-01-22T11:56:42.424+00:00</time>
      </trkpt>
      <trkpt lat="48.76199" lon="2.53411">
        <ele>97</ele>
        <time>2024-01-22T11:56:46.903+00:00</time>
      </trkpt>
      <trkpt lat="48.76194" lon="2.53409">
        <ele>97</ele>
        <time>2024-01-22T11:56:50.799+00:00</time>
      </trkpt>
      <trkpt lat="48.76188" lon="2.53405">
        <ele>97</ele>
        <time>2024-01-22T11:56:55.257+00:00</time>
      </trkpt>
      <trkpt lat="48.76182" lon="2.534">
        <ele>96</ele>
        <time>2024-01-22T11:56:59.276+00:00</time>
      </trkpt>
      <trkpt lat="48.76176" lon="2.53398">
        <ele>98</ele>
        <time>2024-01-22T11:57:03.703+00:00</time>
      </trkpt>
      <trkpt lat="48.76172" lon="2.53396">
        <ele>98</ele>
        <time>2024-01-22T11:57:07.770+00:00</time>
      </trkpt>
      <trkpt lat="48.76167" lon="2.53391">
        <ele>98</ele>
        <time>2024-01-22T11:57:12.435+00:00</time>
      </trkpt>
      <trkpt lat="48.76161" lon="2.53387">
        <ele>98</ele>
        <time>2024-01-22T11:57:16.862+00:00</time>
      </trkpt>
      <trkpt lat="48.76155" lon="2.53387">
        <ele>98</ele>
        <time>2024-01-22T11:57:21.408+00:00</time>
      </trkpt>
      <trkpt lat="48.76149" lon="2.5339">
        <ele>99</ele>
        <time>2024-01-22T11:57:25.954+00:00</time>
      </trkpt>
      <trkpt lat="48.76143" lon="2.53391">
        <ele>99</ele>
        <time>2024-01-22T11:57:30.481+00:00</time>
      </trkpt>
      <trkpt lat="48.76137" lon="2.5339">
        <ele>99</ele>
        <time>2024-01-22T11:57:34.906+00:00</time>
      </trkpt>
      <trkpt lat="48.76131" lon="2.53387">
        <ele>99</ele>
        <time>2024-01-22T11:57:38.853+00:00</time>
      </trkpt>
      <trkpt lat="48.76128" lon="2.53377">
        <ele>99</ele>
        <time>2024-01-22T11:57:43.526+00:00</time>
      </trkpt>
      <trkpt lat="48.76124" lon="2.53371">
        <ele>100</ele>
        <time>2024-01-22T11:57:47.943+00:00</time>
      </trkpt>
      <trkpt lat="48.76119" lon="2.53365">
        <ele>100</ele>
        <time>2024-01-22T11:57:52.526+00:00</time>
      </trkpt>
      <trkpt lat="48.76116" lon="2.53362">
        <ele>100</ele>
        <time>2024-01-22T11:57:56.526+00:00</time>
      </trkpt>
      <trkpt lat="48.76113" lon="2.5336">
        <ele>100</ele>
        <time>2024-01-22T11:58:00.526+00:00</time>
      </trkpt>
      <trkpt lat="48.76109" lon="2.53358">
        <ele>100</ele>
        <time>2024-01-22T11:58:05.045+00:00</time>
      </trkpt>
      <trkpt lat="48.76105" lon="2.53355">
        <ele>100</ele>
        <time>2024-01-22T11:58:09.710+00:00</time>
      </trkpt>
      <trkpt lat="48.76101" lon="2.53355">
        <ele>100</ele>
        <time>2024-01-22T11:58:14.016+00:00</time>
      </trkpt>
      <trkpt lat="48.76096" lon="2.53356">
        <ele>103</ele>
        <time>2024-01-22T11:58:18.082+00:00</time>
      </trkpt>
      <trkpt lat="48.7609" lon="2.53358">
        <ele>103</ele>
        <time>2024-01-22T11:58:22.270+00:00</time>
      </trkpt>
      <trkpt lat="48.76085" lon="2.5336">
        <ele>103</ele>
        <time>2024-01-22T11:58:26.259+00:00</time>
      </trkpt>
      <trkpt lat="48.76079" lon="2.5336">
        <ele>103</ele>
        <time>2024-01-22T11:58:30.559+00:00</time>
      </trkpt>
      <trkpt lat="48.76074" lon="2.53361">
        <ele>103</ele>
        <time>2024-01-22T11:58:34.471+00:00</time>
      </trkpt>
      <trkpt lat="48.76069" lon="2.53362">
        <ele>106</ele>
        <time>2024-01-22T11:58:38.418+00:00</time>
      </trkpt>
      <trkpt lat="48.76063" lon="2.53362">
        <ele>106</ele>
        <time>2024-01-22T11:58:42.843+00:00</time>
      </trkpt>
      <trkpt lat="48.76059" lon="2.53363">
        <ele>106</ele>
        <time>2024-01-22T11:58:47.065+00:00</time>
      </trkpt>
      <trkpt lat="48.76055" lon="2.53366">
        <ele>106</ele>
        <time>2024-01-22T11:58:51.099+00:00</time>
      </trkpt>
      <trkpt lat="48.7605" lon="2.5337">
        <ele>106</ele>
        <time>2024-01-22T11:58:55.048+00:00</time>
      </trkpt>
      <trkpt lat="48.76045" lon="2.53373">
        <ele>106</ele>
        <time>2024-01-22T11:58:58.998+00:00</time>
      </trkpt>
      <trkpt lat="48.76041" lon="2.53376">
        <ele>105</ele>
        <time>2024-01-22T11:59:03.065+00:00</time>
      </trkpt>
      <trkpt lat="48.76036" lon="2.5338">
        <ele>105</ele>
        <time>2024-01-22T11:59:07.492+00:00</time>
      </trkpt>
      <trkpt lat="48.76031" lon="2.53382">
        <ele>105</ele>
        <time>2024-01-22T11:59:12.039+00:00</time>
      </trkpt>
      <trkpt lat="48.76027" lon="2.53382">
        <ele>105</ele>
        <time>2024-01-22T11:59:15.969+00:00</time>
      </trkpt>
      <trkpt lat="48.76022" lon="2.53386">
        <ele>105</ele>
        <time>2024-01-22T11:59:19.779+00:00</time>
      </trkpt>
      <trkpt lat="48.76015" lon="2.5339">
        <ele>105</ele>
        <time>2024-01-22T11:59:24.260+00:00</time>
      </trkpt>
      <trkpt lat="48.76008" lon="2.53391">
        <ele>103</ele>
        <time>2024-01-22T11:59:28.268+00:00</time>
      </trkpt>
      <trkpt lat="48.76" lon="2.53392">
        <ele>103</ele>
        <time>2024-01-22T11:59:32.463+00:00</time>
      </trkpt>
      <trkpt lat="48.75995" lon="2.53394">
        <ele>103</ele>
        <time>2024-01-22T11:59:36.413+00:00</time>
      </trkpt>
      <trkpt lat="48.7599" lon="2.53395">
        <ele>103</ele>
        <time>2024-01-22T11:59:40.363+00:00</time>
      </trkpt>
      <trkpt lat="48.75985" lon="2.53399">
        <ele>103</ele>
        <time>2024-01-22T11:59:44.791+00:00</time>
      </trkpt>
      <trkpt lat="48.7598" lon="2.53403">
        <ele>102</ele>
        <time>2024-01-22T11:59:49.164+00:00</time>
      </trkpt>
      <trkpt lat="48.75976" lon="2.53407">
        <ele>102</ele>
        <time>2024-01-22T11:59:53.050+00:00</time>
      </trkpt>
      <trkpt lat="48.75974" lon="2.5341">
        <ele>102</ele>
        <time>2024-01-22T11:59:57.239+00:00</time>
      </trkpt>
      <trkpt lat="48.75971" lon="2.53413">
        <ele>102</ele>
        <time>2024-01-22T12:00:01.801+00:00</time>
      </trkpt>
      <trkpt lat="48.75968" lon="2.53416">
        <ele>102</ele>
        <time>2024-01-22T12:00:05.857+00:00</time>
      </trkpt>
      <trkpt lat="48.75964" lon="2.53422">
        <ele>102</ele>
        <time>2024-01-22T12:00:09.806+00:00</time>
      </trkpt>
      <trkpt lat="48.7596" lon="2.53429">
        <ele>102</ele>
        <time>2024-01-22T12:00:14.234+00:00</time>
      </trkpt>
      <trkpt lat="48.75955" lon="2.53436">
        <ele>101</ele>
        <time>2024-01-22T12:00:19.084+00:00</time>
      </trkpt>
      <trkpt lat="48.75951" lon="2.53443">
        <ele>101</ele>
        <time>2024-01-22T12:00:22.970+00:00</time>
      </trkpt>
      <trkpt lat="48.75946" lon="2.53453">
        <ele>101</ele>
        <time>2024-01-22T12:00:27.526+00:00</time>
      </trkpt>
      <trkpt lat="48.75943" lon="2.5346">
        <ele>101</ele>
        <time>2024-01-22T12:00:32.067+00:00</time>
      </trkpt>
      <trkpt lat="48.75942" lon="2.53469">
        <ele>101</ele>
        <time>2024-01-22T12:00:36.016+00:00</time>
      </trkpt>
      <trkpt lat="48.75941" lon="2.53481">
        <ele>101</ele>
        <time>2024-01-22T12:00:41.025+00:00</time>
      </trkpt>
      <trkpt lat="48.75941" lon="2.53491">
        <ele>100</ele>
        <time>2024-01-22T12:00:44.990+00:00</time>
      </trkpt>
      <trkpt lat="48.75942" lon="2.53502">
        <ele>100</ele>
        <time>2024-01-22T12:00:49.979+00:00</time>
      </trkpt>
      <trkpt lat="48.75943" lon="2.5351">
        <ele>100</ele>
        <time>2024-01-22T12:00:53.963+00:00</time>
      </trkpt>
      <trkpt lat="48.75944" lon="2.53521">
        <ele>99</ele>
        <time>2024-01-22T12:00:58.899+00:00</time>
      </trkpt>
      <trkpt lat="48.75944" lon="2.53528">
        <ele>99</ele>
        <time>2024-01-22T12:01:02.816+00:00</time>
      </trkpt>
      <trkpt lat="48.75944" lon="2.53536">
        <ele>99</ele>
        <time>2024-01-22T12:01:07.124+00:00</time>
      </trkpt>
      <trkpt lat="48.75944" lon="2.53546">
        <ele>99</ele>
        <time>2024-01-22T12:01:12.142+00:00</time>
      </trkpt>
      <trkpt lat="48.75943" lon="2.53555">
        <ele>99</ele>
        <time>2024-01-22T12:01:16.097+00:00</time>
      </trkpt>
      <trkpt lat="48.75942" lon="2.53563">
        <ele>99</ele>
        <time>2024-01-22T12:01:20.644+00:00</time>
      </trkpt>
      <trkpt lat="48.7594" lon="2.53569">
        <ele>99</ele>
        <time>2024-01-22T12:01:24.835+00:00</time>
      </trkpt>
      <trkpt lat="48.75942" lon="2.53576">
        <ele>98</ele>
        <time>2024-01-22T12:01:30.088+00:00</time>
      </trkpt>
      <trkpt lat="48.75941" lon="2.53584">
        <ele>98</ele>
        <time>2024-01-22T12:01:34.153+00:00</time>
      </trkpt>
      <trkpt lat="48.75937" lon="2.53592">
        <ele>98</ele>
        <time>2024-01-22T12:01:38.663+00:00</time>
      </trkpt>
      <trkpt lat="48.75939" lon="2.53599">
        <ele>98</ele>
        <time>2024-01-22T12:01:43.176+00:00</time>
      </trkpt>
      <trkpt lat="48.75941" lon="2.53612">
        <ele>98</ele>
        <time>2024-01-22T12:04:51.239+00:00</time>
      </trkpt>
      <trkpt lat="48.75941" lon="2.53614">
        <ele>98</ele>
        <time>2024-01-22T12:04:56.221+00:00</time>
      </trkpt>
      <trkpt lat="48.75942" lon="2.53615">
        <ele>98</ele>
        <time>2024-01-22T12:05:00.229+00:00</time>
      </trkpt>
      <trkpt lat="48.75943" lon="2.53616">
        <ele>98</ele>
        <time>2024-01-22T12:05:04.246+00:00</time>
      </trkpt>
      <trkpt lat="48.75943" lon="2.53618">
        <ele>98</ele>
        <time>2024-01-22T12:05:08.228+00:00</time>
      </trkpt>
      <trkpt lat="48.75938" lon="2.53604">
        <ele>98</ele>
        <time>2024-01-22T12:21:56.229+00:00</time>
      </trkpt>
      <trkpt lat="48.75937" lon="2.53604">
        <ele>98</ele>
        <time>2024-01-22T12:22:00.228+00:00</time>
      </trkpt>
      <trkpt lat="48.75937" lon="2.53604">
        <ele>98</ele>
        <time>2024-01-22T12:22:04.223+00:00</time>
      </trkpt>
      <trkpt lat="48.75937" lon="2.53604">
        <ele>98</ele>
        <time>2024-01-22T12:22:08.241+00:00</time>
      </trkpt>
      <trkpt lat="48.75937" lon="2.53604">
        <ele>98</ele>
        <time>2024-01-22T12:22:13.241+00:00</time>
      </trkpt>
      <trkpt lat="48.7594" lon="2.53607">
        <ele>98</ele>
        <time>2024-01-22T12:35:16.244+00:00</time>
      </trkpt>
      <trkpt lat="48.75942" lon="2.53605">
        <ele>98</ele>
        <time>2024-01-22T12:35:20.288+00:00</time>
      </trkpt>
      <trkpt lat="48.75942" lon="2.53606">
        <ele>98</ele>
        <time>2024-01-22T12:35:23.230+00:00</time>
      </trkpt>
      <trkpt lat="48.75924" lon="2.53603">
        <ele>98</ele>
        <time>2024-01-22T12:35:32.216+00:00</time>
      </trkpt>
      <trkpt lat="48.75926" lon="2.53587">
        <ele>98</ele>
        <time>2024-01-22T12:35:36.221+00:00</time>
      </trkpt>
      <trkpt lat="48.7593" lon="2.53582">
        <ele>98</ele>
        <time>2024-01-22T12:35:41.217+00:00</time>
      </trkpt>
      <trkpt lat="48.75934" lon="2.53584">
        <ele>98</ele>
        <time>2024-01-22T12:35:45.240+00:00</time>
      </trkpt>
      <trkpt lat="48.75935" lon="2.53591">
        <ele>98</ele>
        <time>2024-01-22T12:35:49.243+00:00</time>
      </trkpt>
      <trkpt lat="48.75939" lon="2.53599">
        <ele>98</ele>
        <time>2024-01-22T12:35:53.870+00:00</time>
      </trkpt>
      <trkpt lat="48.75941" lon="2.53603">
        <ele>98</ele>
        <time>2024-01-22T12:36:15.848+00:00</time>
      </trkpt>
      <trkpt lat="48.75941" lon="2.53606">
        <ele>98</ele>
        <time>2024-01-22T12:36:20.040+00:00</time>
      </trkpt>
      <trkpt lat="48.75941" lon="2.53609">
        <ele>98</ele>
        <time>2024-01-22T12:36:24.830+00:00</time>
      </trkpt>
      <trkpt lat="48.75941" lon="2.5361">
        <ele>98</ele>
        <time>2024-01-22T12:36:30.098+00:00</time>
      </trkpt>
      <trkpt lat="48.75942" lon="2.53613">
        <ele>98</ele>
        <time>2024-01-22T12:36:34.268+00:00</time>
      </trkpt>
      <trkpt lat="48.75945" lon="2.53604">
        <ele>98</ele>
        <time>2024-01-22T12:37:10.226+00:00</time>
      </trkpt>
      <trkpt lat="48.75946" lon="2.53603">
        <ele>98</ele>
        <time>2024-01-22T12:37:14.227+00:00</time>
      </trkpt>
      <trkpt lat="48.75946" lon="2.53603">
        <ele>98</ele>
        <time>2024-01-22T12:37:18.227+00:00</time>
      </trkpt>
      <trkpt lat="48.75946" lon="2.53603">
        <ele>98</ele>
        <time>2024-01-22T12:37:22.260+00:00</time>
      </trkpt>
      <trkpt lat="48.75947" lon="2.53602">
        <ele>98</ele>
        <time>2024-01-22T12:37:27.282+00:00</time>
      </trkpt>
      <trkpt lat="48.75954" lon="2.53596">
        <ele>98</ele>
        <time>2024-01-22T12:38:35.519+00:00</time>
      </trkpt>
      <trkpt lat="48.75958" lon="2.53603">
        <ele>99</ele>
        <time>2024-01-22T12:38:39.701+00:00</time>
      </trkpt>
      <trkpt lat="48.75962" lon="2.53609">
        <ele>99</ele>
        <time>2024-01-22T12:38:43.842+00:00</time>
      </trkpt>
      <trkpt lat="48.75963" lon="2.53614">
        <ele>99</ele>
        <time>2024-01-22T12:38:48.224+00:00</time>
      </trkpt>
      <trkpt lat="48.75964" lon="2.53622">
        <ele>99</ele>
        <time>2024-01-22T12:38:52.345+00:00</time>
      </trkpt>
      <trkpt lat="48.75965" lon="2.53631">
        <ele>98</ele>
        <time>2024-01-22T12:38:56.844+00:00</time>
      </trkpt>
      <trkpt lat="48.75966" lon="2.5364">
        <ele>98</ele>
        <time>2024-01-22T12:39:01.367+00:00</time>
      </trkpt>
      <trkpt lat="48.75967" lon="2.53649">
        <ele>98</ele>
        <time>2024-01-22T12:39:05.791+00:00</time>
      </trkpt>
      <trkpt lat="48.75969" lon="2.53657">
        <ele>98</ele>
        <time>2024-01-22T12:39:09.824+00:00</time>
      </trkpt>
      <trkpt lat="48.75971" lon="2.53666">
        <ele>98</ele>
        <time>2024-01-22T12:39:14.362+00:00</time>
      </trkpt>
      <trkpt lat="48.75974" lon="2.53674">
        <ele>98</ele>
        <time>2024-01-22T12:39:18.941+00:00</time>
      </trkpt>
      <trkpt lat="48.75977" lon="2.53681">
        <ele>99</ele>
        <time>2024-01-22T12:39:23.082+00:00</time>
      </trkpt>
      <trkpt lat="48.75984" lon="2.53688">
        <ele>99</ele>
        <time>2024-01-22T12:39:27.783+00:00</time>
      </trkpt>
      <trkpt lat="48.75988" lon="2.53693">
        <ele>99</ele>
        <time>2024-01-22T12:39:32.104+00:00</time>
      </trkpt>
      <trkpt lat="48.75989" lon="2.53698">
        <ele>99</ele>
        <time>2024-01-22T12:39:36.785+00:00</time>
      </trkpt>
      <trkpt lat="48.75989" lon="2.53707">
        <ele>99</ele>
        <time>2024-01-22T12:39:40.807+00:00</time>
      </trkpt>
      <trkpt lat="48.75986" lon="2.53715">
        <ele>100</ele>
        <time>2024-01-22T12:39:45.692+00:00</time>
      </trkpt>
      <trkpt lat="48.75981" lon="2.53718">
        <ele>99</ele>
        <time>2024-01-22T12:39:49.648+00:00</time>
      </trkpt>
      <trkpt lat="48.75972" lon="2.53717">
        <ele>99</ele>
        <time>2024-01-22T12:39:54.081+00:00</time>
      </trkpt>
      <trkpt lat="48.75967" lon="2.5372">
        <ele>99</ele>
        <time>2024-01-22T12:39:57.875+00:00</time>
      </trkpt>
      <trkpt lat="48.75965" lon="2.53729">
        <ele>99</ele>
        <time>2024-01-22T12:40:02.426+00:00</time>
      </trkpt>
      <trkpt lat="48.75963" lon="2.53737">
        <ele>101</ele>
        <time>2024-01-22T12:40:06.378+00:00</time>
      </trkpt>
      <trkpt lat="48.7596" lon="2.53747">
        <ele>101</ele>
        <time>2024-01-22T12:40:10.816+00:00</time>
      </trkpt>
      <trkpt lat="48.75959" lon="2.53757">
        <ele>101</ele>
        <time>2024-01-22T12:40:14.762+00:00</time>
      </trkpt>
      <trkpt lat="48.75956" lon="2.53764">
        <ele>101</ele>
        <time>2024-01-22T12:40:19.105+00:00</time>
      </trkpt>
      <trkpt lat="48.75953" lon="2.53771">
        <ele>101</ele>
        <time>2024-01-22T12:40:23.023+00:00</time>
      </trkpt>
      <trkpt lat="48.7595" lon="2.53778">
        <ele>101</ele>
        <time>2024-01-22T12:40:26.973+00:00</time>
      </trkpt>
      <trkpt lat="48.75945" lon="2.53786">
        <ele>101</ele>
        <time>2024-01-22T12:40:31.384+00:00</time>
      </trkpt>
      <trkpt lat="48.75942" lon="2.53792">
        <ele>102</ele>
        <time>2024-01-22T12:40:35.454+00:00</time>
      </trkpt>
      <trkpt lat="48.75937" lon="2.53797">
        <ele>102</ele>
        <time>2024-01-22T12:40:39.928+00:00</time>
      </trkpt>
      <trkpt lat="48.75934" lon="2.53801">
        <ele>102</ele>
        <time>2024-01-22T12:40:43.835+00:00</time>
      </trkpt>
      <trkpt lat="48.75931" lon="2.53809">
        <ele>101</ele>
        <time>2024-01-22T12:40:47.748+00:00</time>
      </trkpt>
      <trkpt lat="48.75928" lon="2.5382">
        <ele>101</ele>
        <time>2024-01-22T12:40:52.724+00:00</time>
      </trkpt>
      <trkpt lat="48.75926" lon="2.53828">
        <ele>101</ele>
        <time>2024-01-22T12:40:56.721+00:00</time>
      </trkpt>
      <trkpt lat="48.75925" lon="2.53836">
        <ele>101</ele>
        <time>2024-01-22T12:41:01.056+00:00</time>
      </trkpt>
      <trkpt lat="48.75923" lon="2.53844">
        <ele>101</ele>
        <time>2024-01-22T12:41:05.247+00:00</time>
      </trkpt>
      <trkpt lat="48.7592" lon="2.53853">
        <ele>100</ele>
        <time>2024-01-22T12:41:09.078+00:00</time>
      </trkpt>
      <trkpt lat="48.75916" lon="2.53863">
        <ele>100</ele>
        <time>2024-01-22T12:41:13.629+00:00</time>
      </trkpt>
      <trkpt lat="48.75913" lon="2.5387">
        <ele>100</ele>
        <time>2024-01-22T12:41:17.461+00:00</time>
      </trkpt>
      <trkpt lat="48.75911" lon="2.53877">
        <ele>100</ele>
        <time>2024-01-22T12:41:21.533+00:00</time>
      </trkpt>
      <trkpt lat="48.75909" lon="2.53886">
        <ele>100</ele>
        <time>2024-01-22T12:41:25.986+00:00</time>
      </trkpt>
      <trkpt lat="48.75906" lon="2.53892">
        <ele>100</ele>
        <time>2024-01-22T12:41:30.013+00:00</time>
      </trkpt>
      <trkpt lat="48.75902" lon="2.53898">
        <ele>101</ele>
        <time>2024-01-22T12:41:34.681+00:00</time>
      </trkpt>
      <trkpt lat="48.75896" lon="2.53899">
        <ele>101</ele>
        <time>2024-01-22T12:41:39.262+00:00</time>
      </trkpt>
      <trkpt lat="48.7589" lon="2.53904">
        <ele>100</ele>
        <time>2024-01-22T12:41:43.181+00:00</time>
      </trkpt>
      <trkpt lat="48.75886" lon="2.5391">
        <ele>100</ele>
        <time>2024-01-22T12:41:47.074+00:00</time>
      </trkpt>
      <trkpt lat="48.75882" lon="2.53918">
        <ele>100</ele>
        <time>2024-01-22T12:41:51.526+00:00</time>
      </trkpt>
      <trkpt lat="48.75877" lon="2.53925">
        <ele>100</ele>
        <time>2024-01-22T12:41:56.050+00:00</time>
      </trkpt>
      <trkpt lat="48.75874" lon="2.53932">
        <ele>102</ele>
        <time>2024-01-22T12:42:00.239+00:00</time>
      </trkpt>
      <trkpt lat="48.75872" lon="2.53939">
        <ele>102</ele>
        <time>2024-01-22T12:42:03.827+00:00</time>
      </trkpt>
      <trkpt lat="48.75868" lon="2.53946">
        <ele>102</ele>
        <time>2024-01-22T12:42:08.374+00:00</time>
      </trkpt>
      <trkpt lat="48.75865" lon="2.53952">
        <ele>102</ele>
        <time>2024-01-22T12:42:12.324+00:00</time>
      </trkpt>
      <trkpt lat="48.75862" lon="2.5396">
        <ele>101</ele>
        <time>2024-01-22T12:42:16.805+00:00</time>
      </trkpt>
      <trkpt lat="48.75858" lon="2.53967">
        <ele>101</ele>
        <time>2024-01-22T12:42:21.271+00:00</time>
      </trkpt>
      <trkpt lat="48.75855" lon="2.53974">
        <ele>101</ele>
        <time>2024-01-22T12:42:25.845+00:00</time>
      </trkpt>
      <trkpt lat="48.75852" lon="2.53981">
        <ele>101</ele>
        <time>2024-01-22T12:42:30.464+00:00</time>
      </trkpt>
      <trkpt lat="48.75848" lon="2.53988">
        <ele>99</ele>
        <time>2024-01-22T12:42:34.800+00:00</time>
      </trkpt>
      <trkpt lat="48.75846" lon="2.53996">
        <ele>100</ele>
        <time>2024-01-22T12:42:39.228+00:00</time>
      </trkpt>
      <trkpt lat="48.75843" lon="2.54005">
        <ele>100</ele>
        <time>2024-01-22T12:42:43.776+00:00</time>
      </trkpt>
      <trkpt lat="48.75839" lon="2.54013">
        <ele>100</ele>
        <time>2024-01-22T12:42:48.272+00:00</time>
      </trkpt>
      <trkpt lat="48.75835" lon="2.54021">
        <ele>98</ele>
        <time>2024-01-22T12:42:52.831+00:00</time>
      </trkpt>
      <trkpt lat="48.75831" lon="2.54029">
        <ele>98</ele>
        <time>2024-01-22T12:42:56.698+00:00</time>
      </trkpt>
      <trkpt lat="48.75828" lon="2.54036">
        <ele>98</ele>
        <time>2024-01-22T12:43:00.766+00:00</time>
      </trkpt>
      <trkpt lat="48.75824" lon="2.54045">
        <ele>97</ele>
        <time>2024-01-22T12:43:05.280+00:00</time>
      </trkpt>
      <trkpt lat="48.75821" lon="2.54054">
        <ele>97</ele>
        <time>2024-01-22T12:43:09.744+00:00</time>
      </trkpt>
      <trkpt lat="48.75818" lon="2.54064">
        <ele>97</ele>
        <time>2024-01-22T12:43:14.294+00:00</time>
      </trkpt>
      <trkpt lat="48.75815" lon="2.54071">
        <ele>97</ele>
        <time>2024-01-22T12:43:18.946+00:00</time>
      </trkpt>
      <trkpt lat="48.75812" lon="2.54077">
        <ele>97</ele>
        <time>2024-01-22T12:43:23.006+00:00</time>
      </trkpt>
      <trkpt lat="48.75808" lon="2.5408">
        <ele>97</ele>
        <time>2024-01-22T12:43:26.983+00:00</time>
      </trkpt>
      <trkpt lat="48.75803" lon="2.54084">
        <ele>97</ele>
        <time>2024-01-22T12:43:31.413+00:00</time>
      </trkpt>
      <trkpt lat="48.75798" lon="2.5409">
        <ele>97</ele>
        <time>2024-01-22T12:43:35.961+00:00</time>
      </trkpt>
      <trkpt lat="48.75794" lon="2.54097">
        <ele>97</ele>
        <time>2024-01-22T12:43:39.791+00:00</time>
      </trkpt>
      <trkpt lat="48.75791" lon="2.54104">
        <ele>98</ele>
        <time>2024-01-22T12:43:43.861+00:00</time>
      </trkpt>
      <trkpt lat="48.75789" lon="2.54112">
        <ele>98</ele>
        <time>2024-01-22T12:43:48.647+00:00</time>
      </trkpt>
      <trkpt lat="48.75784" lon="2.54116">
        <ele>98</ele>
        <time>2024-01-22T12:43:52.836+00:00</time>
      </trkpt>
      <trkpt lat="48.75778" lon="2.54123">
        <ele>98</ele>
        <time>2024-01-22T12:43:57.264+00:00</time>
      </trkpt>
      <trkpt lat="48.75775" lon="2.54133">
        <ele>98</ele>
        <time>2024-01-22T12:44:01.811+00:00</time>
      </trkpt>
      <trkpt lat="48.75771" lon="2.5414">
        <ele>98</ele>
        <time>2024-01-22T12:44:06.273+00:00</time>
      </trkpt>
      <trkpt lat="48.75767" lon="2.54148">
        <ele>98</ele>
        <time>2024-01-22T12:44:10.749+00:00</time>
      </trkpt>
      <trkpt lat="48.75763" lon="2.54155">
        <ele>98</ele>
        <time>2024-01-22T12:44:15.290+00:00</time>
      </trkpt>
      <trkpt lat="48.75761" lon="2.54165">
        <ele>98</ele>
        <time>2024-01-22T12:44:19.845+00:00</time>
      </trkpt>
      <trkpt lat="48.75759" lon="2.54174">
        <ele>98</ele>
        <time>2024-01-22T12:44:24.272+00:00</time>
      </trkpt>
      <trkpt lat="48.75756" lon="2.54181">
        <ele>98</ele>
        <time>2024-01-22T12:44:29.243+00:00</time>
      </trkpt>
      <trkpt lat="48.75753" lon="2.54185">
        <ele>98</ele>
        <time>2024-01-22T12:44:33.411+00:00</time>
      </trkpt>
      <trkpt lat="48.75749" lon="2.54192">
        <ele>98</ele>
        <time>2024-01-22T12:44:37.362+00:00</time>
      </trkpt>
      <trkpt lat="48.75743" lon="2.54201">
        <ele>98</ele>
        <time>2024-01-22T12:44:42.033+00:00</time>
      </trkpt>
      <trkpt lat="48.75736" lon="2.54208">
        <ele>98</ele>
        <time>2024-01-22T12:44:47.045+00:00</time>
      </trkpt>
      <trkpt lat="48.75731" lon="2.54213">
        <ele>98</ele>
        <time>2024-01-22T12:44:51.148+00:00</time>
      </trkpt>
      <trkpt lat="48.75726" lon="2.5422">
        <ele>98</ele>
        <time>2024-01-22T12:44:55.742+00:00</time>
      </trkpt>
      <trkpt lat="48.75723" lon="2.54229">
        <ele>98</ele>
        <time>2024-01-22T12:45:00.271+00:00</time>
      </trkpt>
      <trkpt lat="48.75723" lon="2.54239">
        <ele>97</ele>
        <time>2024-01-22T12:45:04.837+00:00</time>
      </trkpt>
      <trkpt lat="48.75721" lon="2.54246">
        <ele>97</ele>
        <time>2024-01-22T12:45:08.788+00:00</time>
      </trkpt>
      <trkpt lat="48.75717" lon="2.54254">
        <ele>97</ele>
        <time>2024-01-22T12:45:13.456+00:00</time>
      </trkpt>
      <trkpt lat="48.75713" lon="2.54261">
        <ele>97</ele>
        <time>2024-01-22T12:45:17.644+00:00</time>
      </trkpt>
      <trkpt lat="48.7571" lon="2.54268">
        <ele>98</ele>
        <time>2024-01-22T12:45:22.085+00:00</time>
      </trkpt>
      <trkpt lat="48.75706" lon="2.54276">
        <ele>98</ele>
        <time>2024-01-22T12:45:26.277+00:00</time>
      </trkpt>
      <trkpt lat="48.757" lon="2.54285">
        <ele>98</ele>
        <time>2024-01-22T12:45:31.257+00:00</time>
      </trkpt>
      <trkpt lat="48.75695" lon="2.54292">
        <ele>99</ele>
        <time>2024-01-22T12:45:35.716+00:00</time>
      </trkpt>
      <trkpt lat="48.75691" lon="2.54299">
        <ele>99</ele>
        <time>2024-01-22T12:45:39.664+00:00</time>
      </trkpt>
      <trkpt lat="48.75687" lon="2.54307">
        <ele>99</ele>
        <time>2024-01-22T12:45:44.045+00:00</time>
      </trkpt>
      <trkpt lat="48.75683" lon="2.54312">
        <ele>99</ele>
        <time>2024-01-22T12:45:48.043+00:00</time>
      </trkpt>
      <trkpt lat="48.7568" lon="2.54323">
        <ele>99</ele>
        <time>2024-01-22T12:45:52.699+00:00</time>
      </trkpt>
      <trkpt lat="48.75676" lon="2.5433">
        <ele>99</ele>
        <time>2024-01-22T12:45:56.616+00:00</time>
      </trkpt>
      <trkpt lat="48.75671" lon="2.54339">
        <ele>99</ele>
        <time>2024-01-22T12:46:01.243+00:00</time>
      </trkpt>
      <trkpt lat="48.75669" lon="2.54344">
        <ele>99</ele>
        <time>2024-01-22T12:46:04.890+00:00</time>
      </trkpt>
      <trkpt lat="48.75667" lon="2.54353">
        <ele>99</ele>
        <time>2024-01-22T12:46:10.040+00:00</time>
      </trkpt>
      <trkpt lat="48.7566" lon="2.54361">
        <ele>99</ele>
        <time>2024-01-22T12:46:15.250+00:00</time>
      </trkpt>
      <trkpt lat="48.75655" lon="2.54368">
        <ele>99</ele>
        <time>2024-01-22T12:46:19.785+00:00</time>
      </trkpt>
      <trkpt lat="48.75651" lon="2.54374">
        <ele>98</ele>
        <time>2024-01-22T12:46:23.802+00:00</time>
      </trkpt>
      <trkpt lat="48.75647" lon="2.5438">
        <ele>98</ele>
        <time>2024-01-22T12:46:28.350+00:00</time>
      </trkpt>
      <trkpt lat="48.75643" lon="2.54387">
        <ele>98</ele>
        <time>2024-01-22T12:46:33.270+00:00</time>
      </trkpt>
      <trkpt lat="48.75638" lon="2.54397">
        <ele>98</ele>
        <time>2024-01-22T12:46:38.233+00:00</time>
      </trkpt>
      <trkpt lat="48.75635" lon="2.54404">
        <ele>97</ele>
        <time>2024-01-22T12:46:42.239+00:00</time>
      </trkpt>
      <trkpt lat="48.75632" lon="2.54412">
        <ele>97</ele>
        <time>2024-01-22T12:46:46.261+00:00</time>
      </trkpt>
      <trkpt lat="48.7563" lon="2.5442">
        <ele>97</ele>
        <time>2024-01-22T12:46:49.871+00:00</time>
      </trkpt>
      <trkpt lat="48.75627" lon="2.54428">
        <ele>97</ele>
        <time>2024-01-22T12:46:54.059+00:00</time>
      </trkpt>
      <trkpt lat="48.75625" lon="2.54434">
        <ele>98</ele>
        <time>2024-01-22T12:46:58.844+00:00</time>
      </trkpt>
      <trkpt lat="48.75624" lon="2.5443">
        <ele>97</ele>
        <time>2024-01-22T12:47:04.255+00:00</time>
      </trkpt>
      <trkpt lat="48.75623" lon="2.54428">
        <ele>97</ele>
        <time>2024-01-22T12:47:08.269+00:00</time>
      </trkpt>
      <trkpt lat="48.75622" lon="2.5443">
        <ele>97</ele>
        <time>2024-01-22T12:47:12.751+00:00</time>
      </trkpt>
      <trkpt lat="48.75618" lon="2.54435">
        <ele>97</ele>
        <time>2024-01-22T12:47:17.232+00:00</time>
      </trkpt>
      <trkpt lat="48.75613" lon="2.54442">
        <ele>97</ele>
        <time>2024-01-22T12:47:21.130+00:00</time>
      </trkpt>
      <trkpt lat="48.75609" lon="2.54448">
        <ele>97</ele>
        <time>2024-01-22T12:47:25.590+00:00</time>
      </trkpt>
      <trkpt lat="48.75606" lon="2.54457">
        <ele>97</ele>
        <time>2024-01-22T12:47:30.223+00:00</time>
      </trkpt>
      <trkpt lat="48.75605" lon="2.54464">
        <ele>98</ele>
        <time>2024-01-22T12:47:34.238+00:00</time>
      </trkpt>
      <trkpt lat="48.75604" lon="2.54467">
        <ele>98</ele>
        <time>2024-01-22T12:47:38.094+00:00</time>
      </trkpt>
      <trkpt lat="48.75604" lon="2.54467">
        <ele>98</ele>
        <time>2024-01-22T12:47:42.046+00:00</time>
      </trkpt>
      <trkpt lat="48.75603" lon="2.5447">
        <ele>98</ele>
        <time>2024-01-22T12:47:46.806+00:00</time>
      </trkpt>
      <trkpt lat="48.756" lon="2.54473">
        <ele>98</ele>
        <time>2024-01-22T12:47:50.782+00:00</time>
      </trkpt>
      <trkpt lat="48.75596" lon="2.54478">
        <ele>99</ele>
        <time>2024-01-22T12:47:55.255+00:00</time>
      </trkpt>
      <trkpt lat="48.75594" lon="2.54481">
        <ele>99</ele>
        <time>2024-01-22T12:47:59.251+00:00</time>
      </trkpt>
      <trkpt lat="48.75592" lon="2.54485">
        <ele>99</ele>
        <time>2024-01-22T12:48:03.231+00:00</time>
      </trkpt>
      <trkpt lat="48.7559" lon="2.54488">
        <ele>99</ele>
        <time>2024-01-22T12:48:07.253+00:00</time>
      </trkpt>
      <trkpt lat="48.75587" lon="2.54494">
        <ele>99</ele>
        <time>2024-01-22T12:48:11.729+00:00</time>
      </trkpt>
      <trkpt lat="48.75582" lon="2.54499">
        <ele>99</ele>
        <time>2024-01-22T12:48:16.257+00:00</time>
      </trkpt>
      <trkpt lat="48.75577" lon="2.54504">
        <ele>99</ele>
        <time>2024-01-22T12:48:20.258+00:00</time>
      </trkpt>
      <trkpt lat="48.75573" lon="2.54508">
        <ele>99</ele>
        <time>2024-01-22T12:48:25.246+00:00</time>
      </trkpt>
      <trkpt lat="48.75569" lon="2.54512">
        <ele>99</ele>
        <time>2024-01-22T12:48:29.323+00:00</time>
      </trkpt>
      <trkpt lat="48.75565" lon="2.54516">
        <ele>100</ele>
        <time>2024-01-22T12:48:33.711+00:00</time>
      </trkpt>
      <trkpt lat="48.7556" lon="2.54519">
        <ele>100</ele>
        <time>2024-01-22T12:48:37.695+00:00</time>
      </trkpt>
      <trkpt lat="48.75556" lon="2.54524">
        <ele>100</ele>
        <time>2024-01-22T12:48:42.237+00:00</time>
      </trkpt>
      <trkpt lat="48.75551" lon="2.5453">
        <ele>100</ele>
        <time>2024-01-22T12:48:47.012+00:00</time>
      </trkpt>
      <trkpt lat="48.75548" lon="2.54534">
        <ele>100</ele>
        <time>2024-01-22T12:48:50.847+00:00</time>
      </trkpt>
      <trkpt lat="48.75545" lon="2.54538">
        <ele>100</ele>
        <time>2024-01-22T12:48:55.372+00:00</time>
      </trkpt>
      <trkpt lat="48.75541" lon="2.54541">
        <ele>101</ele>
        <time>2024-01-22T12:48:59.800+00:00</time>
      </trkpt>
      <trkpt lat="48.75538" lon="2.54546">
        <ele>102</ele>
        <time>2024-01-22T12:49:03.867+00:00</time>
      </trkpt>
      <trkpt lat="48.75532" lon="2.54551">
        <ele>102</ele>
        <time>2024-01-22T12:49:09.024+00:00</time>
      </trkpt>
      <trkpt lat="48.75528" lon="2.54554">
        <ele>102</ele>
        <time>2024-01-22T12:49:13.442+00:00</time>
      </trkpt>
      <trkpt lat="48.75523" lon="2.54559">
        <ele>102</ele>
        <time>2024-01-22T12:49:18.230+00:00</time>
      </trkpt>
      <trkpt lat="48.75518" lon="2.54563">
        <ele>102</ele>
        <time>2024-01-22T12:49:22.772+00:00</time>
      </trkpt>
      <trkpt lat="48.75514" lon="2.54564">
        <ele>105</ele>
        <time>2024-01-22T12:49:26.848+00:00</time>
      </trkpt>
      <trkpt lat="48.75511" lon="2.54561">
        <ele>105</ele>
        <time>2024-01-22T12:49:31.037+00:00</time>
      </trkpt>
      <trkpt lat="48.75509" lon="2.54567">
        <ele>105</ele>
        <time>2024-01-22T12:49:35.226+00:00</time>
      </trkpt>
      <trkpt lat="48.75504" lon="2.54576">
        <ele>106</ele>
        <time>2024-01-22T12:49:39.776+00:00</time>
      </trkpt>
      <trkpt lat="48.75499" lon="2.54581">
        <ele>106</ele>
        <time>2024-01-22T12:49:44.085+00:00</time>
      </trkpt>
      <trkpt lat="48.75495" lon="2.54585">
        <ele>106</ele>
        <time>2024-01-22T12:49:48.633+00:00</time>
      </trkpt>
      <trkpt lat="48.75492" lon="2.54589">
        <ele>106</ele>
        <time>2024-01-22T12:49:53.274+00:00</time>
      </trkpt>
      <trkpt lat="48.7549" lon="2.5459">
        <ele>106</ele>
        <time>2024-01-22T12:49:57.129+00:00</time>
      </trkpt>
      <trkpt lat="48.75488" lon="2.54591">
        <ele>106</ele>
        <time>2024-01-22T12:50:01.076+00:00</time>
      </trkpt>
      <trkpt lat="48.75484" lon="2.54593">
        <ele>106</ele>
        <time>2024-01-22T12:50:05.862+00:00</time>
      </trkpt>
      <trkpt lat="48.75483" lon="2.54595">
        <ele>106</ele>
        <time>2024-01-22T12:50:09.811+00:00</time>
      </trkpt>
      <trkpt lat="48.7548" lon="2.546">
        <ele>107</ele>
        <time>2024-01-22T12:50:14.250+00:00</time>
      </trkpt>
      <trkpt lat="48.75476" lon="2.54607">
        <ele>107</ele>
        <time>2024-01-22T12:50:18.228+00:00</time>
      </trkpt>
      <trkpt lat="48.75472" lon="2.5461">
        <ele>107</ele>
        <time>2024-01-22T12:50:22.268+00:00</time>
      </trkpt>
      <trkpt lat="48.75467" lon="2.54612">
        <ele>107</ele>
        <time>2024-01-22T12:50:27.278+00:00</time>
      </trkpt>
      <trkpt lat="48.75464" lon="2.54613">
        <ele>107</ele>
        <time>2024-01-22T12:50:31.719+00:00</time>
      </trkpt>
      <trkpt lat="48.75461" lon="2.54617">
        <ele>107</ele>
        <time>2024-01-22T12:50:35.668+00:00</time>
      </trkpt>
      <trkpt lat="48.75458" lon="2.54621">
        <ele>106</ele>
        <time>2024-01-22T12:50:39.857+00:00</time>
      </trkpt>
      <trkpt lat="48.75454" lon="2.54624">
        <ele>106</ele>
        <time>2024-01-22T12:50:43.807+00:00</time>
      </trkpt>
      <trkpt lat="48.75452" lon="2.54625">
        <ele>106</ele>
        <time>2024-01-22T12:50:48.235+00:00</time>
      </trkpt>
      <trkpt lat="48.7545" lon="2.54628">
        <ele>106</ele>
        <time>2024-01-22T12:50:52.426+00:00</time>
      </trkpt>
      <trkpt lat="48.75448" lon="2.54633">
        <ele>106</ele>
        <time>2024-01-22T12:50:56.856+00:00</time>
      </trkpt>
      <trkpt lat="48.75443" lon="2.54638">
        <ele>106</ele>
        <time>2024-01-22T12:51:01.405+00:00</time>
      </trkpt>
      <trkpt lat="48.7544" lon="2.54644">
        <ele>106</ele>
        <time>2024-01-22T12:51:05.956+00:00</time>
      </trkpt>
      <trkpt lat="48.75435" lon="2.54648">
        <ele>106</ele>
        <time>2024-01-22T12:51:10.447+00:00</time>
      </trkpt>
      <trkpt lat="48.75431" lon="2.54655">
        <ele>104</ele>
        <time>2024-01-22T12:51:14.997+00:00</time>
      </trkpt>
      <trkpt lat="48.75428" lon="2.54659">
        <ele>105</ele>
        <time>2024-01-22T12:51:19.668+00:00</time>
      </trkpt>
      <trkpt lat="48.75425" lon="2.54664">
        <ele>105</ele>
        <time>2024-01-22T12:51:23.494+00:00</time>
      </trkpt>
      <trkpt lat="48.75423" lon="2.54672">
        <ele>105</ele>
        <time>2024-01-22T12:51:27.804+00:00</time>
      </trkpt>
      <trkpt lat="48.75423" lon="2.5468">
        <ele>105</ele>
        <time>2024-01-22T12:51:31.873+00:00</time>
      </trkpt>
      <trkpt lat="48.75421" lon="2.54686">
        <ele>105</ele>
        <time>2024-01-22T12:51:36.063+00:00</time>
      </trkpt>
      <trkpt lat="48.75418" lon="2.54691">
        <ele>105</ele>
        <time>2024-01-22T12:51:40.228+00:00</time>
      </trkpt>
      <trkpt lat="48.75415" lon="2.54695">
        <ele>105</ele>
        <time>2024-01-22T12:51:44.086+00:00</time>
      </trkpt>
      <trkpt lat="48.75411" lon="2.547">
        <ele>105</ele>
        <time>2024-01-22T12:51:49.260+00:00</time>
      </trkpt>
      <trkpt lat="48.75407" lon="2.54704">
        <ele>105</ele>
        <time>2024-01-22T12:51:53.280+00:00</time>
      </trkpt>
      <trkpt lat="48.75404" lon="2.54707">
        <ele>105</ele>
        <time>2024-01-22T12:51:57.252+00:00</time>
      </trkpt>
      <trkpt lat="48.754" lon="2.54711">
        <ele>105</ele>
        <time>2024-01-22T12:52:01.278+00:00</time>
      </trkpt>
      <trkpt lat="48.75395" lon="2.54716">
        <ele>105</ele>
        <time>2024-01-22T12:52:06.251+00:00</time>
      </trkpt>
      <trkpt lat="48.75391" lon="2.54718">
        <ele>105</ele>
        <time>2024-01-22T12:52:10.255+00:00</time>
      </trkpt>
      <trkpt lat="48.75389" lon="2.54724">
        <ele>105</ele>
        <time>2024-01-22T12:52:14.246+00:00</time>
      </trkpt>
      <trkpt lat="48.75385" lon="2.54729">
        <ele>105</ele>
        <time>2024-01-22T12:52:18.795+00:00</time>
      </trkpt>
      <trkpt lat="48.75383" lon="2.54735">
        <ele>105</ele>
        <time>2024-01-22T12:52:23.446+00:00</time>
      </trkpt>
      <trkpt lat="48.7538" lon="2.54739">
        <ele>105</ele>
        <time>2024-01-22T12:52:27.413+00:00</time>
      </trkpt>
      <trkpt lat="48.75377" lon="2.54744">
        <ele>105</ele>
        <time>2024-01-22T12:52:31.361+00:00</time>
      </trkpt>
      <trkpt lat="48.75373" lon="2.5475">
        <ele>104</ele>
        <time>2024-01-22T12:52:36.028+00:00</time>
      </trkpt>
      <trkpt lat="48.7537" lon="2.54755">
        <ele>104</ele>
        <time>2024-01-22T12:52:40.057+00:00</time>
      </trkpt>
      <trkpt lat="48.75367" lon="2.5476">
        <ele>104</ele>
        <time>2024-01-22T12:52:44.125+00:00</time>
      </trkpt>
      <trkpt lat="48.75362" lon="2.54764">
        <ele>105</ele>
        <time>2024-01-22T12:52:48.672+00:00</time>
      </trkpt>
      <trkpt lat="48.75358" lon="2.54767">
        <ele>105</ele>
        <time>2024-01-22T12:52:53.260+00:00</time>
      </trkpt>
      <trkpt lat="48.75355" lon="2.54767">
        <ele>105</ele>
        <time>2024-01-22T12:52:57.260+00:00</time>
      </trkpt>
      <trkpt lat="48.7535" lon="2.54769">
        <ele>105</ele>
        <time>2024-01-22T12:53:01.714+00:00</time>
      </trkpt>
      <trkpt lat="48.75346" lon="2.54772">
        <ele>104</ele>
        <time>2024-01-22T12:53:06.141+00:00</time>
      </trkpt>
      <trkpt lat="48.75342" lon="2.54771">
        <ele>104</ele>
        <time>2024-01-22T12:53:10.091+00:00</time>
      </trkpt>
      <trkpt lat="48.7534" lon="2.5477">
        <ele>104</ele>
        <time>2024-01-22T12:53:14.857+00:00</time>
      </trkpt>
      <trkpt lat="48.75339" lon="2.54773">
        <ele>104</ele>
        <time>2024-01-22T12:53:19.522+00:00</time>
      </trkpt>
      <trkpt lat="48.75334" lon="2.54778">
        <ele>104</ele>
        <time>2024-01-22T12:53:24.069+00:00</time>
      </trkpt>
      <trkpt lat="48.7533" lon="2.54781">
        <ele>104</ele>
        <time>2024-01-22T12:53:28.258+00:00</time>
      </trkpt>
      <trkpt lat="48.75326" lon="2.54786">
        <ele>104</ele>
        <time>2024-01-22T12:53:32.446+00:00</time>
      </trkpt>
      <trkpt lat="48.7532" lon="2.54791">
        <ele>104</ele>
        <time>2024-01-22T12:53:37.086+00:00</time>
      </trkpt>
      <trkpt lat="48.75314" lon="2.5479">
        <ele>102</ele>
        <time>2024-01-22T12:53:41.023+00:00</time>
      </trkpt>
      <trkpt lat="48.75308" lon="2.5479">
        <ele>102</ele>
        <time>2024-01-22T12:53:45.526+00:00</time>
      </trkpt>
      <trkpt lat="48.75303" lon="2.54795">
        <ele>102</ele>
        <time>2024-01-22T12:53:49.642+00:00</time>
      </trkpt>
      <trkpt lat="48.75297" lon="2.548">
        <ele>102</ele>
        <time>2024-01-22T12:53:54.071+00:00</time>
      </trkpt>
      <trkpt lat="48.75294" lon="2.54804">
        <ele>102</ele>
        <time>2024-01-22T12:53:58.254+00:00</time>
      </trkpt>
      <trkpt lat="48.75291" lon="2.54806">
        <ele>101</ele>
        <time>2024-01-22T12:54:02.251+00:00</time>
      </trkpt>
      <trkpt lat="48.75286" lon="2.54811">
        <ele>101</ele>
        <time>2024-01-22T12:54:06.802+00:00</time>
      </trkpt>
      <trkpt lat="48.75281" lon="2.54816">
        <ele>101</ele>
        <time>2024-01-22T12:54:10.695+00:00</time>
      </trkpt>
      <trkpt lat="48.75278" lon="2.54821">
        <ele>102</ele>
        <time>2024-01-22T12:54:14.526+00:00</time>
      </trkpt>
      <trkpt lat="48.75274" lon="2.54826">
        <ele>102</ele>
        <time>2024-01-22T12:54:19.157+00:00</time>
      </trkpt>
      <trkpt lat="48.7527" lon="2.54831">
        <ele>102</ele>
        <time>2024-01-22T12:54:22.988+00:00</time>
      </trkpt>
      <trkpt lat="48.75265" lon="2.54836">
        <ele>102</ele>
        <time>2024-01-22T12:54:27.274+00:00</time>
      </trkpt>
      <trkpt lat="48.75259" lon="2.54841">
        <ele>101</ele>
        <time>2024-01-22T12:54:32.147+00:00</time>
      </trkpt>
      <trkpt lat="48.75255" lon="2.54846">
        <ele>101</ele>
        <time>2024-01-22T12:54:35.914+00:00</time>
      </trkpt>
      <trkpt lat="48.7525" lon="2.54851">
        <ele>101</ele>
        <time>2024-01-22T12:54:40.526+00:00</time>
      </trkpt>
      <trkpt lat="48.75245" lon="2.54857">
        <ele>101</ele>
        <time>2024-01-22T12:54:45.012+00:00</time>
      </trkpt>
      <trkpt lat="48.75242" lon="2.54862">
        <ele>101</ele>
        <time>2024-01-22T12:54:48.843+00:00</time>
      </trkpt>
      <trkpt lat="48.75238" lon="2.54867">
        <ele>101</ele>
        <time>2024-01-22T12:54:53.151+00:00</time>
      </trkpt>
      <trkpt lat="48.75235" lon="2.54871">
        <ele>101</ele>
        <time>2024-01-22T12:54:57.064+00:00</time>
      </trkpt>
      <trkpt lat="48.75229" lon="2.54878">
        <ele>102</ele>
        <time>2024-01-22T12:55:02.093+00:00</time>
      </trkpt>
      <trkpt lat="48.75225" lon="2.54883">
        <ele>102</ele>
        <time>2024-01-22T12:55:05.926+00:00</time>
      </trkpt>
      <trkpt lat="48.7522" lon="2.54888">
        <ele>102</ele>
        <time>2024-01-22T12:55:10.475+00:00</time>
      </trkpt>
      <trkpt lat="48.75214" lon="2.54893">
        <ele>102</ele>
        <time>2024-01-22T12:55:15.007+00:00</time>
      </trkpt>
      <trkpt lat="48.75208" lon="2.54898">
        <ele>102</ele>
        <time>2024-01-22T12:55:18.937+00:00</time>
      </trkpt>
      <trkpt lat="48.75203" lon="2.54901">
        <ele>102</ele>
        <time>2024-01-22T12:55:22.990+00:00</time>
      </trkpt>
      <trkpt lat="48.75197" lon="2.54906">
        <ele>102</ele>
        <time>2024-01-22T12:55:27.272+00:00</time>
      </trkpt>
      <trkpt lat="48.75192" lon="2.54911">
        <ele>102</ele>
        <time>2024-01-22T12:55:31.526+00:00</time>
      </trkpt>
      <trkpt lat="48.75187" lon="2.54918">
        <ele>102</ele>
        <time>2024-01-22T12:55:36.228+00:00</time>
      </trkpt>
      <trkpt lat="48.75183" lon="2.54924">
        <ele>102</ele>
        <time>2024-01-22T12:55:40.060+00:00</time>
      </trkpt>
      <trkpt lat="48.75179" lon="2.5493">
        <ele>101</ele>
        <time>2024-01-22T12:55:44.374+00:00</time>
      </trkpt>
      <trkpt lat="48.75173" lon="2.54935">
        <ele>102</ele>
        <time>2024-01-22T12:55:49.046+00:00</time>
      </trkpt>
      <trkpt lat="48.75169" lon="2.54939">
        <ele>102</ele>
        <time>2024-01-22T12:55:52.999+00:00</time>
      </trkpt>
      <trkpt lat="48.75164" lon="2.54944">
        <ele>102</ele>
        <time>2024-01-22T12:55:57.430+00:00</time>
      </trkpt>
      <trkpt lat="48.7516" lon="2.54947">
        <ele>102</ele>
        <time>2024-01-22T12:56:01.823+00:00</time>
      </trkpt>
      <trkpt lat="48.75156" lon="2.54951">
        <ele>102</ele>
        <time>2024-01-22T12:56:05.572+00:00</time>
      </trkpt>
      <trkpt lat="48.75151" lon="2.54955">
        <ele>101</ele>
        <time>2024-01-22T12:56:10.242+00:00</time>
      </trkpt>
      <trkpt lat="48.75148" lon="2.54958">
        <ele>101</ele>
        <time>2024-01-22T12:56:14.192+00:00</time>
      </trkpt>
      <trkpt lat="48.75143" lon="2.54964">
        <ele>101</ele>
        <time>2024-01-22T12:56:18.621+00:00</time>
      </trkpt>
      <trkpt lat="48.75138" lon="2.54968">
        <ele>101</ele>
        <time>2024-01-22T12:56:22.691+00:00</time>
      </trkpt>
      <trkpt lat="48.75133" lon="2.54973">
        <ele>101</ele>
        <time>2024-01-22T12:56:27.258+00:00</time>
      </trkpt>
      <trkpt lat="48.75128" lon="2.54976">
        <ele>101</ele>
        <time>2024-01-22T12:56:31.152+00:00</time>
      </trkpt>
      <trkpt lat="48.75123" lon="2.54978">
        <ele>101</ele>
        <time>2024-01-22T12:56:35.102+00:00</time>
      </trkpt>
      <trkpt lat="48.75117" lon="2.54982">
        <ele>101</ele>
        <time>2024-01-22T12:56:39.134+00:00</time>
      </trkpt>
      <trkpt lat="48.7511" lon="2.54987">
        <ele>102</ele>
        <time>2024-01-22T12:56:43.447+00:00</time>
      </trkpt>
      <trkpt lat="48.75104" lon="2.54991">
        <ele>102</ele>
        <time>2024-01-22T12:56:47.758+00:00</time>
      </trkpt>
      <trkpt lat="48.75098" lon="2.54995">
        <ele>102</ele>
        <time>2024-01-22T12:56:52.144+00:00</time>
      </trkpt>
      <trkpt lat="48.75094" lon="2.55">
        <ele>101</ele>
        <time>2024-01-22T12:56:55.964+00:00</time>
      </trkpt>
      <trkpt lat="48.75088" lon="2.55006">
        <ele>101</ele>
        <time>2024-01-22T12:57:00.526+00:00</time>
      </trkpt>
      <trkpt lat="48.75081" lon="2.55011">
        <ele>101</ele>
        <time>2024-01-22T12:57:04.980+00:00</time>
      </trkpt>
      <trkpt lat="48.75077" lon="2.55015">
        <ele>102</ele>
        <time>2024-01-22T12:57:09.001+00:00</time>
      </trkpt>
      <trkpt lat="48.75072" lon="2.55018">
        <ele>102</ele>
        <time>2024-01-22T12:57:13.526+00:00</time>
      </trkpt>
      <trkpt lat="48.75067" lon="2.55023">
        <ele>101</ele>
        <time>2024-01-22T12:57:17.862+00:00</time>
      </trkpt>
      <trkpt lat="48.75062" lon="2.55028">
        <ele>101</ele>
        <time>2024-01-22T12:57:21.932+00:00</time>
      </trkpt>
      <trkpt lat="48.75058" lon="2.55034">
        <ele>101</ele>
        <time>2024-01-22T12:57:26.241+00:00</time>
      </trkpt>
      <trkpt lat="48.75053" lon="2.5504">
        <ele>101</ele>
        <time>2024-01-22T12:57:30.430+00:00</time>
      </trkpt>
      <trkpt lat="48.75048" lon="2.55047">
        <ele>101</ele>
        <time>2024-01-22T12:57:34.857+00:00</time>
      </trkpt>
      <trkpt lat="48.75043" lon="2.55052">
        <ele>101</ele>
        <time>2024-01-22T12:57:38.686+00:00</time>
      </trkpt>
      <trkpt lat="48.75036" lon="2.55056">
        <ele>101</ele>
        <time>2024-01-22T12:57:43.227+00:00</time>
      </trkpt>
      <trkpt lat="48.7503" lon="2.5506">
        <ele>101</ele>
        <time>2024-01-22T12:57:47.424+00:00</time>
      </trkpt>
      <trkpt lat="48.75025" lon="2.55065">
        <ele>101</ele>
        <time>2024-01-22T12:57:51.494+00:00</time>
      </trkpt>
      <trkpt lat="48.75022" lon="2.5507">
        <ele>101</ele>
        <time>2024-01-22T12:57:56.042+00:00</time>
      </trkpt>
      <trkpt lat="48.75016" lon="2.55078">
        <ele>101</ele>
        <time>2024-01-22T12:58:00.471+00:00</time>
      </trkpt>
      <trkpt lat="48.75012" lon="2.55083">
        <ele>102</ele>
        <time>2024-01-22T12:58:05.021+00:00</time>
      </trkpt>
      <trkpt lat="48.75007" lon="2.55088">
        <ele>102</ele>
        <time>2024-01-22T12:58:08.851+00:00</time>
      </trkpt>
      <trkpt lat="48.75001" lon="2.55094">
        <ele>102</ele>
        <time>2024-01-22T12:58:13.980+00:00</time>
      </trkpt>
      <trkpt lat="48.74996" lon="2.55098">
        <ele>102</ele>
        <time>2024-01-22T12:58:17.830+00:00</time>
      </trkpt>
      <trkpt lat="48.74991" lon="2.55104">
        <ele>102</ele>
        <time>2024-01-22T12:58:22.140+00:00</time>
      </trkpt>
      <trkpt lat="48.74987" lon="2.5511">
        <ele>102</ele>
        <time>2024-01-22T12:58:27.041+00:00</time>
      </trkpt>
      <trkpt lat="48.74983" lon="2.55115">
        <ele>103</ele>
        <time>2024-01-22T12:58:31.218+00:00</time>
      </trkpt>
      <trkpt lat="48.74978" lon="2.55122">
        <ele>103</ele>
        <time>2024-01-22T12:58:35.526+00:00</time>
      </trkpt>
      <trkpt lat="48.74973" lon="2.55128">
        <ele>102</ele>
        <time>2024-01-22T12:58:40.021+00:00</time>
      </trkpt>
      <trkpt lat="48.74969" lon="2.55134">
        <ele>102</ele>
        <time>2024-01-22T12:58:43.907+00:00</time>
      </trkpt>
      <trkpt lat="48.74966" lon="2.55141">
        <ele>102</ele>
        <time>2024-01-22T12:58:48.296+00:00</time>
      </trkpt>
      <trkpt lat="48.74962" lon="2.55148">
        <ele>102</ele>
        <time>2024-01-22T12:58:52.605+00:00</time>
      </trkpt>
      <trkpt lat="48.74957" lon="2.55157">
        <ele>101</ele>
        <time>2024-01-22T12:58:56.913+00:00</time>
      </trkpt>
      <trkpt lat="48.74953" lon="2.55166">
        <ele>101</ele>
        <time>2024-01-22T12:59:01.526+00:00</time>
      </trkpt>
      <trkpt lat="48.74949" lon="2.55174">
        <ele>101</ele>
        <time>2024-01-22T12:59:06.208+00:00</time>
      </trkpt>
      <trkpt lat="48.74946" lon="2.5518">
        <ele>101</ele>
        <time>2024-01-22T12:59:10.037+00:00</time>
      </trkpt>
      <trkpt lat="48.7494" lon="2.55187">
        <ele>100</ele>
        <time>2024-01-22T12:59:14.868+00:00</time>
      </trkpt>
      <trkpt lat="48.74937" lon="2.55192">
        <ele>100</ele>
        <time>2024-01-22T12:59:18.697+00:00</time>
      </trkpt>
      <trkpt lat="48.74934" lon="2.55199">
        <ele>100</ele>
        <time>2024-01-22T12:59:23.245+00:00</time>
      </trkpt>
      <trkpt lat="48.7493" lon="2.55208">
        <ele>101</ele>
        <time>2024-01-22T12:59:27.435+00:00</time>
      </trkpt>
      <trkpt lat="48.74925" lon="2.55215">
        <ele>100</ele>
        <time>2024-01-22T12:59:32.085+00:00</time>
      </trkpt>
      <trkpt lat="48.74922" lon="2.5522">
        <ele>100</ele>
        <time>2024-01-22T12:59:36.052+00:00</time>
      </trkpt>
      <trkpt lat="48.74918" lon="2.55227">
        <ele>100</ele>
        <time>2024-01-22T12:59:40.122+00:00</time>
      </trkpt>
      <trkpt lat="48.74915" lon="2.55234">
        <ele>100</ele>
        <time>2024-01-22T12:59:44.526+00:00</time>
      </trkpt>
      <trkpt lat="48.74911" lon="2.55242">
        <ele>100</ele>
        <time>2024-01-22T12:59:48.976+00:00</time>
      </trkpt>
      <trkpt lat="48.74905" lon="2.55249">
        <ele>100</ele>
        <time>2024-01-22T12:59:53.641+00:00</time>
      </trkpt>
      <trkpt lat="48.74899" lon="2.55255">
        <ele>103</ele>
        <time>2024-01-22T12:59:57.526+00:00</time>
      </trkpt>
      <trkpt lat="48.74895" lon="2.55262">
        <ele>103</ele>
        <time>2024-01-22T13:00:02.134+00:00</time>
      </trkpt>
      <trkpt lat="48.74892" lon="2.55268">
        <ele>103</ele>
        <time>2024-01-22T13:00:06.082+00:00</time>
      </trkpt>
      <trkpt lat="48.7489" lon="2.55277">
        <ele>103</ele>
        <time>2024-01-22T13:00:10.510+00:00</time>
      </trkpt>
      <trkpt lat="48.74887" lon="2.55285">
        <ele>103</ele>
        <time>2024-01-22T13:00:15.059+00:00</time>
      </trkpt>
      <trkpt lat="48.74884" lon="2.5529">
        <ele>103</ele>
        <time>2024-01-22T13:00:19.010+00:00</time>
      </trkpt>
      <trkpt lat="48.74879" lon="2.55294">
        <ele>102</ele>
        <time>2024-01-22T13:00:23.678+00:00</time>
      </trkpt>
      <trkpt lat="48.74874" lon="2.553">
        <ele>104</ele>
        <time>2024-01-22T13:00:28.288+00:00</time>
      </trkpt>
      <trkpt lat="48.74871" lon="2.55306">
        <ele>104</ele>
        <time>2024-01-22T13:00:32.036+00:00</time>
      </trkpt>
      <trkpt lat="48.74869" lon="2.55314">
        <ele>104</ele>
        <time>2024-01-22T13:00:36.823+00:00</time>
      </trkpt>
      <trkpt lat="48.74867" lon="2.55324">
        <ele>102</ele>
        <time>2024-01-22T13:00:41.252+00:00</time>
      </trkpt>
      <trkpt lat="48.74865" lon="2.55331">
        <ele>102</ele>
        <time>2024-01-22T13:00:45.762+00:00</time>
      </trkpt>
      <trkpt lat="48.74862" lon="2.55337">
        <ele>102</ele>
        <time>2024-01-22T13:00:49.628+00:00</time>
      </trkpt>
      <trkpt lat="48.74859" lon="2.55342">
        <ele>102</ele>
        <time>2024-01-22T13:00:53.580+00:00</time>
      </trkpt>
      <trkpt lat="48.74857" lon="2.55352">
        <ele>101</ele>
        <time>2024-01-22T13:00:58.252+00:00</time>
      </trkpt>
      <trkpt lat="48.74853" lon="2.55363">
        <ele>101</ele>
        <time>2024-01-22T13:01:02.328+00:00</time>
      </trkpt>
      <trkpt lat="48.7485" lon="2.55376">
        <ele>101</ele>
        <time>2024-01-22T13:01:06.805+00:00</time>
      </trkpt>
      <trkpt lat="48.74846" lon="2.55386">
        <ele>102</ele>
        <time>2024-01-22T13:01:10.816+00:00</time>
      </trkpt>
      <trkpt lat="48.74842" lon="2.55396">
        <ele>102</ele>
        <time>2024-01-22T13:01:15.930+00:00</time>
      </trkpt>
      <trkpt lat="48.74839" lon="2.55404">
        <ele>100</ele>
        <time>2024-01-22T13:01:19.938+00:00</time>
      </trkpt>
      <trkpt lat="48.74832" lon="2.5541">
        <ele>100</ele>
        <time>2024-01-22T13:01:24.448+00:00</time>
      </trkpt>
      <trkpt lat="48.74825" lon="2.55412">
        <ele>100</ele>
        <time>2024-01-22T13:01:28.977+00:00</time>
      </trkpt>
      <trkpt lat="48.74812" lon="2.55407">
        <ele>101</ele>
        <time>2024-01-22T13:01:41.992+00:00</time>
      </trkpt>
      <trkpt lat="48.74811" lon="2.55418">
        <ele>101</ele>
        <time>2024-01-22T13:01:45.995+00:00</time>
      </trkpt>
      <trkpt lat="48.74808" lon="2.55427">
        <ele>101</ele>
        <time>2024-01-22T13:01:49.998+00:00</time>
      </trkpt>
      <trkpt lat="48.74806" lon="2.55439">
        <ele>100</ele>
        <time>2024-01-22T13:01:55.001+00:00</time>
      </trkpt>
      <trkpt lat="48.74804" lon="2.55449">
        <ele>100</ele>
        <time>2024-01-22T13:01:59.505+00:00</time>
      </trkpt>
      <trkpt lat="48.74802" lon="2.55455">
        <ele>100</ele>
        <time>2024-01-22T13:02:03.509+00:00</time>
      </trkpt>
      <trkpt lat="48.74801" lon="2.5546">
        <ele>98</ele>
        <time>2024-01-22T13:02:08.015+00:00</time>
      </trkpt>
      <trkpt lat="48.748" lon="2.55463">
        <ele>98</ele>
        <time>2024-01-22T13:02:12.022+00:00</time>
      </trkpt>
      <trkpt lat="48.74797" lon="2.55469">
        <ele>98</ele>
        <time>2024-01-22T13:02:16.026+00:00</time>
      </trkpt>
      <trkpt lat="48.74791" lon="2.55476">
        <ele>99</ele>
        <time>2024-01-22T13:02:20.660+00:00</time>
      </trkpt>
      <trkpt lat="48.74789" lon="2.55484">
        <ele>99</ele>
        <time>2024-01-22T13:02:24.284+00:00</time>
      </trkpt>
      <trkpt lat="48.74789" lon="2.55496">
        <ele>97</ele>
        <time>2024-01-22T13:02:28.900+00:00</time>
      </trkpt>
      <trkpt lat="48.74788" lon="2.55505">
        <ele>97</ele>
        <time>2024-01-22T13:02:32.907+00:00</time>
      </trkpt>
      <trkpt lat="48.74783" lon="2.55512">
        <ele>97</ele>
        <time>2024-01-22T13:02:37.414+00:00</time>
      </trkpt>
      <trkpt lat="48.74778" lon="2.55517">
        <ele>96</ele>
        <time>2024-01-22T13:02:41.498+00:00</time>
      </trkpt>
      <trkpt lat="48.74772" lon="2.55525">
        <ele>96</ele>
        <time>2024-01-22T13:02:46.203+00:00</time>
      </trkpt>
      <trkpt lat="48.74767" lon="2.55529">
        <ele>96</ele>
        <time>2024-01-22T13:02:50.407+00:00</time>
      </trkpt>
      <trkpt lat="48.74764" lon="2.55533">
        <ele>96</ele>
        <time>2024-01-22T13:02:54.408+00:00</time>
      </trkpt>
      <trkpt lat="48.74761" lon="2.55539">
        <ele>98</ele>
        <time>2024-01-22T13:02:58.470+00:00</time>
      </trkpt>
      <trkpt lat="48.74756" lon="2.55545">
        <ele>97</ele>
        <time>2024-01-22T13:03:03.210+00:00</time>
      </trkpt>
      <trkpt lat="48.7475" lon="2.5555">
        <ele>97</ele>
        <time>2024-01-22T13:03:07.526+00:00</time>
      </trkpt>
      <trkpt lat="48.74746" lon="2.55554">
        <ele>97</ele>
        <time>2024-01-22T13:03:12.008+00:00</time>
      </trkpt>
      <trkpt lat="48.74741" lon="2.55562">
        <ele>97</ele>
        <time>2024-01-22T13:03:16.038+00:00</time>
      </trkpt>
      <trkpt lat="48.74738" lon="2.5557">
        <ele>96</ele>
        <time>2024-01-22T13:03:19.872+00:00</time>
      </trkpt>
      <trkpt lat="48.74733" lon="2.55578">
        <ele>98</ele>
        <time>2024-01-22T13:03:24.706+00:00</time>
      </trkpt>
      <trkpt lat="48.74729" lon="2.55584">
        <ele>98</ele>
        <time>2024-01-22T13:03:29.241+00:00</time>
      </trkpt>
      <trkpt lat="48.74725" lon="2.55589">
        <ele>98</ele>
        <time>2024-01-22T13:03:33.772+00:00</time>
      </trkpt>
      <trkpt lat="48.74722" lon="2.55593">
        <ele>98</ele>
        <time>2024-01-22T13:03:37.724+00:00</time>
      </trkpt>
      <trkpt lat="48.74717" lon="2.556">
        <ele>97</ele>
        <time>2024-01-22T13:03:42.155+00:00</time>
      </trkpt>
      <trkpt lat="48.74714" lon="2.55605">
        <ele>97</ele>
        <time>2024-01-22T13:03:45.987+00:00</time>
      </trkpt>
      <trkpt lat="48.7471" lon="2.55612">
        <ele>97</ele>
        <time>2024-01-22T13:03:50.418+00:00</time>
      </trkpt>
      <trkpt lat="48.74706" lon="2.55619">
        <ele>99</ele>
        <time>2024-01-22T13:03:54.848+00:00</time>
      </trkpt>
      <trkpt lat="48.74701" lon="2.55628">
        <ele>99</ele>
        <time>2024-01-22T13:04:00.128+00:00</time>
      </trkpt>
      <trkpt lat="48.74698" lon="2.55634">
        <ele>99</ele>
        <time>2024-01-22T13:04:04.065+00:00</time>
      </trkpt>
      <trkpt lat="48.74692" lon="2.55638">
        <ele>99</ele>
        <time>2024-01-22T13:04:08.615+00:00</time>
      </trkpt>
      <trkpt lat="48.74687" lon="2.55645">
        <ele>99</ele>
        <time>2024-01-22T13:04:12.689+00:00</time>
      </trkpt>
      <trkpt lat="48.74683" lon="2.55654">
        <ele>99</ele>
        <time>2024-01-22T13:04:17.204+00:00</time>
      </trkpt>
      <trkpt lat="48.74673" lon="2.55688">
        <ele>99</ele>
        <time>2024-01-22T13:05:28.890+00:00</time>
      </trkpt>
      <trkpt lat="48.74673" lon="2.55691">
        <ele>99</ele>
        <time>2024-01-22T13:05:33.394+00:00</time>
      </trkpt>
      <trkpt lat="48.7467" lon="2.55697">
        <ele>99</ele>
        <time>2024-01-22T13:05:37.489+00:00</time>
      </trkpt>
      <trkpt lat="48.74665" lon="2.55704">
        <ele>99</ele>
        <time>2024-01-22T13:05:42.058+00:00</time>
      </trkpt>
      <trkpt lat="48.74664" lon="2.5571">
        <ele>100</ele>
        <time>2024-01-22T13:05:46.162+00:00</time>
      </trkpt>
      <trkpt lat="48.74659" lon="2.55715">
        <ele>100</ele>
        <time>2024-01-22T13:05:50.203+00:00</time>
      </trkpt>
      <trkpt lat="48.74656" lon="2.55723">
        <ele>100</ele>
        <time>2024-01-22T13:05:54.205+00:00</time>
      </trkpt>
      <trkpt lat="48.74652" lon="2.55728">
        <ele>99</ele>
        <time>2024-01-22T13:05:57.806+00:00</time>
      </trkpt>
      <trkpt lat="48.74647" lon="2.55735">
        <ele>99</ele>
        <time>2024-01-22T13:06:02.389+00:00</time>
      </trkpt>
      <trkpt lat="48.74642" lon="2.55742">
        <ele>100</ele>
        <time>2024-01-22T13:06:06.471+00:00</time>
      </trkpt>
      <trkpt lat="48.74638" lon="2.55747">
        <ele>100</ele>
        <time>2024-01-22T13:06:11.093+00:00</time>
      </trkpt>
      <trkpt lat="48.74634" lon="2.55752">
        <ele>100</ele>
        <time>2024-01-22T13:06:15.193+00:00</time>
      </trkpt>
      <trkpt lat="48.74628" lon="2.55757">
        <ele>100</ele>
        <time>2024-01-22T13:06:19.434+00:00</time>
      </trkpt>
      <trkpt lat="48.74624" lon="2.55763">
        <ele>99</ele>
        <time>2024-01-22T13:06:24.235+00:00</time>
      </trkpt>
      <trkpt lat="48.74621" lon="2.55768">
        <ele>100</ele>
        <time>2024-01-22T13:06:28.526+00:00</time>
      </trkpt>
      <trkpt lat="48.74618" lon="2.55774">
        <ele>100</ele>
        <time>2024-01-22T13:06:33.137+00:00</time>
      </trkpt>
      <trkpt lat="48.74616" lon="2.5578">
        <ele>100</ele>
        <time>2024-01-22T13:06:36.821+00:00</time>
      </trkpt>
      <trkpt lat="48.74614" lon="2.55787">
        <ele>100</ele>
        <time>2024-01-22T13:06:41.145+00:00</time>
      </trkpt>
      <trkpt lat="48.74604" lon="2.55807">
        <ele>102</ele>
        <time>2024-01-22T13:06:51.190+00:00</time>
      </trkpt>
      <trkpt lat="48.74602" lon="2.55811">
        <ele>102</ele>
        <time>2024-01-22T13:06:54.793+00:00</time>
      </trkpt>
      <trkpt lat="48.746" lon="2.55823">
        <ele>103</ele>
        <time>2024-01-22T13:06:59.395+00:00</time>
      </trkpt>
      <trkpt lat="48.74596" lon="2.55835">
        <ele>103</ele>
        <time>2024-01-22T13:07:04.017+00:00</time>
      </trkpt>
      <trkpt lat="48.74591" lon="2.55841">
        <ele>103</ele>
        <time>2024-01-22T13:07:08.526+00:00</time>
      </trkpt>
      <trkpt lat="48.74587" lon="2.55848">
        <ele>103</ele>
        <time>2024-01-22T13:07:13.247+00:00</time>
      </trkpt>
      <trkpt lat="48.74581" lon="2.55854">
        <ele>103</ele>
        <time>2024-01-22T13:07:17.231+00:00</time>
      </trkpt>
      <trkpt lat="48.74575" lon="2.55862">
        <ele>103</ele>
        <time>2024-01-22T13:07:21.830+00:00</time>
      </trkpt>
      <trkpt lat="48.74571" lon="2.55869">
        <ele>103</ele>
        <time>2024-01-22T13:07:26.035+00:00</time>
      </trkpt>
      <trkpt lat="48.74567" lon="2.55876">
        <ele>101</ele>
        <time>2024-01-22T13:07:31.228+00:00</time>
      </trkpt>
      <trkpt lat="48.74563" lon="2.55885">
        <ele>101</ele>
        <time>2024-01-22T13:07:35.782+00:00</time>
      </trkpt>
      <trkpt lat="48.74559" lon="2.55893">
        <ele>101</ele>
        <time>2024-01-22T13:07:40.879+00:00</time>
      </trkpt>
      <trkpt lat="48.74556" lon="2.55899">
        <ele>101</ele>
        <time>2024-01-22T13:07:44.957+00:00</time>
      </trkpt>
      <trkpt lat="48.74552" lon="2.55904">
        <ele>101</ele>
        <time>2024-01-22T13:07:49.526+00:00</time>
      </trkpt>
      <trkpt lat="48.74548" lon="2.55911">
        <ele>101</ele>
        <time>2024-01-22T13:07:54.067+00:00</time>
      </trkpt>
      <trkpt lat="48.74544" lon="2.55919">
        <ele>101</ele>
        <time>2024-01-22T13:07:58.859+00:00</time>
      </trkpt>
      <trkpt lat="48.74541" lon="2.55926">
        <ele>98</ele>
        <time>2024-01-22T13:08:03.050+00:00</time>
      </trkpt>
      <trkpt lat="48.74536" lon="2.55934">
        <ele>98</ele>
        <time>2024-01-22T13:08:07.843+00:00</time>
      </trkpt>
      <trkpt lat="48.7453" lon="2.55941">
        <ele>98</ele>
        <time>2024-01-22T13:08:13.233+00:00</time>
      </trkpt>
      <trkpt lat="48.74526" lon="2.55942">
        <ele>98</ele>
        <time>2024-01-22T13:08:16.830+00:00</time>
      </trkpt>
      <trkpt lat="48.74524" lon="2.5594">
        <ele>98</ele>
        <time>2024-01-22T13:08:22.065+00:00</time>
      </trkpt>
      <trkpt lat="48.74521" lon="2.55934">
        <ele>98</ele>
        <time>2024-01-22T13:08:26.258+00:00</time>
      </trkpt>
      <trkpt lat="48.74517" lon="2.55928">
        <ele>98</ele>
        <time>2024-01-22T13:08:30.689+00:00</time>
      </trkpt>
      <trkpt lat="48.74512" lon="2.55924">
        <ele>98</ele>
        <time>2024-01-22T13:08:34.880+00:00</time>
      </trkpt>
      <trkpt lat="48.74507" lon="2.5592">
        <ele>98</ele>
        <time>2024-01-22T13:08:39.070+00:00</time>
      </trkpt>
      <trkpt lat="48.74502" lon="2.55915">
        <ele>98</ele>
        <time>2024-01-22T13:08:43.262+00:00</time>
      </trkpt>
      <trkpt lat="48.74498" lon="2.55911">
        <ele>98</ele>
        <time>2024-01-22T13:08:46.858+00:00</time>
      </trkpt>
      <trkpt lat="48.74494" lon="2.55906">
        <ele>98</ele>
        <time>2024-01-22T13:08:51.054+00:00</time>
      </trkpt>
      <trkpt lat="48.7449" lon="2.559">
        <ele>98</ele>
        <time>2024-01-22T13:08:55.846+00:00</time>
      </trkpt>
      <trkpt lat="48.74486" lon="2.55895">
        <ele>98</ele>
        <time>2024-01-22T13:09:00.014+00:00</time>
      </trkpt>
      <trkpt lat="48.74483" lon="2.55891">
        <ele>98</ele>
        <time>2024-01-22T13:09:03.876+00:00</time>
      </trkpt>
      <trkpt lat="48.7448" lon="2.55884">
        <ele>98</ele>
        <time>2024-01-22T13:09:08.428+00:00</time>
      </trkpt>
      <trkpt lat="48.74478" lon="2.55876">
        <ele>98</ele>
        <time>2024-01-22T13:09:12.859+00:00</time>
      </trkpt>
      <trkpt lat="48.74475" lon="2.55871">
        <ele>97</ele>
        <time>2024-01-22T13:09:16.811+00:00</time>
      </trkpt>
      <trkpt lat="48.74473" lon="2.55866">
        <ele>97</ele>
        <time>2024-01-22T13:09:20.643+00:00</time>
      </trkpt>
      <trkpt lat="48.74469" lon="2.5586">
        <ele>97</ele>
        <time>2024-01-22T13:09:25.074+00:00</time>
      </trkpt>
      <trkpt lat="48.74464" lon="2.55854">
        <ele>97</ele>
        <time>2024-01-22T13:09:29.506+00:00</time>
      </trkpt>
      <trkpt lat="48.74459" lon="2.55849">
        <ele>97</ele>
        <time>2024-01-22T13:09:33.526+00:00</time>
      </trkpt>
      <trkpt lat="48.74454" lon="2.55844">
        <ele>96</ele>
        <time>2024-01-22T13:09:37.526+00:00</time>
      </trkpt>
      <trkpt lat="48.74449" lon="2.5584">
        <ele>96</ele>
        <time>2024-01-22T13:09:41.526+00:00</time>
      </trkpt>
      <trkpt lat="48.74443" lon="2.55835">
        <ele>96</ele>
        <time>2024-01-22T13:09:46.033+00:00</time>
      </trkpt>
      <trkpt lat="48.74438" lon="2.5583">
        <ele>96</ele>
        <time>2024-01-22T13:09:50.101+00:00</time>
      </trkpt>
      <trkpt lat="48.74433" lon="2.55826">
        <ele>96</ele>
        <time>2024-01-22T13:09:54.052+00:00</time>
      </trkpt>
      <trkpt lat="48.74427" lon="2.55824">
        <ele>96</ele>
        <time>2024-01-22T13:09:58.526+00:00</time>
      </trkpt>
      <trkpt lat="48.74422" lon="2.55822">
        <ele>96</ele>
        <time>2024-01-22T13:10:03.093+00:00</time>
      </trkpt>
      <trkpt lat="48.74415" lon="2.55822">
        <ele>96</ele>
        <time>2024-01-22T13:10:07.226+00:00</time>
      </trkpt>
      <trkpt lat="48.74409" lon="2.55827">
        <ele>96</ele>
        <time>2024-01-22T13:10:11.890+00:00</time>
      </trkpt>
      <trkpt lat="48.74404" lon="2.55828">
        <ele>96</ele>
        <time>2024-01-22T13:10:16.900+00:00</time>
      </trkpt>
      <trkpt lat="48.74397" lon="2.55827">
        <ele>97</ele>
        <time>2024-01-22T13:10:20.905+00:00</time>
      </trkpt>
      <trkpt lat="48.7439" lon="2.55828">
        <ele>97</ele>
        <time>2024-01-22T13:10:24.910+00:00</time>
      </trkpt>
      <trkpt lat="48.74383" lon="2.55829">
        <ele>97</ele>
        <time>2024-01-22T13:10:28.913+00:00</time>
      </trkpt>
      <trkpt lat="48.74376" lon="2.55832">
        <ele>97</ele>
        <time>2024-01-22T13:10:33.917+00:00</time>
      </trkpt>
      <trkpt lat="48.74369" lon="2.55834">
        <ele>97</ele>
        <time>2024-01-22T13:10:38.920+00:00</time>
      </trkpt>
      <trkpt lat="48.74363" lon="2.55836">
        <ele>97</ele>
        <time>2024-01-22T13:10:42.924+00:00</time>
      </trkpt>
      <trkpt lat="48.74358" lon="2.55836">
        <ele>97</ele>
        <time>2024-01-22T13:10:47.266+00:00</time>
      </trkpt>
      <trkpt lat="48.74352" lon="2.55839">
        <ele>97</ele>
        <time>2024-01-22T13:10:52.230+00:00</time>
      </trkpt>
      <trkpt lat="48.74346" lon="2.55839">
        <ele>98</ele>
        <time>2024-01-22T13:10:56.198+00:00</time>
      </trkpt>
      <trkpt lat="48.74339" lon="2.55844">
        <ele>98</ele>
        <time>2024-01-22T13:11:00.750+00:00</time>
      </trkpt>
      <trkpt lat="48.74334" lon="2.55848">
        <ele>98</ele>
        <time>2024-01-22T13:11:05.383+00:00</time>
      </trkpt>
      <trkpt lat="48.74328" lon="2.55855">
        <ele>98</ele>
        <time>2024-01-22T13:11:09.456+00:00</time>
      </trkpt>
      <trkpt lat="48.74324" lon="2.55861">
        <ele>98</ele>
        <time>2024-01-22T13:11:13.409+00:00</time>
      </trkpt>
      <trkpt lat="48.7432" lon="2.55866">
        <ele>98</ele>
        <time>2024-01-22T13:11:17.839+00:00</time>
      </trkpt>
      <trkpt lat="48.74314" lon="2.5587">
        <ele>97</ele>
        <time>2024-01-22T13:11:22.389+00:00</time>
      </trkpt>
      <trkpt lat="48.74307" lon="2.55873">
        <ele>97</ele>
        <time>2024-01-22T13:11:27.058+00:00</time>
      </trkpt>
      <trkpt lat="48.74301" lon="2.55876">
        <ele>97</ele>
        <time>2024-01-22T13:11:31.725+00:00</time>
      </trkpt>
      <trkpt lat="48.74296" lon="2.5588">
        <ele>97</ele>
        <time>2024-01-22T13:11:36.273+00:00</time>
      </trkpt>
      <trkpt lat="48.7429" lon="2.55884">
        <ele>97</ele>
        <time>2024-01-22T13:11:40.804+00:00</time>
      </trkpt>
      <trkpt lat="48.74285" lon="2.5589">
        <ele>97</ele>
        <time>2024-01-22T13:11:45.350+00:00</time>
      </trkpt>
      <trkpt lat="48.7428" lon="2.55896">
        <ele>97</ele>
        <time>2024-01-22T13:11:49.778+00:00</time>
      </trkpt>
      <trkpt lat="48.74274" lon="2.55901">
        <ele>97</ele>
        <time>2024-01-22T13:11:53.850+00:00</time>
      </trkpt>
      <trkpt lat="48.74269" lon="2.55905">
        <ele>97</ele>
        <time>2024-01-22T13:11:58.041+00:00</time>
      </trkpt>
      <trkpt lat="48.74264" lon="2.55908">
        <ele>97</ele>
        <time>2024-01-22T13:12:02.588+00:00</time>
      </trkpt>
      <trkpt lat="48.74259" lon="2.5591">
        <ele>97</ele>
        <time>2024-01-22T13:12:06.896+00:00</time>
      </trkpt>
      <trkpt lat="48.74253" lon="2.55912">
        <ele>97</ele>
        <time>2024-01-22T13:12:11.045+00:00</time>
      </trkpt>
      <trkpt lat="48.74248" lon="2.55914">
        <ele>97</ele>
        <time>2024-01-22T13:12:15.233+00:00</time>
      </trkpt>
      <trkpt lat="48.74242" lon="2.55914">
        <ele>97</ele>
        <time>2024-01-22T13:12:19.661+00:00</time>
      </trkpt>
      <trkpt lat="48.74236" lon="2.55914">
        <ele>97</ele>
        <time>2024-01-22T13:12:24.087+00:00</time>
      </trkpt>
      <trkpt lat="48.7423" lon="2.55914">
        <ele>97</ele>
        <time>2024-01-22T13:12:28.036+00:00</time>
      </trkpt>
      <trkpt lat="48.74222" lon="2.55912">
        <ele>97</ele>
        <time>2024-01-22T13:12:33.214+00:00</time>
      </trkpt>
      <trkpt lat="48.74216" lon="2.55913">
        <ele>97</ele>
        <time>2024-01-22T13:12:37.212+00:00</time>
      </trkpt>
      <trkpt lat="48.74208" lon="2.55912">
        <ele>97</ele>
        <time>2024-01-22T13:12:41.672+00:00</time>
      </trkpt>
      <trkpt lat="48.74202" lon="2.55912">
        <ele>97</ele>
        <time>2024-01-22T13:12:46.217+00:00</time>
      </trkpt>
      <trkpt lat="48.74195" lon="2.55913">
        <ele>97</ele>
        <time>2024-01-22T13:12:50.642+00:00</time>
      </trkpt>
      <trkpt lat="48.74188" lon="2.55912">
        <ele>97</ele>
        <time>2024-01-22T13:12:55.665+00:00</time>
      </trkpt>
      <trkpt lat="48.74182" lon="2.5591">
        <ele>97</ele>
        <time>2024-01-22T13:13:00.281+00:00</time>
      </trkpt>
      <trkpt lat="48.74176" lon="2.55908">
        <ele>98</ele>
        <time>2024-01-22T13:13:04.754+00:00</time>
      </trkpt>
      <trkpt lat="48.74169" lon="2.55906">
        <ele>98</ele>
        <time>2024-01-22T13:13:09.249+00:00</time>
      </trkpt>
      <trkpt lat="48.74163" lon="2.55905">
        <ele>98</ele>
        <time>2024-01-22T13:13:13.722+00:00</time>
      </trkpt>
      <trkpt lat="48.74156" lon="2.55903">
        <ele>98</ele>
        <time>2024-01-22T13:13:18.265+00:00</time>
      </trkpt>
      <trkpt lat="48.74148" lon="2.55904">
        <ele>97</ele>
        <time>2024-01-22T13:13:22.809+00:00</time>
      </trkpt>
      <trkpt lat="48.74141" lon="2.55905">
        <ele>97</ele>
        <time>2024-01-22T13:13:27.281+00:00</time>
      </trkpt>
      <trkpt lat="48.74135" lon="2.55907">
        <ele>97</ele>
        <time>2024-01-22T13:13:31.536+00:00</time>
      </trkpt>
      <trkpt lat="48.74129" lon="2.5591">
        <ele>97</ele>
        <time>2024-01-22T13:13:35.482+00:00</time>
      </trkpt>
      <trkpt lat="48.74121" lon="2.55913">
        <ele>98</ele>
        <time>2024-01-22T13:13:40.025+00:00</time>
      </trkpt>
      <trkpt lat="48.74115" lon="2.55914">
        <ele>98</ele>
        <time>2024-01-22T13:13:44.448+00:00</time>
      </trkpt>
      <trkpt lat="48.74109" lon="2.55914">
        <ele>98</ele>
        <time>2024-01-22T13:13:48.393+00:00</time>
      </trkpt>
      <trkpt lat="48.74103" lon="2.55914">
        <ele>98</ele>
        <time>2024-01-22T13:13:52.817+00:00</time>
      </trkpt>
      <trkpt lat="48.74098" lon="2.55911">
        <ele>98</ele>
        <time>2024-01-22T13:13:57.241+00:00</time>
      </trkpt>
      <trkpt lat="48.74093" lon="2.55906">
        <ele>98</ele>
        <time>2024-01-22T13:14:01.426+00:00</time>
      </trkpt>
      <trkpt lat="48.74088" lon="2.559">
        <ele>98</ele>
        <time>2024-01-22T13:14:05.852+00:00</time>
      </trkpt>
      <trkpt lat="48.74084" lon="2.55893">
        <ele>98</ele>
        <time>2024-01-22T13:14:10.397+00:00</time>
      </trkpt>
      <trkpt lat="48.74078" lon="2.55889">
        <ele>98</ele>
        <time>2024-01-22T13:14:14.343+00:00</time>
      </trkpt>
      <trkpt lat="48.74072" lon="2.55885">
        <ele>98</ele>
        <time>2024-01-22T13:14:18.408+00:00</time>
      </trkpt>
      <trkpt lat="48.74067" lon="2.55882">
        <ele>97</ele>
        <time>2024-01-22T13:14:22.473+00:00</time>
      </trkpt>
      <trkpt lat="48.74062" lon="2.55879">
        <ele>97</ele>
        <time>2024-01-22T13:14:26.418+00:00</time>
      </trkpt>
      <trkpt lat="48.74057" lon="2.55877">
        <ele>97</ele>
        <time>2024-01-22T13:14:30.915+00:00</time>
      </trkpt>
      <trkpt lat="48.74051" lon="2.55875">
        <ele>97</ele>
        <time>2024-01-22T13:14:35.029+00:00</time>
      </trkpt>
      <trkpt lat="48.74045" lon="2.55874">
        <ele>97</ele>
        <time>2024-01-22T13:14:39.095+00:00</time>
      </trkpt>
      <trkpt lat="48.74037" lon="2.5587">
        <ele>96</ele>
        <time>2024-01-22T13:14:43.500+00:00</time>
      </trkpt>
      <trkpt lat="48.7403" lon="2.55871">
        <ele>96</ele>
        <time>2024-01-22T13:14:48.043+00:00</time>
      </trkpt>
      <trkpt lat="48.74024" lon="2.5587">
        <ele>96</ele>
        <time>2024-01-22T13:14:52.526+00:00</time>
      </trkpt>
      <trkpt lat="48.74017" lon="2.5587">
        <ele>96</ele>
        <time>2024-01-22T13:14:57.010+00:00</time>
      </trkpt>
      <trkpt lat="48.7401" lon="2.55871">
        <ele>97</ele>
        <time>2024-01-22T13:15:01.657+00:00</time>
      </trkpt>
      <trkpt lat="48.74003" lon="2.55871">
        <ele>97</ele>
        <time>2024-01-22T13:15:06.052+00:00</time>
      </trkpt>
      <trkpt lat="48.73998" lon="2.55873">
        <ele>97</ele>
        <time>2024-01-22T13:15:10.047+00:00</time>
      </trkpt>
      <trkpt lat="48.73993" lon="2.55874">
        <ele>97</ele>
        <time>2024-01-22T13:15:13.994+00:00</time>
      </trkpt>
      <trkpt lat="48.73986" lon="2.55875">
        <ele>97</ele>
        <time>2024-01-22T13:15:18.417+00:00</time>
      </trkpt>
      <trkpt lat="48.7398" lon="2.55876">
        <ele>98</ele>
        <time>2024-01-22T13:15:23.074+00:00</time>
      </trkpt>
      <trkpt lat="48.73974" lon="2.55876">
        <ele>98</ele>
        <time>2024-01-22T13:15:27.625+00:00</time>
      </trkpt>
      <trkpt lat="48.73968" lon="2.55876">
        <ele>98</ele>
        <time>2024-01-22T13:15:31.695+00:00</time>
      </trkpt>
      <trkpt lat="48.7396" lon="2.55879">
        <ele>98</ele>
        <time>2024-01-22T13:15:36.243+00:00</time>
      </trkpt>
      <trkpt lat="48.73953" lon="2.55879">
        <ele>98</ele>
        <time>2024-01-22T13:15:40.193+00:00</time>
      </trkpt>
      <trkpt lat="48.73945" lon="2.55875">
        <ele>98</ele>
        <time>2024-01-22T13:15:45.240+00:00</time>
      </trkpt>
      <trkpt lat="48.73939" lon="2.55873">
        <ele>99</ele>
        <time>2024-01-22T13:15:49.747+00:00</time>
      </trkpt>
      <trkpt lat="48.73935" lon="2.55869">
        <ele>99</ele>
        <time>2024-01-22T13:15:54.174+00:00</time>
      </trkpt>
      <trkpt lat="48.7393" lon="2.55864">
        <ele>99</ele>
        <time>2024-01-22T13:15:58.242+00:00</time>
      </trkpt>
      <trkpt lat="48.73927" lon="2.55854">
        <ele>99</ele>
        <time>2024-01-22T13:16:02.790+00:00</time>
      </trkpt>
      <trkpt lat="48.73923" lon="2.55844">
        <ele>99</ele>
        <time>2024-01-22T13:16:07.248+00:00</time>
      </trkpt>
      <trkpt lat="48.73918" lon="2.55835">
        <ele>99</ele>
        <time>2024-01-22T13:16:11.768+00:00</time>
      </trkpt>
      <trkpt lat="48.73915" lon="2.55826">
        <ele>99</ele>
        <time>2024-01-22T13:16:16.437+00:00</time>
      </trkpt>
      <trkpt lat="48.73912" lon="2.55818">
        <ele>98</ele>
        <time>2024-01-22T13:16:21.105+00:00</time>
      </trkpt>
      <trkpt lat="48.7391" lon="2.55809">
        <ele>98</ele>
        <time>2024-01-22T13:16:25.652+00:00</time>
      </trkpt>
      <trkpt lat="48.73905" lon="2.55801">
        <ele>98</ele>
        <time>2024-01-22T13:16:30.199+00:00</time>
      </trkpt>
      <trkpt lat="48.73903" lon="2.55794">
        <ele>98</ele>
        <time>2024-01-22T13:16:33.990+00:00</time>
      </trkpt>
      <trkpt lat="48.73901" lon="2.55786">
        <ele>96</ele>
        <time>2024-01-22T13:16:37.938+00:00</time>
      </trkpt>
      <trkpt lat="48.73897" lon="2.55776">
        <ele>96</ele>
        <time>2024-01-22T13:16:42.526+00:00</time>
      </trkpt>
      <trkpt lat="48.73894" lon="2.55767">
        <ele>96</ele>
        <time>2024-01-22T13:16:47.033+00:00</time>
      </trkpt>
      <trkpt lat="48.73891" lon="2.55759">
        <ele>95</ele>
        <time>2024-01-22T13:16:51.542+00:00</time>
      </trkpt>
      <trkpt lat="48.73889" lon="2.55751">
        <ele>95</ele>
        <time>2024-01-22T13:16:55.372+00:00</time>
      </trkpt>
      <trkpt lat="48.73887" lon="2.55742">
        <ele>95</ele>
        <time>2024-01-22T13:16:59.774+00:00</time>
      </trkpt>
      <trkpt lat="48.73885" lon="2.55734">
        <ele>95</ele>
        <time>2024-01-22T13:17:03.795+00:00</time>
      </trkpt>
      <trkpt lat="48.73885" lon="2.55726">
        <ele>95</ele>
        <time>2024-01-22T13:17:07.802+00:00</time>
      </trkpt>
      <trkpt lat="48.73884" lon="2.55718">
        <ele>95</ele>
        <time>2024-01-22T13:17:11.752+00:00</time>
      </trkpt>
      <trkpt lat="48.73882" lon="2.55709">
        <ele>95</ele>
        <time>2024-01-22T13:17:15.822+00:00</time>
      </trkpt>
      <trkpt lat="48.73881" lon="2.55701">
        <ele>96</ele>
        <time>2024-01-22T13:17:19.773+00:00</time>
      </trkpt>
      <trkpt lat="48.7388" lon="2.55692">
        <ele>96</ele>
        <time>2024-01-22T13:17:24.442+00:00</time>
      </trkpt>
      <trkpt lat="48.73877" lon="2.55684">
        <ele>96</ele>
        <time>2024-01-22T13:17:28.576+00:00</time>
      </trkpt>
      <trkpt lat="48.73876" lon="2.55676">
        <ele>96</ele>
        <time>2024-01-22T13:17:32.664+00:00</time>
      </trkpt>
      <trkpt lat="48.73875" lon="2.55671">
        <ele>96</ele>
        <time>2024-01-22T13:17:36.526+00:00</time>
      </trkpt>
      <trkpt lat="48.73875" lon="2.55665">
        <ele>96</ele>
        <time>2024-01-22T13:17:40.526+00:00</time>
      </trkpt>
      <trkpt lat="48.73874" lon="2.55658">
        <ele>95</ele>
        <time>2024-01-22T13:17:44.517+00:00</time>
      </trkpt>
      <trkpt lat="48.73873" lon="2.55652">
        <ele>95</ele>
        <time>2024-01-22T13:17:49.050+00:00</time>
      </trkpt>
      <trkpt lat="48.7387" lon="2.55643">
        <ele>95</ele>
        <time>2024-01-22T13:17:53.613+00:00</time>
      </trkpt>
      <trkpt lat="48.73868" lon="2.55637">
        <ele>95</ele>
        <time>2024-01-22T13:17:57.526+00:00</time>
      </trkpt>
      <trkpt lat="48.73866" lon="2.55629">
        <ele>95</ele>
        <time>2024-01-22T13:18:02.110+00:00</time>
      </trkpt>
      <trkpt lat="48.73863" lon="2.55621">
        <ele>95</ele>
        <time>2024-01-22T13:18:06.659+00:00</time>
      </trkpt>
      <trkpt lat="48.73863" lon="2.55612">
        <ele>95</ele>
        <time>2024-01-22T13:18:10.849+00:00</time>
      </trkpt>
      <trkpt lat="48.73863" lon="2.55602">
        <ele>95</ele>
        <time>2024-01-22T13:18:14.798+00:00</time>
      </trkpt>
      <trkpt lat="48.73862" lon="2.55593">
        <ele>95</ele>
        <time>2024-01-22T13:18:19.431+00:00</time>
      </trkpt>
      <trkpt lat="48.73862" lon="2.55581">
        <ele>95</ele>
        <time>2024-01-22T13:18:23.416+00:00</time>
      </trkpt>
      <trkpt lat="48.73862" lon="2.5557">
        <ele>95</ele>
        <time>2024-01-22T13:18:27.842+00:00</time>
      </trkpt>
      <trkpt lat="48.73861" lon="2.55562">
        <ele>95</ele>
        <time>2024-01-22T13:18:31.911+00:00</time>
      </trkpt>
      <trkpt lat="48.73859" lon="2.55553">
        <ele>95</ele>
        <time>2024-01-22T13:18:36.458+00:00</time>
      </trkpt>
      <trkpt lat="48.73857" lon="2.55543">
        <ele>95</ele>
        <time>2024-01-22T13:18:40.788+00:00</time>
      </trkpt>
      <trkpt lat="48.73855" lon="2.55534">
        <ele>95</ele>
        <time>2024-01-22T13:18:44.833+00:00</time>
      </trkpt>
      <trkpt lat="48.73852" lon="2.55524">
        <ele>95</ele>
        <time>2024-01-22T13:18:48.660+00:00</time>
      </trkpt>
      <trkpt lat="48.73849" lon="2.55516">
        <ele>95</ele>
        <time>2024-01-22T13:18:53.295+00:00</time>
      </trkpt>
      <trkpt lat="48.73846" lon="2.55508">
        <ele>94</ele>
        <time>2024-01-22T13:18:57.032+00:00</time>
      </trkpt>
      <trkpt lat="48.73842" lon="2.55499">
        <ele>94</ele>
        <time>2024-01-22T13:19:01.696+00:00</time>
      </trkpt>
      <trkpt lat="48.7384" lon="2.55492">
        <ele>94</ele>
        <time>2024-01-22T13:19:05.523+00:00</time>
      </trkpt>
      <trkpt lat="48.73838" lon="2.55485">
        <ele>94</ele>
        <time>2024-01-22T13:19:10.067+00:00</time>
      </trkpt>
      <trkpt lat="48.73836" lon="2.55478">
        <ele>94</ele>
        <time>2024-01-22T13:19:14.253+00:00</time>
      </trkpt>
      <trkpt lat="48.73832" lon="2.5547">
        <ele>94</ele>
        <time>2024-01-22T13:19:18.439+00:00</time>
      </trkpt>
      <trkpt lat="48.73829" lon="2.55461">
        <ele>94</ele>
        <time>2024-01-22T13:19:22.908+00:00</time>
      </trkpt>
      <trkpt lat="48.73826" lon="2.55454">
        <ele>94</ele>
        <time>2024-01-22T13:19:26.996+00:00</time>
      </trkpt>
      <trkpt lat="48.7382" lon="2.55449">
        <ele>94</ele>
        <time>2024-01-22T13:19:30.997+00:00</time>
      </trkpt>
      <trkpt lat="48.73813" lon="2.55445">
        <ele>94</ele>
        <time>2024-01-22T13:19:34.824+00:00</time>
      </trkpt>
      <trkpt lat="48.73807" lon="2.55437">
        <ele>94</ele>
        <time>2024-01-22T13:19:39.350+00:00</time>
      </trkpt>
      <trkpt lat="48.73802" lon="2.5543">
        <ele>95</ele>
        <time>2024-01-22T13:19:43.418+00:00</time>
      </trkpt>
      <trkpt lat="48.73797" lon="2.55426">
        <ele>95</ele>
        <time>2024-01-22T13:19:47.817+00:00</time>
      </trkpt>
      <trkpt lat="48.73792" lon="2.55422">
        <ele>94</ele>
        <time>2024-01-22T13:19:51.670+00:00</time>
      </trkpt>
      <trkpt lat="48.73787" lon="2.55417">
        <ele>94</ele>
        <time>2024-01-22T13:19:56.077+00:00</time>
      </trkpt>
      <trkpt lat="48.73783" lon="2.55411">
        <ele>94</ele>
        <time>2024-01-22T13:20:00.436+00:00</time>
      </trkpt>
      <trkpt lat="48.7378" lon="2.55405">
        <ele>94</ele>
        <time>2024-01-22T13:20:04.450+00:00</time>
      </trkpt>
      <trkpt lat="48.73777" lon="2.55396">
        <ele>95</ele>
        <time>2024-01-22T13:20:08.399+00:00</time>
      </trkpt>
      <trkpt lat="48.73775" lon="2.55385">
        <ele>95</ele>
        <time>2024-01-22T13:20:12.945+00:00</time>
      </trkpt>
      <trkpt lat="48.73774" lon="2.55373">
        <ele>95</ele>
        <time>2024-01-22T13:20:17.355+00:00</time>
      </trkpt>
      <trkpt lat="48.73769" lon="2.55365">
        <ele>95</ele>
        <time>2024-01-22T13:20:21.903+00:00</time>
      </trkpt>
      <trkpt lat="48.73767" lon="2.55355">
        <ele>95</ele>
        <time>2024-01-22T13:20:26.434+00:00</time>
      </trkpt>
      <trkpt lat="48.73768" lon="2.55348">
        <ele>95</ele>
        <time>2024-01-22T13:20:31.067+00:00</time>
      </trkpt>
      <trkpt lat="48.7377" lon="2.55343">
        <ele>95</ele>
        <time>2024-01-22T13:20:35.053+00:00</time>
      </trkpt>
      <trkpt lat="48.73768" lon="2.55347">
        <ele>95</ele>
        <time>2024-01-22T13:21:27.267+00:00</time>
      </trkpt>
      <trkpt lat="48.73767" lon="2.55348">
        <ele>95</ele>
        <time>2024-01-22T13:21:31.768+00:00</time>
      </trkpt>
      <trkpt lat="48.73766" lon="2.55347">
        <ele>95</ele>
        <time>2024-01-22T13:21:36.299+00:00</time>
      </trkpt>
      <trkpt lat="48.73761" lon="2.55346">
        <ele>95</ele>
        <time>2024-01-22T13:21:40.743+00:00</time>
      </trkpt>
      <trkpt lat="48.7375" lon="2.55344">
        <ele>95</ele>
        <time>2024-01-22T13:21:45.289+00:00</time>
      </trkpt>
      <trkpt lat="48.73747" lon="2.55339">
        <ele>95</ele>
        <time>2024-01-22T13:21:49.477+00:00</time>
      </trkpt>
      <trkpt lat="48.73739" lon="2.55341">
        <ele>95</ele>
        <time>2024-01-22T13:21:53.904+00:00</time>
      </trkpt>
      <trkpt lat="48.73731" lon="2.55352">
        <ele>94</ele>
        <time>2024-01-22T13:21:58.689+00:00</time>
      </trkpt>
      <trkpt lat="48.73725" lon="2.55361">
        <ele>94</ele>
        <time>2024-01-22T13:22:03.236+00:00</time>
      </trkpt>
      <trkpt lat="48.73718" lon="2.55359">
        <ele>94</ele>
        <time>2024-01-22T13:22:07.781+00:00</time>
      </trkpt>
      <trkpt lat="48.73711" lon="2.55357">
        <ele>94</ele>
        <time>2024-01-22T13:22:11.729+00:00</time>
      </trkpt>
      <trkpt lat="48.73706" lon="2.55356">
        <ele>94</ele>
        <time>2024-01-22T13:22:16.274+00:00</time>
      </trkpt>
      <trkpt lat="48.73705" lon="2.5536">
        <ele>94</ele>
        <time>2024-01-22T13:22:20.341+00:00</time>
      </trkpt>
      <trkpt lat="48.73702" lon="2.55362">
        <ele>94</ele>
        <time>2024-01-22T13:22:24.888+00:00</time>
      </trkpt>
      <trkpt lat="48.73698" lon="2.55361">
        <ele>94</ele>
        <time>2024-01-22T13:22:28.836+00:00</time>
      </trkpt>
      <trkpt lat="48.73693" lon="2.55358">
        <ele>94</ele>
        <time>2024-01-22T13:22:33.023+00:00</time>
      </trkpt>
      <trkpt lat="48.73692" lon="2.55354">
        <ele>94</ele>
        <time>2024-01-22T13:22:37.592+00:00</time>
      </trkpt>
      <trkpt lat="48.73698" lon="2.55352">
        <ele>94</ele>
        <time>2024-01-22T13:24:06.292+00:00</time>
      </trkpt>
      <trkpt lat="48.737" lon="2.55351">
        <ele>94</ele>
        <time>2024-01-22T13:24:10.052+00:00</time>
      </trkpt>
      <trkpt lat="48.737" lon="2.55352">
        <ele>94</ele>
        <time>2024-01-22T13:24:14.479+00:00</time>
      </trkpt>
      <trkpt lat="48.73702" lon="2.55359">
        <ele>94</ele>
        <time>2024-01-22T13:24:18.904+00:00</time>
      </trkpt>
      <trkpt lat="48.73714" lon="2.55359">
        <ele>94</ele>
        <time>2024-01-22T13:24:23.430+00:00</time>
      </trkpt>
      <trkpt lat="48.7372" lon="2.55354">
        <ele>94</ele>
        <time>2024-01-22T13:24:27.526+00:00</time>
      </trkpt>
      <trkpt lat="48.73729" lon="2.55352">
        <ele>94</ele>
        <time>2024-01-22T13:24:31.526+00:00</time>
      </trkpt>
      <trkpt lat="48.73736" lon="2.55349">
        <ele>94</ele>
        <time>2024-01-22T13:24:35.628+00:00</time>
      </trkpt>
      <trkpt lat="48.73742" lon="2.55348">
        <ele>95</ele>
        <time>2024-01-22T13:24:40.173+00:00</time>
      </trkpt>
      <trkpt lat="48.7375" lon="2.55345">
        <ele>95</ele>
        <time>2024-01-22T13:24:44.719+00:00</time>
      </trkpt>
      <trkpt lat="48.73759" lon="2.55347">
        <ele>95</ele>
        <time>2024-01-22T13:24:48.666+00:00</time>
      </trkpt>
      <trkpt lat="48.73766" lon="2.5535">
        <ele>95</ele>
        <time>2024-01-22T13:24:53.092+00:00</time>
      </trkpt>
      <trkpt lat="48.73769" lon="2.5535">
        <ele>95</ele>
        <time>2024-01-22T13:24:57.277+00:00</time>
      </trkpt>
      <trkpt lat="48.73769" lon="2.55349">
        <ele>95</ele>
        <time>2024-01-22T13:25:01.464+00:00</time>
      </trkpt>
      <trkpt lat="48.73769" lon="2.55341">
        <ele>95</ele>
        <time>2024-01-22T13:25:06.041+00:00</time>
      </trkpt>
      <trkpt lat="48.73768" lon="2.55333">
        <ele>95</ele>
        <time>2024-01-22T13:25:10.076+00:00</time>
      </trkpt>
      <trkpt lat="48.73762" lon="2.55329">
        <ele>95</ele>
        <time>2024-01-22T13:25:14.859+00:00</time>
      </trkpt>
      <trkpt lat="48.73758" lon="2.55329">
        <ele>95</ele>
        <time>2024-01-22T13:25:19.521+00:00</time>
      </trkpt>
      <trkpt lat="48.73754" lon="2.55328">
        <ele>95</ele>
        <time>2024-01-22T13:25:24.064+00:00</time>
      </trkpt>
      <trkpt lat="48.7375" lon="2.55324">
        <ele>95</ele>
        <time>2024-01-22T13:25:28.728+00:00</time>
      </trkpt>
      <trkpt lat="48.73749" lon="2.55321">
        <ele>95</ele>
        <time>2024-01-22T13:25:33.273+00:00</time>
      </trkpt>
      <trkpt lat="48.73748" lon="2.55316">
        <ele>94</ele>
        <time>2024-01-22T13:25:37.100+00:00</time>
      </trkpt>
      <trkpt lat="48.73744" lon="2.55308">
        <ele>94</ele>
        <time>2024-01-22T13:25:41.885+00:00</time>
      </trkpt>
      <trkpt lat="48.73742" lon="2.553">
        <ele>94</ele>
        <time>2024-01-22T13:25:46.291+00:00</time>
      </trkpt>
      <trkpt lat="48.73736" lon="2.55295">
        <ele>95</ele>
        <time>2024-01-22T13:25:50.839+00:00</time>
      </trkpt>
      <trkpt lat="48.73729" lon="2.55298">
        <ele>95</ele>
        <time>2024-01-22T13:25:54.950+00:00</time>
      </trkpt>
      <trkpt lat="48.73724" lon="2.55299">
        <ele>95</ele>
        <time>2024-01-22T13:25:58.988+00:00</time>
      </trkpt>
      <trkpt lat="48.73718" lon="2.55297">
        <ele>95</ele>
        <time>2024-01-22T13:26:02.937+00:00</time>
      </trkpt>
      <trkpt lat="48.73712" lon="2.55296">
        <ele>95</ele>
        <time>2024-01-22T13:26:07.465+00:00</time>
      </trkpt>
      <trkpt lat="48.73706" lon="2.55292">
        <ele>95</ele>
        <time>2024-01-22T13:26:12.011+00:00</time>
      </trkpt>
      <trkpt lat="48.73701" lon="2.5529">
        <ele>95</ele>
        <time>2024-01-22T13:26:16.437+00:00</time>
      </trkpt>
      <trkpt lat="48.73696" lon="2.55291">
        <ele>95</ele>
        <time>2024-01-22T13:26:20.795+00:00</time>
      </trkpt>
      <trkpt lat="48.73691" lon="2.55291">
        <ele>95</ele>
        <time>2024-01-22T13:26:24.691+00:00</time>
      </trkpt>
      <trkpt lat="48.73687" lon="2.55287">
        <ele>95</ele>
        <time>2024-01-22T13:26:29.199+00:00</time>
      </trkpt>
      <trkpt lat="48.73683" lon="2.55281">
        <ele>95</ele>
        <time>2024-01-22T13:26:33.042+00:00</time>
      </trkpt>
      <trkpt lat="48.73682" lon="2.55271">
        <ele>95</ele>
        <time>2024-01-22T13:26:37.526+00:00</time>
      </trkpt>
      <trkpt lat="48.73683" lon="2.5526">
        <ele>95</ele>
        <time>2024-01-22T13:26:42.129+00:00</time>
      </trkpt>
      <trkpt lat="48.73682" lon="2.55251">
        <ele>95</ele>
        <time>2024-01-22T13:26:46.674+00:00</time>
      </trkpt>
      <trkpt lat="48.73675" lon="2.55245">
        <ele>94</ele>
        <time>2024-01-22T13:26:50.859+00:00</time>
      </trkpt>
      <trkpt lat="48.73668" lon="2.5524">
        <ele>94</ele>
        <time>2024-01-22T13:26:54.788+00:00</time>
      </trkpt>
      <trkpt lat="48.73663" lon="2.55234">
        <ele>92</ele>
        <time>2024-01-22T13:26:59.455+00:00</time>
      </trkpt>
      <trkpt lat="48.73657" lon="2.55226">
        <ele>92</ele>
        <time>2024-01-22T13:27:03.982+00:00</time>
      </trkpt>
      <trkpt lat="48.73653" lon="2.5522">
        <ele>92</ele>
        <time>2024-01-22T13:27:08.407+00:00</time>
      </trkpt>
      <trkpt lat="48.73647" lon="2.55213">
        <ele>92</ele>
        <time>2024-01-22T13:27:13.071+00:00</time>
      </trkpt>
      <trkpt lat="48.73642" lon="2.55207">
        <ele>91</ele>
        <time>2024-01-22T13:27:17.256+00:00</time>
      </trkpt>
      <trkpt lat="48.73637" lon="2.552">
        <ele>91</ele>
        <time>2024-01-22T13:27:21.425+00:00</time>
      </trkpt>
      <trkpt lat="48.73633" lon="2.55193">
        <ele>91</ele>
        <time>2024-01-22T13:27:25.507+00:00</time>
      </trkpt>
      <trkpt lat="48.73628" lon="2.55186">
        <ele>91</ele>
        <time>2024-01-22T13:27:30.204+00:00</time>
      </trkpt>
      <trkpt lat="48.73623" lon="2.55181">
        <ele>92</ele>
        <time>2024-01-22T13:27:34.716+00:00</time>
      </trkpt>
      <trkpt lat="48.73618" lon="2.55176">
        <ele>92</ele>
        <time>2024-01-22T13:27:38.664+00:00</time>
      </trkpt>
      <trkpt lat="48.73611" lon="2.55174">
        <ele>92</ele>
        <time>2024-01-22T13:27:43.285+00:00</time>
      </trkpt>
      <trkpt lat="48.73605" lon="2.5517">
        <ele>92</ele>
        <time>2024-01-22T13:27:47.754+00:00</time>
      </trkpt>
      <trkpt lat="48.73599" lon="2.55162">
        <ele>92</ele>
        <time>2024-01-22T13:27:52.299+00:00</time>
      </trkpt>
      <trkpt lat="48.73595" lon="2.55156">
        <ele>92</ele>
        <time>2024-01-22T13:27:56.247+00:00</time>
      </trkpt>
      <trkpt lat="48.7359" lon="2.55148">
        <ele>92</ele>
        <time>2024-01-22T13:28:00.913+00:00</time>
      </trkpt>
      <trkpt lat="48.73586" lon="2.5514">
        <ele>92</ele>
        <time>2024-01-22T13:28:04.743+00:00</time>
      </trkpt>
      <trkpt lat="48.73582" lon="2.55131">
        <ele>92</ele>
        <time>2024-01-22T13:28:09.416+00:00</time>
      </trkpt>
      <trkpt lat="48.73576" lon="2.55122">
        <ele>92</ele>
        <time>2024-01-22T13:28:13.348+00:00</time>
      </trkpt>
      <trkpt lat="48.73571" lon="2.55116">
        <ele>92</ele>
        <time>2024-01-22T13:28:17.414+00:00</time>
      </trkpt>
      <trkpt lat="48.73566" lon="2.55109">
        <ele>92</ele>
        <time>2024-01-22T13:28:21.461+00:00</time>
      </trkpt>
      <trkpt lat="48.73563" lon="2.55103">
        <ele>92</ele>
        <time>2024-01-22T13:28:26.020+00:00</time>
      </trkpt>
      <trkpt lat="48.73559" lon="2.55093">
        <ele>92</ele>
        <time>2024-01-22T13:28:30.664+00:00</time>
      </trkpt>
      <trkpt lat="48.73556" lon="2.55085">
        <ele>92</ele>
        <time>2024-01-22T13:28:34.737+00:00</time>
      </trkpt>
      <trkpt lat="48.7355" lon="2.55079">
        <ele>92</ele>
        <time>2024-01-22T13:28:39.162+00:00</time>
      </trkpt>
      <trkpt lat="48.73546" lon="2.55071">
        <ele>92</ele>
        <time>2024-01-22T13:28:43.646+00:00</time>
      </trkpt>
      <trkpt lat="48.73543" lon="2.55064">
        <ele>91</ele>
        <time>2024-01-22T13:28:48.125+00:00</time>
      </trkpt>
      <trkpt lat="48.73538" lon="2.55059">
        <ele>92</ele>
        <time>2024-01-22T13:28:52.603+00:00</time>
      </trkpt>
      <trkpt lat="48.73531" lon="2.55058">
        <ele>92</ele>
        <time>2024-01-22T13:28:57.074+00:00</time>
      </trkpt>
      <trkpt lat="48.73524" lon="2.55061">
        <ele>92</ele>
        <time>2024-01-22T13:29:01.497+00:00</time>
      </trkpt>
      <trkpt lat="48.7352" lon="2.55065">
        <ele>92</ele>
        <time>2024-01-22T13:29:05.801+00:00</time>
      </trkpt>
      <trkpt lat="48.73516" lon="2.5507">
        <ele>92</ele>
        <time>2024-01-22T13:29:10.281+00:00</time>
      </trkpt>
      <trkpt lat="48.7351" lon="2.55075">
        <ele>93</ele>
        <time>2024-01-22T13:29:14.893+00:00</time>
      </trkpt>
      <trkpt lat="48.73503" lon="2.5508">
        <ele>93</ele>
        <time>2024-01-22T13:29:19.437+00:00</time>
      </trkpt>
      <trkpt lat="48.73496" lon="2.55083">
        <ele>93</ele>
        <time>2024-01-22T13:29:23.958+00:00</time>
      </trkpt>
      <trkpt lat="48.7349" lon="2.55086">
        <ele>93</ele>
        <time>2024-01-22T13:29:28.406+00:00</time>
      </trkpt>
      <trkpt lat="48.73485" lon="2.55089">
        <ele>92</ele>
        <time>2024-01-22T13:29:32.472+00:00</time>
      </trkpt>
      <trkpt lat="48.7348" lon="2.55094">
        <ele>92</ele>
        <time>2024-01-22T13:29:36.656+00:00</time>
      </trkpt>
      <trkpt lat="48.73474" lon="2.551">
        <ele>92</ele>
        <time>2024-01-22T13:29:41.080+00:00</time>
      </trkpt>
      <trkpt lat="48.73469" lon="2.55104">
        <ele>92</ele>
        <time>2024-01-22T13:29:45.264+00:00</time>
      </trkpt>
      <trkpt lat="48.73464" lon="2.55111">
        <ele>92</ele>
        <time>2024-01-22T13:29:49.381+00:00</time>
      </trkpt>
      <trkpt lat="48.73458" lon="2.55115">
        <ele>92</ele>
        <time>2024-01-22T13:29:53.872+00:00</time>
      </trkpt>
      <trkpt lat="48.73452" lon="2.55119">
        <ele>92</ele>
        <time>2024-01-22T13:29:58.414+00:00</time>
      </trkpt>
      <trkpt lat="48.73448" lon="2.55127">
        <ele>91</ele>
        <time>2024-01-22T13:30:02.359+00:00</time>
      </trkpt>
      <trkpt lat="48.73442" lon="2.55131">
        <ele>91</ele>
        <time>2024-01-22T13:30:06.784+00:00</time>
      </trkpt>
      <trkpt lat="48.73437" lon="2.55132">
        <ele>91</ele>
        <time>2024-01-22T13:30:11.327+00:00</time>
      </trkpt>
      <trkpt lat="48.73432" lon="2.55133">
        <ele>91</ele>
        <time>2024-01-22T13:30:15.631+00:00</time>
      </trkpt>
      <trkpt lat="48.73425" lon="2.55135">
        <ele>91</ele>
        <time>2024-01-22T13:30:19.935+00:00</time>
      </trkpt>
      <trkpt lat="48.73421" lon="2.55134">
        <ele>91</ele>
        <time>2024-01-22T13:30:24+00:00</time>
      </trkpt>
      <trkpt lat="48.73415" lon="2.55132">
        <ele>91</ele>
        <time>2024-01-22T13:30:28.663+00:00</time>
      </trkpt>
      <trkpt lat="48.73408" lon="2.55128">
        <ele>91</ele>
        <time>2024-01-22T13:30:33.067+00:00</time>
      </trkpt>
      <trkpt lat="48.73403" lon="2.55127">
        <ele>91</ele>
        <time>2024-01-22T13:30:37.526+00:00</time>
      </trkpt>
      <trkpt lat="48.73397" lon="2.55123">
        <ele>91</ele>
        <time>2024-01-22T13:30:42.034+00:00</time>
      </trkpt>
      <trkpt lat="48.7339" lon="2.55118">
        <ele>91</ele>
        <time>2024-01-22T13:30:46.337+00:00</time>
      </trkpt>
      <trkpt lat="48.73385" lon="2.55112">
        <ele>91</ele>
        <time>2024-01-22T13:30:50.400+00:00</time>
      </trkpt>
      <trkpt lat="48.73378" lon="2.55108">
        <ele>91</ele>
        <time>2024-01-22T13:30:54.464+00:00</time>
      </trkpt>
      <trkpt lat="48.73374" lon="2.55103">
        <ele>90</ele>
        <time>2024-01-22T13:30:58.409+00:00</time>
      </trkpt>
      <trkpt lat="48.73369" lon="2.55102">
        <ele>90</ele>
        <time>2024-01-22T13:31:02.952+00:00</time>
      </trkpt>
      <trkpt lat="48.73364" lon="2.551">
        <ele>90</ele>
        <time>2024-01-22T13:31:07.494+00:00</time>
      </trkpt>
      <trkpt lat="48.73357" lon="2.55095">
        <ele>90</ele>
        <time>2024-01-22T13:31:12.223+00:00</time>
      </trkpt>
      <trkpt lat="48.73351" lon="2.55087">
        <ele>90</ele>
        <time>2024-01-22T13:31:16.679+00:00</time>
      </trkpt>
      <trkpt lat="48.73346" lon="2.55082">
        <ele>90</ele>
        <time>2024-01-22T13:31:20.743+00:00</time>
      </trkpt>
      <trkpt lat="48.73341" lon="2.55077">
        <ele>90</ele>
        <time>2024-01-22T13:31:25.285+00:00</time>
      </trkpt>
      <trkpt lat="48.73335" lon="2.55072">
        <ele>90</ele>
        <time>2024-01-22T13:31:29.708+00:00</time>
      </trkpt>
      <trkpt lat="48.73329" lon="2.55067">
        <ele>90</ele>
        <time>2024-01-22T13:31:33.891+00:00</time>
      </trkpt>
      <trkpt lat="48.73323" lon="2.5506">
        <ele>90</ele>
        <time>2024-01-22T13:31:38.433+00:00</time>
      </trkpt>
      <trkpt lat="48.73319" lon="2.55053">
        <ele>90</ele>
        <time>2024-01-22T13:31:42.975+00:00</time>
      </trkpt>
      <trkpt lat="48.73315" lon="2.55048">
        <ele>90</ele>
        <time>2024-01-22T13:31:47.517+00:00</time>
      </trkpt>
      <trkpt lat="48.7331" lon="2.55045">
        <ele>90</ele>
        <time>2024-01-22T13:31:51.526+00:00</time>
      </trkpt>
      <trkpt lat="48.73306" lon="2.55042">
        <ele>90</ele>
        <time>2024-01-22T13:31:55.917+00:00</time>
      </trkpt>
      <trkpt lat="48.73301" lon="2.55039">
        <ele>90</ele>
        <time>2024-01-22T13:32:00.039+00:00</time>
      </trkpt>
      <trkpt lat="48.73295" lon="2.55042">
        <ele>90</ele>
        <time>2024-01-22T13:32:04.010+00:00</time>
      </trkpt>
      <trkpt lat="48.73289" lon="2.55045">
        <ele>90</ele>
        <time>2024-01-22T13:32:08.436+00:00</time>
      </trkpt>
      <trkpt lat="48.73284" lon="2.55045">
        <ele>90</ele>
        <time>2024-01-22T13:32:12.526+00:00</time>
      </trkpt>
      <trkpt lat="48.73278" lon="2.55044">
        <ele>90</ele>
        <time>2024-01-22T13:33:05.821+00:00</time>
      </trkpt>
      <trkpt lat="48.73278" lon="2.55045">
        <ele>90</ele>
        <time>2024-01-22T13:33:09.828+00:00</time>
      </trkpt>
      <trkpt lat="48.73278" lon="2.55045">
        <ele>90</ele>
        <time>2024-01-22T13:33:14.337+00:00</time>
      </trkpt>
      <trkpt lat="48.73277" lon="2.55045">
        <ele>90</ele>
        <time>2024-01-22T13:33:18.845+00:00</time>
      </trkpt>
      <trkpt lat="48.73272" lon="2.55045">
        <ele>90</ele>
        <time>2024-01-22T13:33:22.855+00:00</time>
      </trkpt>
      <trkpt lat="48.73273" lon="2.55044">
        <ele>90</ele>
        <time>2024-01-22T13:33:53.236+00:00</time>
      </trkpt>
      <trkpt lat="48.73267" lon="2.55046">
        <ele>90</ele>
        <time>2024-01-22T13:33:58.231+00:00</time>
      </trkpt>
      <trkpt lat="48.73264" lon="2.55051">
        <ele>90</ele>
        <time>2024-01-22T13:34:02.247+00:00</time>
      </trkpt>
      <trkpt lat="48.73259" lon="2.55054">
        <ele>88</ele>
        <time>2024-01-22T13:34:06.436+00:00</time>
      </trkpt>
      <trkpt lat="48.73253" lon="2.55053">
        <ele>88</ele>
        <time>2024-01-22T13:34:10.543+00:00</time>
      </trkpt>
      <trkpt lat="48.73249" lon="2.55054">
        <ele>88</ele>
        <time>2024-01-22T13:34:14.420+00:00</time>
      </trkpt>
      <trkpt lat="48.73243" lon="2.55051">
        <ele>88</ele>
        <time>2024-01-22T13:34:18.973+00:00</time>
      </trkpt>
      <trkpt lat="48.73235" lon="2.5505">
        <ele>86</ele>
        <time>2024-01-22T13:34:23.645+00:00</time>
      </trkpt>
      <trkpt lat="48.73231" lon="2.55052">
        <ele>86</ele>
        <time>2024-01-22T13:34:27.906+00:00</time>
      </trkpt>
      <trkpt lat="48.7323" lon="2.55056">
        <ele>86</ele>
        <time>2024-01-22T13:34:32.918+00:00</time>
      </trkpt>
      <trkpt lat="48.73227" lon="2.55057">
        <ele>86</ele>
        <time>2024-01-22T13:34:36.927+00:00</time>
      </trkpt>
      <trkpt lat="48.73221" lon="2.55058">
        <ele>86</ele>
        <time>2024-01-22T13:34:40.936+00:00</time>
      </trkpt>
      <trkpt lat="48.73215" lon="2.55058">
        <ele>86</ele>
        <time>2024-01-22T13:34:44.944+00:00</time>
      </trkpt>
      <trkpt lat="48.73207" lon="2.55055">
        <ele>85</ele>
        <time>2024-01-22T13:34:49.976+00:00</time>
      </trkpt>
      <trkpt lat="48.73202" lon="2.55057">
        <ele>85</ele>
        <time>2024-01-22T13:34:54.086+00:00</time>
      </trkpt>
      <trkpt lat="48.73194" lon="2.55061">
        <ele>85</ele>
        <time>2024-01-22T13:34:58.196+00:00</time>
      </trkpt>
      <trkpt lat="48.73186" lon="2.5506">
        <ele>85</ele>
        <time>2024-01-22T13:35:02.207+00:00</time>
      </trkpt>
      <trkpt lat="48.73184" lon="2.55062">
        <ele>85</ele>
        <time>2024-01-22T13:35:04.210+00:00</time>
      </trkpt>
      <trkpt lat="48.73183" lon="2.55083">
        <ele>84</ele>
        <time>2024-01-22T13:35:12.437+00:00</time>
      </trkpt>
      <trkpt lat="48.7318" lon="2.55091">
        <ele>81</ele>
        <time>2024-01-22T13:35:16.440+00:00</time>
      </trkpt>
      <trkpt lat="48.7318" lon="2.55102">
        <ele>81</ele>
        <time>2024-01-22T13:35:21.258+00:00</time>
      </trkpt>
      <trkpt lat="48.7318" lon="2.55111">
        <ele>81</ele>
        <time>2024-01-22T13:35:25.814+00:00</time>
      </trkpt>
      <trkpt lat="48.73179" lon="2.55119">
        <ele>81</ele>
        <time>2024-01-22T13:35:29.770+00:00</time>
      </trkpt>
      <trkpt lat="48.73177" lon="2.55128">
        <ele>81</ele>
        <time>2024-01-22T13:35:33.845+00:00</time>
      </trkpt>
      <trkpt lat="48.73176" lon="2.55135">
        <ele>81</ele>
        <time>2024-01-22T13:35:38.040+00:00</time>
      </trkpt>
      <trkpt lat="48.73176" lon="2.55144">
        <ele>81</ele>
        <time>2024-01-22T13:35:42.112+00:00</time>
      </trkpt>
      <trkpt lat="48.73176" lon="2.55153">
        <ele>80</ele>
        <time>2024-01-22T13:35:46.064+00:00</time>
      </trkpt>
      <trkpt lat="48.73175" lon="2.55162">
        <ele>80</ele>
        <time>2024-01-22T13:35:50.526+00:00</time>
      </trkpt>
      <trkpt lat="48.73174" lon="2.55171">
        <ele>80</ele>
        <time>2024-01-22T13:35:55.054+00:00</time>
      </trkpt>
      <trkpt lat="48.73172" lon="2.55178">
        <ele>80</ele>
        <time>2024-01-22T13:35:59.250+00:00</time>
      </trkpt>
      <trkpt lat="48.73169" lon="2.55186">
        <ele>80</ele>
        <time>2024-01-22T13:36:03.907+00:00</time>
      </trkpt>
      <trkpt lat="48.73167" lon="2.55193">
        <ele>80</ele>
        <time>2024-01-22T13:36:08.442+00:00</time>
      </trkpt>
      <trkpt lat="48.73164" lon="2.55201">
        <ele>80</ele>
        <time>2024-01-22T13:36:13.233+00:00</time>
      </trkpt>
      <trkpt lat="48.7316" lon="2.5521">
        <ele>80</ele>
        <time>2024-01-22T13:36:17.988+00:00</time>
      </trkpt>
      <trkpt lat="48.73158" lon="2.55211">
        <ele>80</ele>
        <time>2024-01-22T13:36:22.506+00:00</time>
      </trkpt>
      <trkpt lat="48.73152" lon="2.55214">
        <ele>76</ele>
        <time>2024-01-22T13:36:26.463+00:00</time>
      </trkpt>
      <trkpt lat="48.73145" lon="2.55212">
        <ele>76</ele>
        <time>2024-01-22T13:36:31.017+00:00</time>
      </trkpt>
      <trkpt lat="48.73139" lon="2.55213">
        <ele>76</ele>
        <time>2024-01-22T13:36:35.526+00:00</time>
      </trkpt>
      <trkpt lat="48.73134" lon="2.55215">
        <ele>76</ele>
        <time>2024-01-22T13:36:39.982+00:00</time>
      </trkpt>
      <trkpt lat="48.73129" lon="2.55217">
        <ele>76</ele>
        <time>2024-01-22T13:36:44.052+00:00</time>
      </trkpt>
      <trkpt lat="48.73124" lon="2.55221">
        <ele>73</ele>
        <time>2024-01-22T13:36:48.235+00:00</time>
      </trkpt>
      <trkpt lat="48.7312" lon="2.55225">
        <ele>73</ele>
        <time>2024-01-22T13:36:52.073+00:00</time>
      </trkpt>
      <trkpt lat="48.73113" lon="2.55227">
        <ele>73</ele>
        <time>2024-01-22T13:36:56.674+00:00</time>
      </trkpt>
      <trkpt lat="48.73107" lon="2.55228">
        <ele>73</ele>
        <time>2024-01-22T13:37:01.055+00:00</time>
      </trkpt>
      <trkpt lat="48.73102" lon="2.55228">
        <ele>73</ele>
        <time>2024-01-22T13:37:05.009+00:00</time>
      </trkpt>
      <trkpt lat="48.73099" lon="2.55227">
        <ele>73</ele>
        <time>2024-01-22T13:37:09.279+00:00</time>
      </trkpt>
      <trkpt lat="48.73097" lon="2.55221">
        <ele>70</ele>
        <time>2024-01-22T13:37:13.747+00:00</time>
      </trkpt>
      <trkpt lat="48.73094" lon="2.55215">
        <ele>70</ele>
        <time>2024-01-22T13:37:18.241+00:00</time>
      </trkpt>
      <trkpt lat="48.7309" lon="2.55208">
        <ele>70</ele>
        <time>2024-01-22T13:37:22.738+00:00</time>
      </trkpt>
      <trkpt lat="48.73085" lon="2.55206">
        <ele>71</ele>
        <time>2024-01-22T13:37:27.248+00:00</time>
      </trkpt>
      <trkpt lat="48.73081" lon="2.55203">
        <ele>71</ele>
        <time>2024-01-22T13:37:31.630+00:00</time>
      </trkpt>
      <trkpt lat="48.73077" lon="2.55201">
        <ele>71</ele>
        <time>2024-01-22T13:37:35.526+00:00</time>
      </trkpt>
      <trkpt lat="48.73073" lon="2.55196">
        <ele>71</ele>
        <time>2024-01-22T13:37:40.042+00:00</time>
      </trkpt>
      <trkpt lat="48.73072" lon="2.5519">
        <ele>71</ele>
        <time>2024-01-22T13:37:44.114+00:00</time>
      </trkpt>
      <trkpt lat="48.73073" lon="2.55183">
        <ele>71</ele>
        <time>2024-01-22T13:37:48.664+00:00</time>
      </trkpt>
      <trkpt lat="48.73072" lon="2.55174">
        <ele>72</ele>
        <time>2024-01-22T13:37:53.254+00:00</time>
      </trkpt>
      <trkpt lat="48.7307" lon="2.55167">
        <ele>72</ele>
        <time>2024-01-22T13:37:57.254+00:00</time>
      </trkpt>
      <trkpt lat="48.73069" lon="2.5516">
        <ele>68</ele>
        <time>2024-01-22T13:38:01.227+00:00</time>
      </trkpt>
      <trkpt lat="48.7307" lon="2.5515">
        <ele>71</ele>
        <time>2024-01-22T13:38:06.132+00:00</time>
      </trkpt>
      <trkpt lat="48.73063" lon="2.55132">
        <ele>67</ele>
        <time>2024-01-22T13:38:10.684+00:00</time>
      </trkpt>
      <trkpt lat="48.7306" lon="2.55121">
        <ele>66</ele>
        <time>2024-01-22T13:38:15.234+00:00</time>
      </trkpt>
      <trkpt lat="48.73058" lon="2.55115">
        <ele>66</ele>
        <time>2024-01-22T13:38:17.590+00:00</time>
      </trkpt>
      <trkpt lat="48.73054" lon="2.55094">
        <ele>66</ele>
        <time>2024-01-22T13:38:26.897+00:00</time>
      </trkpt>
      <trkpt lat="48.73053" lon="2.55086">
        <ele>66</ele>
        <time>2024-01-22T13:38:30.953+00:00</time>
      </trkpt>
      <trkpt lat="48.73052" lon="2.55079">
        <ele>66</ele>
        <time>2024-01-22T13:38:35.006+00:00</time>
      </trkpt>
      <trkpt lat="48.73049" lon="2.55072">
        <ele>66</ele>
        <time>2024-01-22T13:38:38.843+00:00</time>
      </trkpt>
      <trkpt lat="48.73043" lon="2.55062">
        <ele>65</ele>
        <time>2024-01-22T13:38:43.518+00:00</time>
      </trkpt>
      <trkpt lat="48.7304" lon="2.55056">
        <ele>62</ele>
        <time>2024-01-22T13:38:47.873+00:00</time>
      </trkpt>
      <trkpt lat="48.73038" lon="2.55051">
        <ele>62</ele>
        <time>2024-01-22T13:38:51.967+00:00</time>
      </trkpt>
      <trkpt lat="48.73035" lon="2.55043">
        <ele>62</ele>
        <time>2024-01-22T13:38:56.400+00:00</time>
      </trkpt>
      <trkpt lat="48.73033" lon="2.55036">
        <ele>64</ele>
        <time>2024-01-22T13:39:00.832+00:00</time>
      </trkpt>
      <trkpt lat="48.73033" lon="2.55029">
        <ele>64</ele>
        <time>2024-01-22T13:39:04.786+00:00</time>
      </trkpt>
      <trkpt lat="48.73029" lon="2.55021">
        <ele>64</ele>
        <time>2024-01-22T13:39:08.857+00:00</time>
      </trkpt>
      <trkpt lat="48.73024" lon="2.55012">
        <ele>66</ele>
        <time>2024-01-22T13:39:14.008+00:00</time>
      </trkpt>
      <trkpt lat="48.73022" lon="2.55004">
        <ele>66</ele>
        <time>2024-01-22T13:39:18.276+00:00</time>
      </trkpt>
      <trkpt lat="48.73017" lon="2.54995">
        <ele>66</ele>
        <time>2024-01-22T13:39:22.846+00:00</time>
      </trkpt>
      <trkpt lat="48.73015" lon="2.54989">
        <ele>66</ele>
        <time>2024-01-22T13:39:26.777+00:00</time>
      </trkpt>
      <trkpt lat="48.73013" lon="2.54981">
        <ele>64</ele>
        <time>2024-01-22T13:39:31.447+00:00</time>
      </trkpt>
      <trkpt lat="48.7301" lon="2.54974">
        <ele>64</ele>
        <time>2024-01-22T13:39:35.638+00:00</time>
      </trkpt>
      <trkpt lat="48.73007" lon="2.5497">
        <ele>64</ele>
        <time>2024-01-22T13:39:40.266+00:00</time>
      </trkpt>
      <trkpt lat="48.73003" lon="2.54967">
        <ele>64</ele>
        <time>2024-01-22T13:39:45.250+00:00</time>
      </trkpt>
      <trkpt lat="48.72999" lon="2.54962">
        <ele>64</ele>
        <time>2024-01-22T13:39:49.757+00:00</time>
      </trkpt>
      <trkpt lat="48.72996" lon="2.54955">
        <ele>65</ele>
        <time>2024-01-22T13:39:54.424+00:00</time>
      </trkpt>
      <trkpt lat="48.72992" lon="2.54948">
        <ele>65</ele>
        <time>2024-01-22T13:39:58.971+00:00</time>
      </trkpt>
      <trkpt lat="48.72988" lon="2.54941">
        <ele>65</ele>
        <time>2024-01-22T13:40:03.399+00:00</time>
      </trkpt>
      <trkpt lat="48.72985" lon="2.54935">
        <ele>62</ele>
        <time>2024-01-22T13:40:07.826+00:00</time>
      </trkpt>
      <trkpt lat="48.72982" lon="2.54929">
        <ele>62</ele>
        <time>2024-01-22T13:40:11.774+00:00</time>
      </trkpt>
      <trkpt lat="48.7298" lon="2.5492">
        <ele>62</ele>
        <time>2024-01-22T13:40:16.592+00:00</time>
      </trkpt>
      <trkpt lat="48.72979" lon="2.54913">
        <ele>62</ele>
        <time>2024-01-22T13:40:20.526+00:00</time>
      </trkpt>
      <trkpt lat="48.72978" lon="2.54905">
        <ele>62</ele>
        <time>2024-01-22T13:40:25.273+00:00</time>
      </trkpt>
      <trkpt lat="48.72977" lon="2.54897">
        <ele>63</ele>
        <time>2024-01-22T13:40:29.101+00:00</time>
      </trkpt>
      <trkpt lat="48.72973" lon="2.54883">
        <ele>63</ele>
        <time>2024-01-22T13:40:33.648+00:00</time>
      </trkpt>
      <trkpt lat="48.72967" lon="2.54872">
        <ele>64</ele>
        <time>2024-01-22T13:40:38.238+00:00</time>
      </trkpt>
      <trkpt lat="48.72964" lon="2.54865">
        <ele>64</ele>
        <time>2024-01-22T13:40:41.138+00:00</time>
      </trkpt>
      <trkpt lat="48.72958" lon="2.54847">
        <ele>61</ele>
        <time>2024-01-22T13:40:50.168+00:00</time>
      </trkpt>
      <trkpt lat="48.72953" lon="2.54837">
        <ele>61</ele>
        <time>2024-01-22T13:40:54.674+00:00</time>
      </trkpt>
      <trkpt lat="48.72948" lon="2.54829">
        <ele>61</ele>
        <time>2024-01-22T13:40:58.778+00:00</time>
      </trkpt>
      <trkpt lat="48.72946" lon="2.54821">
        <ele>61</ele>
        <time>2024-01-22T13:41:02.781+00:00</time>
      </trkpt>
      <trkpt lat="48.72945" lon="2.54813">
        <ele>60</ele>
        <time>2024-01-22T13:41:07.289+00:00</time>
      </trkpt>
      <trkpt lat="48.72944" lon="2.54808">
        <ele>60</ele>
        <time>2024-01-22T13:41:11.295+00:00</time>
      </trkpt>
      <trkpt lat="48.72943" lon="2.548">
        <ele>60</ele>
        <time>2024-01-22T13:41:15.298+00:00</time>
      </trkpt>
      <trkpt lat="48.72944" lon="2.5479">
        <ele>60</ele>
        <time>2024-01-22T13:41:19.500+00:00</time>
      </trkpt>
      <trkpt lat="48.72944" lon="2.54779">
        <ele>60</ele>
        <time>2024-01-22T13:41:23.562+00:00</time>
      </trkpt>
      <trkpt lat="48.72944" lon="2.54769">
        <ele>60</ele>
        <time>2024-01-22T13:41:28.402+00:00</time>
      </trkpt>
      <trkpt lat="48.72944" lon="2.54761">
        <ele>60</ele>
        <time>2024-01-22T13:41:32.743+00:00</time>
      </trkpt>
      <trkpt lat="48.72944" lon="2.54752">
        <ele>60</ele>
        <time>2024-01-22T13:41:36.823+00:00</time>
      </trkpt>
      <trkpt lat="48.72944" lon="2.54743">
        <ele>60</ele>
        <time>2024-01-22T13:41:41.326+00:00</time>
      </trkpt>
      <trkpt lat="48.72943" lon="2.54735">
        <ele>61</ele>
        <time>2024-01-22T13:41:45.848+00:00</time>
      </trkpt>
      <trkpt lat="48.72943" lon="2.54728">
        <ele>61</ele>
        <time>2024-01-22T13:41:50.134+00:00</time>
      </trkpt>
      <trkpt lat="48.72942" lon="2.5472">
        <ele>61</ele>
        <time>2024-01-22T13:41:54.151+00:00</time>
      </trkpt>
      <trkpt lat="48.72941" lon="2.5471">
        <ele>61</ele>
        <time>2024-01-22T13:41:58.825+00:00</time>
      </trkpt>
      <trkpt lat="48.7294" lon="2.547">
        <ele>62</ele>
        <time>2024-01-22T13:42:03.064+00:00</time>
      </trkpt>
      <trkpt lat="48.72938" lon="2.54692">
        <ele>62</ele>
        <time>2024-01-22T13:42:07.242+00:00</time>
      </trkpt>
      <trkpt lat="48.72936" lon="2.54683">
        <ele>62</ele>
        <time>2024-01-22T13:42:11.589+00:00</time>
      </trkpt>
      <trkpt lat="48.72934" lon="2.54674">
        <ele>63</ele>
        <time>2024-01-22T13:42:16.239+00:00</time>
      </trkpt>
      <trkpt lat="48.72933" lon="2.54666">
        <ele>63</ele>
        <time>2024-01-22T13:42:20.256+00:00</time>
      </trkpt>
      <trkpt lat="48.72932" lon="2.54662">
        <ele>63</ele>
        <time>2024-01-22T13:42:24.832+00:00</time>
      </trkpt>
      <trkpt lat="48.72935" lon="2.54664">
        <ele>63</ele>
        <time>2024-01-22T13:43:11.257+00:00</time>
      </trkpt>
      <trkpt lat="48.72934" lon="2.54661">
        <ele>63</ele>
        <time>2024-01-22T13:43:16.251+00:00</time>
      </trkpt>
      <trkpt lat="48.72934" lon="2.5466">
        <ele>63</ele>
        <time>2024-01-22T13:43:20.043+00:00</time>
      </trkpt>
      <trkpt lat="48.72933" lon="2.54653">
        <ele>63</ele>
        <time>2024-01-22T13:43:24.526+00:00</time>
      </trkpt>
      <trkpt lat="48.72935" lon="2.54645">
        <ele>63</ele>
        <time>2024-01-22T13:43:29.105+00:00</time>
      </trkpt>
      <trkpt lat="48.72934" lon="2.54637">
        <ele>63</ele>
        <time>2024-01-22T13:43:33.055+00:00</time>
      </trkpt>
      <trkpt lat="48.72932" lon="2.5463">
        <ele>63</ele>
        <time>2024-01-22T13:43:38.083+00:00</time>
      </trkpt>
      <trkpt lat="48.72929" lon="2.54626">
        <ele>60</ele>
        <time>2024-01-22T13:43:42.234+00:00</time>
      </trkpt>
      <trkpt lat="48.72926" lon="2.54621">
        <ele>59</ele>
        <time>2024-01-22T13:43:46.104+00:00</time>
      </trkpt>
      <trkpt lat="48.72922" lon="2.54615">
        <ele>59</ele>
        <time>2024-01-22T13:43:51.074+00:00</time>
      </trkpt>
      <trkpt lat="48.72917" lon="2.5461">
        <ele>59</ele>
        <time>2024-01-22T13:43:55.082+00:00</time>
      </trkpt>
      <trkpt lat="48.72915" lon="2.54604">
        <ele>59</ele>
        <time>2024-01-22T13:43:58.913+00:00</time>
      </trkpt>
      <trkpt lat="48.72912" lon="2.54595">
        <ele>60</ele>
        <time>2024-01-22T13:44:02.982+00:00</time>
      </trkpt>
      <trkpt lat="48.72908" lon="2.5459">
        <ele>60</ele>
        <time>2024-01-22T13:44:07.409+00:00</time>
      </trkpt>
      <trkpt lat="48.72904" lon="2.54586">
        <ele>60</ele>
        <time>2024-01-22T13:44:11.852+00:00</time>
      </trkpt>
      <trkpt lat="48.72899" lon="2.54583">
        <ele>57</ele>
        <time>2024-01-22T13:44:15.993+00:00</time>
      </trkpt>
      <trkpt lat="48.72894" lon="2.5458">
        <ele>57</ele>
        <time>2024-01-22T13:44:19.981+00:00</time>
      </trkpt>
      <trkpt lat="48.72888" lon="2.54577">
        <ele>57</ele>
        <time>2024-01-22T13:44:24.288+00:00</time>
      </trkpt>
      <trkpt lat="48.72884" lon="2.54573">
        <ele>57</ele>
        <time>2024-01-22T13:44:28.955+00:00</time>
      </trkpt>
      <trkpt lat="48.7288" lon="2.5457">
        <ele>57</ele>
        <time>2024-01-22T13:44:33.344+00:00</time>
      </trkpt>
      <trkpt lat="48.72875" lon="2.54568">
        <ele>58</ele>
        <time>2024-01-22T13:44:37.975+00:00</time>
      </trkpt>
      <trkpt lat="48.72869" lon="2.54566">
        <ele>58</ele>
        <time>2024-01-22T13:44:42.082+00:00</time>
      </trkpt>
      <trkpt lat="48.72863" lon="2.54564">
        <ele>58</ele>
        <time>2024-01-22T13:44:46.033+00:00</time>
      </trkpt>
      <trkpt lat="48.72857" lon="2.54565">
        <ele>58</ele>
        <time>2024-01-22T13:44:50.582+00:00</time>
      </trkpt>
      <trkpt lat="48.72852" lon="2.54566">
        <ele>58</ele>
        <time>2024-01-22T13:44:54.653+00:00</time>
      </trkpt>
      <trkpt lat="48.72847" lon="2.54568">
        <ele>58</ele>
        <time>2024-01-22T13:44:58.722+00:00</time>
      </trkpt>
      <trkpt lat="48.72841" lon="2.54569">
        <ele>58</ele>
        <time>2024-01-22T13:45:02.670+00:00</time>
      </trkpt>
      <trkpt lat="48.72836" lon="2.5457">
        <ele>57</ele>
        <time>2024-01-22T13:45:06.859+00:00</time>
      </trkpt>
      <trkpt lat="48.72831" lon="2.54569">
        <ele>58</ele>
        <time>2024-01-22T13:45:10.927+00:00</time>
      </trkpt>
      <trkpt lat="48.72827" lon="2.54568">
        <ele>58</ele>
        <time>2024-01-22T13:45:14.996+00:00</time>
      </trkpt>
      <trkpt lat="48.72823" lon="2.54564">
        <ele>58</ele>
        <time>2024-01-22T13:45:19.526+00:00</time>
      </trkpt>
      <trkpt lat="48.72817" lon="2.54559">
        <ele>59</ele>
        <time>2024-01-22T13:45:24.028+00:00</time>
      </trkpt>
      <trkpt lat="48.72812" lon="2.54555">
        <ele>59</ele>
        <time>2024-01-22T13:45:28.036+00:00</time>
      </trkpt>
      <trkpt lat="48.72806" lon="2.54551">
        <ele>59</ele>
        <time>2024-01-22T13:45:32.647+00:00</time>
      </trkpt>
      <trkpt lat="48.728" lon="2.54548">
        <ele>59</ele>
        <time>2024-01-22T13:45:36.840+00:00</time>
      </trkpt>
      <trkpt lat="48.72788" lon="2.5454">
        <ele>60</ele>
        <time>2024-01-22T13:45:45.455+00:00</time>
      </trkpt>
      <trkpt lat="48.72782" lon="2.54538">
        <ele>60</ele>
        <time>2024-01-22T13:45:49.773+00:00</time>
      </trkpt>
      <trkpt lat="48.72777" lon="2.5454">
        <ele>60</ele>
        <time>2024-01-22T13:45:54.251+00:00</time>
      </trkpt>
      <trkpt lat="48.72773" lon="2.54538">
        <ele>60</ele>
        <time>2024-01-22T13:45:58.701+00:00</time>
      </trkpt>
      <trkpt lat="48.72768" lon="2.54537">
        <ele>60</ele>
        <time>2024-01-22T13:46:02.655+00:00</time>
      </trkpt>
      <trkpt lat="48.72762" lon="2.54537">
        <ele>61</ele>
        <time>2024-01-22T13:46:06.728+00:00</time>
      </trkpt>
      <trkpt lat="48.72757" lon="2.5454">
        <ele>61</ele>
        <time>2024-01-22T13:46:10.681+00:00</time>
      </trkpt>
      <trkpt lat="48.72751" lon="2.54541">
        <ele>61</ele>
        <time>2024-01-22T13:46:14.696+00:00</time>
      </trkpt>
      <trkpt lat="48.72743" lon="2.5454">
        <ele>61</ele>
        <time>2024-01-22T13:46:19.128+00:00</time>
      </trkpt>
      <trkpt lat="48.72737" lon="2.54537">
        <ele>61</ele>
        <time>2024-01-22T13:46:23.081+00:00</time>
      </trkpt>
      <trkpt lat="48.7273" lon="2.54537">
        <ele>61</ele>
        <time>2024-01-22T13:46:27.631+00:00</time>
      </trkpt>
      <trkpt lat="48.72725" lon="2.54541">
        <ele>61</ele>
        <time>2024-01-22T13:46:31.463+00:00</time>
      </trkpt>
      <trkpt lat="48.7272" lon="2.54545">
        <ele>60</ele>
        <time>2024-01-22T13:46:36.038+00:00</time>
      </trkpt>
      <trkpt lat="48.72715" lon="2.54546">
        <ele>60</ele>
        <time>2024-01-22T13:46:40.076+00:00</time>
      </trkpt>
      <trkpt lat="48.72709" lon="2.54545">
        <ele>60</ele>
        <time>2024-01-22T13:46:43.906+00:00</time>
      </trkpt>
      <trkpt lat="48.72703" lon="2.54544">
        <ele>59</ele>
        <time>2024-01-22T13:46:48.335+00:00</time>
      </trkpt>
      <trkpt lat="48.72697" lon="2.54542">
        <ele>59</ele>
        <time>2024-01-22T13:46:52.762+00:00</time>
      </trkpt>
      <trkpt lat="48.7269" lon="2.54539">
        <ele>59</ele>
        <time>2024-01-22T13:46:56.712+00:00</time>
      </trkpt>
      <trkpt lat="48.72684" lon="2.54536">
        <ele>59</ele>
        <time>2024-01-22T13:47:01.214+00:00</time>
      </trkpt>
      <trkpt lat="48.72678" lon="2.54531">
        <ele>58</ele>
        <time>2024-01-22T13:47:06.073+00:00</time>
      </trkpt>
      <trkpt lat="48.72674" lon="2.54526">
        <ele>58</ele>
        <time>2024-01-22T13:47:09.641+00:00</time>
      </trkpt>
      <trkpt lat="48.7267" lon="2.5452">
        <ele>58</ele>
        <time>2024-01-22T13:47:13.830+00:00</time>
      </trkpt>
      <trkpt lat="48.72667" lon="2.54512">
        <ele>58</ele>
        <time>2024-01-22T13:47:17.779+00:00</time>
      </trkpt>
      <trkpt lat="48.72664" lon="2.54504">
        <ele>58</ele>
        <time>2024-01-22T13:47:22.209+00:00</time>
      </trkpt>
      <trkpt lat="48.7266" lon="2.54498">
        <ele>58</ele>
        <time>2024-01-22T13:47:26.739+00:00</time>
      </trkpt>
      <trkpt lat="48.72658" lon="2.54491">
        <ele>58</ele>
        <time>2024-01-22T13:47:31.282+00:00</time>
      </trkpt>
      <trkpt lat="48.72655" lon="2.54484">
        <ele>60</ele>
        <time>2024-01-22T13:47:35.439+00:00</time>
      </trkpt>
      <trkpt lat="48.72652" lon="2.54479">
        <ele>59</ele>
        <time>2024-01-22T13:47:39.389+00:00</time>
      </trkpt>
      <trkpt lat="48.7265" lon="2.54474">
        <ele>59</ele>
        <time>2024-01-22T13:47:43.340+00:00</time>
      </trkpt>
      <trkpt lat="48.72647" lon="2.54468">
        <ele>59</ele>
        <time>2024-01-22T13:47:47.869+00:00</time>
      </trkpt>
      <trkpt lat="48.72644" lon="2.54464">
        <ele>59</ele>
        <time>2024-01-22T13:47:52.032+00:00</time>
      </trkpt>
      <trkpt lat="48.7264" lon="2.54458">
        <ele>60</ele>
        <time>2024-01-22T13:47:55.771+00:00</time>
      </trkpt>
      <trkpt lat="48.72635" lon="2.5445">
        <ele>60</ele>
        <time>2024-01-22T13:48:00.270+00:00</time>
      </trkpt>
      <trkpt lat="48.72631" lon="2.54444">
        <ele>60</ele>
        <time>2024-01-22T13:48:04.656+00:00</time>
      </trkpt>
      <trkpt lat="48.72625" lon="2.5444">
        <ele>60</ele>
        <time>2024-01-22T13:48:08.526+00:00</time>
      </trkpt>
      <trkpt lat="48.7262" lon="2.54436">
        <ele>59</ele>
        <time>2024-01-22T13:48:13.241+00:00</time>
      </trkpt>
      <trkpt lat="48.72616" lon="2.54429">
        <ele>60</ele>
        <time>2024-01-22T13:48:17.445+00:00</time>
      </trkpt>
      <trkpt lat="48.72614" lon="2.54422">
        <ele>60</ele>
        <time>2024-01-22T13:48:21.395+00:00</time>
      </trkpt>
      <trkpt lat="48.7261" lon="2.54415">
        <ele>60</ele>
        <time>2024-01-22T13:48:25.345+00:00</time>
      </trkpt>
      <trkpt lat="48.72606" lon="2.5441">
        <ele>60</ele>
        <time>2024-01-22T13:48:29.894+00:00</time>
      </trkpt>
      <trkpt lat="48.72602" lon="2.54407">
        <ele>60</ele>
        <time>2024-01-22T13:48:34.322+00:00</time>
      </trkpt>
      <trkpt lat="48.72599" lon="2.54404">
        <ele>60</ele>
        <time>2024-01-22T13:48:38.391+00:00</time>
      </trkpt>
      <trkpt lat="48.72596" lon="2.54403">
        <ele>60</ele>
        <time>2024-01-22T13:48:42.871+00:00</time>
      </trkpt>
      <trkpt lat="48.72592" lon="2.54403">
        <ele>60</ele>
        <time>2024-01-22T13:48:46.767+00:00</time>
      </trkpt>
      <trkpt lat="48.72587" lon="2.54403">
        <ele>60</ele>
        <time>2024-01-22T13:48:50.717+00:00</time>
      </trkpt>
      <trkpt lat="48.72582" lon="2.54399">
        <ele>60</ele>
        <time>2024-01-22T13:48:55.251+00:00</time>
      </trkpt>
      <trkpt lat="48.72576" lon="2.54394">
        <ele>60</ele>
        <time>2024-01-22T13:48:59.434+00:00</time>
      </trkpt>
      <trkpt lat="48.72572" lon="2.54388">
        <ele>60</ele>
        <time>2024-01-22T13:49:03.383+00:00</time>
      </trkpt>
      <trkpt lat="48.72568" lon="2.54384">
        <ele>63</ele>
        <time>2024-01-22T13:49:07.930+00:00</time>
      </trkpt>
      <trkpt lat="48.72565" lon="2.54383">
        <ele>63</ele>
        <time>2024-01-22T13:49:11.961+00:00</time>
      </trkpt>
      <trkpt lat="48.72561" lon="2.54381">
        <ele>63</ele>
        <time>2024-01-22T13:49:15.993+00:00</time>
      </trkpt>
      <trkpt lat="48.72557" lon="2.5438">
        <ele>63</ele>
        <time>2024-01-22T13:49:20.526+00:00</time>
      </trkpt>
      <trkpt lat="48.72552" lon="2.5438">
        <ele>63</ele>
        <time>2024-01-22T13:49:24.496+00:00</time>
      </trkpt>
      <trkpt lat="48.72547" lon="2.54381">
        <ele>63</ele>
        <time>2024-01-22T13:49:28.526+00:00</time>
      </trkpt>
      <trkpt lat="48.72541" lon="2.54381">
        <ele>66</ele>
        <time>2024-01-22T13:49:32.526+00:00</time>
      </trkpt>
      <trkpt lat="48.72534" lon="2.54381">
        <ele>66</ele>
        <time>2024-01-22T13:49:37.044+00:00</time>
      </trkpt>
      <trkpt lat="48.72526" lon="2.54381">
        <ele>66</ele>
        <time>2024-01-22T13:49:41.115+00:00</time>
      </trkpt>
      <trkpt lat="48.72517" lon="2.54377">
        <ele>66</ele>
        <time>2024-01-22T13:49:45.066+00:00</time>
      </trkpt>
      <trkpt lat="48.7251" lon="2.54344">
        <ele>63</ele>
        <time>2024-01-22T13:49:50.018+00:00</time>
      </trkpt>
      <trkpt lat="48.72504" lon="2.5433">
        <ele>63</ele>
        <time>2024-01-22T13:49:53.807+00:00</time>
      </trkpt>
      <trkpt lat="48.72498" lon="2.54321">
        <ele>63</ele>
        <time>2024-01-22T13:49:58.357+00:00</time>
      </trkpt>
      <trkpt lat="48.72491" lon="2.54315">
        <ele>62</ele>
        <time>2024-01-22T13:50:02.799+00:00</time>
      </trkpt>
      <trkpt lat="48.72485" lon="2.54316">
        <ele>61</ele>
        <time>2024-01-22T13:50:06.854+00:00</time>
      </trkpt>
      <trkpt lat="48.72481" lon="2.54322">
        <ele>63</ele>
        <time>2024-01-22T13:50:10.954+00:00</time>
      </trkpt>
      <trkpt lat="48.72478" lon="2.54331">
        <ele>63</ele>
        <time>2024-01-22T13:50:14.851+00:00</time>
      </trkpt>
      <trkpt lat="48.72476" lon="2.54339">
        <ele>63</ele>
        <time>2024-01-22T13:50:18.919+00:00</time>
      </trkpt>
      <trkpt lat="48.72472" lon="2.54346">
        <ele>63</ele>
        <time>2024-01-22T13:50:23.566+00:00</time>
      </trkpt>
      <trkpt lat="48.72468" lon="2.54351">
        <ele>64</ele>
        <time>2024-01-22T13:50:27.634+00:00</time>
      </trkpt>
      <trkpt lat="48.72462" lon="2.54353">
        <ele>64</ele>
        <time>2024-01-22T13:50:32.134+00:00</time>
      </trkpt>
      <trkpt lat="48.72458" lon="2.54356">
        <ele>63</ele>
        <time>2024-01-22T13:50:36.090+00:00</time>
      </trkpt>
      <trkpt lat="48.72453" lon="2.54361">
        <ele>63</ele>
        <time>2024-01-22T13:50:40.159+00:00</time>
      </trkpt>
      <trkpt lat="48.72447" lon="2.54367">
        <ele>63</ele>
        <time>2024-01-22T13:50:44.586+00:00</time>
      </trkpt>
      <trkpt lat="48.72443" lon="2.54373">
        <ele>63</ele>
        <time>2024-01-22T13:50:48.653+00:00</time>
      </trkpt>
      <trkpt lat="48.7244" lon="2.54378">
        <ele>63</ele>
        <time>2024-01-22T13:50:52.842+00:00</time>
      </trkpt>
      <trkpt lat="48.72435" lon="2.54381">
        <ele>63</ele>
        <time>2024-01-22T13:50:56.789+00:00</time>
      </trkpt>
      <trkpt lat="48.72429" lon="2.54382">
        <ele>62</ele>
        <time>2024-01-22T13:51:00.858+00:00</time>
      </trkpt>
      <trkpt lat="48.72423" lon="2.54383">
        <ele>62</ele>
        <time>2024-01-22T13:51:05.336+00:00</time>
      </trkpt>
      <trkpt lat="48.72416" lon="2.54384">
        <ele>62</ele>
        <time>2024-01-22T13:51:09.434+00:00</time>
      </trkpt>
      <trkpt lat="48.7241" lon="2.54386">
        <ele>62</ele>
        <time>2024-01-22T13:51:13.780+00:00</time>
      </trkpt>
      <trkpt lat="48.72402" lon="2.54389">
        <ele>61</ele>
        <time>2024-01-22T13:51:18.829+00:00</time>
      </trkpt>
      <trkpt lat="48.72398" lon="2.54392">
        <ele>61</ele>
        <time>2024-01-22T13:51:22.756+00:00</time>
      </trkpt>
      <trkpt lat="48.72393" lon="2.54398">
        <ele>61</ele>
        <time>2024-01-22T13:51:26.826+00:00</time>
      </trkpt>
      <trkpt lat="48.72388" lon="2.54404">
        <ele>61</ele>
        <time>2024-01-22T13:51:30.838+00:00</time>
      </trkpt>
      <trkpt lat="48.72383" lon="2.54407">
        <ele>61</ele>
        <time>2024-01-22T13:51:34.667+00:00</time>
      </trkpt>
      <trkpt lat="48.72377" lon="2.54411">
        <ele>61</ele>
        <time>2024-01-22T13:51:39.434+00:00</time>
      </trkpt>
      <trkpt lat="48.72372" lon="2.54414">
        <ele>60</ele>
        <time>2024-01-22T13:51:43.381+00:00</time>
      </trkpt>
      <trkpt lat="48.72365" lon="2.54417">
        <ele>60</ele>
        <time>2024-01-22T13:51:47.861+00:00</time>
      </trkpt>
      <trkpt lat="48.72359" lon="2.54421">
        <ele>60</ele>
        <time>2024-01-22T13:51:52.237+00:00</time>
      </trkpt>
      <trkpt lat="48.72354" lon="2.54426">
        <ele>60</ele>
        <time>2024-01-22T13:51:56.425+00:00</time>
      </trkpt>
      <trkpt lat="48.72349" lon="2.54431">
        <ele>59</ele>
        <time>2024-01-22T13:52:00.973+00:00</time>
      </trkpt>
      <trkpt lat="48.72343" lon="2.54438">
        <ele>59</ele>
        <time>2024-01-22T13:52:05.521+00:00</time>
      </trkpt>
      <trkpt lat="48.72339" lon="2.54445">
        <ele>59</ele>
        <time>2024-01-22T13:52:09.351+00:00</time>
      </trkpt>
      <trkpt lat="48.72334" lon="2.54448">
        <ele>59</ele>
        <time>2024-01-22T13:52:13.920+00:00</time>
      </trkpt>
      <trkpt lat="48.72328" lon="2.5445">
        <ele>59</ele>
        <time>2024-01-22T13:52:17.827+00:00</time>
      </trkpt>
      <trkpt lat="48.72322" lon="2.5445">
        <ele>59</ele>
        <time>2024-01-22T13:52:22.254+00:00</time>
      </trkpt>
      <trkpt lat="48.72315" lon="2.54451">
        <ele>58</ele>
        <time>2024-01-22T13:52:26.683+00:00</time>
      </trkpt>
      <trkpt lat="48.72309" lon="2.54449">
        <ele>58</ele>
        <time>2024-01-22T13:52:31.110+00:00</time>
      </trkpt>
      <trkpt lat="48.72304" lon="2.54447">
        <ele>58</ele>
        <time>2024-01-22T13:52:35.203+00:00</time>
      </trkpt>
      <trkpt lat="48.72299" lon="2.54445">
        <ele>58</ele>
        <time>2024-01-22T13:52:39.247+00:00</time>
      </trkpt>
      <trkpt lat="48.72293" lon="2.5444">
        <ele>58</ele>
        <time>2024-01-22T13:52:43.776+00:00</time>
      </trkpt>
      <trkpt lat="48.72288" lon="2.54434">
        <ele>57</ele>
        <time>2024-01-22T13:52:48.441+00:00</time>
      </trkpt>
      <trkpt lat="48.72284" lon="2.54428">
        <ele>57</ele>
        <time>2024-01-22T13:52:52.824+00:00</time>
      </trkpt>
      <trkpt lat="48.7228" lon="2.54423">
        <ele>57</ele>
        <time>2024-01-22T13:52:56.818+00:00</time>
      </trkpt>
      <trkpt lat="48.72276" lon="2.54416">
        <ele>57</ele>
        <time>2024-01-22T13:53:01.279+00:00</time>
      </trkpt>
      <trkpt lat="48.72273" lon="2.54411">
        <ele>57</ele>
        <time>2024-01-22T13:53:05.272+00:00</time>
      </trkpt>
      <trkpt lat="48.72271" lon="2.54404">
        <ele>57</ele>
        <time>2024-01-22T13:53:09.245+00:00</time>
      </trkpt>
      <trkpt lat="48.72268" lon="2.54395">
        <ele>59</ele>
        <time>2024-01-22T13:53:13.791+00:00</time>
      </trkpt>
      <trkpt lat="48.72266" lon="2.54387">
        <ele>59</ele>
        <time>2024-01-22T13:53:18.814+00:00</time>
      </trkpt>
      <trkpt lat="48.72264" lon="2.54379">
        <ele>59</ele>
        <time>2024-01-22T13:53:22.766+00:00</time>
      </trkpt>
      <trkpt lat="48.72261" lon="2.5437">
        <ele>59</ele>
        <time>2024-01-22T13:53:27.431+00:00</time>
      </trkpt>
      <trkpt lat="48.72259" lon="2.54361">
        <ele>59</ele>
        <time>2024-01-22T13:53:31.736+00:00</time>
      </trkpt>
      <trkpt lat="48.72258" lon="2.54353">
        <ele>59</ele>
        <time>2024-01-22T13:53:36.201+00:00</time>
      </trkpt>
      <trkpt lat="48.72254" lon="2.54347">
        <ele>61</ele>
        <time>2024-01-22T13:53:40.105+00:00</time>
      </trkpt>
      <trkpt lat="48.72247" lon="2.5434">
        <ele>61</ele>
        <time>2024-01-22T13:53:44.526+00:00</time>
      </trkpt>
      <trkpt lat="48.72241" lon="2.54342">
        <ele>61</ele>
        <time>2024-01-22T13:53:48.976+00:00</time>
      </trkpt>
      <trkpt lat="48.72238" lon="2.5435">
        <ele>59</ele>
        <time>2024-01-22T13:53:52.781+00:00</time>
      </trkpt>
      <trkpt lat="48.72237" lon="2.54357">
        <ele>59</ele>
        <time>2024-01-22T13:53:57.283+00:00</time>
      </trkpt>
      <trkpt lat="48.72237" lon="2.54365">
        <ele>59</ele>
        <time>2024-01-22T13:54:01.869+00:00</time>
      </trkpt>
      <trkpt lat="48.72237" lon="2.5437">
        <ele>59</ele>
        <time>2024-01-22T13:54:05.817+00:00</time>
      </trkpt>
      <trkpt lat="48.72236" lon="2.54375">
        <ele>58</ele>
        <time>2024-01-22T13:54:10.482+00:00</time>
      </trkpt>
      <trkpt lat="48.72238" lon="2.54383">
        <ele>58</ele>
        <time>2024-01-22T13:54:15.145+00:00</time>
      </trkpt>
      <trkpt lat="48.72239" lon="2.54392">
        <ele>58</ele>
        <time>2024-01-22T13:54:19.623+00:00</time>
      </trkpt>
      <trkpt lat="48.72239" lon="2.54399">
        <ele>58</ele>
        <time>2024-01-22T13:54:23.399+00:00</time>
      </trkpt>
      <trkpt lat="48.72238" lon="2.54406">
        <ele>58</ele>
        <time>2024-01-22T13:54:27.946+00:00</time>
      </trkpt>
      <trkpt lat="48.72237" lon="2.54413">
        <ele>58</ele>
        <time>2024-01-22T13:54:32.013+00:00</time>
      </trkpt>
      <trkpt lat="48.72237" lon="2.54419">
        <ele>58</ele>
        <time>2024-01-22T13:54:36.079+00:00</time>
      </trkpt>
      <trkpt lat="48.72236" lon="2.54428">
        <ele>58</ele>
        <time>2024-01-22T13:54:40.623+00:00</time>
      </trkpt>
      <trkpt lat="48.72236" lon="2.54437">
        <ele>58</ele>
        <time>2024-01-22T13:54:44.929+00:00</time>
      </trkpt>
      <trkpt lat="48.72236" lon="2.54444">
        <ele>58</ele>
        <time>2024-01-22T13:54:48.994+00:00</time>
      </trkpt>
      <trkpt lat="48.72236" lon="2.54451">
        <ele>58</ele>
        <time>2024-01-22T13:54:52.821+00:00</time>
      </trkpt>
      <trkpt lat="48.72237" lon="2.54458">
        <ele>58</ele>
        <time>2024-01-22T13:54:57.245+00:00</time>
      </trkpt>
      <trkpt lat="48.72238" lon="2.54465">
        <ele>58</ele>
        <time>2024-01-22T13:55:02.203+00:00</time>
      </trkpt>
      <trkpt lat="48.72238" lon="2.54472">
        <ele>58</ele>
        <time>2024-01-22T13:55:06.095+00:00</time>
      </trkpt>
      <trkpt lat="48.72238" lon="2.54482">
        <ele>58</ele>
        <time>2024-01-22T13:55:11.078+00:00</time>
      </trkpt>
      <trkpt lat="48.72238" lon="2.5449">
        <ele>60</ele>
        <time>2024-01-22T13:55:15.062+00:00</time>
      </trkpt>
      <trkpt lat="48.72236" lon="2.54501">
        <ele>60</ele>
        <time>2024-01-22T13:55:20.084+00:00</time>
      </trkpt>
      <trkpt lat="48.72235" lon="2.54509">
        <ele>59</ele>
        <time>2024-01-22T13:55:24.580+00:00</time>
      </trkpt>
      <trkpt lat="48.72233" lon="2.54516">
        <ele>62</ele>
        <time>2024-01-22T13:55:28.452+00:00</time>
      </trkpt>
      <trkpt lat="48.72232" lon="2.54524">
        <ele>62</ele>
        <time>2024-01-22T13:55:32.517+00:00</time>
      </trkpt>
      <trkpt lat="48.72231" lon="2.54535">
        <ele>62</ele>
        <time>2024-01-22T13:55:37.059+00:00</time>
      </trkpt>
      <trkpt lat="48.7223" lon="2.54544">
        <ele>66</ele>
        <time>2024-01-22T13:55:41.723+00:00</time>
      </trkpt>
      <trkpt lat="48.7223" lon="2.54553">
        <ele>66</ele>
        <time>2024-01-22T13:55:46.261+00:00</time>
      </trkpt>
      <trkpt lat="48.7223" lon="2.54561">
        <ele>66</ele>
        <time>2024-01-22T13:55:50.694+00:00</time>
      </trkpt>
      <trkpt lat="48.7223" lon="2.5457">
        <ele>70</ele>
        <time>2024-01-22T13:55:54.643+00:00</time>
      </trkpt>
      <trkpt lat="48.72228" lon="2.5458">
        <ele>70</ele>
        <time>2024-01-22T13:55:58.829+00:00</time>
      </trkpt>
      <trkpt lat="48.72226" lon="2.54588">
        <ele>70</ele>
        <time>2024-01-22T13:56:03.494+00:00</time>
      </trkpt>
      <trkpt lat="48.72226" lon="2.54592">
        <ele>70</ele>
        <time>2024-01-22T13:56:08.041+00:00</time>
      </trkpt>
      <trkpt lat="48.72225" lon="2.54598">
        <ele>72</ele>
        <time>2024-01-22T13:56:11.990+00:00</time>
      </trkpt>
      <trkpt lat="48.72223" lon="2.54606">
        <ele>72</ele>
        <time>2024-01-22T13:56:16.059+00:00</time>
      </trkpt>
      <trkpt lat="48.72222" lon="2.54614">
        <ele>72</ele>
        <time>2024-01-22T13:56:20.726+00:00</time>
      </trkpt>
      <trkpt lat="48.7222" lon="2.54619">
        <ele>72</ele>
        <time>2024-01-22T13:56:24.674+00:00</time>
      </trkpt>
      <trkpt lat="48.72218" lon="2.54625">
        <ele>72</ele>
        <time>2024-01-22T13:56:28.860+00:00</time>
      </trkpt>
      <trkpt lat="48.72215" lon="2.54632">
        <ele>74</ele>
        <time>2024-01-22T13:56:33.404+00:00</time>
      </trkpt>
      <trkpt lat="48.72213" lon="2.54639">
        <ele>74</ele>
        <time>2024-01-22T13:56:38.069+00:00</time>
      </trkpt>
      <trkpt lat="48.72211" lon="2.54646">
        <ele>74</ele>
        <time>2024-01-22T13:56:42.136+00:00</time>
      </trkpt>
      <trkpt lat="48.7221" lon="2.54654">
        <ele>74</ele>
        <time>2024-01-22T13:56:46.682+00:00</time>
      </trkpt>
      <trkpt lat="48.72209" lon="2.54661">
        <ele>74</ele>
        <time>2024-01-22T13:56:50.627+00:00</time>
      </trkpt>
      <trkpt lat="48.72208" lon="2.54669">
        <ele>75</ele>
        <time>2024-01-22T13:56:55.052+00:00</time>
      </trkpt>
      <trkpt lat="48.72208" lon="2.54678">
        <ele>75</ele>
        <time>2024-01-22T13:56:59.775+00:00</time>
      </trkpt>
      <trkpt lat="48.72208" lon="2.54684">
        <ele>76</ele>
        <time>2024-01-22T13:57:03.657+00:00</time>
      </trkpt>
      <trkpt lat="48.72209" lon="2.54691">
        <ele>75</ele>
        <time>2024-01-22T13:57:08.199+00:00</time>
      </trkpt>
      <trkpt lat="48.7221" lon="2.54699">
        <ele>75</ele>
        <time>2024-01-22T13:57:12.743+00:00</time>
      </trkpt>
      <trkpt lat="48.72208" lon="2.54708">
        <ele>76</ele>
        <time>2024-01-22T13:57:17.047+00:00</time>
      </trkpt>
      <trkpt lat="48.72206" lon="2.54716">
        <ele>77</ele>
        <time>2024-01-22T13:57:21.623+00:00</time>
      </trkpt>
      <trkpt lat="48.72203" lon="2.5472">
        <ele>77</ele>
        <time>2024-01-22T13:57:25.654+00:00</time>
      </trkpt>
      <trkpt lat="48.72202" lon="2.54724">
        <ele>77</ele>
        <time>2024-01-22T13:57:29.837+00:00</time>
      </trkpt>
      <trkpt lat="48.72201" lon="2.54735">
        <ele>77</ele>
        <time>2024-01-22T13:58:04.245+00:00</time>
      </trkpt>
      <trkpt lat="48.72201" lon="2.54736">
        <ele>79</ele>
        <time>2024-01-22T13:58:08.428+00:00</time>
      </trkpt>
      <trkpt lat="48.72202" lon="2.54738">
        <ele>79</ele>
        <time>2024-01-22T13:58:12.970+00:00</time>
      </trkpt>
      <trkpt lat="48.72202" lon="2.54739">
        <ele>79</ele>
        <time>2024-01-22T13:58:17.034+00:00</time>
      </trkpt>
      <trkpt lat="48.72201" lon="2.54743">
        <ele>79</ele>
        <time>2024-01-22T13:58:21.301+00:00</time>
      </trkpt>
      <trkpt lat="48.722" lon="2.54747">
        <ele>79</ele>
        <time>2024-01-22T13:58:45.277+00:00</time>
      </trkpt>
      <trkpt lat="48.72199" lon="2.54746">
        <ele>79</ele>
        <time>2024-01-22T13:58:50.299+00:00</time>
      </trkpt>
      <trkpt lat="48.72196" lon="2.54746">
        <ele>79</ele>
        <time>2024-01-22T13:58:54.288+00:00</time>
      </trkpt>
      <trkpt lat="48.72194" lon="2.54747">
        <ele>79</ele>
        <time>2024-01-22T13:58:58.376+00:00</time>
      </trkpt>
      <trkpt lat="48.72188" lon="2.54749">
        <ele>79</ele>
        <time>2024-01-22T13:59:02.780+00:00</time>
      </trkpt>
      <trkpt lat="48.72183" lon="2.5475">
        <ele>79</ele>
        <time>2024-01-22T13:59:06.863+00:00</time>
      </trkpt>
      <trkpt lat="48.72179" lon="2.54752">
        <ele>80</ele>
        <time>2024-01-22T13:59:10.809+00:00</time>
      </trkpt>
      <trkpt lat="48.72175" lon="2.54754">
        <ele>80</ele>
        <time>2024-01-22T13:59:14.755+00:00</time>
      </trkpt>
      <trkpt lat="48.72171" lon="2.54754">
        <ele>80</ele>
        <time>2024-01-22T13:59:19.178+00:00</time>
      </trkpt>
      <trkpt lat="48.72166" lon="2.54753">
        <ele>80</ele>
        <time>2024-01-22T13:59:23.123+00:00</time>
      </trkpt>
      <trkpt lat="48.72161" lon="2.54753">
        <ele>80</ele>
        <time>2024-01-22T13:59:27.666+00:00</time>
      </trkpt>
      <trkpt lat="48.72155" lon="2.54754">
        <ele>80</ele>
        <time>2024-01-22T13:59:31.526+00:00</time>
      </trkpt>
      <trkpt lat="48.72149" lon="2.54756">
        <ele>79</ele>
        <time>2024-01-22T13:59:36.397+00:00</time>
      </trkpt>
      <trkpt lat="48.72146" lon="2.54758">
        <ele>79</ele>
        <time>2024-01-22T13:59:40.463+00:00</time>
      </trkpt>
      <trkpt lat="48.7214" lon="2.54761">
        <ele>79</ele>
        <time>2024-01-22T13:59:45.227+00:00</time>
      </trkpt>
      <trkpt lat="48.72134" lon="2.54763">
        <ele>79</ele>
        <time>2024-01-22T13:59:49.889+00:00</time>
      </trkpt>
      <trkpt lat="48.72127" lon="2.54764">
        <ele>81</ele>
        <time>2024-01-22T13:59:54.434+00:00</time>
      </trkpt>
      <trkpt lat="48.7212" lon="2.54766">
        <ele>81</ele>
        <time>2024-01-22T13:59:59.096+00:00</time>
      </trkpt>
      <trkpt lat="48.72114" lon="2.54768">
        <ele>81</ele>
        <time>2024-01-22T14:00:03.222+00:00</time>
      </trkpt>
      <trkpt lat="48.72108" lon="2.54769">
        <ele>81</ele>
        <time>2024-01-22T14:00:07.225+00:00</time>
      </trkpt>
      <trkpt lat="48.72101" lon="2.54772">
        <ele>81</ele>
        <time>2024-01-22T14:00:11.769+00:00</time>
      </trkpt>
      <trkpt lat="48.72095" lon="2.54775">
        <ele>80</ele>
        <time>2024-01-22T14:00:16.985+00:00</time>
      </trkpt>
      <trkpt lat="48.72089" lon="2.54776">
        <ele>80</ele>
        <time>2024-01-22T14:00:21.279+00:00</time>
      </trkpt>
      <trkpt lat="48.72083" lon="2.54777">
        <ele>80</ele>
        <time>2024-01-22T14:00:25.273+00:00</time>
      </trkpt>
      <trkpt lat="48.72076" lon="2.54777">
        <ele>80</ele>
        <time>2024-01-22T14:00:29.741+00:00</time>
      </trkpt>
      <trkpt lat="48.7207" lon="2.54778">
        <ele>80</ele>
        <time>2024-01-22T14:00:33.654+00:00</time>
      </trkpt>
      <trkpt lat="48.72064" lon="2.54777">
        <ele>80</ele>
        <time>2024-01-22T14:00:38.282+00:00</time>
      </trkpt>
      <trkpt lat="48.72059" lon="2.54778">
        <ele>80</ele>
        <time>2024-01-22T14:00:42.264+00:00</time>
      </trkpt>
      <trkpt lat="48.72053" lon="2.5478">
        <ele>80</ele>
        <time>2024-01-22T14:00:46.808+00:00</time>
      </trkpt>
      <trkpt lat="48.72047" lon="2.54782">
        <ele>80</ele>
        <time>2024-01-22T14:00:51.470+00:00</time>
      </trkpt>
      <trkpt lat="48.72041" lon="2.54784">
        <ele>80</ele>
        <time>2024-01-22T14:00:55.653+00:00</time>
      </trkpt>
      <trkpt lat="48.72038" lon="2.54785">
        <ele>80</ele>
        <time>2024-01-22T14:00:59.717+00:00</time>
      </trkpt>
      <trkpt lat="48.72032" lon="2.54786">
        <ele>80</ele>
        <time>2024-01-22T14:01:04.258+00:00</time>
      </trkpt>
      <trkpt lat="48.72027" lon="2.54788">
        <ele>80</ele>
        <time>2024-01-22T14:01:08.202+00:00</time>
      </trkpt>
      <trkpt lat="48.72022" lon="2.5479">
        <ele>80</ele>
        <time>2024-01-22T14:01:12.863+00:00</time>
      </trkpt>
      <trkpt lat="48.72016" lon="2.54792">
        <ele>84</ele>
        <time>2024-01-22T14:01:17.254+00:00</time>
      </trkpt>
      <trkpt lat="48.7201" lon="2.54792">
        <ele>87</ele>
        <time>2024-01-22T14:01:21.277+00:00</time>
      </trkpt>
      <trkpt lat="48.72004" lon="2.54791">
        <ele>83</ele>
        <time>2024-01-22T14:01:25.156+00:00</time>
      </trkpt>
      <trkpt lat="48.71999" lon="2.5479">
        <ele>83</ele>
        <time>2024-01-22T14:01:29.698+00:00</time>
      </trkpt>
      <trkpt lat="48.71994" lon="2.5479">
        <ele>83</ele>
        <time>2024-01-22T14:01:33.763+00:00</time>
      </trkpt>
      <trkpt lat="48.71988" lon="2.5479">
        <ele>83</ele>
        <time>2024-01-22T14:01:37.829+00:00</time>
      </trkpt>
      <trkpt lat="48.71982" lon="2.54791">
        <ele>84</ele>
        <time>2024-01-22T14:01:41.654+00:00</time>
      </trkpt>
      <trkpt lat="48.71976" lon="2.54791">
        <ele>84</ele>
        <time>2024-01-22T14:01:46.435+00:00</time>
      </trkpt>
      <trkpt lat="48.71971" lon="2.54792">
        <ele>87</ele>
        <time>2024-01-22T14:01:50.526+00:00</time>
      </trkpt>
      <trkpt lat="48.71965" lon="2.54794">
        <ele>87</ele>
        <time>2024-01-22T14:01:54.526+00:00</time>
      </trkpt>
      <trkpt lat="48.71957" lon="2.54794">
        <ele>84</ele>
        <time>2024-01-22T14:01:59.106+00:00</time>
      </trkpt>
      <trkpt lat="48.7195" lon="2.54794">
        <ele>84</ele>
        <time>2024-01-22T14:02:03.886+00:00</time>
      </trkpt>
      <trkpt lat="48.71943" lon="2.54794">
        <ele>84</ele>
        <time>2024-01-22T14:02:09.020+00:00</time>
      </trkpt>
      <trkpt lat="48.71937" lon="2.54794">
        <ele>84</ele>
        <time>2024-01-22T14:02:12.851+00:00</time>
      </trkpt>
      <trkpt lat="48.71931" lon="2.54795">
        <ele>84</ele>
        <time>2024-01-22T14:02:16.916+00:00</time>
      </trkpt>
      <trkpt lat="48.71924" lon="2.54795">
        <ele>81</ele>
        <time>2024-01-22T14:02:21.458+00:00</time>
      </trkpt>
      <trkpt lat="48.71917" lon="2.54797">
        <ele>81</ele>
        <time>2024-01-22T14:02:25.405+00:00</time>
      </trkpt>
      <trkpt lat="48.71911" lon="2.54797">
        <ele>81</ele>
        <time>2024-01-22T14:02:29.831+00:00</time>
      </trkpt>
      <trkpt lat="48.71904" lon="2.54795">
        <ele>81</ele>
        <time>2024-01-22T14:02:34.257+00:00</time>
      </trkpt>
      <trkpt lat="48.71897" lon="2.54795">
        <ele>80</ele>
        <time>2024-01-22T14:02:38.683+00:00</time>
      </trkpt>
      <trkpt lat="48.71892" lon="2.54795">
        <ele>80</ele>
        <time>2024-01-22T14:02:42.629+00:00</time>
      </trkpt>
      <trkpt lat="48.71885" lon="2.54797">
        <ele>80</ele>
        <time>2024-01-22T14:02:47.219+00:00</time>
      </trkpt>
      <trkpt lat="48.7188" lon="2.54796">
        <ele>80</ele>
        <time>2024-01-22T14:02:51.241+00:00</time>
      </trkpt>
      <trkpt lat="48.71873" lon="2.54796">
        <ele>79</ele>
        <time>2024-01-22T14:02:55.526+00:00</time>
      </trkpt>
      <trkpt lat="48.71868" lon="2.54795">
        <ele>79</ele>
        <time>2024-01-22T14:02:59.526+00:00</time>
      </trkpt>
      <trkpt lat="48.71862" lon="2.54793">
        <ele>79</ele>
        <time>2024-01-22T14:03:03.676+00:00</time>
      </trkpt>
      <trkpt lat="48.71856" lon="2.54791">
        <ele>77</ele>
        <time>2024-01-22T14:03:07.624+00:00</time>
      </trkpt>
      <trkpt lat="48.71851" lon="2.54792">
        <ele>79</ele>
        <time>2024-01-22T14:03:12.170+00:00</time>
      </trkpt>
      <trkpt lat="48.71845" lon="2.54794">
        <ele>78</ele>
        <time>2024-01-22T14:03:15.941+00:00</time>
      </trkpt>
      <trkpt lat="48.7184" lon="2.54797">
        <ele>78</ele>
        <time>2024-01-22T14:03:20.526+00:00</time>
      </trkpt>
      <trkpt lat="48.71834" lon="2.54798">
        <ele>78</ele>
        <time>2024-01-22T14:03:24.918+00:00</time>
      </trkpt>
      <trkpt lat="48.71828" lon="2.54799">
        <ele>78</ele>
        <time>2024-01-22T14:03:28.983+00:00</time>
      </trkpt>
      <trkpt lat="48.71822" lon="2.548">
        <ele>78</ele>
        <time>2024-01-22T14:03:33.007+00:00</time>
      </trkpt>
      <trkpt lat="48.71817" lon="2.548">
        <ele>78</ele>
        <time>2024-01-22T14:03:36.836+00:00</time>
      </trkpt>
      <trkpt lat="48.71811" lon="2.548">
        <ele>78</ele>
        <time>2024-01-22T14:03:41.290+00:00</time>
      </trkpt>
      <trkpt lat="48.71805" lon="2.548">
        <ele>78</ele>
        <time>2024-01-22T14:03:45.289+00:00</time>
      </trkpt>
      <trkpt lat="48.71799" lon="2.548">
        <ele>78</ele>
        <time>2024-01-22T14:03:49.831+00:00</time>
      </trkpt>
      <trkpt lat="48.71793" lon="2.54801">
        <ele>78</ele>
        <time>2024-01-22T14:03:54.293+00:00</time>
      </trkpt>
      <trkpt lat="48.71787" lon="2.54802">
        <ele>77</ele>
        <time>2024-01-22T14:03:58.197+00:00</time>
      </trkpt>
      <trkpt lat="48.71781" lon="2.54803">
        <ele>77</ele>
        <time>2024-01-22T14:04:02.621+00:00</time>
      </trkpt>
      <trkpt lat="48.71776" lon="2.54804">
        <ele>77</ele>
        <time>2024-01-22T14:04:06.688+00:00</time>
      </trkpt>
      <trkpt lat="48.7177" lon="2.54804">
        <ele>77</ele>
        <time>2024-01-22T14:04:10.635+00:00</time>
      </trkpt>
      <trkpt lat="48.71763" lon="2.54804">
        <ele>76</ele>
        <time>2024-01-22T14:04:15.299+00:00</time>
      </trkpt>
      <trkpt lat="48.71757" lon="2.54805">
        <ele>76</ele>
        <time>2024-01-22T14:04:19.842+00:00</time>
      </trkpt>
      <trkpt lat="48.71751" lon="2.54806">
        <ele>76</ele>
        <time>2024-01-22T14:04:24.318+00:00</time>
      </trkpt>
      <trkpt lat="48.71745" lon="2.54807">
        <ele>76</ele>
        <time>2024-01-22T14:04:28.297+00:00</time>
      </trkpt>
      <trkpt lat="48.71738" lon="2.54808">
        <ele>76</ele>
        <time>2024-01-22T14:04:32.874+00:00</time>
      </trkpt>
      <trkpt lat="48.71732" lon="2.54808">
        <ele>76</ele>
        <time>2024-01-22T14:04:38.001+00:00</time>
      </trkpt>
      <trkpt lat="48.71726" lon="2.54808">
        <ele>76</ele>
        <time>2024-01-22T14:04:42.523+00:00</time>
      </trkpt>
      <trkpt lat="48.71721" lon="2.54808">
        <ele>76</ele>
        <time>2024-01-22T14:04:46.526+00:00</time>
      </trkpt>
      <trkpt lat="48.71715" lon="2.54808">
        <ele>76</ele>
        <time>2024-01-22T14:04:50.688+00:00</time>
      </trkpt>
      <trkpt lat="48.71708" lon="2.54808">
        <ele>77</ele>
        <time>2024-01-22T14:04:55.231+00:00</time>
      </trkpt>
      <trkpt lat="48.71701" lon="2.54808">
        <ele>77</ele>
        <time>2024-01-22T14:04:59.774+00:00</time>
      </trkpt>
      <trkpt lat="48.71695" lon="2.54809">
        <ele>77</ele>
        <time>2024-01-22T14:05:03.719+00:00</time>
      </trkpt>
      <trkpt lat="48.7169" lon="2.5481">
        <ele>77</ele>
        <time>2024-01-22T14:05:08.116+00:00</time>
      </trkpt>
      <trkpt lat="48.71684" lon="2.54811">
        <ele>77</ele>
        <time>2024-01-22T14:05:12.088+00:00</time>
      </trkpt>
      <trkpt lat="48.71678" lon="2.54813">
        <ele>77</ele>
        <time>2024-01-22T14:05:15.914+00:00</time>
      </trkpt>
      <trkpt lat="48.71671" lon="2.54814">
        <ele>77</ele>
        <time>2024-01-22T14:05:20.457+00:00</time>
      </trkpt>
      <trkpt lat="48.71662" lon="2.54816">
        <ele>77</ele>
        <time>2024-01-22T14:05:25.002+00:00</time>
      </trkpt>
      <trkpt lat="48.71657" lon="2.54816">
        <ele>77</ele>
        <time>2024-01-22T14:05:29.526+00:00</time>
      </trkpt>
      <trkpt lat="48.7165" lon="2.54818">
        <ele>79</ele>
        <time>2024-01-22T14:05:34.098+00:00</time>
      </trkpt>
      <trkpt lat="48.71647" lon="2.5482">
        <ele>79</ele>
        <time>2024-01-22T14:05:35.774+00:00</time>
      </trkpt>
      <trkpt lat="48.71638" lon="2.54826">
        <ele>79</ele>
        <time>2024-01-22T14:05:43.905+00:00</time>
      </trkpt>
      <trkpt lat="48.71629" lon="2.54829">
        <ele>79</ele>
        <time>2024-01-22T14:05:48.513+00:00</time>
      </trkpt>
      <trkpt lat="48.71621" lon="2.54831">
        <ele>80</ele>
        <time>2024-01-22T14:05:53.080+00:00</time>
      </trkpt>
      <trkpt lat="48.71615" lon="2.54829">
        <ele>80</ele>
        <time>2024-01-22T14:05:57.137+00:00</time>
      </trkpt>
      <trkpt lat="48.71609" lon="2.5483">
        <ele>80</ele>
        <time>2024-01-22T14:06:01.639+00:00</time>
      </trkpt>
      <trkpt lat="48.71605" lon="2.54831">
        <ele>80</ele>
        <time>2024-01-22T14:06:06.003+00:00</time>
      </trkpt>
      <trkpt lat="48.716" lon="2.54832">
        <ele>80</ele>
        <time>2024-01-22T14:06:10.018+00:00</time>
      </trkpt>
      <trkpt lat="48.71592" lon="2.5483">
        <ele>81</ele>
        <time>2024-01-22T14:06:15.098+00:00</time>
      </trkpt>
      <trkpt lat="48.71587" lon="2.5483">
        <ele>81</ele>
        <time>2024-01-22T14:06:18.895+00:00</time>
      </trkpt>
      <trkpt lat="48.71581" lon="2.5483">
        <ele>81</ele>
        <time>2024-01-22T14:06:23.756+00:00</time>
      </trkpt>
      <trkpt lat="48.71576" lon="2.5483">
        <ele>81</ele>
        <time>2024-01-22T14:06:28.240+00:00</time>
      </trkpt>
      <trkpt lat="48.71572" lon="2.54828">
        <ele>81</ele>
        <time>2024-01-22T14:06:32.277+00:00</time>
      </trkpt>
      <trkpt lat="48.71564" lon="2.54826">
        <ele>81</ele>
        <time>2024-01-22T14:06:36.792+00:00</time>
      </trkpt>
      <trkpt lat="48.71557" lon="2.54825">
        <ele>81</ele>
        <time>2024-01-22T14:06:41.223+00:00</time>
      </trkpt>
      <trkpt lat="48.71551" lon="2.54826">
        <ele>81</ele>
        <time>2024-01-22T14:06:45.257+00:00</time>
      </trkpt>
      <trkpt lat="48.71546" lon="2.54828">
        <ele>81</ele>
        <time>2024-01-22T14:06:49.781+00:00</time>
      </trkpt>
      <trkpt lat="48.71539" lon="2.54826">
        <ele>81</ele>
        <time>2024-01-22T14:06:53.526+00:00</time>
      </trkpt>
      <trkpt lat="48.71534" lon="2.54826">
        <ele>81</ele>
        <time>2024-01-22T14:06:58.079+00:00</time>
      </trkpt>
      <trkpt lat="48.71528" lon="2.54825">
        <ele>81</ele>
        <time>2024-01-22T14:07:02.033+00:00</time>
      </trkpt>
      <trkpt lat="48.71522" lon="2.54828">
        <ele>81</ele>
        <time>2024-01-22T14:07:06.605+00:00</time>
      </trkpt>
      <trkpt lat="48.71516" lon="2.54828">
        <ele>81</ele>
        <time>2024-01-22T14:07:10.657+00:00</time>
      </trkpt>
      <trkpt lat="48.71509" lon="2.54829">
        <ele>83</ele>
        <time>2024-01-22T14:07:14.819+00:00</time>
      </trkpt>
      <trkpt lat="48.71505" lon="2.5483">
        <ele>83</ele>
        <time>2024-01-22T14:07:18.526+00:00</time>
      </trkpt>
      <trkpt lat="48.715" lon="2.54831">
        <ele>83</ele>
        <time>2024-01-22T14:07:23.052+00:00</time>
      </trkpt>
      <trkpt lat="48.71495" lon="2.54833">
        <ele>83</ele>
        <time>2024-01-22T14:07:27.003+00:00</time>
      </trkpt>
      <trkpt lat="48.71487" lon="2.54832">
        <ele>83</ele>
        <time>2024-01-22T14:07:31.348+00:00</time>
      </trkpt>
      <trkpt lat="48.71481" lon="2.54832">
        <ele>85</ele>
        <time>2024-01-22T14:07:35.382+00:00</time>
      </trkpt>
      <trkpt lat="48.71474" lon="2.54833">
        <ele>85</ele>
        <time>2024-01-22T14:07:39.411+00:00</time>
      </trkpt>
      <trkpt lat="48.71468" lon="2.54833">
        <ele>85</ele>
        <time>2024-01-22T14:07:43.840+00:00</time>
      </trkpt>
      <trkpt lat="48.71461" lon="2.54834">
        <ele>85</ele>
        <time>2024-01-22T14:07:48.386+00:00</time>
      </trkpt>
      <trkpt lat="48.71456" lon="2.54838">
        <ele>86</ele>
        <time>2024-01-22T14:07:52.456+00:00</time>
      </trkpt>
      <trkpt lat="48.71451" lon="2.54841">
        <ele>86</ele>
        <time>2024-01-22T14:07:57.066+00:00</time>
      </trkpt>
      <trkpt lat="48.71447" lon="2.54843">
        <ele>86</ele>
        <time>2024-01-22T14:08:00.955+00:00</time>
      </trkpt>
      <trkpt lat="48.71442" lon="2.54842">
        <ele>86</ele>
        <time>2024-01-22T14:08:04.909+00:00</time>
      </trkpt>
      <trkpt lat="48.71438" lon="2.5484">
        <ele>86</ele>
        <time>2024-01-22T14:08:09.526+00:00</time>
      </trkpt>
      <trkpt lat="48.71434" lon="2.54841">
        <ele>86</ele>
        <time>2024-01-22T14:08:13.647+00:00</time>
      </trkpt>
      <trkpt lat="48.7143" lon="2.54843">
        <ele>86</ele>
        <time>2024-01-22T14:08:17.479+00:00</time>
      </trkpt>
      <trkpt lat="48.71425" lon="2.54846">
        <ele>86</ele>
        <time>2024-01-22T14:08:22.244+00:00</time>
      </trkpt>
      <trkpt lat="48.71419" lon="2.54849">
        <ele>86</ele>
        <time>2024-01-22T14:08:27.250+00:00</time>
      </trkpt>
      <trkpt lat="48.71412" lon="2.54853">
        <ele>86</ele>
        <time>2024-01-22T14:08:31.224+00:00</time>
      </trkpt>
      <trkpt lat="48.71406" lon="2.54857">
        <ele>86</ele>
        <time>2024-01-22T14:08:35.053+00:00</time>
      </trkpt>
      <trkpt lat="48.71399" lon="2.54861">
        <ele>86</ele>
        <time>2024-01-22T14:08:39.526+00:00</time>
      </trkpt>
      <trkpt lat="48.71394" lon="2.54864">
        <ele>86</ele>
        <time>2024-01-22T14:08:43.942+00:00</time>
      </trkpt>
      <trkpt lat="48.71387" lon="2.54866">
        <ele>86</ele>
        <time>2024-01-22T14:08:47.856+00:00</time>
      </trkpt>
      <trkpt lat="48.71381" lon="2.54868">
        <ele>86</ele>
        <time>2024-01-22T14:08:51.802+00:00</time>
      </trkpt>
      <trkpt lat="48.71374" lon="2.54871">
        <ele>87</ele>
        <time>2024-01-22T14:08:56.228+00:00</time>
      </trkpt>
      <trkpt lat="48.71369" lon="2.54874">
        <ele>87</ele>
        <time>2024-01-22T14:09:00.633+00:00</time>
      </trkpt>
      <trkpt lat="48.71363" lon="2.54878">
        <ele>87</ele>
        <time>2024-01-22T14:09:05.268+00:00</time>
      </trkpt>
      <trkpt lat="48.71352" lon="2.54888">
        <ele>87</ele>
        <time>2024-01-22T14:09:29.223+00:00</time>
      </trkpt>
      <trkpt lat="48.71352" lon="2.54889">
        <ele>87</ele>
        <time>2024-01-22T14:09:33.762+00:00</time>
      </trkpt>
      <trkpt lat="48.71348" lon="2.54893">
        <ele>87</ele>
        <time>2024-01-22T14:09:37.835+00:00</time>
      </trkpt>
      <trkpt lat="48.71343" lon="2.54896">
        <ele>88</ele>
        <time>2024-01-22T14:09:42.246+00:00</time>
      </trkpt>
      <trkpt lat="48.71338" lon="2.549">
        <ele>88</ele>
        <time>2024-01-22T14:09:46.446+00:00</time>
      </trkpt>
      <trkpt lat="48.71332" lon="2.54903">
        <ele>88</ele>
        <time>2024-01-22T14:09:50.872+00:00</time>
      </trkpt>
      <trkpt lat="48.71328" lon="2.54905">
        <ele>88</ele>
        <time>2024-01-22T14:09:55.059+00:00</time>
      </trkpt>
      <trkpt lat="48.71321" lon="2.54909">
        <ele>88</ele>
        <time>2024-01-22T14:09:59.465+00:00</time>
      </trkpt>
      <trkpt lat="48.71315" lon="2.54911">
        <ele>89</ele>
        <time>2024-01-22T14:10:03.411+00:00</time>
      </trkpt>
      <trkpt lat="48.7131" lon="2.54914">
        <ele>89</ele>
        <time>2024-01-22T14:10:07.840+00:00</time>
      </trkpt>
      <trkpt lat="48.71305" lon="2.54917">
        <ele>89</ele>
        <time>2024-01-22T14:10:11.964+00:00</time>
      </trkpt>
      <trkpt lat="48.713" lon="2.5492">
        <ele>89</ele>
        <time>2024-01-22T14:10:16.446+00:00</time>
      </trkpt>
      <trkpt lat="48.71296" lon="2.54921">
        <ele>89</ele>
        <time>2024-01-22T14:10:20.492+00:00</time>
      </trkpt>
      <trkpt lat="48.71289" lon="2.54923">
        <ele>89</ele>
        <time>2024-01-22T14:10:25.036+00:00</time>
      </trkpt>
      <trkpt lat="48.71284" lon="2.54919">
        <ele>89</ele>
        <time>2024-01-22T14:10:29.083+00:00</time>
      </trkpt>
      <trkpt lat="48.71279" lon="2.54913">
        <ele>89</ele>
        <time>2024-01-22T14:10:33.506+00:00</time>
      </trkpt>
      <trkpt lat="48.71274" lon="2.54908">
        <ele>89</ele>
        <time>2024-01-22T14:10:37.692+00:00</time>
      </trkpt>
      <trkpt lat="48.71269" lon="2.54905">
        <ele>89</ele>
        <time>2024-01-22T14:10:42.122+00:00</time>
      </trkpt>
      <trkpt lat="48.71265" lon="2.54901">
        <ele>90</ele>
        <time>2024-01-22T14:10:46.062+00:00</time>
      </trkpt>
      <trkpt lat="48.71262" lon="2.54897">
        <ele>90</ele>
        <time>2024-01-22T14:10:50.127+00:00</time>
      </trkpt>
      <trkpt lat="48.71256" lon="2.54893">
        <ele>90</ele>
        <time>2024-01-22T14:10:54.550+00:00</time>
      </trkpt>
      <trkpt lat="48.71251" lon="2.54891">
        <ele>90</ele>
        <time>2024-01-22T14:10:59.093+00:00</time>
      </trkpt>
      <trkpt lat="48.71246" lon="2.54885">
        <ele>90</ele>
        <time>2024-01-22T14:11:03.723+00:00</time>
      </trkpt>
      <trkpt lat="48.71241" lon="2.54884">
        <ele>90</ele>
        <time>2024-01-22T14:11:07.674+00:00</time>
      </trkpt>
      <trkpt lat="48.71237" lon="2.54884">
        <ele>90</ele>
        <time>2024-01-22T14:11:09.829+00:00</time>
      </trkpt>
      <trkpt lat="48.71231" lon="2.54874">
        <ele>92</ele>
        <time>2024-01-22T14:11:18.500+00:00</time>
      </trkpt>
      <trkpt lat="48.71229" lon="2.54873">
        <ele>92</ele>
        <time>2024-01-22T14:11:23.004+00:00</time>
      </trkpt>
      <trkpt lat="48.71223" lon="2.54873">
        <ele>92</ele>
        <time>2024-01-22T14:11:27.166+00:00</time>
      </trkpt>
      <trkpt lat="48.71216" lon="2.54874">
        <ele>92</ele>
        <time>2024-01-22T14:11:31.169+00:00</time>
      </trkpt>
      <trkpt lat="48.71211" lon="2.54872">
        <ele>92</ele>
        <time>2024-01-22T14:11:35.191+00:00</time>
      </trkpt>
      <trkpt lat="48.71207" lon="2.54868">
        <ele>93</ele>
        <time>2024-01-22T14:11:39.193+00:00</time>
      </trkpt>
      <trkpt lat="48.71202" lon="2.54863">
        <ele>93</ele>
        <time>2024-01-22T14:11:43.526+00:00</time>
      </trkpt>
      <trkpt lat="48.71196" lon="2.54857">
        <ele>93</ele>
        <time>2024-01-22T14:11:47.773+00:00</time>
      </trkpt>
      <trkpt lat="48.71189" lon="2.54853">
        <ele>93</ele>
        <time>2024-01-22T14:11:52.767+00:00</time>
      </trkpt>
      <trkpt lat="48.71182" lon="2.54849">
        <ele>93</ele>
        <time>2024-01-22T14:11:56.954+00:00</time>
      </trkpt>
      <trkpt lat="48.71175" lon="2.54845">
        <ele>93</ele>
        <time>2024-01-22T14:12:01.454+00:00</time>
      </trkpt>
      <trkpt lat="48.71169" lon="2.5484">
        <ele>93</ele>
        <time>2024-01-22T14:12:05.728+00:00</time>
      </trkpt>
      <trkpt lat="48.71163" lon="2.54833">
        <ele>93</ele>
        <time>2024-01-22T14:12:11.125+00:00</time>
      </trkpt>
      <trkpt lat="48.71156" lon="2.54828">
        <ele>93</ele>
        <time>2024-01-22T14:12:15.633+00:00</time>
      </trkpt>
      <trkpt lat="48.71151" lon="2.54824">
        <ele>93</ele>
        <time>2024-01-22T14:12:20.213+00:00</time>
      </trkpt>
      <trkpt lat="48.71144" lon="2.54819">
        <ele>93</ele>
        <time>2024-01-22T14:12:24.814+00:00</time>
      </trkpt>
      <trkpt lat="48.71139" lon="2.54815">
        <ele>93</ele>
        <time>2024-01-22T14:12:29.059+00:00</time>
      </trkpt>
      <trkpt lat="48.7113" lon="2.54807">
        <ele>93</ele>
        <time>2024-01-22T14:12:33.438+00:00</time>
      </trkpt>
      <trkpt lat="48.71123" lon="2.548">
        <ele>93</ele>
        <time>2024-01-22T14:12:37.827+00:00</time>
      </trkpt>
      <trkpt lat="48.71118" lon="2.54796">
        <ele>93</ele>
        <time>2024-01-22T14:12:42.258+00:00</time>
      </trkpt>
      <trkpt lat="48.71111" lon="2.54791">
        <ele>93</ele>
        <time>2024-01-22T14:12:46.897+00:00</time>
      </trkpt>
      <trkpt lat="48.71105" lon="2.54786">
        <ele>93</ele>
        <time>2024-01-22T14:12:51.081+00:00</time>
      </trkpt>
      <trkpt lat="48.71101" lon="2.54781">
        <ele>93</ele>
        <time>2024-01-22T14:12:54.957+00:00</time>
      </trkpt>
      <trkpt lat="48.71096" lon="2.54777">
        <ele>93</ele>
        <time>2024-01-22T14:12:58.955+00:00</time>
      </trkpt>
      <trkpt lat="48.71089" lon="2.54772">
        <ele>93</ele>
        <time>2024-01-22T14:13:04.046+00:00</time>
      </trkpt>
      <trkpt lat="48.71085" lon="2.54767">
        <ele>93</ele>
        <time>2024-01-22T14:13:08.049+00:00</time>
      </trkpt>
      <trkpt lat="48.7108" lon="2.54762">
        <ele>92</ele>
        <time>2024-01-22T14:13:11.882+00:00</time>
      </trkpt>
      <trkpt lat="48.71074" lon="2.5476">
        <ele>92</ele>
        <time>2024-01-22T14:13:15.957+00:00</time>
      </trkpt>
      <trkpt lat="48.71068" lon="2.54757">
        <ele>92</ele>
        <time>2024-01-22T14:13:20.510+00:00</time>
      </trkpt>
      <trkpt lat="48.71062" lon="2.54753">
        <ele>92</ele>
        <time>2024-01-22T14:13:25.003+00:00</time>
      </trkpt>
      <trkpt lat="48.71057" lon="2.54748">
        <ele>92</ele>
        <time>2024-01-22T14:13:29.313+00:00</time>
      </trkpt>
      <trkpt lat="48.7105" lon="2.54745">
        <ele>92</ele>
        <time>2024-01-22T14:13:33.825+00:00</time>
      </trkpt>
      <trkpt lat="48.71045" lon="2.54742">
        <ele>92</ele>
        <time>2024-01-22T14:13:37.814+00:00</time>
      </trkpt>
      <trkpt lat="48.7104" lon="2.54738">
        <ele>92</ele>
        <time>2024-01-22T14:13:41.766+00:00</time>
      </trkpt>
      <trkpt lat="48.71035" lon="2.54732">
        <ele>92</ele>
        <time>2024-01-22T14:13:46.441+00:00</time>
      </trkpt>
      <trkpt lat="48.71028" lon="2.54728">
        <ele>92</ele>
        <time>2024-01-22T14:13:50.744+00:00</time>
      </trkpt>
      <trkpt lat="48.71023" lon="2.54726">
        <ele>92</ele>
        <time>2024-01-22T14:13:54.704+00:00</time>
      </trkpt>
      <trkpt lat="48.71017" lon="2.54723">
        <ele>92</ele>
        <time>2024-01-22T14:13:58.654+00:00</time>
      </trkpt>
      <trkpt lat="48.71012" lon="2.54718">
        <ele>93</ele>
        <time>2024-01-22T14:14:03.083+00:00</time>
      </trkpt>
      <trkpt lat="48.71008" lon="2.54714">
        <ele>93</ele>
        <time>2024-01-22T14:14:07.034+00:00</time>
      </trkpt>
      <trkpt lat="48.71003" lon="2.54709">
        <ele>93</ele>
        <time>2024-01-22T14:14:10.984+00:00</time>
      </trkpt>
      <trkpt lat="48.70998" lon="2.54705">
        <ele>93</ele>
        <time>2024-01-22T14:14:15.526+00:00</time>
      </trkpt>
      <trkpt lat="48.70993" lon="2.547">
        <ele>93</ele>
        <time>2024-01-22T14:14:20.077+00:00</time>
      </trkpt>
      <trkpt lat="48.70987" lon="2.54696">
        <ele>93</ele>
        <time>2024-01-22T14:14:24.026+00:00</time>
      </trkpt>
      <trkpt lat="48.70985" lon="2.54688">
        <ele>93</ele>
        <time>2024-01-22T14:14:28.451+00:00</time>
      </trkpt>
      <trkpt lat="48.70981" lon="2.54683">
        <ele>93</ele>
        <time>2024-01-22T14:14:32.518+00:00</time>
      </trkpt>
      <trkpt lat="48.70975" lon="2.54681">
        <ele>93</ele>
        <time>2024-01-22T14:14:36.987+00:00</time>
      </trkpt>
      <trkpt lat="48.7097" lon="2.54678">
        <ele>93</ele>
        <time>2024-01-22T14:14:41.012+00:00</time>
      </trkpt>
      <trkpt lat="48.70963" lon="2.54675">
        <ele>93</ele>
        <time>2024-01-22T14:14:45.479+00:00</time>
      </trkpt>
      <trkpt lat="48.70957" lon="2.54671">
        <ele>93</ele>
        <time>2024-01-22T14:14:49.526+00:00</time>
      </trkpt>
      <trkpt lat="48.70952" lon="2.54667">
        <ele>93</ele>
        <time>2024-01-22T14:14:53.966+00:00</time>
      </trkpt>
      <trkpt lat="48.70947" lon="2.54664">
        <ele>93</ele>
        <time>2024-01-22T14:14:57.869+00:00</time>
      </trkpt>
      <trkpt lat="48.70942" lon="2.5466">
        <ele>93</ele>
        <time>2024-01-22T14:15:01.932+00:00</time>
      </trkpt>
      <trkpt lat="48.70936" lon="2.54656">
        <ele>93</ele>
        <time>2024-01-22T14:15:06.355+00:00</time>
      </trkpt>
      <trkpt lat="48.70931" lon="2.54652">
        <ele>93</ele>
        <time>2024-01-22T14:15:10.760+00:00</time>
      </trkpt>
      <trkpt lat="48.70927" lon="2.54648">
        <ele>93</ele>
        <time>2024-01-22T14:15:14.705+00:00</time>
      </trkpt>
      <trkpt lat="48.70921" lon="2.54644">
        <ele>93</ele>
        <time>2024-01-22T14:15:19.247+00:00</time>
      </trkpt>
      <trkpt lat="48.70915" lon="2.54639">
        <ele>93</ele>
        <time>2024-01-22T14:15:23.672+00:00</time>
      </trkpt>
      <trkpt lat="48.70911" lon="2.54635">
        <ele>93</ele>
        <time>2024-01-22T14:15:27.526+00:00</time>
      </trkpt>
      <trkpt lat="48.70905" lon="2.54631">
        <ele>93</ele>
        <time>2024-01-22T14:15:32.045+00:00</time>
      </trkpt>
      <trkpt lat="48.709" lon="2.54628">
        <ele>93</ele>
        <time>2024-01-22T14:15:36.112+00:00</time>
      </trkpt>
      <trkpt lat="48.70894" lon="2.54623">
        <ele>93</ele>
        <time>2024-01-22T14:15:40.659+00:00</time>
      </trkpt>
      <trkpt lat="48.70889" lon="2.54619">
        <ele>93</ele>
        <time>2024-01-22T14:15:44.987+00:00</time>
      </trkpt>
      <trkpt lat="48.70886" lon="2.54616">
        <ele>93</ele>
        <time>2024-01-22T14:15:49.031+00:00</time>
      </trkpt>
      <trkpt lat="48.70881" lon="2.54613">
        <ele>93</ele>
        <time>2024-01-22T14:15:53.455+00:00</time>
      </trkpt>
      <trkpt lat="48.70876" lon="2.54609">
        <ele>93</ele>
        <time>2024-01-22T14:15:57.824+00:00</time>
      </trkpt>
      <trkpt lat="48.70872" lon="2.54605">
        <ele>93</ele>
        <time>2024-01-22T14:16:01.526+00:00</time>
      </trkpt>
      <trkpt lat="48.70867" lon="2.54601">
        <ele>93</ele>
        <time>2024-01-22T14:16:06.010+00:00</time>
      </trkpt>
      <trkpt lat="48.70863" lon="2.54597">
        <ele>92</ele>
        <time>2024-01-22T14:16:10.417+00:00</time>
      </trkpt>
      <trkpt lat="48.70858" lon="2.54595">
        <ele>92</ele>
        <time>2024-01-22T14:16:14.364+00:00</time>
      </trkpt>
      <trkpt lat="48.70854" lon="2.54592">
        <ele>92</ele>
        <time>2024-01-22T14:16:18.787+00:00</time>
      </trkpt>
      <trkpt lat="48.70847" lon="2.54587">
        <ele>92</ele>
        <time>2024-01-22T14:16:22.852+00:00</time>
      </trkpt>
      <trkpt lat="48.70842" lon="2.5458">
        <ele>92</ele>
        <time>2024-01-22T14:16:27.636+00:00</time>
      </trkpt>
      <trkpt lat="48.70836" lon="2.54573">
        <ele>92</ele>
        <time>2024-01-22T14:16:32.061+00:00</time>
      </trkpt>
      <trkpt lat="48.70832" lon="2.54565">
        <ele>90</ele>
        <time>2024-01-22T14:16:36.845+00:00</time>
      </trkpt>
      <trkpt lat="48.70829" lon="2.54556">
        <ele>90</ele>
        <time>2024-01-22T14:16:41.627+00:00</time>
      </trkpt>
      <trkpt lat="48.70825" lon="2.5455">
        <ele>90</ele>
        <time>2024-01-22T14:16:45.453+00:00</time>
      </trkpt>
      <trkpt lat="48.70821" lon="2.54544">
        <ele>90</ele>
        <time>2024-01-22T14:16:50.082+00:00</time>
      </trkpt>
      <trkpt lat="48.70818" lon="2.54539">
        <ele>90</ele>
        <time>2024-01-22T14:16:54.045+00:00</time>
      </trkpt>
      <trkpt lat="48.70815" lon="2.54534">
        <ele>90</ele>
        <time>2024-01-22T14:16:57.991+00:00</time>
      </trkpt>
      <trkpt lat="48.70812" lon="2.54527">
        <ele>90</ele>
        <time>2024-01-22T14:17:02.416+00:00</time>
      </trkpt>
      <trkpt lat="48.70808" lon="2.5452">
        <ele>90</ele>
        <time>2024-01-22T14:17:06.482+00:00</time>
      </trkpt>
      <trkpt lat="48.70803" lon="2.54514">
        <ele>90</ele>
        <time>2024-01-22T14:17:10.786+00:00</time>
      </trkpt>
      <trkpt lat="48.708" lon="2.54509">
        <ele>91</ele>
        <time>2024-01-22T14:17:14.853+00:00</time>
      </trkpt>
      <trkpt lat="48.70796" lon="2.54503">
        <ele>91</ele>
        <time>2024-01-22T14:17:18.799+00:00</time>
      </trkpt>
      <trkpt lat="48.70792" lon="2.54496">
        <ele>91</ele>
        <time>2024-01-22T14:17:22.864+00:00</time>
      </trkpt>
      <trkpt lat="48.70789" lon="2.54487">
        <ele>92</ele>
        <time>2024-01-22T14:17:27.479+00:00</time>
      </trkpt>
      <trkpt lat="48.70785" lon="2.5448">
        <ele>93</ele>
        <time>2024-01-22T14:17:31.952+00:00</time>
      </trkpt>
      <trkpt lat="48.70776" lon="2.54475">
        <ele>93</ele>
        <time>2024-01-22T14:21:37.242+00:00</time>
      </trkpt>
      <trkpt lat="48.70776" lon="2.54476">
        <ele>93</ele>
        <time>2024-01-22T14:21:41.242+00:00</time>
      </trkpt>
      <trkpt lat="48.70771" lon="2.54475">
        <ele>93</ele>
        <time>2024-01-22T14:21:46.255+00:00</time>
      </trkpt>
      <trkpt lat="48.70768" lon="2.5448">
        <ele>93</ele>
        <time>2024-01-22T14:21:51.055+00:00</time>
      </trkpt>
      <trkpt lat="48.70762" lon="2.54488">
        <ele>93</ele>
        <time>2024-01-22T14:21:55.070+00:00</time>
      </trkpt>
      <trkpt lat="48.70758" lon="2.54494">
        <ele>93</ele>
        <time>2024-01-22T14:21:59.526+00:00</time>
      </trkpt>
      <trkpt lat="48.70754" lon="2.545">
        <ele>93</ele>
        <time>2024-01-22T14:22:04.038+00:00</time>
      </trkpt>
      <trkpt lat="48.70751" lon="2.54503">
        <ele>93</ele>
        <time>2024-01-22T14:22:07.983+00:00</time>
      </trkpt>
      <trkpt lat="48.70748" lon="2.54509">
        <ele>93</ele>
        <time>2024-01-22T14:22:12.049+00:00</time>
      </trkpt>
      <trkpt lat="48.70743" lon="2.54516">
        <ele>92</ele>
        <time>2024-01-22T14:22:16.715+00:00</time>
      </trkpt>
      <trkpt lat="48.7074" lon="2.5452">
        <ele>92</ele>
        <time>2024-01-22T14:22:20.421+00:00</time>
      </trkpt>
      <trkpt lat="48.70737" lon="2.54528">
        <ele>92</ele>
        <time>2024-01-22T14:22:24.948+00:00</time>
      </trkpt>
      <trkpt lat="48.70732" lon="2.54534">
        <ele>93</ele>
        <time>2024-01-22T14:22:29.016+00:00</time>
      </trkpt>
      <trkpt lat="48.70728" lon="2.5454">
        <ele>93</ele>
        <time>2024-01-22T14:22:33.441+00:00</time>
      </trkpt>
      <trkpt lat="48.70724" lon="2.54546">
        <ele>93</ele>
        <time>2024-01-22T14:22:37.388+00:00</time>
      </trkpt>
      <trkpt lat="48.7072" lon="2.54552">
        <ele>93</ele>
        <time>2024-01-22T14:22:41.812+00:00</time>
      </trkpt>
      <trkpt lat="48.70716" lon="2.54558">
        <ele>93</ele>
        <time>2024-01-22T14:22:46.269+00:00</time>
      </trkpt>
      <trkpt lat="48.70714" lon="2.54564">
        <ele>93</ele>
        <time>2024-01-22T14:22:50.422+00:00</time>
      </trkpt>
      <trkpt lat="48.70709" lon="2.54571">
        <ele>93</ele>
        <time>2024-01-22T14:22:54.847+00:00</time>
      </trkpt>
      <trkpt lat="48.70705" lon="2.54578">
        <ele>94</ele>
        <time>2024-01-22T14:22:59.152+00:00</time>
      </trkpt>
      <trkpt lat="48.70701" lon="2.54586">
        <ele>94</ele>
        <time>2024-01-22T14:23:03.526+00:00</time>
      </trkpt>
      <trkpt lat="48.70697" lon="2.54593">
        <ele>94</ele>
        <time>2024-01-22T14:23:07.999+00:00</time>
      </trkpt>
      <trkpt lat="48.70694" lon="2.54601">
        <ele>94</ele>
        <time>2024-01-22T14:23:12.265+00:00</time>
      </trkpt>
      <trkpt lat="48.70689" lon="2.54608">
        <ele>94</ele>
        <time>2024-01-22T14:23:16.847+00:00</time>
      </trkpt>
      <trkpt lat="48.70687" lon="2.54613">
        <ele>94</ele>
        <time>2024-01-22T14:23:20.911+00:00</time>
      </trkpt>
      <trkpt lat="48.70683" lon="2.54618">
        <ele>94</ele>
        <time>2024-01-22T14:23:25.453+00:00</time>
      </trkpt>
      <trkpt lat="48.7068" lon="2.54619">
        <ele>93</ele>
        <time>2024-01-22T14:23:30.114+00:00</time>
      </trkpt>
      <trkpt lat="48.70675" lon="2.54619">
        <ele>93</ele>
        <time>2024-01-22T14:23:34.656+00:00</time>
      </trkpt>
      <trkpt lat="48.70669" lon="2.54621">
        <ele>93</ele>
        <time>2024-01-22T14:23:38.837+00:00</time>
      </trkpt>
      <trkpt lat="48.70663" lon="2.54621">
        <ele>93</ele>
        <time>2024-01-22T14:23:43.498+00:00</time>
      </trkpt>
      <trkpt lat="48.70657" lon="2.54619">
        <ele>93</ele>
        <time>2024-01-22T14:23:48.033+00:00</time>
      </trkpt>
      <trkpt lat="48.70653" lon="2.54617">
        <ele>93</ele>
        <time>2024-01-22T14:23:51.845+00:00</time>
      </trkpt>
      <trkpt lat="48.70648" lon="2.54615">
        <ele>92</ele>
        <time>2024-01-22T14:23:56.866+00:00</time>
      </trkpt>
      <trkpt lat="48.70642" lon="2.54614">
        <ele>92</ele>
        <time>2024-01-22T14:24:02.006+00:00</time>
      </trkpt>
      <trkpt lat="48.70635" lon="2.54614">
        <ele>92</ele>
        <time>2024-01-22T14:24:05.831+00:00</time>
      </trkpt>
      <trkpt lat="48.7063" lon="2.54612">
        <ele>92</ele>
        <time>2024-01-22T14:24:10.255+00:00</time>
      </trkpt>
      <trkpt lat="48.70624" lon="2.54609">
        <ele>92</ele>
        <time>2024-01-22T14:24:15.036+00:00</time>
      </trkpt>
      <trkpt lat="48.70619" lon="2.54607">
        <ele>92</ele>
        <time>2024-01-22T14:24:18.980+00:00</time>
      </trkpt>
      <trkpt lat="48.70612" lon="2.54605">
        <ele>92</ele>
        <time>2024-01-22T14:24:23.641+00:00</time>
      </trkpt>
      <trkpt lat="48.70607" lon="2.54604">
        <ele>92</ele>
        <time>2024-01-22T14:24:27.526+00:00</time>
      </trkpt>
      <trkpt lat="48.70601" lon="2.54604">
        <ele>92</ele>
        <time>2024-01-22T14:24:32.248+00:00</time>
      </trkpt>
      <trkpt lat="48.70596" lon="2.54601">
        <ele>92</ele>
        <time>2024-01-22T14:24:36.278+00:00</time>
      </trkpt>
      <trkpt lat="48.70589" lon="2.54599">
        <ele>92</ele>
        <time>2024-01-22T14:24:40.855+00:00</time>
      </trkpt>
      <trkpt lat="48.70583" lon="2.54599">
        <ele>92</ele>
        <time>2024-01-22T14:24:45.335+00:00</time>
      </trkpt>
      <trkpt lat="48.70577" lon="2.54599">
        <ele>92</ele>
        <time>2024-01-22T14:24:49.807+00:00</time>
      </trkpt>
      <trkpt lat="48.70571" lon="2.54599">
        <ele>92</ele>
        <time>2024-01-22T14:24:54.452+00:00</time>
      </trkpt>
      <trkpt lat="48.70566" lon="2.54597">
        <ele>92</ele>
        <time>2024-01-22T14:24:58.996+00:00</time>
      </trkpt>
      <trkpt lat="48.70562" lon="2.54596">
        <ele>92</ele>
        <time>2024-01-22T14:25:03.526+00:00</time>
      </trkpt>
      <trkpt lat="48.70559" lon="2.54592">
        <ele>92</ele>
        <time>2024-01-22T14:25:07.844+00:00</time>
      </trkpt>
      <trkpt lat="48.70553" lon="2.5459">
        <ele>92</ele>
        <time>2024-01-22T14:25:12.009+00:00</time>
      </trkpt>
      <trkpt lat="48.70547" lon="2.54589">
        <ele>92</ele>
        <time>2024-01-22T14:25:16.433+00:00</time>
      </trkpt>
      <trkpt lat="48.70542" lon="2.54587">
        <ele>92</ele>
        <time>2024-01-22T14:25:21.009+00:00</time>
      </trkpt>
      <trkpt lat="48.70536" lon="2.54587">
        <ele>92</ele>
        <time>2024-01-22T14:25:25.040+00:00</time>
      </trkpt>
      <trkpt lat="48.70531" lon="2.54586">
        <ele>92</ele>
        <time>2024-01-22T14:25:28.865+00:00</time>
      </trkpt>
      <trkpt lat="48.70525" lon="2.54586">
        <ele>92</ele>
        <time>2024-01-22T14:25:33.283+00:00</time>
      </trkpt>
      <trkpt lat="48.70519" lon="2.54586">
        <ele>92</ele>
        <time>2024-01-22T14:25:37.833+00:00</time>
      </trkpt>
      <trkpt lat="48.70514" lon="2.54588">
        <ele>93</ele>
        <time>2024-01-22T14:25:42.009+00:00</time>
      </trkpt>
      <trkpt lat="48.70507" lon="2.54589">
        <ele>93</ele>
        <time>2024-01-22T14:25:46.235+00:00</time>
      </trkpt>
      <trkpt lat="48.705" lon="2.54591">
        <ele>93</ele>
        <time>2024-01-22T14:25:51.254+00:00</time>
      </trkpt>
      <trkpt lat="48.70494" lon="2.5459">
        <ele>93</ele>
        <time>2024-01-22T14:25:55.764+00:00</time>
      </trkpt>
      <trkpt lat="48.70489" lon="2.54589">
        <ele>93</ele>
        <time>2024-01-22T14:26:00.067+00:00</time>
      </trkpt>
      <trkpt lat="48.70482" lon="2.54587">
        <ele>93</ele>
        <time>2024-01-22T14:26:04.671+00:00</time>
      </trkpt>
      <trkpt lat="48.70476" lon="2.54588">
        <ele>93</ele>
        <time>2024-01-22T14:26:09.015+00:00</time>
      </trkpt>
      <trkpt lat="48.70471" lon="2.54588">
        <ele>93</ele>
        <time>2024-01-22T14:26:12.977+00:00</time>
      </trkpt>
      <trkpt lat="48.70465" lon="2.54587">
        <ele>93</ele>
        <time>2024-01-22T14:26:17.632+00:00</time>
      </trkpt>
      <trkpt lat="48.70459" lon="2.54585">
        <ele>93</ele>
        <time>2024-01-22T14:26:21.996+00:00</time>
      </trkpt>
      <trkpt lat="48.70453" lon="2.54584">
        <ele>93</ele>
        <time>2024-01-22T14:26:25.750+00:00</time>
      </trkpt>
      <trkpt lat="48.70448" lon="2.54583">
        <ele>93</ele>
        <time>2024-01-22T14:26:30.293+00:00</time>
      </trkpt>
      <trkpt lat="48.70443" lon="2.54581">
        <ele>93</ele>
        <time>2024-01-22T14:26:34.835+00:00</time>
      </trkpt>
      <trkpt lat="48.70438" lon="2.5458">
        <ele>93</ele>
        <time>2024-01-22T14:26:38.661+00:00</time>
      </trkpt>
      <trkpt lat="48.70432" lon="2.54577">
        <ele>93</ele>
        <time>2024-01-22T14:26:43.406+00:00</time>
      </trkpt>
      <trkpt lat="48.70427" lon="2.54574">
        <ele>93</ele>
        <time>2024-01-22T14:26:47.694+00:00</time>
      </trkpt>
      <trkpt lat="48.70423" lon="2.54572">
        <ele>93</ele>
        <time>2024-01-22T14:26:52.055+00:00</time>
      </trkpt>
      <trkpt lat="48.70422" lon="2.54563">
        <ele>93</ele>
        <time>2024-01-22T14:26:57.261+00:00</time>
      </trkpt>
      <trkpt lat="48.70423" lon="2.54556">
        <ele>93</ele>
        <time>2024-01-22T14:27:01.143+00:00</time>
      </trkpt>
      <trkpt lat="48.70418" lon="2.54554">
        <ele>93</ele>
        <time>2024-01-22T14:27:05.687+00:00</time>
      </trkpt>
      <trkpt lat="48.70411" lon="2.54553">
        <ele>93</ele>
        <time>2024-01-22T14:27:10.112+00:00</time>
      </trkpt>
      <trkpt lat="48.70406" lon="2.54549">
        <ele>93</ele>
        <time>2024-01-22T14:27:14.657+00:00</time>
      </trkpt>
      <trkpt lat="48.70401" lon="2.54546">
        <ele>93</ele>
        <time>2024-01-22T14:27:18.842+00:00</time>
      </trkpt>
      <trkpt lat="48.70395" lon="2.54543">
        <ele>93</ele>
        <time>2024-01-22T14:27:22.787+00:00</time>
      </trkpt>
      <trkpt lat="48.70389" lon="2.5454">
        <ele>93</ele>
        <time>2024-01-22T14:27:27.266+00:00</time>
      </trkpt>
      <trkpt lat="48.70383" lon="2.54536">
        <ele>93</ele>
        <time>2024-01-22T14:27:31.868+00:00</time>
      </trkpt>
      <trkpt lat="48.70379" lon="2.54533">
        <ele>93</ele>
        <time>2024-01-22T14:27:36.050+00:00</time>
      </trkpt>
      <trkpt lat="48.70375" lon="2.54528">
        <ele>93</ele>
        <time>2024-01-22T14:27:40.114+00:00</time>
      </trkpt>
      <trkpt lat="48.70369" lon="2.54526">
        <ele>94</ele>
        <time>2024-01-22T14:27:44.038+00:00</time>
      </trkpt>
      <trkpt lat="48.70364" lon="2.54521">
        <ele>94</ele>
        <time>2024-01-22T14:27:48.699+00:00</time>
      </trkpt>
      <trkpt lat="48.70358" lon="2.54515">
        <ele>94</ele>
        <time>2024-01-22T14:27:53.121+00:00</time>
      </trkpt>
      <trkpt lat="48.70354" lon="2.54511">
        <ele>94</ele>
        <time>2024-01-22T14:27:57.661+00:00</time>
      </trkpt>
      <trkpt lat="48.70349" lon="2.54505">
        <ele>94</ele>
        <time>2024-01-22T14:28:01.526+00:00</time>
      </trkpt>
      <trkpt lat="48.70344" lon="2.54504">
        <ele>94</ele>
        <time>2024-01-22T14:28:05.972+00:00</time>
      </trkpt>
      <trkpt lat="48.7034" lon="2.54502">
        <ele>94</ele>
        <time>2024-01-22T14:28:09.854+00:00</time>
      </trkpt>
      <trkpt lat="48.70335" lon="2.54502">
        <ele>94</ele>
        <time>2024-01-22T14:28:13.798+00:00</time>
      </trkpt>
      <trkpt lat="48.70329" lon="2.54501">
        <ele>94</ele>
        <time>2024-01-22T14:28:18.293+00:00</time>
      </trkpt>
      <trkpt lat="48.70323" lon="2.54502">
        <ele>94</ele>
        <time>2024-01-22T14:28:22.585+00:00</time>
      </trkpt>
      <trkpt lat="48.70317" lon="2.54502">
        <ele>93</ele>
        <time>2024-01-22T14:28:26.347+00:00</time>
      </trkpt>
      <trkpt lat="48.70312" lon="2.54499">
        <ele>93</ele>
        <time>2024-01-22T14:28:30.869+00:00</time>
      </trkpt>
      <trkpt lat="48.70306" lon="2.54497">
        <ele>93</ele>
        <time>2024-01-22T14:28:35.053+00:00</time>
      </trkpt>
      <trkpt lat="48.70301" lon="2.54495">
        <ele>93</ele>
        <time>2024-01-22T14:28:38.877+00:00</time>
      </trkpt>
      <trkpt lat="48.70294" lon="2.54495">
        <ele>93</ele>
        <time>2024-01-22T14:28:43.418+00:00</time>
      </trkpt>
      <trkpt lat="48.70289" lon="2.54494">
        <ele>92</ele>
        <time>2024-01-22T14:28:47.363+00:00</time>
      </trkpt>
      <trkpt lat="48.70287" lon="2.54491">
        <ele>92</ele>
        <time>2024-01-22T14:28:51.428+00:00</time>
      </trkpt>
      <trkpt lat="48.70285" lon="2.54485">
        <ele>92</ele>
        <time>2024-01-22T14:28:55.953+00:00</time>
      </trkpt>
      <trkpt lat="48.7028" lon="2.54479">
        <ele>92</ele>
        <time>2024-01-22T14:29:00.034+00:00</time>
      </trkpt>
      <trkpt lat="48.70276" lon="2.54471">
        <ele>92</ele>
        <time>2024-01-22T14:29:04.100+00:00</time>
      </trkpt>
      <trkpt lat="48.70274" lon="2.54465">
        <ele>92</ele>
        <time>2024-01-22T14:29:08.865+00:00</time>
      </trkpt>
      <trkpt lat="48.70272" lon="2.54456">
        <ele>92</ele>
        <time>2024-01-22T14:29:13.969+00:00</time>
      </trkpt>
      <trkpt lat="48.70273" lon="2.54447">
        <ele>92</ele>
        <time>2024-01-22T14:29:17.835+00:00</time>
      </trkpt>
      <trkpt lat="48.70273" lon="2.5444">
        <ele>92</ele>
        <time>2024-01-22T14:29:22.021+00:00</time>
      </trkpt>
      <trkpt lat="48.70273" lon="2.54434">
        <ele>92</ele>
        <time>2024-01-22T14:29:27.043+00:00</time>
      </trkpt>
      <trkpt lat="48.70273" lon="2.5443">
        <ele>91</ele>
        <time>2024-01-22T14:29:48.269+00:00</time>
      </trkpt>
      <trkpt lat="48.70273" lon="2.5443">
        <ele>91</ele>
        <time>2024-01-22T14:29:53.285+00:00</time>
      </trkpt>
      <trkpt lat="48.70272" lon="2.54428">
        <ele>91</ele>
        <time>2024-01-22T14:29:57.657+00:00</time>
      </trkpt>
      <trkpt lat="48.70267" lon="2.54426">
        <ele>91</ele>
        <time>2024-01-22T14:30:01.963+00:00</time>
      </trkpt>
      <trkpt lat="48.70263" lon="2.54422">
        <ele>92</ele>
        <time>2024-01-22T14:30:06.269+00:00</time>
      </trkpt>
      <trkpt lat="48.70256" lon="2.54412">
        <ele>92</ele>
        <time>2024-01-22T14:30:10.816+00:00</time>
      </trkpt>
      <trkpt lat="48.70251" lon="2.54404">
        <ele>92</ele>
        <time>2024-01-22T14:30:14.882+00:00</time>
      </trkpt>
      <trkpt lat="48.70248" lon="2.54398">
        <ele>91</ele>
        <time>2024-01-22T14:30:18.830+00:00</time>
      </trkpt>
      <trkpt lat="48.70244" lon="2.54394">
        <ele>91</ele>
        <time>2024-01-22T14:30:23.135+00:00</time>
      </trkpt>
      <trkpt lat="48.70238" lon="2.54388">
        <ele>91</ele>
        <time>2024-01-22T14:30:28.192+00:00</time>
      </trkpt>
      <trkpt lat="48.70232" lon="2.54383">
        <ele>92</ele>
        <time>2024-01-22T14:30:32.222+00:00</time>
      </trkpt>
      <trkpt lat="48.70231" lon="2.54376">
        <ele>92</ele>
        <time>2024-01-22T14:30:36.286+00:00</time>
      </trkpt>
      <trkpt lat="48.70226" lon="2.5437">
        <ele>91</ele>
        <time>2024-01-22T14:30:40.827+00:00</time>
      </trkpt>
      <trkpt lat="48.7022" lon="2.54366">
        <ele>91</ele>
        <time>2024-01-22T14:30:44.772+00:00</time>
      </trkpt>
      <trkpt lat="48.70215" lon="2.54359">
        <ele>91</ele>
        <time>2024-01-22T14:30:48.836+00:00</time>
      </trkpt>
      <trkpt lat="48.70214" lon="2.54346">
        <ele>91</ele>
        <time>2024-01-22T14:30:53.378+00:00</time>
      </trkpt>
      <trkpt lat="48.70209" lon="2.54341">
        <ele>91</ele>
        <time>2024-01-22T14:30:57.802+00:00</time>
      </trkpt>
      <trkpt lat="48.702" lon="2.5434">
        <ele>91</ele>
        <time>2024-01-22T14:31:02.149+00:00</time>
      </trkpt>
      <trkpt lat="48.70194" lon="2.54337">
        <ele>91</ele>
        <time>2024-01-22T14:31:07.030+00:00</time>
      </trkpt>
      <trkpt lat="48.70188" lon="2.54332">
        <ele>91</ele>
        <time>2024-01-22T14:31:11.069+00:00</time>
      </trkpt>
      <trkpt lat="48.70186" lon="2.54321">
        <ele>91</ele>
        <time>2024-01-22T14:31:14.895+00:00</time>
      </trkpt>
      <trkpt lat="48.70183" lon="2.54312">
        <ele>91</ele>
        <time>2024-01-22T14:31:19.797+00:00</time>
      </trkpt>
      <trkpt lat="48.70179" lon="2.54307">
        <ele>91</ele>
        <time>2024-01-22T14:31:23.861+00:00</time>
      </trkpt>
      <trkpt lat="48.70174" lon="2.54302">
        <ele>91</ele>
        <time>2024-01-22T14:31:28.402+00:00</time>
      </trkpt>
      <trkpt lat="48.7017" lon="2.54298">
        <ele>91</ele>
        <time>2024-01-22T14:31:32.836+00:00</time>
      </trkpt>
      <trkpt lat="48.70167" lon="2.54293">
        <ele>91</ele>
        <time>2024-01-22T14:31:36.647+00:00</time>
      </trkpt>
      <trkpt lat="48.70164" lon="2.54286">
        <ele>91</ele>
        <time>2024-01-22T14:31:41.429+00:00</time>
      </trkpt>
      <trkpt lat="48.70159" lon="2.54279">
        <ele>91</ele>
        <time>2024-01-22T14:31:45.850+00:00</time>
      </trkpt>
      <trkpt lat="48.70154" lon="2.54273">
        <ele>91</ele>
        <time>2024-01-22T14:31:50.955+00:00</time>
      </trkpt>
      <trkpt lat="48.70151" lon="2.54266">
        <ele>91</ele>
        <time>2024-01-22T14:31:54.818+00:00</time>
      </trkpt>
      <trkpt lat="48.70149" lon="2.54254">
        <ele>90</ele>
        <time>2024-01-22T14:31:59.474+00:00</time>
      </trkpt>
      <trkpt lat="48.70144" lon="2.54247">
        <ele>90</ele>
        <time>2024-01-22T14:32:03.426+00:00</time>
      </trkpt>
      <trkpt lat="48.70139" lon="2.54242">
        <ele>90</ele>
        <time>2024-01-22T14:32:07.968+00:00</time>
      </trkpt>
      <trkpt lat="48.70136" lon="2.54237">
        <ele>90</ele>
        <time>2024-01-22T14:32:11.794+00:00</time>
      </trkpt>
      <trkpt lat="48.70133" lon="2.54228">
        <ele>90</ele>
        <time>2024-01-22T14:32:16.437+00:00</time>
      </trkpt>
      <trkpt lat="48.70132" lon="2.54222">
        <ele>90</ele>
        <time>2024-01-22T14:32:21.098+00:00</time>
      </trkpt>
      <trkpt lat="48.7013" lon="2.54221">
        <ele>90</ele>
        <time>2024-01-22T14:32:25.758+00:00</time>
      </trkpt>
      <trkpt lat="48.70125" lon="2.54217">
        <ele>90</ele>
        <time>2024-01-22T14:32:30.778+00:00</time>
      </trkpt>
      <trkpt lat="48.7012" lon="2.54212">
        <ele>90</ele>
        <time>2024-01-22T14:32:35.439+00:00</time>
      </trkpt>
      <trkpt lat="48.7012" lon="2.54203">
        <ele>90</ele>
        <time>2024-01-22T14:32:40.100+00:00</time>
      </trkpt>
      <trkpt lat="48.7012" lon="2.54193">
        <ele>90</ele>
        <time>2024-01-22T14:32:44.522+00:00</time>
      </trkpt>
      <trkpt lat="48.70118" lon="2.54187">
        <ele>90</ele>
        <time>2024-01-22T14:32:49.007+00:00</time>
      </trkpt>
      <trkpt lat="48.70115" lon="2.54181">
        <ele>90</ele>
        <time>2024-01-22T14:32:52.748+00:00</time>
      </trkpt>
      <trkpt lat="48.70108" lon="2.54174">
        <ele>90</ele>
        <time>2024-01-22T14:32:57.271+00:00</time>
      </trkpt>
      <trkpt lat="48.70105" lon="2.54168">
        <ele>90</ele>
        <time>2024-01-22T14:33:01.299+00:00</time>
      </trkpt>
      <trkpt lat="48.701" lon="2.54161">
        <ele>90</ele>
        <time>2024-01-22T14:33:05.758+00:00</time>
      </trkpt>
      <trkpt lat="48.70095" lon="2.54156">
        <ele>91</ele>
        <time>2024-01-22T14:33:10.116+00:00</time>
      </trkpt>
      <trkpt lat="48.70092" lon="2.54151">
        <ele>90</ele>
        <time>2024-01-22T14:33:14.243+00:00</time>
      </trkpt>
      <trkpt lat="48.70088" lon="2.54146">
        <ele>90</ele>
        <time>2024-01-22T14:33:18.308+00:00</time>
      </trkpt>
      <trkpt lat="48.70084" lon="2.5414">
        <ele>90</ele>
        <time>2024-01-22T14:33:22.852+00:00</time>
      </trkpt>
      <trkpt lat="48.70082" lon="2.54131">
        <ele>90</ele>
        <time>2024-01-22T14:33:26.796+00:00</time>
      </trkpt>
      <trkpt lat="48.7008" lon="2.54122">
        <ele>89</ele>
        <time>2024-01-22T14:33:31.458+00:00</time>
      </trkpt>
      <trkpt lat="48.70077" lon="2.54115">
        <ele>89</ele>
        <time>2024-01-22T14:33:35.881+00:00</time>
      </trkpt>
      <trkpt lat="48.70073" lon="2.54111">
        <ele>89</ele>
        <time>2024-01-22T14:33:40.045+00:00</time>
      </trkpt>
      <trkpt lat="48.70069" lon="2.54106">
        <ele>89</ele>
        <time>2024-01-22T14:33:44.467+00:00</time>
      </trkpt>
      <trkpt lat="48.70065" lon="2.541">
        <ele>89</ele>
        <time>2024-01-22T14:33:49.008+00:00</time>
      </trkpt>
      <trkpt lat="48.70061" lon="2.54095">
        <ele>88</ele>
        <time>2024-01-22T14:33:52.832+00:00</time>
      </trkpt>
      <trkpt lat="48.70059" lon="2.54086">
        <ele>88</ele>
        <time>2024-01-22T14:33:57.852+00:00</time>
      </trkpt>
      <trkpt lat="48.70059" lon="2.54077">
        <ele>88</ele>
        <time>2024-01-22T14:34:02.912+00:00</time>
      </trkpt>
      <trkpt lat="48.7006" lon="2.54069">
        <ele>88</ele>
        <time>2024-01-22T14:34:06.456+00:00</time>
      </trkpt>
      <trkpt lat="48.7006" lon="2.54061">
        <ele>88</ele>
        <time>2024-01-22T14:34:10.994+00:00</time>
      </trkpt>
      <trkpt lat="48.7006" lon="2.54053">
        <ele>88</ele>
        <time>2024-01-22T14:34:14.816+00:00</time>
      </trkpt>
      <trkpt lat="48.7006" lon="2.54045">
        <ele>88</ele>
        <time>2024-01-22T14:34:19.296+00:00</time>
      </trkpt>
      <trkpt lat="48.70059" lon="2.54038">
        <ele>89</ele>
        <time>2024-01-22T14:34:23.418+00:00</time>
      </trkpt>
      <trkpt lat="48.70058" lon="2.54029">
        <ele>89</ele>
        <time>2024-01-22T14:34:27.773+00:00</time>
      </trkpt>
      <trkpt lat="48.70057" lon="2.54021">
        <ele>89</ele>
        <time>2024-01-22T14:34:31.663+00:00</time>
      </trkpt>
      <trkpt lat="48.70054" lon="2.54015">
        <ele>89</ele>
        <time>2024-01-22T14:34:36.204+00:00</time>
      </trkpt>
      <trkpt lat="48.7005" lon="2.5401">
        <ele>89</ele>
        <time>2024-01-22T14:34:40.148+00:00</time>
      </trkpt>
      <trkpt lat="48.70044" lon="2.54005">
        <ele>89</ele>
        <time>2024-01-22T14:34:44.689+00:00</time>
      </trkpt>
      <trkpt lat="48.7004" lon="2.53998">
        <ele>89</ele>
        <time>2024-01-22T14:34:49.110+00:00</time>
      </trkpt>
      <trkpt lat="48.70038" lon="2.53989">
        <ele>89</ele>
        <time>2024-01-22T14:34:52.932+00:00</time>
      </trkpt>
      <trkpt lat="48.70032" lon="2.53981">
        <ele>89</ele>
        <time>2024-01-22T14:34:57.526+00:00</time>
      </trkpt>
      <trkpt lat="48.70029" lon="2.53972">
        <ele>89</ele>
        <time>2024-01-22T14:35:01.967+00:00</time>
      </trkpt>
      <trkpt lat="48.7003" lon="2.53964">
        <ele>89</ele>
        <time>2024-01-22T14:35:06.091+00:00</time>
      </trkpt>
      <trkpt lat="48.7003" lon="2.53955">
        <ele>88</ele>
        <time>2024-01-22T14:35:10.620+00:00</time>
      </trkpt>
      <trkpt lat="48.70026" lon="2.53948">
        <ele>88</ele>
        <time>2024-01-22T14:35:15.215+00:00</time>
      </trkpt>
      <trkpt lat="48.7002" lon="2.53941">
        <ele>88</ele>
        <time>2024-01-22T14:35:19.822+00:00</time>
      </trkpt>
      <trkpt lat="48.70016" lon="2.53935">
        <ele>88</ele>
        <time>2024-01-22T14:35:23.766+00:00</time>
      </trkpt>
      <trkpt lat="48.70011" lon="2.53928">
        <ele>88</ele>
        <time>2024-01-22T14:35:28.190+00:00</time>
      </trkpt>
      <trkpt lat="48.70009" lon="2.53923">
        <ele>88</ele>
        <time>2024-01-22T14:35:32.016+00:00</time>
      </trkpt>
      <trkpt lat="48.70004" lon="2.53916">
        <ele>88</ele>
        <time>2024-01-22T14:35:36.438+00:00</time>
      </trkpt>
      <trkpt lat="48.7" lon="2.5391">
        <ele>88</ele>
        <time>2024-01-22T14:35:40.383+00:00</time>
      </trkpt>
      <trkpt lat="48.69995" lon="2.53904">
        <ele>88</ele>
        <time>2024-01-22T14:35:45.025+00:00</time>
      </trkpt>
      <trkpt lat="48.69991" lon="2.539">
        <ele>88</ele>
        <time>2024-01-22T14:35:48.970+00:00</time>
      </trkpt>
      <trkpt lat="48.69987" lon="2.53895">
        <ele>88</ele>
        <time>2024-01-22T14:35:53.035+00:00</time>
      </trkpt>
      <trkpt lat="48.69985" lon="2.53888">
        <ele>88</ele>
        <time>2024-01-22T14:35:57.576+00:00</time>
      </trkpt>
      <trkpt lat="48.69983" lon="2.53882">
        <ele>88</ele>
        <time>2024-01-22T14:36:01.999+00:00</time>
      </trkpt>
      <trkpt lat="48.69979" lon="2.53874">
        <ele>87</ele>
        <time>2024-01-22T14:36:07.094+00:00</time>
      </trkpt>
      <trkpt lat="48.69974" lon="2.53869">
        <ele>87</ele>
        <time>2024-01-22T14:36:11.084+00:00</time>
      </trkpt>
      <trkpt lat="48.69971" lon="2.53861">
        <ele>87</ele>
        <time>2024-01-22T14:36:15.029+00:00</time>
      </trkpt>
      <trkpt lat="48.69968" lon="2.53852">
        <ele>87</ele>
        <time>2024-01-22T14:36:19.690+00:00</time>
      </trkpt>
      <trkpt lat="48.69963" lon="2.53845">
        <ele>87</ele>
        <time>2024-01-22T14:36:24.193+00:00</time>
      </trkpt>
      <trkpt lat="48.69958" lon="2.53839">
        <ele>87</ele>
        <time>2024-01-22T14:36:28.651+00:00</time>
      </trkpt>
      <trkpt lat="48.69954" lon="2.53834">
        <ele>87</ele>
        <time>2024-01-22T14:36:32.714+00:00</time>
      </trkpt>
      <trkpt lat="48.69949" lon="2.53828">
        <ele>87</ele>
        <time>2024-01-22T14:36:37.254+00:00</time>
      </trkpt>
      <trkpt lat="48.69945" lon="2.53821">
        <ele>87</ele>
        <time>2024-01-22T14:36:41.437+00:00</time>
      </trkpt>
      <trkpt lat="48.69941" lon="2.53813">
        <ele>86</ele>
        <time>2024-01-22T14:36:45.773+00:00</time>
      </trkpt>
      <trkpt lat="48.69939" lon="2.53805">
        <ele>86</ele>
        <time>2024-01-22T14:36:49.684+00:00</time>
      </trkpt>
      <trkpt lat="48.69935" lon="2.53797">
        <ele>86</ele>
        <time>2024-01-22T14:36:54.147+00:00</time>
      </trkpt>
      <trkpt lat="48.69933" lon="2.53789">
        <ele>85</ele>
        <time>2024-01-22T14:36:58.168+00:00</time>
      </trkpt>
      <trkpt lat="48.69928" lon="2.53783">
        <ele>85</ele>
        <time>2024-01-22T14:37:01.994+00:00</time>
      </trkpt>
      <trkpt lat="48.69923" lon="2.53777">
        <ele>85</ele>
        <time>2024-01-22T14:37:06.612+00:00</time>
      </trkpt>
      <trkpt lat="48.6992" lon="2.5377">
        <ele>85</ele>
        <time>2024-01-22T14:37:10.526+00:00</time>
      </trkpt>
      <trkpt lat="48.69916" lon="2.53763">
        <ele>84</ele>
        <time>2024-01-22T14:37:14.988+00:00</time>
      </trkpt>
      <trkpt lat="48.69912" lon="2.53756">
        <ele>84</ele>
        <time>2024-01-22T14:37:19.249+00:00</time>
      </trkpt>
      <trkpt lat="48.69909" lon="2.53748">
        <ele>84</ele>
        <time>2024-01-22T14:37:23.269+00:00</time>
      </trkpt>
      <trkpt lat="48.69905" lon="2.53741">
        <ele>84</ele>
        <time>2024-01-22T14:37:27.288+00:00</time>
      </trkpt>
      <trkpt lat="48.69901" lon="2.53734">
        <ele>85</ele>
        <time>2024-01-22T14:37:31.873+00:00</time>
      </trkpt>
      <trkpt lat="48.69895" lon="2.53727">
        <ele>85</ele>
        <time>2024-01-22T14:37:36.416+00:00</time>
      </trkpt>
      <trkpt lat="48.69891" lon="2.53721">
        <ele>85</ele>
        <time>2024-01-22T14:37:40.938+00:00</time>
      </trkpt>
      <trkpt lat="48.69887" lon="2.53715">
        <ele>85</ele>
        <time>2024-01-22T14:37:45.001+00:00</time>
      </trkpt>
      <trkpt lat="48.69885" lon="2.53706">
        <ele>84</ele>
        <time>2024-01-22T14:37:49.422+00:00</time>
      </trkpt>
      <trkpt lat="48.6988" lon="2.53698">
        <ele>84</ele>
        <time>2024-01-22T14:37:53.842+00:00</time>
      </trkpt>
      <trkpt lat="48.69875" lon="2.53691">
        <ele>84</ele>
        <time>2024-01-22T14:37:59.034+00:00</time>
      </trkpt>
      <trkpt lat="48.69871" lon="2.53686">
        <ele>84</ele>
        <time>2024-01-22T14:38:02.807+00:00</time>
      </trkpt>
      <trkpt lat="48.69866" lon="2.53679">
        <ele>84</ele>
        <time>2024-01-22T14:38:07.295+00:00</time>
      </trkpt>
      <trkpt lat="48.69861" lon="2.53671">
        <ele>84</ele>
        <time>2024-01-22T14:38:11.774+00:00</time>
      </trkpt>
      <trkpt lat="48.69857" lon="2.53664">
        <ele>84</ele>
        <time>2024-01-22T14:38:16.268+00:00</time>
      </trkpt>
      <trkpt lat="48.69854" lon="2.53658">
        <ele>84</ele>
        <time>2024-01-22T14:38:20.261+00:00</time>
      </trkpt>
      <trkpt lat="48.69854" lon="2.53647">
        <ele>85</ele>
        <time>2024-01-22T14:38:24.708+00:00</time>
      </trkpt>
      <trkpt lat="48.69852" lon="2.53639">
        <ele>85</ele>
        <time>2024-01-22T14:38:28.728+00:00</time>
      </trkpt>
      <trkpt lat="48.69849" lon="2.5363">
        <ele>85</ele>
        <time>2024-01-22T14:38:33.195+00:00</time>
      </trkpt>
      <trkpt lat="48.69846" lon="2.53622">
        <ele>84</ele>
        <time>2024-01-22T14:38:38.097+00:00</time>
      </trkpt>
      <trkpt lat="48.69844" lon="2.53612">
        <ele>84</ele>
        <time>2024-01-22T14:38:42.117+00:00</time>
      </trkpt>
      <trkpt lat="48.69842" lon="2.53608">
        <ele>84</ele>
        <time>2024-01-22T14:38:46.061+00:00</time>
      </trkpt>
      <trkpt lat="48.69843" lon="2.53599">
        <ele>84</ele>
        <time>2024-01-22T14:38:50.526+00:00</time>
      </trkpt>
      <trkpt lat="48.6984" lon="2.5359">
        <ele>83</ele>
        <time>2024-01-22T14:38:55.009+00:00</time>
      </trkpt>
      <trkpt lat="48.69837" lon="2.53584">
        <ele>83</ele>
        <time>2024-01-22T14:38:58.852+00:00</time>
      </trkpt>
      <trkpt lat="48.69833" lon="2.53578">
        <ele>83</ele>
        <time>2024-01-22T14:39:02.795+00:00</time>
      </trkpt>
      <trkpt lat="48.69829" lon="2.53572">
        <ele>83</ele>
        <time>2024-01-22T14:39:07.097+00:00</time>
      </trkpt>
      <trkpt lat="48.69827" lon="2.53565">
        <ele>81</ele>
        <time>2024-01-22T14:39:11.158+00:00</time>
      </trkpt>
      <trkpt lat="48.69823" lon="2.53557">
        <ele>81</ele>
        <time>2024-01-22T14:39:15.698+00:00</time>
      </trkpt>
      <trkpt lat="48.69821" lon="2.53549">
        <ele>81</ele>
        <time>2024-01-22T14:39:19.862+00:00</time>
      </trkpt>
      <trkpt lat="48.69819" lon="2.53541">
        <ele>78</ele>
        <time>2024-01-22T14:39:24.030+00:00</time>
      </trkpt>
      <trkpt lat="48.69815" lon="2.53534">
        <ele>78</ele>
        <time>2024-01-22T14:39:28.098+00:00</time>
      </trkpt>
      <trkpt lat="48.6981" lon="2.53524">
        <ele>78</ele>
        <time>2024-01-22T14:39:33.242+00:00</time>
      </trkpt>
      <trkpt lat="48.69808" lon="2.53522">
        <ele>78</ele>
        <time>2024-01-22T14:39:35.037+00:00</time>
      </trkpt>
      <trkpt lat="48.69803" lon="2.53517">
        <ele>78</ele>
        <time>2024-01-22T14:39:43.707+00:00</time>
      </trkpt>
      <trkpt lat="48.69802" lon="2.53514">
        <ele>76</ele>
        <time>2024-01-22T14:39:48.211+00:00</time>
      </trkpt>
      <trkpt lat="48.69797" lon="2.53504">
        <ele>76</ele>
        <time>2024-01-22T14:39:52.471+00:00</time>
      </trkpt>
      <trkpt lat="48.69792" lon="2.53494">
        <ele>76</ele>
        <time>2024-01-22T14:39:56.850+00:00</time>
      </trkpt>
      <trkpt lat="48.6979" lon="2.53483">
        <ele>74</ele>
        <time>2024-01-22T14:40:00.790+00:00</time>
      </trkpt>
      <trkpt lat="48.69786" lon="2.53473">
        <ele>74</ele>
        <time>2024-01-22T14:40:05.690+00:00</time>
      </trkpt>
      <trkpt lat="48.69783" lon="2.53465">
        <ele>74</ele>
        <time>2024-01-22T14:40:10.371+00:00</time>
      </trkpt>
      <trkpt lat="48.69779" lon="2.53457">
        <ele>71</ele>
        <time>2024-01-22T14:40:14.675+00:00</time>
      </trkpt>
      <trkpt lat="48.69776" lon="2.53451">
        <ele>71</ele>
        <time>2024-01-22T14:40:19.234+00:00</time>
      </trkpt>
      <trkpt lat="48.69781" lon="2.53441">
        <ele>71</ele>
        <time>2024-01-22T14:40:23.061+00:00</time>
      </trkpt>
      <trkpt lat="48.6978" lon="2.53429">
        <ele>69</ele>
        <time>2024-01-22T14:40:27.679+00:00</time>
      </trkpt>
      <trkpt lat="48.69779" lon="2.53423">
        <ele>69</ele>
        <time>2024-01-22T14:40:31.632+00:00</time>
      </trkpt>
      <trkpt lat="48.69777" lon="2.53418">
        <ele>69</ele>
        <time>2024-01-22T14:40:35.819+00:00</time>
      </trkpt>
      <trkpt lat="48.69775" lon="2.53409">
        <ele>69</ele>
        <time>2024-01-22T14:40:40.374+00:00</time>
      </trkpt>
      <trkpt lat="48.69776" lon="2.53403">
        <ele>69</ele>
        <time>2024-01-22T14:40:44.804+00:00</time>
      </trkpt>
      <trkpt lat="48.69781" lon="2.53401">
        <ele>67</ele>
        <time>2024-01-22T14:40:50.015+00:00</time>
      </trkpt>
      <trkpt lat="48.69786" lon="2.53396">
        <ele>67</ele>
        <time>2024-01-22T14:40:54.022+00:00</time>
      </trkpt>
      <trkpt lat="48.6979" lon="2.53389">
        <ele>67</ele>
        <time>2024-01-22T14:40:57.851+00:00</time>
      </trkpt>
      <trkpt lat="48.69795" lon="2.53382">
        <ele>68</ele>
        <time>2024-01-22T14:41:01.800+00:00</time>
      </trkpt>
      <trkpt lat="48.69802" lon="2.53379">
        <ele>68</ele>
        <time>2024-01-22T14:41:06.467+00:00</time>
      </trkpt>
      <trkpt lat="48.69806" lon="2.53379">
        <ele>68</ele>
        <time>2024-01-22T14:41:10.636+00:00</time>
      </trkpt>
      <trkpt lat="48.69811" lon="2.53378">
        <ele>68</ele>
        <time>2024-01-22T14:41:15.044+00:00</time>
      </trkpt>
      <trkpt lat="48.69817" lon="2.53376">
        <ele>68</ele>
        <time>2024-01-22T14:41:18.872+00:00</time>
      </trkpt>
      <trkpt lat="48.69823" lon="2.53374">
        <ele>66</ele>
        <time>2024-01-22T14:41:23.526+00:00</time>
      </trkpt>
      <trkpt lat="48.69828" lon="2.5337">
        <ele>66</ele>
        <time>2024-01-22T14:41:27.930+00:00</time>
      </trkpt>
      <trkpt lat="48.69834" lon="2.53368">
        <ele>66</ele>
        <time>2024-01-22T14:41:32.080+00:00</time>
      </trkpt>
      <trkpt lat="48.69841" lon="2.53367">
        <ele>66</ele>
        <time>2024-01-22T14:41:36.031+00:00</time>
      </trkpt>
      <trkpt lat="48.69847" lon="2.53365">
        <ele>66</ele>
        <time>2024-01-22T14:41:40.101+00:00</time>
      </trkpt>
      <trkpt lat="48.69853" lon="2.53362">
        <ele>66</ele>
        <time>2024-01-22T14:41:44.588+00:00</time>
      </trkpt>
      <trkpt lat="48.69857" lon="2.5336">
        <ele>66</ele>
        <time>2024-01-22T14:41:48.955+00:00</time>
      </trkpt>
      <trkpt lat="48.69859" lon="2.53357">
        <ele>66</ele>
        <time>2024-01-22T14:41:53.018+00:00</time>
      </trkpt>
      <trkpt lat="48.69863" lon="2.53352">
        <ele>66</ele>
        <time>2024-01-22T14:41:57.495+00:00</time>
      </trkpt>
      <trkpt lat="48.69864" lon="2.53348">
        <ele>66</ele>
        <time>2024-01-22T14:42:01.508+00:00</time>
      </trkpt>
      <trkpt lat="48.69867" lon="2.53346">
        <ele>64</ele>
        <time>2024-01-22T14:42:05.334+00:00</time>
      </trkpt>
      <trkpt lat="48.69871" lon="2.53346">
        <ele>64</ele>
        <time>2024-01-22T14:42:10.010+00:00</time>
      </trkpt>
      <trkpt lat="48.69875" lon="2.53349">
        <ele>66</ele>
        <time>2024-01-22T14:42:13.823+00:00</time>
      </trkpt>
      <trkpt lat="48.69881" lon="2.53351">
        <ele>66</ele>
        <time>2024-01-22T14:42:18.280+00:00</time>
      </trkpt>
      <trkpt lat="48.69887" lon="2.53351">
        <ele>66</ele>
        <time>2024-01-22T14:42:22.790+00:00</time>
      </trkpt>
      <trkpt lat="48.69892" lon="2.5335">
        <ele>66</ele>
        <time>2024-01-22T14:42:27.212+00:00</time>
      </trkpt>
      <trkpt lat="48.69897" lon="2.53349">
        <ele>66</ele>
        <time>2024-01-22T14:42:31.278+00:00</time>
      </trkpt>
      <trkpt lat="48.69903" lon="2.53352">
        <ele>66</ele>
        <time>2024-01-22T14:42:35.822+00:00</time>
      </trkpt>
      <trkpt lat="48.69908" lon="2.53356">
        <ele>66</ele>
        <time>2024-01-22T14:42:39.886+00:00</time>
      </trkpt>
      <trkpt lat="48.69913" lon="2.53364">
        <ele>66</ele>
        <time>2024-01-22T14:42:45.028+00:00</time>
      </trkpt>
      <trkpt lat="48.69916" lon="2.53369">
        <ele>66</ele>
        <time>2024-01-22T14:42:49.093+00:00</time>
      </trkpt>
      <trkpt lat="48.69921" lon="2.53371">
        <ele>66</ele>
        <time>2024-01-22T14:42:53.279+00:00</time>
      </trkpt>
      <trkpt lat="48.69928" lon="2.53371">
        <ele>66</ele>
        <time>2024-01-22T14:42:57.822+00:00</time>
      </trkpt>
      <trkpt lat="48.69934" lon="2.5337">
        <ele>67</ele>
        <time>2024-01-22T14:43:01.770+00:00</time>
      </trkpt>
      <trkpt lat="48.69941" lon="2.53368">
        <ele>67</ele>
        <time>2024-01-22T14:43:06.342+00:00</time>
      </trkpt>
      <trkpt lat="48.69948" lon="2.5336">
        <ele>67</ele>
        <time>2024-01-22T14:43:10.354+00:00</time>
      </trkpt>
      <trkpt lat="48.69955" lon="2.53357">
        <ele>67</ele>
        <time>2024-01-22T14:43:14.790+00:00</time>
      </trkpt>
      <trkpt lat="48.6996" lon="2.5336">
        <ele>66</ele>
        <time>2024-01-22T14:43:19.249+00:00</time>
      </trkpt>
      <trkpt lat="48.69965" lon="2.5336">
        <ele>66</ele>
        <time>2024-01-22T14:43:24.054+00:00</time>
      </trkpt>
      <trkpt lat="48.69971" lon="2.53355">
        <ele>66</ele>
        <time>2024-01-22T14:43:27.986+00:00</time>
      </trkpt>
      <trkpt lat="48.6998" lon="2.53353">
        <ele>66</ele>
        <time>2024-01-22T14:43:32.413+00:00</time>
      </trkpt>
      <trkpt lat="48.69987" lon="2.53352">
        <ele>67</ele>
        <time>2024-01-22T14:43:36.973+00:00</time>
      </trkpt>
      <trkpt lat="48.69993" lon="2.53349">
        <ele>67</ele>
        <time>2024-01-22T14:43:41.030+00:00</time>
      </trkpt>
      <trkpt lat="48.69998" lon="2.53345">
        <ele>65</ele>
        <time>2024-01-22T14:43:45.098+00:00</time>
      </trkpt>
      <trkpt lat="48.70004" lon="2.53342">
        <ele>65</ele>
        <time>2024-01-22T14:43:50.263+00:00</time>
      </trkpt>
      <trkpt lat="48.7001" lon="2.53339">
        <ele>65</ele>
        <time>2024-01-22T14:43:54.654+00:00</time>
      </trkpt>
      <trkpt lat="48.70015" lon="2.53335">
        <ele>66</ele>
        <time>2024-01-22T14:43:59.085+00:00</time>
      </trkpt>
      <trkpt lat="48.7002" lon="2.53332">
        <ele>66</ele>
        <time>2024-01-22T14:44:03.547+00:00</time>
      </trkpt>
      <trkpt lat="48.70025" lon="2.53331">
        <ele>66</ele>
        <time>2024-01-22T14:44:07.526+00:00</time>
      </trkpt>
      <trkpt lat="48.7003" lon="2.53327">
        <ele>66</ele>
        <time>2024-01-22T14:44:12.130+00:00</time>
      </trkpt>
      <trkpt lat="48.70035" lon="2.53326">
        <ele>66</ele>
        <time>2024-01-22T14:44:16.078+00:00</time>
      </trkpt>
      <trkpt lat="48.70043" lon="2.53325">
        <ele>67</ele>
        <time>2024-01-22T14:44:21.065+00:00</time>
      </trkpt>
      <trkpt lat="48.7005" lon="2.53324">
        <ele>67</ele>
        <time>2024-01-22T14:44:24.813+00:00</time>
      </trkpt>
      <trkpt lat="48.70058" lon="2.53323">
        <ele>67</ele>
        <time>2024-01-22T14:44:29.790+00:00</time>
      </trkpt>
      <trkpt lat="48.70063" lon="2.53322">
        <ele>67</ele>
        <time>2024-01-22T14:44:33.546+00:00</time>
      </trkpt>
      <trkpt lat="48.7007" lon="2.53322">
        <ele>67</ele>
        <time>2024-01-22T14:44:37.954+00:00</time>
      </trkpt>
      <trkpt lat="48.70075" lon="2.5332">
        <ele>67</ele>
        <time>2024-01-22T14:44:42.740+00:00</time>
      </trkpt>
      <trkpt lat="48.7008" lon="2.53317">
        <ele>66</ele>
        <time>2024-01-22T14:44:47.110+00:00</time>
      </trkpt>
      <trkpt lat="48.70086" lon="2.53316">
        <ele>66</ele>
        <time>2024-01-22T14:44:50.999+00:00</time>
      </trkpt>
      <trkpt lat="48.70091" lon="2.53314">
        <ele>66</ele>
        <time>2024-01-22T14:44:55.526+00:00</time>
      </trkpt>
      <trkpt lat="48.70097" lon="2.53313">
        <ele>66</ele>
        <time>2024-01-22T14:44:59.978+00:00</time>
      </trkpt>
      <trkpt lat="48.70103" lon="2.53314">
        <ele>65</ele>
        <time>2024-01-22T14:45:03.995+00:00</time>
      </trkpt>
      <trkpt lat="48.70107" lon="2.53307">
        <ele>65</ele>
        <time>2024-01-22T14:45:08.290+00:00</time>
      </trkpt>
      <trkpt lat="48.70112" lon="2.53302">
        <ele>65</ele>
        <time>2024-01-22T14:45:12.383+00:00</time>
      </trkpt>
      <trkpt lat="48.70119" lon="2.53295">
        <ele>65</ele>
        <time>2024-01-22T14:45:16.816+00:00</time>
      </trkpt>
      <trkpt lat="48.70125" lon="2.53289">
        <ele>63</ele>
        <time>2024-01-22T14:45:21.370+00:00</time>
      </trkpt>
      <trkpt lat="48.70131" lon="2.53284">
        <ele>61</ele>
        <time>2024-01-22T14:45:25.447+00:00</time>
      </trkpt>
      <trkpt lat="48.70132" lon="2.53279">
        <ele>61</ele>
        <time>2024-01-22T14:45:29.522+00:00</time>
      </trkpt>
      <trkpt lat="48.70136" lon="2.53274">
        <ele>61</ele>
        <time>2024-01-22T14:45:34.074+00:00</time>
      </trkpt>
      <trkpt lat="48.70142" lon="2.5327">
        <ele>61</ele>
        <time>2024-01-22T14:45:38.027+00:00</time>
      </trkpt>
      <trkpt lat="48.70148" lon="2.53267">
        <ele>61</ele>
        <time>2024-01-22T14:45:42.696+00:00</time>
      </trkpt>
      <trkpt lat="48.70153" lon="2.53265">
        <ele>61</ele>
        <time>2024-01-22T14:45:47.238+00:00</time>
      </trkpt>
      <trkpt lat="48.70158" lon="2.53264">
        <ele>61</ele>
        <time>2024-01-22T14:45:51.079+00:00</time>
      </trkpt>
      <trkpt lat="48.70163" lon="2.53264">
        <ele>61</ele>
        <time>2024-01-22T14:45:55.629+00:00</time>
      </trkpt>
      <trkpt lat="48.70168" lon="2.53263">
        <ele>61</ele>
        <time>2024-01-22T14:46:00.236+00:00</time>
      </trkpt>
      <trkpt lat="48.70171" lon="2.53262">
        <ele>61</ele>
        <time>2024-01-22T14:46:04.238+00:00</time>
      </trkpt>
      <trkpt lat="48.70174" lon="2.53255">
        <ele>61</ele>
        <time>2024-01-22T14:46:08.858+00:00</time>
      </trkpt>
      <trkpt lat="48.70174" lon="2.53247">
        <ele>61</ele>
        <time>2024-01-22T14:46:12.927+00:00</time>
      </trkpt>
      <trkpt lat="48.70179" lon="2.53239">
        <ele>61</ele>
        <time>2024-01-22T14:46:17.475+00:00</time>
      </trkpt>
      <trkpt lat="48.70181" lon="2.53231">
        <ele>61</ele>
        <time>2024-01-22T14:46:22.141+00:00</time>
      </trkpt>
      <trkpt lat="48.70182" lon="2.53224">
        <ele>61</ele>
        <time>2024-01-22T14:46:25.970+00:00</time>
      </trkpt>
      <trkpt lat="48.70184" lon="2.53213">
        <ele>61</ele>
        <time>2024-01-22T14:46:30.648+00:00</time>
      </trkpt>
      <trkpt lat="48.70186" lon="2.53206">
        <ele>57</ele>
        <time>2024-01-22T14:46:34.706+00:00</time>
      </trkpt>
      <trkpt lat="48.70187" lon="2.53199">
        <ele>57</ele>
        <time>2024-01-22T14:46:38.656+00:00</time>
      </trkpt>
      <trkpt lat="48.70187" lon="2.53192">
        <ele>57</ele>
        <time>2024-01-22T14:46:42.728+00:00</time>
      </trkpt>
      <trkpt lat="48.70187" lon="2.53184">
        <ele>57</ele>
        <time>2024-01-22T14:46:47.161+00:00</time>
      </trkpt>
      <trkpt lat="48.70188" lon="2.53175">
        <ele>52</ele>
        <time>2024-01-22T14:46:51.177+00:00</time>
      </trkpt>
      <trkpt lat="48.70189" lon="2.53164">
        <ele>52</ele>
        <time>2024-01-22T14:46:55.793+00:00</time>
      </trkpt>
      <trkpt lat="48.70191" lon="2.53156">
        <ele>52</ele>
        <time>2024-01-22T14:46:59.683+00:00</time>
      </trkpt>
      <trkpt lat="48.70193" lon="2.53147">
        <ele>49</ele>
        <time>2024-01-22T14:47:04.233+00:00</time>
      </trkpt>
      <trkpt lat="48.70196" lon="2.53138">
        <ele>49</ele>
        <time>2024-01-22T14:47:08.815+00:00</time>
      </trkpt>
      <trkpt lat="48.70197" lon="2.53131">
        <ele>49</ele>
        <time>2024-01-22T14:47:12.853+00:00</time>
      </trkpt>
      <trkpt lat="48.702" lon="2.53122">
        <ele>48</ele>
        <time>2024-01-22T14:47:16.803+00:00</time>
      </trkpt>
      <trkpt lat="48.70204" lon="2.53117">
        <ele>48</ele>
        <time>2024-01-22T14:47:20.752+00:00</time>
      </trkpt>
      <trkpt lat="48.7021" lon="2.53115">
        <ele>51</ele>
        <time>2024-01-22T14:47:24.822+00:00</time>
      </trkpt>
      <trkpt lat="48.70215" lon="2.5311">
        <ele>51</ele>
        <time>2024-01-22T14:47:29.728+00:00</time>
      </trkpt>
      <trkpt lat="48.7022" lon="2.53105">
        <ele>51</ele>
        <time>2024-01-22T14:47:34.239+00:00</time>
      </trkpt>
      <trkpt lat="48.70224" lon="2.53101">
        <ele>51</ele>
        <time>2024-01-22T14:47:38.225+00:00</time>
      </trkpt>
      <trkpt lat="48.7023" lon="2.53095">
        <ele>49</ele>
        <time>2024-01-22T14:47:42.652+00:00</time>
      </trkpt>
      <trkpt lat="48.70233" lon="2.53093">
        <ele>49</ele>
        <time>2024-01-22T14:47:47.239+00:00</time>
      </trkpt>
      <trkpt lat="48.70238" lon="2.53088">
        <ele>52</ele>
        <time>2024-01-22T14:47:51.237+00:00</time>
      </trkpt>
      <trkpt lat="48.70245" lon="2.53079">
        <ele>52</ele>
        <time>2024-01-22T14:47:55.818+00:00</time>
      </trkpt>
      <trkpt lat="48.70247" lon="2.53072">
        <ele>52</ele>
        <time>2024-01-22T14:48:00.365+00:00</time>
      </trkpt>
      <trkpt lat="48.7025" lon="2.53065">
        <ele>48</ele>
        <time>2024-01-22T14:48:04.434+00:00</time>
      </trkpt>
      <trkpt lat="48.70252" lon="2.53056">
        <ele>48</ele>
        <time>2024-01-22T14:48:08.862+00:00</time>
      </trkpt>
      <trkpt lat="48.70254" lon="2.53048">
        <ele>48</ele>
        <time>2024-01-22T14:48:13.409+00:00</time>
      </trkpt>
      <trkpt lat="48.70257" lon="2.53041">
        <ele>45</ele>
        <time>2024-01-22T14:48:17.717+00:00</time>
      </trkpt>
      <trkpt lat="48.70261" lon="2.53036">
        <ele>45</ele>
        <time>2024-01-22T14:48:21.665+00:00</time>
      </trkpt>
      <trkpt lat="48.70263" lon="2.53029">
        <ele>45</ele>
        <time>2024-01-22T14:48:25.695+00:00</time>
      </trkpt>
      <trkpt lat="48.70265" lon="2.53022">
        <ele>48</ele>
        <time>2024-01-22T14:48:29.526+00:00</time>
      </trkpt>
      <trkpt lat="48.70266" lon="2.53015">
        <ele>48</ele>
        <time>2024-01-22T14:48:34.035+00:00</time>
      </trkpt>
      <trkpt lat="48.70268" lon="2.53006">
        <ele>46</ele>
        <time>2024-01-22T14:48:38.103+00:00</time>
      </trkpt>
      <trkpt lat="48.70271" lon="2.52998">
        <ele>46</ele>
        <time>2024-01-22T14:48:42.051+00:00</time>
      </trkpt>
      <trkpt lat="48.70276" lon="2.5299">
        <ele>46</ele>
        <time>2024-01-22T14:48:46.477+00:00</time>
      </trkpt>
      <trkpt lat="48.70279" lon="2.52983">
        <ele>45</ele>
        <time>2024-01-22T14:48:50.526+00:00</time>
      </trkpt>
      <trkpt lat="48.70283" lon="2.52976">
        <ele>45</ele>
        <time>2024-01-22T14:48:54.526+00:00</time>
      </trkpt>
      <trkpt lat="48.70286" lon="2.52971">
        <ele>45</ele>
        <time>2024-01-22T14:48:58.440+00:00</time>
      </trkpt>
      <trkpt lat="48.70288" lon="2.52964">
        <ele>45</ele>
        <time>2024-01-22T14:49:02.507+00:00</time>
      </trkpt>
      <trkpt lat="48.70291" lon="2.52957">
        <ele>44</ele>
        <time>2024-01-22T14:49:07.053+00:00</time>
      </trkpt>
      <trkpt lat="48.70294" lon="2.52952">
        <ele>47</ele>
        <time>2024-01-22T14:49:11.233+00:00</time>
      </trkpt>
      <trkpt lat="48.70298" lon="2.52946">
        <ele>47</ele>
        <time>2024-01-22T14:49:15.069+00:00</time>
      </trkpt>
      <trkpt lat="48.70303" lon="2.52941">
        <ele>47</ele>
        <time>2024-01-22T14:49:19.617+00:00</time>
      </trkpt>
      <trkpt lat="48.70307" lon="2.52935">
        <ele>47</ele>
        <time>2024-01-22T14:49:23.667+00:00</time>
      </trkpt>
      <trkpt lat="48.70311" lon="2.52931">
        <ele>47</ele>
        <time>2024-01-22T14:49:27.526+00:00</time>
      </trkpt>
      <trkpt lat="48.70317" lon="2.52926">
        <ele>44</ele>
        <time>2024-01-22T14:49:32.045+00:00</time>
      </trkpt>
      <trkpt lat="48.70322" lon="2.52923">
        <ele>46</ele>
        <time>2024-01-22T14:49:36.214+00:00</time>
      </trkpt>
      <trkpt lat="48.70327" lon="2.5292">
        <ele>46</ele>
        <time>2024-01-22T14:49:39.824+00:00</time>
      </trkpt>
      <trkpt lat="48.70333" lon="2.52919">
        <ele>46</ele>
        <time>2024-01-22T14:49:44.850+00:00</time>
      </trkpt>
      <trkpt lat="48.70338" lon="2.52915">
        <ele>46</ele>
        <time>2024-01-22T14:49:49.037+00:00</time>
      </trkpt>
      <trkpt lat="48.70341" lon="2.52911">
        <ele>46</ele>
        <time>2024-01-22T14:49:52.984+00:00</time>
      </trkpt>
      <trkpt lat="48.70345" lon="2.52904">
        <ele>46</ele>
        <time>2024-01-22T14:49:58.129+00:00</time>
      </trkpt>
      <trkpt lat="48.70349" lon="2.52895">
        <ele>44</ele>
        <time>2024-01-22T14:50:02.043+00:00</time>
      </trkpt>
      <trkpt lat="48.70354" lon="2.52888">
        <ele>44</ele>
        <time>2024-01-22T14:50:06.145+00:00</time>
      </trkpt>
      <trkpt lat="48.70362" lon="2.52886">
        <ele>44</ele>
        <time>2024-01-22T14:50:10.648+00:00</time>
      </trkpt>
      <trkpt lat="48.70368" lon="2.5288">
        <ele>44</ele>
        <time>2024-01-22T14:50:15.153+00:00</time>
      </trkpt>
      <trkpt lat="48.70369" lon="2.52877">
        <ele>44</ele>
        <time>2024-01-22T14:50:19.160+00:00</time>
      </trkpt>
      <trkpt lat="48.70375" lon="2.52869">
        <ele>44</ele>
        <time>2024-01-22T14:50:23.667+00:00</time>
      </trkpt>
      <trkpt lat="48.70384" lon="2.52866">
        <ele>44</ele>
        <time>2024-01-22T14:50:27.672+00:00</time>
      </trkpt>
      <trkpt lat="48.7039" lon="2.5286">
        <ele>44</ele>
        <time>2024-01-22T14:50:32.179+00:00</time>
      </trkpt>
      <trkpt lat="48.70393" lon="2.52855">
        <ele>44</ele>
        <time>2024-01-22T14:50:36.189+00:00</time>
      </trkpt>
      <trkpt lat="48.70398" lon="2.52852">
        <ele>44</ele>
        <time>2024-01-22T14:50:40.201+00:00</time>
      </trkpt>
      <trkpt lat="48.70404" lon="2.52845">
        <ele>47</ele>
        <time>2024-01-22T14:50:44.713+00:00</time>
      </trkpt>
      <trkpt lat="48.70408" lon="2.52839">
        <ele>47</ele>
        <time>2024-01-22T14:50:48.723+00:00</time>
      </trkpt>
      <trkpt lat="48.70412" lon="2.52835">
        <ele>47</ele>
        <time>2024-01-22T14:50:52.832+00:00</time>
      </trkpt>
      <trkpt lat="48.70416" lon="2.52829">
        <ele>47</ele>
        <time>2024-01-22T14:50:57.443+00:00</time>
      </trkpt>
      <trkpt lat="48.70419" lon="2.52823">
        <ele>47</ele>
        <time>2024-01-22T14:51:01.452+00:00</time>
      </trkpt>
      <trkpt lat="48.70422" lon="2.52816">
        <ele>45</ele>
        <time>2024-01-22T14:51:05.460+00:00</time>
      </trkpt>
      <trkpt lat="48.70425" lon="2.52809">
        <ele>45</ele>
        <time>2024-01-22T14:51:09.968+00:00</time>
      </trkpt>
      <trkpt lat="48.70428" lon="2.52804">
        <ele>45</ele>
        <time>2024-01-22T14:51:13.973+00:00</time>
      </trkpt>
      <trkpt lat="48.70433" lon="2.528">
        <ele>47</ele>
        <time>2024-01-22T14:51:18.513+00:00</time>
      </trkpt>
      <trkpt lat="48.70437" lon="2.52793">
        <ele>47</ele>
        <time>2024-01-22T14:51:23.131+00:00</time>
      </trkpt>
      <trkpt lat="48.70443" lon="2.52787">
        <ele>46</ele>
        <time>2024-01-22T14:51:27.085+00:00</time>
      </trkpt>
      <trkpt lat="48.70447" lon="2.52783">
        <ele>46</ele>
        <time>2024-01-22T14:51:31.611+00:00</time>
      </trkpt>
      <trkpt lat="48.7045" lon="2.52777">
        <ele>46</ele>
        <time>2024-01-22T14:51:35.526+00:00</time>
      </trkpt>
      <trkpt lat="48.70455" lon="2.52768">
        <ele>46</ele>
        <time>2024-01-22T14:51:40.027+00:00</time>
      </trkpt>
      <trkpt lat="48.7046" lon="2.52762">
        <ele>47</ele>
        <time>2024-01-22T14:51:43.859+00:00</time>
      </trkpt>
      <trkpt lat="48.70465" lon="2.52755">
        <ele>47</ele>
        <time>2024-01-22T14:51:48.852+00:00</time>
      </trkpt>
      <trkpt lat="48.70468" lon="2.52745">
        <ele>47</ele>
        <time>2024-01-22T14:51:53.402+00:00</time>
      </trkpt>
      <trkpt lat="48.70472" lon="2.52736">
        <ele>44</ele>
        <time>2024-01-22T14:51:57.951+00:00</time>
      </trkpt>
      <trkpt lat="48.70475" lon="2.52727">
        <ele>44</ele>
        <time>2024-01-22T14:52:01.783+00:00</time>
      </trkpt>
      <trkpt lat="48.70477" lon="2.52717">
        <ele>44</ele>
        <time>2024-01-22T14:52:06.425+00:00</time>
      </trkpt>
      <trkpt lat="48.70478" lon="2.52708">
        <ele>43</ele>
        <time>2024-01-22T14:52:10.824+00:00</time>
      </trkpt>
      <trkpt lat="48.7048" lon="2.52702">
        <ele>43</ele>
        <time>2024-01-22T14:52:14.775+00:00</time>
      </trkpt>
      <trkpt lat="48.70483" lon="2.52696">
        <ele>43</ele>
        <time>2024-01-22T14:52:18.844+00:00</time>
      </trkpt>
      <trkpt lat="48.70487" lon="2.52694">
        <ele>47</ele>
        <time>2024-01-22T14:52:22.777+00:00</time>
      </trkpt>
      <trkpt lat="48.70494" lon="2.5269">
        <ele>47</ele>
        <time>2024-01-22T14:52:27.807+00:00</time>
      </trkpt>
      <trkpt lat="48.70498" lon="2.52688">
        <ele>47</ele>
        <time>2024-01-22T14:52:31.876+00:00</time>
      </trkpt>
      <trkpt lat="48.70503" lon="2.52682">
        <ele>47</ele>
        <time>2024-01-22T14:52:36.425+00:00</time>
      </trkpt>
      <trkpt lat="48.7051" lon="2.52679">
        <ele>47</ele>
        <time>2024-01-22T14:52:40.855+00:00</time>
      </trkpt>
      <trkpt lat="48.70514" lon="2.52673">
        <ele>47</ele>
        <time>2024-01-22T14:52:45.284+00:00</time>
      </trkpt>
      <trkpt lat="48.70516" lon="2.52667">
        <ele>52</ele>
        <time>2024-01-22T14:52:49.714+00:00</time>
      </trkpt>
      <trkpt lat="48.70517" lon="2.52661">
        <ele>52</ele>
        <time>2024-01-22T14:52:53.665+00:00</time>
      </trkpt>
      <trkpt lat="48.70518" lon="2.52653">
        <ele>52</ele>
        <time>2024-01-22T14:52:58.094+00:00</time>
      </trkpt>
      <trkpt lat="48.70519" lon="2.52644">
        <ele>51</ele>
        <time>2024-01-22T14:53:02.642+00:00</time>
      </trkpt>
      <trkpt lat="48.7052" lon="2.52634">
        <ele>51</ele>
        <time>2024-01-22T14:53:07.132+00:00</time>
      </trkpt>
      <trkpt lat="48.70522" lon="2.52627">
        <ele>51</ele>
        <time>2024-01-22T14:53:10.902+00:00</time>
      </trkpt>
      <trkpt lat="48.70524" lon="2.5262">
        <ele>49</ele>
        <time>2024-01-22T14:53:15.213+00:00</time>
      </trkpt>
      <trkpt lat="48.70527" lon="2.52611">
        <ele>49</ele>
        <time>2024-01-22T14:53:19.524+00:00</time>
      </trkpt>
      <trkpt lat="48.70529" lon="2.52605">
        <ele>49</ele>
        <time>2024-01-22T14:53:24.071+00:00</time>
      </trkpt>
      <trkpt lat="48.7053" lon="2.52597">
        <ele>47</ele>
        <time>2024-01-22T14:53:28.020+00:00</time>
      </trkpt>
      <trkpt lat="48.70534" lon="2.52587">
        <ele>47</ele>
        <time>2024-01-22T14:53:32.526+00:00</time>
      </trkpt>
      <trkpt lat="48.70535" lon="2.52579">
        <ele>47</ele>
        <time>2024-01-22T14:53:36.636+00:00</time>
      </trkpt>
      <trkpt lat="48.70537" lon="2.5257">
        <ele>47</ele>
        <time>2024-01-22T14:53:40.805+00:00</time>
      </trkpt>
      <trkpt lat="48.70538" lon="2.52561">
        <ele>46</ele>
        <time>2024-01-22T14:53:45.351+00:00</time>
      </trkpt>
      <trkpt lat="48.70538" lon="2.52552">
        <ele>46</ele>
        <time>2024-01-22T14:53:49.729+00:00</time>
      </trkpt>
      <trkpt lat="48.70537" lon="2.52545">
        <ele>46</ele>
        <time>2024-01-22T14:53:53.988+00:00</time>
      </trkpt>
      <trkpt lat="48.70537" lon="2.52537">
        <ele>45</ele>
        <time>2024-01-22T14:53:58.031+00:00</time>
      </trkpt>
      <trkpt lat="48.70537" lon="2.52529">
        <ele>45</ele>
        <time>2024-01-22T14:54:02.099+00:00</time>
      </trkpt>
      <trkpt lat="48.7054" lon="2.52521">
        <ele>45</ele>
        <time>2024-01-22T14:54:06.646+00:00</time>
      </trkpt>
      <trkpt lat="48.70542" lon="2.52513">
        <ele>50</ele>
        <time>2024-01-22T14:54:11.174+00:00</time>
      </trkpt>
      <trkpt lat="48.70542" lon="2.52504">
        <ele>50</ele>
        <time>2024-01-22T14:54:15.244+00:00</time>
      </trkpt>
      <trkpt lat="48.70541" lon="2.52497">
        <ele>45</ele>
        <time>2024-01-22T14:54:20.025+00:00</time>
      </trkpt>
      <trkpt lat="48.70541" lon="2.52489">
        <ele>45</ele>
        <time>2024-01-22T14:54:23.981+00:00</time>
      </trkpt>
      <trkpt lat="48.70541" lon="2.52483">
        <ele>45</ele>
        <time>2024-01-22T14:54:27.810+00:00</time>
      </trkpt>
      <trkpt lat="48.70541" lon="2.52476">
        <ele>45</ele>
        <time>2024-01-22T14:54:32.808+00:00</time>
      </trkpt>
      <trkpt lat="48.70542" lon="2.52467">
        <ele>48</ele>
        <time>2024-01-22T14:54:36.665+00:00</time>
      </trkpt>
      <trkpt lat="48.70545" lon="2.52459">
        <ele>48</ele>
        <time>2024-01-22T14:54:41.092+00:00</time>
      </trkpt>
      <trkpt lat="48.70545" lon="2.5245">
        <ele>47</ele>
        <time>2024-01-22T14:54:45.039+00:00</time>
      </trkpt>
      <trkpt lat="48.70541" lon="2.52441">
        <ele>44</ele>
        <time>2024-01-22T14:54:49.251+00:00</time>
      </trkpt>
      <trkpt lat="48.7054" lon="2.52431">
        <ele>44</ele>
        <time>2024-01-22T14:54:53.772+00:00</time>
      </trkpt>
      <trkpt lat="48.70538" lon="2.52422">
        <ele>43</ele>
        <time>2024-01-22T14:54:58.319+00:00</time>
      </trkpt>
      <trkpt lat="48.70536" lon="2.52413">
        <ele>43</ele>
        <time>2024-01-22T14:55:02.625+00:00</time>
      </trkpt>
      <trkpt lat="48.70535" lon="2.52405">
        <ele>43</ele>
        <time>2024-01-22T14:55:06.692+00:00</time>
      </trkpt>
      <trkpt lat="48.70534" lon="2.52397">
        <ele>43</ele>
        <time>2024-01-22T14:55:11.236+00:00</time>
      </trkpt>
      <trkpt lat="48.70533" lon="2.5239">
        <ele>43</ele>
        <time>2024-01-22T14:55:15.526+00:00</time>
      </trkpt>
      <trkpt lat="48.70531" lon="2.52382">
        <ele>43</ele>
        <time>2024-01-22T14:55:19.849+00:00</time>
      </trkpt>
      <trkpt lat="48.70529" lon="2.52375">
        <ele>44</ele>
        <time>2024-01-22T14:55:24.156+00:00</time>
      </trkpt>
      <trkpt lat="48.70527" lon="2.52367">
        <ele>44</ele>
        <time>2024-01-22T14:55:28.711+00:00</time>
      </trkpt>
      <trkpt lat="48.70526" lon="2.52359">
        <ele>44</ele>
        <time>2024-01-22T14:55:33.047+00:00</time>
      </trkpt>
      <trkpt lat="48.70527" lon="2.52351">
        <ele>44</ele>
        <time>2024-01-22T14:55:36.837+00:00</time>
      </trkpt>
      <trkpt lat="48.70527" lon="2.52342">
        <ele>45</ele>
        <time>2024-01-22T14:55:41.526+00:00</time>
      </trkpt>
      <trkpt lat="48.70526" lon="2.52333">
        <ele>45</ele>
        <time>2024-01-22T14:55:45.454+00:00</time>
      </trkpt>
      <trkpt lat="48.70523" lon="2.52324">
        <ele>45</ele>
        <time>2024-01-22T14:55:50.119+00:00</time>
      </trkpt>
      <trkpt lat="48.7052" lon="2.52316">
        <ele>47</ele>
        <time>2024-01-22T14:55:54.526+00:00</time>
      </trkpt>
      <trkpt lat="48.70517" lon="2.52308">
        <ele>47</ele>
        <time>2024-01-22T14:55:58.851+00:00</time>
      </trkpt>
      <trkpt lat="48.70515" lon="2.52301">
        <ele>47</ele>
        <time>2024-01-22T14:56:02.798+00:00</time>
      </trkpt>
      <trkpt lat="48.70513" lon="2.52293">
        <ele>46</ele>
        <time>2024-01-22T14:56:07.344+00:00</time>
      </trkpt>
      <trkpt lat="48.7051" lon="2.52285">
        <ele>45</ele>
        <time>2024-01-22T14:56:12.010+00:00</time>
      </trkpt>
      <trkpt lat="48.70507" lon="2.5228">
        <ele>45</ele>
        <time>2024-01-22T14:56:15.958+00:00</time>
      </trkpt>
      <trkpt lat="48.70506" lon="2.52273">
        <ele>45</ele>
        <time>2024-01-22T14:56:20.505+00:00</time>
      </trkpt>
      <trkpt lat="48.70503" lon="2.52266">
        <ele>45</ele>
        <time>2024-01-22T14:56:24.753+00:00</time>
      </trkpt>
      <trkpt lat="48.70499" lon="2.52259">
        <ele>45</ele>
        <time>2024-01-22T14:56:29.239+00:00</time>
      </trkpt>
      <trkpt lat="48.70496" lon="2.52252">
        <ele>45</ele>
        <time>2024-01-22T14:56:33.690+00:00</time>
      </trkpt>
      <trkpt lat="48.70494" lon="2.52244">
        <ele>45</ele>
        <time>2024-01-22T14:56:38.089+00:00</time>
      </trkpt>
      <trkpt lat="48.70492" lon="2.52235">
        <ele>48</ele>
        <time>2024-01-22T14:56:42.067+00:00</time>
      </trkpt>
      <trkpt lat="48.70488" lon="2.52227">
        <ele>48</ele>
        <time>2024-01-22T14:56:46.734+00:00</time>
      </trkpt>
      <trkpt lat="48.70484" lon="2.52221">
        <ele>45</ele>
        <time>2024-01-22T14:56:51.225+00:00</time>
      </trkpt>
      <trkpt lat="48.70481" lon="2.52217">
        <ele>45</ele>
        <time>2024-01-22T14:56:55.112+00:00</time>
      </trkpt>
      <trkpt lat="48.70477" lon="2.52212">
        <ele>45</ele>
        <time>2024-01-22T14:56:59.661+00:00</time>
      </trkpt>
      <trkpt lat="48.70473" lon="2.52209">
        <ele>45</ele>
        <time>2024-01-22T14:57:04.090+00:00</time>
      </trkpt>
      <trkpt lat="48.70467" lon="2.52207">
        <ele>50</ele>
        <time>2024-01-22T14:57:08.160+00:00</time>
      </trkpt>
      <trkpt lat="48.7046" lon="2.52204">
        <ele>50</ele>
        <time>2024-01-22T14:57:12.829+00:00</time>
      </trkpt>
      <trkpt lat="48.70456" lon="2.522">
        <ele>46</ele>
        <time>2024-01-22T14:57:17.370+00:00</time>
      </trkpt>
      <trkpt lat="48.70453" lon="2.52196">
        <ele>46</ele>
        <time>2024-01-22T14:57:21.448+00:00</time>
      </trkpt>
      <trkpt lat="48.70449" lon="2.52192">
        <ele>46</ele>
        <time>2024-01-22T14:57:26.110+00:00</time>
      </trkpt>
      <trkpt lat="48.70442" lon="2.52183">
        <ele>46</ele>
        <time>2024-01-22T14:57:29.950+00:00</time>
      </trkpt>
      <trkpt lat="48.70437" lon="2.52178">
        <ele>51</ele>
        <time>2024-01-22T14:57:34.380+00:00</time>
      </trkpt>
      <trkpt lat="48.70434" lon="2.52177">
        <ele>51</ele>
        <time>2024-01-22T14:57:39.010+00:00</time>
      </trkpt>
      <trkpt lat="48.7043" lon="2.52176">
        <ele>47</ele>
        <time>2024-01-22T14:57:43.526+00:00</time>
      </trkpt>
      <trkpt lat="48.70426" lon="2.52171">
        <ele>47</ele>
        <time>2024-01-22T14:57:47.869+00:00</time>
      </trkpt>
      <trkpt lat="48.70421" lon="2.52167">
        <ele>47</ele>
        <time>2024-01-22T14:57:51.940+00:00</time>
      </trkpt>
      <trkpt lat="48.70411" lon="2.52165">
        <ele>47</ele>
        <time>2024-01-22T14:57:56.369+00:00</time>
      </trkpt>
      <trkpt lat="48.70404" lon="2.52163">
        <ele>47</ele>
        <time>2024-01-22T14:58:01.037+00:00</time>
      </trkpt>
      <trkpt lat="48.70398" lon="2.52159">
        <ele>45</ele>
        <time>2024-01-22T14:58:05.465+00:00</time>
      </trkpt>
      <trkpt lat="48.70394" lon="2.52156">
        <ele>45</ele>
        <time>2024-01-22T14:58:09.988+00:00</time>
      </trkpt>
      <trkpt lat="48.70392" lon="2.52153">
        <ele>45</ele>
        <time>2024-01-22T14:58:11.626+00:00</time>
      </trkpt>
      <trkpt lat="48.70375" lon="2.52141">
        <ele>46</ele>
        <time>2024-01-22T14:58:20.846+00:00</time>
      </trkpt>
      <trkpt lat="48.70369" lon="2.52135">
        <ele>46</ele>
        <time>2024-01-22T14:58:26.242+00:00</time>
      </trkpt>
      <trkpt lat="48.70364" lon="2.52133">
        <ele>46</ele>
        <time>2024-01-22T14:58:30.748+00:00</time>
      </trkpt>
      <trkpt lat="48.70359" lon="2.52129">
        <ele>46</ele>
        <time>2024-01-22T14:58:35.253+00:00</time>
      </trkpt>
      <trkpt lat="48.70354" lon="2.52125">
        <ele>46</ele>
        <time>2024-01-22T14:58:39.804+00:00</time>
      </trkpt>
      <trkpt lat="48.70348" lon="2.52121">
        <ele>51</ele>
        <time>2024-01-22T14:58:43.808+00:00</time>
      </trkpt>
      <trkpt lat="48.70343" lon="2.52121">
        <ele>50</ele>
        <time>2024-01-22T14:58:48.442+00:00</time>
      </trkpt>
      <trkpt lat="48.70338" lon="2.52119">
        <ele>50</ele>
        <time>2024-01-22T14:58:52.994+00:00</time>
      </trkpt>
      <trkpt lat="48.70332" lon="2.52115">
        <ele>50</ele>
        <time>2024-01-22T14:58:57.425+00:00</time>
      </trkpt>
      <trkpt lat="48.70328" lon="2.52112">
        <ele>50</ele>
        <time>2024-01-22T14:59:01.380+00:00</time>
      </trkpt>
      <trkpt lat="48.70323" lon="2.52108">
        <ele>50</ele>
        <time>2024-01-22T14:59:06.052+00:00</time>
      </trkpt>
      <trkpt lat="48.7032" lon="2.52105">
        <ele>50</ele>
        <time>2024-01-22T14:59:10.003+00:00</time>
      </trkpt>
      <trkpt lat="48.70314" lon="2.52101">
        <ele>49</ele>
        <time>2024-01-22T14:59:14.526+00:00</time>
      </trkpt>
      <trkpt lat="48.70308" lon="2.521">
        <ele>49</ele>
        <time>2024-01-22T14:59:18.984+00:00</time>
      </trkpt>
      <trkpt lat="48.70304" lon="2.52098">
        <ele>49</ele>
        <time>2024-01-22T14:59:22.815+00:00</time>
      </trkpt>
      <trkpt lat="48.70299" lon="2.52098">
        <ele>49</ele>
        <time>2024-01-22T14:59:27.367+00:00</time>
      </trkpt>
      <trkpt lat="48.70295" lon="2.52098">
        <ele>49</ele>
        <time>2024-01-22T14:59:31.917+00:00</time>
      </trkpt>
      <trkpt lat="48.70292" lon="2.52097">
        <ele>49</ele>
        <time>2024-01-22T14:59:35.988+00:00</time>
      </trkpt>
      <trkpt lat="48.7029" lon="2.52094">
        <ele>49</ele>
        <time>2024-01-22T14:59:40.655+00:00</time>
      </trkpt>
      <trkpt lat="48.70286" lon="2.52089">
        <ele>49</ele>
        <time>2024-01-22T14:59:45.249+00:00</time>
      </trkpt>
      <trkpt lat="48.70284" lon="2.52081">
        <ele>49</ele>
        <time>2024-01-22T14:59:49.508+00:00</time>
      </trkpt>
      <trkpt lat="48.7028" lon="2.52079">
        <ele>49</ele>
        <time>2024-01-22T14:59:53.526+00:00</time>
      </trkpt>
      <trkpt lat="48.70275" lon="2.52075">
        <ele>49</ele>
        <time>2024-01-22T14:59:58.242+00:00</time>
      </trkpt>
      <trkpt lat="48.70272" lon="2.52064">
        <ele>51</ele>
        <time>2024-01-22T15:00:02.667+00:00</time>
      </trkpt>
      <trkpt lat="48.70266" lon="2.52055">
        <ele>51</ele>
        <time>2024-01-22T15:00:07.092+00:00</time>
      </trkpt>
      <trkpt lat="48.7026" lon="2.52047">
        <ele>51</ele>
        <time>2024-01-22T15:00:11.040+00:00</time>
      </trkpt>
      <trkpt lat="48.7026" lon="2.52042">
        <ele>51</ele>
        <time>2024-01-22T15:00:15.526+00:00</time>
      </trkpt>
      <trkpt lat="48.70258" lon="2.52042">
        <ele>51</ele>
        <time>2024-01-22T15:00:19.931+00:00</time>
      </trkpt>
      <trkpt lat="48.70257" lon="2.52042">
        <ele>51</ele>
        <time>2024-01-22T15:00:23.833+00:00</time>
      </trkpt>
      <trkpt lat="48.70253" lon="2.52034">
        <ele>51</ele>
        <time>2024-01-22T15:00:28.497+00:00</time>
      </trkpt>
      <trkpt lat="48.70249" lon="2.52027">
        <ele>51</ele>
        <time>2024-01-22T15:00:32.683+00:00</time>
      </trkpt>
      <trkpt lat="48.70244" lon="2.5202">
        <ele>51</ele>
        <time>2024-01-22T15:00:36.748+00:00</time>
      </trkpt>
      <trkpt lat="48.70238" lon="2.5201">
        <ele>52</ele>
        <time>2024-01-22T15:00:41.175+00:00</time>
      </trkpt>
      <trkpt lat="48.70235" lon="2.52005">
        <ele>50</ele>
        <time>2024-01-22T15:00:45.241+00:00</time>
      </trkpt>
      <trkpt lat="48.70233" lon="2.51999">
        <ele>50</ele>
        <time>2024-01-22T15:00:49.786+00:00</time>
      </trkpt>
      <trkpt lat="48.70234" lon="2.51991">
        <ele>50</ele>
        <time>2024-01-22T15:00:53.854+00:00</time>
      </trkpt>
      <trkpt lat="48.70232" lon="2.51986">
        <ele>50</ele>
        <time>2024-01-22T15:00:57.802+00:00</time>
      </trkpt>
      <trkpt lat="48.70227" lon="2.51978">
        <ele>50</ele>
        <time>2024-01-22T15:01:02.826+00:00</time>
      </trkpt>
      <trkpt lat="48.70223" lon="2.51971">
        <ele>50</ele>
        <time>2024-01-22T15:01:07.273+00:00</time>
      </trkpt>
      <trkpt lat="48.7022" lon="2.51965">
        <ele>50</ele>
        <time>2024-01-22T15:01:11.371+00:00</time>
      </trkpt>
      <trkpt lat="48.70218" lon="2.51961">
        <ele>50</ele>
        <time>2024-01-22T15:01:15.386+00:00</time>
      </trkpt>
      <trkpt lat="48.70214" lon="2.51954">
        <ele>51</ele>
        <time>2024-01-22T15:01:19.932+00:00</time>
      </trkpt>
      <trkpt lat="48.7021" lon="2.51946">
        <ele>51</ele>
        <time>2024-01-22T15:01:24.357+00:00</time>
      </trkpt>
      <trkpt lat="48.70206" lon="2.51938">
        <ele>48</ele>
        <time>2024-01-22T15:01:28.882+00:00</time>
      </trkpt>
      <trkpt lat="48.70204" lon="2.51933">
        <ele>48</ele>
        <time>2024-01-22T15:01:33.369+00:00</time>
      </trkpt>
      <trkpt lat="48.70201" lon="2.51928">
        <ele>48</ele>
        <time>2024-01-22T15:01:37.972+00:00</time>
      </trkpt>
      <trkpt lat="48.70197" lon="2.51926">
        <ele>48</ele>
        <time>2024-01-22T15:01:43.230+00:00</time>
      </trkpt>
      <trkpt lat="48.70187" lon="2.51923">
        <ele>48</ele>
        <time>2024-01-22T15:01:47.419+00:00</time>
      </trkpt>
      <trkpt lat="48.70181" lon="2.51913">
        <ele>48</ele>
        <time>2024-01-22T15:01:51.845+00:00</time>
      </trkpt>
      <trkpt lat="48.70179" lon="2.51905">
        <ele>47</ele>
        <time>2024-01-22T15:01:56.150+00:00</time>
      </trkpt>
      <trkpt lat="48.70176" lon="2.51901">
        <ele>47</ele>
        <time>2024-01-22T15:01:59.977+00:00</time>
      </trkpt>
      <trkpt lat="48.70173" lon="2.51897">
        <ele>47</ele>
        <time>2024-01-22T15:02:04.642+00:00</time>
      </trkpt>
      <trkpt lat="48.70166" lon="2.51889">
        <ele>47</ele>
        <time>2024-01-22T15:02:08.526+00:00</time>
      </trkpt>
      <trkpt lat="48.7016" lon="2.51883">
        <ele>47</ele>
        <time>2024-01-22T15:02:12.635+00:00</time>
      </trkpt>
      <trkpt lat="48.70156" lon="2.51876">
        <ele>47</ele>
        <time>2024-01-22T15:02:17.160+00:00</time>
      </trkpt>
      <trkpt lat="48.70159" lon="2.51867">
        <ele>49</ele>
        <time>2024-01-22T15:02:21.106+00:00</time>
      </trkpt>
      <trkpt lat="48.70155" lon="2.51864">
        <ele>49</ele>
        <time>2024-01-22T15:02:25.526+00:00</time>
      </trkpt>
      <trkpt lat="48.70149" lon="2.51855">
        <ele>48</ele>
        <time>2024-01-22T15:02:29.990+00:00</time>
      </trkpt>
      <trkpt lat="48.70145" lon="2.51848">
        <ele>48</ele>
        <time>2024-01-22T15:02:33.784+00:00</time>
      </trkpt>
      <trkpt lat="48.7014" lon="2.51842">
        <ele>49</ele>
        <time>2024-01-22T15:02:38.392+00:00</time>
      </trkpt>
      <trkpt lat="48.70136" lon="2.51834">
        <ele>49</ele>
        <time>2024-01-22T15:02:42.887+00:00</time>
      </trkpt>
      <trkpt lat="48.70132" lon="2.51827">
        <ele>49</ele>
        <time>2024-01-22T15:02:46.461+00:00</time>
      </trkpt>
      <trkpt lat="48.7013" lon="2.51822">
        <ele>49</ele>
        <time>2024-01-22T15:02:51.394+00:00</time>
      </trkpt>
      <trkpt lat="48.7013" lon="2.51821">
        <ele>49</ele>
        <time>2024-01-22T15:02:55.800+00:00</time>
      </trkpt>
      <trkpt lat="48.70129" lon="2.51821">
        <ele>49</ele>
        <time>2024-01-22T15:02:59.749+00:00</time>
      </trkpt>
      <trkpt lat="48.70128" lon="2.51814">
        <ele>49</ele>
        <time>2024-01-22T15:03:03.698+00:00</time>
      </trkpt>
      <trkpt lat="48.70121" lon="2.51798">
        <ele>48</ele>
        <time>2024-01-22T15:03:08.246+00:00</time>
      </trkpt>
      <trkpt lat="48.70114" lon="2.51788">
        <ele>48</ele>
        <time>2024-01-22T15:03:12.432+00:00</time>
      </trkpt>
      <trkpt lat="48.70111" lon="2.51782">
        <ele>48</ele>
        <time>2024-01-22T15:03:16.807+00:00</time>
      </trkpt>
      <trkpt lat="48.70108" lon="2.51777">
        <ele>48</ele>
        <time>2024-01-22T15:03:20.682+00:00</time>
      </trkpt>
      <trkpt lat="48.70105" lon="2.51775">
        <ele>48</ele>
        <time>2024-01-22T15:03:25.107+00:00</time>
      </trkpt>
      <trkpt lat="48.70103" lon="2.51772">
        <ele>48</ele>
        <time>2024-01-22T15:03:29.569+00:00</time>
      </trkpt>
      <trkpt lat="48.70102" lon="2.51755">
        <ele>49</ele>
        <time>2024-01-22T15:03:33.526+00:00</time>
      </trkpt>
      <trkpt lat="48.70091" lon="2.51737">
        <ele>48</ele>
        <time>2024-01-22T15:03:37.662+00:00</time>
      </trkpt>
      <trkpt lat="48.70085" lon="2.51727">
        <ele>50</ele>
        <time>2024-01-22T15:03:41.849+00:00</time>
      </trkpt>
      <trkpt lat="48.70088" lon="2.51724">
        <ele>50</ele>
        <time>2024-01-22T15:03:45.796+00:00</time>
      </trkpt>
      <trkpt lat="48.70089" lon="2.51723">
        <ele>50</ele>
        <time>2024-01-22T15:03:51.014+00:00</time>
      </trkpt>
      <trkpt lat="48.70086" lon="2.51717">
        <ele>50</ele>
        <time>2024-01-22T15:03:54.768+00:00</time>
      </trkpt>
      <trkpt lat="48.70082" lon="2.5171">
        <ele>50</ele>
        <time>2024-01-22T15:03:58.833+00:00</time>
      </trkpt>
      <trkpt lat="48.70074" lon="2.51698">
        <ele>53</ele>
        <time>2024-01-22T15:04:03.358+00:00</time>
      </trkpt>
      <trkpt lat="48.70071" lon="2.5169">
        <ele>53</ele>
        <time>2024-01-22T15:04:07.901+00:00</time>
      </trkpt>
      <trkpt lat="48.70069" lon="2.51682">
        <ele>50</ele>
        <time>2024-01-22T15:04:12.443+00:00</time>
      </trkpt>
      <trkpt lat="48.70067" lon="2.51677">
        <ele>51</ele>
        <time>2024-01-22T15:04:16.949+00:00</time>
      </trkpt>
      <trkpt lat="48.70063" lon="2.51669">
        <ele>51</ele>
        <time>2024-01-22T15:04:21.033+00:00</time>
      </trkpt>
      <trkpt lat="48.7006" lon="2.51662">
        <ele>51</ele>
        <time>2024-01-22T15:04:25.096+00:00</time>
      </trkpt>
      <trkpt lat="48.70057" lon="2.51657">
        <ele>51</ele>
        <time>2024-01-22T15:04:29.519+00:00</time>
      </trkpt>
      <trkpt lat="48.70055" lon="2.51649">
        <ele>52</ele>
        <time>2024-01-22T15:04:33.526+00:00</time>
      </trkpt>
      <trkpt lat="48.70052" lon="2.51642">
        <ele>52</ele>
        <time>2024-01-22T15:04:37.389+00:00</time>
      </trkpt>
      <trkpt lat="48.70048" lon="2.51633">
        <ele>52</ele>
        <time>2024-01-22T15:04:41.813+00:00</time>
      </trkpt>
      <trkpt lat="48.70048" lon="2.51626">
        <ele>52</ele>
        <time>2024-01-22T15:04:46.170+00:00</time>
      </trkpt>
      <trkpt lat="48.70043" lon="2.51613">
        <ele>53</ele>
        <time>2024-01-22T15:04:50.662+00:00</time>
      </trkpt>
      <trkpt lat="48.70036" lon="2.51602">
        <ele>52</ele>
        <time>2024-01-22T15:04:55.325+00:00</time>
      </trkpt>
      <trkpt lat="48.70032" lon="2.51596">
        <ele>52</ele>
        <time>2024-01-22T15:04:59.850+00:00</time>
      </trkpt>
      <trkpt lat="48.70029" lon="2.51592">
        <ele>52</ele>
        <time>2024-01-22T15:05:04.156+00:00</time>
      </trkpt>
      <trkpt lat="48.70025" lon="2.51585">
        <ele>52</ele>
        <time>2024-01-22T15:05:08.526+00:00</time>
      </trkpt>
      <trkpt lat="48.70021" lon="2.51575">
        <ele>52</ele>
        <time>2024-01-22T15:05:12.648+00:00</time>
      </trkpt>
      <trkpt lat="48.70019" lon="2.51568">
        <ele>52</ele>
        <time>2024-01-22T15:05:16.832+00:00</time>
      </trkpt>
      <trkpt lat="48.70018" lon="2.51562">
        <ele>52</ele>
        <time>2024-01-22T15:05:20.897+00:00</time>
      </trkpt>
      <trkpt lat="48.70014" lon="2.51553">
        <ele>51</ele>
        <time>2024-01-22T15:05:25.440+00:00</time>
      </trkpt>
      <trkpt lat="48.7001" lon="2.51544">
        <ele>51</ele>
        <time>2024-01-22T15:05:29.863+00:00</time>
      </trkpt>
      <trkpt lat="48.70005" lon="2.51536">
        <ele>51</ele>
        <time>2024-01-22T15:05:34.291+00:00</time>
      </trkpt>
      <trkpt lat="48.70003" lon="2.51531">
        <ele>51</ele>
        <time>2024-01-22T15:05:38.813+00:00</time>
      </trkpt>
      <trkpt lat="48.70001" lon="2.51526">
        <ele>51</ele>
        <time>2024-01-22T15:05:42.878+00:00</time>
      </trkpt>
      <trkpt lat="48.69997" lon="2.51518">
        <ele>51</ele>
        <time>2024-01-22T15:05:47.422+00:00</time>
      </trkpt>
      <trkpt lat="48.69994" lon="2.5151">
        <ele>52</ele>
        <time>2024-01-22T15:05:51.812+00:00</time>
      </trkpt>
      <trkpt lat="48.6999" lon="2.51502">
        <ele>52</ele>
        <time>2024-01-22T15:05:55.798+00:00</time>
      </trkpt>
      <trkpt lat="48.69986" lon="2.51491">
        <ele>49</ele>
        <time>2024-01-22T15:06:00.343+00:00</time>
      </trkpt>
      <trkpt lat="48.69982" lon="2.51484">
        <ele>50</ele>
        <time>2024-01-22T15:06:04.851+00:00</time>
      </trkpt>
      <trkpt lat="48.69979" lon="2.51477">
        <ele>50</ele>
        <time>2024-01-22T15:06:08.835+00:00</time>
      </trkpt>
      <trkpt lat="48.69977" lon="2.51469">
        <ele>50</ele>
        <time>2024-01-22T15:06:13.139+00:00</time>
      </trkpt>
      <trkpt lat="48.69974" lon="2.5146">
        <ele>50</ele>
        <time>2024-01-22T15:06:17.444+00:00</time>
      </trkpt>
      <trkpt lat="48.69971" lon="2.51451">
        <ele>51</ele>
        <time>2024-01-22T15:06:21.750+00:00</time>
      </trkpt>
      <trkpt lat="48.69968" lon="2.51445">
        <ele>51</ele>
        <time>2024-01-22T15:06:26.111+00:00</time>
      </trkpt>
      <trkpt lat="48.69967" lon="2.51441">
        <ele>51</ele>
        <time>2024-01-22T15:06:29.885+00:00</time>
      </trkpt>
      <trkpt lat="48.69966" lon="2.51435">
        <ele>51</ele>
        <time>2024-01-22T15:06:34.672+00:00</time>
      </trkpt>
      <trkpt lat="48.69964" lon="2.5143">
        <ele>52</ele>
        <time>2024-01-22T15:06:38.860+00:00</time>
      </trkpt>
      <trkpt lat="48.69963" lon="2.51426">
        <ele>52</ele>
        <time>2024-01-22T15:06:43.406+00:00</time>
      </trkpt>
      <trkpt lat="48.69961" lon="2.51419">
        <ele>52</ele>
        <time>2024-01-22T15:06:48.071+00:00</time>
      </trkpt>
      <trkpt lat="48.69958" lon="2.51406">
        <ele>51</ele>
        <time>2024-01-22T15:06:52.614+00:00</time>
      </trkpt>
      <trkpt lat="48.69956" lon="2.51397">
        <ele>53</ele>
        <time>2024-01-22T15:06:56.681+00:00</time>
      </trkpt>
      <trkpt lat="48.69953" lon="2.51389">
        <ele>53</ele>
        <time>2024-01-22T15:07:01.152+00:00</time>
      </trkpt>
      <trkpt lat="48.69951" lon="2.51381">
        <ele>53</ele>
        <time>2024-01-22T15:07:05.054+00:00</time>
      </trkpt>
      <trkpt lat="48.69948" lon="2.51371">
        <ele>55</ele>
        <time>2024-01-22T15:07:09.526+00:00</time>
      </trkpt>
      <trkpt lat="48.69947" lon="2.51364">
        <ele>55</ele>
        <time>2024-01-22T15:07:13.428+00:00</time>
      </trkpt>
      <trkpt lat="48.69943" lon="2.51357">
        <ele>55</ele>
        <time>2024-01-22T15:07:17.973+00:00</time>
      </trkpt>
      <trkpt lat="48.6994" lon="2.5135">
        <ele>55</ele>
        <time>2024-01-22T15:07:22.518+00:00</time>
      </trkpt>
      <trkpt lat="48.69936" lon="2.51344">
        <ele>56</ele>
        <time>2024-01-22T15:07:27.042+00:00</time>
      </trkpt>
      <trkpt lat="48.69935" lon="2.51341">
        <ele>56</ele>
        <time>2024-01-22T15:07:31.466+00:00</time>
      </trkpt>
      <trkpt lat="48.69935" lon="2.51336">
        <ele>56</ele>
        <time>2024-01-22T15:07:36.012+00:00</time>
      </trkpt>
      <trkpt lat="48.69936" lon="2.51329">
        <ele>56</ele>
        <time>2024-01-22T15:07:39.835+00:00</time>
      </trkpt>
      <trkpt lat="48.69938" lon="2.51319">
        <ele>56</ele>
        <time>2024-01-22T15:07:43.900+00:00</time>
      </trkpt>
      <trkpt lat="48.69936" lon="2.51307">
        <ele>56</ele>
        <time>2024-01-22T15:07:48.904+00:00</time>
      </trkpt>
      <trkpt lat="48.69932" lon="2.51298">
        <ele>56</ele>
        <time>2024-01-22T15:07:52.987+00:00</time>
      </trkpt>
      <trkpt lat="48.69927" lon="2.51291">
        <ele>54</ele>
        <time>2024-01-22T15:07:57.052+00:00</time>
      </trkpt>
      <trkpt lat="48.69921" lon="2.51285">
        <ele>54</ele>
        <time>2024-01-22T15:08:01.595+00:00</time>
      </trkpt>
      <trkpt lat="48.69918" lon="2.51279">
        <ele>54</ele>
        <time>2024-01-22T15:08:05.660+00:00</time>
      </trkpt>
      <trkpt lat="48.69913" lon="2.5127">
        <ele>54</ele>
        <time>2024-01-22T15:08:10.084+00:00</time>
      </trkpt>
      <trkpt lat="48.69909" lon="2.51258">
        <ele>53</ele>
        <time>2024-01-22T15:08:13.912+00:00</time>
      </trkpt>
      <trkpt lat="48.69906" lon="2.51246">
        <ele>53</ele>
        <time>2024-01-22T15:08:18.452+00:00</time>
      </trkpt>
      <trkpt lat="48.69913" lon="2.51242">
        <ele>53</ele>
        <time>2024-01-22T15:08:22.645+00:00</time>
      </trkpt>
      <trkpt lat="48.69905" lon="2.51233">
        <ele>53</ele>
        <time>2024-01-22T15:08:27.070+00:00</time>
      </trkpt>
      <trkpt lat="48.69902" lon="2.51224">
        <ele>52</ele>
        <time>2024-01-22T15:08:31.016+00:00</time>
      </trkpt>
      <trkpt lat="48.699" lon="2.51216">
        <ele>52</ele>
        <time>2024-01-22T15:08:35.680+00:00</time>
      </trkpt>
      <trkpt lat="48.69899" lon="2.51209">
        <ele>52</ele>
        <time>2024-01-22T15:08:40.105+00:00</time>
      </trkpt>
      <trkpt lat="48.69899" lon="2.51203">
        <ele>53</ele>
        <time>2024-01-22T15:08:44.275+00:00</time>
      </trkpt>
      <trkpt lat="48.69896" lon="2.51187">
        <ele>53</ele>
        <time>2024-01-22T15:08:48.837+00:00</time>
      </trkpt>
      <trkpt lat="48.69894" lon="2.5118">
        <ele>54</ele>
        <time>2024-01-22T15:08:53.273+00:00</time>
      </trkpt>
      <trkpt lat="48.69893" lon="2.51175">
        <ele>54</ele>
        <time>2024-01-22T15:08:57.090+00:00</time>
      </trkpt>
      <trkpt lat="48.69893" lon="2.51171">
        <ele>54</ele>
        <time>2024-01-22T15:09:01.634+00:00</time>
      </trkpt>
      <trkpt lat="48.69891" lon="2.51157">
        <ele>54</ele>
        <time>2024-01-22T15:09:06.274+00:00</time>
      </trkpt>
      <trkpt lat="48.69892" lon="2.51148">
        <ele>55</ele>
        <time>2024-01-22T15:09:10.246+00:00</time>
      </trkpt>
      <trkpt lat="48.69891" lon="2.51142">
        <ele>55</ele>
        <time>2024-01-22T15:09:14.673+00:00</time>
      </trkpt>
      <trkpt lat="48.6989" lon="2.51136">
        <ele>55</ele>
        <time>2024-01-22T15:09:18.740+00:00</time>
      </trkpt>
      <trkpt lat="48.69889" lon="2.51128">
        <ele>55</ele>
        <time>2024-01-22T15:09:23.261+00:00</time>
      </trkpt>
      <trkpt lat="48.69887" lon="2.51121">
        <ele>57</ele>
        <time>2024-01-22T15:09:27.234+00:00</time>
      </trkpt>
      <trkpt lat="48.69885" lon="2.51113">
        <ele>57</ele>
        <time>2024-01-22T15:09:31.063+00:00</time>
      </trkpt>
      <trkpt lat="48.69883" lon="2.511">
        <ele>57</ele>
        <time>2024-01-22T15:09:35.849+00:00</time>
      </trkpt>
      <trkpt lat="48.6988" lon="2.51091">
        <ele>58</ele>
        <time>2024-01-22T15:09:40.871+00:00</time>
      </trkpt>
      <trkpt lat="48.69877" lon="2.5108">
        <ele>58</ele>
        <time>2024-01-22T15:09:46.026+00:00</time>
      </trkpt>
      <trkpt lat="48.69876" lon="2.51072">
        <ele>58</ele>
        <time>2024-01-22T15:09:50.081+00:00</time>
      </trkpt>
      <trkpt lat="48.69875" lon="2.51061">
        <ele>55</ele>
        <time>2024-01-22T15:09:54.827+00:00</time>
      </trkpt>
      <trkpt lat="48.69874" lon="2.51056">
        <ele>55</ele>
        <time>2024-01-22T15:09:58.795+00:00</time>
      </trkpt>
      <trkpt lat="48.69873" lon="2.51051">
        <ele>55</ele>
        <time>2024-01-22T15:10:03.143+00:00</time>
      </trkpt>
      <trkpt lat="48.69873" lon="2.51046">
        <ele>55</ele>
        <time>2024-01-22T15:10:07.049+00:00</time>
      </trkpt>
      <trkpt lat="48.69871" lon="2.51037">
        <ele>56</ele>
        <time>2024-01-22T15:10:11.526+00:00</time>
      </trkpt>
      <trkpt lat="48.69869" lon="2.51024">
        <ele>56</ele>
        <time>2024-01-22T15:10:16.073+00:00</time>
      </trkpt>
      <trkpt lat="48.69871" lon="2.51017">
        <ele>56</ele>
        <time>2024-01-22T15:10:19.969+00:00</time>
      </trkpt>
      <trkpt lat="48.6987" lon="2.51009">
        <ele>56</ele>
        <time>2024-01-22T15:10:24.393+00:00</time>
      </trkpt>
      <trkpt lat="48.6987" lon="2.51001">
        <ele>56</ele>
        <time>2024-01-22T15:10:28.433+00:00</time>
      </trkpt>
      <trkpt lat="48.69869" lon="2.50993">
        <ele>56</ele>
        <time>2024-01-22T15:10:33.286+00:00</time>
      </trkpt>
      <trkpt lat="48.69868" lon="2.50985">
        <ele>56</ele>
        <time>2024-01-22T15:10:37.671+00:00</time>
      </trkpt>
      <trkpt lat="48.69865" lon="2.50975">
        <ele>56</ele>
        <time>2024-01-22T15:10:42.072+00:00</time>
      </trkpt>
      <trkpt lat="48.69861" lon="2.50966">
        <ele>56</ele>
        <time>2024-01-22T15:10:47.067+00:00</time>
      </trkpt>
      <trkpt lat="48.69859" lon="2.50957">
        <ele>56</ele>
        <time>2024-01-22T15:10:50.953+00:00</time>
      </trkpt>
      <trkpt lat="48.69859" lon="2.50946">
        <ele>56</ele>
        <time>2024-01-22T15:10:55.021+00:00</time>
      </trkpt>
      <trkpt lat="48.6986" lon="2.50945">
        <ele>56</ele>
        <time>2024-01-22T15:10:59.448+00:00</time>
      </trkpt>
      <trkpt lat="48.69859" lon="2.50937">
        <ele>56</ele>
        <time>2024-01-22T15:11:03.878+00:00</time>
      </trkpt>
      <trkpt lat="48.69857" lon="2.50928">
        <ele>57</ele>
        <time>2024-01-22T15:11:08.425+00:00</time>
      </trkpt>
      <trkpt lat="48.69852" lon="2.5092">
        <ele>57</ele>
        <time>2024-01-22T15:11:12.732+00:00</time>
      </trkpt>
      <trkpt lat="48.69848" lon="2.50912">
        <ele>57</ele>
        <time>2024-01-22T15:11:16.680+00:00</time>
      </trkpt>
      <trkpt lat="48.69847" lon="2.509">
        <ele>56</ele>
        <time>2024-01-22T15:11:21.108+00:00</time>
      </trkpt>
      <trkpt lat="48.69846" lon="2.5089">
        <ele>56</ele>
        <time>2024-01-22T15:11:25.653+00:00</time>
      </trkpt>
      <trkpt lat="48.69844" lon="2.50884">
        <ele>56</ele>
        <time>2024-01-22T15:11:30.078+00:00</time>
      </trkpt>
      <trkpt lat="48.69843" lon="2.50879">
        <ele>56</ele>
        <time>2024-01-22T15:11:34.113+00:00</time>
      </trkpt>
      <trkpt lat="48.69843" lon="2.50871">
        <ele>56</ele>
        <time>2024-01-22T15:11:38.068+00:00</time>
      </trkpt>
      <trkpt lat="48.69843" lon="2.50863">
        <ele>56</ele>
        <time>2024-01-22T15:11:42.047+00:00</time>
      </trkpt>
      <trkpt lat="48.69842" lon="2.50856">
        <ele>56</ele>
        <time>2024-01-22T15:11:45.887+00:00</time>
      </trkpt>
      <trkpt lat="48.69837" lon="2.50842">
        <ele>56</ele>
        <time>2024-01-22T15:11:50.526+00:00</time>
      </trkpt>
      <trkpt lat="48.69836" lon="2.50835">
        <ele>56</ele>
        <time>2024-01-22T15:11:55.039+00:00</time>
      </trkpt>
      <trkpt lat="48.69834" lon="2.50832">
        <ele>56</ele>
        <time>2024-01-22T15:11:58.993+00:00</time>
      </trkpt>
      <trkpt lat="48.69831" lon="2.5082">
        <ele>56</ele>
        <time>2024-01-22T15:12:03.526+00:00</time>
      </trkpt>
      <trkpt lat="48.69825" lon="2.50802">
        <ele>56</ele>
        <time>2024-01-22T15:12:20.044+00:00</time>
      </trkpt>
      <trkpt lat="48.69826" lon="2.50801">
        <ele>56</ele>
        <time>2024-01-22T15:12:24.237+00:00</time>
      </trkpt>
      <trkpt lat="48.69826" lon="2.50794">
        <ele>56</ele>
        <time>2024-01-22T15:12:28.071+00:00</time>
      </trkpt>
      <trkpt lat="48.69827" lon="2.50787">
        <ele>57</ele>
        <time>2024-01-22T15:12:32.145+00:00</time>
      </trkpt>
      <trkpt lat="48.6983" lon="2.50779">
        <ele>57</ele>
        <time>2024-01-22T15:12:36.098+00:00</time>
      </trkpt>
      <trkpt lat="48.69832" lon="2.50773">
        <ele>57</ele>
        <time>2024-01-22T15:12:40.050+00:00</time>
      </trkpt>
      <trkpt lat="48.69831" lon="2.50769">
        <ele>57</ele>
        <time>2024-01-22T15:12:44.719+00:00</time>
      </trkpt>
      <trkpt lat="48.69829" lon="2.50764">
        <ele>57</ele>
        <time>2024-01-22T15:12:48.526+00:00</time>
      </trkpt>
      <trkpt lat="48.69825" lon="2.50759">
        <ele>58</ele>
        <time>2024-01-22T15:12:53.100+00:00</time>
      </trkpt>
      <trkpt lat="48.69822" lon="2.50754">
        <ele>58</ele>
        <time>2024-01-22T15:12:57.273+00:00</time>
      </trkpt>
      <trkpt lat="48.6982" lon="2.50746">
        <ele>58</ele>
        <time>2024-01-22T15:13:01.765+00:00</time>
      </trkpt>
      <trkpt lat="48.69821" lon="2.50743">
        <ele>58</ele>
        <time>2024-01-22T15:13:05.596+00:00</time>
      </trkpt>
      <trkpt lat="48.69819" lon="2.50736">
        <ele>57</ele>
        <time>2024-01-22T15:13:10.145+00:00</time>
      </trkpt>
      <trkpt lat="48.69817" lon="2.50728">
        <ele>58</ele>
        <time>2024-01-22T15:13:13.959+00:00</time>
      </trkpt>
      <trkpt lat="48.69814" lon="2.50716">
        <ele>58</ele>
        <time>2024-01-22T15:13:18.812+00:00</time>
      </trkpt>
      <trkpt lat="48.6981" lon="2.50705">
        <ele>58</ele>
        <time>2024-01-22T15:13:23.021+00:00</time>
      </trkpt>
      <trkpt lat="48.69806" lon="2.50696">
        <ele>58</ele>
        <time>2024-01-22T15:13:27.331+00:00</time>
      </trkpt>
      <trkpt lat="48.69806" lon="2.50688">
        <ele>58</ele>
        <time>2024-01-22T15:13:31.883+00:00</time>
      </trkpt>
      <trkpt lat="48.69806" lon="2.5068">
        <ele>58</ele>
        <time>2024-01-22T15:13:36.254+00:00</time>
      </trkpt>
      <trkpt lat="48.69802" lon="2.50673">
        <ele>58</ele>
        <time>2024-01-22T15:13:40.326+00:00</time>
      </trkpt>
      <trkpt lat="48.69799" lon="2.50664">
        <ele>58</ele>
        <time>2024-01-22T15:13:44.758+00:00</time>
      </trkpt>
      <trkpt lat="48.69799" lon="2.50654">
        <ele>58</ele>
        <time>2024-01-22T15:13:48.830+00:00</time>
      </trkpt>
      <trkpt lat="48.698" lon="2.50647">
        <ele>59</ele>
        <time>2024-01-22T15:13:53.139+00:00</time>
      </trkpt>
      <trkpt lat="48.69799" lon="2.5064">
        <ele>59</ele>
        <time>2024-01-22T15:13:58.048+00:00</time>
      </trkpt>
      <trkpt lat="48.69797" lon="2.50632">
        <ele>59</ele>
        <time>2024-01-22T15:14:02.239+00:00</time>
      </trkpt>
      <trkpt lat="48.69799" lon="2.50606">
        <ele>59</ele>
        <time>2024-01-22T15:14:19.286+00:00</time>
      </trkpt>
      <trkpt lat="48.69799" lon="2.50606">
        <ele>59</ele>
        <time>2024-01-22T15:14:23.387+00:00</time>
      </trkpt>
      <trkpt lat="48.69798" lon="2.506">
        <ele>59</ele>
        <time>2024-01-22T15:14:28.025+00:00</time>
      </trkpt>
      <trkpt lat="48.69799" lon="2.50595">
        <ele>58</ele>
        <time>2024-01-22T15:14:32.456+00:00</time>
      </trkpt>
      <trkpt lat="48.698" lon="2.50588">
        <ele>58</ele>
        <time>2024-01-22T15:14:37.007+00:00</time>
      </trkpt>
      <trkpt lat="48.69801" lon="2.50583">
        <ele>58</ele>
        <time>2024-01-22T15:14:41.678+00:00</time>
      </trkpt>
      <trkpt lat="48.69802" lon="2.50575">
        <ele>58</ele>
        <time>2024-01-22T15:14:46.110+00:00</time>
      </trkpt>
      <trkpt lat="48.69803" lon="2.50569">
        <ele>57</ele>
        <time>2024-01-22T15:14:50.062+00:00</time>
      </trkpt>
      <trkpt lat="48.69804" lon="2.50563">
        <ele>57</ele>
        <time>2024-01-22T15:14:54.465+00:00</time>
      </trkpt>
      <trkpt lat="48.69806" lon="2.50554">
        <ele>57</ele>
        <time>2024-01-22T15:14:58.805+00:00</time>
      </trkpt>
      <trkpt lat="48.69808" lon="2.50546">
        <ele>57</ele>
        <time>2024-01-22T15:15:03.868+00:00</time>
      </trkpt>
      <trkpt lat="48.69813" lon="2.50539">
        <ele>57</ele>
        <time>2024-01-22T15:15:08.274+00:00</time>
      </trkpt>
      <trkpt lat="48.69819" lon="2.5053">
        <ele>57</ele>
        <time>2024-01-22T15:15:12.276+00:00</time>
      </trkpt>
      <trkpt lat="48.6982" lon="2.50522">
        <ele>58</ele>
        <time>2024-01-22T15:15:16.407+00:00</time>
      </trkpt>
      <trkpt lat="48.69819" lon="2.50514">
        <ele>57</ele>
        <time>2024-01-22T15:15:20.785+00:00</time>
      </trkpt>
      <trkpt lat="48.6982" lon="2.50509">
        <ele>57</ele>
        <time>2024-01-22T15:15:25.397+00:00</time>
      </trkpt>
      <trkpt lat="48.6982" lon="2.50503">
        <ele>57</ele>
        <time>2024-01-22T15:15:29.708+00:00</time>
      </trkpt>
      <trkpt lat="48.69817" lon="2.50494">
        <ele>56</ele>
        <time>2024-01-22T15:15:34.260+00:00</time>
      </trkpt>
      <trkpt lat="48.69815" lon="2.50487">
        <ele>56</ele>
        <time>2024-01-22T15:15:38.055+00:00</time>
      </trkpt>
      <trkpt lat="48.69815" lon="2.50483">
        <ele>55</ele>
        <time>2024-01-22T15:15:42.526+00:00</time>
      </trkpt>
      <trkpt lat="48.69815" lon="2.50477">
        <ele>55</ele>
        <time>2024-01-22T15:15:47.039+00:00</time>
      </trkpt>
      <trkpt lat="48.69815" lon="2.50473">
        <ele>55</ele>
        <time>2024-01-22T15:15:50.872+00:00</time>
      </trkpt>
      <trkpt lat="48.69815" lon="2.50467">
        <ele>55</ele>
        <time>2024-01-22T15:15:55.424+00:00</time>
      </trkpt>
      <trkpt lat="48.69815" lon="2.50458">
        <ele>55</ele>
        <time>2024-01-22T15:15:59.357+00:00</time>
      </trkpt>
      <trkpt lat="48.69815" lon="2.50446">
        <ele>55</ele>
        <time>2024-01-22T15:16:03.888+00:00</time>
      </trkpt>
      <trkpt lat="48.69813" lon="2.50434">
        <ele>55</ele>
        <time>2024-01-22T15:16:07.841+00:00</time>
      </trkpt>
      <trkpt lat="48.69812" lon="2.50424">
        <ele>55</ele>
        <time>2024-01-22T15:16:11.794+00:00</time>
      </trkpt>
      <trkpt lat="48.6981" lon="2.50415">
        <ele>55</ele>
        <time>2024-01-22T15:16:16.466+00:00</time>
      </trkpt>
      <trkpt lat="48.69809" lon="2.50405">
        <ele>55</ele>
        <time>2024-01-22T15:16:21.017+00:00</time>
      </trkpt>
      <trkpt lat="48.69808" lon="2.50397">
        <ele>54</ele>
        <time>2024-01-22T15:16:24.830+00:00</time>
      </trkpt>
      <trkpt lat="48.69807" lon="2.50392">
        <ele>54</ele>
        <time>2024-01-22T15:16:29.481+00:00</time>
      </trkpt>
      <trkpt lat="48.69804" lon="2.50386">
        <ele>54</ele>
        <time>2024-01-22T15:16:33.526+00:00</time>
      </trkpt>
      <trkpt lat="48.69801" lon="2.50379">
        <ele>54</ele>
        <time>2024-01-22T15:16:37.985+00:00</time>
      </trkpt>
      <trkpt lat="48.69798" lon="2.50371">
        <ele>54</ele>
        <time>2024-01-22T15:16:41.878+00:00</time>
      </trkpt>
      <trkpt lat="48.69797" lon="2.50361">
        <ele>54</ele>
        <time>2024-01-22T15:16:47.027+00:00</time>
      </trkpt>
      <trkpt lat="48.69799" lon="2.50355">
        <ele>54</ele>
        <time>2024-01-22T15:16:51.100+00:00</time>
      </trkpt>
      <trkpt lat="48.69801" lon="2.50347">
        <ele>54</ele>
        <time>2024-01-22T15:16:55.251+00:00</time>
      </trkpt>
      <trkpt lat="48.69803" lon="2.50341">
        <ele>53</ele>
        <time>2024-01-22T15:16:59.245+00:00</time>
      </trkpt>
      <trkpt lat="48.69807" lon="2.50335">
        <ele>53</ele>
        <time>2024-01-22T15:17:03.280+00:00</time>
      </trkpt>
      <trkpt lat="48.69809" lon="2.50327">
        <ele>53</ele>
        <time>2024-01-22T15:17:08.164+00:00</time>
      </trkpt>
      <trkpt lat="48.69815" lon="2.50321">
        <ele>53</ele>
        <time>2024-01-22T15:17:12.265+00:00</time>
      </trkpt>
      <trkpt lat="48.69821" lon="2.50314">
        <ele>53</ele>
        <time>2024-01-22T15:17:16.697+00:00</time>
      </trkpt>
      <trkpt lat="48.69822" lon="2.50305">
        <ele>53</ele>
        <time>2024-01-22T15:17:21.089+00:00</time>
      </trkpt>
      <trkpt lat="48.69822" lon="2.50296">
        <ele>53</ele>
        <time>2024-01-22T15:17:25.520+00:00</time>
      </trkpt>
      <trkpt lat="48.69824" lon="2.50288">
        <ele>51</ele>
        <time>2024-01-22T15:17:30.070+00:00</time>
      </trkpt>
      <trkpt lat="48.69826" lon="2.50281">
        <ele>51</ele>
        <time>2024-01-22T15:17:34.142+00:00</time>
      </trkpt>
      <trkpt lat="48.69829" lon="2.50273">
        <ele>51</ele>
        <time>2024-01-22T15:17:38.094+00:00</time>
      </trkpt>
      <trkpt lat="48.69831" lon="2.50267">
        <ele>51</ele>
        <time>2024-01-22T15:17:42.046+00:00</time>
      </trkpt>
      <trkpt lat="48.69833" lon="2.50261">
        <ele>50</ele>
        <time>2024-01-22T15:17:46.477+00:00</time>
      </trkpt>
      <trkpt lat="48.69835" lon="2.50253">
        <ele>50</ele>
        <time>2024-01-22T15:17:50.909+00:00</time>
      </trkpt>
      <trkpt lat="48.69838" lon="2.50252">
        <ele>50</ele>
        <time>2024-01-22T15:17:55.220+00:00</time>
      </trkpt>
      <trkpt lat="48.69838" lon="2.50241">
        <ele>50</ele>
        <time>2024-01-22T15:17:59.652+00:00</time>
      </trkpt>
      <trkpt lat="48.69842" lon="2.50235">
        <ele>49</ele>
        <time>2024-01-22T15:18:03.847+00:00</time>
      </trkpt>
      <trkpt lat="48.69844" lon="2.50228">
        <ele>49</ele>
        <time>2024-01-22T15:18:08.042+00:00</time>
      </trkpt>
      <trkpt lat="48.69841" lon="2.50219">
        <ele>49</ele>
        <time>2024-01-22T15:18:12.116+00:00</time>
      </trkpt>
      <trkpt lat="48.69844" lon="2.50213">
        <ele>49</ele>
        <time>2024-01-22T15:18:16.611+00:00</time>
      </trkpt>
      <trkpt lat="48.69844" lon="2.5021">
        <ele>49</ele>
        <time>2024-01-22T15:18:20.685+00:00</time>
      </trkpt>
      <trkpt lat="48.69842" lon="2.50206">
        <ele>48</ele>
        <time>2024-01-22T15:18:24.639+00:00</time>
      </trkpt>
      <trkpt lat="48.6984" lon="2.50195">
        <ele>48</ele>
        <time>2024-01-22T15:18:29.072+00:00</time>
      </trkpt>
      <trkpt lat="48.69843" lon="2.50188">
        <ele>48</ele>
        <time>2024-01-22T15:18:33.386+00:00</time>
      </trkpt>
      <trkpt lat="48.69849" lon="2.50183">
        <ele>49</ele>
        <time>2024-01-22T15:18:37.340+00:00</time>
      </trkpt>
      <trkpt lat="48.69853" lon="2.50181">
        <ele>49</ele>
        <time>2024-01-22T15:18:41.891+00:00</time>
      </trkpt>
      <trkpt lat="48.69856" lon="2.50179">
        <ele>48</ele>
        <time>2024-01-22T15:18:46.081+00:00</time>
      </trkpt>
      <trkpt lat="48.6986" lon="2.50177">
        <ele>48</ele>
        <time>2024-01-22T15:18:50.153+00:00</time>
      </trkpt>
      <trkpt lat="48.69871" lon="2.5017">
        <ele>48</ele>
        <time>2024-01-22T15:18:54.822+00:00</time>
      </trkpt>
      <trkpt lat="48.69876" lon="2.50166">
        <ele>50</ele>
        <time>2024-01-22T15:18:58.775+00:00</time>
      </trkpt>
      <trkpt lat="48.69878" lon="2.50161">
        <ele>50</ele>
        <time>2024-01-22T15:19:02.849+00:00</time>
      </trkpt>
      <trkpt lat="48.69883" lon="2.50156">
        <ele>50</ele>
        <time>2024-01-22T15:19:07.203+00:00</time>
      </trkpt>
      <trkpt lat="48.69889" lon="2.50152">
        <ele>51</ele>
        <time>2024-01-22T15:19:11.236+00:00</time>
      </trkpt>
      <trkpt lat="48.69894" lon="2.50147">
        <ele>51</ele>
        <time>2024-01-22T15:19:15.549+00:00</time>
      </trkpt>
      <trkpt lat="48.69899" lon="2.50141">
        <ele>51</ele>
        <time>2024-01-22T15:19:19.907+00:00</time>
      </trkpt>
      <trkpt lat="48.69906" lon="2.50134">
        <ele>52</ele>
        <time>2024-01-22T15:19:24.190+00:00</time>
      </trkpt>
      <trkpt lat="48.6991" lon="2.5013">
        <ele>52</ele>
        <time>2024-01-22T15:19:27.972+00:00</time>
      </trkpt>
      <trkpt lat="48.6992" lon="2.50122">
        <ele>53</ele>
        <time>2024-01-22T15:20:16.200+00:00</time>
      </trkpt>
      <trkpt lat="48.6992" lon="2.50123">
        <ele>53</ele>
        <time>2024-01-22T15:20:21.236+00:00</time>
      </trkpt>
      <trkpt lat="48.69923" lon="2.50121">
        <ele>53</ele>
        <time>2024-01-22T15:20:25.238+00:00</time>
      </trkpt>
      <trkpt lat="48.6993" lon="0">
        <ele>53</ele>
        <time>2024-01-22T15:20:29.266+00:00</time>
      </trkpt>
      <trkpt lat="48.69931" lon="2.50115">
        <ele>53</ele>
        <time>2024-01-22T15:20:33.098+00:00</time>
      </trkpt>
      <trkpt lat="48.69935" lon="2.5011">
        <ele>53</ele>
        <time>2024-01-22T15:20:37.035+00:00</time>
      </trkpt>
      <trkpt lat="48.69939" lon="2.50106">
        <ele>53</ele>
        <time>2024-01-22T15:20:42.069+00:00</time>
      </trkpt>
      <trkpt lat="48.69941" lon="2.50103">
        <ele>53</ele>
        <time>2024-01-22T15:20:46.662+00:00</time>
      </trkpt>
      <trkpt lat="48.69946" lon="2.501">
        <ele>53</ele>
        <time>2024-01-22T15:20:50.803+00:00</time>
      </trkpt>
      <trkpt lat="48.69953" lon="2.50093">
        <ele>53</ele>
        <time>2024-01-22T15:20:55.122+00:00</time>
      </trkpt>
      <trkpt lat="48.69959" lon="2.50089">
        <ele>52</ele>
        <time>2024-01-22T15:20:59.660+00:00</time>
      </trkpt>
      <trkpt lat="48.69966" lon="2.50093">
        <ele>52</ele>
        <time>2024-01-22T15:21:04.928+00:00</time>
      </trkpt>
      <trkpt lat="48.69971" lon="2.50097">
        <ele>52</ele>
        <time>2024-01-22T15:21:08.850+00:00</time>
      </trkpt>
      <trkpt lat="48.69976" lon="2.50084">
        <ele>52</ele>
        <time>2024-01-22T15:21:13.024+00:00</time>
      </trkpt>
      <trkpt lat="48.6998" lon="2.5007">
        <ele>52</ele>
        <time>2024-01-22T15:21:17.421+00:00</time>
      </trkpt>
      <trkpt lat="48.69982" lon="2.50065">
        <ele>53</ele>
        <time>2024-01-22T15:21:21.835+00:00</time>
      </trkpt>
      <trkpt lat="48.69988" lon="2.50067">
        <ele>53</ele>
        <time>2024-01-22T15:21:25.907+00:00</time>
      </trkpt>
      <trkpt lat="48.69997" lon="2.50056">
        <ele>53</ele>
        <time>2024-01-22T15:21:34.272+00:00</time>
      </trkpt>
      <trkpt lat="48.69998" lon="2.50061">
        <ele>53</ele>
        <time>2024-01-22T15:21:38.721+00:00</time>
      </trkpt>
      <trkpt lat="48.69998" lon="2.50064">
        <ele>53</ele>
        <time>2024-01-22T15:21:42.077+00:00</time>
      </trkpt>
      <trkpt lat="48.70001" lon="2.50065">
        <ele>53</ele>
        <time>2024-01-22T15:21:51.177+00:00</time>
      </trkpt>
      <trkpt lat="48.70009" lon="2.50059">
        <ele>53</ele>
        <time>2024-01-22T15:21:55.203+00:00</time>
      </trkpt>
      <trkpt lat="48.70018" lon="2.50051">
        <ele>54</ele>
        <time>2024-01-22T15:21:59.712+00:00</time>
      </trkpt>
      <trkpt lat="48.70017" lon="2.50046">
        <ele>54</ele>
        <time>2024-01-22T15:22:03.719+00:00</time>
      </trkpt>
      <trkpt lat="48.70019" lon="2.50045">
        <ele>54</ele>
        <time>2024-01-22T15:22:07.961+00:00</time>
      </trkpt>
      <trkpt lat="48.70024" lon="2.50042">
        <ele>54</ele>
        <time>2024-01-22T15:22:12.460+00:00</time>
      </trkpt>
      <trkpt lat="48.70028" lon="2.50034">
        <ele>53</ele>
        <time>2024-01-22T15:22:16.381+00:00</time>
      </trkpt>
      <trkpt lat="48.70035" lon="2.50026">
        <ele>53</ele>
        <time>2024-01-22T15:22:20.660+00:00</time>
      </trkpt>
      <trkpt lat="48.70039" lon="2.5002">
        <ele>53</ele>
        <time>2024-01-22T15:22:24.420+00:00</time>
      </trkpt>
      <trkpt lat="48.70044" lon="2.50013">
        <ele>52</ele>
        <time>2024-01-22T15:22:28.838+00:00</time>
      </trkpt>
      <trkpt lat="48.70046" lon="2.50005">
        <ele>52</ele>
        <time>2024-01-22T15:22:33.275+00:00</time>
      </trkpt>
      <trkpt lat="48.7005" lon="2.49996">
        <ele>52</ele>
        <time>2024-01-22T15:22:37.832+00:00</time>
      </trkpt>
      <trkpt lat="48.70054" lon="2.49991">
        <ele>52</ele>
        <time>2024-01-22T15:22:42.249+00:00</time>
      </trkpt>
      <trkpt lat="48.70058" lon="2.49986">
        <ele>51</ele>
        <time>2024-01-22T15:22:47.248+00:00</time>
      </trkpt>
      <trkpt lat="48.70063" lon="2.49977">
        <ele>51</ele>
        <time>2024-01-22T15:22:51.717+00:00</time>
      </trkpt>
      <trkpt lat="48.70068" lon="2.49975">
        <ele>51</ele>
        <time>2024-01-22T15:22:55.673+00:00</time>
      </trkpt>
      <trkpt lat="48.70073" lon="2.49981">
        <ele>51</ele>
        <time>2024-01-22T15:23:00.021+00:00</time>
      </trkpt>
      <trkpt lat="48.70077" lon="2.49974">
        <ele>51</ele>
        <time>2024-01-22T15:23:04.006+00:00</time>
      </trkpt>
      <trkpt lat="48.70077" lon="2.49963">
        <ele>51</ele>
        <time>2024-01-22T15:23:07.963+00:00</time>
      </trkpt>
      <trkpt lat="48.70085" lon="2.49955">
        <ele>51</ele>
        <time>2024-01-22T15:23:12.638+00:00</time>
      </trkpt>
      <trkpt lat="48.7009" lon="2.49947">
        <ele>51</ele>
        <time>2024-01-22T15:23:17.154+00:00</time>
      </trkpt>
      <trkpt lat="48.70094" lon="2.49941">
        <ele>51</ele>
        <time>2024-01-22T15:23:21.230+00:00</time>
      </trkpt>
      <trkpt lat="48.70099" lon="2.49936">
        <ele>51</ele>
        <time>2024-01-22T15:23:25.977+00:00</time>
      </trkpt>
      <trkpt lat="48.70104" lon="2.49936">
        <ele>51</ele>
        <time>2024-01-22T15:23:29.857+00:00</time>
      </trkpt>
      <trkpt lat="48.70113" lon="2.49934">
        <ele>51</ele>
        <time>2024-01-22T15:23:33.812+00:00</time>
      </trkpt>
      <trkpt lat="48.70121" lon="2.4993">
        <ele>50</ele>
        <time>2024-01-22T15:23:38.270+00:00</time>
      </trkpt>
      <trkpt lat="48.70126" lon="2.49932">
        <ele>52</ele>
        <time>2024-01-22T15:23:42.253+00:00</time>
      </trkpt>
      <trkpt lat="48.7013" lon="2.4993">
        <ele>51</ele>
        <time>2024-01-22T15:23:46.076+00:00</time>
      </trkpt>
      <trkpt lat="48.70135" lon="2.49924">
        <ele>51</ele>
        <time>2024-01-22T15:23:50.451+00:00</time>
      </trkpt>
      <trkpt lat="48.70139" lon="2.4992">
        <ele>51</ele>
        <time>2024-01-22T15:23:54.506+00:00</time>
      </trkpt>
      <trkpt lat="48.70144" lon="2.49916">
        <ele>51</ele>
        <time>2024-01-22T15:23:59.060+00:00</time>
      </trkpt>
      <trkpt lat="48.70148" lon="2.49912">
        <ele>51</ele>
        <time>2024-01-22T15:24:03.016+00:00</time>
      </trkpt>
      <trkpt lat="48.70153" lon="2.49909">
        <ele>50</ele>
        <time>2024-01-22T15:24:06.971+00:00</time>
      </trkpt>
      <trkpt lat="48.70159" lon="2.49905">
        <ele>50</ele>
        <time>2024-01-22T15:24:11.272+00:00</time>
      </trkpt>
      <trkpt lat="48.70164" lon="2.49902">
        <ele>50</ele>
        <time>2024-01-22T15:24:15.840+00:00</time>
      </trkpt>
      <trkpt lat="48.70168" lon="2.499">
        <ele>50</ele>
        <time>2024-01-22T15:24:20.035+00:00</time>
      </trkpt>
      <trkpt lat="48.70171" lon="2.49897">
        <ele>50</ele>
        <time>2024-01-22T15:24:24.709+00:00</time>
      </trkpt>
      <trkpt lat="48.70176" lon="2.49894">
        <ele>50</ele>
        <time>2024-01-22T15:24:28.663+00:00</time>
      </trkpt>
      <trkpt lat="48.70181" lon="2.49892">
        <ele>49</ele>
        <time>2024-01-22T15:24:33.097+00:00</time>
      </trkpt>
      <trkpt lat="48.70182" lon="2.49891">
        <ele>49</ele>
        <time>2024-01-22T15:24:37.051+00:00</time>
      </trkpt>
      <trkpt lat="48.70186" lon="2.49892">
        <ele>49</ele>
        <time>2024-01-22T15:24:41.244+00:00</time>
      </trkpt>
      <trkpt lat="48.70191" lon="2.49893">
        <ele>49</ele>
        <time>2024-01-22T15:24:45.738+00:00</time>
      </trkpt>
      <trkpt lat="48.70197" lon="2.49892">
        <ele>49</ele>
        <time>2024-01-22T15:24:49.630+00:00</time>
      </trkpt>
      <trkpt lat="48.70205" lon="2.49893">
        <ele>49</ele>
        <time>2024-01-22T15:24:54.062+00:00</time>
      </trkpt>
      <trkpt lat="48.70213" lon="2.49892">
        <ele>50</ele>
        <time>2024-01-22T15:24:58.016+00:00</time>
      </trkpt>
      <trkpt lat="48.70219" lon="2.49891">
        <ele>50</ele>
        <time>2024-01-22T15:25:02.331+00:00</time>
      </trkpt>
      <trkpt lat="48.70228" lon="2.49894">
        <ele>50</ele>
        <time>2024-01-22T15:25:06.765+00:00</time>
      </trkpt>
      <trkpt lat="48.70235" lon="2.49895">
        <ele>50</ele>
        <time>2024-01-22T15:25:11.261+00:00</time>
      </trkpt>
      <trkpt lat="48.7024" lon="2.49895">
        <ele>51</ele>
        <time>2024-01-22T15:25:15.260+00:00</time>
      </trkpt>
      <trkpt lat="48.70248" lon="2.49895">
        <ele>51</ele>
        <time>2024-01-22T15:25:20.252+00:00</time>
      </trkpt>
      <trkpt lat="48.70254" lon="2.49896">
        <ele>51</ele>
        <time>2024-01-22T15:25:24.255+00:00</time>
      </trkpt>
      <trkpt lat="48.70258" lon="2.49899">
        <ele>51</ele>
        <time>2024-01-22T15:25:28.836+00:00</time>
      </trkpt>
      <trkpt lat="48.70264" lon="2.49892">
        <ele>51</ele>
        <time>2024-01-22T15:25:33.393+00:00</time>
      </trkpt>
      <trkpt lat="48.7027" lon="2.4989">
        <ele>51</ele>
        <time>2024-01-22T15:25:37.948+00:00</time>
      </trkpt>
      <trkpt lat="48.70276" lon="2.4989">
        <ele>51</ele>
        <time>2024-01-22T15:25:42.268+00:00</time>
      </trkpt>
      <trkpt lat="48.70284" lon="2.49889">
        <ele>51</ele>
        <time>2024-01-22T15:25:46.920+00:00</time>
      </trkpt>
      <trkpt lat="48.70289" lon="2.49889">
        <ele>51</ele>
        <time>2024-01-22T15:25:50.793+00:00</time>
      </trkpt>
      <trkpt lat="48.70295" lon="2.49891">
        <ele>52</ele>
        <time>2024-01-22T15:25:55.739+00:00</time>
      </trkpt>
      <trkpt lat="48.70299" lon="2.49891">
        <ele>52</ele>
        <time>2024-01-22T15:25:59.644+00:00</time>
      </trkpt>
      <trkpt lat="48.70304" lon="2.49887">
        <ele>52</ele>
        <time>2024-01-22T15:26:04.252+00:00</time>
      </trkpt>
      <trkpt lat="48.7031" lon="2.49887">
        <ele>52</ele>
        <time>2024-01-22T15:26:08.611+00:00</time>
      </trkpt>
      <trkpt lat="48.70316" lon="2.49887">
        <ele>52</ele>
        <time>2024-01-22T15:26:13.044+00:00</time>
      </trkpt>
      <trkpt lat="48.70323" lon="2.49891">
        <ele>53</ele>
        <time>2024-01-22T15:26:17.119+00:00</time>
      </trkpt>
      <trkpt lat="48.7033" lon="2.49891">
        <ele>53</ele>
        <time>2024-01-22T15:26:22.030+00:00</time>
      </trkpt>
      <trkpt lat="48.70334" lon="2.49888">
        <ele>53</ele>
        <time>2024-01-22T15:26:26.104+00:00</time>
      </trkpt>
      <trkpt lat="48.70341" lon="2.49888">
        <ele>53</ele>
        <time>2024-01-22T15:26:30.657+00:00</time>
      </trkpt>
      <trkpt lat="48.70347" lon="2.49885">
        <ele>54</ele>
        <time>2024-01-22T15:26:35.230+00:00</time>
      </trkpt>
      <trkpt lat="48.70352" lon="2.49882">
        <ele>54</ele>
        <time>2024-01-22T15:26:39.260+00:00</time>
      </trkpt>
      <trkpt lat="48.70357" lon="2.4988">
        <ele>54</ele>
        <time>2024-01-22T15:26:43.837+00:00</time>
      </trkpt>
      <trkpt lat="48.70362" lon="2.4988">
        <ele>54</ele>
        <time>2024-01-22T15:26:48.391+00:00</time>
      </trkpt>
      <trkpt lat="48.70367" lon="2.49875">
        <ele>54</ele>
        <time>2024-01-22T15:26:53.006+00:00</time>
      </trkpt>
      <trkpt lat="48.70372" lon="2.49872">
        <ele>53</ele>
        <time>2024-01-22T15:26:56.841+00:00</time>
      </trkpt>
      <trkpt lat="48.70377" lon="2.49871">
        <ele>52</ele>
        <time>2024-01-22T15:27:00.855+00:00</time>
      </trkpt>
      <trkpt lat="48.70381" lon="2.49871">
        <ele>52</ele>
        <time>2024-01-22T15:27:05.046+00:00</time>
      </trkpt>
      <trkpt lat="48.70385" lon="2.49871">
        <ele>52</ele>
        <time>2024-01-22T15:27:10.046+00:00</time>
      </trkpt>
      <trkpt lat="48.70389" lon="2.49871">
        <ele>52</ele>
        <time>2024-01-22T15:27:14.022+00:00</time>
      </trkpt>
      <trkpt lat="48.70395" lon="2.49871">
        <ele>52</ele>
        <time>2024-01-22T15:27:19.049+00:00</time>
      </trkpt>
      <trkpt lat="48.70398" lon="2.49871">
        <ele>52</ele>
        <time>2024-01-22T15:27:23+00:00</time>
      </trkpt>
      <trkpt lat="48.704" lon="2.49873">
        <ele>52</ele>
        <time>2024-01-22T15:27:28.106+00:00</time>
      </trkpt>
      <trkpt lat="48.70404" lon="2.49875">
        <ele>50</ele>
        <time>2024-01-22T15:27:32.095+00:00</time>
      </trkpt>
      <trkpt lat="48.70409" lon="2.49875">
        <ele>52</ele>
        <time>2024-01-22T15:27:37.225+00:00</time>
      </trkpt>
      <trkpt lat="48.70415" lon="2.49873">
        <ele>50</ele>
        <time>2024-01-22T15:27:41.433+00:00</time>
      </trkpt>
      <trkpt lat="48.7042" lon="2.49872">
        <ele>50</ele>
        <time>2024-01-22T15:27:45.526+00:00</time>
      </trkpt>
      <trkpt lat="48.70425" lon="2.49872">
        <ele>50</ele>
        <time>2024-01-22T15:27:50.046+00:00</time>
      </trkpt>
      <trkpt lat="48.70428" lon="2.49873">
        <ele>50</ele>
        <time>2024-01-22T15:27:54.103+00:00</time>
      </trkpt>
      <trkpt lat="48.70431" lon="2.49874">
        <ele>49</ele>
        <time>2024-01-22T15:27:58.052+00:00</time>
      </trkpt>
      <trkpt lat="48.70436" lon="2.49876">
        <ele>50</ele>
        <time>2024-01-22T15:28:02.840+00:00</time>
      </trkpt>
      <trkpt lat="48.7044" lon="2.49877">
        <ele>50</ele>
        <time>2024-01-22T15:28:07.269+00:00</time>
      </trkpt>
      <trkpt lat="48.70445" lon="2.49879">
        <ele>50</ele>
        <time>2024-01-22T15:28:11.912+00:00</time>
      </trkpt>
      <trkpt lat="48.70452" lon="2.49882">
        <ele>50</ele>
        <time>2024-01-22T15:28:15.887+00:00</time>
      </trkpt>
      <trkpt lat="48.70458" lon="2.49884">
        <ele>50</ele>
        <time>2024-01-22T15:28:20.526+00:00</time>
      </trkpt>
      <trkpt lat="48.70463" lon="2.49885">
        <ele>49</ele>
        <time>2024-01-22T15:28:25.081+00:00</time>
      </trkpt>
      <trkpt lat="48.70467" lon="2.49884">
        <ele>49</ele>
        <time>2024-01-22T15:28:29.028+00:00</time>
      </trkpt>
      <trkpt lat="48.70469" lon="2.49883">
        <ele>49</ele>
        <time>2024-01-22T15:28:33.333+00:00</time>
      </trkpt>
      <trkpt lat="48.70472" lon="2.49883">
        <ele>49</ele>
        <time>2024-01-22T15:28:37.998+00:00</time>
      </trkpt>
      <trkpt lat="48.70474" lon="2.49884">
        <ele>49</ele>
        <time>2024-01-22T15:28:42.424+00:00</time>
      </trkpt>
      <trkpt lat="48.70477" lon="2.49886">
        <ele>49</ele>
        <time>2024-01-22T15:28:46.851+00:00</time>
      </trkpt>
      <trkpt lat="48.70482" lon="2.49889">
        <ele>49</ele>
        <time>2024-01-22T15:28:51.159+00:00</time>
      </trkpt>
      <trkpt lat="48.70487" lon="2.49892">
        <ele>50</ele>
        <time>2024-01-22T15:28:55.226+00:00</time>
      </trkpt>
      <trkpt lat="48.70496" lon="2.49896">
        <ele>50</ele>
        <time>2024-01-22T15:28:59.056+00:00</time>
      </trkpt>
      <trkpt lat="48.70504" lon="2.49902">
        <ele>50</ele>
        <time>2024-01-22T15:29:03.805+00:00</time>
      </trkpt>
      <trkpt lat="48.7051" lon="2.49904">
        <ele>51</ele>
        <time>2024-01-22T15:29:08.204+00:00</time>
      </trkpt>
      <trkpt lat="48.70517" lon="2.49906">
        <ele>52</ele>
        <time>2024-01-22T15:29:12.100+00:00</time>
      </trkpt>
      <trkpt lat="48.70523" lon="2.49908">
        <ele>52</ele>
        <time>2024-01-22T15:29:17.166+00:00</time>
      </trkpt>
      <trkpt lat="48.70528" lon="2.4991">
        <ele>52</ele>
        <time>2024-01-22T15:29:21.073+00:00</time>
      </trkpt>
      <trkpt lat="48.70534" lon="2.49911">
        <ele>52</ele>
        <time>2024-01-22T15:29:26.012+00:00</time>
      </trkpt>
      <trkpt lat="48.7054" lon="2.49912">
        <ele>52</ele>
        <time>2024-01-22T15:29:30.028+00:00</time>
      </trkpt>
      <trkpt lat="48.70546" lon="2.49913">
        <ele>53</ele>
        <time>2024-01-22T15:29:33.975+00:00</time>
      </trkpt>
      <trkpt lat="48.70554" lon="2.49915">
        <ele>53</ele>
        <time>2024-01-22T15:29:38.521+00:00</time>
      </trkpt>
      <trkpt lat="48.70561" lon="2.49918">
        <ele>53</ele>
        <time>2024-01-22T15:29:42.948+00:00</time>
      </trkpt>
      <trkpt lat="48.70566" lon="2.4992">
        <ele>53</ele>
        <time>2024-01-22T15:29:47.016+00:00</time>
      </trkpt>
      <trkpt lat="48.70571" lon="2.49922">
        <ele>52</ele>
        <time>2024-01-22T15:29:52.042+00:00</time>
      </trkpt>
      <trkpt lat="48.70577" lon="2.49924">
        <ele>52</ele>
        <time>2024-01-22T15:29:56.111+00:00</time>
      </trkpt>
      <trkpt lat="48.70583" lon="2.49928">
        <ele>52</ele>
        <time>2024-01-22T15:30:00.061+00:00</time>
      </trkpt>
      <trkpt lat="48.70588" lon="2.49932">
        <ele>53</ele>
        <time>2024-01-22T15:30:03.892+00:00</time>
      </trkpt>
      <trkpt lat="48.70597" lon="2.49941">
        <ele>53</ele>
        <time>2024-01-22T15:30:08.439+00:00</time>
      </trkpt>
      <trkpt lat="48.70604" lon="2.49945">
        <ele>50</ele>
        <time>2024-01-22T15:30:12.629+00:00</time>
      </trkpt>
      <trkpt lat="48.70609" lon="2.49947">
        <ele>50</ele>
        <time>2024-01-22T15:30:17.168+00:00</time>
      </trkpt>
      <trkpt lat="48.70614" lon="2.4995">
        <ele>50</ele>
        <time>2024-01-22T15:30:21.245+00:00</time>
      </trkpt>
      <trkpt lat="48.70621" lon="2.49955">
        <ele>50</ele>
        <time>2024-01-22T15:30:25.674+00:00</time>
      </trkpt>
      <trkpt lat="48.70627" lon="2.49958">
        <ele>51</ele>
        <time>2024-01-22T15:30:30.102+00:00</time>
      </trkpt>
      <trkpt lat="48.70634" lon="2.49962">
        <ele>51</ele>
        <time>2024-01-22T15:30:34.652+00:00</time>
      </trkpt>
      <trkpt lat="48.7064" lon="2.49966">
        <ele>51</ele>
        <time>2024-01-22T15:30:39.103+00:00</time>
      </trkpt>
      <trkpt lat="48.70646" lon="2.49969">
        <ele>51</ele>
        <time>2024-01-22T15:30:43.030+00:00</time>
      </trkpt>
      <trkpt lat="48.70652" lon="2.49974">
        <ele>51</ele>
        <time>2024-01-22T15:30:47.526+00:00</time>
      </trkpt>
      <trkpt lat="48.70658" lon="2.49978">
        <ele>45</ele>
        <time>2024-01-22T15:30:51.987+00:00</time>
      </trkpt>
      <trkpt lat="48.70663" lon="2.49982">
        <ele>45</ele>
        <time>2024-01-22T15:30:56.055+00:00</time>
      </trkpt>
      <trkpt lat="48.70669" lon="2.49985">
        <ele>45</ele>
        <time>2024-01-22T15:31:00.225+00:00</time>
      </trkpt>
      <trkpt lat="48.70674" lon="2.49989">
        <ele>47</ele>
        <time>2024-01-22T15:31:04.264+00:00</time>
      </trkpt>
      <trkpt lat="48.70679" lon="2.49994">
        <ele>47</ele>
        <time>2024-01-22T15:31:09.206+00:00</time>
      </trkpt>
      <trkpt lat="48.70686" lon="2.50001">
        <ele>41</ele>
        <time>2024-01-22T15:31:13.230+00:00</time>
      </trkpt>
      <trkpt lat="48.70692" lon="2.50003">
        <ele>41</ele>
        <time>2024-01-22T15:31:17.275+00:00</time>
      </trkpt>
      <trkpt lat="48.70697" lon="2.50009">
        <ele>41</ele>
        <time>2024-01-22T15:31:21.626+00:00</time>
      </trkpt>
      <trkpt lat="48.70702" lon="2.50012">
        <ele>41</ele>
        <time>2024-01-22T15:31:25.672+00:00</time>
      </trkpt>
      <trkpt lat="48.70709" lon="2.50012">
        <ele>40</ele>
        <time>2024-01-22T15:31:30.099+00:00</time>
      </trkpt>
      <trkpt lat="48.70715" lon="2.50002">
        <ele>40</ele>
        <time>2024-01-22T15:31:34.049+00:00</time>
      </trkpt>
      <trkpt lat="48.70721" lon="2.50003">
        <ele>40</ele>
        <time>2024-01-22T15:31:38.558+00:00</time>
      </trkpt>
      <trkpt lat="48.70725" lon="2.50009">
        <ele>40</ele>
        <time>2024-01-22T15:31:42.867+00:00</time>
      </trkpt>
      <trkpt lat="48.70729" lon="2.50014">
        <ele>41</ele>
        <time>2024-01-22T15:31:47.155+00:00</time>
      </trkpt>
      <trkpt lat="48.70728" lon="2.50021">
        <ele>41</ele>
        <time>2024-01-22T15:31:51.763+00:00</time>
      </trkpt>
      <trkpt lat="48.70728" lon="2.50028">
        <ele>41</ele>
        <time>2024-01-22T15:31:56.189+00:00</time>
      </trkpt>
      <trkpt lat="48.70728" lon="2.50036">
        <ele>41</ele>
        <time>2024-01-22T15:32:00.727+00:00</time>
      </trkpt>
      <trkpt lat="48.70731" lon="2.50039">
        <ele>41</ele>
        <time>2024-01-22T15:32:04.663+00:00</time>
      </trkpt>
      <trkpt lat="48.70736" lon="2.50033">
        <ele>41</ele>
        <time>2024-01-22T15:32:08.849+00:00</time>
      </trkpt>
      <trkpt lat="48.70741" lon="2.50025">
        <ele>41</ele>
        <time>2024-01-22T15:32:13.037+00:00</time>
      </trkpt>
      <trkpt lat="48.70745" lon="2.50017">
        <ele>41</ele>
        <time>2024-01-22T15:32:16.986+00:00</time>
      </trkpt>
      <trkpt lat="48.70747" lon="2.50004">
        <ele>40</ele>
        <time>2024-01-22T15:32:21.412+00:00</time>
      </trkpt>
      <trkpt lat="48.70748" lon="2.49994">
        <ele>40</ele>
        <time>2024-01-22T15:32:25.361+00:00</time>
      </trkpt>
      <trkpt lat="48.70752" lon="2.49987">
        <ele>40</ele>
        <time>2024-01-22T15:32:29.873+00:00</time>
      </trkpt>
      <trkpt lat="48.70754" lon="2.49981">
        <ele>40</ele>
        <time>2024-01-22T15:32:34.270+00:00</time>
      </trkpt>
      <trkpt lat="48.70755" lon="2.49976">
        <ele>40</ele>
        <time>2024-01-22T15:32:38.882+00:00</time>
      </trkpt>
      <trkpt lat="48.70755" lon="2.49971">
        <ele>40</ele>
        <time>2024-01-22T15:32:42.831+00:00</time>
      </trkpt>
      <trkpt lat="48.70756" lon="2.49964">
        <ele>40</ele>
        <time>2024-01-22T15:32:46.760+00:00</time>
      </trkpt>
      <trkpt lat="48.70758" lon="2.49954">
        <ele>39</ele>
        <time>2024-01-22T15:32:51.187+00:00</time>
      </trkpt>
      <trkpt lat="48.7076" lon="2.49945">
        <ele>39</ele>
        <time>2024-01-22T15:32:55.256+00:00</time>
      </trkpt>
      <trkpt lat="48.70762" lon="2.49935">
        <ele>39</ele>
        <time>2024-01-22T15:32:59.682+00:00</time>
      </trkpt>
      <trkpt lat="48.70764" lon="2.49927">
        <ele>39</ele>
        <time>2024-01-22T15:33:03.869+00:00</time>
      </trkpt>
      <trkpt lat="48.70766" lon="2.49917">
        <ele>41</ele>
        <time>2024-01-22T15:33:08.776+00:00</time>
      </trkpt>
      <trkpt lat="48.7077" lon="2.49906">
        <ele>41</ele>
        <time>2024-01-22T15:33:13.803+00:00</time>
      </trkpt>
      <trkpt lat="48.70773" lon="2.49898">
        <ele>40</ele>
        <time>2024-01-22T15:33:17.850+00:00</time>
      </trkpt>
      <trkpt lat="48.70775" lon="2.49889">
        <ele>40</ele>
        <time>2024-01-22T15:33:22.037+00:00</time>
      </trkpt>
      <trkpt lat="48.70777" lon="2.49878">
        <ele>40</ele>
        <time>2024-01-22T15:33:26.823+00:00</time>
      </trkpt>
      <trkpt lat="48.70778" lon="2.49872">
        <ele>39</ele>
        <time>2024-01-22T15:33:30.772+00:00</time>
      </trkpt>
      <trkpt lat="48.70779" lon="2.49865">
        <ele>39</ele>
        <time>2024-01-22T15:33:35.255+00:00</time>
      </trkpt>
      <trkpt lat="48.70783" lon="2.49857">
        <ele>39</ele>
        <time>2024-01-22T15:33:39.835+00:00</time>
      </trkpt>
      <trkpt lat="48.70786" lon="2.49848">
        <ele>39</ele>
        <time>2024-01-22T15:33:44.029+00:00</time>
      </trkpt>
      <trkpt lat="48.70786" lon="2.49847">
        <ele>38</ele>
        <time>2024-01-22T15:33:44.628+00:00</time>
      </trkpt>
      <trkpt lat="48.70795" lon="2.49831">
        <ele>39</ele>
        <time>2024-01-22T15:33:53.829+00:00</time>
      </trkpt>
      <trkpt lat="48.70798" lon="2.49826">
        <ele>39</ele>
        <time>2024-01-22T15:33:57.841+00:00</time>
      </trkpt>
      <trkpt lat="48.70803" lon="2.49824">
        <ele>39</ele>
        <time>2024-01-22T15:34:02.852+00:00</time>
      </trkpt>
      <trkpt lat="48.70807" lon="2.49818">
        <ele>37</ele>
        <time>2024-01-22T15:34:07.359+00:00</time>
      </trkpt>
      <trkpt lat="48.70812" lon="2.49815">
        <ele>37</ele>
        <time>2024-01-22T15:34:11.672+00:00</time>
      </trkpt>
      <trkpt lat="48.70818" lon="2.49813">
        <ele>37</ele>
        <time>2024-01-22T15:34:16.157+00:00</time>
      </trkpt>
      <trkpt lat="48.70824" lon="2.49809">
        <ele>38</ele>
        <time>2024-01-22T15:34:20.772+00:00</time>
      </trkpt>
      <trkpt lat="48.7083" lon="2.49804">
        <ele>38</ele>
        <time>2024-01-22T15:34:24.847+00:00</time>
      </trkpt>
      <trkpt lat="48.70836" lon="2.49801">
        <ele>38</ele>
        <time>2024-01-22T15:34:29.640+00:00</time>
      </trkpt>
      <trkpt lat="48.70841" lon="2.49803">
        <ele>38</ele>
        <time>2024-01-22T15:34:33.835+00:00</time>
      </trkpt>
      <trkpt lat="48.70844" lon="2.49805">
        <ele>38</ele>
        <time>2024-01-22T15:34:38.387+00:00</time>
      </trkpt>
      <trkpt lat="48.70851" lon="2.49805">
        <ele>39</ele>
        <time>2024-01-22T15:34:42.820+00:00</time>
      </trkpt>
      <trkpt lat="48.70856" lon="2.49803">
        <ele>39</ele>
        <time>2024-01-22T15:34:47.250+00:00</time>
      </trkpt>
      <trkpt lat="48.70861" lon="2.49801">
        <ele>39</ele>
        <time>2024-01-22T15:34:51.641+00:00</time>
      </trkpt>
      <trkpt lat="48.70868" lon="2.49801">
        <ele>39</ele>
        <time>2024-01-22T15:34:55.830+00:00</time>
      </trkpt>
      <trkpt lat="48.70873" lon="2.498">
        <ele>39</ele>
        <time>2024-01-22T15:35:00.041+00:00</time>
      </trkpt>
      <trkpt lat="48.70878" lon="2.49802">
        <ele>39</ele>
        <time>2024-01-22T15:35:04.526+00:00</time>
      </trkpt>
      <trkpt lat="48.70884" lon="2.49804">
        <ele>39</ele>
        <time>2024-01-22T15:35:09.026+00:00</time>
      </trkpt>
      <trkpt lat="48.70888" lon="2.49806">
        <ele>39</ele>
        <time>2024-01-22T15:35:12.978+00:00</time>
      </trkpt>
      <trkpt lat="48.70893" lon="2.49808">
        <ele>39</ele>
        <time>2024-01-22T15:35:17.289+00:00</time>
      </trkpt>
      <trkpt lat="48.70899" lon="2.49811">
        <ele>39</ele>
        <time>2024-01-22T15:35:22.269+00:00</time>
      </trkpt>
      <trkpt lat="48.70903" lon="2.49815">
        <ele>40</ele>
        <time>2024-01-22T15:35:26.024+00:00</time>
      </trkpt>
      <trkpt lat="48.70909" lon="2.49817">
        <ele>40</ele>
        <time>2024-01-22T15:35:30.453+00:00</time>
      </trkpt>
      <trkpt lat="48.70914" lon="2.49819">
        <ele>40</ele>
        <time>2024-01-22T15:35:35.253+00:00</time>
      </trkpt>
      <trkpt lat="48.7092" lon="2.49823">
        <ele>42</ele>
        <time>2024-01-22T15:35:39.426+00:00</time>
      </trkpt>
      <trkpt lat="48.70923" lon="2.4983">
        <ele>42</ele>
        <time>2024-01-22T15:35:43.788+00:00</time>
      </trkpt>
      <trkpt lat="48.70926" lon="2.49833">
        <ele>42</ele>
        <time>2024-01-22T15:35:47.684+00:00</time>
      </trkpt>
      <trkpt lat="48.7093" lon="2.49836">
        <ele>42</ele>
        <time>2024-01-22T15:35:52.232+00:00</time>
      </trkpt>
      <trkpt lat="48.70935" lon="2.49842">
        <ele>43</ele>
        <time>2024-01-22T15:35:56.780+00:00</time>
      </trkpt>
      <trkpt lat="48.70939" lon="2.49848">
        <ele>45</ele>
        <time>2024-01-22T15:36:00.816+00:00</time>
      </trkpt>
      <trkpt lat="48.70944" lon="2.49853">
        <ele>45</ele>
        <time>2024-01-22T15:36:04.814+00:00</time>
      </trkpt>
      <trkpt lat="48.70949" lon="2.49857">
        <ele>45</ele>
        <time>2024-01-22T15:36:08.890+00:00</time>
      </trkpt>
      <trkpt lat="48.70953" lon="2.49863">
        <ele>45</ele>
        <time>2024-01-22T15:36:13.283+00:00</time>
      </trkpt>
      <trkpt lat="48.70958" lon="2.49868">
        <ele>45</ele>
        <time>2024-01-22T15:36:17.856+00:00</time>
      </trkpt>
      <trkpt lat="48.70963" lon="2.49871">
        <ele>45</ele>
        <time>2024-01-22T15:36:22.049+00:00</time>
      </trkpt>
      <trkpt lat="48.70967" lon="2.49876">
        <ele>46</ele>
        <time>2024-01-22T15:36:26.239+00:00</time>
      </trkpt>
      <trkpt lat="48.7097" lon="2.49878">
        <ele>46</ele>
        <time>2024-01-22T15:36:29.831+00:00</time>
      </trkpt>
      <trkpt lat="48.70971" lon="2.49878">
        <ele>46</ele>
        <time>2024-01-22T15:36:35.098+00:00</time>
      </trkpt>
      <trkpt lat="48.70971" lon="2.49885">
        <ele>46</ele>
        <time>2024-01-22T15:37:13.865+00:00</time>
      </trkpt>
      <trkpt lat="48.70979" lon="2.49886">
        <ele>46</ele>
        <time>2024-01-22T15:37:18.052+00:00</time>
      </trkpt>
      <trkpt lat="48.70981" lon="2.49879">
        <ele>46</ele>
        <time>2024-01-22T15:37:22.578+00:00</time>
      </trkpt>
      <trkpt lat="48.70985" lon="2.49878">
        <ele>46</ele>
        <time>2024-01-22T15:37:26.644+00:00</time>
      </trkpt>
      <trkpt lat="48.70989" lon="2.49878">
        <ele>44</ele>
        <time>2024-01-22T15:37:30.829+00:00</time>
      </trkpt>
      <trkpt lat="48.70994" lon="2.49881">
        <ele>44</ele>
        <time>2024-01-22T15:37:34.779+00:00</time>
      </trkpt>
      <trkpt lat="48.71" lon="2.49882">
        <ele>44</ele>
        <time>2024-01-22T15:37:40.283+00:00</time>
      </trkpt>
      <trkpt lat="48.71" lon="2.49889">
        <ele>44</ele>
        <time>2024-01-22T15:37:44.231+00:00</time>
      </trkpt>
      <trkpt lat="48.71005" lon="2.49897">
        <ele>44</ele>
        <time>2024-01-22T15:37:48.700+00:00</time>
      </trkpt>
      <trkpt lat="48.7101" lon="2.49902">
        <ele>44</ele>
        <time>2024-01-22T15:37:52.604+00:00</time>
      </trkpt>
      <trkpt lat="48.71015" lon="2.49905">
        <ele>47</ele>
        <time>2024-01-22T15:37:57.244+00:00</time>
      </trkpt>
      <trkpt lat="48.7102" lon="2.4991">
        <ele>47</ele>
        <time>2024-01-22T15:38:01.433+00:00</time>
      </trkpt>
      <trkpt lat="48.71023" lon="2.49914">
        <ele>47</ele>
        <time>2024-01-22T15:38:05.380+00:00</time>
      </trkpt>
      <trkpt lat="48.71027" lon="2.49918">
        <ele>47</ele>
        <time>2024-01-22T15:38:10.044+00:00</time>
      </trkpt>
      <trkpt lat="48.71031" lon="2.49921">
        <ele>47</ele>
        <time>2024-01-22T15:38:13.991+00:00</time>
      </trkpt>
      <trkpt lat="48.71037" lon="2.49925">
        <ele>47</ele>
        <time>2024-01-22T15:38:18.415+00:00</time>
      </trkpt>
      <trkpt lat="48.71041" lon="2.49929">
        <ele>47</ele>
        <time>2024-01-22T15:38:22.840+00:00</time>
      </trkpt>
      <trkpt lat="48.71045" lon="2.49923">
        <ele>52</ele>
        <time>2024-01-22T15:38:26.786+00:00</time>
      </trkpt>
      <trkpt lat="48.71051" lon="2.49916">
        <ele>52</ele>
        <time>2024-01-22T15:38:31.330+00:00</time>
      </trkpt>
      <trkpt lat="48.71056" lon="2.49914">
        <ele>52</ele>
        <time>2024-01-22T15:38:35.936+00:00</time>
      </trkpt>
      <trkpt lat="48.7106" lon="2.49909">
        <ele>52</ele>
        <time>2024-01-22T15:38:40.274+00:00</time>
      </trkpt>
      <trkpt lat="48.71064" lon="2.49905">
        <ele>52</ele>
        <time>2024-01-22T15:38:44.245+00:00</time>
      </trkpt>
      <trkpt lat="48.71074" lon="2.49906">
        <ele>52</ele>
        <time>2024-01-22T15:38:48.788+00:00</time>
      </trkpt>
      <trkpt lat="48.71079" lon="2.49903">
        <ele>49</ele>
        <time>2024-01-22T15:38:53.271+00:00</time>
      </trkpt>
      <trkpt lat="48.71084" lon="2.49901">
        <ele>49</ele>
        <time>2024-01-22T15:38:57.255+00:00</time>
      </trkpt>
      <trkpt lat="48.71089" lon="2.499">
        <ele>49</ele>
        <time>2024-01-22T15:39:01.878+00:00</time>
      </trkpt>
      <trkpt lat="48.71093" lon="2.49899">
        <ele>49</ele>
        <time>2024-01-22T15:39:06.172+00:00</time>
      </trkpt>
      <trkpt lat="48.71098" lon="2.49896">
        <ele>49</ele>
        <time>2024-01-22T15:39:10.045+00:00</time>
      </trkpt>
      <trkpt lat="48.71103" lon="2.49894">
        <ele>49</ele>
        <time>2024-01-22T15:39:14.589+00:00</time>
      </trkpt>
      <trkpt lat="48.71108" lon="2.49891">
        <ele>49</ele>
        <time>2024-01-22T15:39:19.115+00:00</time>
      </trkpt>
      <trkpt lat="48.71113" lon="2.49889">
        <ele>49</ele>
        <time>2024-01-22T15:39:23.078+00:00</time>
      </trkpt>
      <trkpt lat="48.71119" lon="2.49887">
        <ele>49</ele>
        <time>2024-01-22T15:39:27.263+00:00</time>
      </trkpt>
      <trkpt lat="48.71125" lon="2.49885">
        <ele>52</ele>
        <time>2024-01-22T15:39:31.807+00:00</time>
      </trkpt>
      <trkpt lat="48.71131" lon="2.49883">
        <ele>52</ele>
        <time>2024-01-22T15:39:36.232+00:00</time>
      </trkpt>
      <trkpt lat="48.71136" lon="2.49882">
        <ele>52</ele>
        <time>2024-01-22T15:39:40.657+00:00</time>
      </trkpt>
      <trkpt lat="48.71142" lon="2.49879">
        <ele>52</ele>
        <time>2024-01-22T15:39:44.815+00:00</time>
      </trkpt>
      <trkpt lat="48.71148" lon="2.49876">
        <ele>52</ele>
        <time>2024-01-22T15:39:48.786+00:00</time>
      </trkpt>
      <trkpt lat="48.71153" lon="2.49872">
        <ele>54</ele>
        <time>2024-01-22T15:39:53.410+00:00</time>
      </trkpt>
      <trkpt lat="48.71158" lon="2.49868">
        <ele>54</ele>
        <time>2024-01-22T15:39:57.714+00:00</time>
      </trkpt>
      <trkpt lat="48.71163" lon="2.49866">
        <ele>54</ele>
        <time>2024-01-22T15:40:02.176+00:00</time>
      </trkpt>
      <trkpt lat="48.7117" lon="2.49862">
        <ele>54</ele>
        <time>2024-01-22T15:40:06.719+00:00</time>
      </trkpt>
      <trkpt lat="48.71176" lon="2.49858">
        <ele>54</ele>
        <time>2024-01-22T15:40:11.075+00:00</time>
      </trkpt>
      <trkpt lat="48.7118" lon="2.49856">
        <ele>54</ele>
        <time>2024-01-22T15:40:14.847+00:00</time>
      </trkpt>
      <trkpt lat="48.71186" lon="2.49853">
        <ele>55</ele>
        <time>2024-01-22T15:40:19.272+00:00</time>
      </trkpt>
      <trkpt lat="48.71192" lon="2.49848">
        <ele>55</ele>
        <time>2024-01-22T15:40:23.958+00:00</time>
      </trkpt>
      <trkpt lat="48.71196" lon="2.49844">
        <ele>55</ele>
        <time>2024-01-22T15:40:27.998+00:00</time>
      </trkpt>
      <trkpt lat="48.71201" lon="2.49838">
        <ele>55</ele>
        <time>2024-01-22T15:40:31.943+00:00</time>
      </trkpt>
      <trkpt lat="48.71206" lon="2.49833">
        <ele>55</ele>
        <time>2024-01-22T15:40:36.819+00:00</time>
      </trkpt>
      <trkpt lat="48.7121" lon="2.49831">
        <ele>55</ele>
        <time>2024-01-22T15:40:40.653+00:00</time>
      </trkpt>
      <trkpt lat="48.71215" lon="2.49826">
        <ele>55</ele>
        <time>2024-01-22T15:40:45.076+00:00</time>
      </trkpt>
      <trkpt lat="48.7122" lon="2.4982">
        <ele>55</ele>
        <time>2024-01-22T15:40:49.238+00:00</time>
      </trkpt>
      <trkpt lat="48.71223" lon="2.49816">
        <ele>53</ele>
        <time>2024-01-22T15:40:53.088+00:00</time>
      </trkpt>
      <trkpt lat="48.71229" lon="2.49812">
        <ele>53</ele>
        <time>2024-01-22T15:40:57.995+00:00</time>
      </trkpt>
      <trkpt lat="48.71234" lon="2.49808">
        <ele>53</ele>
        <time>2024-01-22T15:41:02.264+00:00</time>
      </trkpt>
      <trkpt lat="48.71239" lon="2.49806">
        <ele>54</ele>
        <time>2024-01-22T15:41:06.244+00:00</time>
      </trkpt>
      <trkpt lat="48.71245" lon="2.49807">
        <ele>54</ele>
        <time>2024-01-22T15:41:10.270+00:00</time>
      </trkpt>
      <trkpt lat="48.7125" lon="2.49801">
        <ele>54</ele>
        <time>2024-01-22T15:41:15.266+00:00</time>
      </trkpt>
      <trkpt lat="48.71255" lon="2.49796">
        <ele>54</ele>
        <time>2024-01-22T15:41:19.164+00:00</time>
      </trkpt>
      <trkpt lat="48.71261" lon="2.4979">
        <ele>51</ele>
        <time>2024-01-22T15:41:24.141+00:00</time>
      </trkpt>
      <trkpt lat="48.71265" lon="2.49787">
        <ele>55</ele>
        <time>2024-01-22T15:41:28.253+00:00</time>
      </trkpt>
      <trkpt lat="48.71269" lon="2.49783">
        <ele>55</ele>
        <time>2024-01-22T15:41:32.276+00:00</time>
      </trkpt>
      <trkpt lat="48.71274" lon="2.49776">
        <ele>55</ele>
        <time>2024-01-22T15:41:37.154+00:00</time>
      </trkpt>
      <trkpt lat="48.71278" lon="2.49772">
        <ele>55</ele>
        <time>2024-01-22T15:41:40.912+00:00</time>
      </trkpt>
      <trkpt lat="48.71282" lon="2.4977">
        <ele>55</ele>
        <time>2024-01-22T15:41:45.218+00:00</time>
      </trkpt>
      <trkpt lat="48.71287" lon="2.49767">
        <ele>55</ele>
        <time>2024-01-22T15:41:49.880+00:00</time>
      </trkpt>
      <trkpt lat="48.71293" lon="2.49763">
        <ele>56</ele>
        <time>2024-01-22T15:41:54.186+00:00</time>
      </trkpt>
      <trkpt lat="48.71298" lon="2.4976">
        <ele>56</ele>
        <time>2024-01-22T15:41:58.526+00:00</time>
      </trkpt>
      <trkpt lat="48.71303" lon="2.49758">
        <ele>56</ele>
        <time>2024-01-22T15:42:03.016+00:00</time>
      </trkpt>
      <trkpt lat="48.71309" lon="2.49756">
        <ele>56</ele>
        <time>2024-01-22T15:42:07.526+00:00</time>
      </trkpt>
      <trkpt lat="48.71314" lon="2.49755">
        <ele>56</ele>
        <time>2024-01-22T15:42:12.084+00:00</time>
      </trkpt>
      <trkpt lat="48.71317" lon="2.49755">
        <ele>56</ele>
        <time>2024-01-22T15:42:16.509+00:00</time>
      </trkpt>
      <trkpt lat="48.71322" lon="2.49754">
        <ele>57</ele>
        <time>2024-01-22T15:42:20.933+00:00</time>
      </trkpt>
      <trkpt lat="48.71327" lon="2.49752">
        <ele>57</ele>
        <time>2024-01-22T15:42:25.283+00:00</time>
      </trkpt>
      <trkpt lat="48.71331" lon="2.49748">
        <ele>57</ele>
        <time>2024-01-22T15:42:29.783+00:00</time>
      </trkpt>
      <trkpt lat="48.71336" lon="2.49739">
        <ele>57</ele>
        <time>2024-01-22T15:42:34.256+00:00</time>
      </trkpt>
      <trkpt lat="48.71338" lon="2.49731">
        <ele>55</ele>
        <time>2024-01-22T15:42:38.273+00:00</time>
      </trkpt>
      <trkpt lat="48.7134" lon="2.49724">
        <ele>55</ele>
        <time>2024-01-22T15:42:43.138+00:00</time>
      </trkpt>
      <trkpt lat="48.71343" lon="2.49717">
        <ele>55</ele>
        <time>2024-01-22T15:42:46.882+00:00</time>
      </trkpt>
      <trkpt lat="48.71347" lon="2.4971">
        <ele>55</ele>
        <time>2024-01-22T15:42:51.427+00:00</time>
      </trkpt>
      <trkpt lat="48.7135" lon="2.49703">
        <ele>54</ele>
        <time>2024-01-22T15:42:55.954+00:00</time>
      </trkpt>
      <trkpt lat="48.71352" lon="2.49696">
        <ele>54</ele>
        <time>2024-01-22T15:43:00.036+00:00</time>
      </trkpt>
      <trkpt lat="48.71355" lon="2.49688">
        <ele>54</ele>
        <time>2024-01-22T15:43:03.863+00:00</time>
      </trkpt>
      <trkpt lat="48.71363" lon="2.49684">
        <ele>54</ele>
        <time>2024-01-22T15:43:08.286+00:00</time>
      </trkpt>
      <trkpt lat="48.71366" lon="2.49675">
        <ele>52</ele>
        <time>2024-01-22T15:43:12.829+00:00</time>
      </trkpt>
      <trkpt lat="48.71368" lon="2.49669">
        <ele>52</ele>
        <time>2024-01-22T15:43:16.776+00:00</time>
      </trkpt>
      <trkpt lat="48.71374" lon="2.49665">
        <ele>52</ele>
        <time>2024-01-22T15:43:21.276+00:00</time>
      </trkpt>
      <trkpt lat="48.71378" lon="2.49659">
        <ele>54</ele>
        <time>2024-01-22T15:43:25.868+00:00</time>
      </trkpt>
      <trkpt lat="48.71382" lon="2.49653">
        <ele>54</ele>
        <time>2024-01-22T15:43:30.055+00:00</time>
      </trkpt>
      <trkpt lat="48.71388" lon="2.49648">
        <ele>53</ele>
        <time>2024-01-22T15:43:34.481+00:00</time>
      </trkpt>
      <trkpt lat="48.71393" lon="2.49645">
        <ele>53</ele>
        <time>2024-01-22T15:43:38.959+00:00</time>
      </trkpt>
      <trkpt lat="48.71396" lon="2.49639">
        <ele>53</ele>
        <time>2024-01-22T15:43:42.970+00:00</time>
      </trkpt>
      <trkpt lat="48.714" lon="2.49633">
        <ele>53</ele>
        <time>2024-01-22T15:43:47.515+00:00</time>
      </trkpt>
      <trkpt lat="48.71403" lon="2.49627">
        <ele>56</ele>
        <time>2024-01-22T15:43:51.526+00:00</time>
      </trkpt>
      <trkpt lat="48.71406" lon="2.49621">
        <ele>56</ele>
        <time>2024-01-22T15:43:56.126+00:00</time>
      </trkpt>
      <trkpt lat="48.71407" lon="2.49615">
        <ele>56</ele>
        <time>2024-01-22T15:44:00.073+00:00</time>
      </trkpt>
      <trkpt lat="48.71409" lon="2.49605">
        <ele>56</ele>
        <time>2024-01-22T15:44:04.618+00:00</time>
      </trkpt>
      <trkpt lat="48.71412" lon="2.49595">
        <ele>55</ele>
        <time>2024-01-22T15:44:09.116+00:00</time>
      </trkpt>
      <trkpt lat="48.71415" lon="2.49588">
        <ele>55</ele>
        <time>2024-01-22T15:44:12.869+00:00</time>
      </trkpt>
      <trkpt lat="48.71418" lon="2.4958">
        <ele>55</ele>
        <time>2024-01-22T15:44:17.412+00:00</time>
      </trkpt>
      <trkpt lat="48.7142" lon="2.49572">
        <ele>55</ele>
        <time>2024-01-22T15:44:21.478+00:00</time>
      </trkpt>
      <trkpt lat="48.71423" lon="2.49565">
        <ele>53</ele>
        <time>2024-01-22T15:44:26.216+00:00</time>
      </trkpt>
      <trkpt lat="48.71426" lon="2.49558">
        <ele>53</ele>
        <time>2024-01-22T15:44:30.088+00:00</time>
      </trkpt>
      <trkpt lat="48.7143" lon="2.49552">
        <ele>53</ele>
        <time>2024-01-22T15:44:34.263+00:00</time>
      </trkpt>
      <trkpt lat="48.71434" lon="2.49546">
        <ele>55</ele>
        <time>2024-01-22T15:44:38.372+00:00</time>
      </trkpt>
      <trkpt lat="48.71438" lon="2.49539">
        <ele>54</ele>
        <time>2024-01-22T15:44:43.272+00:00</time>
      </trkpt>
      <trkpt lat="48.71443" lon="2.49534">
        <ele>54</ele>
        <time>2024-01-22T15:44:47.070+00:00</time>
      </trkpt>
      <trkpt lat="48.71448" lon="2.49527">
        <ele>54</ele>
        <time>2024-01-22T15:44:51.875+00:00</time>
      </trkpt>
      <trkpt lat="48.7145" lon="2.49519">
        <ele>54</ele>
        <time>2024-01-22T15:44:56.181+00:00</time>
      </trkpt>
      <trkpt lat="48.71451" lon="2.49511">
        <ele>52</ele>
        <time>2024-01-22T15:45:00.225+00:00</time>
      </trkpt>
      <trkpt lat="48.71451" lon="2.495">
        <ele>52</ele>
        <time>2024-01-22T15:45:04.774+00:00</time>
      </trkpt>
      <trkpt lat="48.7145" lon="2.49494">
        <ele>52</ele>
        <time>2024-01-22T15:45:08.997+00:00</time>
      </trkpt>
      <trkpt lat="48.71452" lon="2.49485">
        <ele>50</ele>
        <time>2024-01-22T15:45:13.287+00:00</time>
      </trkpt>
      <trkpt lat="48.71454" lon="2.49476">
        <ele>50</ele>
        <time>2024-01-22T15:45:17.757+00:00</time>
      </trkpt>
      <trkpt lat="48.71456" lon="2.49469">
        <ele>50</ele>
        <time>2024-01-22T15:45:22.071+00:00</time>
      </trkpt>
      <trkpt lat="48.71459" lon="2.49462">
        <ele>51</ele>
        <time>2024-01-22T15:45:25.815+00:00</time>
      </trkpt>
      <trkpt lat="48.71464" lon="2.49456">
        <ele>49</ele>
        <time>2024-01-22T15:45:30.651+00:00</time>
      </trkpt>
      <trkpt lat="48.71468" lon="2.49449">
        <ele>49</ele>
        <time>2024-01-22T15:45:35.023+00:00</time>
      </trkpt>
      <trkpt lat="48.71471" lon="2.49442">
        <ele>49</ele>
        <time>2024-01-22T15:45:39.532+00:00</time>
      </trkpt>
      <trkpt lat="48.71473" lon="2.49432">
        <ele>49</ele>
        <time>2024-01-22T15:45:43.993+00:00</time>
      </trkpt>
      <trkpt lat="48.7147" lon="2.49423">
        <ele>49</ele>
        <time>2024-01-22T15:45:48.657+00:00</time>
      </trkpt>
      <trkpt lat="48.71469" lon="2.49417">
        <ele>49</ele>
        <time>2024-01-22T15:45:52.843+00:00</time>
      </trkpt>
      <trkpt lat="48.71467" lon="2.4941">
        <ele>49</ele>
        <time>2024-01-22T15:45:56.908+00:00</time>
      </trkpt>
      <trkpt lat="48.71468" lon="2.49403">
        <ele>48</ele>
        <time>2024-01-22T15:46:01.526+00:00</time>
      </trkpt>
      <trkpt lat="48.71471" lon="2.49394">
        <ele>48</ele>
        <time>2024-01-22T15:46:05.878+00:00</time>
      </trkpt>
      <trkpt lat="48.71473" lon="2.49386">
        <ele>48</ele>
        <time>2024-01-22T15:46:10.263+00:00</time>
      </trkpt>
      <trkpt lat="48.71472" lon="2.49377">
        <ele>48</ele>
        <time>2024-01-22T15:46:14.846+00:00</time>
      </trkpt>
      <trkpt lat="48.71476" lon="2.49366">
        <ele>47</ele>
        <time>2024-01-22T15:46:20.032+00:00</time>
      </trkpt>
      <trkpt lat="48.71476" lon="2.4936">
        <ele>47</ele>
        <time>2024-01-22T15:46:23.820+00:00</time>
      </trkpt>
      <trkpt lat="48.71475" lon="2.4935">
        <ele>47</ele>
        <time>2024-01-22T15:46:28.367+00:00</time>
      </trkpt>
      <trkpt lat="48.71476" lon="2.49344">
        <ele>47</ele>
        <time>2024-01-22T15:46:32.436+00:00</time>
      </trkpt>
      <trkpt lat="48.71473" lon="2.49336">
        <ele>47</ele>
        <time>2024-01-22T15:46:37.102+00:00</time>
      </trkpt>
      <trkpt lat="48.71476" lon="2.49328">
        <ele>47</ele>
        <time>2024-01-22T15:46:41.592+00:00</time>
      </trkpt>
      <trkpt lat="48.71478" lon="2.49315">
        <ele>47</ele>
        <time>2024-01-22T15:46:45.526+00:00</time>
      </trkpt>
      <trkpt lat="48.71481" lon="2.49305">
        <ele>47</ele>
        <time>2024-01-22T15:46:49.672+00:00</time>
      </trkpt>
      <trkpt lat="48.71484" lon="2.49296">
        <ele>47</ele>
        <time>2024-01-22T15:46:53.862+00:00</time>
      </trkpt>
      <trkpt lat="48.71487" lon="2.4929">
        <ele>48</ele>
        <time>2024-01-22T15:46:58.883+00:00</time>
      </trkpt>
      <trkpt lat="48.71489" lon="2.49285">
        <ele>48</ele>
        <time>2024-01-22T15:47:03.073+00:00</time>
      </trkpt>
      <trkpt lat="48.71491" lon="2.4928">
        <ele>48</ele>
        <time>2024-01-22T15:47:07.501+00:00</time>
      </trkpt>
      <trkpt lat="48.71494" lon="2.49275">
        <ele>48</ele>
        <time>2024-01-22T15:47:11.888+00:00</time>
      </trkpt>
      <trkpt lat="48.71496" lon="2.4927">
        <ele>48</ele>
        <time>2024-01-22T15:47:16.415+00:00</time>
      </trkpt>
      <trkpt lat="48.715" lon="2.49268">
        <ele>48</ele>
        <time>2024-01-22T15:47:20.483+00:00</time>
      </trkpt>
      <trkpt lat="48.71504" lon="2.49263">
        <ele>48</ele>
        <time>2024-01-22T15:47:25.001+00:00</time>
      </trkpt>
      <trkpt lat="48.71505" lon="2.49253">
        <ele>48</ele>
        <time>2024-01-22T15:47:29.292+00:00</time>
      </trkpt>
      <trkpt lat="48.71507" lon="2.49243">
        <ele>48</ele>
        <time>2024-01-22T15:47:33.738+00:00</time>
      </trkpt>
      <trkpt lat="48.71509" lon="2.49236">
        <ele>48</ele>
        <time>2024-01-22T15:47:38.245+00:00</time>
      </trkpt>
      <trkpt lat="48.71514" lon="2.49234">
        <ele>49</ele>
        <time>2024-01-22T15:47:42.793+00:00</time>
      </trkpt>
      <trkpt lat="48.71516" lon="2.49226">
        <ele>49</ele>
        <time>2024-01-22T15:47:47.284+00:00</time>
      </trkpt>
      <trkpt lat="48.7152" lon="2.49218">
        <ele>49</ele>
        <time>2024-01-22T15:47:51.767+00:00</time>
      </trkpt>
      <trkpt lat="48.71526" lon="2.49212">
        <ele>49</ele>
        <time>2024-01-22T15:47:55.833+00:00</time>
      </trkpt>
      <trkpt lat="48.71523" lon="2.49206">
        <ele>49</ele>
        <time>2024-01-22T15:48:00.497+00:00</time>
      </trkpt>
      <trkpt lat="48.71521" lon="2.49204">
        <ele>49</ele>
        <time>2024-01-22T15:48:04.443+00:00</time>
      </trkpt>
      <trkpt lat="48.71518" lon="2.49199">
        <ele>49</ele>
        <time>2024-01-22T15:48:08.992+00:00</time>
      </trkpt>
      <trkpt lat="48.71512" lon="2.49195">
        <ele>47</ele>
        <time>2024-01-22T15:48:12.766+00:00</time>
      </trkpt>
      <trkpt lat="48.71506" lon="2.49188">
        <ele>47</ele>
        <time>2024-01-22T15:48:17.273+00:00</time>
      </trkpt>
      <trkpt lat="48.71502" lon="2.49181">
        <ele>47</ele>
        <time>2024-01-22T15:48:21.785+00:00</time>
      </trkpt>
      <trkpt lat="48.71495" lon="2.49179">
        <ele>47</ele>
        <time>2024-01-22T15:48:26.792+00:00</time>
      </trkpt>
      <trkpt lat="48.71498" lon="2.49169">
        <ele>47</ele>
        <time>2024-01-22T15:48:30.795+00:00</time>
      </trkpt>
      <trkpt lat="48.71497" lon="2.49161">
        <ele>47</ele>
        <time>2024-01-22T15:48:35.392+00:00</time>
      </trkpt>
      <trkpt lat="48.71496" lon="2.49152">
        <ele>45</ele>
        <time>2024-01-22T15:48:39.826+00:00</time>
      </trkpt>
      <trkpt lat="48.71496" lon="2.49145">
        <ele>45</ele>
        <time>2024-01-22T15:48:44.380+00:00</time>
      </trkpt>
      <trkpt lat="48.71498" lon="2.49137">
        <ele>45</ele>
        <time>2024-01-22T15:48:48.931+00:00</time>
      </trkpt>
      <trkpt lat="48.71497" lon="2.49129">
        <ele>45</ele>
        <time>2024-01-22T15:48:53.002+00:00</time>
      </trkpt>
      <trkpt lat="48.71504" lon="2.4911">
        <ele>44</ele>
        <time>2024-01-22T15:49:02.578+00:00</time>
      </trkpt>
      <trkpt lat="48.71508" lon="2.491">
        <ele>44</ele>
        <time>2024-01-22T15:49:06.679+00:00</time>
      </trkpt>
      <trkpt lat="48.71513" lon="2.49095">
        <ele>42</ele>
        <time>2024-01-22T15:49:10.783+00:00</time>
      </trkpt>
      <trkpt lat="48.71517" lon="2.49086">
        <ele>45</ele>
        <time>2024-01-22T15:49:14.785+00:00</time>
      </trkpt>
      <trkpt lat="48.7152" lon="2.49079">
        <ele>45</ele>
        <time>2024-01-22T15:49:18.932+00:00</time>
      </trkpt>
      <trkpt lat="48.71522" lon="2.49071">
        <ele>45</ele>
        <time>2024-01-22T15:49:23.566+00:00</time>
      </trkpt>
      <trkpt lat="48.71525" lon="2.49063">
        <ele>43</ele>
        <time>2024-01-22T15:49:28.185+00:00</time>
      </trkpt>
      <trkpt lat="48.71529" lon="2.49068">
        <ele>43</ele>
        <time>2024-01-22T15:49:32.684+00:00</time>
      </trkpt>
      <trkpt lat="48.7153" lon="2.49061">
        <ele>43</ele>
        <time>2024-01-22T15:49:37.120+00:00</time>
      </trkpt>
      <trkpt lat="48.71531" lon="2.49051">
        <ele>43</ele>
        <time>2024-01-22T15:49:41.526+00:00</time>
      </trkpt>
      <trkpt lat="48.7153" lon="2.49041">
        <ele>42</ele>
        <time>2024-01-22T15:49:45.931+00:00</time>
      </trkpt>
      <trkpt lat="48.71529" lon="2.49037">
        <ele>42</ele>
        <time>2024-01-22T15:49:50.526+00:00</time>
      </trkpt>
      <trkpt lat="48.71524" lon="2.4903">
        <ele>42</ele>
        <time>2024-01-22T15:49:55.193+00:00</time>
      </trkpt>
      <trkpt lat="48.71523" lon="2.49022">
        <ele>42</ele>
        <time>2024-01-22T15:49:59.201+00:00</time>
      </trkpt>
      <trkpt lat="48.7152" lon="2.49018">
        <ele>42</ele>
        <time>2024-01-22T15:50:04.260+00:00</time>
      </trkpt>
      <trkpt lat="48.71517" lon="2.49015">
        <ele>42</ele>
        <time>2024-01-22T15:50:08.233+00:00</time>
      </trkpt>
      <trkpt lat="48.71513" lon="2.4901">
        <ele>41</ele>
        <time>2024-01-22T15:50:12.830+00:00</time>
      </trkpt>
      <trkpt lat="48.71509" lon="2.49007">
        <ele>41</ele>
        <time>2024-01-22T15:50:17.187+00:00</time>
      </trkpt>
      <trkpt lat="48.71505" lon="2.49004">
        <ele>41</ele>
        <time>2024-01-22T15:50:21.264+00:00</time>
      </trkpt>
      <trkpt lat="48.71501" lon="2.49002">
        <ele>41</ele>
        <time>2024-01-22T15:50:25.381+00:00</time>
      </trkpt>
      <trkpt lat="48.71498" lon="2.49001">
        <ele>41</ele>
        <time>2024-01-22T15:50:29.465+00:00</time>
      </trkpt>
      <trkpt lat="48.71492" lon="2.48997">
        <ele>41</ele>
        <time>2024-01-22T15:50:34.012+00:00</time>
      </trkpt>
      <trkpt lat="48.71485" lon="2.48991">
        <ele>41</ele>
        <time>2024-01-22T15:50:38.933+00:00</time>
      </trkpt>
      <trkpt lat="48.71475" lon="2.48982">
        <ele>40</ele>
        <time>2024-01-22T15:51:10.263+00:00</time>
      </trkpt>
      <trkpt lat="48.71475" lon="2.48981">
        <ele>40</ele>
        <time>2024-01-22T15:51:14.269+00:00</time>
      </trkpt>
      <trkpt lat="48.71474" lon="2.48981">
        <ele>40</ele>
        <time>2024-01-22T15:51:18.282+00:00</time>
      </trkpt>
      <trkpt lat="48.71474" lon="2.48979">
        <ele>40</ele>
        <time>2024-01-22T15:51:23.273+00:00</time>
      </trkpt>
      <trkpt lat="48.71472" lon="2.48977">
        <ele>40</ele>
        <time>2024-01-22T15:51:28.274+00:00</time>
      </trkpt>
      <trkpt lat="48.71474" lon="2.48975">
        <ele>40</ele>
        <time>2024-01-22T15:51:47.257+00:00</time>
      </trkpt>
      <trkpt lat="48.71476" lon="2.48974">
        <ele>40</ele>
        <time>2024-01-22T15:51:51.718+00:00</time>
      </trkpt>
      <trkpt lat="48.71475" lon="2.4897">
        <ele>40</ele>
        <time>2024-01-22T15:51:55.693+00:00</time>
      </trkpt>
      <trkpt lat="48.71474" lon="2.48965">
        <ele>40</ele>
        <time>2024-01-22T15:52:00.342+00:00</time>
      </trkpt>
      <trkpt lat="48.7147" lon="2.48961">
        <ele>40</ele>
        <time>2024-01-22T15:52:04.292+00:00</time>
      </trkpt>
      <trkpt lat="48.71464" lon="2.48955">
        <ele>39</ele>
        <time>2024-01-22T15:52:08.843+00:00</time>
      </trkpt>
      <trkpt lat="48.71459" lon="2.48951">
        <ele>39</ele>
        <time>2024-01-22T15:52:13.445+00:00</time>
      </trkpt>
      <trkpt lat="48.71452" lon="2.48948">
        <ele>38</ele>
        <time>2024-01-22T15:52:17.723+00:00</time>
      </trkpt>
      <trkpt lat="48.71445" lon="2.48946">
        <ele>38</ele>
        <time>2024-01-22T15:52:22.248+00:00</time>
      </trkpt>
      <trkpt lat="48.71438" lon="2.48944">
        <ele>38</ele>
        <time>2024-01-22T15:52:26.856+00:00</time>
      </trkpt>
      <trkpt lat="48.71433" lon="2.48942">
        <ele>38</ele>
        <time>2024-01-22T15:52:30.860+00:00</time>
      </trkpt>
      <trkpt lat="48.71429" lon="2.48938">
        <ele>39</ele>
        <time>2024-01-22T15:52:34.958+00:00</time>
      </trkpt>
      <trkpt lat="48.71424" lon="2.48936">
        <ele>39</ele>
        <time>2024-01-22T15:52:39.471+00:00</time>
      </trkpt>
      <trkpt lat="48.71418" lon="2.48932">
        <ele>39</ele>
        <time>2024-01-22T15:52:44.017+00:00</time>
      </trkpt>
      <trkpt lat="48.7141" lon="2.48927">
        <ele>38</ele>
        <time>2024-01-22T15:52:48.526+00:00</time>
      </trkpt>
      <trkpt lat="48.71406" lon="2.48926">
        <ele>38</ele>
        <time>2024-01-22T15:52:52.632+00:00</time>
      </trkpt>
      <trkpt lat="48.71401" lon="2.48925">
        <ele>39</ele>
        <time>2024-01-22T15:52:57.282+00:00</time>
      </trkpt>
      <trkpt lat="48.71395" lon="2.4892">
        <ele>39</ele>
        <time>2024-01-22T15:53:01.246+00:00</time>
      </trkpt>
      <trkpt lat="48.71389" lon="2.48916">
        <ele>39</ele>
        <time>2024-01-22T15:53:05.791+00:00</time>
      </trkpt>
      <trkpt lat="48.71385" lon="2.48913">
        <ele>39</ele>
        <time>2024-01-22T15:53:09.858+00:00</time>
      </trkpt>
      <trkpt lat="48.71386" lon="2.48909">
        <ele>39</ele>
        <time>2024-01-22T15:53:14.547+00:00</time>
      </trkpt>
      <trkpt lat="48.71387" lon="2.489">
        <ele>39</ele>
        <time>2024-01-22T15:53:18.826+00:00</time>
      </trkpt>
      <trkpt lat="48.71388" lon="2.48885">
        <ele>39</ele>
        <time>2024-01-22T15:53:23.360+00:00</time>
      </trkpt>
      <trkpt lat="48.7139" lon="2.48879">
        <ele>39</ele>
        <time>2024-01-22T15:53:26.790+00:00</time>
      </trkpt>
      <trkpt lat="48.7139" lon="2.48859">
        <ele>40</ele>
        <time>2024-01-22T15:53:35.883+00:00</time>
      </trkpt>
      <trkpt lat="48.71393" lon="2.48858">
        <ele>40</ele>
        <time>2024-01-22T15:53:39.886+00:00</time>
      </trkpt>
      <trkpt lat="48.71396" lon="2.48853">
        <ele>40</ele>
        <time>2024-01-22T15:53:44.892+00:00</time>
      </trkpt>
      <trkpt lat="48.71396" lon="2.48849">
        <ele>40</ele>
        <time>2024-01-22T15:53:49.403+00:00</time>
      </trkpt>
      <trkpt lat="48.71404" lon="2.48839">
        <ele>41</ele>
        <time>2024-01-22T15:53:53.914+00:00</time>
      </trkpt>
      <trkpt lat="48.71408" lon="2.48825">
        <ele>41</ele>
        <time>2024-01-22T15:54:19.010+00:00</time>
      </trkpt>
      <trkpt lat="48.71399" lon="2.48831">
        <ele>40</ele>
        <time>2024-01-22T15:54:23.017+00:00</time>
      </trkpt>
      <trkpt lat="48.71396" lon="2.48826">
        <ele>40</ele>
        <time>2024-01-22T15:54:27.023+00:00</time>
      </trkpt>
      <trkpt lat="48.71394" lon="2.48826">
        <ele>40</ele>
        <time>2024-01-22T15:54:31.632+00:00</time>
      </trkpt>
      <trkpt lat="48.71391" lon="2.48833">
        <ele>40</ele>
        <time>2024-01-22T15:54:36.147+00:00</time>
      </trkpt>
      <trkpt lat="48.71381" lon="2.48837">
        <ele>40</ele>
        <time>2024-01-22T15:54:40.161+00:00</time>
      </trkpt>
      <trkpt lat="48.71377" lon="2.48841">
        <ele>40</ele>
        <time>2024-01-22T15:54:44.671+00:00</time>
      </trkpt>
      <trkpt lat="48.71374" lon="2.48847">
        <ele>42</ele>
        <time>2024-01-22T15:54:48.683+00:00</time>
      </trkpt>
      <trkpt lat="48.71368" lon="2.48846">
        <ele>42</ele>
        <time>2024-01-22T15:54:53.274+00:00</time>
      </trkpt>
      <trkpt lat="48.71361" lon="2.48847">
        <ele>42</ele>
        <time>2024-01-22T15:54:57.701+00:00</time>
      </trkpt>
      <trkpt lat="48.71355" lon="2.48848">
        <ele>41</ele>
        <time>2024-01-22T15:55:01.791+00:00</time>
      </trkpt>
      <trkpt lat="48.71351" lon="2.4885">
        <ele>41</ele>
        <time>2024-01-22T15:55:05.866+00:00</time>
      </trkpt>
      <trkpt lat="48.71347" lon="2.48853">
        <ele>43</ele>
        <time>2024-01-22T15:55:10.059+00:00</time>
      </trkpt>
      <trkpt lat="48.7134" lon="2.48853">
        <ele>43</ele>
        <time>2024-01-22T15:55:14.711+00:00</time>
      </trkpt>
      <trkpt lat="48.71336" lon="2.48847">
        <ele>44</ele>
        <time>2024-01-22T15:55:19.243+00:00</time>
      </trkpt>
      <trkpt lat="48.7133" lon="2.48844">
        <ele>44</ele>
        <time>2024-01-22T15:55:23.283+00:00</time>
      </trkpt>
      <trkpt lat="48.71324" lon="2.48848">
        <ele>43</ele>
        <time>2024-01-22T15:55:27.863+00:00</time>
      </trkpt>
      <trkpt lat="48.7132" lon="2.48852">
        <ele>43</ele>
        <time>2024-01-22T15:55:32.054+00:00</time>
      </trkpt>
      <trkpt lat="48.71318" lon="2.48848">
        <ele>42</ele>
        <time>2024-01-22T15:55:36.496+00:00</time>
      </trkpt>
      <trkpt lat="48.71317" lon="2.48845">
        <ele>44</ele>
        <time>2024-01-22T15:55:40.583+00:00</time>
      </trkpt>
      <trkpt lat="48.71321" lon="2.48837">
        <ele>44</ele>
        <time>2024-01-22T15:55:44.564+00:00</time>
      </trkpt>
      <trkpt lat="48.71324" lon="2.48829">
        <ele>44</ele>
        <time>2024-01-22T15:55:48.634+00:00</time>
      </trkpt>
      <trkpt lat="48.71325" lon="2.48821">
        <ele>44</ele>
        <time>2024-01-22T15:55:52.705+00:00</time>
      </trkpt>
      <trkpt lat="48.71326" lon="2.48812">
        <ele>45</ele>
        <time>2024-01-22T15:55:57.265+00:00</time>
      </trkpt>
      <trkpt lat="48.71327" lon="2.48802">
        <ele>45</ele>
        <time>2024-01-22T15:56:01.800+00:00</time>
      </trkpt>
      <trkpt lat="48.71328" lon="2.48794">
        <ele>45</ele>
        <time>2024-01-22T15:56:05.749+00:00</time>
      </trkpt>
      <trkpt lat="48.7133" lon="2.48783">
        <ele>45</ele>
        <time>2024-01-22T15:56:09.938+00:00</time>
      </trkpt>
      <trkpt lat="48.71332" lon="2.48777">
        <ele>45</ele>
        <time>2024-01-22T15:56:14.009+00:00</time>
      </trkpt>
      <trkpt lat="48.71334" lon="2.48768">
        <ele>45</ele>
        <time>2024-01-22T15:56:18.526+00:00</time>
      </trkpt>
      <trkpt lat="48.71334" lon="2.48762">
        <ele>45</ele>
        <time>2024-01-22T15:56:22.870+00:00</time>
      </trkpt>
      <trkpt lat="48.71333" lon="2.48752">
        <ele>45</ele>
        <time>2024-01-22T15:56:26.939+00:00</time>
      </trkpt>
      <trkpt lat="48.71333" lon="2.48743">
        <ele>45</ele>
        <time>2024-01-22T15:56:31.282+00:00</time>
      </trkpt>
      <trkpt lat="48.71336" lon="2.48732">
        <ele>45</ele>
        <time>2024-01-22T15:56:35.778+00:00</time>
      </trkpt>
      <trkpt lat="48.71339" lon="2.48721">
        <ele>45</ele>
        <time>2024-01-22T15:56:40.265+00:00</time>
      </trkpt>
      <trkpt lat="48.71341" lon="2.48712">
        <ele>45</ele>
        <time>2024-01-22T15:56:44.736+00:00</time>
      </trkpt>
      <trkpt lat="48.71342" lon="2.48705">
        <ele>45</ele>
        <time>2024-01-22T15:56:49.164+00:00</time>
      </trkpt>
      <trkpt lat="48.71342" lon="2.48697">
        <ele>45</ele>
        <time>2024-01-22T15:56:53.572+00:00</time>
      </trkpt>
      <trkpt lat="48.71343" lon="2.48689">
        <ele>45</ele>
        <time>2024-01-22T15:56:57.904+00:00</time>
      </trkpt>
      <trkpt lat="48.71344" lon="2.48682">
        <ele>45</ele>
        <time>2024-01-22T15:57:01.830+00:00</time>
      </trkpt>
      <trkpt lat="48.71346" lon="2.48675">
        <ele>45</ele>
        <time>2024-01-22T15:57:05.861+00:00</time>
      </trkpt>
      <trkpt lat="48.71348" lon="2.48666">
        <ele>43</ele>
        <time>2024-01-22T15:57:10.882+00:00</time>
      </trkpt>
      <trkpt lat="48.71349" lon="2.48659">
        <ele>43</ele>
        <time>2024-01-22T15:57:14.837+00:00</time>
      </trkpt>
      <trkpt lat="48.71349" lon="2.4865">
        <ele>43</ele>
        <time>2024-01-22T15:57:19.964+00:00</time>
      </trkpt>
      <trkpt lat="48.71349" lon="2.48643">
        <ele>43</ele>
        <time>2024-01-22T15:57:24.051+00:00</time>
      </trkpt>
      <trkpt lat="48.71349" lon="2.48634">
        <ele>43</ele>
        <time>2024-01-22T15:57:27.880+00:00</time>
      </trkpt>
      <trkpt lat="48.71349" lon="2.48624">
        <ele>42</ele>
        <time>2024-01-22T15:57:32.428+00:00</time>
      </trkpt>
      <trkpt lat="48.7135" lon="2.48616">
        <ele>42</ele>
        <time>2024-01-22T15:57:36.376+00:00</time>
      </trkpt>
      <trkpt lat="48.7135" lon="2.48607">
        <ele>42</ele>
        <time>2024-01-22T15:57:40.804+00:00</time>
      </trkpt>
      <trkpt lat="48.71351" lon="2.486">
        <ele>42</ele>
        <time>2024-01-22T15:57:44.751+00:00</time>
      </trkpt>
      <trkpt lat="48.71352" lon="2.48591">
        <ele>40</ele>
        <time>2024-01-22T15:57:49.159+00:00</time>
      </trkpt>
      <trkpt lat="48.71354" lon="2.48582">
        <ele>40</ele>
        <time>2024-01-22T15:57:53.526+00:00</time>
      </trkpt>
      <trkpt lat="48.71355" lon="2.48573">
        <ele>40</ele>
        <time>2024-01-22T15:57:58.014+00:00</time>
      </trkpt>
      <trkpt lat="48.71355" lon="2.48562">
        <ele>38</ele>
        <time>2024-01-22T15:58:02.526+00:00</time>
      </trkpt>
      <trkpt lat="48.71356" lon="2.48552">
        <ele>38</ele>
        <time>2024-01-22T15:58:06.630+00:00</time>
      </trkpt>
      <trkpt lat="48.71357" lon="2.48542">
        <ele>38</ele>
        <time>2024-01-22T15:58:11.042+00:00</time>
      </trkpt>
      <trkpt lat="48.71357" lon="2.48535">
        <ele>38</ele>
        <time>2024-01-22T15:58:15.070+00:00</time>
      </trkpt>
      <trkpt lat="48.71358" lon="2.48526">
        <ele>38</ele>
        <time>2024-01-22T15:58:19.683+00:00</time>
      </trkpt>
      <trkpt lat="48.71362" lon="2.48523">
        <ele>38</ele>
        <time>2024-01-22T15:58:24.098+00:00</time>
      </trkpt>
      <trkpt lat="48.71361" lon="2.4851">
        <ele>39</ele>
        <time>2024-01-22T15:58:28.768+00:00</time>
      </trkpt>
      <trkpt lat="48.71361" lon="2.48501">
        <ele>39</ele>
        <time>2024-01-22T15:58:32.844+00:00</time>
      </trkpt>
      <trkpt lat="48.7136" lon="2.48489">
        <ele>39</ele>
        <time>2024-01-22T15:58:36.742+00:00</time>
      </trkpt>
      <trkpt lat="48.71361" lon="2.48481">
        <ele>40</ele>
        <time>2024-01-22T15:58:41.261+00:00</time>
      </trkpt>
      <trkpt lat="48.71361" lon="2.48474">
        <ele>40</ele>
        <time>2024-01-22T15:58:45.252+00:00</time>
      </trkpt>
      <trkpt lat="48.71361" lon="2.48467">
        <ele>40</ele>
        <time>2024-01-22T15:58:49.253+00:00</time>
      </trkpt>
      <trkpt lat="48.71362" lon="2.48457">
        <ele>41</ele>
        <time>2024-01-22T15:58:53.645+00:00</time>
      </trkpt>
      <trkpt lat="48.71363" lon="2.48451">
        <ele>41</ele>
        <time>2024-01-22T15:58:57.839+00:00</time>
      </trkpt>
      <trkpt lat="48.71364" lon="2.48445">
        <ele>41</ele>
        <time>2024-01-22T15:59:01.792+00:00</time>
      </trkpt>
      <trkpt lat="48.71365" lon="2.48437">
        <ele>41</ele>
        <time>2024-01-22T15:59:05.846+00:00</time>
      </trkpt>
      <trkpt lat="48.71366" lon="2.4843">
        <ele>41</ele>
        <time>2024-01-22T15:59:10.038+00:00</time>
      </trkpt>
      <trkpt lat="48.71367" lon="2.48424">
        <ele>41</ele>
        <time>2024-01-22T15:59:14.193+00:00</time>
      </trkpt>
      <trkpt lat="48.71368" lon="2.48415">
        <ele>41</ele>
        <time>2024-01-22T15:59:18.207+00:00</time>
      </trkpt>
      <trkpt lat="48.71371" lon="2.48404">
        <ele>41</ele>
        <time>2024-01-22T15:59:23.311+00:00</time>
      </trkpt>
      <trkpt lat="48.71375" lon="2.48398">
        <ele>38</ele>
        <time>2024-01-22T15:59:27.287+00:00</time>
      </trkpt>
      <trkpt lat="48.71381" lon="2.48391">
        <ele>38</ele>
        <time>2024-01-22T15:59:31.861+00:00</time>
      </trkpt>
      <trkpt lat="48.71385" lon="2.48386">
        <ele>38</ele>
        <time>2024-01-22T15:59:35.754+00:00</time>
      </trkpt>
      <trkpt lat="48.7139" lon="2.48381">
        <ele>38</ele>
        <time>2024-01-22T15:59:40.065+00:00</time>
      </trkpt>
      <trkpt lat="48.71394" lon="2.48376">
        <ele>38</ele>
        <time>2024-01-22T15:59:44.017+00:00</time>
      </trkpt>
      <trkpt lat="48.71398" lon="2.48371">
        <ele>37</ele>
        <time>2024-01-22T15:59:48.329+00:00</time>
      </trkpt>
      <trkpt lat="48.714" lon="2.48365">
        <ele>37</ele>
        <time>2024-01-22T15:59:52.703+00:00</time>
      </trkpt>
      <trkpt lat="48.71404" lon="2.48357">
        <ele>36</ele>
        <time>2024-01-22T15:59:56.712+00:00</time>
      </trkpt>
      <trkpt lat="48.71406" lon="2.48349">
        <ele>36</ele>
        <time>2024-01-22T16:00:01.048+00:00</time>
      </trkpt>
      <trkpt lat="48.71408" lon="2.48344">
        <ele>36</ele>
        <time>2024-01-22T16:00:12.841+00:00</time>
      </trkpt>
      <trkpt lat="48.71407" lon="2.48343">
        <ele>36</ele>
        <time>2024-01-22T16:00:17.031+00:00</time>
      </trkpt>
      <trkpt lat="48.71407" lon="2.48342">
        <ele>36</ele>
        <time>2024-01-22T16:00:22.259+00:00</time>
      </trkpt>
      <trkpt lat="48.7141" lon="2.48335">
        <ele>36</ele>
        <time>2024-01-22T16:00:26.808+00:00</time>
      </trkpt>
      <trkpt lat="48.71413" lon="2.48316">
        <ele>36</ele>
        <time>2024-01-22T16:00:31.263+00:00</time>
      </trkpt>
      <trkpt lat="48.71414" lon="2.48305">
        <ele>36</ele>
        <time>2024-01-22T16:00:35.937+00:00</time>
      </trkpt>
      <trkpt lat="48.71414" lon="2.48297">
        <ele>36</ele>
        <time>2024-01-22T16:00:39.856+00:00</time>
      </trkpt>
      <trkpt lat="48.71414" lon="2.48289">
        <ele>37</ele>
        <time>2024-01-22T16:00:44.046+00:00</time>
      </trkpt>
      <trkpt lat="48.71413" lon="2.48281">
        <ele>37</ele>
        <time>2024-01-22T16:00:47.998+00:00</time>
      </trkpt>
      <trkpt lat="48.71413" lon="2.48272">
        <ele>37</ele>
        <time>2024-01-22T16:00:52.431+00:00</time>
      </trkpt>
      <trkpt lat="48.71412" lon="2.48265">
        <ele>37</ele>
        <time>2024-01-22T16:00:56.862+00:00</time>
      </trkpt>
      <trkpt lat="48.7141" lon="2.48257">
        <ele>37</ele>
        <time>2024-01-22T16:01:00.836+00:00</time>
      </trkpt>
      <trkpt lat="48.71409" lon="2.48253">
        <ele>37</ele>
        <time>2024-01-22T16:01:05.029+00:00</time>
      </trkpt>
      <trkpt lat="48.7141" lon="2.4825">
        <ele>37</ele>
        <time>2024-01-22T16:01:09.702+00:00</time>
      </trkpt>
      <trkpt lat="48.71408" lon="2.48246">
        <ele>37</ele>
        <time>2024-01-22T16:01:14.214+00:00</time>
      </trkpt>
      <trkpt lat="48.71407" lon="2.4824">
        <ele>37</ele>
        <time>2024-01-22T16:01:18.168+00:00</time>
      </trkpt>
      <trkpt lat="48.71406" lon="2.48231">
        <ele>37</ele>
        <time>2024-01-22T16:01:22.221+00:00</time>
      </trkpt>
      <trkpt lat="48.71406" lon="2.48221">
        <ele>37</ele>
        <time>2024-01-22T16:01:26.173+00:00</time>
      </trkpt>
      <trkpt lat="48.71404" lon="2.48211">
        <ele>37</ele>
        <time>2024-01-22T16:01:30.844+00:00</time>
      </trkpt>
      <trkpt lat="48.71404" lon="2.48202">
        <ele>37</ele>
        <time>2024-01-22T16:01:34.796+00:00</time>
      </trkpt>
      <trkpt lat="48.71404" lon="2.48191">
        <ele>37</ele>
        <time>2024-01-22T16:01:39.466+00:00</time>
      </trkpt>
      <trkpt lat="48.71402" lon="2.48182">
        <ele>35</ele>
        <time>2024-01-22T16:01:43.897+00:00</time>
      </trkpt>
      <trkpt lat="48.71401" lon="2.48174">
        <ele>35</ele>
        <time>2024-01-22T16:01:48.088+00:00</time>
      </trkpt>
      <trkpt lat="48.714" lon="2.48167">
        <ele>35</ele>
        <time>2024-01-22T16:01:52.041+00:00</time>
      </trkpt>
      <trkpt lat="48.71399" lon="2.48159">
        <ele>35</ele>
        <time>2024-01-22T16:01:55.873+00:00</time>
      </trkpt>
      <trkpt lat="48.71401" lon="2.48151">
        <ele>35</ele>
        <time>2024-01-22T16:02:00.064+00:00</time>
      </trkpt>
      <trkpt lat="48.714" lon="2.48141">
        <ele>35</ele>
        <time>2024-01-22T16:02:04.677+00:00</time>
      </trkpt>
      <trkpt lat="48.71399" lon="2.48134">
        <ele>35</ele>
        <time>2024-01-22T16:02:08.830+00:00</time>
      </trkpt>
      <trkpt lat="48.71398" lon="2.48127">
        <ele>35</ele>
        <time>2024-01-22T16:02:13.526+00:00</time>
      </trkpt>
      <trkpt lat="48.71397" lon="2.48119">
        <ele>36</ele>
        <time>2024-01-22T16:02:18.053+00:00</time>
      </trkpt>
      <trkpt lat="48.71395" lon="2.48112">
        <ele>36</ele>
        <time>2024-01-22T16:02:21.886+00:00</time>
      </trkpt>
      <trkpt lat="48.71394" lon="2.48104">
        <ele>36</ele>
        <time>2024-01-22T16:02:27.081+00:00</time>
      </trkpt>
      <trkpt lat="48.71393" lon="2.48099">
        <ele>36</ele>
        <time>2024-01-22T16:02:31.201+00:00</time>
      </trkpt>
      <trkpt lat="48.71392" lon="2.48092">
        <ele>37</ele>
        <time>2024-01-22T16:02:35.064+00:00</time>
      </trkpt>
      <trkpt lat="48.7139" lon="2.48081">
        <ele>37</ele>
        <time>2024-01-22T16:02:39.097+00:00</time>
      </trkpt>
      <trkpt lat="48.7139" lon="2.48071">
        <ele>37</ele>
        <time>2024-01-22T16:02:43.649+00:00</time>
      </trkpt>
      <trkpt lat="48.71389" lon="2.48062">
        <ele>37</ele>
        <time>2024-01-22T16:02:47.721+00:00</time>
      </trkpt>
      <trkpt lat="48.71388" lon="2.48055">
        <ele>37</ele>
        <time>2024-01-22T16:02:51.671+00:00</time>
      </trkpt>
      <trkpt lat="48.71388" lon="2.48047">
        <ele>37</ele>
        <time>2024-01-22T16:02:56.101+00:00</time>
      </trkpt>
      <trkpt lat="48.71388" lon="2.4804">
        <ele>38</ele>
        <time>2024-01-22T16:03:00.052+00:00</time>
      </trkpt>
      <trkpt lat="48.71387" lon="2.48032">
        <ele>38</ele>
        <time>2024-01-22T16:03:04.064+00:00</time>
      </trkpt>
      <trkpt lat="48.71385" lon="2.48025">
        <ele>38</ele>
        <time>2024-01-22T16:03:08.256+00:00</time>
      </trkpt>
      <trkpt lat="48.71386" lon="2.48016">
        <ele>38</ele>
        <time>2024-01-22T16:03:12.408+00:00</time>
      </trkpt>
      <trkpt lat="48.71386" lon="2.48008">
        <ele>38</ele>
        <time>2024-01-22T16:03:16.360+00:00</time>
      </trkpt>
      <trkpt lat="48.71385" lon="2.48">
        <ele>38</ele>
        <time>2024-01-22T16:03:20.789+00:00</time>
      </trkpt>
      <trkpt lat="48.71382" lon="2.47991">
        <ele>38</ele>
        <time>2024-01-22T16:03:24.859+00:00</time>
      </trkpt>
      <trkpt lat="48.71379" lon="2.47979">
        <ele>38</ele>
        <time>2024-01-22T16:03:28.892+00:00</time>
      </trkpt>
      <trkpt lat="48.71377" lon="2.47971">
        <ele>38</ele>
        <time>2024-01-22T16:03:33.179+00:00</time>
      </trkpt>
      <trkpt lat="48.71379" lon="2.47965">
        <ele>38</ele>
        <time>2024-01-22T16:03:37.097+00:00</time>
      </trkpt>
      <trkpt lat="48.71378" lon="2.4796">
        <ele>38</ele>
        <time>2024-01-22T16:03:41.032+00:00</time>
      </trkpt>
      <trkpt lat="48.71379" lon="2.47951">
        <ele>39</ele>
        <time>2024-01-22T16:03:45.105+00:00</time>
      </trkpt>
      <trkpt lat="48.71378" lon="2.4794">
        <ele>39</ele>
        <time>2024-01-22T16:03:49.658+00:00</time>
      </trkpt>
      <trkpt lat="48.71374" lon="2.47934">
        <ele>37</ele>
        <time>2024-01-22T16:03:54.080+00:00</time>
      </trkpt>
      <trkpt lat="48.71371" lon="2.4793">
        <ele>38</ele>
        <time>2024-01-22T16:03:58.040+00:00</time>
      </trkpt>
      <trkpt lat="48.71375" lon="2.47923">
        <ele>39</ele>
        <time>2024-01-22T16:04:02.483+00:00</time>
      </trkpt>
      <trkpt lat="48.71377" lon="2.47917">
        <ele>39</ele>
        <time>2024-01-22T16:04:06.662+00:00</time>
      </trkpt>
      <trkpt lat="48.7138" lon="2.47914">
        <ele>39</ele>
        <time>2024-01-22T16:04:11.093+00:00</time>
      </trkpt>
      <trkpt lat="48.71384" lon="2.47913">
        <ele>39</ele>
        <time>2024-01-22T16:04:16.246+00:00</time>
      </trkpt>
      <trkpt lat="48.71386" lon="2.47913">
        <ele>39</ele>
        <time>2024-01-22T16:04:20.245+00:00</time>
      </trkpt>
      <trkpt lat="48.7139" lon="2.47911">
        <ele>39</ele>
        <time>2024-01-22T16:04:24.264+00:00</time>
      </trkpt>
      <trkpt lat="48.71396" lon="2.47909">
        <ele>39</ele>
        <time>2024-01-22T16:04:28.355+00:00</time>
      </trkpt>
      <trkpt lat="48.71401" lon="2.47906">
        <ele>39</ele>
        <time>2024-01-22T16:04:32.970+00:00</time>
      </trkpt>
      <trkpt lat="48.71405" lon="2.47904">
        <ele>39</ele>
        <time>2024-01-22T16:04:37.044+00:00</time>
      </trkpt>
      <trkpt lat="48.7141" lon="2.47901">
        <ele>39</ele>
        <time>2024-01-22T16:04:41.901+00:00</time>
      </trkpt>
      <trkpt lat="48.71414" lon="2.479">
        <ele>39</ele>
        <time>2024-01-22T16:04:45.674+00:00</time>
      </trkpt>
      <trkpt lat="48.71419" lon="2.47898">
        <ele>39</ele>
        <time>2024-01-22T16:04:49.869+00:00</time>
      </trkpt>
      <trkpt lat="48.71425" lon="2.47898">
        <ele>39</ele>
        <time>2024-01-22T16:04:54.664+00:00</time>
      </trkpt>
      <trkpt lat="48.7143" lon="2.47899">
        <ele>39</ele>
        <time>2024-01-22T16:04:58.680+00:00</time>
      </trkpt>
      <trkpt lat="48.71436" lon="2.47897">
        <ele>39</ele>
        <time>2024-01-22T16:05:03.017+00:00</time>
      </trkpt>
      <trkpt lat="48.71441" lon="2.47894">
        <ele>39</ele>
        <time>2024-01-22T16:05:06.828+00:00</time>
      </trkpt>
      <trkpt lat="48.71449" lon="2.47897">
        <ele>39</ele>
        <time>2024-01-22T16:05:11.380+00:00</time>
      </trkpt>
      <trkpt lat="48.71455" lon="2.47895">
        <ele>39</ele>
        <time>2024-01-22T16:05:15.813+00:00</time>
      </trkpt>
      <trkpt lat="48.71458" lon="2.47893">
        <ele>39</ele>
        <time>2024-01-22T16:05:20.275+00:00</time>
      </trkpt>
    </trkseg>
  </trk>
</gpx>